<?xml version='1.0' encoding='UTF-8'?><gpx version="1.1" creator="JPX - https://github.com/jenetics/jpx" xmlns="http://www.topografix.com/GPX/1/1"><trk><trkseg><trkpt lat="43.9809633" lon="12.410345"><ele>146.5</ele><time>2026-04-25T06:46:35.39Z</time></trkpt><trkpt lat="43.9808417" lon="12.41032"><ele>146.0</ele><time>2026-04-25T06:46:36.39Z</time></trkpt><trkpt lat="43.9806833" lon="12.4102983"><ele>145.5</ele><time>2026-04-25T06:46:37.389Z</time></trkpt><trkpt lat="43.9805283" lon="12.4102933"><ele>145.0</ele><time>2026-04-25T06:46:38.389Z</time></trkpt><trkpt lat="43.98036" lon="12.4102917"><ele>145.0</ele><time>2026-04-25T06:46:39.39Z</time></trkpt><trkpt lat="43.9801867" lon="12.410285"><ele>145.0</ele><time>2026-04-25T06:46:40.389Z</time></trkpt><trkpt lat="43.98001" lon="12.4102833"><ele>145.0</ele><time>2026-04-25T06:46:41.39Z</time></trkpt><trkpt lat="43.979835" lon="12.4102717"><ele>144.66666666666669</ele><time>2026-04-25T06:46:42.39Z</time></trkpt><trkpt lat="43.9796433" lon="12.4102667"><ele>144.33333333333334</ele><time>2026-04-25T06:46:43.39Z</time></trkpt><trkpt lat="43.9794367" lon="12.4102783"><ele>144.0</ele><time>2026-04-25T06:46:44.389Z</time></trkpt><trkpt lat="43.97923" lon="12.4102617"><ele>143.66666666666666</ele><time>2026-04-25T06:46:45.39Z</time></trkpt><trkpt lat="43.9790117" lon="12.4102467"><ele>143.33333333333331</ele><time>2026-04-25T06:46:46.389Z</time></trkpt><trkpt lat="43.9787967" lon="12.4102333"><ele>143.0</ele><time>2026-04-25T06:46:47.39Z</time></trkpt><trkpt lat="43.9785767" lon="12.4102117"><ele>143.0</ele><time>2026-04-25T06:46:48.39Z</time></trkpt><trkpt lat="43.978355" lon="12.41021"><ele>143.0</ele><time>2026-04-25T06:46:49.39Z</time></trkpt><trkpt lat="43.9781367" lon="12.4101967"><ele>143.0</ele><time>2026-04-25T06:46:50.389Z</time></trkpt><trkpt lat="43.9779083" lon="12.410185"><ele>141.0</ele><time>2026-04-25T06:46:51.39Z</time></trkpt><trkpt lat="43.9776833" lon="12.4101767"><ele>139.0</ele><time>2026-04-25T06:46:52.39Z</time></trkpt><trkpt lat="43.977455" lon="12.41017"><ele>138.66666666666669</ele><time>2026-04-25T06:46:53.389Z</time></trkpt><trkpt lat="43.97723" lon="12.4101617"><ele>138.33333333333334</ele><time>2026-04-25T06:46:54.39Z</time></trkpt><trkpt lat="43.9770117" lon="12.41017"><ele>138.0</ele><time>2026-04-25T06:46:55.39Z</time></trkpt><trkpt lat="43.9767867" lon="12.410195"><ele>136.5</ele><time>2026-04-25T06:46:56.39Z</time></trkpt><trkpt lat="43.9765567" lon="12.4102467"><ele>135.0</ele><time>2026-04-25T06:46:57.389Z</time></trkpt><trkpt lat="43.9763283" lon="12.4103183"><ele>135.0</ele><time>2026-04-25T06:46:58.389Z</time></trkpt><trkpt lat="43.9761" lon="12.4103967"><ele>135.0</ele><time>2026-04-25T06:46:59.389Z</time></trkpt><trkpt lat="43.9758683" lon="12.4104967"><ele>137.5</ele><time>2026-04-25T06:47:00.39Z</time></trkpt><trkpt lat="43.9756517" lon="12.4106167"><ele>140.0</ele><time>2026-04-25T06:47:01.39Z</time></trkpt><trkpt lat="43.9754433" lon="12.4107283"><ele>140.0</ele><time>2026-04-25T06:47:02.39Z</time></trkpt><trkpt lat="43.9752383" lon="12.4108233"><ele>140.0</ele><time>2026-04-25T06:47:03.389Z</time></trkpt><trkpt lat="43.975045" lon="12.41092"><ele>140.0</ele><time>2026-04-25T06:47:04.39Z</time></trkpt><trkpt lat="43.9748467" lon="12.4110067"><ele>136.66666666666666</ele><time>2026-04-25T06:47:05.389Z</time></trkpt><trkpt lat="43.9746667" lon="12.4110883"><ele>133.33333333333334</ele><time>2026-04-25T06:47:06.39Z</time></trkpt><trkpt lat="43.9745017" lon="12.4111683"><ele>130.0</ele><time>2026-04-25T06:47:07.39Z</time></trkpt><trkpt lat="43.9743433" lon="12.41124"><ele>131.66666666666669</ele><time>2026-04-25T06:47:08.389Z</time></trkpt><trkpt lat="43.9741817" lon="12.4112983"><ele>133.33333333333334</ele><time>2026-04-25T06:47:09.389Z</time></trkpt><trkpt lat="43.9740317" lon="12.4113467"><ele>135.0</ele><time>2026-04-25T06:47:10.389Z</time></trkpt><trkpt lat="43.973895" lon="12.4113883"><ele>135.0</ele><time>2026-04-25T06:47:11.39Z</time></trkpt><trkpt lat="43.9737667" lon="12.41143"><ele>135.0</ele><time>2026-04-25T06:47:12.389Z</time></trkpt><trkpt lat="43.97364" lon="12.41147"><ele>135.0</ele><time>2026-04-25T06:47:13.39Z</time></trkpt><trkpt lat="43.97352" lon="12.4115033"><ele>135.0</ele><time>2026-04-25T06:47:14.39Z</time></trkpt><trkpt lat="43.9734033" lon="12.41155"><ele>133.6</ele><time>2026-04-25T06:47:15.389Z</time></trkpt><trkpt lat="43.973295" lon="12.4115917"><ele>132.2</ele><time>2026-04-25T06:47:16.39Z</time></trkpt><trkpt lat="43.9731967" lon="12.4116417"><ele>130.8</ele><time>2026-04-25T06:47:17.389Z</time></trkpt><trkpt lat="43.97312" lon="12.411685"><ele>129.4</ele><time>2026-04-25T06:47:18.389Z</time></trkpt><trkpt lat="43.97305" lon="12.4117183"><ele>128.0</ele><time>2026-04-25T06:47:19.39Z</time></trkpt><trkpt lat="43.9729533" lon="12.411755"><ele>127.99999999999999</ele><time>2026-04-25T06:47:21.389Z</time></trkpt><trkpt lat="43.9728833" lon="12.4117567"><ele>128.0</ele><time>2026-04-25T06:47:23.39Z</time></trkpt><trkpt lat="43.9728033" lon="12.4117033"><ele>128.0</ele><time>2026-04-25T06:47:25.39Z</time></trkpt><trkpt lat="43.9727433" lon="12.4116633"><ele>128.0</ele><time>2026-04-25T06:47:26.39Z</time></trkpt><trkpt lat="43.972665" lon="12.4116317"><ele>127.99999999999999</ele><time>2026-04-25T06:47:27.389Z</time></trkpt><trkpt lat="43.972565" lon="12.4116383"><ele>128.0</ele><time>2026-04-25T06:47:28.389Z</time></trkpt><trkpt lat="43.9724533" lon="12.41168"><ele>126.25</ele><time>2026-04-25T06:47:29.39Z</time></trkpt><trkpt lat="43.972335" lon="12.411735"><ele>124.5</ele><time>2026-04-25T06:47:30.39Z</time></trkpt><trkpt lat="43.972205" lon="12.4118083"><ele>122.75</ele><time>2026-04-25T06:47:31.389Z</time></trkpt><trkpt lat="43.9720667" lon="12.4118883"><ele>121.0</ele><time>2026-04-25T06:47:32.39Z</time></trkpt><trkpt lat="43.9719183" lon="12.411955"><ele>121.0</ele><time>2026-04-25T06:47:33.39Z</time></trkpt><trkpt lat="43.9717717" lon="12.4120233"><ele>121.0</ele><time>2026-04-25T06:47:34.389Z</time></trkpt><trkpt lat="43.9716117" lon="12.41209"><ele>121.0</ele><time>2026-04-25T06:47:35.389Z</time></trkpt><trkpt lat="43.9714433" lon="12.4121483"><ele>119.66666666666667</ele><time>2026-04-25T06:47:36.39Z</time></trkpt><trkpt lat="43.97127" lon="12.4122"><ele>118.33333333333334</ele><time>2026-04-25T06:47:37.39Z</time></trkpt><trkpt lat="43.9710983" lon="12.41224"><ele>117.0</ele><time>2026-04-25T06:47:38.389Z</time></trkpt><trkpt lat="43.97092" lon="12.4122767"><ele>116.33333333333334</ele><time>2026-04-25T06:47:39.39Z</time></trkpt><trkpt lat="43.9707417" lon="12.41229"><ele>115.66666666666667</ele><time>2026-04-25T06:47:40.39Z</time></trkpt><trkpt lat="43.9705667" lon="12.41229"><ele>115.0</ele><time>2026-04-25T06:47:41.39Z</time></trkpt><trkpt lat="43.970395" lon="12.4122817"><ele>115.0</ele><time>2026-04-25T06:47:42.389Z</time></trkpt><trkpt lat="43.97022" lon="12.412255"><ele>115.0</ele><time>2026-04-25T06:47:43.39Z</time></trkpt><trkpt lat="43.97005" lon="12.4122183"><ele>115.0</ele><time>2026-04-25T06:47:44.39Z</time></trkpt><trkpt lat="43.9698833" lon="12.4121783"><ele>114.66666666666667</ele><time>2026-04-25T06:47:45.39Z</time></trkpt><trkpt lat="43.969725" lon="12.41213"><ele>114.33333333333334</ele><time>2026-04-25T06:47:46.39Z</time></trkpt><trkpt lat="43.96957" lon="12.4120683"><ele>114.0</ele><time>2026-04-25T06:47:47.39Z</time></trkpt><trkpt lat="43.96941" lon="12.4119917"><ele>114.0</ele><time>2026-04-25T06:47:48.389Z</time></trkpt><trkpt lat="43.96925" lon="12.411895"><ele>114.0</ele><time>2026-04-25T06:47:49.39Z</time></trkpt><trkpt lat="43.9690967" lon="12.41178"><ele>114.0</ele><time>2026-04-25T06:47:50.389Z</time></trkpt><trkpt lat="43.9689417" lon="12.4116517"><ele>114.0</ele><time>2026-04-25T06:47:51.39Z</time></trkpt><trkpt lat="43.968795" lon="12.41151"><ele>114.0</ele><time>2026-04-25T06:47:52.39Z</time></trkpt><trkpt lat="43.9686483" lon="12.4113667"><ele>114.0</ele><time>2026-04-25T06:47:53.389Z</time></trkpt><trkpt lat="43.968515" lon="12.41121"><ele>114.0</ele><time>2026-04-25T06:47:54.389Z</time></trkpt><trkpt lat="43.968385" lon="12.4110383"><ele>114.0</ele><time>2026-04-25T06:47:55.39Z</time></trkpt><trkpt lat="43.9682617" lon="12.410855"><ele>114.0</ele><time>2026-04-25T06:47:56.389Z</time></trkpt><trkpt lat="43.968145" lon="12.4106717"><ele>114.0</ele><time>2026-04-25T06:47:57.39Z</time></trkpt><trkpt lat="43.9680333" lon="12.4104683"><ele>114.0</ele><time>2026-04-25T06:47:58.389Z</time></trkpt><trkpt lat="43.9679317" lon="12.4102517"><ele>114.0</ele><time>2026-04-25T06:47:59.389Z</time></trkpt><trkpt lat="43.967835" lon="12.4100333"><ele>114.0</ele><time>2026-04-25T06:48:00.39Z</time></trkpt><trkpt lat="43.96774" lon="12.409815"><ele>114.0</ele><time>2026-04-25T06:48:01.389Z</time></trkpt><trkpt lat="43.9676467" lon="12.4095917"><ele>114.0</ele><time>2026-04-25T06:48:02.389Z</time></trkpt><trkpt lat="43.9675517" lon="12.4093767"><ele>115.0</ele><time>2026-04-25T06:48:03.389Z</time></trkpt><trkpt lat="43.96745" lon="12.4091583"><ele>116.0</ele><time>2026-04-25T06:48:04.389Z</time></trkpt><trkpt lat="43.967355" lon="12.4089433"><ele>117.0</ele><time>2026-04-25T06:48:05.39Z</time></trkpt><trkpt lat="43.9672617" lon="12.4087383"><ele>117.0</ele><time>2026-04-25T06:48:06.39Z</time></trkpt><trkpt lat="43.967165" lon="12.4085267"><ele>117.0</ele><time>2026-04-25T06:48:07.39Z</time></trkpt><trkpt lat="43.9670733" lon="12.4083233"><ele>117.0</ele><time>2026-04-25T06:48:08.389Z</time></trkpt><trkpt lat="43.9669783" lon="12.4081217"><ele>116.66666666666666</ele><time>2026-04-25T06:48:09.389Z</time></trkpt><trkpt lat="43.9668867" lon="12.40792"><ele>116.33333333333333</ele><time>2026-04-25T06:48:10.389Z</time></trkpt><trkpt lat="43.9667967" lon="12.407715"><ele>116.0</ele><time>2026-04-25T06:48:11.39Z</time></trkpt><trkpt lat="43.966705" lon="12.4075117"><ele>117.0</ele><time>2026-04-25T06:48:12.389Z</time></trkpt><trkpt lat="43.96661" lon="12.40731"><ele>118.0</ele><time>2026-04-25T06:48:13.39Z</time></trkpt><trkpt lat="43.9665133" lon="12.407105"><ele>119.0</ele><time>2026-04-25T06:48:14.39Z</time></trkpt><trkpt lat="43.9664183" lon="12.4069083"><ele>119.0</ele><time>2026-04-25T06:48:15.389Z</time></trkpt><trkpt lat="43.96632" lon="12.406715"><ele>119.0</ele><time>2026-04-25T06:48:16.39Z</time></trkpt><trkpt lat="43.96622" lon="12.406515"><ele>119.0</ele><time>2026-04-25T06:48:17.389Z</time></trkpt><trkpt lat="43.966115" lon="12.4063217"><ele>118.66666666666666</ele><time>2026-04-25T06:48:18.39Z</time></trkpt><trkpt lat="43.966005" lon="12.4061317"><ele>118.33333333333334</ele><time>2026-04-25T06:48:19.389Z</time></trkpt><trkpt lat="43.9658917" lon="12.405955"><ele>118.0</ele><time>2026-04-25T06:48:20.389Z</time></trkpt><trkpt lat="43.9657833" lon="12.40578"><ele>118.66666666666667</ele><time>2026-04-25T06:48:21.39Z</time></trkpt><trkpt lat="43.9656683" lon="12.4056117"><ele>119.33333333333334</ele><time>2026-04-25T06:48:22.389Z</time></trkpt><trkpt lat="43.9655433" lon="12.4054483"><ele>120.0</ele><time>2026-04-25T06:48:23.39Z</time></trkpt><trkpt lat="43.96542" lon="12.4052733"><ele>120.0</ele><time>2026-04-25T06:48:24.39Z</time></trkpt><trkpt lat="43.9652867" lon="12.4051"><ele>120.0</ele><time>2026-04-25T06:48:25.39Z</time></trkpt><trkpt lat="43.965155" lon="12.4049183"><ele>120.0</ele><time>2026-04-25T06:48:26.39Z</time></trkpt><trkpt lat="43.9650217" lon="12.404735"><ele>120.33333333333334</ele><time>2026-04-25T06:48:27.39Z</time></trkpt><trkpt lat="43.9648883" lon="12.404555"><ele>120.66666666666667</ele><time>2026-04-25T06:48:28.389Z</time></trkpt><trkpt lat="43.9647633" lon="12.4043817"><ele>121.0</ele><time>2026-04-25T06:48:29.39Z</time></trkpt><trkpt lat="43.964645" lon="12.404215"><ele>121.0</ele><time>2026-04-25T06:48:30.39Z</time></trkpt><trkpt lat="43.9645267" lon="12.4040633"><ele>121.0</ele><time>2026-04-25T06:48:31.39Z</time></trkpt><trkpt lat="43.9644217" lon="12.4039033"><ele>121.0</ele><time>2026-04-25T06:48:32.39Z</time></trkpt><trkpt lat="43.9643083" lon="12.40376"><ele>119.66666666666667</ele><time>2026-04-25T06:48:33.39Z</time></trkpt><trkpt lat="43.9641967" lon="12.4036167"><ele>118.33333333333334</ele><time>2026-04-25T06:48:34.39Z</time></trkpt><trkpt lat="43.9640767" lon="12.4034733"><ele>117.0</ele><time>2026-04-25T06:48:35.39Z</time></trkpt><trkpt lat="43.9639567" lon="12.40335"><ele>117.5</ele><time>2026-04-25T06:48:36.39Z</time></trkpt><trkpt lat="43.9638367" lon="12.403235"><ele>118.0</ele><time>2026-04-25T06:48:37.389Z</time></trkpt><trkpt lat="43.9637183" lon="12.4031133"><ele>118.5</ele><time>2026-04-25T06:48:38.39Z</time></trkpt><trkpt lat="43.963595" lon="12.4029933"><ele>119.0</ele><time>2026-04-25T06:48:39.39Z</time></trkpt><trkpt lat="43.963465" lon="12.4028717"><ele>121.5</ele><time>2026-04-25T06:48:40.39Z</time></trkpt><trkpt lat="43.9633333" lon="12.4027667"><ele>124.0</ele><time>2026-04-25T06:48:41.39Z</time></trkpt><trkpt lat="43.9632083" lon="12.40268"><ele>126.5</ele><time>2026-04-25T06:48:42.39Z</time></trkpt><trkpt lat="43.9630867" lon="12.40261"><ele>129.0</ele><time>2026-04-25T06:48:43.389Z</time></trkpt><trkpt lat="43.9629733" lon="12.402535"><ele>129.0</ele><time>2026-04-25T06:48:44.39Z</time></trkpt><trkpt lat="43.9628517" lon="12.4024583"><ele>129.0</ele><time>2026-04-25T06:48:45.389Z</time></trkpt><trkpt lat="43.9627233" lon="12.4023867"><ele>129.0</ele><time>2026-04-25T06:48:46.39Z</time></trkpt><trkpt lat="43.962595" lon="12.402305"><ele>129.0</ele><time>2026-04-25T06:48:47.39Z</time></trkpt><trkpt lat="43.9624683" lon="12.4022267"><ele>129.0</ele><time>2026-04-25T06:48:48.389Z</time></trkpt><trkpt lat="43.9623483" lon="12.402155"><ele>129.0</ele><time>2026-04-25T06:48:49.389Z</time></trkpt><trkpt lat="43.96224" lon="12.4020883"><ele>129.0</ele><time>2026-04-25T06:48:50.389Z</time></trkpt><trkpt lat="43.96214" lon="12.40203"><ele>129.0</ele><time>2026-04-25T06:48:51.389Z</time></trkpt><trkpt lat="43.9620417" lon="12.4019733"><ele>129.0</ele><time>2026-04-25T06:48:52.39Z</time></trkpt><trkpt lat="43.9619517" lon="12.40192"><ele>129.0</ele><time>2026-04-25T06:48:53.39Z</time></trkpt><trkpt lat="43.9618633" lon="12.4018683"><ele>129.0</ele><time>2026-04-25T06:48:54.389Z</time></trkpt><trkpt lat="43.9617783" lon="12.4018167"><ele>129.0</ele><time>2026-04-25T06:48:55.389Z</time></trkpt><trkpt lat="43.9616967" lon="12.4017633"><ele>129.0</ele><time>2026-04-25T06:48:56.389Z</time></trkpt><trkpt lat="43.961625" lon="12.4017017"><ele>129.5</ele><time>2026-04-25T06:48:57.389Z</time></trkpt><trkpt lat="43.9615533" lon="12.4016133"><ele>130.0</ele><time>2026-04-25T06:48:58.389Z</time></trkpt><trkpt lat="43.961465" lon="12.401535"><ele>130.5</ele><time>2026-04-25T06:48:59.389Z</time></trkpt><trkpt lat="43.96136" lon="12.401455"><ele>131.0</ele><time>2026-04-25T06:49:00.389Z</time></trkpt><trkpt lat="43.9612383" lon="12.4013683"><ele>130.33333333333331</ele><time>2026-04-25T06:49:01.39Z</time></trkpt><trkpt lat="43.9611117" lon="12.40125"><ele>129.66666666666666</ele><time>2026-04-25T06:49:02.39Z</time></trkpt><trkpt lat="43.9609867" lon="12.4011033"><ele>129.0</ele><time>2026-04-25T06:49:03.389Z</time></trkpt><trkpt lat="43.960865" lon="12.4009517"><ele>129.0</ele><time>2026-04-25T06:49:04.39Z</time></trkpt><trkpt lat="43.9607433" lon="12.4007783"><ele>129.0</ele><time>2026-04-25T06:49:05.389Z</time></trkpt><trkpt lat="43.960625" lon="12.400595"><ele>129.0</ele><time>2026-04-25T06:49:06.389Z</time></trkpt><trkpt lat="43.9605183" lon="12.400415"><ele>127.66666666666666</ele><time>2026-04-25T06:49:07.389Z</time></trkpt><trkpt lat="43.96042" lon="12.40023"><ele>126.33333333333333</ele><time>2026-04-25T06:49:08.389Z</time></trkpt><trkpt lat="43.96032" lon="12.4000583"><ele>125.0</ele><time>2026-04-25T06:49:09.389Z</time></trkpt><trkpt lat="43.9602233" lon="12.3998833"><ele>125.0</ele><time>2026-04-25T06:49:10.39Z</time></trkpt><trkpt lat="43.9601283" lon="12.3997067"><ele>125.0</ele><time>2026-04-25T06:49:11.39Z</time></trkpt><trkpt lat="43.9600383" lon="12.3995317"><ele>125.0</ele><time>2026-04-25T06:49:12.39Z</time></trkpt><trkpt lat="43.9599517" lon="12.399365"><ele>125.0</ele><time>2026-04-25T06:49:13.389Z</time></trkpt><trkpt lat="43.9598683" lon="12.3992117"><ele>125.0</ele><time>2026-04-25T06:49:14.39Z</time></trkpt><trkpt lat="43.95979" lon="12.3990633"><ele>125.0</ele><time>2026-04-25T06:49:15.39Z</time></trkpt><trkpt lat="43.959715" lon="12.3989267"><ele>125.0</ele><time>2026-04-25T06:49:16.39Z</time></trkpt><trkpt lat="43.95964" lon="12.398785"><ele>126.75</ele><time>2026-04-25T06:49:17.389Z</time></trkpt><trkpt lat="43.959565" lon="12.3986467"><ele>128.5</ele><time>2026-04-25T06:49:18.39Z</time></trkpt><trkpt lat="43.9594883" lon="12.3984967"><ele>130.25</ele><time>2026-04-25T06:49:19.389Z</time></trkpt><trkpt lat="43.959415" lon="12.39834"><ele>132.0</ele><time>2026-04-25T06:49:20.389Z</time></trkpt><trkpt lat="43.9593483" lon="12.3981917"><ele>132.0</ele><time>2026-04-25T06:49:21.389Z</time></trkpt><trkpt lat="43.9592783" lon="12.3980533"><ele>132.0</ele><time>2026-04-25T06:49:22.389Z</time></trkpt><trkpt lat="43.959215" lon="12.39792"><ele>132.0</ele><time>2026-04-25T06:49:23.39Z</time></trkpt><trkpt lat="43.9591633" lon="12.3977933"><ele>132.0</ele><time>2026-04-25T06:49:24.39Z</time></trkpt><trkpt lat="43.95911" lon="12.39766"><ele>131.5</ele><time>2026-04-25T06:49:25.39Z</time></trkpt><trkpt lat="43.9590517" lon="12.397515"><ele>131.0</ele><time>2026-04-25T06:49:26.389Z</time></trkpt><trkpt lat="43.95899" lon="12.3973517"><ele>130.5</ele><time>2026-04-25T06:49:27.389Z</time></trkpt><trkpt lat="43.9589183" lon="12.3971783"><ele>130.0</ele><time>2026-04-25T06:49:28.39Z</time></trkpt><trkpt lat="43.9588433" lon="12.396985"><ele>130.0</ele><time>2026-04-25T06:49:29.39Z</time></trkpt><trkpt lat="43.95877" lon="12.39678"><ele>130.0</ele><time>2026-04-25T06:49:30.389Z</time></trkpt><trkpt lat="43.9586967" lon="12.3965717"><ele>130.0</ele><time>2026-04-25T06:49:31.39Z</time></trkpt><trkpt lat="43.9586133" lon="12.3963567"><ele>129.0</ele><time>2026-04-25T06:49:32.389Z</time></trkpt><trkpt lat="43.95854" lon="12.39613"><ele>128.0</ele><time>2026-04-25T06:49:33.39Z</time></trkpt><trkpt lat="43.9584667" lon="12.3959083"><ele>127.0</ele><time>2026-04-25T06:49:34.39Z</time></trkpt><trkpt lat="43.9583883" lon="12.3956967"><ele>128.66666666666669</ele><time>2026-04-25T06:49:35.389Z</time></trkpt><trkpt lat="43.9583183" lon="12.3954983"><ele>130.33333333333334</ele><time>2026-04-25T06:49:36.39Z</time></trkpt><trkpt lat="43.958245" lon="12.39529"><ele>132.0</ele><time>2026-04-25T06:49:37.39Z</time></trkpt><trkpt lat="43.9581733" lon="12.3950883"><ele>132.0</ele><time>2026-04-25T06:49:38.39Z</time></trkpt><trkpt lat="43.9580983" lon="12.3948917"><ele>132.0</ele><time>2026-04-25T06:49:39.39Z</time></trkpt><trkpt lat="43.958025" lon="12.3946917"><ele>132.0</ele><time>2026-04-25T06:49:40.389Z</time></trkpt><trkpt lat="43.957955" lon="12.3944917"><ele>130.66666666666666</ele><time>2026-04-25T06:49:41.39Z</time></trkpt><trkpt lat="43.9578883" lon="12.3942933"><ele>129.33333333333331</ele><time>2026-04-25T06:49:42.39Z</time></trkpt><trkpt lat="43.9578183" lon="12.3941067"><ele>128.0</ele><time>2026-04-25T06:49:43.39Z</time></trkpt><trkpt lat="43.9577467" lon="12.3939183"><ele>127.66666666666666</ele><time>2026-04-25T06:49:44.39Z</time></trkpt><trkpt lat="43.9576767" lon="12.39372"><ele>127.33333333333334</ele><time>2026-04-25T06:49:45.39Z</time></trkpt><trkpt lat="43.957615" lon="12.3935233"><ele>127.0</ele><time>2026-04-25T06:49:46.39Z</time></trkpt><trkpt lat="43.9575483" lon="12.3933317"><ele>128.33333333333334</ele><time>2026-04-25T06:49:47.39Z</time></trkpt><trkpt lat="43.9574833" lon="12.39314"><ele>129.66666666666666</ele><time>2026-04-25T06:49:48.389Z</time></trkpt><trkpt lat="43.9574133" lon="12.392945"><ele>131.0</ele><time>2026-04-25T06:49:49.39Z</time></trkpt><trkpt lat="43.9573467" lon="12.3927617"><ele>131.0</ele><time>2026-04-25T06:49:50.39Z</time></trkpt><trkpt lat="43.9572817" lon="12.3925783"><ele>131.0</ele><time>2026-04-25T06:49:51.389Z</time></trkpt><trkpt lat="43.9572267" lon="12.39239"><ele>131.0</ele><time>2026-04-25T06:49:52.39Z</time></trkpt><trkpt lat="43.95718" lon="12.392205"><ele>131.0</ele><time>2026-04-25T06:49:53.39Z</time></trkpt><trkpt lat="43.9571333" lon="12.3920133"><ele>130.66666666666666</ele><time>2026-04-25T06:49:54.39Z</time></trkpt><trkpt lat="43.9570917" lon="12.3918167"><ele>130.33333333333334</ele><time>2026-04-25T06:49:55.389Z</time></trkpt><trkpt lat="43.9570567" lon="12.3916117"><ele>130.0</ele><time>2026-04-25T06:49:56.39Z</time></trkpt><trkpt lat="43.9570283" lon="12.3914017"><ele>130.0</ele><time>2026-04-25T06:49:57.389Z</time></trkpt><trkpt lat="43.95701" lon="12.39119"><ele>130.0</ele><time>2026-04-25T06:49:58.389Z</time></trkpt><trkpt lat="43.9569983" lon="12.3909867"><ele>130.0</ele><time>2026-04-25T06:49:59.389Z</time></trkpt><trkpt lat="43.9569967" lon="12.3907867"><ele>130.0</ele><time>2026-04-25T06:50:00.389Z</time></trkpt><trkpt lat="43.9569917" lon="12.390585"><ele>130.33333333333334</ele><time>2026-04-25T06:50:01.39Z</time></trkpt><trkpt lat="43.9569983" lon="12.3903733"><ele>130.66666666666666</ele><time>2026-04-25T06:50:02.39Z</time></trkpt><trkpt lat="43.9570133" lon="12.39016"><ele>131.0</ele><time>2026-04-25T06:50:03.389Z</time></trkpt><trkpt lat="43.9570317" lon="12.38994"><ele>131.0</ele><time>2026-04-25T06:50:04.39Z</time></trkpt><trkpt lat="43.9570567" lon="12.3897267"><ele>131.0</ele><time>2026-04-25T06:50:05.39Z</time></trkpt><trkpt lat="43.957085" lon="12.3895133"><ele>131.0</ele><time>2026-04-25T06:50:06.389Z</time></trkpt><trkpt lat="43.9571283" lon="12.3893067"><ele>130.66666666666666</ele><time>2026-04-25T06:50:07.389Z</time></trkpt><trkpt lat="43.95717" lon="12.3890967"><ele>130.33333333333334</ele><time>2026-04-25T06:50:08.39Z</time></trkpt><trkpt lat="43.95722" lon="12.3888917"><ele>130.0</ele><time>2026-04-25T06:50:09.39Z</time></trkpt><trkpt lat="43.9572683" lon="12.3886767"><ele>131.33333333333334</ele><time>2026-04-25T06:50:10.389Z</time></trkpt><trkpt lat="43.95732" lon="12.3884517"><ele>132.66666666666666</ele><time>2026-04-25T06:50:11.389Z</time></trkpt><trkpt lat="43.9573733" lon="12.3882183"><ele>134.0</ele><time>2026-04-25T06:50:12.39Z</time></trkpt><trkpt lat="43.9574333" lon="12.3879733"><ele>135.33333333333331</ele><time>2026-04-25T06:50:13.39Z</time></trkpt><trkpt lat="43.9575033" lon="12.3877183"><ele>136.66666666666666</ele><time>2026-04-25T06:50:14.389Z</time></trkpt><trkpt lat="43.957575" lon="12.3874583"><ele>138.0</ele><time>2026-04-25T06:50:15.389Z</time></trkpt><trkpt lat="43.9576467" lon="12.3872017"><ele>136.66666666666666</ele><time>2026-04-25T06:50:16.39Z</time></trkpt><trkpt lat="43.9577117" lon="12.38695"><ele>135.33333333333331</ele><time>2026-04-25T06:50:17.389Z</time></trkpt><trkpt lat="43.9577717" lon="12.3866983"><ele>134.0</ele><time>2026-04-25T06:50:18.389Z</time></trkpt><trkpt lat="43.9578267" lon="12.3864383"><ele>134.33333333333331</ele><time>2026-04-25T06:50:19.389Z</time></trkpt><trkpt lat="43.95787" lon="12.38617"><ele>134.66666666666666</ele><time>2026-04-25T06:50:20.39Z</time></trkpt><trkpt lat="43.95789" lon="12.385895"><ele>135.0</ele><time>2026-04-25T06:50:21.389Z</time></trkpt><trkpt lat="43.9578967" lon="12.3856233"><ele>134.0</ele><time>2026-04-25T06:50:22.389Z</time></trkpt><trkpt lat="43.957885" lon="12.3853483"><ele>133.0</ele><time>2026-04-25T06:50:23.389Z</time></trkpt><trkpt lat="43.9578533" lon="12.3850717"><ele>132.0</ele><time>2026-04-25T06:50:24.39Z</time></trkpt><trkpt lat="43.9578" lon="12.3847983"><ele>132.66666666666666</ele><time>2026-04-25T06:50:25.39Z</time></trkpt><trkpt lat="43.9577333" lon="12.384535"><ele>133.33333333333331</ele><time>2026-04-25T06:50:26.39Z</time></trkpt><trkpt lat="43.957655" lon="12.38428"><ele>134.0</ele><time>2026-04-25T06:50:27.39Z</time></trkpt><trkpt lat="43.957565" lon="12.3840317"><ele>138.33333333333331</ele><time>2026-04-25T06:50:28.389Z</time></trkpt><trkpt lat="43.9574683" lon="12.3837983"><ele>142.66666666666666</ele><time>2026-04-25T06:50:29.389Z</time></trkpt><trkpt lat="43.9573667" lon="12.38356"><ele>147.0</ele><time>2026-04-25T06:50:30.389Z</time></trkpt><trkpt lat="43.9572633" lon="12.3833217"><ele>147.0</ele><time>2026-04-25T06:50:31.39Z</time></trkpt><trkpt lat="43.957165" lon="12.38309"><ele>147.0</ele><time>2026-04-25T06:50:32.389Z</time></trkpt><trkpt lat="43.9570617" lon="12.3828483"><ele>147.0</ele><time>2026-04-25T06:50:33.39Z</time></trkpt><trkpt lat="43.95696" lon="12.382615"><ele>148.66666666666666</ele><time>2026-04-25T06:50:34.389Z</time></trkpt><trkpt lat="43.9568583" lon="12.3823833"><ele>150.33333333333331</ele><time>2026-04-25T06:50:35.39Z</time></trkpt><trkpt lat="43.9567583" lon="12.3821417"><ele>152.0</ele><time>2026-04-25T06:50:36.389Z</time></trkpt><trkpt lat="43.9566667" lon="12.3818967"><ele>152.0</ele><time>2026-04-25T06:50:37.389Z</time></trkpt><trkpt lat="43.9565717" lon="12.381655"><ele>152.0</ele><time>2026-04-25T06:50:38.39Z</time></trkpt><trkpt lat="43.9564767" lon="12.3814083"><ele>152.0</ele><time>2026-04-25T06:50:39.39Z</time></trkpt><trkpt lat="43.9563783" lon="12.3811717"><ele>150.33333333333331</ele><time>2026-04-25T06:50:40.39Z</time></trkpt><trkpt lat="43.9562767" lon="12.380925"><ele>148.66666666666666</ele><time>2026-04-25T06:50:41.389Z</time></trkpt><trkpt lat="43.956175" lon="12.38068"><ele>147.0</ele><time>2026-04-25T06:50:42.39Z</time></trkpt><trkpt lat="43.9560783" lon="12.380445"><ele>144.66666666666666</ele><time>2026-04-25T06:50:43.39Z</time></trkpt><trkpt lat="43.9559817" lon="12.3802133"><ele>142.33333333333331</ele><time>2026-04-25T06:50:44.39Z</time></trkpt><trkpt lat="43.95588" lon="12.3799717"><ele>140.0</ele><time>2026-04-25T06:50:45.389Z</time></trkpt><trkpt lat="43.9557817" lon="12.3797333"><ele>144.33333333333331</ele><time>2026-04-25T06:50:46.389Z</time></trkpt><trkpt lat="43.9556833" lon="12.3794933"><ele>148.66666666666666</ele><time>2026-04-25T06:50:47.389Z</time></trkpt><trkpt lat="43.9555833" lon="12.3792533"><ele>153.0</ele><time>2026-04-25T06:50:48.39Z</time></trkpt><trkpt lat="43.9554783" lon="12.3790167"><ele>152.33333333333334</ele><time>2026-04-25T06:50:49.389Z</time></trkpt><trkpt lat="43.9553817" lon="12.3787817"><ele>151.66666666666669</ele><time>2026-04-25T06:50:50.389Z</time></trkpt><trkpt lat="43.955285" lon="12.378545"><ele>151.0</ele><time>2026-04-25T06:50:51.389Z</time></trkpt><trkpt lat="43.9551867" lon="12.3783117"><ele>151.0</ele><time>2026-04-25T06:50:52.389Z</time></trkpt><trkpt lat="43.9550833" lon="12.3780733"><ele>151.0</ele><time>2026-04-25T06:50:53.389Z</time></trkpt><trkpt lat="43.954985" lon="12.3778333"><ele>151.0</ele><time>2026-04-25T06:50:54.389Z</time></trkpt><trkpt lat="43.9548883" lon="12.37759"><ele>153.0</ele><time>2026-04-25T06:50:55.39Z</time></trkpt><trkpt lat="43.9547883" lon="12.3773567"><ele>155.0</ele><time>2026-04-25T06:50:56.39Z</time></trkpt><trkpt lat="43.95469" lon="12.3771133"><ele>157.0</ele><time>2026-04-25T06:50:57.389Z</time></trkpt><trkpt lat="43.9546" lon="12.376865"><ele>157.0</ele><time>2026-04-25T06:50:58.39Z</time></trkpt><trkpt lat="43.9545133" lon="12.37661"><ele>157.0</ele><time>2026-04-25T06:50:59.389Z</time></trkpt><trkpt lat="43.954425" lon="12.37635"><ele>157.0</ele><time>2026-04-25T06:51:00.39Z</time></trkpt><trkpt lat="43.9543467" lon="12.3760883"><ele>156.66666666666669</ele><time>2026-04-25T06:51:01.39Z</time></trkpt><trkpt lat="43.9542667" lon="12.3758283"><ele>156.33333333333334</ele><time>2026-04-25T06:51:02.39Z</time></trkpt><trkpt lat="43.9541883" lon="12.3755633"><ele>156.0</ele><time>2026-04-25T06:51:03.389Z</time></trkpt><trkpt lat="43.9541117" lon="12.3752917"><ele>158.0</ele><time>2026-04-25T06:51:04.39Z</time></trkpt><trkpt lat="43.95404" lon="12.3750383"><ele>160.0</ele><time>2026-04-25T06:51:05.39Z</time></trkpt><trkpt lat="43.9539683" lon="12.3748133"><ele>162.0</ele><time>2026-04-25T06:51:06.39Z</time></trkpt><trkpt lat="43.9539033" lon="12.374595"><ele>162.0</ele><time>2026-04-25T06:51:07.39Z</time></trkpt><trkpt lat="43.9538467" lon="12.374385"><ele>162.0</ele><time>2026-04-25T06:51:08.389Z</time></trkpt><trkpt lat="43.95379" lon="12.3741833"><ele>162.0</ele><time>2026-04-25T06:51:09.389Z</time></trkpt><trkpt lat="43.9537333" lon="12.374"><ele>161.75</ele><time>2026-04-25T06:51:10.389Z</time></trkpt><trkpt lat="43.9536833" lon="12.373825"><ele>161.5</ele><time>2026-04-25T06:51:11.39Z</time></trkpt><trkpt lat="43.9536383" lon="12.3736633"><ele>161.25</ele><time>2026-04-25T06:51:12.39Z</time></trkpt><trkpt lat="43.9535933" lon="12.373505"><ele>161.0</ele><time>2026-04-25T06:51:13.39Z</time></trkpt><trkpt lat="43.95354" lon="12.3733417"><ele>161.0</ele><time>2026-04-25T06:51:14.39Z</time></trkpt><trkpt lat="43.953485" lon="12.373165"><ele>161.0</ele><time>2026-04-25T06:51:15.39Z</time></trkpt><trkpt lat="43.953435" lon="12.3729817"><ele>161.0</ele><time>2026-04-25T06:51:16.389Z</time></trkpt><trkpt lat="43.9533783" lon="12.372785"><ele>161.0</ele><time>2026-04-25T06:51:17.39Z</time></trkpt><trkpt lat="43.9533217" lon="12.3725717"><ele>162.0</ele><time>2026-04-25T06:51:18.389Z</time></trkpt><trkpt lat="43.9532567" lon="12.3723517"><ele>163.0</ele><time>2026-04-25T06:51:19.39Z</time></trkpt><trkpt lat="43.9531917" lon="12.37214"><ele>164.0</ele><time>2026-04-25T06:51:20.39Z</time></trkpt><trkpt lat="43.953125" lon="12.3719217"><ele>164.0</ele><time>2026-04-25T06:51:21.39Z</time></trkpt><trkpt lat="43.9530617" lon="12.37171"><ele>164.0</ele><time>2026-04-25T06:51:22.39Z</time></trkpt><trkpt lat="43.9529933" lon="12.3714983"><ele>164.0</ele><time>2026-04-25T06:51:23.389Z</time></trkpt><trkpt lat="43.952935" lon="12.37128"><ele>164.0</ele><time>2026-04-25T06:51:24.39Z</time></trkpt><trkpt lat="43.952865" lon="12.3710533"><ele>164.0</ele><time>2026-04-25T06:51:25.389Z</time></trkpt><trkpt lat="43.9528" lon="12.3708367"><ele>164.0</ele><time>2026-04-25T06:51:26.39Z</time></trkpt><trkpt lat="43.952735" lon="12.3706317"><ele>163.5</ele><time>2026-04-25T06:51:27.39Z</time></trkpt><trkpt lat="43.95268" lon="12.3704433"><ele>163.0</ele><time>2026-04-25T06:51:28.389Z</time></trkpt><trkpt lat="43.9526333" lon="12.3702583"><ele>162.5</ele><time>2026-04-25T06:51:29.39Z</time></trkpt><trkpt lat="43.9525783" lon="12.3700833"><ele>162.0</ele><time>2026-04-25T06:51:30.389Z</time></trkpt><trkpt lat="43.9525217" lon="12.369915"><ele>163.25</ele><time>2026-04-25T06:51:31.39Z</time></trkpt><trkpt lat="43.952465" lon="12.369745"><ele>164.5</ele><time>2026-04-25T06:51:32.389Z</time></trkpt><trkpt lat="43.9524067" lon="12.3695783"><ele>165.75</ele><time>2026-04-25T06:51:33.389Z</time></trkpt><trkpt lat="43.952345" lon="12.3694083"><ele>167.0</ele><time>2026-04-25T06:51:34.39Z</time></trkpt><trkpt lat="43.95228" lon="12.3692433"><ele>167.0</ele><time>2026-04-25T06:51:35.39Z</time></trkpt><trkpt lat="43.9522133" lon="12.3690983"><ele>167.0</ele><time>2026-04-25T06:51:36.389Z</time></trkpt><trkpt lat="43.95215" lon="12.368965"><ele>167.0</ele><time>2026-04-25T06:51:37.39Z</time></trkpt><trkpt lat="43.95209" lon="12.368845"><ele>167.0</ele><time>2026-04-25T06:51:38.39Z</time></trkpt><trkpt lat="43.95203" lon="12.3687317"><ele>167.0</ele><time>2026-04-25T06:51:39.39Z</time></trkpt><trkpt lat="43.9519617" lon="12.36861"><ele>167.25</ele><time>2026-04-25T06:51:40.39Z</time></trkpt><trkpt lat="43.95187" lon="12.3684817"><ele>167.5</ele><time>2026-04-25T06:51:41.389Z</time></trkpt><trkpt lat="43.9517767" lon="12.3683283"><ele>167.75</ele><time>2026-04-25T06:51:42.39Z</time></trkpt><trkpt lat="43.9516633" lon="12.3681767"><ele>168.0</ele><time>2026-04-25T06:51:43.39Z</time></trkpt><trkpt lat="43.9515433" lon="12.3680267"><ele>165.33333333333334</ele><time>2026-04-25T06:51:44.39Z</time></trkpt><trkpt lat="43.9514167" lon="12.3678783"><ele>162.66666666666669</ele><time>2026-04-25T06:51:45.389Z</time></trkpt><trkpt lat="43.9512767" lon="12.3677217"><ele>160.0</ele><time>2026-04-25T06:51:46.389Z</time></trkpt><trkpt lat="43.9511383" lon="12.3675733"><ele>160.0</ele><time>2026-04-25T06:51:47.39Z</time></trkpt><trkpt lat="43.9510017" lon="12.3674183"><ele>160.0</ele><time>2026-04-25T06:51:48.39Z</time></trkpt><trkpt lat="43.950865" lon="12.367265"><ele>160.0</ele><time>2026-04-25T06:51:49.39Z</time></trkpt><trkpt lat="43.95073" lon="12.3671083"><ele>159.0</ele><time>2026-04-25T06:51:50.389Z</time></trkpt><trkpt lat="43.950595" lon="12.3669517"><ele>158.0</ele><time>2026-04-25T06:51:51.39Z</time></trkpt><trkpt lat="43.9504617" lon="12.3668017"><ele>157.0</ele><time>2026-04-25T06:51:52.389Z</time></trkpt><trkpt lat="43.950325" lon="12.3666383"><ele>157.0</ele><time>2026-04-25T06:51:53.39Z</time></trkpt><trkpt lat="43.9501917" lon="12.3664783"><ele>157.0</ele><time>2026-04-25T06:51:54.39Z</time></trkpt><trkpt lat="43.950055" lon="12.3663233"><ele>157.0</ele><time>2026-04-25T06:51:55.389Z</time></trkpt><trkpt lat="43.9499133" lon="12.366165"><ele>160.33333333333334</ele><time>2026-04-25T06:51:56.39Z</time></trkpt><trkpt lat="43.9497767" lon="12.3660033"><ele>163.66666666666666</ele><time>2026-04-25T06:51:57.389Z</time></trkpt><trkpt lat="43.9496433" lon="12.3658417"><ele>167.0</ele><time>2026-04-25T06:51:58.39Z</time></trkpt><trkpt lat="43.9495117" lon="12.36568"><ele>167.0</ele><time>2026-04-25T06:51:59.39Z</time></trkpt><trkpt lat="43.9493833" lon="12.36551"><ele>167.0</ele><time>2026-04-25T06:52:00.389Z</time></trkpt><trkpt lat="43.9492617" lon="12.3653383"><ele>167.0</ele><time>2026-04-25T06:52:01.39Z</time></trkpt><trkpt lat="43.9491467" lon="12.36515"><ele>167.0</ele><time>2026-04-25T06:52:02.389Z</time></trkpt><trkpt lat="43.9490333" lon="12.3649483"><ele>167.0</ele><time>2026-04-25T06:52:03.389Z</time></trkpt><trkpt lat="43.9489333" lon="12.3647383"><ele>167.0</ele><time>2026-04-25T06:52:04.39Z</time></trkpt><trkpt lat="43.9488317" lon="12.3645167"><ele>165.0</ele><time>2026-04-25T06:52:05.389Z</time></trkpt><trkpt lat="43.94874" lon="12.3642817"><ele>163.0</ele><time>2026-04-25T06:52:06.389Z</time></trkpt><trkpt lat="43.9486533" lon="12.3640433"><ele>161.0</ele><time>2026-04-25T06:52:07.39Z</time></trkpt><trkpt lat="43.9485633" lon="12.3638083"><ele>161.0</ele><time>2026-04-25T06:52:08.39Z</time></trkpt><trkpt lat="43.94848" lon="12.3635767"><ele>161.0</ele><time>2026-04-25T06:52:09.389Z</time></trkpt><trkpt lat="43.9483883" lon="12.3633467"><ele>161.0</ele><time>2026-04-25T06:52:10.39Z</time></trkpt><trkpt lat="43.9482867" lon="12.3631083"><ele>161.66666666666666</ele><time>2026-04-25T06:52:11.39Z</time></trkpt><trkpt lat="43.9481733" lon="12.3628883"><ele>162.33333333333334</ele><time>2026-04-25T06:52:12.389Z</time></trkpt><trkpt lat="43.9480517" lon="12.362675"><ele>163.0</ele><time>2026-04-25T06:52:13.389Z</time></trkpt><trkpt lat="43.9479233" lon="12.3624883"><ele>163.0</ele><time>2026-04-25T06:52:14.39Z</time></trkpt><trkpt lat="43.9477983" lon="12.36231"><ele>163.0</ele><time>2026-04-25T06:52:15.39Z</time></trkpt><trkpt lat="43.94767" lon="12.3621533"><ele>163.0</ele><time>2026-04-25T06:52:16.39Z</time></trkpt><trkpt lat="43.9475383" lon="12.3620033"><ele>163.0</ele><time>2026-04-25T06:52:17.389Z</time></trkpt><trkpt lat="43.9473933" lon="12.3618583"><ele>163.0</ele><time>2026-04-25T06:52:18.39Z</time></trkpt><trkpt lat="43.9472433" lon="12.3617117"><ele>163.0</ele><time>2026-04-25T06:52:19.39Z</time></trkpt><trkpt lat="43.9470867" lon="12.3615617"><ele>163.0</ele><time>2026-04-25T06:52:20.39Z</time></trkpt><trkpt lat="43.94693" lon="12.3614083"><ele>163.0</ele><time>2026-04-25T06:52:21.39Z</time></trkpt><trkpt lat="43.9467683" lon="12.3612567"><ele>163.0</ele><time>2026-04-25T06:52:22.389Z</time></trkpt><trkpt lat="43.9466017" lon="12.3611083"><ele>162.33333333333334</ele><time>2026-04-25T06:52:23.39Z</time></trkpt><trkpt lat="43.9464283" lon="12.360965"><ele>161.66666666666666</ele><time>2026-04-25T06:52:24.39Z</time></trkpt><trkpt lat="43.9462583" lon="12.3608283"><ele>161.0</ele><time>2026-04-25T06:52:25.39Z</time></trkpt><trkpt lat="43.946085" lon="12.3606883"><ele>161.0</ele><time>2026-04-25T06:52:26.39Z</time></trkpt><trkpt lat="43.9459067" lon="12.360555"><ele>161.0</ele><time>2026-04-25T06:52:27.39Z</time></trkpt><trkpt lat="43.9457333" lon="12.360425"><ele>161.0</ele><time>2026-04-25T06:52:28.389Z</time></trkpt><trkpt lat="43.94557" lon="12.3602733"><ele>160.66666666666666</ele><time>2026-04-25T06:52:29.39Z</time></trkpt><trkpt lat="43.9454183" lon="12.3600933"><ele>160.33333333333334</ele><time>2026-04-25T06:52:30.39Z</time></trkpt><trkpt lat="43.945275" lon="12.3599017"><ele>160.0</ele><time>2026-04-25T06:52:31.389Z</time></trkpt><trkpt lat="43.9451367" lon="12.3596967"><ele>160.0</ele><time>2026-04-25T06:52:32.39Z</time></trkpt><trkpt lat="43.9450058" lon="12.3594826"><ele>160.0</ele><time>2026-04-25T06:52:33.389Z</time></trkpt><trkpt lat="43.9448766" lon="12.3592692"><ele>160.0</ele><time>2026-04-25T06:52:34.389Z</time></trkpt><trkpt lat="43.9447482" lon="12.3590559"><ele>159.33333333333334</ele><time>2026-04-25T06:52:35.389Z</time></trkpt><trkpt lat="43.9446255" lon="12.3588379"><ele>158.66666666666666</ele><time>2026-04-25T06:52:36.39Z</time></trkpt><trkpt lat="43.9444955" lon="12.3586244"><ele>158.0</ele><time>2026-04-25T06:52:37.39Z</time></trkpt><trkpt lat="43.9443587" lon="12.3584145"><ele>158.0</ele><time>2026-04-25T06:52:38.39Z</time></trkpt><trkpt lat="43.9442202" lon="12.3581989"><ele>158.0</ele><time>2026-04-25T06:52:39.39Z</time></trkpt><trkpt lat="43.9440852" lon="12.3579833"><ele>158.0</ele><time>2026-04-25T06:52:40.39Z</time></trkpt><trkpt lat="43.9439501" lon="12.3577605"><ele>158.66666666666666</ele><time>2026-04-25T06:52:41.389Z</time></trkpt><trkpt lat="43.9438116" lon="12.357536"><ele>159.33333333333334</ele><time>2026-04-25T06:52:42.389Z</time></trkpt><trkpt lat="43.9436728" lon="12.3573107"><ele>160.0</ele><time>2026-04-25T06:52:43.389Z</time></trkpt><trkpt lat="43.9435309" lon="12.3570871"><ele>160.33333333333334</ele><time>2026-04-25T06:52:44.389Z</time></trkpt><trkpt lat="43.9433838" lon="12.3568706"><ele>160.66666666666666</ele><time>2026-04-25T06:52:45.389Z</time></trkpt><trkpt lat="43.9432336" lon="12.3566678"><ele>161.0</ele><time>2026-04-25T06:52:46.39Z</time></trkpt><trkpt lat="43.9430724" lon="12.3564824"><ele>161.0</ele><time>2026-04-25T06:52:47.39Z</time></trkpt><trkpt lat="43.9429079" lon="12.3563112"><ele>161.0</ele><time>2026-04-25T06:52:48.39Z</time></trkpt><trkpt lat="43.9427365" lon="12.356153"><ele>161.0</ele><time>2026-04-25T06:52:49.389Z</time></trkpt><trkpt lat="43.9425616" lon="12.3559916"><ele>161.0</ele><time>2026-04-25T06:52:50.39Z</time></trkpt><trkpt lat="43.9423872" lon="12.3558324"><ele>161.0</ele><time>2026-04-25T06:52:51.389Z</time></trkpt><trkpt lat="43.9422138" lon="12.3556751"><ele>161.0</ele><time>2026-04-25T06:52:52.39Z</time></trkpt><trkpt lat="43.9420387" lon="12.3555218"><ele>161.0</ele><time>2026-04-25T06:52:53.39Z</time></trkpt><trkpt lat="43.9418632" lon="12.3553674"><ele>161.0</ele><time>2026-04-25T06:52:54.389Z</time></trkpt><trkpt lat="43.9416871" lon="12.3552065"><ele>161.0</ele><time>2026-04-25T06:52:55.39Z</time></trkpt><trkpt lat="43.9415114" lon="12.3550446"><ele>161.0</ele><time>2026-04-25T06:52:56.389Z</time></trkpt><trkpt lat="43.9413292" lon="12.3548831"><ele>161.0</ele><time>2026-04-25T06:52:57.39Z</time></trkpt><trkpt lat="43.9411409" lon="12.3547227"><ele>161.0</ele><time>2026-04-25T06:52:58.389Z</time></trkpt><trkpt lat="43.9409522" lon="12.3545539"><ele>161.66666666666666</ele><time>2026-04-25T06:52:59.39Z</time></trkpt><trkpt lat="43.9407655" lon="12.3543853"><ele>162.33333333333334</ele><time>2026-04-25T06:53:00.39Z</time></trkpt><trkpt lat="43.9405796" lon="12.3542111"><ele>163.0</ele><time>2026-04-25T06:53:01.39Z</time></trkpt><trkpt lat="43.9403947" lon="12.3540412"><ele>163.0</ele><time>2026-04-25T06:53:02.39Z</time></trkpt><trkpt lat="43.940214" lon="12.3538764"><ele>163.0</ele><time>2026-04-25T06:53:03.39Z</time></trkpt><trkpt lat="43.9400326" lon="12.3537063"><ele>163.0</ele><time>2026-04-25T06:53:04.39Z</time></trkpt><trkpt lat="43.9398583" lon="12.3535333"><ele>163.0</ele><time>2026-04-25T06:53:05.389Z</time></trkpt><trkpt lat="43.939695" lon="12.3533583"><ele>163.0</ele><time>2026-04-25T06:53:06.39Z</time></trkpt><trkpt lat="43.9395367" lon="12.3531717"><ele>163.0</ele><time>2026-04-25T06:53:07.39Z</time></trkpt><trkpt lat="43.9393833" lon="12.3529733"><ele>163.0</ele><time>2026-04-25T06:53:08.389Z</time></trkpt><trkpt lat="43.9392317" lon="12.3527767"><ele>163.0</ele><time>2026-04-25T06:53:09.389Z</time></trkpt><trkpt lat="43.9390883" lon="12.35257"><ele>163.0</ele><time>2026-04-25T06:53:10.39Z</time></trkpt><trkpt lat="43.9389433" lon="12.3523567"><ele>164.33333333333334</ele><time>2026-04-25T06:53:11.39Z</time></trkpt><trkpt lat="43.9388133" lon="12.35215"><ele>165.66666666666666</ele><time>2026-04-25T06:53:12.389Z</time></trkpt><trkpt lat="43.938685" lon="12.3519583"><ele>167.0</ele><time>2026-04-25T06:53:13.389Z</time></trkpt><trkpt lat="43.93856" lon="12.3517767"><ele>167.0</ele><time>2026-04-25T06:53:14.39Z</time></trkpt><trkpt lat="43.9384483" lon="12.3515983"><ele>167.0</ele><time>2026-04-25T06:53:15.389Z</time></trkpt><trkpt lat="43.938345" lon="12.3514283"><ele>167.0</ele><time>2026-04-25T06:53:16.389Z</time></trkpt><trkpt lat="43.93827" lon="12.35125"><ele>170.0</ele><time>2026-04-25T06:53:17.389Z</time></trkpt><trkpt lat="43.9382183" lon="12.3510483"><ele>173.0</ele><time>2026-04-25T06:53:18.39Z</time></trkpt><trkpt lat="43.9381917" lon="12.3508233"><ele>176.0</ele><time>2026-04-25T06:53:19.39Z</time></trkpt><trkpt lat="43.9381967" lon="12.350585"><ele>177.0</ele><time>2026-04-25T06:53:20.39Z</time></trkpt><trkpt lat="43.9382183" lon="12.35033"><ele>178.0</ele><time>2026-04-25T06:53:21.389Z</time></trkpt><trkpt lat="43.938245" lon="12.3500683"><ele>179.0</ele><time>2026-04-25T06:53:22.39Z</time></trkpt><trkpt lat="43.9382767" lon="12.349795"><ele>180.33333333333331</ele><time>2026-04-25T06:53:23.39Z</time></trkpt><trkpt lat="43.9383117" lon="12.349535"><ele>181.66666666666666</ele><time>2026-04-25T06:53:24.389Z</time></trkpt><trkpt lat="43.93834" lon="12.3492867"><ele>183.0</ele><time>2026-04-25T06:53:25.39Z</time></trkpt><trkpt lat="43.938345" lon="12.349025"><ele>182.66666666666666</ele><time>2026-04-25T06:53:26.39Z</time></trkpt><trkpt lat="43.9383217" lon="12.348775"><ele>182.33333333333331</ele><time>2026-04-25T06:53:27.39Z</time></trkpt><trkpt lat="43.9382717" lon="12.34853"><ele>182.0</ele><time>2026-04-25T06:53:28.39Z</time></trkpt><trkpt lat="43.93819" lon="12.348305"><ele>182.0</ele><time>2026-04-25T06:53:29.39Z</time></trkpt><trkpt lat="43.938075" lon="12.348085"><ele>182.0</ele><time>2026-04-25T06:53:30.389Z</time></trkpt><trkpt lat="43.937935" lon="12.3478967"><ele>182.0</ele><time>2026-04-25T06:53:31.39Z</time></trkpt><trkpt lat="43.9377867" lon="12.3477233"><ele>182.66666666666666</ele><time>2026-04-25T06:53:32.39Z</time></trkpt><trkpt lat="43.9376217" lon="12.347565"><ele>183.33333333333334</ele><time>2026-04-25T06:53:33.389Z</time></trkpt><trkpt lat="43.9374467" lon="12.3474167"><ele>184.0</ele><time>2026-04-25T06:53:34.389Z</time></trkpt><trkpt lat="43.9372783" lon="12.3472633"><ele>180.66666666666669</ele><time>2026-04-25T06:53:35.389Z</time></trkpt><trkpt lat="43.9371083" lon="12.347115"><ele>177.33333333333334</ele><time>2026-04-25T06:53:36.39Z</time></trkpt><trkpt lat="43.93693" lon="12.3469833"><ele>174.0</ele><time>2026-04-25T06:53:37.39Z</time></trkpt><trkpt lat="43.93675" lon="12.3468767"><ele>177.0</ele><time>2026-04-25T06:53:38.39Z</time></trkpt><trkpt lat="43.9365633" lon="12.3467783"><ele>180.0</ele><time>2026-04-25T06:53:39.39Z</time></trkpt><trkpt lat="43.93638" lon="12.346695"><ele>183.0</ele><time>2026-04-25T06:53:40.389Z</time></trkpt><trkpt lat="43.9362133" lon="12.34662"><ele>183.0</ele><time>2026-04-25T06:53:41.39Z</time></trkpt><trkpt lat="43.9360733" lon="12.3465517"><ele>183.0</ele><time>2026-04-25T06:53:42.39Z</time></trkpt><trkpt lat="43.9359383" lon="12.3464833"><ele>183.0</ele><time>2026-04-25T06:53:43.39Z</time></trkpt><trkpt lat="43.9357967" lon="12.3464117"><ele>183.0</ele><time>2026-04-25T06:53:44.39Z</time></trkpt><trkpt lat="43.9356467" lon="12.3463333"><ele>181.33333333333334</ele><time>2026-04-25T06:53:45.39Z</time></trkpt><trkpt lat="43.9354983" lon="12.3462517"><ele>179.66666666666669</ele><time>2026-04-25T06:53:46.39Z</time></trkpt><trkpt lat="43.9353617" lon="12.3461667"><ele>178.0</ele><time>2026-04-25T06:53:47.389Z</time></trkpt><trkpt lat="43.9352383" lon="12.346065"><ele>178.0</ele><time>2026-04-25T06:53:48.39Z</time></trkpt><trkpt lat="43.935125" lon="12.3459317"><ele>178.0</ele><time>2026-04-25T06:53:49.389Z</time></trkpt><trkpt lat="43.935025" lon="12.345765"><ele>178.0</ele><time>2026-04-25T06:53:50.39Z</time></trkpt><trkpt lat="43.934935" lon="12.3455867"><ele>179.0</ele><time>2026-04-25T06:53:51.39Z</time></trkpt><trkpt lat="43.93486" lon="12.3454083"><ele>180.0</ele><time>2026-04-25T06:53:52.389Z</time></trkpt><trkpt lat="43.934785" lon="12.34523"><ele>181.0</ele><time>2026-04-25T06:53:53.389Z</time></trkpt><trkpt lat="43.9347067" lon="12.34506"><ele>182.0</ele><time>2026-04-25T06:53:54.39Z</time></trkpt><trkpt lat="43.93463" lon="12.3448933"><ele>181.25</ele><time>2026-04-25T06:53:55.389Z</time></trkpt><trkpt lat="43.934575" lon="12.34471"><ele>180.5</ele><time>2026-04-25T06:53:56.39Z</time></trkpt><trkpt lat="43.93453" lon="12.3445267"><ele>179.75</ele><time>2026-04-25T06:53:57.39Z</time></trkpt><trkpt lat="43.9345133" lon="12.3443367"><ele>179.0</ele><time>2026-04-25T06:53:58.39Z</time></trkpt><trkpt lat="43.9345217" lon="12.34415"><ele>179.0</ele><time>2026-04-25T06:53:59.39Z</time></trkpt><trkpt lat="43.9345433" lon="12.3439817"><ele>179.0</ele><time>2026-04-25T06:54:00.389Z</time></trkpt><trkpt lat="43.934575" lon="12.3438317"><ele>179.0</ele><time>2026-04-25T06:54:01.389Z</time></trkpt><trkpt lat="43.9346083" lon="12.3437"><ele>179.0</ele><time>2026-04-25T06:54:02.389Z</time></trkpt><trkpt lat="43.9346433" lon="12.3435917"><ele>179.0</ele><time>2026-04-25T06:54:03.39Z</time></trkpt><trkpt lat="43.934675" lon="12.3435"><ele>179.0</ele><time>2026-04-25T06:54:04.39Z</time></trkpt><trkpt lat="43.9347" lon="12.3433433"><ele>179.0</ele><time>2026-04-25T06:54:06.389Z</time></trkpt><trkpt lat="43.9346517" lon="12.3432233"><ele>179.0</ele><time>2026-04-25T06:54:08.389Z</time></trkpt><trkpt lat="43.9346117" lon="12.343155"><ele>179.0</ele><time>2026-04-25T06:54:10.389Z</time></trkpt><trkpt lat="43.9345433" lon="12.3430767"><ele>179.0</ele><time>2026-04-25T06:54:12.39Z</time></trkpt><trkpt lat="43.93446" lon="12.343"><ele>178.39999999999998</ele><time>2026-04-25T06:54:14.39Z</time></trkpt><trkpt lat="43.9343433" lon="12.3430033"><ele>177.8</ele><time>2026-04-25T06:54:16.39Z</time></trkpt><trkpt lat="43.9342767" lon="12.3430433"><ele>177.2</ele><time>2026-04-25T06:54:17.39Z</time></trkpt><trkpt lat="43.9342" lon="12.3431217"><ele>176.60000000000002</ele><time>2026-04-25T06:54:18.39Z</time></trkpt><trkpt lat="43.93412" lon="12.3432"><ele>176.0</ele><time>2026-04-25T06:54:19.389Z</time></trkpt><trkpt lat="43.93404" lon="12.34328"><ele>178.0</ele><time>2026-04-25T06:54:20.39Z</time></trkpt><trkpt lat="43.9339533" lon="12.343355"><ele>180.0</ele><time>2026-04-25T06:54:21.39Z</time></trkpt><trkpt lat="43.93387" lon="12.3434117"><ele>182.0</ele><time>2026-04-25T06:54:22.389Z</time></trkpt><trkpt lat="43.933755" lon="12.3434267"><ele>184.0</ele><time>2026-04-25T06:54:23.39Z</time></trkpt><trkpt lat="43.9336367" lon="12.3434267"><ele>186.0</ele><time>2026-04-25T06:54:24.389Z</time></trkpt><trkpt lat="43.9335117" lon="12.3434017"><ele>185.75</ele><time>2026-04-25T06:54:25.389Z</time></trkpt><trkpt lat="43.9333817" lon="12.343365"><ele>185.5</ele><time>2026-04-25T06:54:26.39Z</time></trkpt><trkpt lat="43.9332533" lon="12.34331"><ele>185.25</ele><time>2026-04-25T06:54:27.389Z</time></trkpt><trkpt lat="43.9331283" lon="12.343255"><ele>185.0</ele><time>2026-04-25T06:54:28.389Z</time></trkpt><trkpt lat="43.9330167" lon="12.3432"><ele>185.0</ele><time>2026-04-25T06:54:29.39Z</time></trkpt><trkpt lat="43.9329117" lon="12.3431417"><ele>185.0</ele><time>2026-04-25T06:54:30.389Z</time></trkpt><trkpt lat="43.932805" lon="12.3430967"><ele>185.0</ele><time>2026-04-25T06:54:31.39Z</time></trkpt><trkpt lat="43.93271" lon="12.34306"><ele>185.0</ele><time>2026-04-25T06:54:32.389Z</time></trkpt><trkpt lat="43.9326083" lon="12.3430617"><ele>185.0</ele><time>2026-04-25T06:54:33.389Z</time></trkpt><trkpt lat="43.9324917" lon="12.34309"><ele>185.25</ele><time>2026-04-25T06:54:34.389Z</time></trkpt><trkpt lat="43.9323683" lon="12.3431283"><ele>185.5</ele><time>2026-04-25T06:54:35.389Z</time></trkpt><trkpt lat="43.9322417" lon="12.3431417"><ele>185.75</ele><time>2026-04-25T06:54:36.39Z</time></trkpt><trkpt lat="43.932125" lon="12.3431267"><ele>186.0</ele><time>2026-04-25T06:54:37.389Z</time></trkpt><trkpt lat="43.932015" lon="12.3430667"><ele>186.25</ele><time>2026-04-25T06:54:38.39Z</time></trkpt><trkpt lat="43.9319167" lon="12.3429917"><ele>186.5</ele><time>2026-04-25T06:54:39.389Z</time></trkpt><trkpt lat="43.9318117" lon="12.3429"><ele>186.75</ele><time>2026-04-25T06:54:40.39Z</time></trkpt><trkpt lat="43.9316933" lon="12.342825"><ele>187.0</ele><time>2026-04-25T06:54:41.389Z</time></trkpt><trkpt lat="43.931565" lon="12.3427783"><ele>187.0</ele><time>2026-04-25T06:54:42.389Z</time></trkpt><trkpt lat="43.9314433" lon="12.3427467"><ele>187.0</ele><time>2026-04-25T06:54:43.389Z</time></trkpt><trkpt lat="43.9313483" lon="12.342745"><ele>187.0</ele><time>2026-04-25T06:54:44.389Z</time></trkpt><trkpt lat="43.9312783" lon="12.3427567"><ele>187.0</ele><time>2026-04-25T06:54:45.39Z</time></trkpt><trkpt lat="43.9312117" lon="12.3428617"><ele>187.0</ele><time>2026-04-25T06:54:47.389Z</time></trkpt><trkpt lat="43.9313333" lon="12.3430633"><ele>190.0</ele><time>2026-04-25T06:54:49.39Z</time></trkpt><trkpt lat="43.931425" lon="12.3431833"><ele>193.0</ele><time>2026-04-25T06:54:50.389Z</time></trkpt><trkpt lat="43.931495" lon="12.3432967"><ele>196.0</ele><time>2026-04-25T06:54:51.389Z</time></trkpt><trkpt lat="43.9315317" lon="12.3434333"><ele>199.0</ele><time>2026-04-25T06:54:52.39Z</time></trkpt><trkpt lat="43.9315383" lon="12.3435917"><ele>199.0</ele><time>2026-04-25T06:54:53.39Z</time></trkpt><trkpt lat="43.9315267" lon="12.3437417"><ele>199.0</ele><time>2026-04-25T06:54:54.39Z</time></trkpt><trkpt lat="43.9314967" lon="12.3438767"><ele>199.0</ele><time>2026-04-25T06:54:55.389Z</time></trkpt><trkpt lat="43.9314467" lon="12.3439783"><ele>199.0</ele><time>2026-04-25T06:54:56.39Z</time></trkpt><trkpt lat="43.9313883" lon="12.34405"><ele>199.0</ele><time>2026-04-25T06:54:57.39Z</time></trkpt><trkpt lat="43.9313167" lon="12.3440783"><ele>198.99999999999997</ele><time>2026-04-25T06:54:58.39Z</time></trkpt><trkpt lat="43.9312533" lon="12.34405"><ele>199.0</ele><time>2026-04-25T06:54:59.39Z</time></trkpt><trkpt lat="43.9312283" lon="12.343965"><ele>199.0</ele><time>2026-04-25T06:55:00.39Z</time></trkpt><trkpt lat="43.9312317" lon="12.3438533"><ele>199.0</ele><time>2026-04-25T06:55:01.39Z</time></trkpt><trkpt lat="43.9312217" lon="12.343755"><ele>198.99999999999997</ele><time>2026-04-25T06:55:02.389Z</time></trkpt><trkpt lat="43.9311567" lon="12.34365"><ele>199.0</ele><time>2026-04-25T06:55:04.39Z</time></trkpt><trkpt lat="43.931025" lon="12.3437183"><ele>199.0</ele><time>2026-04-25T06:55:06.389Z</time></trkpt><trkpt lat="43.93093" lon="12.3437733"><ele>199.0</ele><time>2026-04-25T06:55:07.39Z</time></trkpt><trkpt lat="43.9308183" lon="12.3438283"><ele>199.0</ele><time>2026-04-25T06:55:08.39Z</time></trkpt><trkpt lat="43.9307133" lon="12.3438283"><ele>199.0</ele><time>2026-04-25T06:55:09.39Z</time></trkpt><trkpt lat="43.9306183" lon="12.34377"><ele>199.0</ele><time>2026-04-25T06:55:10.389Z</time></trkpt><trkpt lat="43.9305233" lon="12.3436917"><ele>203.79999999999998</ele><time>2026-04-25T06:55:11.39Z</time></trkpt><trkpt lat="43.9304283" lon="12.343645"><ele>208.6</ele><time>2026-04-25T06:55:12.39Z</time></trkpt><trkpt lat="43.9303333" lon="12.3436317"><ele>213.4</ele><time>2026-04-25T06:55:13.39Z</time></trkpt><trkpt lat="43.9302367" lon="12.3436783"><ele>218.2</ele><time>2026-04-25T06:55:14.39Z</time></trkpt><trkpt lat="43.930145" lon="12.343765"><ele>223.0</ele><time>2026-04-25T06:55:15.389Z</time></trkpt><trkpt lat="43.9300467" lon="12.34384"><ele>227.0</ele><time>2026-04-25T06:55:16.389Z</time></trkpt><trkpt lat="43.9299317" lon="12.3438917"><ele>231.0</ele><time>2026-04-25T06:55:17.389Z</time></trkpt><trkpt lat="43.9298" lon="12.34391"><ele>235.0</ele><time>2026-04-25T06:55:18.389Z</time></trkpt><trkpt lat="43.92967" lon="12.3439417"><ele>239.0</ele><time>2026-04-25T06:55:19.39Z</time></trkpt><trkpt lat="43.929545" lon="12.343995"><ele>239.0</ele><time>2026-04-25T06:55:20.39Z</time></trkpt><trkpt lat="43.9294133" lon="12.3440367"><ele>239.0</ele><time>2026-04-25T06:55:21.389Z</time></trkpt><trkpt lat="43.929295" lon="12.3440733"><ele>239.0</ele><time>2026-04-25T06:55:22.39Z</time></trkpt><trkpt lat="43.929185" lon="12.3441167"><ele>239.0</ele><time>2026-04-25T06:55:23.39Z</time></trkpt><trkpt lat="43.92907" lon="12.3441933"><ele>241.5</ele><time>2026-04-25T06:55:24.39Z</time></trkpt><trkpt lat="43.9289533" lon="12.3443"><ele>244.0</ele><time>2026-04-25T06:55:25.389Z</time></trkpt><trkpt lat="43.9288433" lon="12.3444317"><ele>246.5</ele><time>2026-04-25T06:55:26.39Z</time></trkpt><trkpt lat="43.9287517" lon="12.3445667"><ele>249.0</ele><time>2026-04-25T06:55:27.39Z</time></trkpt><trkpt lat="43.9286633" lon="12.3446917"><ele>248.0</ele><time>2026-04-25T06:55:28.39Z</time></trkpt><trkpt lat="43.92857" lon="12.3447917"><ele>247.0</ele><time>2026-04-25T06:55:29.39Z</time></trkpt><trkpt lat="43.9284717" lon="12.3448517"><ele>246.0</ele><time>2026-04-25T06:55:30.39Z</time></trkpt><trkpt lat="43.9283517" lon="12.3448667"><ele>245.0</ele><time>2026-04-25T06:55:31.39Z</time></trkpt><trkpt lat="43.9282217" lon="12.34485"><ele>250.0</ele><time>2026-04-25T06:55:32.39Z</time></trkpt><trkpt lat="43.928085" lon="12.3448167"><ele>255.0</ele><time>2026-04-25T06:55:33.39Z</time></trkpt><trkpt lat="43.9279333" lon="12.3447867"><ele>260.0</ele><time>2026-04-25T06:55:34.39Z</time></trkpt><trkpt lat="43.9277767" lon="12.3447517"><ele>259.33333333333337</ele><time>2026-04-25T06:55:35.39Z</time></trkpt><trkpt lat="43.927625" lon="12.3447083"><ele>258.6666666666667</ele><time>2026-04-25T06:55:36.389Z</time></trkpt><trkpt lat="43.9274717" lon="12.3446617"><ele>258.0</ele><time>2026-04-25T06:55:37.39Z</time></trkpt><trkpt lat="43.9273167" lon="12.344625"><ele>261.75</ele><time>2026-04-25T06:55:38.389Z</time></trkpt><trkpt lat="43.92717" lon="12.3445867"><ele>265.5</ele><time>2026-04-25T06:55:39.389Z</time></trkpt><trkpt lat="43.92703" lon="12.3445417"><ele>269.25</ele><time>2026-04-25T06:55:40.389Z</time></trkpt><trkpt lat="43.9269" lon="12.3444967"><ele>273.0</ele><time>2026-04-25T06:55:41.389Z</time></trkpt><trkpt lat="43.9267817" lon="12.3444617"><ele>275.2</ele><time>2026-04-25T06:55:42.39Z</time></trkpt><trkpt lat="43.9266733" lon="12.3444383"><ele>277.4</ele><time>2026-04-25T06:55:43.39Z</time></trkpt><trkpt lat="43.92658" lon="12.3444383"><ele>279.59999999999997</ele><time>2026-04-25T06:55:44.39Z</time></trkpt><trkpt lat="43.9265017" lon="12.34446"><ele>281.8</ele><time>2026-04-25T06:55:45.389Z</time></trkpt><trkpt lat="43.9264283" lon="12.3445133"><ele>284.0</ele><time>2026-04-25T06:55:46.389Z</time></trkpt><trkpt lat="43.9263767" lon="12.34462"><ele>284.75</ele><time>2026-04-25T06:55:47.389Z</time></trkpt><trkpt lat="43.92634" lon="12.3447633"><ele>285.5</ele><time>2026-04-25T06:55:48.39Z</time></trkpt><trkpt lat="43.9263133" lon="12.34494"><ele>286.25</ele><time>2026-04-25T06:55:49.389Z</time></trkpt><trkpt lat="43.9262817" lon="12.3451083"><ele>287.0</ele><time>2026-04-25T06:55:50.39Z</time></trkpt><trkpt lat="43.9262367" lon="12.345265"><ele>287.0</ele><time>2026-04-25T06:55:51.389Z</time></trkpt><trkpt lat="43.926175" lon="12.34538"><ele>287.0</ele><time>2026-04-25T06:55:52.389Z</time></trkpt><trkpt lat="43.9261133" lon="12.3454517"><ele>287.0</ele><time>2026-04-25T06:55:53.389Z</time></trkpt><trkpt lat="43.926045" lon="12.34548"><ele>287.0</ele><time>2026-04-25T06:55:54.389Z</time></trkpt><trkpt lat="43.9259533" lon="12.3454533"><ele>287.0</ele><time>2026-04-25T06:55:55.389Z</time></trkpt><trkpt lat="43.925835" lon="12.345365"><ele>288.25</ele><time>2026-04-25T06:55:56.389Z</time></trkpt><trkpt lat="43.9257133" lon="12.3452883"><ele>289.5</ele><time>2026-04-25T06:55:57.39Z</time></trkpt><trkpt lat="43.925595" lon="12.3452333"><ele>290.75</ele><time>2026-04-25T06:55:58.389Z</time></trkpt><trkpt lat="43.9254867" lon="12.3452383"><ele>292.0</ele><time>2026-04-25T06:55:59.39Z</time></trkpt><trkpt lat="43.9253883" lon="12.3452483"><ele>292.0</ele><time>2026-04-25T06:56:00.389Z</time></trkpt><trkpt lat="43.9252967" lon="12.3452283"><ele>292.0</ele><time>2026-04-25T06:56:01.389Z</time></trkpt><trkpt lat="43.9252067" lon="12.3451583"><ele>292.0</ele><time>2026-04-25T06:56:02.39Z</time></trkpt><trkpt lat="43.9251067" lon="12.3450667"><ele>292.0</ele><time>2026-04-25T06:56:03.39Z</time></trkpt><trkpt lat="43.92501" lon="12.3449883"><ele>292.0</ele><time>2026-04-25T06:56:04.389Z</time></trkpt><trkpt lat="43.9249133" lon="12.3449517"><ele>293.2</ele><time>2026-04-25T06:56:05.39Z</time></trkpt><trkpt lat="43.9248217" lon="12.344935"><ele>294.4</ele><time>2026-04-25T06:56:06.39Z</time></trkpt><trkpt lat="43.9247267" lon="12.3449517"><ele>295.6</ele><time>2026-04-25T06:56:07.39Z</time></trkpt><trkpt lat="43.9246133" lon="12.3449867"><ele>296.8</ele><time>2026-04-25T06:56:08.39Z</time></trkpt><trkpt lat="43.9244933" lon="12.345015"><ele>298.0</ele><time>2026-04-25T06:56:09.39Z</time></trkpt><trkpt lat="43.9243817" lon="12.345055"><ele>298.0</ele><time>2026-04-25T06:56:10.39Z</time></trkpt><trkpt lat="43.92428" lon="12.3450983"><ele>298.0</ele><time>2026-04-25T06:56:11.39Z</time></trkpt><trkpt lat="43.9241983" lon="12.3451533"><ele>298.0</ele><time>2026-04-25T06:56:12.389Z</time></trkpt><trkpt lat="43.9241317" lon="12.34524"><ele>298.0</ele><time>2026-04-25T06:56:13.39Z</time></trkpt><trkpt lat="43.9240783" lon="12.345355"><ele>298.0</ele><time>2026-04-25T06:56:14.39Z</time></trkpt><trkpt lat="43.9240483" lon="12.3454833"><ele>299.8</ele><time>2026-04-25T06:56:15.389Z</time></trkpt><trkpt lat="43.9240233" lon="12.34564"><ele>301.6</ele><time>2026-04-25T06:56:16.39Z</time></trkpt><trkpt lat="43.92398" lon="12.3458"><ele>303.4</ele><time>2026-04-25T06:56:17.39Z</time></trkpt><trkpt lat="43.9239333" lon="12.345945"><ele>305.2</ele><time>2026-04-25T06:56:18.389Z</time></trkpt><trkpt lat="43.923895" lon="12.34605"><ele>307.0</ele><time>2026-04-25T06:56:19.39Z</time></trkpt><trkpt lat="43.9238067" lon="12.3461633"><ele>307.0</ele><time>2026-04-25T06:56:21.389Z</time></trkpt><trkpt lat="43.9237433" lon="12.346205"><ele>307.0</ele><time>2026-04-25T06:56:22.39Z</time></trkpt><trkpt lat="43.9236567" lon="12.3462433"><ele>307.0</ele><time>2026-04-25T06:56:23.39Z</time></trkpt><trkpt lat="43.92357" lon="12.346285"><ele>307.0</ele><time>2026-04-25T06:56:24.39Z</time></trkpt><trkpt lat="43.923475" lon="12.3463367"><ele>307.0</ele><time>2026-04-25T06:56:25.39Z</time></trkpt><trkpt lat="43.92338" lon="12.346395"><ele>309.4</ele><time>2026-04-25T06:56:26.39Z</time></trkpt><trkpt lat="43.92328" lon="12.3464483"><ele>311.79999999999995</ele><time>2026-04-25T06:56:27.39Z</time></trkpt><trkpt lat="43.9231783" lon="12.3464967"><ele>314.2</ele><time>2026-04-25T06:56:28.39Z</time></trkpt><trkpt lat="43.92308" lon="12.3465383"><ele>316.59999999999997</ele><time>2026-04-25T06:56:29.39Z</time></trkpt><trkpt lat="43.9229683" lon="12.346585"><ele>319.0</ele><time>2026-04-25T06:56:30.39Z</time></trkpt><trkpt lat="43.9228683" lon="12.3466267"><ele>319.0</ele><time>2026-04-25T06:56:31.39Z</time></trkpt><trkpt lat="43.9227683" lon="12.3466717"><ele>319.0</ele><time>2026-04-25T06:56:32.389Z</time></trkpt><trkpt lat="43.92266" lon="12.346725"><ele>319.0</ele><time>2026-04-25T06:56:33.389Z</time></trkpt><trkpt lat="43.922545" lon="12.3467983"><ele>319.0</ele><time>2026-04-25T06:56:34.39Z</time></trkpt><trkpt lat="43.9224317" lon="12.3468883"><ele>318.5</ele><time>2026-04-25T06:56:35.39Z</time></trkpt><trkpt lat="43.92232" lon="12.34697"><ele>318.0</ele><time>2026-04-25T06:56:36.389Z</time></trkpt><trkpt lat="43.9222083" lon="12.347045"><ele>317.5</ele><time>2026-04-25T06:56:37.39Z</time></trkpt><trkpt lat="43.9220967" lon="12.34712"><ele>317.0</ele><time>2026-04-25T06:56:38.39Z</time></trkpt><trkpt lat="43.9219917" lon="12.3471767"><ele>320.25</ele><time>2026-04-25T06:56:39.39Z</time></trkpt><trkpt lat="43.9218917" lon="12.3472417"><ele>323.5</ele><time>2026-04-25T06:56:40.389Z</time></trkpt><trkpt lat="43.921785" lon="12.3473017"><ele>326.75</ele><time>2026-04-25T06:56:41.39Z</time></trkpt><trkpt lat="43.9216833" lon="12.3473867"><ele>330.0</ele><time>2026-04-25T06:56:42.389Z</time></trkpt><trkpt lat="43.9215833" lon="12.34747"><ele>330.0</ele><time>2026-04-25T06:56:43.39Z</time></trkpt><trkpt lat="43.9214767" lon="12.3475417"><ele>330.0</ele><time>2026-04-25T06:56:44.39Z</time></trkpt><trkpt lat="43.92136" lon="12.34761"><ele>330.0</ele><time>2026-04-25T06:56:45.39Z</time></trkpt><trkpt lat="43.921255" lon="12.3476533"><ele>330.0</ele><time>2026-04-25T06:56:46.39Z</time></trkpt><trkpt lat="43.9211533" lon="12.3476767"><ele>330.0</ele><time>2026-04-25T06:56:47.39Z</time></trkpt><trkpt lat="43.9210583" lon="12.3476767"><ele>330.0</ele><time>2026-04-25T06:56:48.389Z</time></trkpt><trkpt lat="43.9209633" lon="12.3476533"><ele>330.0</ele><time>2026-04-25T06:56:49.39Z</time></trkpt><trkpt lat="43.9208717" lon="12.3476117"><ele>330.0</ele><time>2026-04-25T06:56:50.389Z</time></trkpt><trkpt lat="43.92079" lon="12.3475633"><ele>330.0</ele><time>2026-04-25T06:56:51.39Z</time></trkpt><trkpt lat="43.920705" lon="12.3475317"><ele>331.5</ele><time>2026-04-25T06:56:52.389Z</time></trkpt><trkpt lat="43.9206217" lon="12.3475383"><ele>333.0</ele><time>2026-04-25T06:56:53.389Z</time></trkpt><trkpt lat="43.9205367" lon="12.3475483"><ele>334.5</ele><time>2026-04-25T06:56:54.39Z</time></trkpt><trkpt lat="43.9204533" lon="12.3475767"><ele>336.0</ele><time>2026-04-25T06:56:55.389Z</time></trkpt><trkpt lat="43.9203767" lon="12.3476217"><ele>337.5</ele><time>2026-04-25T06:56:56.39Z</time></trkpt><trkpt lat="43.9203" lon="12.3477033"><ele>339.0</ele><time>2026-04-25T06:56:57.39Z</time></trkpt><trkpt lat="43.92024" lon="12.3478217"><ele>339.0</ele><time>2026-04-25T06:56:58.39Z</time></trkpt><trkpt lat="43.9201783" lon="12.34796"><ele>339.0</ele><time>2026-04-25T06:56:59.39Z</time></trkpt><trkpt lat="43.9201133" lon="12.34812"><ele>339.0</ele><time>2026-04-25T06:57:00.39Z</time></trkpt><trkpt lat="43.92006" lon="12.3482717"><ele>339.0</ele><time>2026-04-25T06:57:01.39Z</time></trkpt><trkpt lat="43.92001" lon="12.3484333"><ele>342.2</ele><time>2026-04-25T06:57:02.39Z</time></trkpt><trkpt lat="43.91997" lon="12.34859"><ele>345.4</ele><time>2026-04-25T06:57:03.389Z</time></trkpt><trkpt lat="43.91994" lon="12.3487317"><ele>348.6</ele><time>2026-04-25T06:57:04.389Z</time></trkpt><trkpt lat="43.9199133" lon="12.34885"><ele>351.8</ele><time>2026-04-25T06:57:05.39Z</time></trkpt><trkpt lat="43.919885" lon="12.3489483"><ele>355.0</ele><time>2026-04-25T06:57:06.389Z</time></trkpt><trkpt lat="43.919855" lon="12.3490317"><ele>357.4</ele><time>2026-04-25T06:57:07.389Z</time></trkpt><trkpt lat="43.9198183" lon="12.3491183"><ele>359.8</ele><time>2026-04-25T06:57:08.39Z</time></trkpt><trkpt lat="43.9197683" lon="12.3492133"><ele>362.20000000000005</ele><time>2026-04-25T06:57:09.389Z</time></trkpt><trkpt lat="43.919695" lon="12.3492967"><ele>364.6</ele><time>2026-04-25T06:57:10.39Z</time></trkpt><trkpt lat="43.9195983" lon="12.3493717"><ele>367.0</ele><time>2026-04-25T06:57:11.389Z</time></trkpt><trkpt lat="43.9194833" lon="12.3494283"><ele>367.0</ele><time>2026-04-25T06:57:12.389Z</time></trkpt><trkpt lat="43.9193633" lon="12.3494633"><ele>367.0</ele><time>2026-04-25T06:57:13.39Z</time></trkpt><trkpt lat="43.9192383" lon="12.3494983"><ele>367.0</ele><time>2026-04-25T06:57:14.39Z</time></trkpt><trkpt lat="43.9191133" lon="12.349525"><ele>367.0</ele><time>2026-04-25T06:57:15.39Z</time></trkpt><trkpt lat="43.9189883" lon="12.3495567"><ele>364.8</ele><time>2026-04-25T06:57:16.39Z</time></trkpt><trkpt lat="43.918875" lon="12.3495917"><ele>362.6</ele><time>2026-04-25T06:57:17.39Z</time></trkpt><trkpt lat="43.9187767" lon="12.349625"><ele>360.40000000000003</ele><time>2026-04-25T06:57:18.39Z</time></trkpt><trkpt lat="43.918705" lon="12.34965"><ele>358.20000000000005</ele><time>2026-04-25T06:57:19.39Z</time></trkpt><trkpt lat="43.9186433" lon="12.3496717"><ele>356.0</ele><time>2026-04-25T06:57:20.39Z</time></trkpt><trkpt lat="43.91853" lon="12.349695"><ele>358.6666666666667</ele><time>2026-04-25T06:57:22.39Z</time></trkpt><trkpt lat="43.918435" lon="12.3497317"><ele>361.33333333333337</ele><time>2026-04-25T06:57:24.389Z</time></trkpt><trkpt lat="43.9183533" lon="12.34981"><ele>364.0</ele><time>2026-04-25T06:57:26.39Z</time></trkpt><trkpt lat="43.9183" lon="12.3499433"><ele>366.6666666666667</ele><time>2026-04-25T06:57:28.39Z</time></trkpt><trkpt lat="43.9182767" lon="12.3500283"><ele>369.3333333333333</ele><time>2026-04-25T06:57:29.39Z</time></trkpt><trkpt lat="43.9182483" lon="12.3501217"><ele>372.0</ele><time>2026-04-25T06:57:30.39Z</time></trkpt><trkpt lat="43.9182117" lon="12.3502167"><ele>372.0</ele><time>2026-04-25T06:57:31.389Z</time></trkpt><trkpt lat="43.9181667" lon="12.3502967"><ele>372.0</ele><time>2026-04-25T06:57:32.39Z</time></trkpt><trkpt lat="43.9180983" lon="12.3504217"><ele>372.0</ele><time>2026-04-25T06:57:34.389Z</time></trkpt><trkpt lat="43.9181083" lon="12.3505417"><ele>372.0</ele><time>2026-04-25T06:57:36.389Z</time></trkpt><trkpt lat="43.91822" lon="12.3505783"><ele>372.0</ele><time>2026-04-25T06:57:38.39Z</time></trkpt><trkpt lat="43.918285" lon="12.3505717"><ele>373.6666666666667</ele><time>2026-04-25T06:57:39.39Z</time></trkpt><trkpt lat="43.9183667" lon="12.3506183"><ele>375.3333333333333</ele><time>2026-04-25T06:57:41.39Z</time></trkpt><trkpt lat="43.9183533" lon="12.350745"><ele>377.0</ele><time>2026-04-25T06:57:43.389Z</time></trkpt><trkpt lat="43.9183183" lon="12.3508267"><ele>378.66666666666663</ele><time>2026-04-25T06:57:44.39Z</time></trkpt><trkpt lat="43.9182717" lon="12.3509133"><ele>380.3333333333333</ele><time>2026-04-25T06:57:45.39Z</time></trkpt><trkpt lat="43.9182233" lon="12.3510117"><ele>382.0</ele><time>2026-04-25T06:57:46.389Z</time></trkpt><trkpt lat="43.918165" lon="12.3511183"><ele>382.0</ele><time>2026-04-25T06:57:47.39Z</time></trkpt><trkpt lat="43.9180967" lon="12.3512383"><ele>382.0</ele><time>2026-04-25T06:57:48.39Z</time></trkpt><trkpt lat="43.9180267" lon="12.3513533"><ele>382.0</ele><time>2026-04-25T06:57:49.389Z</time></trkpt><trkpt lat="43.91796" lon="12.35144"><ele>382.0</ele><time>2026-04-25T06:57:50.389Z</time></trkpt><trkpt lat="43.9178883" lon="12.3515033"><ele>382.0</ele><time>2026-04-25T06:57:51.389Z</time></trkpt><trkpt lat="43.9178233" lon="12.3515867"><ele>383.0</ele><time>2026-04-25T06:57:52.39Z</time></trkpt><trkpt lat="43.9177817" lon="12.3516833"><ele>384.0</ele><time>2026-04-25T06:57:53.39Z</time></trkpt><trkpt lat="43.9177367" lon="12.3517917"><ele>385.0</ele><time>2026-04-25T06:57:54.389Z</time></trkpt><trkpt lat="43.9176917" lon="12.3518867"><ele>386.0</ele><time>2026-04-25T06:57:55.39Z</time></trkpt><trkpt lat="43.9176383" lon="12.351985"><ele>387.00000000000006</ele><time>2026-04-25T06:57:56.389Z</time></trkpt><trkpt lat="43.917575" lon="12.3520683"><ele>388.0</ele><time>2026-04-25T06:57:57.389Z</time></trkpt><trkpt lat="43.9175033" lon="12.35214"><ele>388.00000000000006</ele><time>2026-04-25T06:57:58.39Z</time></trkpt><trkpt lat="43.9174167" lon="12.352205"><ele>388.0</ele><time>2026-04-25T06:57:59.389Z</time></trkpt><trkpt lat="43.9173317" lon="12.352255"><ele>388.0</ele><time>2026-04-25T06:58:00.39Z</time></trkpt><trkpt lat="43.917265" lon="12.35231"><ele>388.0</ele><time>2026-04-25T06:58:01.389Z</time></trkpt><trkpt lat="43.9171967" lon="12.3523817"><ele>388.00000000000006</ele><time>2026-04-25T06:58:02.39Z</time></trkpt><trkpt lat="43.9171467" lon="12.352455"><ele>388.0</ele><time>2026-04-25T06:58:03.39Z</time></trkpt><trkpt lat="43.9171133" lon="12.3525333"><ele>390.4285714285714</ele><time>2026-04-25T06:58:04.39Z</time></trkpt><trkpt lat="43.9170917" lon="12.3526217"><ele>392.8571428571429</ele><time>2026-04-25T06:58:05.389Z</time></trkpt><trkpt lat="43.9170833" lon="12.3527283"><ele>395.2857142857143</ele><time>2026-04-25T06:58:06.39Z</time></trkpt><trkpt lat="43.9170817" lon="12.352825"><ele>397.71428571428567</ele><time>2026-04-25T06:58:07.39Z</time></trkpt><trkpt lat="43.9171" lon="12.35292"><ele>400.1428571428571</ele><time>2026-04-25T06:58:08.39Z</time></trkpt><trkpt lat="43.9171417" lon="12.3530133"><ele>402.57142857142856</ele><time>2026-04-25T06:58:09.389Z</time></trkpt><trkpt lat="43.9171733" lon="12.3531117"><ele>405.0</ele><time>2026-04-25T06:58:10.39Z</time></trkpt><trkpt lat="43.9171883" lon="12.3532083"><ele>406.6666666666667</ele><time>2026-04-25T06:58:11.389Z</time></trkpt><trkpt lat="43.91718" lon="12.3533017"><ele>408.33333333333337</ele><time>2026-04-25T06:58:12.39Z</time></trkpt><trkpt lat="43.91716" lon="12.3534033"><ele>410.0</ele><time>2026-04-25T06:58:13.39Z</time></trkpt><trkpt lat="43.91713" lon="12.35351"><ele>411.6666666666667</ele><time>2026-04-25T06:58:14.39Z</time></trkpt><trkpt lat="43.9170983" lon="12.35362"><ele>413.33333333333337</ele><time>2026-04-25T06:58:15.389Z</time></trkpt><trkpt lat="43.9170683" lon="12.353725"><ele>415.0</ele><time>2026-04-25T06:58:16.39Z</time></trkpt><trkpt lat="43.917035" lon="12.3538267"><ele>416.00000000000006</ele><time>2026-04-25T06:58:17.389Z</time></trkpt><trkpt lat="43.9169917" lon="12.35392"><ele>417.0</ele><time>2026-04-25T06:58:18.39Z</time></trkpt><trkpt lat="43.9169383" lon="12.3539983"><ele>418.0</ele><time>2026-04-25T06:58:19.39Z</time></trkpt><trkpt lat="43.9168717" lon="12.3540533"><ele>419.0</ele><time>2026-04-25T06:58:20.39Z</time></trkpt><trkpt lat="43.9168067" lon="12.3541117"><ele>420.00000000000006</ele><time>2026-04-25T06:58:21.389Z</time></trkpt><trkpt lat="43.916735" lon="12.3541767"><ele>421.0</ele><time>2026-04-25T06:58:22.389Z</time></trkpt><trkpt lat="43.9166783" lon="12.3542517"><ele>421.0</ele><time>2026-04-25T06:58:23.389Z</time></trkpt><trkpt lat="43.9166217" lon="12.3543833"><ele>421.0</ele><time>2026-04-25T06:58:25.389Z</time></trkpt><trkpt lat="43.9166417" lon="12.3545217"><ele>421.0</ele><time>2026-04-25T06:58:27.39Z</time></trkpt><trkpt lat="43.9167683" lon="12.3546017"><ele>421.0</ele><time>2026-04-25T06:58:29.389Z</time></trkpt><trkpt lat="43.9168417" lon="12.3546467"><ele>421.0</ele><time>2026-04-25T06:58:30.39Z</time></trkpt><trkpt lat="43.9169233" lon="12.3547117"><ele>421.6666666666667</ele><time>2026-04-25T06:58:31.727Z</time></trkpt><trkpt lat="43.9169783" lon="12.3548417"><ele>422.33333333333337</ele><time>2026-04-25T06:58:32.89Z</time></trkpt><trkpt lat="43.9170133" lon="12.3550133"><ele>423.0</ele><time>2026-04-25T06:58:35.391Z</time></trkpt><trkpt lat="43.9170283" lon="12.3551083"><ele>423.66666666666663</ele><time>2026-04-25T06:58:36.391Z</time></trkpt><trkpt lat="43.9170317" lon="12.35521"><ele>424.3333333333333</ele><time>2026-04-25T06:58:37.391Z</time></trkpt><trkpt lat="43.9170483" lon="12.355295"><ele>425.0</ele><time>2026-04-25T06:58:38.39Z</time></trkpt><trkpt lat="43.91706" lon="12.3554567"><ele>425.8333333333333</ele><time>2026-04-25T06:58:40.391Z</time></trkpt><trkpt lat="43.9170467" lon="12.3555467"><ele>426.66666666666663</ele><time>2026-04-25T06:58:41.391Z</time></trkpt><trkpt lat="43.9170033" lon="12.3556683"><ele>427.5</ele><time>2026-04-25T06:58:43.391Z</time></trkpt><trkpt lat="43.9168833" lon="12.3557033"><ele>428.33333333333337</ele><time>2026-04-25T06:58:45.39Z</time></trkpt><trkpt lat="43.91681" lon="12.35571"><ele>429.1666666666667</ele><time>2026-04-25T06:58:46.391Z</time></trkpt><trkpt lat="43.9167283" lon="12.3557217"><ele>430.0</ele><time>2026-04-25T06:58:47.391Z</time></trkpt><trkpt lat="43.916645" lon="12.35573"><ele>435.1666666666667</ele><time>2026-04-25T06:58:48.391Z</time></trkpt><trkpt lat="43.9165517" lon="12.3557333"><ele>440.33333333333337</ele><time>2026-04-25T06:58:49.39Z</time></trkpt><trkpt lat="43.9164467" lon="12.3557417"><ele>445.5</ele><time>2026-04-25T06:58:50.391Z</time></trkpt><trkpt lat="43.916355" lon="12.35572"><ele>450.66666666666663</ele><time>2026-04-25T06:58:51.39Z</time></trkpt><trkpt lat="43.916285" lon="12.3557133"><ele>455.8333333333333</ele><time>2026-04-25T06:58:52.391Z</time></trkpt><trkpt lat="43.9162217" lon="12.35572"><ele>461.0</ele><time>2026-04-25T06:58:53.39Z</time></trkpt><trkpt lat="43.91613" lon="12.355815"><ele>460.99999999999994</ele><time>2026-04-25T06:58:55.39Z</time></trkpt><trkpt lat="43.916085" lon="12.35591"><ele>461.0</ele><time>2026-04-25T06:58:56.391Z</time></trkpt><trkpt lat="43.91604" lon="12.3559983"><ele>461.0</ele><time>2026-04-25T06:58:57.39Z</time></trkpt><trkpt lat="43.9159883" lon="12.356115"><ele>461.0</ele><time>2026-04-25T06:58:59.39Z</time></trkpt><trkpt lat="43.9160267" lon="12.3561983"><ele>460.99999999999994</ele><time>2026-04-25T06:59:01.39Z</time></trkpt><trkpt lat="43.916065" lon="12.3562683"><ele>461.0</ele><time>2026-04-25T06:59:02.39Z</time></trkpt><trkpt lat="43.916105" lon="12.3563633"><ele>463.0</ele><time>2026-04-25T06:59:03.39Z</time></trkpt><trkpt lat="43.9161233" lon="12.356485"><ele>465.0</ele><time>2026-04-25T06:59:05.391Z</time></trkpt><trkpt lat="43.9161283" lon="12.35658"><ele>467.0</ele><time>2026-04-25T06:59:07.39Z</time></trkpt><trkpt lat="43.9161067" lon="12.3567533"><ele>469.0</ele><time>2026-04-25T06:59:09.39Z</time></trkpt><trkpt lat="43.9161" lon="12.356845"><ele>471.0</ele><time>2026-04-25T06:59:10.391Z</time></trkpt><trkpt lat="43.916145" lon="12.3570033"><ele>471.0</ele><time>2026-04-25T06:59:12.39Z</time></trkpt><trkpt lat="43.916205" lon="12.3570583"><ele>471.0</ele><time>2026-04-25T06:59:13.39Z</time></trkpt><trkpt lat="43.9162833" lon="12.3570917"><ele>471.0</ele><time>2026-04-25T06:59:15.39Z</time></trkpt><trkpt lat="43.9162817" lon="12.3571883"><ele>471.0</ele><time>2026-04-25T06:59:19.391Z</time></trkpt><trkpt lat="43.916195" lon="12.3572217"><ele>471.0</ele><time>2026-04-25T06:59:21.39Z</time></trkpt><trkpt lat="43.9161267" lon="12.35724"><ele>471.0</ele><time>2026-04-25T06:59:22.391Z</time></trkpt><trkpt lat="43.9160383" lon="12.357275"><ele>473.20000000000005</ele><time>2026-04-25T06:59:23.391Z</time></trkpt><trkpt lat="43.9159517" lon="12.3573083"><ele>475.40000000000003</ele><time>2026-04-25T06:59:24.39Z</time></trkpt><trkpt lat="43.91585" lon="12.3573417"><ele>477.6</ele><time>2026-04-25T06:59:25.39Z</time></trkpt><trkpt lat="43.9157533" lon="12.3573717"><ele>479.8</ele><time>2026-04-25T06:59:26.39Z</time></trkpt><trkpt lat="43.915665" lon="12.3573883"><ele>482.0</ele><time>2026-04-25T06:59:27.39Z</time></trkpt><trkpt lat="43.9155783" lon="12.3574017"><ele>484.8</ele><time>2026-04-25T06:59:28.391Z</time></trkpt><trkpt lat="43.9154933" lon="12.3574117"><ele>487.6</ele><time>2026-04-25T06:59:29.39Z</time></trkpt><trkpt lat="43.9154017" lon="12.3574067"><ele>490.40000000000003</ele><time>2026-04-25T06:59:30.39Z</time></trkpt><trkpt lat="43.9153133" lon="12.3573717"><ele>493.20000000000005</ele><time>2026-04-25T06:59:31.391Z</time></trkpt><trkpt lat="43.9152083" lon="12.3573367"><ele>496.0</ele><time>2026-04-25T06:59:32.39Z</time></trkpt><trkpt lat="43.915105" lon="12.357285"><ele>498.75</ele><time>2026-04-25T06:59:33.391Z</time></trkpt><trkpt lat="43.91501" lon="12.3572083"><ele>501.5</ele><time>2026-04-25T06:59:34.391Z</time></trkpt><trkpt lat="43.9149117" lon="12.3571267"><ele>504.25</ele><time>2026-04-25T06:59:35.39Z</time></trkpt><trkpt lat="43.9148117" lon="12.357045"><ele>507.0</ele><time>2026-04-25T06:59:36.39Z</time></trkpt><trkpt lat="43.91471" lon="12.35697"><ele>500.25</ele><time>2026-04-25T06:59:37.39Z</time></trkpt><trkpt lat="43.91461" lon="12.356885"><ele>493.5</ele><time>2026-04-25T06:59:38.391Z</time></trkpt><trkpt lat="43.9145133" lon="12.35679"><ele>486.75</ele><time>2026-04-25T06:59:39.391Z</time></trkpt><trkpt lat="43.9144183" lon="12.3566917"><ele>480.0</ele><time>2026-04-25T06:59:40.391Z</time></trkpt><trkpt lat="43.91432" lon="12.35659"><ele>479.75</ele><time>2026-04-25T06:59:41.391Z</time></trkpt><trkpt lat="43.9142117" lon="12.3564867"><ele>479.5</ele><time>2026-04-25T06:59:42.391Z</time></trkpt><trkpt lat="43.9141017" lon="12.356395"><ele>479.25</ele><time>2026-04-25T06:59:43.39Z</time></trkpt><trkpt lat="43.914" lon="12.3562967"><ele>479.0</ele><time>2026-04-25T06:59:44.391Z</time></trkpt><trkpt lat="43.913905" lon="12.3562083"><ele>479.0</ele><time>2026-04-25T06:59:45.39Z</time></trkpt><trkpt lat="43.913815" lon="12.3561217"><ele>479.0</ele><time>2026-04-25T06:59:46.39Z</time></trkpt><trkpt lat="43.913735" lon="12.35604"><ele>479.0</ele><time>2026-04-25T06:59:47.391Z</time></trkpt><trkpt lat="43.9136617" lon="12.3559567"><ele>479.0</ele><time>2026-04-25T06:59:48.39Z</time></trkpt><trkpt lat="43.91358" lon="12.3558867"><ele>479.0</ele><time>2026-04-25T06:59:49.391Z</time></trkpt><trkpt lat="43.9135017" lon="12.3558383"><ele>479.0</ele><time>2026-04-25T06:59:50.39Z</time></trkpt><trkpt lat="43.91343" lon="12.355815"><ele>479.0</ele><time>2026-04-25T06:59:51.391Z</time></trkpt><trkpt lat="43.9133033" lon="12.355815"><ele>479.0</ele><time>2026-04-25T06:59:53.391Z</time></trkpt><trkpt lat="43.9132383" lon="12.35586"><ele>479.0</ele><time>2026-04-25T06:59:54.391Z</time></trkpt><trkpt lat="43.91315" lon="12.3559367"><ele>479.0</ele><time>2026-04-25T06:59:55.39Z</time></trkpt><trkpt lat="43.91303" lon="12.3560517"><ele>486.0</ele><time>2026-04-25T06:59:56.391Z</time></trkpt><trkpt lat="43.9128967" lon="12.3561567"><ele>493.0</ele><time>2026-04-25T06:59:57.39Z</time></trkpt><trkpt lat="43.91276" lon="12.3562333"><ele>500.0</ele><time>2026-04-25T06:59:58.391Z</time></trkpt><trkpt lat="43.9126233" lon="12.3563117"><ele>507.0</ele><time>2026-04-25T06:59:59.39Z</time></trkpt><trkpt lat="43.9125017" lon="12.356375"><ele>507.0</ele><time>2026-04-25T07:00:00.391Z</time></trkpt><trkpt lat="43.9123867" lon="12.35644"><ele>507.00000000000006</ele><time>2026-04-25T07:00:01.391Z</time></trkpt><trkpt lat="43.9122883" lon="12.3565033"><ele>507.00000000000006</ele><time>2026-04-25T07:00:02.391Z</time></trkpt><trkpt lat="43.9122" lon="12.356565"><ele>507.0</ele><time>2026-04-25T07:00:03.39Z</time></trkpt><trkpt lat="43.91212" lon="12.356625"><ele>507.0</ele><time>2026-04-25T07:00:04.391Z</time></trkpt><trkpt lat="43.9120467" lon="12.35668"><ele>507.0</ele><time>2026-04-25T07:00:05.39Z</time></trkpt><trkpt lat="43.9119783" lon="12.3567283"><ele>507.0</ele><time>2026-04-25T07:00:06.39Z</time></trkpt><trkpt lat="43.9119117" lon="12.3567733"><ele>507.0</ele><time>2026-04-25T07:00:07.391Z</time></trkpt><trkpt lat="43.91185" lon="12.3568167"><ele>507.0</ele><time>2026-04-25T07:00:08.391Z</time></trkpt><trkpt lat="43.911785" lon="12.356855"><ele>507.0</ele><time>2026-04-25T07:00:09.391Z</time></trkpt><trkpt lat="43.9117167" lon="12.3569017"><ele>507.0</ele><time>2026-04-25T07:00:10.39Z</time></trkpt><trkpt lat="43.9116367" lon="12.3569467"><ele>509.5</ele><time>2026-04-25T07:00:11.39Z</time></trkpt><trkpt lat="43.9115417" lon="12.356985"><ele>512.0</ele><time>2026-04-25T07:00:12.391Z</time></trkpt><trkpt lat="43.9114267" lon="12.357015"><ele>514.5</ele><time>2026-04-25T07:00:13.39Z</time></trkpt><trkpt lat="43.9113033" lon="12.35705"><ele>517.0</ele><time>2026-04-25T07:00:14.392Z</time></trkpt><trkpt lat="43.9111883" lon="12.3570783"><ele>517.0</ele><time>2026-04-25T07:00:15.392Z</time></trkpt><trkpt lat="43.9110617" lon="12.3571183"><ele>517.0</ele><time>2026-04-25T07:00:16.391Z</time></trkpt><trkpt lat="43.9109367" lon="12.357155"><ele>517.0</ele><time>2026-04-25T07:00:17.392Z</time></trkpt><trkpt lat="43.9108133" lon="12.357185"><ele>517.0</ele><time>2026-04-25T07:00:18.391Z</time></trkpt><trkpt lat="43.9107033" lon="12.35721"><ele>514.6</ele><time>2026-04-25T07:00:19.392Z</time></trkpt><trkpt lat="43.910595" lon="12.3572233"><ele>512.2</ele><time>2026-04-25T07:00:20.392Z</time></trkpt><trkpt lat="43.910485" lon="12.3572383"><ele>509.8</ele><time>2026-04-25T07:00:21.392Z</time></trkpt><trkpt lat="43.910385" lon="12.3572667"><ele>507.4</ele><time>2026-04-25T07:00:22.392Z</time></trkpt><trkpt lat="43.9102933" lon="12.3573033"><ele>505.0</ele><time>2026-04-25T07:00:23.391Z</time></trkpt><trkpt lat="43.910375" lon="12.3575067"><ele>505.0</ele><time>2026-04-25T07:00:24.69Z</time></trkpt><trkpt lat="43.9101033" lon="12.3575233"><ele>505.0</ele><time>2026-04-25T07:00:25.87Z</time></trkpt><trkpt lat="43.9100417" lon="12.3575817"><ele>505.0</ele><time>2026-04-25T07:00:26.891Z</time></trkpt><trkpt lat="43.9099567" lon="12.3576467"><ele>505.0</ele><time>2026-04-25T07:00:27.891Z</time></trkpt><trkpt lat="43.909855" lon="12.357715"><ele>507.6</ele><time>2026-04-25T07:00:28.891Z</time></trkpt><trkpt lat="43.9097133" lon="12.3577783"><ele>510.2</ele><time>2026-04-25T07:00:30.391Z</time></trkpt><trkpt lat="43.9096167" lon="12.3577667"><ele>512.8</ele><time>2026-04-25T07:00:31.39Z</time></trkpt><trkpt lat="43.9095133" lon="12.3577583"><ele>515.4</ele><time>2026-04-25T07:00:32.391Z</time></trkpt><trkpt lat="43.9094183" lon="12.3577717"><ele>518.0</ele><time>2026-04-25T07:00:33.391Z</time></trkpt><trkpt lat="43.90932" lon="12.357795"><ele>516.6</ele><time>2026-04-25T07:00:34.39Z</time></trkpt><trkpt lat="43.9092283" lon="12.3578883"><ele>515.1999999999999</ele><time>2026-04-25T07:00:35.391Z</time></trkpt><trkpt lat="43.9091583" lon="12.358005"><ele>513.8</ele><time>2026-04-25T07:00:36.391Z</time></trkpt><trkpt lat="43.9090883" lon="12.3581067"><ele>512.4</ele><time>2026-04-25T07:00:37.391Z</time></trkpt><trkpt lat="43.9090067" lon="12.35819"><ele>511.0</ele><time>2026-04-25T07:00:38.391Z</time></trkpt><trkpt lat="43.9089183" lon="12.35825"><ele>511.0</ele><time>2026-04-25T07:00:39.39Z</time></trkpt><trkpt lat="43.9088217" lon="12.3582817"><ele>511.0</ele><time>2026-04-25T07:00:40.391Z</time></trkpt><trkpt lat="43.90872" lon="12.358285"><ele>511.0</ele><time>2026-04-25T07:00:41.391Z</time></trkpt><trkpt lat="43.90861" lon="12.3582833"><ele>511.0</ele><time>2026-04-25T07:00:42.391Z</time></trkpt><trkpt lat="43.9084967" lon="12.3582917"><ele>511.0</ele><time>2026-04-25T07:00:43.391Z</time></trkpt><trkpt lat="43.9083783" lon="12.358325"><ele>515.5</ele><time>2026-04-25T07:00:44.39Z</time></trkpt><trkpt lat="43.9082533" lon="12.358375"><ele>520.0</ele><time>2026-04-25T07:00:45.39Z</time></trkpt><trkpt lat="43.9081267" lon="12.3584383"><ele>524.5</ele><time>2026-04-25T07:00:46.391Z</time></trkpt><trkpt lat="43.9080083" lon="12.3585233"><ele>529.0</ele><time>2026-04-25T07:00:47.391Z</time></trkpt><trkpt lat="43.9078833" lon="12.3586083"><ele>529.0</ele><time>2026-04-25T07:00:48.39Z</time></trkpt><trkpt lat="43.90778" lon="12.3587083"><ele>529.0</ele><time>2026-04-25T07:00:49.391Z</time></trkpt><trkpt lat="43.907685" lon="12.35882"><ele>529.0</ele><time>2026-04-25T07:00:50.39Z</time></trkpt><trkpt lat="43.9075933" lon="12.3589583"><ele>529.0</ele><time>2026-04-25T07:00:51.39Z</time></trkpt><trkpt lat="43.9075033" lon="12.3590917"><ele>527.5</ele><time>2026-04-25T07:00:52.391Z</time></trkpt><trkpt lat="43.9074083" lon="12.3592017"><ele>526.0</ele><time>2026-04-25T07:00:53.39Z</time></trkpt><trkpt lat="43.90732" lon="12.35931"><ele>524.5</ele><time>2026-04-25T07:00:54.391Z</time></trkpt><trkpt lat="43.9072233" lon="12.3594133"><ele>523.0</ele><time>2026-04-25T07:00:55.391Z</time></trkpt><trkpt lat="43.9071317" lon="12.3595067"><ele>523.0</ele><time>2026-04-25T07:00:56.39Z</time></trkpt><trkpt lat="43.9070517" lon="12.3595633"><ele>523.0</ele><time>2026-04-25T07:00:57.39Z</time></trkpt><trkpt lat="43.9069717" lon="12.3595917"><ele>523.0</ele><time>2026-04-25T07:00:58.391Z</time></trkpt><trkpt lat="43.9068783" lon="12.3596017"><ele>523.0</ele><time>2026-04-25T07:00:59.391Z</time></trkpt><trkpt lat="43.906775" lon="12.3595733"><ele>523.0</ele><time>2026-04-25T07:01:00.391Z</time></trkpt><trkpt lat="43.906665" lon="12.3595283"><ele>524.0</ele><time>2026-04-25T07:01:01.39Z</time></trkpt><trkpt lat="43.9065433" lon="12.3594683"><ele>525.0</ele><time>2026-04-25T07:01:02.391Z</time></trkpt><trkpt lat="43.9064233" lon="12.359395"><ele>526.0</ele><time>2026-04-25T07:01:03.391Z</time></trkpt><trkpt lat="43.9063117" lon="12.359315"><ele>527.0</ele><time>2026-04-25T07:01:04.39Z</time></trkpt><trkpt lat="43.9062117" lon="12.3592333"><ele>527.0</ele><time>2026-04-25T07:01:05.39Z</time></trkpt><trkpt lat="43.9061133" lon="12.3591517"><ele>527.0</ele><time>2026-04-25T07:01:06.39Z</time></trkpt><trkpt lat="43.9060183" lon="12.3590833"><ele>527.0</ele><time>2026-04-25T07:01:07.39Z</time></trkpt><trkpt lat="43.9059317" lon="12.3590117"><ele>527.0</ele><time>2026-04-25T07:01:08.391Z</time></trkpt><trkpt lat="43.905835" lon="12.3589583"><ele>527.0</ele><time>2026-04-25T07:01:09.39Z</time></trkpt><trkpt lat="43.9057367" lon="12.358925"><ele>526.2</ele><time>2026-04-25T07:01:10.39Z</time></trkpt><trkpt lat="43.9056433" lon="12.3589233"><ele>525.4000000000001</ele><time>2026-04-25T07:01:11.391Z</time></trkpt><trkpt lat="43.9055417" lon="12.35895"><ele>524.5999999999999</ele><time>2026-04-25T07:01:12.391Z</time></trkpt><trkpt lat="43.905435" lon="12.3589617"><ele>523.8</ele><time>2026-04-25T07:01:13.391Z</time></trkpt><trkpt lat="43.9053267" lon="12.3589617"><ele>523.0</ele><time>2026-04-25T07:01:14.391Z</time></trkpt><trkpt lat="43.905215" lon="12.3589183"><ele>525.75</ele><time>2026-04-25T07:01:15.391Z</time></trkpt><trkpt lat="43.9051067" lon="12.358845"><ele>528.5</ele><time>2026-04-25T07:01:16.39Z</time></trkpt><trkpt lat="43.9050017" lon="12.358775"><ele>531.25</ele><time>2026-04-25T07:01:17.391Z</time></trkpt><trkpt lat="43.9049033" lon="12.3587067"><ele>534.0</ele><time>2026-04-25T07:01:18.391Z</time></trkpt><trkpt lat="43.9048083" lon="12.3586367"><ele>534.0</ele><time>2026-04-25T07:01:19.39Z</time></trkpt><trkpt lat="43.9047217" lon="12.35857"><ele>534.0</ele><time>2026-04-25T07:01:20.39Z</time></trkpt><trkpt lat="43.9046383" lon="12.3585133"><ele>534.0</ele><time>2026-04-25T07:01:21.391Z</time></trkpt><trkpt lat="43.9045617" lon="12.3584583"><ele>534.0</ele><time>2026-04-25T07:01:22.391Z</time></trkpt><trkpt lat="43.904485" lon="12.358415"><ele>534.0</ele><time>2026-04-25T07:01:23.39Z</time></trkpt><trkpt lat="43.9044133" lon="12.3583767"><ele>534.0</ele><time>2026-04-25T07:01:24.39Z</time></trkpt><trkpt lat="43.904345" lon="12.358345"><ele>534.0</ele><time>2026-04-25T07:01:25.391Z</time></trkpt><trkpt lat="43.9042817" lon="12.3583217"><ele>534.0</ele><time>2026-04-25T07:01:26.391Z</time></trkpt><trkpt lat="43.9042117" lon="12.3583033"><ele>534.0</ele><time>2026-04-25T07:01:27.391Z</time></trkpt><trkpt lat="43.90413" lon="12.3582767"><ele>534.0</ele><time>2026-04-25T07:01:28.391Z</time></trkpt><trkpt lat="43.90403" lon="12.35825"><ele>534.0</ele><time>2026-04-25T07:01:29.391Z</time></trkpt><trkpt lat="43.9039167" lon="12.358235"><ele>534.0</ele><time>2026-04-25T07:01:30.39Z</time></trkpt><trkpt lat="43.9037917" lon="12.358235"><ele>531.5</ele><time>2026-04-25T07:01:31.391Z</time></trkpt><trkpt lat="43.90366" lon="12.3582467"><ele>529.0</ele><time>2026-04-25T07:01:32.39Z</time></trkpt><trkpt lat="43.9035167" lon="12.3582833"><ele>526.5</ele><time>2026-04-25T07:01:33.391Z</time></trkpt><trkpt lat="43.903375" lon="12.3583317"><ele>524.0</ele><time>2026-04-25T07:01:34.391Z</time></trkpt><trkpt lat="43.9032333" lon="12.3583717"><ele>524.0</ele><time>2026-04-25T07:01:35.391Z</time></trkpt><trkpt lat="43.9031033" lon="12.3584183"><ele>524.0</ele><time>2026-04-25T07:01:36.391Z</time></trkpt><trkpt lat="43.90298" lon="12.3584583"><ele>524.0</ele><time>2026-04-25T07:01:37.39Z</time></trkpt><trkpt lat="43.90285" lon="12.3584833"><ele>524.0</ele><time>2026-04-25T07:01:38.391Z</time></trkpt><trkpt lat="43.9027117" lon="12.35849"><ele>525.5</ele><time>2026-04-25T07:01:39.391Z</time></trkpt><trkpt lat="43.902565" lon="12.3584767"><ele>527.0</ele><time>2026-04-25T07:01:40.391Z</time></trkpt><trkpt lat="43.902415" lon="12.35846"><ele>528.5</ele><time>2026-04-25T07:01:41.391Z</time></trkpt><trkpt lat="43.9022667" lon="12.3584417"><ele>530.0</ele><time>2026-04-25T07:01:42.391Z</time></trkpt><trkpt lat="43.9021233" lon="12.35843"><ele>530.0</ele><time>2026-04-25T07:01:43.391Z</time></trkpt><trkpt lat="43.9019817" lon="12.3584117"><ele>530.0</ele><time>2026-04-25T07:01:44.391Z</time></trkpt><trkpt lat="43.9018367" lon="12.3583967"><ele>530.0</ele><time>2026-04-25T07:01:45.391Z</time></trkpt><trkpt lat="43.901685" lon="12.3583783"><ele>530.0</ele><time>2026-04-25T07:01:46.391Z</time></trkpt><trkpt lat="43.901535" lon="12.35836"><ele>530.0</ele><time>2026-04-25T07:01:47.391Z</time></trkpt><trkpt lat="43.9013917" lon="12.3583417"><ele>530.0</ele><time>2026-04-25T07:01:48.391Z</time></trkpt><trkpt lat="43.9012517" lon="12.3583167"><ele>530.0</ele><time>2026-04-25T07:01:49.391Z</time></trkpt><trkpt lat="43.901115" lon="12.3582783"><ele>530.0</ele><time>2026-04-25T07:01:50.391Z</time></trkpt><trkpt lat="43.9009883" lon="12.35821"><ele>531.25</ele><time>2026-04-25T07:01:51.391Z</time></trkpt><trkpt lat="43.9008683" lon="12.3581117"><ele>532.5</ele><time>2026-04-25T07:01:52.39Z</time></trkpt><trkpt lat="43.9007517" lon="12.3579883"><ele>533.75</ele><time>2026-04-25T07:01:53.391Z</time></trkpt><trkpt lat="43.9006333" lon="12.3578567"><ele>535.0</ele><time>2026-04-25T07:01:54.391Z</time></trkpt><trkpt lat="43.9005217" lon="12.3577333"><ele>537.5</ele><time>2026-04-25T07:01:55.391Z</time></trkpt><trkpt lat="43.9004183" lon="12.3576217"><ele>540.0</ele><time>2026-04-25T07:01:56.391Z</time></trkpt><trkpt lat="43.9003283" lon="12.3575267"><ele>542.5</ele><time>2026-04-25T07:01:57.391Z</time></trkpt><trkpt lat="43.9002383" lon="12.357425"><ele>545.0</ele><time>2026-04-25T07:01:58.39Z</time></trkpt><trkpt lat="43.9001567" lon="12.35733"><ele>545.0</ele><time>2026-04-25T07:01:59.391Z</time></trkpt><trkpt lat="43.9000867" lon="12.3572517"><ele>545.0</ele><time>2026-04-25T07:02:00.391Z</time></trkpt><trkpt lat="43.9000283" lon="12.3571883"><ele>545.0</ele><time>2026-04-25T07:02:01.391Z</time></trkpt><trkpt lat="43.899975" lon="12.35713"><ele>545.0</ele><time>2026-04-25T07:02:02.39Z</time></trkpt><trkpt lat="43.8998783" lon="12.357075"><ele>545.0</ele><time>2026-04-25T07:02:04.391Z</time></trkpt><trkpt lat="43.899805" lon="12.357175"><ele>545.0</ele><time>2026-04-25T07:02:06.391Z</time></trkpt><trkpt lat="43.8997733" lon="12.3572983"><ele>544.75</ele><time>2026-04-25T07:02:07.391Z</time></trkpt><trkpt lat="43.8997367" lon="12.3574533"><ele>544.5</ele><time>2026-04-25T07:02:08.391Z</time></trkpt><trkpt lat="43.8996983" lon="12.357625"><ele>544.25</ele><time>2026-04-25T07:02:09.39Z</time></trkpt><trkpt lat="43.8996583" lon="12.3578033"><ele>544.0</ele><time>2026-04-25T07:02:10.39Z</time></trkpt><trkpt lat="43.89962" lon="12.3579683"><ele>542.2</ele><time>2026-04-25T07:02:11.391Z</time></trkpt><trkpt lat="43.8995883" lon="12.3581233"><ele>540.4</ele><time>2026-04-25T07:02:12.391Z</time></trkpt><trkpt lat="43.8995633" lon="12.3582667"><ele>538.6</ele><time>2026-04-25T07:02:13.391Z</time></trkpt><trkpt lat="43.8995367" lon="12.358395"><ele>536.8</ele><time>2026-04-25T07:02:14.391Z</time></trkpt><trkpt lat="43.899495" lon="12.3585083"><ele>535.0</ele><time>2026-04-25T07:02:15.39Z</time></trkpt><trkpt lat="43.8994333" lon="12.35861"><ele>535.0</ele><time>2026-04-25T07:02:16.391Z</time></trkpt><trkpt lat="43.899355" lon="12.3587"><ele>535.0</ele><time>2026-04-25T07:02:17.391Z</time></trkpt><trkpt lat="43.899275" lon="12.3588"><ele>535.0</ele><time>2026-04-25T07:02:18.391Z</time></trkpt><trkpt lat="43.8991883" lon="12.3588817"><ele>535.0</ele><time>2026-04-25T07:02:19.39Z</time></trkpt><trkpt lat="43.8991067" lon="12.358965"><ele>535.0</ele><time>2026-04-25T07:02:20.39Z</time></trkpt><trkpt lat="43.8990333" lon="12.3590417"><ele>533.5</ele><time>2026-04-25T07:02:21.391Z</time></trkpt><trkpt lat="43.8989733" lon="12.3590967"><ele>532.0</ele><time>2026-04-25T07:02:22.391Z</time></trkpt><trkpt lat="43.89886" lon="12.3592567"><ele>530.5</ele><time>2026-04-25T07:02:24.391Z</time></trkpt><trkpt lat="43.8988383" lon="12.3593967"><ele>529.0</ele><time>2026-04-25T07:02:25.391Z</time></trkpt><trkpt lat="43.8988133" lon="12.3595733"><ele>525.25</ele><time>2026-04-25T07:02:26.391Z</time></trkpt><trkpt lat="43.8987867" lon="12.3597583"><ele>521.5</ele><time>2026-04-25T07:02:27.39Z</time></trkpt><trkpt lat="43.8987517" lon="12.3599333"><ele>517.75</ele><time>2026-04-25T07:02:28.391Z</time></trkpt><trkpt lat="43.8987083" lon="12.3601183"><ele>514.0</ele><time>2026-04-25T07:02:29.39Z</time></trkpt><trkpt lat="43.8986717" lon="12.3602867"><ele>513.75</ele><time>2026-04-25T07:02:30.391Z</time></trkpt><trkpt lat="43.8986533" lon="12.3605417"><ele>513.5</ele><time>2026-04-25T07:02:31.921Z</time></trkpt><trkpt lat="43.89858" lon="12.3607033"><ele>513.25</ele><time>2026-04-25T07:02:33.39Z</time></trkpt><trkpt lat="43.8984967" lon="12.3607517"><ele>513.0</ele><time>2026-04-25T07:02:34.391Z</time></trkpt><trkpt lat="43.8983767" lon="12.3608083"><ele>513.0</ele><time>2026-04-25T07:02:35.891Z</time></trkpt><trkpt lat="43.8982417" lon="12.36083"><ele>513.0</ele><time>2026-04-25T07:02:37.39Z</time></trkpt><trkpt lat="43.89816" lon="12.3608483"><ele>513.0</ele><time>2026-04-25T07:02:38.391Z</time></trkpt><trkpt lat="43.898075" lon="12.3608717"><ele>513.0</ele><time>2026-04-25T07:02:39.391Z</time></trkpt><trkpt lat="43.8980033" lon="12.360935"><ele>513.0</ele><time>2026-04-25T07:02:40.391Z</time></trkpt><trkpt lat="43.8979367" lon="12.361025"><ele>513.0</ele><time>2026-04-25T07:02:41.391Z</time></trkpt><trkpt lat="43.8978567" lon="12.3611567"><ele>513.0</ele><time>2026-04-25T07:02:42.391Z</time></trkpt><trkpt lat="43.897775" lon="12.3613183"><ele>513.0</ele><time>2026-04-25T07:02:43.39Z</time></trkpt><trkpt lat="43.8976933" lon="12.361475"><ele>513.0</ele><time>2026-04-25T07:02:44.391Z</time></trkpt><trkpt lat="43.8976233" lon="12.3616367"><ele>509.4</ele><time>2026-04-25T07:02:45.391Z</time></trkpt><trkpt lat="43.8975433" lon="12.36178"><ele>505.79999999999995</ele><time>2026-04-25T07:02:46.391Z</time></trkpt><trkpt lat="43.89747" lon="12.3618983"><ele>502.2</ele><time>2026-04-25T07:02:47.391Z</time></trkpt><trkpt lat="43.897405" lon="12.3619783"><ele>498.6</ele><time>2026-04-25T07:02:48.39Z</time></trkpt><trkpt lat="43.89733" lon="12.3620067"><ele>495.0</ele><time>2026-04-25T07:02:49.391Z</time></trkpt><trkpt lat="43.897245" lon="12.362005"><ele>495.0</ele><time>2026-04-25T07:02:50.391Z</time></trkpt><trkpt lat="43.8971467" lon="12.3619733"><ele>495.0</ele><time>2026-04-25T07:02:51.391Z</time></trkpt><trkpt lat="43.8970583" lon="12.3619017"><ele>495.0</ele><time>2026-04-25T07:02:52.39Z</time></trkpt><trkpt lat="43.8969833" lon="12.361805"><ele>495.0</ele><time>2026-04-25T07:02:53.39Z</time></trkpt><trkpt lat="43.8969167" lon="12.36169"><ele>495.0</ele><time>2026-04-25T07:02:54.391Z</time></trkpt><trkpt lat="43.8968483" lon="12.3616067"><ele>495.0</ele><time>2026-04-25T07:02:55.391Z</time></trkpt><trkpt lat="43.8967783" lon="12.3615417"><ele>495.0</ele><time>2026-04-25T07:02:56.39Z</time></trkpt><trkpt lat="43.8967017" lon="12.3615183"><ele>495.0</ele><time>2026-04-25T07:02:57.391Z</time></trkpt><trkpt lat="43.8965983" lon="12.3615733"><ele>495.0</ele><time>2026-04-25T07:02:59.391Z</time></trkpt><trkpt lat="43.896555" lon="12.36167"><ele>495.0</ele><time>2026-04-25T07:03:00.39Z</time></trkpt><trkpt lat="43.8965383" lon="12.3617983"><ele>495.0</ele><time>2026-04-25T07:03:01.391Z</time></trkpt><trkpt lat="43.8965333" lon="12.36195"><ele>491.25</ele><time>2026-04-25T07:03:02.39Z</time></trkpt><trkpt lat="43.896545" lon="12.3621317"><ele>487.5</ele><time>2026-04-25T07:03:03.391Z</time></trkpt><trkpt lat="43.8965783" lon="12.362335"><ele>483.75</ele><time>2026-04-25T07:03:04.39Z</time></trkpt><trkpt lat="43.8966167" lon="12.36251"><ele>480.0</ele><time>2026-04-25T07:03:05.39Z</time></trkpt><trkpt lat="43.8966567" lon="12.3626617"><ele>478.8333333333333</ele><time>2026-04-25T07:03:06.39Z</time></trkpt><trkpt lat="43.896695" lon="12.3627983"><ele>477.66666666666663</ele><time>2026-04-25T07:03:07.391Z</time></trkpt><trkpt lat="43.8967317" lon="12.362915"><ele>476.5</ele><time>2026-04-25T07:03:08.391Z</time></trkpt><trkpt lat="43.89675" lon="12.3630283"><ele>475.3333333333333</ele><time>2026-04-25T07:03:09.39Z</time></trkpt><trkpt lat="43.8967633" lon="12.3631317"><ele>474.16666666666663</ele><time>2026-04-25T07:03:10.39Z</time></trkpt><trkpt lat="43.8967733" lon="12.36323"><ele>473.0</ele><time>2026-04-25T07:03:11.391Z</time></trkpt><trkpt lat="43.8967817" lon="12.3633417"><ele>472.25</ele><time>2026-04-25T07:03:12.391Z</time></trkpt><trkpt lat="43.89679" lon="12.3634833"><ele>471.5</ele><time>2026-04-25T07:03:13.39Z</time></trkpt><trkpt lat="43.8968" lon="12.3636533"><ele>470.75</ele><time>2026-04-25T07:03:14.391Z</time></trkpt><trkpt lat="43.8968017" lon="12.3638533"><ele>470.0</ele><time>2026-04-25T07:03:15.39Z</time></trkpt><trkpt lat="43.8968083" lon="12.3640383"><ele>467.6</ele><time>2026-04-25T07:03:16.391Z</time></trkpt><trkpt lat="43.8968183" lon="12.3642083"><ele>465.2</ele><time>2026-04-25T07:03:17.391Z</time></trkpt><trkpt lat="43.8968233" lon="12.3643567"><ele>462.79999999999995</ele><time>2026-04-25T07:03:18.391Z</time></trkpt><trkpt lat="43.8968167" lon="12.3644917"><ele>460.4</ele><time>2026-04-25T07:03:19.39Z</time></trkpt><trkpt lat="43.8968017" lon="12.364605"><ele>458.0</ele><time>2026-04-25T07:03:20.391Z</time></trkpt><trkpt lat="43.8967767" lon="12.3646933"><ele>455.59999999999997</ele><time>2026-04-25T07:03:21.39Z</time></trkpt><trkpt lat="43.8967317" lon="12.3647633"><ele>453.19999999999993</ele><time>2026-04-25T07:03:22.39Z</time></trkpt><trkpt lat="43.8966583" lon="12.364815"><ele>450.8</ele><time>2026-04-25T07:03:23.39Z</time></trkpt><trkpt lat="43.8965583" lon="12.3648333"><ele>448.4</ele><time>2026-04-25T07:03:24.39Z</time></trkpt><trkpt lat="43.8964283" lon="12.36482"><ele>446.0</ele><time>2026-04-25T07:03:25.39Z</time></trkpt><trkpt lat="43.8962933" lon="12.3648017"><ele>446.0</ele><time>2026-04-25T07:03:26.39Z</time></trkpt><trkpt lat="43.8961617" lon="12.3647817"><ele>446.0</ele><time>2026-04-25T07:03:27.391Z</time></trkpt><trkpt lat="43.896035" lon="12.36477"><ele>446.0</ele><time>2026-04-25T07:03:28.391Z</time></trkpt><trkpt lat="43.8959233" lon="12.3647517"><ele>446.0</ele><time>2026-04-25T07:03:29.391Z</time></trkpt><trkpt lat="43.8958333" lon="12.3647217"><ele>444.8</ele><time>2026-04-25T07:03:30.39Z</time></trkpt><trkpt lat="43.895755" lon="12.3646583"><ele>443.6</ele><time>2026-04-25T07:03:31.39Z</time></trkpt><trkpt lat="43.89569" lon="12.3645717"><ele>442.4</ele><time>2026-04-25T07:03:32.391Z</time></trkpt><trkpt lat="43.8956367" lon="12.3644467"><ele>441.2</ele><time>2026-04-25T07:03:33.391Z</time></trkpt><trkpt lat="43.8956067" lon="12.3643033"><ele>440.0</ele><time>2026-04-25T07:03:34.391Z</time></trkpt><trkpt lat="43.8955817" lon="12.3641883"><ele>439.99999999999994</ele><time>2026-04-25T07:03:35.39Z</time></trkpt><trkpt lat="43.8955567" lon="12.364105"><ele>440.0</ele><time>2026-04-25T07:03:36.391Z</time></trkpt><trkpt lat="43.8954733" lon="12.3640533"><ele>440.0</ele><time>2026-04-25T07:03:38.391Z</time></trkpt><trkpt lat="43.89544" lon="12.3641467"><ele>440.0</ele><time>2026-04-25T07:03:39.39Z</time></trkpt><trkpt lat="43.89542" lon="12.3642717"><ele>439.99999999999994</ele><time>2026-04-25T07:03:40.391Z</time></trkpt><trkpt lat="43.8954117" lon="12.36439"><ele>440.0</ele><time>2026-04-25T07:03:41.39Z</time></trkpt><trkpt lat="43.8953883" lon="12.364475"><ele>440.0</ele><time>2026-04-25T07:03:42.391Z</time></trkpt><trkpt lat="43.8952683" lon="12.364495"><ele>440.0</ele><time>2026-04-25T07:03:44.391Z</time></trkpt><trkpt lat="43.8951733" lon="12.36442"><ele>440.0</ele><time>2026-04-25T07:03:45.391Z</time></trkpt><trkpt lat="43.8950617" lon="12.3643383"><ele>440.0</ele><time>2026-04-25T07:03:46.391Z</time></trkpt><trkpt lat="43.8949467" lon="12.3642467"><ele>437.75</ele><time>2026-04-25T07:03:47.391Z</time></trkpt><trkpt lat="43.8948183" lon="12.364165"><ele>435.5</ele><time>2026-04-25T07:03:48.391Z</time></trkpt><trkpt lat="43.8946883" lon="12.3640833"><ele>433.25</ele><time>2026-04-25T07:03:49.391Z</time></trkpt><trkpt lat="43.894565" lon="12.3640017"><ele>431.0</ele><time>2026-04-25T07:03:50.39Z</time></trkpt><trkpt lat="43.89444" lon="12.3639083"><ele>432.25</ele><time>2026-04-25T07:03:51.39Z</time></trkpt><trkpt lat="43.8943117" lon="12.3638233"><ele>433.5</ele><time>2026-04-25T07:03:52.39Z</time></trkpt><trkpt lat="43.89418" lon="12.3637517"><ele>434.75</ele><time>2026-04-25T07:03:53.391Z</time></trkpt><trkpt lat="43.8940583" lon="12.3637"><ele>436.0</ele><time>2026-04-25T07:03:54.39Z</time></trkpt><trkpt lat="43.8939667" lon="12.3636683"><ele>436.50000000000006</ele><time>2026-04-25T07:03:55.391Z</time></trkpt><trkpt lat="43.893885" lon="12.3636583"><ele>437.0</ele><time>2026-04-25T07:03:56.391Z</time></trkpt><trkpt lat="43.8938083" lon="12.3636817"><ele>437.5</ele><time>2026-04-25T07:03:57.39Z</time></trkpt><trkpt lat="43.8937317" lon="12.36375"><ele>438.0</ele><time>2026-04-25T07:03:58.391Z</time></trkpt><trkpt lat="43.8936717" lon="12.3638267"><ele>438.50000000000006</ele><time>2026-04-25T07:03:59.391Z</time></trkpt><trkpt lat="43.89363" lon="12.36391"><ele>439.0</ele><time>2026-04-25T07:04:00.391Z</time></trkpt><trkpt lat="43.893685" lon="12.3640783"><ele>440.0</ele><time>2026-04-25T07:04:02.391Z</time></trkpt><trkpt lat="43.8937367" lon="12.364185"><ele>441.0</ele><time>2026-04-25T07:04:03.391Z</time></trkpt><trkpt lat="43.893805" lon="12.36428"><ele>442.0</ele><time>2026-04-25T07:04:04.391Z</time></trkpt><trkpt lat="43.8939733" lon="12.364295"><ele>443.0</ele><time>2026-04-25T07:04:05.431Z</time></trkpt><trkpt lat="43.89369" lon="12.36452"><ele>445.3333333333333</ele><time>2026-04-25T07:04:06.615Z</time></trkpt><trkpt lat="43.8938233" lon="12.3647783"><ele>447.66666666666663</ele><time>2026-04-25T07:04:07.892Z</time></trkpt><trkpt lat="43.893895" lon="12.364945"><ele>450.0</ele><time>2026-04-25T07:04:08.891Z</time></trkpt><trkpt lat="43.8938883" lon="12.3650983"><ele>450.0</ele><time>2026-04-25T07:04:09.891Z</time></trkpt><trkpt lat="43.8938533" lon="12.3653133"><ele>450.0</ele><time>2026-04-25T07:04:11.392Z</time></trkpt><trkpt lat="43.8938167" lon="12.365445"><ele>450.0</ele><time>2026-04-25T07:04:12.391Z</time></trkpt><trkpt lat="43.8937467" lon="12.3655717"><ele>450.0</ele><time>2026-04-25T07:04:13.392Z</time></trkpt><trkpt lat="43.893685" lon="12.3656967"><ele>451.75</ele><time>2026-04-25T07:04:14.391Z</time></trkpt><trkpt lat="43.8935983" lon="12.3658033"><ele>453.5</ele><time>2026-04-25T07:04:15.391Z</time></trkpt><trkpt lat="43.8935033" lon="12.365905"><ele>455.25</ele><time>2026-04-25T07:04:16.392Z</time></trkpt><trkpt lat="43.8934083" lon="12.3660017"><ele>457.0</ele><time>2026-04-25T07:04:17.392Z</time></trkpt><trkpt lat="43.8933267" lon="12.3661"><ele>461.6</ele><time>2026-04-25T07:04:18.392Z</time></trkpt><trkpt lat="43.8932617" lon="12.3662117"><ele>466.20000000000005</ele><time>2026-04-25T07:04:19.391Z</time></trkpt><trkpt lat="43.8932017" lon="12.366345"><ele>470.8</ele><time>2026-04-25T07:04:20.391Z</time></trkpt><trkpt lat="43.89314" lon="12.3664783"><ele>475.4</ele><time>2026-04-25T07:04:21.392Z</time></trkpt><trkpt lat="43.8931" lon="12.3666267"><ele>480.0</ele><time>2026-04-25T07:04:22.391Z</time></trkpt><trkpt lat="43.8930867" lon="12.3667533"><ele>480.0</ele><time>2026-04-25T07:04:23.392Z</time></trkpt><trkpt lat="43.8930717" lon="12.3668567"><ele>480.0</ele><time>2026-04-25T07:04:24.392Z</time></trkpt><trkpt lat="43.893085" lon="12.3669767"><ele>480.0</ele><time>2026-04-25T07:04:25.391Z</time></trkpt><trkpt lat="43.8931083" lon="12.3670933"><ele>480.0</ele><time>2026-04-25T07:04:26.392Z</time></trkpt><trkpt lat="43.8931533" lon="12.3672167"><ele>480.0</ele><time>2026-04-25T07:04:27.392Z</time></trkpt><trkpt lat="43.8932267" lon="12.367305"><ele>480.0</ele><time>2026-04-25T07:04:28.392Z</time></trkpt><trkpt lat="43.8933233" lon="12.36735"><ele>477.8</ele><time>2026-04-25T07:04:29.392Z</time></trkpt><trkpt lat="43.8934267" lon="12.3673833"><ele>475.6</ele><time>2026-04-25T07:04:30.392Z</time></trkpt><trkpt lat="43.8935217" lon="12.3674233"><ele>473.4</ele><time>2026-04-25T07:04:31.392Z</time></trkpt><trkpt lat="43.8936083" lon="12.36749"><ele>471.2</ele><time>2026-04-25T07:04:32.392Z</time></trkpt><trkpt lat="43.8936733" lon="12.3675933"><ele>469.0</ele><time>2026-04-25T07:04:33.391Z</time></trkpt><trkpt lat="43.8936917" lon="12.3677317"><ele>469.0</ele><time>2026-04-25T07:04:34.392Z</time></trkpt><trkpt lat="43.8937" lon="12.3678717"><ele>469.0</ele><time>2026-04-25T07:04:35.391Z</time></trkpt><trkpt lat="43.893705" lon="12.3679983"><ele>469.0</ele><time>2026-04-25T07:04:36.392Z</time></trkpt><trkpt lat="43.893705" lon="12.3681217"><ele>469.0</ele><time>2026-04-25T07:04:37.392Z</time></trkpt><trkpt lat="43.8937" lon="12.36825"><ele>469.0</ele><time>2026-04-25T07:04:38.392Z</time></trkpt><trkpt lat="43.8937033" lon="12.3683783"><ele>471.2</ele><time>2026-04-25T07:04:39.392Z</time></trkpt><trkpt lat="43.8937417" lon="12.3685033"><ele>473.4</ele><time>2026-04-25T07:04:40.391Z</time></trkpt><trkpt lat="43.8937783" lon="12.3686367"><ele>475.6</ele><time>2026-04-25T07:04:41.392Z</time></trkpt><trkpt lat="43.8938217" lon="12.3687733"><ele>477.8</ele><time>2026-04-25T07:04:42.392Z</time></trkpt><trkpt lat="43.8938617" lon="12.3689083"><ele>480.0</ele><time>2026-04-25T07:04:43.392Z</time></trkpt><trkpt lat="43.8939033" lon="12.36903"><ele>482.2</ele><time>2026-04-25T07:04:44.392Z</time></trkpt><trkpt lat="43.89395" lon="12.3691517"><ele>484.4</ele><time>2026-04-25T07:04:45.392Z</time></trkpt><trkpt lat="43.894" lon="12.3692583"><ele>486.6</ele><time>2026-04-25T07:04:46.392Z</time></trkpt><trkpt lat="43.8940533" lon="12.3693417"><ele>488.8</ele><time>2026-04-25T07:04:47.392Z</time></trkpt><trkpt lat="43.89413" lon="12.369455"><ele>491.0</ele><time>2026-04-25T07:04:49.392Z</time></trkpt><trkpt lat="43.8942317" lon="12.3695183"><ele>488.99999999999994</ele><time>2026-04-25T07:04:51.391Z</time></trkpt><trkpt lat="43.8942983" lon="12.3695333"><ele>487.0</ele><time>2026-04-25T07:04:52.391Z</time></trkpt><trkpt lat="43.894375" lon="12.36954"><ele>485.0</ele><time>2026-04-25T07:04:53.391Z</time></trkpt><trkpt lat="43.8944783" lon="12.3695467"><ele>483.0</ele><time>2026-04-25T07:04:54.391Z</time></trkpt><trkpt lat="43.8945733" lon="12.369565"><ele>480.99999999999994</ele><time>2026-04-25T07:04:55.392Z</time></trkpt><trkpt lat="43.89467" lon="12.36961"><ele>479.0</ele><time>2026-04-25T07:04:56.391Z</time></trkpt><trkpt lat="43.894755" lon="12.3696767"><ele>481.2</ele><time>2026-04-25T07:04:57.392Z</time></trkpt><trkpt lat="43.894835" lon="12.36976"><ele>483.4</ele><time>2026-04-25T07:04:58.392Z</time></trkpt><trkpt lat="43.8948967" lon="12.3698533"><ele>485.6</ele><time>2026-04-25T07:04:59.392Z</time></trkpt><trkpt lat="43.8949433" lon="12.3699733"><ele>487.8</ele><time>2026-04-25T07:05:00.392Z</time></trkpt><trkpt lat="43.8949733" lon="12.37012"><ele>490.0</ele><time>2026-04-25T07:05:01.391Z</time></trkpt><trkpt lat="43.8949883" lon="12.3702783"><ele>490.0</ele><time>2026-04-25T07:05:02.391Z</time></trkpt><trkpt lat="43.8950083" lon="12.370455"><ele>490.0</ele><time>2026-04-25T07:05:03.392Z</time></trkpt><trkpt lat="43.8950217" lon="12.3706383"><ele>490.0</ele><time>2026-04-25T07:05:04.392Z</time></trkpt><trkpt lat="43.89503" lon="12.3708383"><ele>490.0</ele><time>2026-04-25T07:05:05.392Z</time></trkpt><trkpt lat="43.8950433" lon="12.37103"><ele>490.5</ele><time>2026-04-25T07:05:06.391Z</time></trkpt><trkpt lat="43.8950633" lon="12.3712217"><ele>491.0</ele><time>2026-04-25T07:05:07.391Z</time></trkpt><trkpt lat="43.895085" lon="12.37141"><ele>491.5</ele><time>2026-04-25T07:05:08.391Z</time></trkpt><trkpt lat="43.895105" lon="12.371575"><ele>492.0</ele><time>2026-04-25T07:05:09.392Z</time></trkpt><trkpt lat="43.8951217" lon="12.3717317"><ele>488.75</ele><time>2026-04-25T07:05:10.392Z</time></trkpt><trkpt lat="43.8951383" lon="12.3718967"><ele>485.5</ele><time>2026-04-25T07:05:11.392Z</time></trkpt><trkpt lat="43.89516" lon="12.3720583"><ele>482.25</ele><time>2026-04-25T07:05:12.392Z</time></trkpt><trkpt lat="43.8951883" lon="12.3722233"><ele>479.0</ele><time>2026-04-25T07:05:13.391Z</time></trkpt><trkpt lat="43.8952233" lon="12.3723683"><ele>479.0</ele><time>2026-04-25T07:05:14.392Z</time></trkpt><trkpt lat="43.8952517" lon="12.3724983"><ele>479.0</ele><time>2026-04-25T07:05:15.392Z</time></trkpt><trkpt lat="43.8952583" lon="12.372645"><ele>479.0</ele><time>2026-04-25T07:05:16.392Z</time></trkpt><trkpt lat="43.8952433" lon="12.3727817"><ele>479.0</ele><time>2026-04-25T07:05:17.392Z</time></trkpt><trkpt lat="43.895215" lon="12.3728867"><ele>479.0</ele><time>2026-04-25T07:05:18.392Z</time></trkpt><trkpt lat="43.895165" lon="12.37298"><ele>478.4</ele><time>2026-04-25T07:05:19.392Z</time></trkpt><trkpt lat="43.8950967" lon="12.3730533"><ele>477.79999999999995</ele><time>2026-04-25T07:05:20.392Z</time></trkpt><trkpt lat="43.8950083" lon="12.3730967"><ele>477.20000000000005</ele><time>2026-04-25T07:05:21.392Z</time></trkpt><trkpt lat="43.894905" lon="12.3731033"><ele>476.6</ele><time>2026-04-25T07:05:22.391Z</time></trkpt><trkpt lat="43.8947917" lon="12.3731"><ele>476.0</ele><time>2026-04-25T07:05:23.392Z</time></trkpt><trkpt lat="43.8946833" lon="12.3731183"><ele>478.8</ele><time>2026-04-25T07:05:24.392Z</time></trkpt><trkpt lat="43.89459" lon="12.3731717"><ele>481.6</ele><time>2026-04-25T07:05:25.392Z</time></trkpt><trkpt lat="43.8945183" lon="12.3732517"><ele>484.4</ele><time>2026-04-25T07:05:26.392Z</time></trkpt><trkpt lat="43.8944667" lon="12.3733717"><ele>487.2</ele><time>2026-04-25T07:05:27.391Z</time></trkpt><trkpt lat="43.8944417" lon="12.3735283"><ele>490.0</ele><time>2026-04-25T07:05:28.392Z</time></trkpt><trkpt lat="43.8944233" lon="12.3736883"><ele>490.0</ele><time>2026-04-25T07:05:29.392Z</time></trkpt><trkpt lat="43.8944" lon="12.37382"><ele>490.0</ele><time>2026-04-25T07:05:30.391Z</time></trkpt><trkpt lat="43.89437" lon="12.373935"><ele>490.0</ele><time>2026-04-25T07:05:31.392Z</time></trkpt><trkpt lat="43.89433" lon="12.374055"><ele>490.0</ele><time>2026-04-25T07:05:32.392Z</time></trkpt><trkpt lat="43.8942817" lon="12.3741767"><ele>490.0</ele><time>2026-04-25T07:05:33.392Z</time></trkpt><trkpt lat="43.8942367" lon="12.3743083"><ele>488.4</ele><time>2026-04-25T07:05:34.391Z</time></trkpt><trkpt lat="43.894215" lon="12.37444"><ele>486.8</ele><time>2026-04-25T07:05:35.391Z</time></trkpt><trkpt lat="43.89421" lon="12.3745667"><ele>485.20000000000005</ele><time>2026-04-25T07:05:36.392Z</time></trkpt><trkpt lat="43.8942383" lon="12.374705"><ele>483.6</ele><time>2026-04-25T07:05:37.392Z</time></trkpt><trkpt lat="43.8942817" lon="12.374865"><ele>482.0</ele><time>2026-04-25T07:05:38.391Z</time></trkpt><trkpt lat="43.8943317" lon="12.3750283"><ele>482.0</ele><time>2026-04-25T07:05:39.391Z</time></trkpt><trkpt lat="43.894395" lon="12.3752"><ele>482.0</ele><time>2026-04-25T07:05:40.392Z</time></trkpt><trkpt lat="43.8944567" lon="12.3753717"><ele>482.0</ele><time>2026-04-25T07:05:41.392Z</time></trkpt><trkpt lat="43.894505" lon="12.3755533"><ele>482.0</ele><time>2026-04-25T07:05:42.391Z</time></trkpt><trkpt lat="43.894555" lon="12.3757267"><ele>482.75</ele><time>2026-04-25T07:05:43.392Z</time></trkpt><trkpt lat="43.8945833" lon="12.3759317"><ele>483.5</ele><time>2026-04-25T07:05:44.392Z</time></trkpt><trkpt lat="43.8946017" lon="12.3761333"><ele>484.25</ele><time>2026-04-25T07:05:45.392Z</time></trkpt><trkpt lat="43.8946317" lon="12.37632"><ele>485.0</ele><time>2026-04-25T07:05:46.391Z</time></trkpt><trkpt lat="43.8946617" lon="12.3765133"><ele>485.75</ele><time>2026-04-25T07:05:47.392Z</time></trkpt><trkpt lat="43.894685" lon="12.3767"><ele>486.5</ele><time>2026-04-25T07:05:48.392Z</time></trkpt><trkpt lat="43.8947017" lon="12.376885"><ele>487.25</ele><time>2026-04-25T07:05:49.392Z</time></trkpt><trkpt lat="43.894715" lon="12.3770433"><ele>488.0</ele><time>2026-04-25T07:05:50.392Z</time></trkpt><trkpt lat="43.8947083" lon="12.3771967"><ele>489.25</ele><time>2026-04-25T07:05:51.392Z</time></trkpt><trkpt lat="43.8946817" lon="12.3773467"><ele>490.5</ele><time>2026-04-25T07:05:52.392Z</time></trkpt><trkpt lat="43.89464" lon="12.3774933"><ele>491.75</ele><time>2026-04-25T07:05:53.392Z</time></trkpt><trkpt lat="43.8945767" lon="12.37764"><ele>493.0</ele><time>2026-04-25T07:05:54.392Z</time></trkpt><trkpt lat="43.8945" lon="12.3777783"><ele>493.0</ele><time>2026-04-25T07:05:55.392Z</time></trkpt><trkpt lat="43.8944383" lon="12.3778967"><ele>492.99999999999994</ele><time>2026-04-25T07:05:56.391Z</time></trkpt><trkpt lat="43.8944033" lon="12.3780133"><ele>492.99999999999994</ele><time>2026-04-25T07:05:57.391Z</time></trkpt><trkpt lat="43.8943967" lon="12.3781233"><ele>493.0</ele><time>2026-04-25T07:05:58.391Z</time></trkpt><trkpt lat="43.8944417" lon="12.37825"><ele>493.0</ele><time>2026-04-25T07:05:59.392Z</time></trkpt><trkpt lat="43.8945083" lon="12.3783733"><ele>494.0</ele><time>2026-04-25T07:06:00.392Z</time></trkpt><trkpt lat="43.8946083" lon="12.378505"><ele>495.0</ele><time>2026-04-25T07:06:01.391Z</time></trkpt><trkpt lat="43.89471" lon="12.3786417"><ele>496.0</ele><time>2026-04-25T07:06:02.392Z</time></trkpt><trkpt lat="43.894805" lon="12.37879"><ele>497.0</ele><time>2026-04-25T07:06:03.392Z</time></trkpt><trkpt lat="43.8948933" lon="12.37895"><ele>500.5</ele><time>2026-04-25T07:06:04.391Z</time></trkpt><trkpt lat="43.8949967" lon="12.3791067"><ele>504.0</ele><time>2026-04-25T07:06:05.392Z</time></trkpt><trkpt lat="43.8950817" lon="12.3792483"><ele>507.5</ele><time>2026-04-25T07:06:06.392Z</time></trkpt><trkpt lat="43.8951433" lon="12.3793733"><ele>511.0</ele><time>2026-04-25T07:06:07.392Z</time></trkpt><trkpt lat="43.8951783" lon="12.3794617"><ele>511.0</ele><time>2026-04-25T07:06:08.391Z</time></trkpt><trkpt lat="43.8951833" lon="12.3796183"><ele>511.0</ele><time>2026-04-25T07:06:10.391Z</time></trkpt><trkpt lat="43.8950917" lon="12.3796683"><ele>511.0</ele><time>2026-04-25T07:06:12.392Z</time></trkpt><trkpt lat="43.89503" lon="12.3796217"><ele>511.0</ele><time>2026-04-25T07:06:13.391Z</time></trkpt><trkpt lat="43.8949817" lon="12.379535"><ele>511.0</ele><time>2026-04-25T07:06:14.391Z</time></trkpt><trkpt lat="43.8949267" lon="12.3794117"><ele>511.0</ele><time>2026-04-25T07:06:15.391Z</time></trkpt><trkpt lat="43.8948617" lon="12.379285"><ele>511.0</ele><time>2026-04-25T07:06:16.391Z</time></trkpt><trkpt lat="43.89479" lon="12.379175"><ele>511.0</ele><time>2026-04-25T07:06:17.391Z</time></trkpt><trkpt lat="43.8946967" lon="12.3790983"><ele>511.0</ele><time>2026-04-25T07:06:18.392Z</time></trkpt><trkpt lat="43.8945967" lon="12.3790433"><ele>511.0</ele><time>2026-04-25T07:06:19.391Z</time></trkpt><trkpt lat="43.8945" lon="12.3790283"><ele>511.0</ele><time>2026-04-25T07:06:20.391Z</time></trkpt><trkpt lat="43.8943967" lon="12.3790567"><ele>511.0</ele><time>2026-04-25T07:06:21.392Z</time></trkpt><trkpt lat="43.894295" lon="12.3791367"><ele>511.0</ele><time>2026-04-25T07:06:22.392Z</time></trkpt><trkpt lat="43.894195" lon="12.379225"><ele>511.0</ele><time>2026-04-25T07:06:23.392Z</time></trkpt><trkpt lat="43.8941167" lon="12.3793067"><ele>511.0</ele><time>2026-04-25T07:06:24.391Z</time></trkpt><trkpt lat="43.89406" lon="12.3793683"><ele>511.0</ele><time>2026-04-25T07:06:25.391Z</time></trkpt><trkpt lat="43.8940017" lon="12.379455"><ele>511.0</ele><time>2026-04-25T07:06:27.391Z</time></trkpt><trkpt lat="43.8940717" lon="12.3795417"><ele>511.0</ele><time>2026-04-25T07:06:30.391Z</time></trkpt><trkpt lat="43.894165" lon="12.3795033"><ele>511.0</ele><time>2026-04-25T07:06:32.392Z</time></trkpt><trkpt lat="43.8942533" lon="12.37949"><ele>511.0</ele><time>2026-04-25T07:06:34.392Z</time></trkpt><trkpt lat="43.8943183" lon="12.3795683"><ele>511.8</ele><time>2026-04-25T07:06:36.392Z</time></trkpt><trkpt lat="43.8943083" lon="12.37971"><ele>512.6</ele><time>2026-04-25T07:06:38.391Z</time></trkpt><trkpt lat="43.8942167" lon="12.37984"><ele>513.4</ele><time>2026-04-25T07:06:40.391Z</time></trkpt><trkpt lat="43.8941383" lon="12.3799033"><ele>514.2</ele><time>2026-04-25T07:06:41.391Z</time></trkpt><trkpt lat="43.8940483" lon="12.379975"><ele>515.0</ele><time>2026-04-25T07:06:42.391Z</time></trkpt><trkpt lat="43.8939517" lon="12.3800517"><ele>517.0</ele><time>2026-04-25T07:06:43.392Z</time></trkpt><trkpt lat="43.89385" lon="12.3801483"><ele>519.0</ele><time>2026-04-25T07:06:44.392Z</time></trkpt><trkpt lat="43.8937467" lon="12.3802533"><ele>521.0</ele><time>2026-04-25T07:06:45.391Z</time></trkpt><trkpt lat="43.8936417" lon="12.38036"><ele>523.0</ele><time>2026-04-25T07:06:46.392Z</time></trkpt><trkpt lat="43.8935417" lon="12.3804533"><ele>520.75</ele><time>2026-04-25T07:06:47.392Z</time></trkpt><trkpt lat="43.8934417" lon="12.3805467"><ele>518.5</ele><time>2026-04-25T07:06:48.392Z</time></trkpt><trkpt lat="43.8933467" lon="12.380625"><ele>516.25</ele><time>2026-04-25T07:06:49.392Z</time></trkpt><trkpt lat="43.8932383" lon="12.3807267"><ele>514.0</ele><time>2026-04-25T07:06:50.392Z</time></trkpt><trkpt lat="43.893135" lon="12.3808283"><ele>514.0</ele><time>2026-04-25T07:06:51.392Z</time></trkpt><trkpt lat="43.8930367" lon="12.38093"><ele>514.0</ele><time>2026-04-25T07:06:52.392Z</time></trkpt><trkpt lat="43.89294" lon="12.381035"><ele>514.0</ele><time>2026-04-25T07:06:53.392Z</time></trkpt><trkpt lat="43.8928433" lon="12.381145"><ele>514.0</ele><time>2026-04-25T07:06:54.391Z</time></trkpt><trkpt lat="43.8927533" lon="12.3812433"><ele>514.0</ele><time>2026-04-25T07:06:55.391Z</time></trkpt><trkpt lat="43.89266" lon="12.3813433"><ele>514.0</ele><time>2026-04-25T07:06:56.391Z</time></trkpt><trkpt lat="43.892565" lon="12.381445"><ele>514.0</ele><time>2026-04-25T07:06:57.391Z</time></trkpt><trkpt lat="43.8924683" lon="12.3815483"><ele>514.0</ele><time>2026-04-25T07:06:58.392Z</time></trkpt><trkpt lat="43.8923833" lon="12.3816517"><ele>511.5</ele><time>2026-04-25T07:06:59.391Z</time></trkpt><trkpt lat="43.8922967" lon="12.381755"><ele>509.0</ele><time>2026-04-25T07:07:00.392Z</time></trkpt><trkpt lat="43.8922183" lon="12.3818533"><ele>506.5</ele><time>2026-04-25T07:07:01.392Z</time></trkpt><trkpt lat="43.8921333" lon="12.381965"><ele>504.0</ele><time>2026-04-25T07:07:02.392Z</time></trkpt><trkpt lat="43.8920517" lon="12.3820783"><ele>500.75</ele><time>2026-04-25T07:07:03.391Z</time></trkpt><trkpt lat="43.8919667" lon="12.3821967"><ele>497.5</ele><time>2026-04-25T07:07:04.392Z</time></trkpt><trkpt lat="43.891885" lon="12.3823167"><ele>494.25</ele><time>2026-04-25T07:07:05.392Z</time></trkpt><trkpt lat="43.8918067" lon="12.3824367"><ele>491.0</ele><time>2026-04-25T07:07:06.391Z</time></trkpt><trkpt lat="43.8917317" lon="12.3825517"><ele>490.6</ele><time>2026-04-25T07:07:07.392Z</time></trkpt><trkpt lat="43.8916583" lon="12.382665"><ele>490.20000000000005</ele><time>2026-04-25T07:07:08.391Z</time></trkpt><trkpt lat="43.8915883" lon="12.38277"><ele>489.79999999999995</ele><time>2026-04-25T07:07:09.392Z</time></trkpt><trkpt lat="43.8915117" lon="12.3828733"><ele>489.4</ele><time>2026-04-25T07:07:10.391Z</time></trkpt><trkpt lat="43.8914483" lon="12.3829683"><ele>489.0</ele><time>2026-04-25T07:07:11.392Z</time></trkpt><trkpt lat="43.891385" lon="12.3830683"><ele>487.2</ele><time>2026-04-25T07:07:12.391Z</time></trkpt><trkpt lat="43.89132" lon="12.3831717"><ele>485.4</ele><time>2026-04-25T07:07:13.392Z</time></trkpt><trkpt lat="43.8912533" lon="12.38328"><ele>483.6</ele><time>2026-04-25T07:07:14.391Z</time></trkpt><trkpt lat="43.8911967" lon="12.3833833"><ele>481.8</ele><time>2026-04-25T07:07:15.392Z</time></trkpt><trkpt lat="43.8911367" lon="12.3834867"><ele>480.0</ele><time>2026-04-25T07:07:16.391Z</time></trkpt><trkpt lat="43.8910733" lon="12.3835833"><ele>480.0</ele><time>2026-04-25T07:07:17.391Z</time></trkpt><trkpt lat="43.8910217" lon="12.3836783"><ele>480.0</ele><time>2026-04-25T07:07:18.391Z</time></trkpt><trkpt lat="43.8909783" lon="12.3837633"><ele>480.0</ele><time>2026-04-25T07:07:19.392Z</time></trkpt><trkpt lat="43.890945" lon="12.383845"><ele>480.0</ele><time>2026-04-25T07:07:20.391Z</time></trkpt><trkpt lat="43.8909133" lon="12.38393"><ele>480.0</ele><time>2026-04-25T07:07:21.391Z</time></trkpt><trkpt lat="43.890875" lon="12.384005"><ele>480.0</ele><time>2026-04-25T07:07:22.392Z</time></trkpt><trkpt lat="43.8907683" lon="12.3840883"><ele>479.0</ele><time>2026-04-25T07:07:24.392Z</time></trkpt><trkpt lat="43.8907033" lon="12.384095"><ele>478.0</ele><time>2026-04-25T07:07:25.392Z</time></trkpt><trkpt lat="43.8906377" lon="12.3840747"><ele>477.0</ele><time>2026-04-25T07:07:26.392Z</time></trkpt><trkpt lat="43.8905696" lon="12.3840197"><ele>476.0</ele><time>2026-04-25T07:07:27.392Z</time></trkpt><trkpt lat="43.8905016" lon="12.3839329"><ele>475.0</ele><time>2026-04-25T07:07:28.391Z</time></trkpt><trkpt lat="43.890437" lon="12.3838172"><ele>474.0</ele><time>2026-04-25T07:07:29.392Z</time></trkpt><trkpt lat="43.8903645" lon="12.3836777"><ele>474.0</ele><time>2026-04-25T07:07:30.391Z</time></trkpt><trkpt lat="43.8902848" lon="12.3835275"><ele>474.0</ele><time>2026-04-25T07:07:31.392Z</time></trkpt><trkpt lat="43.8902006" lon="12.3833677"><ele>474.0</ele><time>2026-04-25T07:07:32.392Z</time></trkpt><trkpt lat="43.8901178" lon="12.383215"><ele>474.0</ele><time>2026-04-25T07:07:33.392Z</time></trkpt><trkpt lat="43.8900301" lon="12.3830577"><ele>472.5</ele><time>2026-04-25T07:07:34.391Z</time></trkpt><trkpt lat="43.8899478" lon="12.3829111"><ele>471.0</ele><time>2026-04-25T07:07:35.392Z</time></trkpt><trkpt lat="43.8898743" lon="12.3827775"><ele>469.5</ele><time>2026-04-25T07:07:36.392Z</time></trkpt><trkpt lat="43.8898064" lon="12.3826653"><ele>468.0</ele><time>2026-04-25T07:07:37.392Z</time></trkpt><trkpt lat="43.8897444" lon="12.3825749"><ele>468.0</ele><time>2026-04-25T07:07:38.392Z</time></trkpt><trkpt lat="43.8896658" lon="12.382507"><ele>467.99999999999994</ele><time>2026-04-25T07:07:39.391Z</time></trkpt><trkpt lat="43.8895716" lon="12.3824497"><ele>467.99999999999994</ele><time>2026-04-25T07:07:40.391Z</time></trkpt><trkpt lat="43.8894762" lon="12.382409"><ele>468.0</ele><time>2026-04-25T07:07:41.391Z</time></trkpt><trkpt lat="43.889382" lon="12.3823974"><ele>468.0</ele><time>2026-04-25T07:07:42.391Z</time></trkpt><trkpt lat="43.8892896" lon="12.3824147"><ele>467.75</ele><time>2026-04-25T07:07:43.391Z</time></trkpt><trkpt lat="43.8891955" lon="12.3824623"><ele>467.5</ele><time>2026-04-25T07:07:44.391Z</time></trkpt><trkpt lat="43.8890954" lon="12.3825289"><ele>467.25</ele><time>2026-04-25T07:07:45.391Z</time></trkpt><trkpt lat="43.8889911" lon="12.3826115"><ele>467.0</ele><time>2026-04-25T07:07:46.392Z</time></trkpt><trkpt lat="43.8888905" lon="12.3826984"><ele>467.0</ele><time>2026-04-25T07:07:47.392Z</time></trkpt><trkpt lat="43.8887962" lon="12.382792"><ele>467.00000000000006</ele><time>2026-04-25T07:07:48.392Z</time></trkpt><trkpt lat="43.8887093" lon="12.3829008"><ele>467.00000000000006</ele><time>2026-04-25T07:07:49.392Z</time></trkpt><trkpt lat="43.888634" lon="12.3830126"><ele>467.0</ele><time>2026-04-25T07:07:50.392Z</time></trkpt><trkpt lat="43.8885631" lon="12.383116"><ele>467.0</ele><time>2026-04-25T07:07:51.392Z</time></trkpt><trkpt lat="43.8884966" lon="12.3832085"><ele>464.0</ele><time>2026-04-25T07:07:52.392Z</time></trkpt><trkpt lat="43.888429" lon="12.3832816"><ele>461.00000000000006</ele><time>2026-04-25T07:07:53.392Z</time></trkpt><trkpt lat="43.8883366" lon="12.3833576"><ele>458.00000000000006</ele><time>2026-04-25T07:07:54.392Z</time></trkpt><trkpt lat="43.8882274" lon="12.3834487"><ele>455.0</ele><time>2026-04-25T07:07:55.392Z</time></trkpt><trkpt lat="43.8881185" lon="12.383539"><ele>452.0</ele><time>2026-04-25T07:07:56.392Z</time></trkpt><trkpt lat="43.8880094" lon="12.3836441"><ele>451.5</ele><time>2026-04-25T07:07:57.392Z</time></trkpt><trkpt lat="43.88791" lon="12.3837517"><ele>451.0</ele><time>2026-04-25T07:07:58.392Z</time></trkpt><trkpt lat="43.8877983" lon="12.3838583"><ele>450.5</ele><time>2026-04-25T07:07:59.392Z</time></trkpt><trkpt lat="43.88769" lon="12.3839483"><ele>450.0</ele><time>2026-04-25T07:08:00.392Z</time></trkpt><trkpt lat="43.8875833" lon="12.3840167"><ele>448.6</ele><time>2026-04-25T07:08:01.392Z</time></trkpt><trkpt lat="43.88747" lon="12.3840717"><ele>447.2</ele><time>2026-04-25T07:08:02.392Z</time></trkpt><trkpt lat="43.887355" lon="12.3841333"><ele>445.79999999999995</ele><time>2026-04-25T07:08:03.391Z</time></trkpt><trkpt lat="43.8872667" lon="12.3842233"><ele>444.4</ele><time>2026-04-25T07:08:04.392Z</time></trkpt><trkpt lat="43.8871967" lon="12.3843033"><ele>443.0</ele><time>2026-04-25T07:08:05.392Z</time></trkpt><trkpt lat="43.8871317" lon="12.3843617"><ele>443.0</ele><time>2026-04-25T07:08:06.391Z</time></trkpt><trkpt lat="43.8870367" lon="12.3843933"><ele>442.99999999999994</ele><time>2026-04-25T07:08:08.392Z</time></trkpt><trkpt lat="43.886955" lon="12.3843267"><ele>442.99999999999994</ele><time>2026-04-25T07:08:10.391Z</time></trkpt><trkpt lat="43.8868817" lon="12.3841733"><ele>443.0</ele><time>2026-04-25T07:08:12.391Z</time></trkpt><trkpt lat="43.8868567" lon="12.38407"><ele>443.0</ele><time>2026-04-25T07:08:13.391Z</time></trkpt><trkpt lat="43.8868283" lon="12.3839467"><ele>444.4</ele><time>2026-04-25T07:08:14.392Z</time></trkpt><trkpt lat="43.886805" lon="12.38381"><ele>445.79999999999995</ele><time>2026-04-25T07:08:15.391Z</time></trkpt><trkpt lat="43.8867783" lon="12.383675"><ele>447.2</ele><time>2026-04-25T07:08:16.391Z</time></trkpt><trkpt lat="43.88674" lon="12.3835333"><ele>448.6</ele><time>2026-04-25T07:08:17.392Z</time></trkpt><trkpt lat="43.886695" lon="12.3834033"><ele>450.0</ele><time>2026-04-25T07:08:18.392Z</time></trkpt><trkpt lat="43.886635" lon="12.3832883"><ele>451.4</ele><time>2026-04-25T07:08:19.392Z</time></trkpt><trkpt lat="43.8865717" lon="12.3831833"><ele>452.8</ele><time>2026-04-25T07:08:20.391Z</time></trkpt><trkpt lat="43.8865033" lon="12.3830917"><ele>454.20000000000005</ele><time>2026-04-25T07:08:21.392Z</time></trkpt><trkpt lat="43.8864367" lon="12.383"><ele>455.6</ele><time>2026-04-25T07:08:22.391Z</time></trkpt><trkpt lat="43.8863733" lon="12.3829033"><ele>457.0</ele><time>2026-04-25T07:08:23.391Z</time></trkpt><trkpt lat="43.886315" lon="12.3827983"><ele>458.40000000000003</ele><time>2026-04-25T07:08:24.392Z</time></trkpt><trkpt lat="43.8862633" lon="12.3826967"><ele>459.80000000000007</ele><time>2026-04-25T07:08:25.392Z</time></trkpt><trkpt lat="43.8861733" lon="12.382525"><ele>461.2</ele><time>2026-04-25T07:08:27.89Z</time></trkpt><trkpt lat="43.886075" lon="12.382455"><ele>462.6</ele><time>2026-04-25T07:08:28.89Z</time></trkpt><trkpt lat="43.88601" lon="12.3823917"><ele>464.0</ele><time>2026-04-25T07:08:29.89Z</time></trkpt><trkpt lat="43.8859183" lon="12.38231"><ele>464.2</ele><time>2026-04-25T07:08:31.389Z</time></trkpt><trkpt lat="43.8858133" lon="12.3822483"><ele>464.4</ele><time>2026-04-25T07:08:33.39Z</time></trkpt><trkpt lat="43.8857133" lon="12.3823133"><ele>464.6</ele><time>2026-04-25T07:08:35.389Z</time></trkpt><trkpt lat="43.8856717" lon="12.3823817"><ele>464.8</ele><time>2026-04-25T07:08:36.389Z</time></trkpt><trkpt lat="43.885605" lon="12.3824967"><ele>465.0</ele><time>2026-04-25T07:08:37.389Z</time></trkpt><trkpt lat="43.8855383" lon="12.38262"><ele>465.0</ele><time>2026-04-25T07:08:38.39Z</time></trkpt><trkpt lat="43.8854633" lon="12.3827533"><ele>465.0</ele><time>2026-04-25T07:08:39.389Z</time></trkpt><trkpt lat="43.8853883" lon="12.3828967"><ele>465.0</ele><time>2026-04-25T07:08:40.39Z</time></trkpt><trkpt lat="43.8853067" lon="12.3830433"><ele>465.0</ele><time>2026-04-25T07:08:41.389Z</time></trkpt><trkpt lat="43.8852233" lon="12.3831933"><ele>464.0</ele><time>2026-04-25T07:08:42.39Z</time></trkpt><trkpt lat="43.88514" lon="12.383335"><ele>463.0</ele><time>2026-04-25T07:08:43.39Z</time></trkpt><trkpt lat="43.88505" lon="12.3834817"><ele>462.0</ele><time>2026-04-25T07:08:44.39Z</time></trkpt><trkpt lat="43.8849617" lon="12.3835967"><ele>461.0</ele><time>2026-04-25T07:08:45.39Z</time></trkpt><trkpt lat="43.8848833" lon="12.3837067"><ele>460.99999999999994</ele><time>2026-04-25T07:08:46.39Z</time></trkpt><trkpt lat="43.8848083" lon="12.3838"><ele>461.0</ele><time>2026-04-25T07:08:47.39Z</time></trkpt><trkpt lat="43.88475" lon="12.3838817"><ele>461.0</ele><time>2026-04-25T07:08:48.39Z</time></trkpt><trkpt lat="43.88469" lon="12.38396"><ele>461.0</ele><time>2026-04-25T07:08:49.39Z</time></trkpt><trkpt lat="43.88462" lon="12.3840233"><ele>460.99999999999994</ele><time>2026-04-25T07:08:50.39Z</time></trkpt><trkpt lat="43.884535" lon="12.3840867"><ele>461.0</ele><time>2026-04-25T07:08:51.389Z</time></trkpt><trkpt lat="43.8844483" lon="12.38414"><ele>460.3333333333333</ele><time>2026-04-25T07:08:52.39Z</time></trkpt><trkpt lat="43.8843633" lon="12.3842067"><ele>459.66666666666663</ele><time>2026-04-25T07:08:53.39Z</time></trkpt><trkpt lat="43.88428" lon="12.3842583"><ele>459.0</ele><time>2026-04-25T07:08:54.39Z</time></trkpt><trkpt lat="43.8841933" lon="12.384305"><ele>458.33333333333337</ele><time>2026-04-25T07:08:55.389Z</time></trkpt><trkpt lat="43.88412" lon="12.3843617"><ele>457.6666666666667</ele><time>2026-04-25T07:08:56.389Z</time></trkpt><trkpt lat="43.884045" lon="12.384395"><ele>457.0</ele><time>2026-04-25T07:08:57.389Z</time></trkpt><trkpt lat="43.88397" lon="12.384425"><ele>457.00000000000006</ele><time>2026-04-25T07:08:58.39Z</time></trkpt><trkpt lat="43.883895" lon="12.384475"><ele>457.0</ele><time>2026-04-25T07:08:59.39Z</time></trkpt><trkpt lat="43.8838217" lon="12.3845183"><ele>457.0</ele><time>2026-04-25T07:09:00.389Z</time></trkpt><trkpt lat="43.8837483" lon="12.3845517"><ele>457.0</ele><time>2026-04-25T07:09:01.39Z</time></trkpt><trkpt lat="43.883675" lon="12.3845817"><ele>457.00000000000006</ele><time>2026-04-25T07:09:02.389Z</time></trkpt><trkpt lat="43.8836033" lon="12.3845967"><ele>457.0</ele><time>2026-04-25T07:09:03.39Z</time></trkpt><trkpt lat="43.883535" lon="12.3845833"><ele>457.0</ele><time>2026-04-25T07:09:04.39Z</time></trkpt><trkpt lat="43.8834617" lon="12.384565"><ele>457.00000000000006</ele><time>2026-04-25T07:09:05.389Z</time></trkpt><trkpt lat="43.883385" lon="12.3845267"><ele>457.00000000000006</ele><time>2026-04-25T07:09:06.39Z</time></trkpt><trkpt lat="43.8832933" lon="12.384465"><ele>457.0</ele><time>2026-04-25T07:09:07.39Z</time></trkpt><trkpt lat="43.8831967" lon="12.3844"><ele>457.0</ele><time>2026-04-25T07:09:08.389Z</time></trkpt><trkpt lat="43.8831" lon="12.384345"><ele>455.20000000000005</ele><time>2026-04-25T07:09:09.39Z</time></trkpt><trkpt lat="43.8830033" lon="12.38428"><ele>453.40000000000003</ele><time>2026-04-25T07:09:10.39Z</time></trkpt><trkpt lat="43.8829083" lon="12.384225"><ele>451.59999999999997</ele><time>2026-04-25T07:09:11.389Z</time></trkpt><trkpt lat="43.8828283" lon="12.38417"><ele>449.79999999999995</ele><time>2026-04-25T07:09:12.389Z</time></trkpt><trkpt lat="43.8827567" lon="12.38412"><ele>448.0</ele><time>2026-04-25T07:09:13.389Z</time></trkpt><trkpt lat="43.882695" lon="12.3840733"><ele>448.0</ele><time>2026-04-25T07:09:14.389Z</time></trkpt><trkpt lat="43.882635" lon="12.3840333"><ele>447.99999999999994</ele><time>2026-04-25T07:09:15.39Z</time></trkpt><trkpt lat="43.8825283" lon="12.3840067"><ele>447.99999999999994</ele><time>2026-04-25T07:09:17.389Z</time></trkpt><trkpt lat="43.8824267" lon="12.384105"><ele>448.0</ele><time>2026-04-25T07:09:19.389Z</time></trkpt><trkpt lat="43.8823783" lon="12.384195"><ele>448.0</ele><time>2026-04-25T07:09:20.39Z</time></trkpt><trkpt lat="43.88234" lon="12.384325"><ele>445.4</ele><time>2026-04-25T07:09:21.39Z</time></trkpt><trkpt lat="43.8823117" lon="12.3844583"><ele>442.79999999999995</ele><time>2026-04-25T07:09:22.39Z</time></trkpt><trkpt lat="43.8822883" lon="12.3845867"><ele>440.2</ele><time>2026-04-25T07:09:23.39Z</time></trkpt><trkpt lat="43.8822767" lon="12.3847083"><ele>437.6</ele><time>2026-04-25T07:09:24.39Z</time></trkpt><trkpt lat="43.88228" lon="12.3848367"><ele>435.0</ele><time>2026-04-25T07:09:25.39Z</time></trkpt><trkpt lat="43.8823017" lon="12.3849617"><ele>433.8</ele><time>2026-04-25T07:09:26.389Z</time></trkpt><trkpt lat="43.8823317" lon="12.3850983"><ele>432.6</ele><time>2026-04-25T07:09:27.389Z</time></trkpt><trkpt lat="43.882375" lon="12.385225"><ele>431.4</ele><time>2026-04-25T07:09:28.39Z</time></trkpt><trkpt lat="43.8824133" lon="12.3853567"><ele>430.2</ele><time>2026-04-25T07:09:29.389Z</time></trkpt><trkpt lat="43.882445" lon="12.3854817"><ele>429.0</ele><time>2026-04-25T07:09:30.389Z</time></trkpt><trkpt lat="43.8824867" lon="12.3856083"><ele>428.0</ele><time>2026-04-25T07:09:31.389Z</time></trkpt><trkpt lat="43.8825417" lon="12.3857233"><ele>427.0</ele><time>2026-04-25T07:09:32.39Z</time></trkpt><trkpt lat="43.8826133" lon="12.385825"><ele>426.0</ele><time>2026-04-25T07:09:33.389Z</time></trkpt><trkpt lat="43.8826867" lon="12.38592"><ele>425.0</ele><time>2026-04-25T07:09:34.389Z</time></trkpt><trkpt lat="43.88277" lon="12.3860067"><ele>424.0</ele><time>2026-04-25T07:09:35.389Z</time></trkpt><trkpt lat="43.8828467" lon="12.3860883"><ele>424.0</ele><time>2026-04-25T07:09:36.39Z</time></trkpt><trkpt lat="43.8829233" lon="12.3861867"><ele>424.0</ele><time>2026-04-25T07:09:37.39Z</time></trkpt><trkpt lat="43.8829967" lon="12.3862867"><ele>424.0</ele><time>2026-04-25T07:09:38.39Z</time></trkpt><trkpt lat="43.8830617" lon="12.38639"><ele>424.0</ele><time>2026-04-25T07:09:39.39Z</time></trkpt><trkpt lat="43.88312" lon="12.386485"><ele>424.0</ele><time>2026-04-25T07:09:40.39Z</time></trkpt><trkpt lat="43.8831883" lon="12.3865783"><ele>422.1666666666667</ele><time>2026-04-25T07:09:41.389Z</time></trkpt><trkpt lat="43.8832567" lon="12.38666"><ele>420.33333333333337</ele><time>2026-04-25T07:09:42.39Z</time></trkpt><trkpt lat="43.8833217" lon="12.3867333"><ele>418.5</ele><time>2026-04-25T07:09:43.39Z</time></trkpt><trkpt lat="43.8833833" lon="12.3868017"><ele>416.66666666666663</ele><time>2026-04-25T07:09:44.39Z</time></trkpt><trkpt lat="43.8834533" lon="12.3868667"><ele>414.8333333333333</ele><time>2026-04-25T07:09:45.39Z</time></trkpt><trkpt lat="43.8835217" lon="12.3869283"><ele>413.0</ele><time>2026-04-25T07:09:46.39Z</time></trkpt><trkpt lat="43.88359" lon="12.3869783"><ele>413.0</ele><time>2026-04-25T07:09:47.39Z</time></trkpt><trkpt lat="43.8836567" lon="12.387025"><ele>413.0</ele><time>2026-04-25T07:09:48.39Z</time></trkpt><trkpt lat="43.8837183" lon="12.38707"><ele>413.0</ele><time>2026-04-25T07:09:49.39Z</time></trkpt><trkpt lat="43.8838067" lon="12.3871633"><ele>413.0</ele><time>2026-04-25T07:09:51.39Z</time></trkpt><trkpt lat="43.88383" lon="12.3872933"><ele>413.0</ele><time>2026-04-25T07:09:53.39Z</time></trkpt><trkpt lat="43.883755" lon="12.387435"><ele>410.49999999999994</ele><time>2026-04-25T07:09:55.39Z</time></trkpt><trkpt lat="43.8836783" lon="12.3874817"><ele>408.0</ele><time>2026-04-25T07:09:56.389Z</time></trkpt><trkpt lat="43.8836067" lon="12.38752"><ele>405.5</ele><time>2026-04-25T07:09:57.39Z</time></trkpt><trkpt lat="43.8835417" lon="12.3875683"><ele>403.0</ele><time>2026-04-25T07:09:58.39Z</time></trkpt><trkpt lat="43.883465" lon="12.3877"><ele>400.49999999999994</ele><time>2026-04-25T07:10:00.389Z</time></trkpt><trkpt lat="43.8834533" lon="12.387795"><ele>398.0</ele><time>2026-04-25T07:10:01.39Z</time></trkpt><trkpt lat="43.883465" lon="12.3878933"><ele>397.99999999999994</ele><time>2026-04-25T07:10:02.389Z</time></trkpt><trkpt lat="43.8834967" lon="12.3879933"><ele>398.0</ele><time>2026-04-25T07:10:03.39Z</time></trkpt><trkpt lat="43.883545" lon="12.3880917"><ele>398.0</ele><time>2026-04-25T07:10:04.39Z</time></trkpt><trkpt lat="43.8835833" lon="12.3882017"><ele>398.0</ele><time>2026-04-25T07:10:05.39Z</time></trkpt><trkpt lat="43.8836017" lon="12.3883183"><ele>397.99999999999994</ele><time>2026-04-25T07:10:06.39Z</time></trkpt><trkpt lat="43.8836017" lon="12.388435"><ele>398.0</ele><time>2026-04-25T07:10:07.389Z</time></trkpt><trkpt lat="43.883585" lon="12.388555"><ele>397.3333333333333</ele><time>2026-04-25T07:10:08.39Z</time></trkpt><trkpt lat="43.8835733" lon="12.388665"><ele>396.66666666666663</ele><time>2026-04-25T07:10:09.389Z</time></trkpt><trkpt lat="43.883565" lon="12.3887567"><ele>396.0</ele><time>2026-04-25T07:10:10.39Z</time></trkpt><trkpt lat="43.8836" lon="12.388915"><ele>395.33333333333337</ele><time>2026-04-25T07:10:12.389Z</time></trkpt><trkpt lat="43.8836517" lon="12.3889767"><ele>394.6666666666667</ele><time>2026-04-25T07:10:13.39Z</time></trkpt><trkpt lat="43.8837117" lon="12.38904"><ele>394.0</ele><time>2026-04-25T07:10:14.39Z</time></trkpt><trkpt lat="43.8837667" lon="12.3891217"><ele>396.79999999999995</ele><time>2026-04-25T07:10:15.39Z</time></trkpt><trkpt lat="43.883815" lon="12.389225"><ele>399.59999999999997</ele><time>2026-04-25T07:10:16.39Z</time></trkpt><trkpt lat="43.8838533" lon="12.3893483"><ele>402.4</ele><time>2026-04-25T07:10:17.39Z</time></trkpt><trkpt lat="43.8838917" lon="12.3894767"><ele>405.2</ele><time>2026-04-25T07:10:18.39Z</time></trkpt><trkpt lat="43.8839367" lon="12.38961"><ele>408.0</ele><time>2026-04-25T07:10:19.39Z</time></trkpt><trkpt lat="43.883975" lon="12.389735"><ele>410.79999999999995</ele><time>2026-04-25T07:10:20.389Z</time></trkpt><trkpt lat="43.884005" lon="12.3898583"><ele>413.6</ele><time>2026-04-25T07:10:21.39Z</time></trkpt><trkpt lat="43.8840333" lon="12.3899833"><ele>416.4</ele><time>2026-04-25T07:10:22.389Z</time></trkpt><trkpt lat="43.88406" lon="12.39011"><ele>419.20000000000005</ele><time>2026-04-25T07:10:23.39Z</time></trkpt><trkpt lat="43.88409" lon="12.3902433"><ele>422.0</ele><time>2026-04-25T07:10:24.39Z</time></trkpt><trkpt lat="43.8841133" lon="12.3903733"><ele>422.0</ele><time>2026-04-25T07:10:25.39Z</time></trkpt><trkpt lat="43.88413" lon="12.3905033"><ele>422.0</ele><time>2026-04-25T07:10:26.39Z</time></trkpt><trkpt lat="43.8841517" lon="12.3906167"><ele>422.0</ele><time>2026-04-25T07:10:27.39Z</time></trkpt><trkpt lat="43.8841917" lon="12.390735"><ele>422.0</ele><time>2026-04-25T07:10:28.39Z</time></trkpt><trkpt lat="43.8842367" lon="12.39086"><ele>422.0</ele><time>2026-04-25T07:10:29.389Z</time></trkpt><trkpt lat="43.884285" lon="12.390995"><ele>422.0</ele><time>2026-04-25T07:10:30.39Z</time></trkpt><trkpt lat="43.8843133" lon="12.39115"><ele>422.0</ele><time>2026-04-25T07:10:31.39Z</time></trkpt><trkpt lat="43.88434" lon="12.3913183"><ele>422.0</ele><time>2026-04-25T07:10:32.389Z</time></trkpt><trkpt lat="43.88436" lon="12.39148"><ele>422.0</ele><time>2026-04-25T07:10:33.39Z</time></trkpt><trkpt lat="43.8843733" lon="12.3916483"><ele>422.0</ele><time>2026-04-25T07:10:34.389Z</time></trkpt><trkpt lat="43.8843783" lon="12.3918133"><ele>422.0</ele><time>2026-04-25T07:10:35.389Z</time></trkpt><trkpt lat="43.8843783" lon="12.3919733"><ele>422.0</ele><time>2026-04-25T07:10:36.39Z</time></trkpt><trkpt lat="43.8843733" lon="12.3921017"><ele>422.0</ele><time>2026-04-25T07:10:37.389Z</time></trkpt><trkpt lat="43.8843817" lon="12.392235"><ele>422.0</ele><time>2026-04-25T07:10:38.389Z</time></trkpt><trkpt lat="43.884395" lon="12.3923833"><ele>422.6</ele><time>2026-04-25T07:10:39.39Z</time></trkpt><trkpt lat="43.8844083" lon="12.3925267"><ele>423.20000000000005</ele><time>2026-04-25T07:10:40.39Z</time></trkpt><trkpt lat="43.8844233" lon="12.3926667"><ele>423.8</ele><time>2026-04-25T07:10:41.39Z</time></trkpt><trkpt lat="43.8844312" lon="12.3927923"><ele>424.4</ele><time>2026-04-25T07:10:42.389Z</time></trkpt><trkpt lat="43.8844311" lon="12.3929262"><ele>425.0</ele><time>2026-04-25T07:10:43.39Z</time></trkpt><trkpt lat="43.8844202" lon="12.3930682"><ele>427.2</ele><time>2026-04-25T07:10:44.389Z</time></trkpt><trkpt lat="43.8844025" lon="12.3932117"><ele>429.4</ele><time>2026-04-25T07:10:45.39Z</time></trkpt><trkpt lat="43.8843761" lon="12.3933403"><ele>431.6</ele><time>2026-04-25T07:10:46.389Z</time></trkpt><trkpt lat="43.8843516" lon="12.3934569"><ele>433.8</ele><time>2026-04-25T07:10:47.39Z</time></trkpt><trkpt lat="43.8843194" lon="12.3935609"><ele>436.0</ele><time>2026-04-25T07:10:48.39Z</time></trkpt><trkpt lat="43.8842695" lon="12.3936943"><ele>437.0</ele><time>2026-04-25T07:10:50.39Z</time></trkpt><trkpt lat="43.8841722" lon="12.3937661"><ele>438.0</ele><time>2026-04-25T07:10:52.389Z</time></trkpt><trkpt lat="43.8840956" lon="12.3937981"><ele>439.0</ele><time>2026-04-25T07:10:53.39Z</time></trkpt><trkpt lat="43.8840127" lon="12.3938411"><ele>440.0</ele><time>2026-04-25T07:10:54.389Z</time></trkpt><trkpt lat="43.8839139" lon="12.3938913"><ele>441.0</ele><time>2026-04-25T07:10:55.39Z</time></trkpt><trkpt lat="43.8838178" lon="12.3939283"><ele>441.0</ele><time>2026-04-25T07:10:56.39Z</time></trkpt><trkpt lat="43.8837247" lon="12.3939556"><ele>441.0</ele><time>2026-04-25T07:10:57.389Z</time></trkpt><trkpt lat="43.8836255" lon="12.3939817"><ele>441.0</ele><time>2026-04-25T07:10:58.39Z</time></trkpt><trkpt lat="43.8835341" lon="12.3940031"><ele>441.0</ele><time>2026-04-25T07:10:59.39Z</time></trkpt><trkpt lat="43.8834488" lon="12.3940314"><ele>441.0</ele><time>2026-04-25T07:11:00.389Z</time></trkpt><trkpt lat="43.8833571" lon="12.3940769"><ele>441.4</ele><time>2026-04-25T07:11:01.39Z</time></trkpt><trkpt lat="43.8832589" lon="12.3941311"><ele>441.8</ele><time>2026-04-25T07:11:02.389Z</time></trkpt><trkpt lat="43.8831718" lon="12.3941959"><ele>442.19999999999993</ele><time>2026-04-25T07:11:03.389Z</time></trkpt><trkpt lat="43.8830951" lon="12.3942585"><ele>442.59999999999997</ele><time>2026-04-25T07:11:04.389Z</time></trkpt><trkpt lat="43.8830314" lon="12.3943093"><ele>443.0</ele><time>2026-04-25T07:11:05.39Z</time></trkpt><trkpt lat="43.882961" lon="12.3943865"><ele>442.99999999999994</ele><time>2026-04-25T07:11:07.39Z</time></trkpt><trkpt lat="43.8829464" lon="12.3944831"><ele>443.0</ele><time>2026-04-25T07:11:09.39Z</time></trkpt><trkpt lat="43.883014" lon="12.3945886"><ele>443.0</ele><time>2026-04-25T07:11:11.389Z</time></trkpt><trkpt lat="43.8830774" lon="12.39466"><ele>443.0</ele><time>2026-04-25T07:11:12.389Z</time></trkpt><trkpt lat="43.883153" lon="12.394737"><ele>442.99999999999994</ele><time>2026-04-25T07:11:13.39Z</time></trkpt><trkpt lat="43.8832302" lon="12.3948077"><ele>443.0</ele><time>2026-04-25T07:11:14.39Z</time></trkpt><trkpt lat="43.8833033" lon="12.3948733"><ele>441.4</ele><time>2026-04-25T07:11:15.39Z</time></trkpt><trkpt lat="43.8833683" lon="12.3949517"><ele>439.79999999999995</ele><time>2026-04-25T07:11:16.389Z</time></trkpt><trkpt lat="43.883435" lon="12.3950367"><ele>438.2</ele><time>2026-04-25T07:11:17.39Z</time></trkpt><trkpt lat="43.8835117" lon="12.39513"><ele>436.6</ele><time>2026-04-25T07:11:18.39Z</time></trkpt><trkpt lat="43.8835883" lon="12.39522"><ele>435.0</ele><time>2026-04-25T07:11:19.389Z</time></trkpt><trkpt lat="43.88366" lon="12.3953133"><ele>434.2</ele><time>2026-04-25T07:11:20.389Z</time></trkpt><trkpt lat="43.8837283" lon="12.3954"><ele>433.4</ele><time>2026-04-25T07:11:21.39Z</time></trkpt><trkpt lat="43.883805" lon="12.3954883"><ele>432.6</ele><time>2026-04-25T07:11:22.39Z</time></trkpt><trkpt lat="43.88388" lon="12.3955817"><ele>431.8</ele><time>2026-04-25T07:11:23.389Z</time></trkpt><trkpt lat="43.8839533" lon="12.3956817"><ele>431.0</ele><time>2026-04-25T07:11:24.389Z</time></trkpt><trkpt lat="43.8840283" lon="12.3957817"><ele>428.6</ele><time>2026-04-25T07:11:25.39Z</time></trkpt><trkpt lat="43.884105" lon="12.39587"><ele>426.20000000000005</ele><time>2026-04-25T07:11:26.39Z</time></trkpt><trkpt lat="43.88418" lon="12.3959617"><ele>423.79999999999995</ele><time>2026-04-25T07:11:27.39Z</time></trkpt><trkpt lat="43.88426" lon="12.39606"><ele>421.4</ele><time>2026-04-25T07:11:28.39Z</time></trkpt><trkpt lat="43.8843417" lon="12.3961617"><ele>419.0</ele><time>2026-04-25T07:11:29.389Z</time></trkpt><trkpt lat="43.8844217" lon="12.3962617"><ele>417.6</ele><time>2026-04-25T07:11:30.389Z</time></trkpt><trkpt lat="43.8845033" lon="12.3963483"><ele>416.2</ele><time>2026-04-25T07:11:31.389Z</time></trkpt><trkpt lat="43.884575" lon="12.3964333"><ele>414.8</ele><time>2026-04-25T07:11:32.389Z</time></trkpt><trkpt lat="43.88466" lon="12.39651"><ele>413.40000000000003</ele><time>2026-04-25T07:11:33.39Z</time></trkpt><trkpt lat="43.8847717" lon="12.39657"><ele>412.0</ele><time>2026-04-25T07:11:34.389Z</time></trkpt><trkpt lat="43.8848833" lon="12.3966"><ele>412.0</ele><time>2026-04-25T07:11:35.39Z</time></trkpt><trkpt lat="43.8849967" lon="12.3966167"><ele>412.0</ele><time>2026-04-25T07:11:36.39Z</time></trkpt><trkpt lat="43.885105" lon="12.3966417"><ele>412.0</ele><time>2026-04-25T07:11:37.39Z</time></trkpt><trkpt lat="43.885215" lon="12.3966767"><ele>412.0</ele><time>2026-04-25T07:11:38.39Z</time></trkpt><trkpt lat="43.8853117" lon="12.3967233"><ele>412.0</ele><time>2026-04-25T07:11:39.389Z</time></trkpt><trkpt lat="43.8853967" lon="12.3967933"><ele>411.83333333333337</ele><time>2026-04-25T07:11:40.39Z</time></trkpt><trkpt lat="43.885475" lon="12.3968567"><ele>411.6666666666667</ele><time>2026-04-25T07:11:41.39Z</time></trkpt><trkpt lat="43.88554" lon="12.3968983"><ele>411.5</ele><time>2026-04-25T07:11:42.39Z</time></trkpt><trkpt lat="43.88561" lon="12.3969233"><ele>411.33333333333337</ele><time>2026-04-25T07:11:43.39Z</time></trkpt><trkpt lat="43.8856883" lon="12.3969433"><ele>411.1666666666667</ele><time>2026-04-25T07:11:44.39Z</time></trkpt><trkpt lat="43.8857917" lon="12.39696"><ele>411.0</ele><time>2026-04-25T07:11:45.389Z</time></trkpt><trkpt lat="43.8859033" lon="12.3969767"><ele>409.0</ele><time>2026-04-25T07:11:46.39Z</time></trkpt><trkpt lat="43.8860267" lon="12.3969833"><ele>407.0</ele><time>2026-04-25T07:11:47.39Z</time></trkpt><trkpt lat="43.886145" lon="12.3969933"><ele>405.0</ele><time>2026-04-25T07:11:48.389Z</time></trkpt><trkpt lat="43.88627" lon="12.3970167"><ele>403.0</ele><time>2026-04-25T07:11:49.389Z</time></trkpt><trkpt lat="43.8863833" lon="12.3970433"><ele>403.0</ele><time>2026-04-25T07:11:50.39Z</time></trkpt><trkpt lat="43.8864933" lon="12.3970633"><ele>403.0</ele><time>2026-04-25T07:11:51.39Z</time></trkpt><trkpt lat="43.8865983" lon="12.3970833"><ele>403.0</ele><time>2026-04-25T07:11:52.39Z</time></trkpt><trkpt lat="43.886695" lon="12.3971067"><ele>403.0</ele><time>2026-04-25T07:11:53.389Z</time></trkpt><trkpt lat="43.886795" lon="12.39713"><ele>403.0</ele><time>2026-04-25T07:11:54.389Z</time></trkpt><trkpt lat="43.8868933" lon="12.39716"><ele>400.6666666666667</ele><time>2026-04-25T07:11:55.39Z</time></trkpt><trkpt lat="43.88699" lon="12.39719"><ele>398.33333333333337</ele><time>2026-04-25T07:11:56.39Z</time></trkpt><trkpt lat="43.8870833" lon="12.3972133"><ele>396.0</ele><time>2026-04-25T07:11:57.39Z</time></trkpt><trkpt lat="43.887175" lon="12.39724"><ele>393.66666666666663</ele><time>2026-04-25T07:11:58.389Z</time></trkpt><trkpt lat="43.8872517" lon="12.3972583"><ele>391.3333333333333</ele><time>2026-04-25T07:11:59.39Z</time></trkpt><trkpt lat="43.8873267" lon="12.3972683"><ele>389.0</ele><time>2026-04-25T07:12:00.39Z</time></trkpt><trkpt lat="43.8873917" lon="12.3972817"><ele>389.0</ele><time>2026-04-25T07:12:01.389Z</time></trkpt><trkpt lat="43.8874833" lon="12.3973567"><ele>389.0</ele><time>2026-04-25T07:12:03.389Z</time></trkpt><trkpt lat="43.887515" lon="12.397505"><ele>389.0</ele><time>2026-04-25T07:12:05.39Z</time></trkpt><trkpt lat="43.8874933" lon="12.3976067"><ele>389.0</ele><time>2026-04-25T07:12:06.39Z</time></trkpt><trkpt lat="43.8874633" lon="12.3977083"><ele>389.0</ele><time>2026-04-25T07:12:07.389Z</time></trkpt><trkpt lat="43.8874467" lon="12.3978183"><ele>388.99999999999994</ele><time>2026-04-25T07:12:08.39Z</time></trkpt><trkpt lat="43.8874383" lon="12.397925"><ele>389.0</ele><time>2026-04-25T07:12:09.39Z</time></trkpt><trkpt lat="43.8874333" lon="12.39803"><ele>389.0</ele><time>2026-04-25T07:12:10.39Z</time></trkpt><trkpt lat="43.8874467" lon="12.3981383"><ele>389.0</ele><time>2026-04-25T07:12:11.389Z</time></trkpt><trkpt lat="43.8874733" lon="12.3982517"><ele>388.99999999999994</ele><time>2026-04-25T07:12:12.389Z</time></trkpt><trkpt lat="43.887505" lon="12.39836"><ele>389.0</ele><time>2026-04-25T07:12:13.39Z</time></trkpt><trkpt lat="43.8875217" lon="12.3984783"><ele>387.2857142857143</ele><time>2026-04-25T07:12:14.39Z</time></trkpt><trkpt lat="43.8875383" lon="12.3985833"><ele>385.57142857142856</ele><time>2026-04-25T07:12:15.389Z</time></trkpt><trkpt lat="43.887555" lon="12.398685"><ele>383.85714285714283</ele><time>2026-04-25T07:12:16.39Z</time></trkpt><trkpt lat="43.8875683" lon="12.3987833"><ele>382.1428571428571</ele><time>2026-04-25T07:12:17.389Z</time></trkpt><trkpt lat="43.887565" lon="12.3988767"><ele>380.42857142857144</ele><time>2026-04-25T07:12:18.39Z</time></trkpt><trkpt lat="43.8875383" lon="12.39897"><ele>378.71428571428567</ele><time>2026-04-25T07:12:19.389Z</time></trkpt><trkpt lat="43.887495" lon="12.399045"><ele>377.0</ele><time>2026-04-25T07:12:20.389Z</time></trkpt><trkpt lat="43.8874383" lon="12.3991083"><ele>374.20000000000005</ele><time>2026-04-25T07:12:21.389Z</time></trkpt><trkpt lat="43.8873633" lon="12.39916"><ele>371.4</ele><time>2026-04-25T07:12:22.39Z</time></trkpt><trkpt lat="43.887255" lon="12.3992017"><ele>368.6</ele><time>2026-04-25T07:12:23.39Z</time></trkpt><trkpt lat="43.8871433" lon="12.39923"><ele>365.79999999999995</ele><time>2026-04-25T07:12:24.389Z</time></trkpt><trkpt lat="43.8870483" lon="12.3992583"><ele>363.0</ele><time>2026-04-25T07:12:25.39Z</time></trkpt><trkpt lat="43.8869633" lon="12.3992933"><ele>363.0</ele><time>2026-04-25T07:12:26.389Z</time></trkpt><trkpt lat="43.8868933" lon="12.3993367"><ele>363.0</ele><time>2026-04-25T07:12:27.39Z</time></trkpt><trkpt lat="43.8868333" lon="12.3993767"><ele>363.0</ele><time>2026-04-25T07:12:28.389Z</time></trkpt><trkpt lat="43.8867833" lon="12.3994317"><ele>363.0</ele><time>2026-04-25T07:12:29.389Z</time></trkpt><trkpt lat="43.8867517" lon="12.39951"><ele>363.0</ele><time>2026-04-25T07:12:30.389Z</time></trkpt><trkpt lat="43.886745" lon="12.3996717"><ele>363.0</ele><time>2026-04-25T07:12:32.39Z</time></trkpt><trkpt lat="43.886795" lon="12.3997533"><ele>359.59999999999997</ele><time>2026-04-25T07:12:33.389Z</time></trkpt><trkpt lat="43.8868683" lon="12.3998183"><ele>356.2</ele><time>2026-04-25T07:12:34.389Z</time></trkpt><trkpt lat="43.8869383" lon="12.3998617"><ele>352.8</ele><time>2026-04-25T07:12:35.39Z</time></trkpt><trkpt lat="43.887" lon="12.39989"><ele>349.4</ele><time>2026-04-25T07:12:36.39Z</time></trkpt><trkpt lat="43.8870883" lon="12.3999917"><ele>346.0</ele><time>2026-04-25T07:12:38.39Z</time></trkpt><trkpt lat="43.8870883" lon="12.400155"><ele>346.0</ele><time>2026-04-25T07:12:40.39Z</time></trkpt><trkpt lat="43.8870317" lon="12.400215"><ele>346.0</ele><time>2026-04-25T07:12:41.39Z</time></trkpt><trkpt lat="43.8869583" lon="12.4002583"><ele>346.0</ele><time>2026-04-25T07:12:42.39Z</time></trkpt><trkpt lat="43.8868733" lon="12.4002833"><ele>346.0</ele><time>2026-04-25T07:12:43.389Z</time></trkpt><trkpt lat="43.886785" lon="12.40028"><ele>346.0</ele><time>2026-04-25T07:12:44.389Z</time></trkpt><trkpt lat="43.8867067" lon="12.400265"><ele>346.0</ele><time>2026-04-25T07:12:45.389Z</time></trkpt><trkpt lat="43.8866417" lon="12.4002567"><ele>344.25</ele><time>2026-04-25T07:12:46.389Z</time></trkpt><trkpt lat="43.886535" lon="12.4003317"><ele>342.5</ele><time>2026-04-25T07:12:48.39Z</time></trkpt><trkpt lat="43.8864983" lon="12.4004833"><ele>340.75</ele><time>2026-04-25T07:12:50.39Z</time></trkpt><trkpt lat="43.88655" lon="12.4006333"><ele>339.0</ele><time>2026-04-25T07:12:52.389Z</time></trkpt><trkpt lat="43.8866667" lon="12.4007067"><ele>339.0</ele><time>2026-04-25T07:12:54.39Z</time></trkpt><trkpt lat="43.886745" lon="12.4007017"><ele>339.0</ele><time>2026-04-25T07:12:55.389Z</time></trkpt><trkpt lat="43.8868217" lon="12.4006867"><ele>339.0</ele><time>2026-04-25T07:12:56.39Z</time></trkpt><trkpt lat="43.886885" lon="12.4006817"><ele>339.0</ele><time>2026-04-25T07:12:57.39Z</time></trkpt><trkpt lat="43.8869517" lon="12.40069"><ele>339.0</ele><time>2026-04-25T07:12:58.39Z</time></trkpt><trkpt lat="43.8870183" lon="12.40073"><ele>339.0</ele><time>2026-04-25T07:12:59.39Z</time></trkpt><trkpt lat="43.887085" lon="12.4008133"><ele>339.0</ele><time>2026-04-25T07:13:00.39Z</time></trkpt><trkpt lat="43.8871533" lon="12.4009267"><ele>337.75</ele><time>2026-04-25T07:13:01.389Z</time></trkpt><trkpt lat="43.887205" lon="12.4010783"><ele>336.5</ele><time>2026-04-25T07:13:02.39Z</time></trkpt><trkpt lat="43.8872533" lon="12.4012617"><ele>335.25</ele><time>2026-04-25T07:13:03.39Z</time></trkpt><trkpt lat="43.8873033" lon="12.401435"><ele>334.0</ele><time>2026-04-25T07:13:04.39Z</time></trkpt><trkpt lat="43.88735" lon="12.4016017"><ele>334.0</ele><time>2026-04-25T07:13:05.39Z</time></trkpt><trkpt lat="43.8873917" lon="12.40175"><ele>334.0</ele><time>2026-04-25T07:13:06.39Z</time></trkpt><trkpt lat="43.887445" lon="12.401905"><ele>334.0</ele><time>2026-04-25T07:13:07.389Z</time></trkpt><trkpt lat="43.887495" lon="12.4020567"><ele>334.0</ele><time>2026-04-25T07:13:08.389Z</time></trkpt><trkpt lat="43.887525" lon="12.4021833"><ele>335.79999999999995</ele><time>2026-04-25T07:13:09.39Z</time></trkpt><trkpt lat="43.8875467" lon="12.4023267"><ele>337.59999999999997</ele><time>2026-04-25T07:13:10.39Z</time></trkpt><trkpt lat="43.88754" lon="12.4024683"><ele>339.4</ele><time>2026-04-25T07:13:11.389Z</time></trkpt><trkpt lat="43.88752" lon="12.402605"><ele>341.2</ele><time>2026-04-25T07:13:12.39Z</time></trkpt><trkpt lat="43.8874817" lon="12.40274"><ele>343.0</ele><time>2026-04-25T07:13:13.389Z</time></trkpt><trkpt lat="43.8874317" lon="12.4028783"><ele>345.2</ele><time>2026-04-25T07:13:14.39Z</time></trkpt><trkpt lat="43.8873783" lon="12.4030183"><ele>347.4</ele><time>2026-04-25T07:13:15.39Z</time></trkpt><trkpt lat="43.8873333" lon="12.4031417"><ele>349.59999999999997</ele><time>2026-04-25T07:13:16.389Z</time></trkpt><trkpt lat="43.8872883" lon="12.403265"><ele>351.79999999999995</ele><time>2026-04-25T07:13:17.39Z</time></trkpt><trkpt lat="43.88726" lon="12.4034067"><ele>354.0</ele><time>2026-04-25T07:13:18.389Z</time></trkpt><trkpt lat="43.8872233" lon="12.4035517"><ele>354.0</ele><time>2026-04-25T07:13:19.389Z</time></trkpt><trkpt lat="43.887175" lon="12.4036783"><ele>354.0</ele><time>2026-04-25T07:13:20.39Z</time></trkpt><trkpt lat="43.8871483" lon="12.40378"><ele>354.0</ele><time>2026-04-25T07:13:21.39Z</time></trkpt><trkpt lat="43.8871367" lon="12.4038883"><ele>354.0</ele><time>2026-04-25T07:13:22.389Z</time></trkpt><trkpt lat="43.8871467" lon="12.4039983"><ele>354.0</ele><time>2026-04-25T07:13:23.39Z</time></trkpt><trkpt lat="43.887175" lon="12.4040867"><ele>354.0</ele><time>2026-04-25T07:13:24.389Z</time></trkpt><trkpt lat="43.8872517" lon="12.4041317"><ele>356.0</ele><time>2026-04-25T07:13:25.39Z</time></trkpt><trkpt lat="43.8873517" lon="12.4041567"><ele>358.0</ele><time>2026-04-25T07:13:26.389Z</time></trkpt><trkpt lat="43.8874483" lon="12.40418"><ele>360.0</ele><time>2026-04-25T07:13:27.39Z</time></trkpt><trkpt lat="43.8875383" lon="12.4042133"><ele>362.0</ele><time>2026-04-25T07:13:28.39Z</time></trkpt><trkpt lat="43.8876317" lon="12.4042433"><ele>364.0</ele><time>2026-04-25T07:13:29.389Z</time></trkpt><trkpt lat="43.8877217" lon="12.40427"><ele>364.0</ele><time>2026-04-25T07:13:30.39Z</time></trkpt><trkpt lat="43.8878067" lon="12.4042967"><ele>364.0</ele><time>2026-04-25T07:13:31.389Z</time></trkpt><trkpt lat="43.8878933" lon="12.4043383"><ele>364.0</ele><time>2026-04-25T07:13:32.39Z</time></trkpt><trkpt lat="43.8879883" lon="12.4044083"><ele>364.0</ele><time>2026-04-25T07:13:33.39Z</time></trkpt><trkpt lat="43.888095" lon="12.4044867"><ele>364.0</ele><time>2026-04-25T07:13:34.389Z</time></trkpt><trkpt lat="43.8882017" lon="12.4045533"><ele>364.0</ele><time>2026-04-25T07:13:35.39Z</time></trkpt><trkpt lat="43.8883267" lon="12.404605"><ele>364.0</ele><time>2026-04-25T07:13:36.39Z</time></trkpt><trkpt lat="43.8884583" lon="12.404645"><ele>364.0</ele><time>2026-04-25T07:13:37.39Z</time></trkpt><trkpt lat="43.8885883" lon="12.404675"><ele>364.0</ele><time>2026-04-25T07:13:38.389Z</time></trkpt><trkpt lat="43.8887067" lon="12.404705"><ele>366.3333333333333</ele><time>2026-04-25T07:13:39.39Z</time></trkpt><trkpt lat="43.8888033" lon="12.40473"><ele>368.66666666666663</ele><time>2026-04-25T07:13:40.39Z</time></trkpt><trkpt lat="43.88889" lon="12.4047517"><ele>371.0</ele><time>2026-04-25T07:13:41.39Z</time></trkpt><trkpt lat="43.88898" lon="12.404755"><ele>373.3333333333333</ele><time>2026-04-25T07:13:42.389Z</time></trkpt><trkpt lat="43.8890667" lon="12.4047533"><ele>375.6666666666667</ele><time>2026-04-25T07:13:43.389Z</time></trkpt><trkpt lat="43.8891333" lon="12.4047383"><ele>378.0</ele><time>2026-04-25T07:13:44.39Z</time></trkpt><trkpt lat="43.8892033" lon="12.4047433"><ele>378.2</ele><time>2026-04-25T07:13:45.389Z</time></trkpt><trkpt lat="43.8892867" lon="12.4047333"><ele>378.4</ele><time>2026-04-25T07:13:46.389Z</time></trkpt><trkpt lat="43.8893817" lon="12.404705"><ele>378.59999999999997</ele><time>2026-04-25T07:13:47.389Z</time></trkpt><trkpt lat="43.889475" lon="12.40466"><ele>378.79999999999995</ele><time>2026-04-25T07:13:48.39Z</time></trkpt><trkpt lat="43.8895767" lon="12.4046083"><ele>379.0</ele><time>2026-04-25T07:13:49.39Z</time></trkpt><trkpt lat="43.889675" lon="12.404565"><ele>379.0</ele><time>2026-04-25T07:13:50.39Z</time></trkpt><trkpt lat="43.8897683" lon="12.4045533"><ele>379.0</ele><time>2026-04-25T07:13:51.389Z</time></trkpt><trkpt lat="43.88985" lon="12.4045617"><ele>379.0</ele><time>2026-04-25T07:13:52.39Z</time></trkpt><trkpt lat="43.8899133" lon="12.4046"><ele>379.0</ele><time>2026-04-25T07:13:53.389Z</time></trkpt><trkpt lat="43.8899617" lon="12.4046717"><ele>379.0</ele><time>2026-04-25T07:13:54.39Z</time></trkpt><trkpt lat="43.8899917" lon="12.4047617"><ele>379.0</ele><time>2026-04-25T07:13:55.39Z</time></trkpt><trkpt lat="43.8899767" lon="12.404895"><ele>379.0</ele><time>2026-04-25T07:13:56.389Z</time></trkpt><trkpt lat="43.8899433" lon="12.40506"><ele>379.0</ele><time>2026-04-25T07:13:57.39Z</time></trkpt><trkpt lat="43.8899183" lon="12.40522"><ele>379.0</ele><time>2026-04-25T07:13:58.389Z</time></trkpt><trkpt lat="43.8899" lon="12.4053767"><ele>379.0</ele><time>2026-04-25T07:13:59.39Z</time></trkpt><trkpt lat="43.8898733" lon="12.40552"><ele>380.66666666666663</ele><time>2026-04-25T07:14:00.389Z</time></trkpt><trkpt lat="43.889855" lon="12.405645"><ele>382.3333333333333</ele><time>2026-04-25T07:14:01.39Z</time></trkpt><trkpt lat="43.8898517" lon="12.4057567"><ele>384.0</ele><time>2026-04-25T07:14:02.39Z</time></trkpt><trkpt lat="43.8898667" lon="12.4058483"><ele>385.66666666666663</ele><time>2026-04-25T07:14:03.389Z</time></trkpt><trkpt lat="43.8899183" lon="12.405905"><ele>387.3333333333333</ele><time>2026-04-25T07:14:04.39Z</time></trkpt><trkpt lat="43.8899817" lon="12.40593"><ele>389.0</ele><time>2026-04-25T07:14:05.39Z</time></trkpt><trkpt lat="43.8900717" lon="12.405925"><ele>392.5</ele><time>2026-04-25T07:14:06.39Z</time></trkpt><trkpt lat="43.8901733" lon="12.4058367"><ele>396.0</ele><time>2026-04-25T07:14:07.39Z</time></trkpt><trkpt lat="43.89026" lon="12.40572"><ele>399.5</ele><time>2026-04-25T07:14:08.39Z</time></trkpt><trkpt lat="43.8903483" lon="12.4056133"><ele>403.0</ele><time>2026-04-25T07:14:09.39Z</time></trkpt><trkpt lat="43.890445" lon="12.405525"><ele>403.0</ele><time>2026-04-25T07:14:10.39Z</time></trkpt><trkpt lat="43.8905367" lon="12.405485"><ele>403.0</ele><time>2026-04-25T07:14:11.389Z</time></trkpt><trkpt lat="43.8906183" lon="12.405475"><ele>403.0</ele><time>2026-04-25T07:14:12.389Z</time></trkpt><trkpt lat="43.8907083" lon="12.4055317"><ele>403.0</ele><time>2026-04-25T07:14:14.39Z</time></trkpt><trkpt lat="43.890675" lon="12.4057017"><ele>403.0</ele><time>2026-04-25T07:14:16.39Z</time></trkpt><trkpt lat="43.8906333" lon="12.405835"><ele>403.0</ele><time>2026-04-25T07:14:17.389Z</time></trkpt><trkpt lat="43.8906033" lon="12.4059617"><ele>403.0</ele><time>2026-04-25T07:14:18.39Z</time></trkpt><trkpt lat="43.89059" lon="12.4060617"><ele>403.0</ele><time>2026-04-25T07:14:19.389Z</time></trkpt><trkpt lat="43.8906317" lon="12.4061883"><ele>403.0</ele><time>2026-04-25T07:14:21.39Z</time></trkpt><trkpt lat="43.890775" lon="12.4061917"><ele>403.0</ele><time>2026-04-25T07:14:23.39Z</time></trkpt><trkpt lat="43.89089" lon="12.4061617"><ele>403.6666666666667</ele><time>2026-04-25T07:14:24.39Z</time></trkpt><trkpt lat="43.8909867" lon="12.406155"><ele>404.33333333333337</ele><time>2026-04-25T07:14:25.389Z</time></trkpt><trkpt lat="43.8910433" lon="12.4062267"><ele>405.0</ele><time>2026-04-25T07:14:26.39Z</time></trkpt><trkpt lat="43.8911017" lon="12.40628"><ele>405.66666666666663</ele><time>2026-04-25T07:14:27.39Z</time></trkpt><trkpt lat="43.8911183" lon="12.406375"><ele>406.3333333333333</ele><time>2026-04-25T07:14:28.39Z</time></trkpt><trkpt lat="43.89109" lon="12.4065"><ele>407.0</ele><time>2026-04-25T07:14:29.39Z</time></trkpt><trkpt lat="43.89104" lon="12.4066067"><ele>410.0</ele><time>2026-04-25T07:14:30.39Z</time></trkpt><trkpt lat="43.8909833" lon="12.4067267"><ele>413.0</ele><time>2026-04-25T07:14:31.389Z</time></trkpt><trkpt lat="43.8909233" lon="12.406885"><ele>416.0</ele><time>2026-04-25T07:14:32.39Z</time></trkpt><trkpt lat="43.890855" lon="12.4070483"><ele>419.0</ele><time>2026-04-25T07:14:33.389Z</time></trkpt><trkpt lat="43.8908067" lon="12.4072117"><ele>424.25</ele><time>2026-04-25T07:14:34.39Z</time></trkpt><trkpt lat="43.8907667" lon="12.4073683"><ele>429.5</ele><time>2026-04-25T07:14:35.39Z</time></trkpt><trkpt lat="43.8907367" lon="12.40753"><ele>434.75</ele><time>2026-04-25T07:14:36.39Z</time></trkpt><trkpt lat="43.89071" lon="12.4076833"><ele>440.0</ele><time>2026-04-25T07:14:37.39Z</time></trkpt><trkpt lat="43.89069" lon="12.407825"><ele>439.99999999999994</ele><time>2026-04-25T07:14:38.39Z</time></trkpt><trkpt lat="43.89068" lon="12.4079417"><ele>440.0</ele><time>2026-04-25T07:14:39.39Z</time></trkpt><trkpt lat="43.8906783" lon="12.4080467"><ele>440.0</ele><time>2026-04-25T07:14:40.389Z</time></trkpt><trkpt lat="43.89069" lon="12.408155"><ele>440.0</ele><time>2026-04-25T07:14:41.389Z</time></trkpt><trkpt lat="43.890735" lon="12.4082467"><ele>439.99999999999994</ele><time>2026-04-25T07:14:42.39Z</time></trkpt><trkpt lat="43.890835" lon="12.4082517"><ele>440.0</ele><time>2026-04-25T07:14:44.39Z</time></trkpt><trkpt lat="43.8908617" lon="12.4083317"><ele>442.2</ele><time>2026-04-25T07:14:49.39Z</time></trkpt><trkpt lat="43.8908033" lon="12.4084167"><ele>444.4</ele><time>2026-04-25T07:14:51.39Z</time></trkpt><trkpt lat="43.8907467" lon="12.4085267"><ele>446.6</ele><time>2026-04-25T07:14:53.39Z</time></trkpt><trkpt lat="43.89069" lon="12.40865"><ele>448.8</ele><time>2026-04-25T07:14:55.389Z</time></trkpt><trkpt lat="43.8906483" lon="12.4087767"><ele>451.0</ele><time>2026-04-25T07:14:57.389Z</time></trkpt><trkpt lat="43.8906133" lon="12.4089217"><ele>453.20000000000005</ele><time>2026-04-25T07:14:59.389Z</time></trkpt><trkpt lat="43.8906017" lon="12.4090667"><ele>455.40000000000003</ele><time>2026-04-25T07:15:01.39Z</time></trkpt><trkpt lat="43.89057" lon="12.4092133"><ele>457.6</ele><time>2026-04-25T07:15:03.39Z</time></trkpt><trkpt lat="43.8905117" lon="12.4093483"><ele>459.8</ele><time>2026-04-25T07:15:05.39Z</time></trkpt><trkpt lat="43.890485" lon="12.4094283"><ele>462.0</ele><time>2026-04-25T07:15:06.39Z</time></trkpt><trkpt lat="43.89045" lon="12.40957"><ele>462.0</ele><time>2026-04-25T07:15:08.39Z</time></trkpt><trkpt lat="43.890425" lon="12.4096567"><ele>462.0</ele><time>2026-04-25T07:15:09.39Z</time></trkpt><trkpt lat="43.8904" lon="12.4097483"><ele>462.0</ele><time>2026-04-25T07:15:10.39Z</time></trkpt><trkpt lat="43.8903733" lon="12.4098367"><ele>462.0</ele><time>2026-04-25T07:15:11.39Z</time></trkpt><trkpt lat="43.8903367" lon="12.4100083"><ele>462.0</ele><time>2026-04-25T07:15:13.389Z</time></trkpt><trkpt lat="43.89032" lon="12.4100933"><ele>462.0</ele><time>2026-04-25T07:15:14.39Z</time></trkpt><trkpt lat="43.890285" lon="12.4102617"><ele>465.20000000000005</ele><time>2026-04-25T07:15:16.39Z</time></trkpt><trkpt lat="43.890275" lon="12.41035"><ele>468.40000000000003</ele><time>2026-04-25T07:15:17.39Z</time></trkpt><trkpt lat="43.89026" lon="12.410445"><ele>471.59999999999997</ele><time>2026-04-25T07:15:18.39Z</time></trkpt><trkpt lat="43.8902433" lon="12.4106083"><ele>474.79999999999995</ele><time>2026-04-25T07:15:20.389Z</time></trkpt><trkpt lat="43.8902333" lon="12.410775"><ele>478.0</ele><time>2026-04-25T07:15:22.389Z</time></trkpt><trkpt lat="43.8902467" lon="12.4108817"><ele>479.59999999999997</ele><time>2026-04-25T07:15:23.39Z</time></trkpt><trkpt lat="43.8902667" lon="12.41101"><ele>481.19999999999993</ele><time>2026-04-25T07:15:24.39Z</time></trkpt><trkpt lat="43.890295" lon="12.4111583"><ele>482.8</ele><time>2026-04-25T07:15:25.39Z</time></trkpt><trkpt lat="43.89033" lon="12.4113133"><ele>484.4</ele><time>2026-04-25T07:15:26.389Z</time></trkpt><trkpt lat="43.8903733" lon="12.4114567"><ele>486.0</ele><time>2026-04-25T07:15:27.39Z</time></trkpt><trkpt lat="43.890415" lon="12.41158"><ele>487.20000000000005</ele><time>2026-04-25T07:15:28.39Z</time></trkpt><trkpt lat="43.8904483" lon="12.4116833"><ele>488.40000000000003</ele><time>2026-04-25T07:15:29.389Z</time></trkpt><trkpt lat="43.8904917" lon="12.411805"><ele>489.6</ele><time>2026-04-25T07:15:30.389Z</time></trkpt><trkpt lat="43.89054" lon="12.411935"><ele>490.8</ele><time>2026-04-25T07:15:31.389Z</time></trkpt><trkpt lat="43.8905883" lon="12.4120567"><ele>492.0</ele><time>2026-04-25T07:15:32.39Z</time></trkpt><trkpt lat="43.890635" lon="12.4121633"><ele>492.0</ele><time>2026-04-25T07:15:33.389Z</time></trkpt><trkpt lat="43.8906767" lon="12.4122417"><ele>492.0</ele><time>2026-04-25T07:15:34.39Z</time></trkpt><trkpt lat="43.8907267" lon="12.4123367"><ele>492.0</ele><time>2026-04-25T07:15:36.39Z</time></trkpt><trkpt lat="43.890705" lon="12.4124417"><ele>492.0</ele><time>2026-04-25T07:15:38.39Z</time></trkpt><trkpt lat="43.8906583" lon="12.4125083"><ele>492.0</ele><time>2026-04-25T07:15:39.39Z</time></trkpt><trkpt lat="43.8905783" lon="12.4125733"><ele>492.0</ele><time>2026-04-25T07:15:40.389Z</time></trkpt><trkpt lat="43.89047" lon="12.4126583"><ele>492.0</ele><time>2026-04-25T07:15:41.39Z</time></trkpt><trkpt lat="43.8903433" lon="12.4127633"><ele>492.0</ele><time>2026-04-25T07:15:42.39Z</time></trkpt><trkpt lat="43.8902183" lon="12.412885"><ele>492.0</ele><time>2026-04-25T07:15:43.39Z</time></trkpt><trkpt lat="43.8900917" lon="12.4129883"><ele>492.0</ele><time>2026-04-25T07:15:44.389Z</time></trkpt><trkpt lat="43.889975" lon="12.4130867"><ele>489.5</ele><time>2026-04-25T07:15:45.389Z</time></trkpt><trkpt lat="43.8898667" lon="12.4131783"><ele>487.0</ele><time>2026-04-25T07:15:46.39Z</time></trkpt><trkpt lat="43.8897583" lon="12.4132633"><ele>484.5</ele><time>2026-04-25T07:15:47.39Z</time></trkpt><trkpt lat="43.8896667" lon="12.413355"><ele>482.0</ele><time>2026-04-25T07:15:48.39Z</time></trkpt><trkpt lat="43.8896033" lon="12.4134567"><ele>482.0</ele><time>2026-04-25T07:15:49.39Z</time></trkpt><trkpt lat="43.8895517" lon="12.4135667"><ele>482.00000000000006</ele><time>2026-04-25T07:15:50.39Z</time></trkpt><trkpt lat="43.8895283" lon="12.4136983"><ele>482.00000000000006</ele><time>2026-04-25T07:15:51.389Z</time></trkpt><trkpt lat="43.8895083" lon="12.4138417"><ele>482.0</ele><time>2026-04-25T07:15:52.39Z</time></trkpt><trkpt lat="43.88948" lon="12.4139867"><ele>482.0</ele><time>2026-04-25T07:15:53.39Z</time></trkpt><trkpt lat="43.889435" lon="12.414135"><ele>482.0</ele><time>2026-04-25T07:15:54.39Z</time></trkpt><trkpt lat="43.889385" lon="12.4142783"><ele>482.0</ele><time>2026-04-25T07:15:55.389Z</time></trkpt><trkpt lat="43.8893283" lon="12.4144133"><ele>482.0</ele><time>2026-04-25T07:15:56.39Z</time></trkpt><trkpt lat="43.889265" lon="12.41456"><ele>482.0</ele><time>2026-04-25T07:15:57.39Z</time></trkpt><trkpt lat="43.8891933" lon="12.4147017"><ele>482.0</ele><time>2026-04-25T07:15:58.39Z</time></trkpt><trkpt lat="43.8891133" lon="12.4148267"><ele>482.0</ele><time>2026-04-25T07:15:59.39Z</time></trkpt><trkpt lat="43.8890233" lon="12.4149283"><ele>482.0</ele><time>2026-04-25T07:16:00.389Z</time></trkpt><trkpt lat="43.8889067" lon="12.414995"><ele>482.0</ele><time>2026-04-25T07:16:01.39Z</time></trkpt><trkpt lat="43.8887833" lon="12.4150283"><ele>482.0</ele><time>2026-04-25T07:16:02.39Z</time></trkpt><trkpt lat="43.8886617" lon="12.4150567"><ele>482.0</ele><time>2026-04-25T07:16:03.39Z</time></trkpt><trkpt lat="43.8885367" lon="12.41511"><ele>482.0</ele><time>2026-04-25T07:16:04.39Z</time></trkpt><trkpt lat="43.88842" lon="12.4151783"><ele>482.0</ele><time>2026-04-25T07:16:05.39Z</time></trkpt><trkpt lat="43.8883" lon="12.4152383"><ele>479.8</ele><time>2026-04-25T07:16:06.39Z</time></trkpt><trkpt lat="43.88819" lon="12.4152867"><ele>477.6</ele><time>2026-04-25T07:16:07.39Z</time></trkpt><trkpt lat="43.8880833" lon="12.41531"><ele>475.40000000000003</ele><time>2026-04-25T07:16:08.389Z</time></trkpt><trkpt lat="43.8879883" lon="12.4152933"><ele>473.20000000000005</ele><time>2026-04-25T07:16:09.39Z</time></trkpt><trkpt lat="43.88791" lon="12.415225"><ele>471.0</ele><time>2026-04-25T07:16:10.389Z</time></trkpt><trkpt lat="43.88785" lon="12.4151167"><ele>471.0</ele><time>2026-04-25T07:16:11.389Z</time></trkpt><trkpt lat="43.88788" lon="12.4150233"><ele>471.0</ele><time>2026-04-25T07:16:12.798Z</time></trkpt><trkpt lat="43.8877367" lon="12.4149533"><ele>471.0</ele><time>2026-04-25T07:16:13.891Z</time></trkpt><trkpt lat="43.8876033" lon="12.4148767"><ele>471.0</ele><time>2026-04-25T07:16:14.891Z</time></trkpt><trkpt lat="43.8874233" lon="12.41479"><ele>469.75</ele><time>2026-04-25T07:16:16.39Z</time></trkpt><trkpt lat="43.8873217" lon="12.4147233"><ele>468.5</ele><time>2026-04-25T07:16:17.391Z</time></trkpt><trkpt lat="43.8872367" lon="12.41463"><ele>467.25</ele><time>2026-04-25T07:16:18.391Z</time></trkpt><trkpt lat="43.8871617" lon="12.4145267"><ele>466.0</ele><time>2026-04-25T07:16:19.391Z</time></trkpt><trkpt lat="43.88707" lon="12.4144067"><ele>464.25</ele><time>2026-04-25T07:16:20.391Z</time></trkpt><trkpt lat="43.88697" lon="12.414285"><ele>462.5</ele><time>2026-04-25T07:16:21.39Z</time></trkpt><trkpt lat="43.8868533" lon="12.4141617"><ele>460.75</ele><time>2026-04-25T07:16:22.39Z</time></trkpt><trkpt lat="43.88674" lon="12.4140267"><ele>459.0</ele><time>2026-04-25T07:16:23.39Z</time></trkpt><trkpt lat="43.886625" lon="12.4139067"><ele>456.5</ele><time>2026-04-25T07:16:24.391Z</time></trkpt><trkpt lat="43.88651" lon="12.4137833"><ele>454.0</ele><time>2026-04-25T07:16:25.391Z</time></trkpt><trkpt lat="43.8864033" lon="12.413665"><ele>451.5</ele><time>2026-04-25T07:16:26.39Z</time></trkpt><trkpt lat="43.8862933" lon="12.4135517"><ele>449.0</ele><time>2026-04-25T07:16:27.391Z</time></trkpt><trkpt lat="43.8861767" lon="12.413445"><ele>449.0</ele><time>2026-04-25T07:16:28.39Z</time></trkpt><trkpt lat="43.886055" lon="12.4133433"><ele>449.0</ele><time>2026-04-25T07:16:29.39Z</time></trkpt><trkpt lat="43.8859367" lon="12.4132433"><ele>449.0</ele><time>2026-04-25T07:16:30.391Z</time></trkpt><trkpt lat="43.8858317" lon="12.413155"><ele>449.0</ele><time>2026-04-25T07:16:31.391Z</time></trkpt><trkpt lat="43.8857383" lon="12.413055"><ele>449.2</ele><time>2026-04-25T07:16:32.391Z</time></trkpt><trkpt lat="43.885665" lon="12.4129283"><ele>449.4</ele><time>2026-04-25T07:16:33.391Z</time></trkpt><trkpt lat="43.8856133" lon="12.412815"><ele>449.6</ele><time>2026-04-25T07:16:34.39Z</time></trkpt><trkpt lat="43.8855617" lon="12.4127133"><ele>449.8</ele><time>2026-04-25T07:16:35.39Z</time></trkpt><trkpt lat="43.8854917" lon="12.4126133"><ele>450.0</ele><time>2026-04-25T07:16:36.39Z</time></trkpt><trkpt lat="43.8854117" lon="12.4124867"><ele>450.0</ele><time>2026-04-25T07:16:37.39Z</time></trkpt><trkpt lat="43.88533" lon="12.4123617"><ele>450.0</ele><time>2026-04-25T07:16:38.39Z</time></trkpt><trkpt lat="43.8852467" lon="12.4122383"><ele>450.0</ele><time>2026-04-25T07:16:39.391Z</time></trkpt><trkpt lat="43.8851767" lon="12.4121167"><ele>450.0</ele><time>2026-04-25T07:16:40.39Z</time></trkpt><trkpt lat="43.88511" lon="12.4120183"><ele>449.8</ele><time>2026-04-25T07:16:41.391Z</time></trkpt><trkpt lat="43.88505" lon="12.4119317"><ele>449.6</ele><time>2026-04-25T07:16:42.391Z</time></trkpt><trkpt lat="43.885" lon="12.4118633"><ele>449.4</ele><time>2026-04-25T07:16:43.391Z</time></trkpt><trkpt lat="43.8849183" lon="12.4117183"><ele>449.2</ele><time>2026-04-25T07:16:45.391Z</time></trkpt><trkpt lat="43.8848767" lon="12.411605"><ele>449.0</ele><time>2026-04-25T07:16:46.391Z</time></trkpt><trkpt lat="43.8848383" lon="12.411465"><ele>446.5</ele><time>2026-04-25T07:16:47.39Z</time></trkpt><trkpt lat="43.884805" lon="12.4112983"><ele>444.0</ele><time>2026-04-25T07:16:48.391Z</time></trkpt><trkpt lat="43.8847683" lon="12.4111483"><ele>441.5</ele><time>2026-04-25T07:16:49.39Z</time></trkpt><trkpt lat="43.8847067" lon="12.4110183"><ele>439.0</ele><time>2026-04-25T07:16:50.391Z</time></trkpt><trkpt lat="43.8846583" lon="12.4108833"><ele>439.0</ele><time>2026-04-25T07:16:51.391Z</time></trkpt><trkpt lat="43.8846267" lon="12.4107417"><ele>439.0</ele><time>2026-04-25T07:16:52.391Z</time></trkpt><trkpt lat="43.8846233" lon="12.4106033"><ele>439.0</ele><time>2026-04-25T07:16:53.39Z</time></trkpt><trkpt lat="43.8846533" lon="12.4104733"><ele>439.0</ele><time>2026-04-25T07:16:54.391Z</time></trkpt><trkpt lat="43.8847033" lon="12.41035"><ele>439.0</ele><time>2026-04-25T07:16:55.39Z</time></trkpt><trkpt lat="43.88475" lon="12.4102233"><ele>437.6</ele><time>2026-04-25T07:16:56.391Z</time></trkpt><trkpt lat="43.8847767" lon="12.4100883"><ele>436.2</ele><time>2026-04-25T07:16:57.391Z</time></trkpt><trkpt lat="43.8847767" lon="12.4099583"><ele>434.80000000000007</ele><time>2026-04-25T07:16:58.391Z</time></trkpt><trkpt lat="43.8847583" lon="12.4098217"><ele>433.40000000000003</ele><time>2026-04-25T07:16:59.391Z</time></trkpt><trkpt lat="43.88471" lon="12.4097083"><ele>432.0</ele><time>2026-04-25T07:17:00.391Z</time></trkpt><trkpt lat="43.8846267" lon="12.409605"><ele>429.25</ele><time>2026-04-25T07:17:01.391Z</time></trkpt><trkpt lat="43.88452" lon="12.4095267"><ele>426.5</ele><time>2026-04-25T07:17:02.391Z</time></trkpt><trkpt lat="43.8844133" lon="12.4094783"><ele>423.75</ele><time>2026-04-25T07:17:03.391Z</time></trkpt><trkpt lat="43.8843067" lon="12.4094367"><ele>421.0</ele><time>2026-04-25T07:17:04.391Z</time></trkpt><trkpt lat="43.8842" lon="12.4093967"><ele>421.0</ele><time>2026-04-25T07:17:05.39Z</time></trkpt><trkpt lat="43.8841033" lon="12.4093517"><ele>421.0</ele><time>2026-04-25T07:17:06.391Z</time></trkpt><trkpt lat="43.8840083" lon="12.409315"><ele>421.0</ele><time>2026-04-25T07:17:07.39Z</time></trkpt><trkpt lat="43.8839317" lon="12.409265"><ele>421.0</ele><time>2026-04-25T07:17:08.391Z</time></trkpt><trkpt lat="43.8838517" lon="12.409215"><ele>421.0</ele><time>2026-04-25T07:17:09.39Z</time></trkpt><trkpt lat="43.88377" lon="12.4091667"><ele>421.0</ele><time>2026-04-25T07:17:10.39Z</time></trkpt><trkpt lat="43.883685" lon="12.4091267"><ele>421.0</ele><time>2026-04-25T07:17:11.391Z</time></trkpt><trkpt lat="43.8835983" lon="12.4090817"><ele>421.0</ele><time>2026-04-25T07:17:12.391Z</time></trkpt><trkpt lat="43.8835083" lon="12.409035"><ele>421.0</ele><time>2026-04-25T07:17:13.39Z</time></trkpt><trkpt lat="43.883415" lon="12.4090017"><ele>421.0</ele><time>2026-04-25T07:17:14.39Z</time></trkpt><trkpt lat="43.88331" lon="12.4089733"><ele>419.8</ele><time>2026-04-25T07:17:15.391Z</time></trkpt><trkpt lat="43.883205" lon="12.408945"><ele>418.6</ele><time>2026-04-25T07:17:16.39Z</time></trkpt><trkpt lat="43.8830967" lon="12.40893"><ele>417.4</ele><time>2026-04-25T07:17:17.391Z</time></trkpt><trkpt lat="43.8829883" lon="12.40892"><ele>416.2</ele><time>2026-04-25T07:17:18.391Z</time></trkpt><trkpt lat="43.8828917" lon="12.4089083"><ele>415.0</ele><time>2026-04-25T07:17:19.39Z</time></trkpt><trkpt lat="43.8828" lon="12.4089"><ele>415.0</ele><time>2026-04-25T07:17:20.391Z</time></trkpt><trkpt lat="43.8827133" lon="12.40889"><ele>415.0</ele><time>2026-04-25T07:17:21.391Z</time></trkpt><trkpt lat="43.8826217" lon="12.4088817"><ele>415.0</ele><time>2026-04-25T07:17:22.39Z</time></trkpt><trkpt lat="43.882535" lon="12.4088683"><ele>415.0</ele><time>2026-04-25T07:17:23.39Z</time></trkpt><trkpt lat="43.8824617" lon="12.4088467"><ele>415.0</ele><time>2026-04-25T07:17:24.39Z</time></trkpt><trkpt lat="43.8823733" lon="12.408755"><ele>412.83333333333337</ele><time>2026-04-25T07:17:26.391Z</time></trkpt><trkpt lat="43.8823933" lon="12.40867"><ele>410.6666666666667</ele><time>2026-04-25T07:17:27.39Z</time></trkpt><trkpt lat="43.8824567" lon="12.40858"><ele>408.5</ele><time>2026-04-25T07:17:28.391Z</time></trkpt><trkpt lat="43.88254" lon="12.408495"><ele>406.33333333333337</ele><time>2026-04-25T07:17:29.391Z</time></trkpt><trkpt lat="43.88262" lon="12.4084217"><ele>404.1666666666667</ele><time>2026-04-25T07:17:30.39Z</time></trkpt><trkpt lat="43.882695" lon="12.4083433"><ele>402.0</ele><time>2026-04-25T07:17:31.391Z</time></trkpt><trkpt lat="43.8827517" lon="12.4082567"><ele>401.8</ele><time>2026-04-25T07:17:32.391Z</time></trkpt><trkpt lat="43.8827933" lon="12.4081433"><ele>401.6</ele><time>2026-04-25T07:17:33.39Z</time></trkpt><trkpt lat="43.88281" lon="12.4080033"><ele>401.40000000000003</ele><time>2026-04-25T07:17:34.391Z</time></trkpt><trkpt lat="43.882805" lon="12.4078533"><ele>401.20000000000005</ele><time>2026-04-25T07:17:35.39Z</time></trkpt><trkpt lat="43.8828017" lon="12.407705"><ele>401.0</ele><time>2026-04-25T07:17:36.39Z</time></trkpt><trkpt lat="43.8828117" lon="12.4075633"><ele>398.6</ele><time>2026-04-25T07:17:37.391Z</time></trkpt><trkpt lat="43.8828467" lon="12.40742"><ele>396.20000000000005</ele><time>2026-04-25T07:17:38.39Z</time></trkpt><trkpt lat="43.8829017" lon="12.4072917"><ele>393.79999999999995</ele><time>2026-04-25T07:17:39.391Z</time></trkpt><trkpt lat="43.8829417" lon="12.4071783"><ele>391.4</ele><time>2026-04-25T07:17:40.391Z</time></trkpt><trkpt lat="43.88296" lon="12.4070867"><ele>389.0</ele><time>2026-04-25T07:17:41.391Z</time></trkpt><trkpt lat="43.8829333" lon="12.4069467"><ele>388.25</ele><time>2026-04-25T07:17:43.391Z</time></trkpt><trkpt lat="43.8828733" lon="12.4068667"><ele>387.5</ele><time>2026-04-25T07:17:44.391Z</time></trkpt><trkpt lat="43.882785" lon="12.4067867"><ele>386.75</ele><time>2026-04-25T07:17:45.39Z</time></trkpt><trkpt lat="43.8826767" lon="12.4066833"><ele>386.0</ele><time>2026-04-25T07:17:46.391Z</time></trkpt><trkpt lat="43.8825667" lon="12.4065583"><ele>388.25</ele><time>2026-04-25T07:17:47.39Z</time></trkpt><trkpt lat="43.8824683" lon="12.4064183"><ele>390.5</ele><time>2026-04-25T07:17:48.391Z</time></trkpt><trkpt lat="43.8823567" lon="12.4062683"><ele>392.75</ele><time>2026-04-25T07:17:49.39Z</time></trkpt><trkpt lat="43.88226" lon="12.4061167"><ele>395.0</ele><time>2026-04-25T07:17:50.39Z</time></trkpt><trkpt lat="43.8821783" lon="12.405985"><ele>395.25</ele><time>2026-04-25T07:17:51.39Z</time></trkpt><trkpt lat="43.88213" lon="12.405845"><ele>395.5</ele><time>2026-04-25T07:17:52.39Z</time></trkpt><trkpt lat="43.882105" lon="12.4056833"><ele>395.75</ele><time>2026-04-25T07:17:53.391Z</time></trkpt><trkpt lat="43.8821033" lon="12.405505"><ele>396.0</ele><time>2026-04-25T07:17:54.39Z</time></trkpt><trkpt lat="43.8820967" lon="12.4053283"><ele>396.5</ele><time>2026-04-25T07:17:55.391Z</time></trkpt><trkpt lat="43.882095" lon="12.4051817"><ele>397.0</ele><time>2026-04-25T07:17:56.391Z</time></trkpt><trkpt lat="43.8820867" lon="12.4050683"><ele>397.5</ele><time>2026-04-25T07:17:57.39Z</time></trkpt><trkpt lat="43.8820733" lon="12.4049767"><ele>398.0</ele><time>2026-04-25T07:17:58.391Z</time></trkpt><trkpt lat="43.8820483" lon="12.4048867"><ele>398.5</ele><time>2026-04-25T07:17:59.39Z</time></trkpt><trkpt lat="43.8819983" lon="12.404815"><ele>399.0</ele><time>2026-04-25T07:18:00.39Z</time></trkpt><trkpt lat="43.8819217" lon="12.4047633"><ele>399.0</ele><time>2026-04-25T07:18:01.391Z</time></trkpt><trkpt lat="43.8818383" lon="12.404725"><ele>399.0</ele><time>2026-04-25T07:18:02.39Z</time></trkpt><trkpt lat="43.8817483" lon="12.4046933"><ele>399.0</ele><time>2026-04-25T07:18:03.391Z</time></trkpt><trkpt lat="43.881655" lon="12.4046517"><ele>399.0</ele><time>2026-04-25T07:18:04.39Z</time></trkpt><trkpt lat="43.8815517" lon="12.4045967"><ele>399.0</ele><time>2026-04-25T07:18:05.391Z</time></trkpt><trkpt lat="43.8814567" lon="12.4045133"><ele>401.4</ele><time>2026-04-25T07:18:06.39Z</time></trkpt><trkpt lat="43.881365" lon="12.4044167"><ele>403.79999999999995</ele><time>2026-04-25T07:18:07.391Z</time></trkpt><trkpt lat="43.8812867" lon="12.4043383"><ele>406.20000000000005</ele><time>2026-04-25T07:18:08.391Z</time></trkpt><trkpt lat="43.8812067" lon="12.40427"><ele>408.6</ele><time>2026-04-25T07:18:09.39Z</time></trkpt><trkpt lat="43.881125" lon="12.404205"><ele>411.0</ele><time>2026-04-25T07:18:10.39Z</time></trkpt><trkpt lat="43.881035" lon="12.4041683"><ele>411.6</ele><time>2026-04-25T07:18:11.391Z</time></trkpt><trkpt lat="43.8809283" lon="12.404145"><ele>412.20000000000005</ele><time>2026-04-25T07:18:12.39Z</time></trkpt><trkpt lat="43.8808217" lon="12.4041333"><ele>412.79999999999995</ele><time>2026-04-25T07:18:13.391Z</time></trkpt><trkpt lat="43.8807267" lon="12.4041133"><ele>413.4</ele><time>2026-04-25T07:18:14.391Z</time></trkpt><trkpt lat="43.8806333" lon="12.4041017"><ele>414.0</ele><time>2026-04-25T07:18:15.391Z</time></trkpt><trkpt lat="43.8805383" lon="12.4040933"><ele>414.0</ele><time>2026-04-25T07:18:16.391Z</time></trkpt><trkpt lat="43.8804433" lon="12.4040933"><ele>414.0</ele><time>2026-04-25T07:18:17.391Z</time></trkpt><trkpt lat="43.8803433" lon="12.4041133"><ele>414.0</ele><time>2026-04-25T07:18:18.39Z</time></trkpt><trkpt lat="43.8802433" lon="12.4041183"><ele>414.0</ele><time>2026-04-25T07:18:19.39Z</time></trkpt><trkpt lat="43.880155" lon="12.40411"><ele>414.0</ele><time>2026-04-25T07:18:20.391Z</time></trkpt><trkpt lat="43.880055" lon="12.4040717"><ele>414.0</ele><time>2026-04-25T07:18:21.391Z</time></trkpt><trkpt lat="43.8799567" lon="12.4040283"><ele>414.0</ele><time>2026-04-25T07:18:22.391Z</time></trkpt><trkpt lat="43.8798767" lon="12.4039833"><ele>414.0</ele><time>2026-04-25T07:18:23.39Z</time></trkpt><trkpt lat="43.8798083" lon="12.4039383"><ele>414.0</ele><time>2026-04-25T07:18:24.39Z</time></trkpt><trkpt lat="43.8797483" lon="12.4038833"><ele>414.0</ele><time>2026-04-25T07:18:25.391Z</time></trkpt><trkpt lat="43.8796917" lon="12.403815"><ele>414.0</ele><time>2026-04-25T07:18:26.39Z</time></trkpt><trkpt lat="43.879645" lon="12.4037233"><ele>411.79999999999995</ele><time>2026-04-25T07:18:27.391Z</time></trkpt><trkpt lat="43.8796017" lon="12.4036133"><ele>409.59999999999997</ele><time>2026-04-25T07:18:28.391Z</time></trkpt><trkpt lat="43.8795583" lon="12.4034967"><ele>407.4</ele><time>2026-04-25T07:18:29.39Z</time></trkpt><trkpt lat="43.8795117" lon="12.4033867"><ele>405.2</ele><time>2026-04-25T07:18:30.391Z</time></trkpt><trkpt lat="43.879465" lon="12.4032817"><ele>403.0</ele><time>2026-04-25T07:18:31.391Z</time></trkpt><trkpt lat="43.8794267" lon="12.4031683"><ele>403.00000000000006</ele><time>2026-04-25T07:18:32.39Z</time></trkpt><trkpt lat="43.879385" lon="12.4030617"><ele>403.0</ele><time>2026-04-25T07:18:33.391Z</time></trkpt><trkpt lat="43.8793417" lon="12.4029567"><ele>403.0</ele><time>2026-04-25T07:18:34.391Z</time></trkpt><trkpt lat="43.8792933" lon="12.4028567"><ele>403.0</ele><time>2026-04-25T07:18:35.39Z</time></trkpt><trkpt lat="43.8792517" lon="12.402755"><ele>403.00000000000006</ele><time>2026-04-25T07:18:36.391Z</time></trkpt><trkpt lat="43.8792083" lon="12.4026517"><ele>403.0</ele><time>2026-04-25T07:18:37.391Z</time></trkpt><trkpt lat="43.879165" lon="12.4025483"><ele>401.1666666666667</ele><time>2026-04-25T07:18:38.391Z</time></trkpt><trkpt lat="43.8791267" lon="12.40245"><ele>399.33333333333337</ele><time>2026-04-25T07:18:39.391Z</time></trkpt><trkpt lat="43.87908" lon="12.402355"><ele>397.5</ele><time>2026-04-25T07:18:40.39Z</time></trkpt><trkpt lat="43.879035" lon="12.4022617"><ele>395.66666666666663</ele><time>2026-04-25T07:18:41.39Z</time></trkpt><trkpt lat="43.8789867" lon="12.40217"><ele>393.8333333333333</ele><time>2026-04-25T07:18:42.39Z</time></trkpt><trkpt lat="43.8789317" lon="12.402085"><ele>392.0</ele><time>2026-04-25T07:18:43.391Z</time></trkpt><trkpt lat="43.8788717" lon="12.40201"><ele>390.16666666666663</ele><time>2026-04-25T07:18:44.39Z</time></trkpt><trkpt lat="43.8788067" lon="12.40195"><ele>388.3333333333333</ele><time>2026-04-25T07:18:45.39Z</time></trkpt><trkpt lat="43.8787283" lon="12.401915"><ele>386.5</ele><time>2026-04-25T07:18:46.391Z</time></trkpt><trkpt lat="43.8786383" lon="12.4018983"><ele>384.66666666666663</ele><time>2026-04-25T07:18:47.391Z</time></trkpt><trkpt lat="43.87854" lon="12.4018867"><ele>382.8333333333333</ele><time>2026-04-25T07:18:48.391Z</time></trkpt><trkpt lat="43.87845" lon="12.401875"><ele>381.0</ele><time>2026-04-25T07:18:49.39Z</time></trkpt><trkpt lat="43.87836" lon="12.4018333"><ele>381.0</ele><time>2026-04-25T07:18:50.39Z</time></trkpt><trkpt lat="43.8782767" lon="12.4017717"><ele>381.0</ele><time>2026-04-25T07:18:51.391Z</time></trkpt><trkpt lat="43.878195" lon="12.401675"><ele>381.0</ele><time>2026-04-25T07:18:52.39Z</time></trkpt><trkpt lat="43.878115" lon="12.4015583"><ele>381.0</ele><time>2026-04-25T07:18:53.39Z</time></trkpt><trkpt lat="43.8780333" lon="12.40143"><ele>381.0</ele><time>2026-04-25T07:18:54.39Z</time></trkpt><trkpt lat="43.87795" lon="12.4013033"><ele>381.25</ele><time>2026-04-25T07:18:55.39Z</time></trkpt><trkpt lat="43.8778683" lon="12.4011833"><ele>381.5</ele><time>2026-04-25T07:18:56.391Z</time></trkpt><trkpt lat="43.8777867" lon="12.401065"><ele>381.75</ele><time>2026-04-25T07:18:57.39Z</time></trkpt><trkpt lat="43.8777117" lon="12.4009383"><ele>382.0</ele><time>2026-04-25T07:18:58.391Z</time></trkpt><trkpt lat="43.8776417" lon="12.400825"><ele>383.3333333333333</ele><time>2026-04-25T07:18:59.391Z</time></trkpt><trkpt lat="43.877575" lon="12.40073"><ele>384.66666666666663</ele><time>2026-04-25T07:19:00.39Z</time></trkpt><trkpt lat="43.8775183" lon="12.4006383"><ele>386.0</ele><time>2026-04-25T07:19:01.39Z</time></trkpt><trkpt lat="43.8774717" lon="12.4005433"><ele>387.3333333333333</ele><time>2026-04-25T07:19:02.391Z</time></trkpt><trkpt lat="43.877445" lon="12.4004317"><ele>388.6666666666667</ele><time>2026-04-25T07:19:03.391Z</time></trkpt><trkpt lat="43.8774317" lon="12.4003333"><ele>390.0</ele><time>2026-04-25T07:19:04.391Z</time></trkpt><trkpt lat="43.8774433" lon="12.4002283"><ele>391.6666666666667</ele><time>2026-04-25T07:19:05.391Z</time></trkpt><trkpt lat="43.8774717" lon="12.40012"><ele>393.33333333333337</ele><time>2026-04-25T07:19:06.391Z</time></trkpt><trkpt lat="43.8774983" lon="12.4000083"><ele>395.0</ele><time>2026-04-25T07:19:07.39Z</time></trkpt><trkpt lat="43.8775183" lon="12.3999"><ele>396.6666666666667</ele><time>2026-04-25T07:19:08.391Z</time></trkpt><trkpt lat="43.8775283" lon="12.3998067"><ele>398.33333333333337</ele><time>2026-04-25T07:19:09.391Z</time></trkpt><trkpt lat="43.8775233" lon="12.399715"><ele>400.0</ele><time>2026-04-25T07:19:10.39Z</time></trkpt><trkpt lat="43.877495" lon="12.3996267"><ele>401.83333333333337</ele><time>2026-04-25T07:19:11.391Z</time></trkpt><trkpt lat="43.8774483" lon="12.3995517"><ele>403.6666666666667</ele><time>2026-04-25T07:19:12.39Z</time></trkpt><trkpt lat="43.8773867" lon="12.39949"><ele>405.5</ele><time>2026-04-25T07:19:13.39Z</time></trkpt><trkpt lat="43.8773083" lon="12.399455"><ele>407.33333333333337</ele><time>2026-04-25T07:19:14.391Z</time></trkpt><trkpt lat="43.8772283" lon="12.3994367"><ele>409.1666666666667</ele><time>2026-04-25T07:19:15.391Z</time></trkpt><trkpt lat="43.8771483" lon="12.3994467"><ele>411.0</ele><time>2026-04-25T07:19:16.391Z</time></trkpt><trkpt lat="43.8770633" lon="12.399485"><ele>411.0</ele><time>2026-04-25T07:19:17.391Z</time></trkpt><trkpt lat="43.8769717" lon="12.3995333"><ele>411.0</ele><time>2026-04-25T07:19:18.39Z</time></trkpt><trkpt lat="43.8768783" lon="12.3995717"><ele>411.0</ele><time>2026-04-25T07:19:19.39Z</time></trkpt><trkpt lat="43.8767733" lon="12.3995883"><ele>411.0</ele><time>2026-04-25T07:19:20.39Z</time></trkpt><trkpt lat="43.876675" lon="12.39959"><ele>411.0</ele><time>2026-04-25T07:19:21.39Z</time></trkpt><trkpt lat="43.8765633" lon="12.399585"><ele>411.20000000000005</ele><time>2026-04-25T07:19:22.391Z</time></trkpt><trkpt lat="43.876445" lon="12.3995867"><ele>411.40000000000003</ele><time>2026-04-25T07:19:23.39Z</time></trkpt><trkpt lat="43.8763383" lon="12.399605"><ele>411.6</ele><time>2026-04-25T07:19:24.391Z</time></trkpt><trkpt lat="43.876235" lon="12.3996367"><ele>411.8</ele><time>2026-04-25T07:19:25.39Z</time></trkpt><trkpt lat="43.8761267" lon="12.39967"><ele>412.0</ele><time>2026-04-25T07:19:26.391Z</time></trkpt><trkpt lat="43.87602" lon="12.3996933"><ele>414.6</ele><time>2026-04-25T07:19:27.391Z</time></trkpt><trkpt lat="43.87592" lon="12.3997083"><ele>417.20000000000005</ele><time>2026-04-25T07:19:28.391Z</time></trkpt><trkpt lat="43.8758283" lon="12.399715"><ele>419.8</ele><time>2026-04-25T07:19:29.391Z</time></trkpt><trkpt lat="43.8757383" lon="12.3997167"><ele>422.4</ele><time>2026-04-25T07:19:30.39Z</time></trkpt><trkpt lat="43.8756433" lon="12.3996967"><ele>425.0</ele><time>2026-04-25T07:19:31.391Z</time></trkpt><trkpt lat="43.87557" lon="12.3996533"><ele>425.8</ele><time>2026-04-25T07:19:32.391Z</time></trkpt><trkpt lat="43.8755067" lon="12.3995917"><ele>426.6</ele><time>2026-04-25T07:19:33.391Z</time></trkpt><trkpt lat="43.87543" lon="12.3995217"><ele>427.4</ele><time>2026-04-25T07:19:34.391Z</time></trkpt><trkpt lat="43.8753417" lon="12.3994417"><ele>428.2</ele><time>2026-04-25T07:19:35.391Z</time></trkpt><trkpt lat="43.875245" lon="12.3993628"><ele>429.0</ele><time>2026-04-25T07:19:36.39Z</time></trkpt><trkpt lat="43.8751479" lon="12.399281"><ele>430.25</ele><time>2026-04-25T07:19:37.391Z</time></trkpt><trkpt lat="43.8750544" lon="12.3992006"><ele>431.5</ele><time>2026-04-25T07:19:38.391Z</time></trkpt><trkpt lat="43.8749617" lon="12.3991178"><ele>432.75</ele><time>2026-04-25T07:19:39.391Z</time></trkpt><trkpt lat="43.8748678" lon="12.399037"><ele>434.0</ele><time>2026-04-25T07:19:40.391Z</time></trkpt><trkpt lat="43.8747642" lon="12.3989528"><ele>434.0</ele><time>2026-04-25T07:19:41.391Z</time></trkpt><trkpt lat="43.8746583" lon="12.3988801"><ele>434.0</ele><time>2026-04-25T07:19:42.391Z</time></trkpt><trkpt lat="43.8745499" lon="12.3988181"><ele>434.0</ele><time>2026-04-25T07:19:43.391Z</time></trkpt><trkpt lat="43.8744475" lon="12.3987666"><ele>434.0</ele><time>2026-04-25T07:19:44.391Z</time></trkpt><trkpt lat="43.8743597" lon="12.3987258"><ele>434.0</ele><time>2026-04-25T07:19:45.391Z</time></trkpt><trkpt lat="43.8742765" lon="12.398697"><ele>436.16666666666663</ele><time>2026-04-25T07:19:46.391Z</time></trkpt><trkpt lat="43.8741956" lon="12.398693"><ele>438.3333333333333</ele><time>2026-04-25T07:19:47.391Z</time></trkpt><trkpt lat="43.8741125" lon="12.398709"><ele>440.5</ele><time>2026-04-25T07:19:48.391Z</time></trkpt><trkpt lat="43.874028" lon="12.398729"><ele>442.66666666666663</ele><time>2026-04-25T07:19:49.39Z</time></trkpt><trkpt lat="43.8739355" lon="12.3987339"><ele>444.8333333333333</ele><time>2026-04-25T07:19:50.391Z</time></trkpt><trkpt lat="43.8738364" lon="12.3987198"><ele>447.0</ele><time>2026-04-25T07:19:51.391Z</time></trkpt><trkpt lat="43.8737248" lon="12.3986885"><ele>447.0</ele><time>2026-04-25T07:19:52.39Z</time></trkpt><trkpt lat="43.87361" lon="12.3986523"><ele>447.0</ele><time>2026-04-25T07:19:53.391Z</time></trkpt><trkpt lat="43.8734895" lon="12.3986095"><ele>447.0</ele><time>2026-04-25T07:19:54.39Z</time></trkpt><trkpt lat="43.8733672" lon="12.3985637"><ele>447.0</ele><time>2026-04-25T07:19:55.391Z</time></trkpt><trkpt lat="43.8732384" lon="12.3985211"><ele>449.0</ele><time>2026-04-25T07:19:56.391Z</time></trkpt><trkpt lat="43.8731109" lon="12.398479"><ele>451.0</ele><time>2026-04-25T07:19:57.391Z</time></trkpt><trkpt lat="43.8729888" lon="12.3984342"><ele>453.0</ele><time>2026-04-25T07:19:58.391Z</time></trkpt><trkpt lat="43.8728651" lon="12.3983976"><ele>455.0</ele><time>2026-04-25T07:19:59.39Z</time></trkpt><trkpt lat="43.8727414" lon="12.3983824"><ele>455.0</ele><time>2026-04-25T07:20:00.391Z</time></trkpt><trkpt lat="43.8726187" lon="12.3983834"><ele>455.0</ele><time>2026-04-25T07:20:01.391Z</time></trkpt><trkpt lat="43.8724921" lon="12.3983976"><ele>455.0</ele><time>2026-04-25T07:20:02.391Z</time></trkpt><trkpt lat="43.8723644" lon="12.3984207"><ele>455.0</ele><time>2026-04-25T07:20:03.391Z</time></trkpt><trkpt lat="43.8722354" lon="12.3984464"><ele>457.25</ele><time>2026-04-25T07:20:04.391Z</time></trkpt><trkpt lat="43.8721093" lon="12.3984693"><ele>459.5</ele><time>2026-04-25T07:20:05.39Z</time></trkpt><trkpt lat="43.8719828" lon="12.3985023"><ele>461.75</ele><time>2026-04-25T07:20:06.39Z</time></trkpt><trkpt lat="43.8718564" lon="12.3985313"><ele>464.0</ele><time>2026-04-25T07:20:07.391Z</time></trkpt><trkpt lat="43.8717313" lon="12.3985537"><ele>467.25</ele><time>2026-04-25T07:20:08.39Z</time></trkpt><trkpt lat="43.8716067" lon="12.398575"><ele>470.5</ele><time>2026-04-25T07:20:09.391Z</time></trkpt><trkpt lat="43.87148" lon="12.3985933"><ele>473.75</ele><time>2026-04-25T07:20:10.391Z</time></trkpt><trkpt lat="43.8713633" lon="12.398615"><ele>477.0</ele><time>2026-04-25T07:20:11.39Z</time></trkpt><trkpt lat="43.8712367" lon="12.3986417"><ele>477.0</ele><time>2026-04-25T07:20:12.391Z</time></trkpt><trkpt lat="43.87112" lon="12.3986667"><ele>477.0</ele><time>2026-04-25T07:20:13.39Z</time></trkpt><trkpt lat="43.8710017" lon="12.3986967"><ele>477.0</ele><time>2026-04-25T07:20:14.391Z</time></trkpt><trkpt lat="43.8708817" lon="12.3987267"><ele>477.0</ele><time>2026-04-25T07:20:15.391Z</time></trkpt><trkpt lat="43.87076" lon="12.3987567"><ele>478.6</ele><time>2026-04-25T07:20:16.39Z</time></trkpt><trkpt lat="43.8706417" lon="12.39879"><ele>480.20000000000005</ele><time>2026-04-25T07:20:17.39Z</time></trkpt><trkpt lat="43.87053" lon="12.398815"><ele>481.8</ele><time>2026-04-25T07:20:18.391Z</time></trkpt><trkpt lat="43.870435" lon="12.3988367"><ele>483.4</ele><time>2026-04-25T07:20:19.391Z</time></trkpt><trkpt lat="43.8703433" lon="12.39886"><ele>485.0</ele><time>2026-04-25T07:20:20.391Z</time></trkpt><trkpt lat="43.8702483" lon="12.3988967"><ele>485.0</ele><time>2026-04-25T07:20:21.39Z</time></trkpt><trkpt lat="43.870155" lon="12.398955"><ele>485.0</ele><time>2026-04-25T07:20:22.391Z</time></trkpt><trkpt lat="43.8700683" lon="12.3990183"><ele>485.0</ele><time>2026-04-25T07:20:23.391Z</time></trkpt><trkpt lat="43.8699967" lon="12.399105"><ele>485.0</ele><time>2026-04-25T07:20:24.39Z</time></trkpt><trkpt lat="43.8699367" lon="12.39919"><ele>485.0</ele><time>2026-04-25T07:20:25.39Z</time></trkpt><trkpt lat="43.8698883" lon="12.399265"><ele>487.0</ele><time>2026-04-25T07:20:26.39Z</time></trkpt><trkpt lat="43.8698617" lon="12.399365"><ele>489.0</ele><time>2026-04-25T07:20:27.39Z</time></trkpt><trkpt lat="43.8698567" lon="12.3994833"><ele>491.0</ele><time>2026-04-25T07:20:28.391Z</time></trkpt><trkpt lat="43.869875" lon="12.3996167"><ele>493.0</ele><time>2026-04-25T07:20:29.391Z</time></trkpt><trkpt lat="43.8699" lon="12.3997583"><ele>495.0</ele><time>2026-04-25T07:20:30.391Z</time></trkpt><trkpt lat="43.8699267" lon="12.3998983"><ele>495.8</ele><time>2026-04-25T07:20:31.39Z</time></trkpt><trkpt lat="43.8699483" lon="12.4000417"><ele>496.6</ele><time>2026-04-25T07:20:32.391Z</time></trkpt><trkpt lat="43.8699567" lon="12.400185"><ele>497.4</ele><time>2026-04-25T07:20:33.39Z</time></trkpt><trkpt lat="43.8699533" lon="12.400335"><ele>498.2</ele><time>2026-04-25T07:20:34.391Z</time></trkpt><trkpt lat="43.8699483" lon="12.4004917"><ele>499.0</ele><time>2026-04-25T07:20:35.391Z</time></trkpt><trkpt lat="43.8699367" lon="12.400645"><ele>500.79999999999995</ele><time>2026-04-25T07:20:36.39Z</time></trkpt><trkpt lat="43.8699317" lon="12.400785"><ele>502.59999999999997</ele><time>2026-04-25T07:20:37.39Z</time></trkpt><trkpt lat="43.8699217" lon="12.400915"><ele>504.4</ele><time>2026-04-25T07:20:38.39Z</time></trkpt><trkpt lat="43.86989" lon="12.4010417"><ele>506.2</ele><time>2026-04-25T07:20:39.391Z</time></trkpt><trkpt lat="43.8698467" lon="12.401145"><ele>508.0</ele><time>2026-04-25T07:20:40.391Z</time></trkpt><trkpt lat="43.8697883" lon="12.401225"><ele>508.0</ele><time>2026-04-25T07:20:41.39Z</time></trkpt><trkpt lat="43.8697117" lon="12.4012717"><ele>507.99999999999994</ele><time>2026-04-25T07:20:42.391Z</time></trkpt><trkpt lat="43.8696217" lon="12.4012717"><ele>507.99999999999994</ele><time>2026-04-25T07:20:43.39Z</time></trkpt><trkpt lat="43.8695333" lon="12.4012333"><ele>508.0</ele><time>2026-04-25T07:20:44.391Z</time></trkpt><trkpt lat="43.8694433" lon="12.40116"><ele>508.0</ele><time>2026-04-25T07:20:45.391Z</time></trkpt><trkpt lat="43.8693433" lon="12.401085"><ele>510.2</ele><time>2026-04-25T07:20:46.39Z</time></trkpt><trkpt lat="43.8692417" lon="12.4010217"><ele>512.4</ele><time>2026-04-25T07:20:47.391Z</time></trkpt><trkpt lat="43.8691383" lon="12.4009883"><ele>514.5999999999999</ele><time>2026-04-25T07:20:48.39Z</time></trkpt><trkpt lat="43.86904" lon="12.4009817"><ele>516.8</ele><time>2026-04-25T07:20:49.391Z</time></trkpt><trkpt lat="43.8689367" lon="12.401"><ele>519.0</ele><time>2026-04-25T07:20:50.39Z</time></trkpt><trkpt lat="43.868825" lon="12.4010067"><ele>519.0</ele><time>2026-04-25T07:20:51.39Z</time></trkpt><trkpt lat="43.8687117" lon="12.4010033"><ele>519.0</ele><time>2026-04-25T07:20:52.391Z</time></trkpt><trkpt lat="43.8686067" lon="12.4009767"><ele>519.0</ele><time>2026-04-25T07:20:53.391Z</time></trkpt><trkpt lat="43.8685067" lon="12.4009167"><ele>519.0</ele><time>2026-04-25T07:20:54.39Z</time></trkpt><trkpt lat="43.8684083" lon="12.400855"><ele>519.0</ele><time>2026-04-25T07:20:55.39Z</time></trkpt><trkpt lat="43.868305" lon="12.400815"><ele>521.2</ele><time>2026-04-25T07:20:56.391Z</time></trkpt><trkpt lat="43.8682017" lon="12.4007867"><ele>523.4</ele><time>2026-04-25T07:20:57.391Z</time></trkpt><trkpt lat="43.8680933" lon="12.4007683"><ele>525.6</ele><time>2026-04-25T07:20:58.39Z</time></trkpt><trkpt lat="43.8679917" lon="12.40076"><ele>527.8</ele><time>2026-04-25T07:20:59.39Z</time></trkpt><trkpt lat="43.8678933" lon="12.4007533"><ele>530.0</ele><time>2026-04-25T07:21:00.391Z</time></trkpt><trkpt lat="43.867805" lon="12.400735"><ele>530.0</ele><time>2026-04-25T07:21:01.391Z</time></trkpt><trkpt lat="43.867715" lon="12.4007017"><ele>530.0</ele><time>2026-04-25T07:21:02.391Z</time></trkpt><trkpt lat="43.86764" lon="12.4006533"><ele>530.0</ele><time>2026-04-25T07:21:03.39Z</time></trkpt><trkpt lat="43.867575" lon="12.4005933"><ele>530.0</ele><time>2026-04-25T07:21:04.39Z</time></trkpt><trkpt lat="43.8675133" lon="12.4005183"><ele>530.0</ele><time>2026-04-25T07:21:05.39Z</time></trkpt><trkpt lat="43.8674483" lon="12.4004367"><ele>530.0</ele><time>2026-04-25T07:21:06.39Z</time></trkpt><trkpt lat="43.8673883" lon="12.400375"><ele>533.8</ele><time>2026-04-25T07:21:07.391Z</time></trkpt><trkpt lat="43.867305" lon="12.4003383"><ele>537.6</ele><time>2026-04-25T07:21:08.391Z</time></trkpt><trkpt lat="43.8672267" lon="12.4003133"><ele>541.4</ele><time>2026-04-25T07:21:09.391Z</time></trkpt><trkpt lat="43.86713" lon="12.40031"><ele>545.2</ele><time>2026-04-25T07:21:10.39Z</time></trkpt><trkpt lat="43.8670167" lon="12.400325"><ele>549.0</ele><time>2026-04-25T07:21:11.391Z</time></trkpt><trkpt lat="43.8669083" lon="12.4003367"><ele>549.0</ele><time>2026-04-25T07:21:12.39Z</time></trkpt><trkpt lat="43.8667983" lon="12.4003483"><ele>549.0</ele><time>2026-04-25T07:21:13.39Z</time></trkpt><trkpt lat="43.8666917" lon="12.4003567"><ele>549.0</ele><time>2026-04-25T07:21:14.39Z</time></trkpt><trkpt lat="43.866585" lon="12.4003733"><ele>549.0</ele><time>2026-04-25T07:21:15.39Z</time></trkpt><trkpt lat="43.86648" lon="12.4003817"><ele>549.0</ele><time>2026-04-25T07:21:16.39Z</time></trkpt><trkpt lat="43.8663683" lon="12.4003717"><ele>553.0</ele><time>2026-04-25T07:21:17.39Z</time></trkpt><trkpt lat="43.8662583" lon="12.400345"><ele>557.0</ele><time>2026-04-25T07:21:18.39Z</time></trkpt><trkpt lat="43.8661433" lon="12.4003267"><ele>561.0</ele><time>2026-04-25T07:21:19.39Z</time></trkpt><trkpt lat="43.8660233" lon="12.40032"><ele>565.0</ele><time>2026-04-25T07:21:20.39Z</time></trkpt><trkpt lat="43.8659183" lon="12.4003133"><ele>567.4</ele><time>2026-04-25T07:21:21.391Z</time></trkpt><trkpt lat="43.8658217" lon="12.4003083"><ele>569.8</ele><time>2026-04-25T07:21:22.391Z</time></trkpt><trkpt lat="43.86574" lon="12.4002883"><ele>572.2</ele><time>2026-04-25T07:21:23.39Z</time></trkpt><trkpt lat="43.8656567" lon="12.4002367"><ele>574.6</ele><time>2026-04-25T07:21:24.39Z</time></trkpt><trkpt lat="43.8655667" lon="12.4001567"><ele>577.0</ele><time>2026-04-25T07:21:25.39Z</time></trkpt><trkpt lat="43.8654767" lon="12.400065"><ele>577.0</ele><time>2026-04-25T07:21:26.39Z</time></trkpt><trkpt lat="43.8653917" lon="12.399975"><ele>577.0</ele><time>2026-04-25T07:21:27.391Z</time></trkpt><trkpt lat="43.8653233" lon="12.3998967"><ele>577.0</ele><time>2026-04-25T07:21:28.39Z</time></trkpt><trkpt lat="43.8652633" lon="12.39984"><ele>577.0</ele><time>2026-04-25T07:21:29.39Z</time></trkpt><trkpt lat="43.8652017" lon="12.399795"><ele>577.0</ele><time>2026-04-25T07:21:30.39Z</time></trkpt><trkpt lat="43.865125" lon="12.3997767"><ele>577.0</ele><time>2026-04-25T07:21:31.39Z</time></trkpt><trkpt lat="43.86503" lon="12.3997883"><ele>578.0</ele><time>2026-04-25T07:21:32.391Z</time></trkpt><trkpt lat="43.8649283" lon="12.3998317"><ele>579.0</ele><time>2026-04-25T07:21:33.39Z</time></trkpt><trkpt lat="43.86483" lon="12.3999017"><ele>580.0</ele><time>2026-04-25T07:21:34.39Z</time></trkpt><trkpt lat="43.8647417" lon="12.39997"><ele>581.0</ele><time>2026-04-25T07:21:35.39Z</time></trkpt><trkpt lat="43.8646467" lon="12.400015"><ele>582.0</ele><time>2026-04-25T07:21:36.39Z</time></trkpt><trkpt lat="43.864535" lon="12.4000167"><ele>582.0</ele><time>2026-04-25T07:21:37.391Z</time></trkpt><trkpt lat="43.8644083" lon="12.4000033"><ele>582.0</ele><time>2026-04-25T07:21:38.39Z</time></trkpt><trkpt lat="43.8642933" lon="12.3999767"><ele>582.0</ele><time>2026-04-25T07:21:39.39Z</time></trkpt><trkpt lat="43.864175" lon="12.3999483"><ele>582.0</ele><time>2026-04-25T07:21:40.391Z</time></trkpt><trkpt lat="43.86406" lon="12.399895"><ele>583.25</ele><time>2026-04-25T07:21:41.391Z</time></trkpt><trkpt lat="43.8639517" lon="12.39983"><ele>584.5</ele><time>2026-04-25T07:21:42.39Z</time></trkpt><trkpt lat="43.8638433" lon="12.3997617"><ele>585.75</ele><time>2026-04-25T07:21:43.39Z</time></trkpt><trkpt lat="43.8637483" lon="12.3996867"><ele>587.0</ele><time>2026-04-25T07:21:44.39Z</time></trkpt><trkpt lat="43.86365" lon="12.3996033"><ele>587.0</ele><time>2026-04-25T07:21:45.391Z</time></trkpt><trkpt lat="43.8635617" lon="12.3995217"><ele>587.0</ele><time>2026-04-25T07:21:46.39Z</time></trkpt><trkpt lat="43.8634733" lon="12.3994333"><ele>587.0</ele><time>2026-04-25T07:21:47.391Z</time></trkpt><trkpt lat="43.863385" lon="12.3993583"><ele>587.0</ele><time>2026-04-25T07:21:48.39Z</time></trkpt><trkpt lat="43.8632917" lon="12.399295"><ele>587.0</ele><time>2026-04-25T07:21:49.391Z</time></trkpt><trkpt lat="43.8631817" lon="12.3992417"><ele>590.0</ele><time>2026-04-25T07:21:50.39Z</time></trkpt><trkpt lat="43.8630744" lon="12.399201"><ele>593.0</ele><time>2026-04-25T07:21:51.391Z</time></trkpt><trkpt lat="43.8629669" lon="12.3991711"><ele>596.0</ele><time>2026-04-25T07:21:52.39Z</time></trkpt><trkpt lat="43.8628586" lon="12.3991565"><ele>599.0</ele><time>2026-04-25T07:21:53.39Z</time></trkpt><trkpt lat="43.8627504" lon="12.3991617"><ele>602.0</ele><time>2026-04-25T07:21:54.391Z</time></trkpt><trkpt lat="43.8626411" lon="12.3991771"><ele>604.8000000000001</ele><time>2026-04-25T07:21:55.391Z</time></trkpt><trkpt lat="43.8625388" lon="12.3991978"><ele>607.6</ele><time>2026-04-25T07:21:56.391Z</time></trkpt><trkpt lat="43.862444" lon="12.3992186"><ele>610.4000000000001</ele><time>2026-04-25T07:21:57.391Z</time></trkpt><trkpt lat="43.862347" lon="12.3992318"><ele>613.2</ele><time>2026-04-25T07:21:58.39Z</time></trkpt><trkpt lat="43.8622445" lon="12.3992382"><ele>616.0</ele><time>2026-04-25T07:21:59.391Z</time></trkpt><trkpt lat="43.8621375" lon="12.3992425"><ele>616.0</ele><time>2026-04-25T07:22:00.39Z</time></trkpt><trkpt lat="43.8620356" lon="12.399247"><ele>616.0</ele><time>2026-04-25T07:22:01.391Z</time></trkpt><trkpt lat="43.8619379" lon="12.3992452"><ele>616.0</ele><time>2026-04-25T07:22:02.391Z</time></trkpt><trkpt lat="43.8618409" lon="12.3992346"><ele>616.0</ele><time>2026-04-25T07:22:03.391Z</time></trkpt><trkpt lat="43.8617425" lon="12.3992047"><ele>616.0</ele><time>2026-04-25T07:22:04.391Z</time></trkpt><trkpt lat="43.8616415" lon="12.3991548"><ele>618.5</ele><time>2026-04-25T07:22:05.391Z</time></trkpt><trkpt lat="43.8615379" lon="12.3990973"><ele>621.0</ele><time>2026-04-25T07:22:06.39Z</time></trkpt><trkpt lat="43.8614337" lon="12.3990343"><ele>623.5</ele><time>2026-04-25T07:22:07.39Z</time></trkpt><trkpt lat="43.8613248" lon="12.3989686"><ele>626.0</ele><time>2026-04-25T07:22:08.39Z</time></trkpt><trkpt lat="43.8612157" lon="12.3989141"><ele>626.0</ele><time>2026-04-25T07:22:09.39Z</time></trkpt><trkpt lat="43.8611241" lon="12.3988713"><ele>626.0</ele><time>2026-04-25T07:22:10.391Z</time></trkpt><trkpt lat="43.8610358" lon="12.3988396"><ele>626.0</ele><time>2026-04-25T07:22:11.391Z</time></trkpt><trkpt lat="43.8609595" lon="12.3988134"><ele>626.0</ele><time>2026-04-25T07:22:12.391Z</time></trkpt><trkpt lat="43.8608627" lon="12.3987359"><ele>626.0</ele><time>2026-04-25T07:22:14.39Z</time></trkpt><trkpt lat="43.8607811" lon="12.3986865"><ele>627.75</ele><time>2026-04-25T07:22:16.391Z</time></trkpt><trkpt lat="43.8606464" lon="12.3987272"><ele>629.5</ele><time>2026-04-25T07:22:18.39Z</time></trkpt><trkpt lat="43.8605443" lon="12.3987768"><ele>631.25</ele><time>2026-04-25T07:22:19.39Z</time></trkpt><trkpt lat="43.8604258" lon="12.3988321"><ele>633.0</ele><time>2026-04-25T07:22:20.391Z</time></trkpt><trkpt lat="43.860302" lon="12.3988806"><ele>633.0</ele><time>2026-04-25T07:22:21.391Z</time></trkpt><trkpt lat="43.8601755" lon="12.3989325"><ele>633.0</ele><time>2026-04-25T07:22:22.39Z</time></trkpt><trkpt lat="43.8600495" lon="12.3989911"><ele>633.0</ele><time>2026-04-25T07:22:23.39Z</time></trkpt><trkpt lat="43.8599182" lon="12.3990488"><ele>633.0</ele><time>2026-04-25T07:22:24.39Z</time></trkpt><trkpt lat="43.8597941" lon="12.399094"><ele>634.5</ele><time>2026-04-25T07:22:25.39Z</time></trkpt><trkpt lat="43.8596675" lon="12.3991363"><ele>636.0</ele><time>2026-04-25T07:22:26.391Z</time></trkpt><trkpt lat="43.8595429" lon="12.3991691"><ele>637.5</ele><time>2026-04-25T07:22:27.391Z</time></trkpt><trkpt lat="43.859428" lon="12.3992037"><ele>639.0</ele><time>2026-04-25T07:22:28.39Z</time></trkpt><trkpt lat="43.8593265" lon="12.3992447"><ele>641.0</ele><time>2026-04-25T07:22:29.391Z</time></trkpt><trkpt lat="43.8592355" lon="12.3992987"><ele>643.0</ele><time>2026-04-25T07:22:30.391Z</time></trkpt><trkpt lat="43.8591463" lon="12.3993711"><ele>645.0</ele><time>2026-04-25T07:22:31.39Z</time></trkpt><trkpt lat="43.8590594" lon="12.3994515"><ele>647.0</ele><time>2026-04-25T07:22:32.391Z</time></trkpt><trkpt lat="43.858982" lon="12.3995269"><ele>649.0</ele><time>2026-04-25T07:22:33.391Z</time></trkpt><trkpt lat="43.8589059" lon="12.399605"><ele>649.0</ele><time>2026-04-25T07:22:34.39Z</time></trkpt><trkpt lat="43.8588268" lon="12.3996748"><ele>649.0</ele><time>2026-04-25T07:22:35.391Z</time></trkpt><trkpt lat="43.8587457" lon="12.3997209"><ele>649.0</ele><time>2026-04-25T07:22:36.39Z</time></trkpt><trkpt lat="43.8586755" lon="12.3997418"><ele>649.0</ele><time>2026-04-25T07:22:37.391Z</time></trkpt><trkpt lat="43.8585991" lon="12.399741"><ele>649.0</ele><time>2026-04-25T07:22:39.391Z</time></trkpt><trkpt lat="43.85853" lon="12.3996533"><ele>649.0</ele><time>2026-04-25T07:26:31.391Z</time></trkpt><trkpt lat="43.8584767" lon="12.3995333"><ele>649.0</ele><time>2026-04-25T07:26:33.39Z</time></trkpt><trkpt lat="43.8584567" lon="12.399435"><ele>649.0</ele><time>2026-04-25T07:26:34.39Z</time></trkpt><trkpt lat="43.8584467" lon="12.3993133"><ele>649.0</ele><time>2026-04-25T07:26:35.391Z</time></trkpt><trkpt lat="43.858445" lon="12.399165"><ele>649.0</ele><time>2026-04-25T07:26:36.391Z</time></trkpt><trkpt lat="43.8584517" lon="12.3990133"><ele>649.0</ele><time>2026-04-25T07:26:37.39Z</time></trkpt><trkpt lat="43.85846" lon="12.3988633"><ele>651.0</ele><time>2026-04-25T07:26:38.39Z</time></trkpt><trkpt lat="43.8584717" lon="12.3987"><ele>653.0</ele><time>2026-04-25T07:26:39.39Z</time></trkpt><trkpt lat="43.8584917" lon="12.3985367"><ele>655.0</ele><time>2026-04-25T07:26:40.391Z</time></trkpt><trkpt lat="43.8585233" lon="12.3983867"><ele>657.0</ele><time>2026-04-25T07:26:41.39Z</time></trkpt><trkpt lat="43.858565" lon="12.3982233"><ele>657.0</ele><time>2026-04-25T07:26:42.391Z</time></trkpt><trkpt lat="43.8586" lon="12.3980617"><ele>657.0</ele><time>2026-04-25T07:26:43.391Z</time></trkpt><trkpt lat="43.8586233" lon="12.39792"><ele>657.0</ele><time>2026-04-25T07:26:44.391Z</time></trkpt><trkpt lat="43.8586517" lon="12.3977783"><ele>657.0</ele><time>2026-04-25T07:26:45.39Z</time></trkpt><trkpt lat="43.85868" lon="12.3976167"><ele>659.0</ele><time>2026-04-25T07:26:46.391Z</time></trkpt><trkpt lat="43.8587083" lon="12.3974333"><ele>661.0</ele><time>2026-04-25T07:26:47.39Z</time></trkpt><trkpt lat="43.858725" lon="12.3972417"><ele>663.0</ele><time>2026-04-25T07:26:48.391Z</time></trkpt><trkpt lat="43.8587317" lon="12.3970417"><ele>665.0</ele><time>2026-04-25T07:26:49.39Z</time></trkpt><trkpt lat="43.8587283" lon="12.3968317"><ele>666.75</ele><time>2026-04-25T07:26:50.391Z</time></trkpt><trkpt lat="43.858715" lon="12.3966367"><ele>668.5</ele><time>2026-04-25T07:26:51.391Z</time></trkpt><trkpt lat="43.8586983" lon="12.3964467"><ele>670.25</ele><time>2026-04-25T07:26:52.391Z</time></trkpt><trkpt lat="43.8586833" lon="12.3962633"><ele>672.0</ele><time>2026-04-25T07:26:53.39Z</time></trkpt><trkpt lat="43.8586617" lon="12.3960833"><ele>673.0</ele><time>2026-04-25T07:26:54.391Z</time></trkpt><trkpt lat="43.85864" lon="12.3958967"><ele>674.0</ele><time>2026-04-25T07:26:55.391Z</time></trkpt><trkpt lat="43.85862" lon="12.3957267"><ele>675.0</ele><time>2026-04-25T07:26:56.39Z</time></trkpt><trkpt lat="43.858595" lon="12.3955683"><ele>676.0</ele><time>2026-04-25T07:26:57.391Z</time></trkpt><trkpt lat="43.8585717" lon="12.3954167"><ele>677.0</ele><time>2026-04-25T07:26:58.391Z</time></trkpt><trkpt lat="43.8585533" lon="12.3952567"><ele>678.0</ele><time>2026-04-25T07:26:59.39Z</time></trkpt><trkpt lat="43.8585417" lon="12.3951017"><ele>679.0</ele><time>2026-04-25T07:27:00.39Z</time></trkpt><trkpt lat="43.8585367" lon="12.3949333"><ele>680.0</ele><time>2026-04-25T07:27:01.391Z</time></trkpt><trkpt lat="43.8585383" lon="12.3947567"><ele>680.75</ele><time>2026-04-25T07:27:02.391Z</time></trkpt><trkpt lat="43.858535" lon="12.3945667"><ele>681.5</ele><time>2026-04-25T07:27:03.391Z</time></trkpt><trkpt lat="43.8585283" lon="12.3943867"><ele>682.25</ele><time>2026-04-25T07:27:04.39Z</time></trkpt><trkpt lat="43.8585267" lon="12.394225"><ele>683.0</ele><time>2026-04-25T07:27:05.391Z</time></trkpt><trkpt lat="43.8585183" lon="12.3940683"><ele>683.0</ele><time>2026-04-25T07:27:06.39Z</time></trkpt><trkpt lat="43.858505" lon="12.39393"><ele>683.0</ele><time>2026-04-25T07:27:07.391Z</time></trkpt><trkpt lat="43.8584817" lon="12.39382"><ele>683.0</ele><time>2026-04-25T07:27:08.391Z</time></trkpt><trkpt lat="43.858455" lon="12.3937233"><ele>683.0</ele><time>2026-04-25T07:27:09.391Z</time></trkpt><trkpt lat="43.8584283" lon="12.39362"><ele>683.0</ele><time>2026-04-25T07:27:10.391Z</time></trkpt><trkpt lat="43.8583983" lon="12.39352"><ele>683.0</ele><time>2026-04-25T07:27:11.391Z</time></trkpt><trkpt lat="43.8583617" lon="12.3934217"><ele>687.2</ele><time>2026-04-25T07:27:12.39Z</time></trkpt><trkpt lat="43.85832" lon="12.3933283"><ele>691.4</ele><time>2026-04-25T07:27:13.391Z</time></trkpt><trkpt lat="43.85827" lon="12.393235"><ele>695.6</ele><time>2026-04-25T07:27:14.391Z</time></trkpt><trkpt lat="43.8582167" lon="12.3931267"><ele>699.8000000000001</ele><time>2026-04-25T07:27:15.391Z</time></trkpt><trkpt lat="43.858175" lon="12.3930017"><ele>704.0</ele><time>2026-04-25T07:27:16.391Z</time></trkpt><trkpt lat="43.8581333" lon="12.3928767"><ele>704.8000000000001</ele><time>2026-04-25T07:27:17.39Z</time></trkpt><trkpt lat="43.8581055" lon="12.3927615"><ele>705.6</ele><time>2026-04-25T07:27:18.391Z</time></trkpt><trkpt lat="43.8580854" lon="12.3926375"><ele>706.4</ele><time>2026-04-25T07:27:19.39Z</time></trkpt><trkpt lat="43.8580678" lon="12.3924988"><ele>707.2</ele><time>2026-04-25T07:27:20.391Z</time></trkpt><trkpt lat="43.858062" lon="12.3923507"><ele>708.0</ele><time>2026-04-25T07:27:21.391Z</time></trkpt><trkpt lat="43.8580655" lon="12.392216"><ele>708.4</ele><time>2026-04-25T07:27:22.391Z</time></trkpt><trkpt lat="43.858078" lon="12.392099"><ele>708.8</ele><time>2026-04-25T07:27:23.391Z</time></trkpt><trkpt lat="43.8580854" lon="12.3919827"><ele>709.2</ele><time>2026-04-25T07:27:24.391Z</time></trkpt><trkpt lat="43.8580742" lon="12.3918567"><ele>709.6</ele><time>2026-04-25T07:27:25.391Z</time></trkpt><trkpt lat="43.858043" lon="12.3917247"><ele>710.0</ele><time>2026-04-25T07:27:26.39Z</time></trkpt><trkpt lat="43.8579875" lon="12.3915826"><ele>710.0</ele><time>2026-04-25T07:27:27.391Z</time></trkpt><trkpt lat="43.8579186" lon="12.3914425"><ele>710.0</ele><time>2026-04-25T07:27:28.391Z</time></trkpt><trkpt lat="43.8578439" lon="12.3912999"><ele>710.0</ele><time>2026-04-25T07:27:29.39Z</time></trkpt><trkpt lat="43.8577737" lon="12.3911605"><ele>710.0</ele><time>2026-04-25T07:27:30.39Z</time></trkpt><trkpt lat="43.8577102" lon="12.3910455"><ele>709.4</ele><time>2026-04-25T07:27:31.391Z</time></trkpt><trkpt lat="43.8576533" lon="12.3909429"><ele>708.8</ele><time>2026-04-25T07:27:32.391Z</time></trkpt><trkpt lat="43.8576039" lon="12.3908437"><ele>708.2</ele><time>2026-04-25T07:27:33.39Z</time></trkpt><trkpt lat="43.8575554" lon="12.3907429"><ele>707.6</ele><time>2026-04-25T07:27:34.39Z</time></trkpt><trkpt lat="43.8575001" lon="12.3906364"><ele>707.0</ele><time>2026-04-25T07:27:35.391Z</time></trkpt><trkpt lat="43.8574409" lon="12.3905288"><ele>709.2</ele><time>2026-04-25T07:27:36.39Z</time></trkpt><trkpt lat="43.8573747" lon="12.3904112"><ele>711.4000000000001</ele><time>2026-04-25T07:27:37.391Z</time></trkpt><trkpt lat="43.8573039" lon="12.3902898"><ele>713.5999999999999</ele><time>2026-04-25T07:27:38.39Z</time></trkpt><trkpt lat="43.857224" lon="12.390176"><ele>715.8</ele><time>2026-04-25T07:27:39.39Z</time></trkpt><trkpt lat="43.857142" lon="12.3900658"><ele>718.0</ele><time>2026-04-25T07:27:40.391Z</time></trkpt><trkpt lat="43.857052" lon="12.389948"><ele>718.0</ele><time>2026-04-25T07:27:41.391Z</time></trkpt><trkpt lat="43.8569621" lon="12.3898308"><ele>718.0</ele><time>2026-04-25T07:27:42.391Z</time></trkpt><trkpt lat="43.8568801" lon="12.3897198"><ele>718.0</ele><time>2026-04-25T07:27:43.39Z</time></trkpt><trkpt lat="43.8568101" lon="12.3895993"><ele>718.0</ele><time>2026-04-25T07:27:44.39Z</time></trkpt><trkpt lat="43.8567674" lon="12.3894543"><ele>718.0</ele><time>2026-04-25T07:27:45.39Z</time></trkpt><trkpt lat="43.8567479" lon="12.3892991"><ele>718.0</ele><time>2026-04-25T07:27:46.39Z</time></trkpt><trkpt lat="43.8567401" lon="12.3891524"><ele>718.0</ele><time>2026-04-25T07:27:47.391Z</time></trkpt><trkpt lat="43.8567153" lon="12.3889961"><ele>718.0</ele><time>2026-04-25T07:27:48.391Z</time></trkpt><trkpt lat="43.8566776" lon="12.3888454"><ele>717.25</ele><time>2026-04-25T07:27:49.39Z</time></trkpt><trkpt lat="43.8566283" lon="12.3886867"><ele>716.5</ele><time>2026-04-25T07:27:50.391Z</time></trkpt><trkpt lat="43.8565817" lon="12.3885167"><ele>715.75</ele><time>2026-04-25T07:27:51.391Z</time></trkpt><trkpt lat="43.85654" lon="12.3883567"><ele>715.0</ele><time>2026-04-25T07:27:52.391Z</time></trkpt><trkpt lat="43.85649" lon="12.3882"><ele>715.0</ele><time>2026-04-25T07:27:53.39Z</time></trkpt><trkpt lat="43.8564483" lon="12.38805"><ele>715.0</ele><time>2026-04-25T07:27:54.39Z</time></trkpt><trkpt lat="43.8564" lon="12.387915"><ele>715.0</ele><time>2026-04-25T07:27:55.391Z</time></trkpt><trkpt lat="43.8563367" lon="12.387795"><ele>715.0</ele><time>2026-04-25T07:27:56.391Z</time></trkpt><trkpt lat="43.8562733" lon="12.38769"><ele>715.0</ele><time>2026-04-25T07:27:57.391Z</time></trkpt><trkpt lat="43.856185" lon="12.3876017"><ele>715.25</ele><time>2026-04-25T07:27:58.39Z</time></trkpt><trkpt lat="43.8560817" lon="12.3875183"><ele>715.5</ele><time>2026-04-25T07:27:59.391Z</time></trkpt><trkpt lat="43.8559733" lon="12.3874167"><ele>715.75</ele><time>2026-04-25T07:28:00.39Z</time></trkpt><trkpt lat="43.8558783" lon="12.38729"><ele>716.0</ele><time>2026-04-25T07:28:01.39Z</time></trkpt><trkpt lat="43.8557967" lon="12.3871567"><ele>716.0</ele><time>2026-04-25T07:28:02.39Z</time></trkpt><trkpt lat="43.8557283" lon="12.3870167"><ele>716.0</ele><time>2026-04-25T07:28:03.39Z</time></trkpt><trkpt lat="43.8556783" lon="12.3868717"><ele>716.0</ele><time>2026-04-25T07:28:04.39Z</time></trkpt><trkpt lat="43.8556433" lon="12.3867167"><ele>716.0</ele><time>2026-04-25T07:28:05.39Z</time></trkpt><trkpt lat="43.85561" lon="12.386555"><ele>716.0</ele><time>2026-04-25T07:28:06.391Z</time></trkpt><trkpt lat="43.8555833" lon="12.386395"><ele>716.0</ele><time>2026-04-25T07:28:07.391Z</time></trkpt><trkpt lat="43.855545" lon="12.3862317"><ele>716.0</ele><time>2026-04-25T07:28:08.391Z</time></trkpt><trkpt lat="43.855505" lon="12.3860717"><ele>716.0</ele><time>2026-04-25T07:28:09.39Z</time></trkpt><trkpt lat="43.8554633" lon="12.38592"><ele>714.75</ele><time>2026-04-25T07:28:10.39Z</time></trkpt><trkpt lat="43.8554283" lon="12.3857783"><ele>713.5</ele><time>2026-04-25T07:28:11.391Z</time></trkpt><trkpt lat="43.8553833" lon="12.38564"><ele>712.25</ele><time>2026-04-25T07:28:12.391Z</time></trkpt><trkpt lat="43.8553333" lon="12.385495"><ele>711.0</ele><time>2026-04-25T07:28:13.391Z</time></trkpt><trkpt lat="43.8552883" lon="12.3853367"><ele>711.0</ele><time>2026-04-25T07:28:14.39Z</time></trkpt><trkpt lat="43.8552533" lon="12.3851667"><ele>711.0</ele><time>2026-04-25T07:28:15.39Z</time></trkpt><trkpt lat="43.8552333" lon="12.3850083"><ele>711.0</ele><time>2026-04-25T07:28:16.391Z</time></trkpt><trkpt lat="43.85521" lon="12.3848367"><ele>711.0</ele><time>2026-04-25T07:28:17.391Z</time></trkpt><trkpt lat="43.8551783" lon="12.384675"><ele>711.0</ele><time>2026-04-25T07:28:18.39Z</time></trkpt><trkpt lat="43.855145" lon="12.38453"><ele>711.0</ele><time>2026-04-25T07:28:19.391Z</time></trkpt><trkpt lat="43.8551067" lon="12.3843983"><ele>711.0</ele><time>2026-04-25T07:28:20.39Z</time></trkpt><trkpt lat="43.8550733" lon="12.3842667"><ele>711.0</ele><time>2026-04-25T07:28:21.39Z</time></trkpt><trkpt lat="43.8550483" lon="12.3841533"><ele>711.0</ele><time>2026-04-25T07:28:22.39Z</time></trkpt><trkpt lat="43.8550217" lon="12.384055"><ele>713.5</ele><time>2026-04-25T07:28:23.391Z</time></trkpt><trkpt lat="43.8549933" lon="12.3839617"><ele>716.0</ele><time>2026-04-25T07:28:24.391Z</time></trkpt><trkpt lat="43.8549667" lon="12.3838783"><ele>718.5</ele><time>2026-04-25T07:28:25.39Z</time></trkpt><trkpt lat="43.8549433" lon="12.3837833"><ele>721.0</ele><time>2026-04-25T07:28:26.391Z</time></trkpt><trkpt lat="43.85493" lon="12.3836917"><ele>723.5</ele><time>2026-04-25T07:28:27.391Z</time></trkpt><trkpt lat="43.8549083" lon="12.383535"><ele>726.0</ele><time>2026-04-25T07:28:29.391Z</time></trkpt><trkpt lat="43.8548867" lon="12.3833983"><ele>726.8</ele><time>2026-04-25T07:28:31.391Z</time></trkpt><trkpt lat="43.8548533" lon="12.38325"><ele>727.5999999999999</ele><time>2026-04-25T07:28:33.391Z</time></trkpt><trkpt lat="43.85483" lon="12.3831133"><ele>728.4</ele><time>2026-04-25T07:28:35.391Z</time></trkpt><trkpt lat="43.854805" lon="12.3829983"><ele>729.2</ele><time>2026-04-25T07:28:37.391Z</time></trkpt><trkpt lat="43.8547683" lon="12.3828833"><ele>730.0</ele><time>2026-04-25T07:28:39.391Z</time></trkpt><trkpt lat="43.85472" lon="12.382725"><ele>730.8</ele><time>2026-04-25T07:28:41.391Z</time></trkpt><trkpt lat="43.8546933" lon="12.3826367"><ele>731.6</ele><time>2026-04-25T07:28:42.391Z</time></trkpt><trkpt lat="43.85464" lon="12.3825"><ele>732.4000000000001</ele><time>2026-04-25T07:28:44.39Z</time></trkpt><trkpt lat="43.854575" lon="12.382395"><ele>733.2</ele><time>2026-04-25T07:28:46.391Z</time></trkpt><trkpt lat="43.8544983" lon="12.3822867"><ele>734.0</ele><time>2026-04-25T07:28:48.391Z</time></trkpt><trkpt lat="43.8544017" lon="12.38219"><ele>735.2</ele><time>2026-04-25T07:28:50.39Z</time></trkpt><trkpt lat="43.8543" lon="12.3821017"><ele>736.4000000000001</ele><time>2026-04-25T07:28:52.391Z</time></trkpt><trkpt lat="43.8542017" lon="12.38204"><ele>737.6</ele><time>2026-04-25T07:28:54.39Z</time></trkpt><trkpt lat="43.8541367" lon="12.3820217"><ele>738.8</ele><time>2026-04-25T07:28:55.391Z</time></trkpt><trkpt lat="43.8540233" lon="12.3820167"><ele>740.0</ele><time>2026-04-25T07:28:57.391Z</time></trkpt><trkpt lat="43.8539067" lon="12.3820467"><ele>742.3333333333333</ele><time>2026-04-25T07:28:59.39Z</time></trkpt><trkpt lat="43.853815" lon="12.3820517"><ele>744.6666666666666</ele><time>2026-04-25T07:29:01.39Z</time></trkpt><trkpt lat="43.85375" lon="12.381985"><ele>747.0</ele><time>2026-04-25T07:29:03.39Z</time></trkpt><trkpt lat="43.85374" lon="12.3818333"><ele>749.3333333333334</ele><time>2026-04-25T07:29:05.391Z</time></trkpt><trkpt lat="43.8537633" lon="12.3817417"><ele>751.6666666666667</ele><time>2026-04-25T07:29:06.39Z</time></trkpt><trkpt lat="43.8538" lon="12.38165"><ele>754.0</ele><time>2026-04-25T07:29:07.391Z</time></trkpt><trkpt lat="43.8538367" lon="12.3815483"><ele>754.0</ele><time>2026-04-25T07:29:08.391Z</time></trkpt><trkpt lat="43.8538683" lon="12.381465"><ele>754.0</ele><time>2026-04-25T07:29:09.391Z</time></trkpt><trkpt lat="43.8538933" lon="12.3813167"><ele>754.0</ele><time>2026-04-25T07:29:11.391Z</time></trkpt><trkpt lat="43.8538967" lon="12.3811483"><ele>754.0</ele><time>2026-04-25T07:29:13.391Z</time></trkpt><trkpt lat="43.8539233" lon="12.3810583"><ele>754.0</ele><time>2026-04-25T07:29:14.391Z</time></trkpt><trkpt lat="43.85397" lon="12.3809667"><ele>756.0</ele><time>2026-04-25T07:29:15.39Z</time></trkpt><trkpt lat="43.8540167" lon="12.3808533"><ele>758.0</ele><time>2026-04-25T07:29:16.39Z</time></trkpt><trkpt lat="43.8540717" lon="12.38071"><ele>760.0</ele><time>2026-04-25T07:29:17.391Z</time></trkpt><trkpt lat="43.8541333" lon="12.3805533"><ele>762.0</ele><time>2026-04-25T07:29:18.391Z</time></trkpt><trkpt lat="43.8541817" lon="12.3804067"><ele>761.6</ele><time>2026-04-25T07:29:19.39Z</time></trkpt><trkpt lat="43.8542383" lon="12.3802717"><ele>761.2</ele><time>2026-04-25T07:29:20.39Z</time></trkpt><trkpt lat="43.8542917" lon="12.38014"><ele>760.8</ele><time>2026-04-25T07:29:21.391Z</time></trkpt><trkpt lat="43.8543633" lon="12.3800317"><ele>760.4</ele><time>2026-04-25T07:29:22.39Z</time></trkpt><trkpt lat="43.8544583" lon="12.3799417"><ele>760.0</ele><time>2026-04-25T07:29:23.39Z</time></trkpt><trkpt lat="43.8545533" lon="12.3798533"><ele>760.0</ele><time>2026-04-25T07:29:24.39Z</time></trkpt><trkpt lat="43.8546483" lon="12.3797617"><ele>760.0</ele><time>2026-04-25T07:29:25.391Z</time></trkpt><trkpt lat="43.8547267" lon="12.37967"><ele>760.0</ele><time>2026-04-25T07:29:26.39Z</time></trkpt><trkpt lat="43.8548083" lon="12.3795817"><ele>760.0</ele><time>2026-04-25T07:29:27.39Z</time></trkpt><trkpt lat="43.8548933" lon="12.37951"><ele>760.0</ele><time>2026-04-25T07:29:28.39Z</time></trkpt><trkpt lat="43.8549767" lon="12.3794683"><ele>760.3333333333334</ele><time>2026-04-25T07:29:29.391Z</time></trkpt><trkpt lat="43.8550617" lon="12.3794467"><ele>760.6666666666667</ele><time>2026-04-25T07:29:30.391Z</time></trkpt><trkpt lat="43.855155" lon="12.3794333"><ele>761.0</ele><time>2026-04-25T07:29:31.39Z</time></trkpt><trkpt lat="43.8552433" lon="12.379425"><ele>761.3333333333334</ele><time>2026-04-25T07:29:32.391Z</time></trkpt><trkpt lat="43.8553083" lon="12.379425"><ele>761.6666666666666</ele><time>2026-04-25T07:29:33.39Z</time></trkpt><trkpt lat="43.85541" lon="12.3794483"><ele>762.0</ele><time>2026-04-25T07:29:35.391Z</time></trkpt><trkpt lat="43.855315" lon="12.379435"><ele>762.0</ele><time>2026-04-25T07:29:54.39Z</time></trkpt><trkpt lat="43.8552433" lon="12.37943"><ele>762.0</ele><time>2026-04-25T07:29:55.391Z</time></trkpt><trkpt lat="43.85518" lon="12.3794183"><ele>762.0</ele><time>2026-04-25T07:29:56.391Z</time></trkpt><trkpt lat="43.85511" lon="12.3793883"><ele>762.0</ele><time>2026-04-25T07:30:04.39Z</time></trkpt><trkpt lat="43.8550483" lon="12.3793267"><ele>762.0</ele><time>2026-04-25T07:30:07.391Z</time></trkpt><trkpt lat="43.8549867" lon="12.3792767"><ele>762.0</ele><time>2026-04-25T07:30:09.39Z</time></trkpt><trkpt lat="43.8549" lon="12.37922"><ele>762.0</ele><time>2026-04-25T07:30:11.391Z</time></trkpt><trkpt lat="43.8548367" lon="12.37918"><ele>762.0</ele><time>2026-04-25T07:30:13.391Z</time></trkpt><trkpt lat="43.8547467" lon="12.3791033"><ele>762.0</ele><time>2026-04-25T07:30:16.39Z</time></trkpt><trkpt lat="43.8546533" lon="12.3790467"><ele>762.0</ele><time>2026-04-25T07:30:18.391Z</time></trkpt><trkpt lat="43.8545583" lon="12.3789867"><ele>762.0</ele><time>2026-04-25T07:30:20.39Z</time></trkpt><trkpt lat="43.8545" lon="12.3789183"><ele>761.1666666666666</ele><time>2026-04-25T07:30:22.39Z</time></trkpt><trkpt lat="43.8544583" lon="12.3788317"><ele>760.3333333333334</ele><time>2026-04-25T07:30:25.391Z</time></trkpt><trkpt lat="43.8544417" lon="12.37871"><ele>759.5</ele><time>2026-04-25T07:30:28.391Z</time></trkpt><trkpt lat="43.8544283" lon="12.3786083"><ele>758.6666666666667</ele><time>2026-04-25T07:30:30.391Z</time></trkpt><trkpt lat="43.854415" lon="12.3784867"><ele>757.8333333333334</ele><time>2026-04-25T07:30:32.39Z</time></trkpt><trkpt lat="43.8543983" lon="12.3783817"><ele>757.0</ele><time>2026-04-25T07:30:34.39Z</time></trkpt><trkpt lat="43.8543883" lon="12.3782833"><ele>757.0</ele><time>2026-04-25T07:30:37.39Z</time></trkpt><trkpt lat="43.854375" lon="12.378155"><ele>757.0</ele><time>2026-04-25T07:30:41.391Z</time></trkpt><trkpt lat="43.8543733" lon="12.378045"><ele>757.0</ele><time>2026-04-25T07:30:43.391Z</time></trkpt><trkpt lat="43.85436" lon="12.3778883"><ele>757.0</ele><time>2026-04-25T07:30:45.391Z</time></trkpt><trkpt lat="43.8543533" lon="12.3777167"><ele>757.0</ele><time>2026-04-25T07:30:47.39Z</time></trkpt><trkpt lat="43.8543533" lon="12.3776267"><ele>757.3333333333334</ele><time>2026-04-25T07:30:48.39Z</time></trkpt><trkpt lat="43.8543417" lon="12.3775317"><ele>757.6666666666667</ele><time>2026-04-25T07:30:49.391Z</time></trkpt><trkpt lat="43.8543233" lon="12.3774267"><ele>758.0</ele><time>2026-04-25T07:30:50.391Z</time></trkpt><trkpt lat="43.8542983" lon="12.377335"><ele>758.3333333333334</ele><time>2026-04-25T07:30:51.39Z</time></trkpt><trkpt lat="43.854275" lon="12.377245"><ele>758.6666666666666</ele><time>2026-04-25T07:30:52.391Z</time></trkpt><trkpt lat="43.8542283" lon="12.3771067"><ele>759.0</ele><time>2026-04-25T07:30:54.39Z</time></trkpt><trkpt lat="43.8541867" lon="12.377"><ele>760.1666666666666</ele><time>2026-04-25T07:30:56.391Z</time></trkpt><trkpt lat="43.854165" lon="12.3768833"><ele>761.3333333333334</ele><time>2026-04-25T07:30:58.39Z</time></trkpt><trkpt lat="43.8541667" lon="12.376765"><ele>762.5</ele><time>2026-04-25T07:31:00.39Z</time></trkpt><trkpt lat="43.8541583" lon="12.3766583"><ele>763.6666666666667</ele><time>2026-04-25T07:31:03.391Z</time></trkpt><trkpt lat="43.854145" lon="12.3765633"><ele>764.8333333333334</ele><time>2026-04-25T07:31:05.391Z</time></trkpt><trkpt lat="43.8541367" lon="12.3763917"><ele>766.0</ele><time>2026-04-25T07:31:07.39Z</time></trkpt><trkpt lat="43.854145" lon="12.3762983"><ele>766.0</ele><time>2026-04-25T07:31:08.39Z</time></trkpt><trkpt lat="43.8541633" lon="12.3761383"><ele>766.0</ele><time>2026-04-25T07:31:10.391Z</time></trkpt><trkpt lat="43.8541783" lon="12.37598"><ele>766.0</ele><time>2026-04-25T07:31:12.391Z</time></trkpt><trkpt lat="43.8541883" lon="12.375825"><ele>766.0</ele><time>2026-04-25T07:31:14.39Z</time></trkpt><trkpt lat="43.8541967" lon="12.3756733"><ele>766.0</ele><time>2026-04-25T07:31:16.39Z</time></trkpt><trkpt lat="43.854185" lon="12.3755383"><ele>766.0</ele><time>2026-04-25T07:31:18.39Z</time></trkpt><trkpt lat="43.8541667" lon="12.3754117"><ele>766.0</ele><time>2026-04-25T07:31:21.391Z</time></trkpt><trkpt lat="43.8541267" lon="12.3752917"><ele>766.0</ele><time>2026-04-25T07:31:23.391Z</time></trkpt><trkpt lat="43.8540933" lon="12.375185"><ele>766.0</ele><time>2026-04-25T07:31:25.39Z</time></trkpt><trkpt lat="43.8540617" lon="12.3750783"><ele>766.1666666666667</ele><time>2026-04-25T07:31:27.391Z</time></trkpt><trkpt lat="43.854035" lon="12.3749683"><ele>766.3333333333334</ele><time>2026-04-25T07:31:29.391Z</time></trkpt><trkpt lat="43.854015" lon="12.374875"><ele>766.5</ele><time>2026-04-25T07:31:31.39Z</time></trkpt><trkpt lat="43.8539733" lon="12.3747483"><ele>766.6666666666666</ele><time>2026-04-25T07:31:34.39Z</time></trkpt><trkpt lat="43.8539367" lon="12.37462"><ele>766.8333333333333</ele><time>2026-04-25T07:31:36.391Z</time></trkpt><trkpt lat="43.8539333" lon="12.374515"><ele>767.0</ele><time>2026-04-25T07:31:40.391Z</time></trkpt><trkpt lat="43.8539233" lon="12.3743717"><ele>766.5</ele><time>2026-04-25T07:31:43.391Z</time></trkpt><trkpt lat="43.8539083" lon="12.374215"><ele>766.0</ele><time>2026-04-25T07:31:45.39Z</time></trkpt><trkpt lat="43.8538833" lon="12.37406"><ele>765.5</ele><time>2026-04-25T07:31:47.39Z</time></trkpt><trkpt lat="43.8538583" lon="12.37391"><ele>765.0</ele><time>2026-04-25T07:31:49.391Z</time></trkpt><trkpt lat="43.8538117" lon="12.3737533"><ele>763.2</ele><time>2026-04-25T07:31:51.391Z</time></trkpt><trkpt lat="43.853755" lon="12.3736033"><ele>761.4</ele><time>2026-04-25T07:31:53.391Z</time></trkpt><trkpt lat="43.8537067" lon="12.37347"><ele>759.5999999999999</ele><time>2026-04-25T07:31:55.39Z</time></trkpt><trkpt lat="43.8536733" lon="12.3733183"><ele>757.8</ele><time>2026-04-25T07:31:57.391Z</time></trkpt><trkpt lat="43.85366" lon="12.3732283"><ele>756.0</ele><time>2026-04-25T07:31:58.39Z</time></trkpt><trkpt lat="43.8536533" lon="12.3731283"><ele>756.0</ele><time>2026-04-25T07:31:59.39Z</time></trkpt><trkpt lat="43.85365" lon="12.3730267"><ele>756.0</ele><time>2026-04-25T07:32:00.391Z</time></trkpt><trkpt lat="43.8536467" lon="12.372935"><ele>756.0</ele><time>2026-04-25T07:32:01.391Z</time></trkpt><trkpt lat="43.853645" lon="12.3728467"><ele>756.0</ele><time>2026-04-25T07:32:02.39Z</time></trkpt><trkpt lat="43.8536267" lon="12.3727133"><ele>756.0</ele><time>2026-04-25T07:32:04.391Z</time></trkpt><trkpt lat="43.853625" lon="12.372585"><ele>756.0</ele><time>2026-04-25T07:32:06.39Z</time></trkpt><trkpt lat="43.8536733" lon="12.3724983"><ele>756.4</ele><time>2026-04-25T07:32:08.391Z</time></trkpt><trkpt lat="43.8537717" lon="12.37238"><ele>756.8</ele><time>2026-04-25T07:32:10.391Z</time></trkpt><trkpt lat="43.8538233" lon="12.372315"><ele>757.1999999999999</ele><time>2026-04-25T07:32:11.391Z</time></trkpt><trkpt lat="43.8538683" lon="12.3722467"><ele>757.5999999999999</ele><time>2026-04-25T07:32:12.391Z</time></trkpt><trkpt lat="43.85394" lon="12.3721367"><ele>758.0</ele><time>2026-04-25T07:32:14.391Z</time></trkpt><trkpt lat="43.8540067" lon="12.3720433"><ele>759.6666666666666</ele><time>2026-04-25T07:32:16.39Z</time></trkpt><trkpt lat="43.854065" lon="12.3719783"><ele>761.3333333333333</ele><time>2026-04-25T07:32:18.391Z</time></trkpt><trkpt lat="43.8541317" lon="12.3719167"><ele>763.0</ele><time>2026-04-25T07:32:21.391Z</time></trkpt><trkpt lat="43.8541833" lon="12.3718367"><ele>764.6666666666666</ele><time>2026-04-25T07:32:23.391Z</time></trkpt><trkpt lat="43.854215" lon="12.3717217"><ele>766.3333333333334</ele><time>2026-04-25T07:32:25.391Z</time></trkpt><trkpt lat="43.8542317" lon="12.3715983"><ele>768.0</ele><time>2026-04-25T07:32:27.39Z</time></trkpt><trkpt lat="43.854225" lon="12.3714683"><ele>769.4</ele><time>2026-04-25T07:32:29.391Z</time></trkpt><trkpt lat="43.8541983" lon="12.3713033"><ele>770.8</ele><time>2026-04-25T07:32:31.391Z</time></trkpt><trkpt lat="43.8541883" lon="12.3712083"><ele>772.2</ele><time>2026-04-25T07:32:32.39Z</time></trkpt><trkpt lat="43.8541817" lon="12.371115"><ele>773.6</ele><time>2026-04-25T07:32:33.39Z</time></trkpt><trkpt lat="43.85421" lon="12.3709517"><ele>775.0</ele><time>2026-04-25T07:32:35.391Z</time></trkpt><trkpt lat="43.8542417" lon="12.37079"><ele>775.0</ele><time>2026-04-25T07:32:37.39Z</time></trkpt><trkpt lat="43.8542583" lon="12.37065"><ele>775.0</ele><time>2026-04-25T07:32:39.391Z</time></trkpt><trkpt lat="43.8542667" lon="12.3705133"><ele>775.0</ele><time>2026-04-25T07:32:41.391Z</time></trkpt><trkpt lat="43.8542617" lon="12.37036"><ele>775.0</ele><time>2026-04-25T07:32:43.391Z</time></trkpt><trkpt lat="43.854275" lon="12.3702017"><ele>775.0</ele><time>2026-04-25T07:32:45.391Z</time></trkpt><trkpt lat="43.8543167" lon="12.3701183"><ele>776.0</ele><time>2026-04-25T07:32:48.391Z</time></trkpt><trkpt lat="43.8544543" lon="12.3700873"><ele>777.0</ele><time>2026-04-25T07:33:01.415Z</time></trkpt><trkpt lat="43.8545792" lon="12.3700729"><ele>778.0</ele><time>2026-04-25T07:33:02.39Z</time></trkpt><trkpt lat="43.8546875" lon="12.3700495"><ele>779.0</ele><time>2026-04-25T07:33:03.391Z</time></trkpt><trkpt lat="43.8547802" lon="12.3700085"><ele>779.0</ele><time>2026-04-25T07:33:04.391Z</time></trkpt><trkpt lat="43.8548765" lon="12.3699669"><ele>779.0</ele><time>2026-04-25T07:33:05.391Z</time></trkpt><trkpt lat="43.8549656" lon="12.3699151"><ele>779.0</ele><time>2026-04-25T07:33:06.391Z</time></trkpt><trkpt lat="43.8550597" lon="12.3698605"><ele>779.0</ele><time>2026-04-25T07:33:07.391Z</time></trkpt><trkpt lat="43.8551702" lon="12.3697911"><ele>779.0</ele><time>2026-04-25T07:33:08.391Z</time></trkpt><trkpt lat="43.8552829" lon="12.3697214"><ele>781.0</ele><time>2026-04-25T07:33:09.391Z</time></trkpt><trkpt lat="43.8553891" lon="12.3696433"><ele>783.0</ele><time>2026-04-25T07:33:10.391Z</time></trkpt><trkpt lat="43.8554894" lon="12.3695541"><ele>785.0</ele><time>2026-04-25T07:33:11.39Z</time></trkpt><trkpt lat="43.8555813" lon="12.3694527"><ele>787.0</ele><time>2026-04-25T07:33:12.391Z</time></trkpt><trkpt lat="43.8556737" lon="12.3693466"><ele>787.0</ele><time>2026-04-25T07:33:13.391Z</time></trkpt><trkpt lat="43.8557621" lon="12.3692334"><ele>787.0</ele><time>2026-04-25T07:33:14.391Z</time></trkpt><trkpt lat="43.8558487" lon="12.3691373"><ele>787.0</ele><time>2026-04-25T07:33:15.391Z</time></trkpt><trkpt lat="43.8559231" lon="12.3690465"><ele>787.0</ele><time>2026-04-25T07:33:16.391Z</time></trkpt><trkpt lat="43.8559875" lon="12.3689751"><ele>787.0</ele><time>2026-04-25T07:33:17.39Z</time></trkpt><trkpt lat="43.85604" lon="12.368915"><ele>784.8</ele><time>2026-04-25T07:33:18.39Z</time></trkpt><trkpt lat="43.8561383" lon="12.3688117"><ele>782.6</ele><time>2026-04-25T07:33:20.391Z</time></trkpt><trkpt lat="43.8562017" lon="12.36876"><ele>780.4</ele><time>2026-04-25T07:33:21.391Z</time></trkpt><trkpt lat="43.85628" lon="12.3686933"><ele>778.1999999999999</ele><time>2026-04-25T07:33:22.39Z</time></trkpt><trkpt lat="43.8563833" lon="12.368615"><ele>776.0</ele><time>2026-04-25T07:33:23.391Z</time></trkpt><trkpt lat="43.856495" lon="12.36852"><ele>776.0</ele><time>2026-04-25T07:33:24.39Z</time></trkpt><trkpt lat="43.856615" lon="12.36841"><ele>776.0</ele><time>2026-04-25T07:33:25.391Z</time></trkpt><trkpt lat="43.85673" lon="12.368295"><ele>776.0</ele><time>2026-04-25T07:33:26.391Z</time></trkpt><trkpt lat="43.8568583" lon="12.3681933"><ele>776.0</ele><time>2026-04-25T07:33:27.39Z</time></trkpt><trkpt lat="43.8569817" lon="12.36809"><ele>772.3333333333334</ele><time>2026-04-25T07:33:28.391Z</time></trkpt><trkpt lat="43.8570983" lon="12.367955"><ele>768.6666666666667</ele><time>2026-04-25T07:33:29.39Z</time></trkpt><trkpt lat="43.8572" lon="12.3677917"><ele>765.0</ele><time>2026-04-25T07:33:30.39Z</time></trkpt><trkpt lat="43.8572883" lon="12.36763"><ele>765.0</ele><time>2026-04-25T07:33:31.391Z</time></trkpt><trkpt lat="43.8573783" lon="12.3674567"><ele>765.0</ele><time>2026-04-25T07:33:32.391Z</time></trkpt><trkpt lat="43.8574633" lon="12.3672867"><ele>765.0</ele><time>2026-04-25T07:33:33.39Z</time></trkpt><trkpt lat="43.8575383" lon="12.367115"><ele>765.0</ele><time>2026-04-25T07:33:34.39Z</time></trkpt><trkpt lat="43.8576067" lon="12.36694"><ele>765.0</ele><time>2026-04-25T07:33:35.39Z</time></trkpt><trkpt lat="43.8576767" lon="12.36678"><ele>765.0</ele><time>2026-04-25T07:33:36.391Z</time></trkpt><trkpt lat="43.8577633" lon="12.3666367"><ele>765.0</ele><time>2026-04-25T07:33:37.391Z</time></trkpt><trkpt lat="43.8578617" lon="12.366495"><ele>765.0</ele><time>2026-04-25T07:33:38.391Z</time></trkpt><trkpt lat="43.8579683" lon="12.3663567"><ele>769.0</ele><time>2026-04-25T07:33:39.391Z</time></trkpt><trkpt lat="43.8580717" lon="12.3662067"><ele>773.0</ele><time>2026-04-25T07:33:40.391Z</time></trkpt><trkpt lat="43.8581917" lon="12.3660533"><ele>777.0</ele><time>2026-04-25T07:33:41.391Z</time></trkpt><trkpt lat="43.8583133" lon="12.3659"><ele>777.0</ele><time>2026-04-25T07:33:42.39Z</time></trkpt><trkpt lat="43.8584333" lon="12.3657517"><ele>777.0</ele><time>2026-04-25T07:33:43.391Z</time></trkpt><trkpt lat="43.8585417" lon="12.3656117"><ele>777.0</ele><time>2026-04-25T07:33:44.39Z</time></trkpt><trkpt lat="43.858635" lon="12.365505"><ele>777.0</ele><time>2026-04-25T07:33:45.39Z</time></trkpt><trkpt lat="43.8587017" lon="12.3654117"><ele>775.6</ele><time>2026-04-25T07:33:46.391Z</time></trkpt><trkpt lat="43.858755" lon="12.3653033"><ele>774.2</ele><time>2026-04-25T07:33:47.39Z</time></trkpt><trkpt lat="43.8587933" lon="12.3651733"><ele>772.8</ele><time>2026-04-25T07:33:48.39Z</time></trkpt><trkpt lat="43.8587983" lon="12.3650267"><ele>771.4</ele><time>2026-04-25T07:33:49.39Z</time></trkpt><trkpt lat="43.85877" lon="12.3648817"><ele>770.0</ele><time>2026-04-25T07:33:50.391Z</time></trkpt><trkpt lat="43.8587233" lon="12.36473"><ele>768.8</ele><time>2026-04-25T07:33:51.39Z</time></trkpt><trkpt lat="43.8586733" lon="12.364585"><ele>767.6</ele><time>2026-04-25T07:33:52.391Z</time></trkpt><trkpt lat="43.8586283" lon="12.3644483"><ele>766.4000000000001</ele><time>2026-04-25T07:33:53.39Z</time></trkpt><trkpt lat="43.858595" lon="12.364325"><ele>765.2</ele><time>2026-04-25T07:33:54.39Z</time></trkpt><trkpt lat="43.858585" lon="12.3642183"><ele>764.0</ele><time>2026-04-25T07:33:55.391Z</time></trkpt><trkpt lat="43.858595" lon="12.36413"><ele>764.0</ele><time>2026-04-25T07:33:56.39Z</time></trkpt><trkpt lat="43.8586417" lon="12.3640533"><ele>764.0</ele><time>2026-04-25T07:33:57.391Z</time></trkpt><trkpt lat="43.8587117" lon="12.3640017"><ele>764.0</ele><time>2026-04-25T07:33:58.39Z</time></trkpt><trkpt lat="43.8588083" lon="12.3639783"><ele>764.0</ele><time>2026-04-25T07:33:59.391Z</time></trkpt><trkpt lat="43.85892" lon="12.3639783"><ele>764.0</ele><time>2026-04-25T07:34:00.391Z</time></trkpt><trkpt lat="43.8590433" lon="12.3639883"><ele>764.0</ele><time>2026-04-25T07:34:01.39Z</time></trkpt><trkpt lat="43.8591717" lon="12.3639767"><ele>764.0</ele><time>2026-04-25T07:34:02.391Z</time></trkpt><trkpt lat="43.85929" lon="12.363955"><ele>764.0</ele><time>2026-04-25T07:34:03.391Z</time></trkpt><trkpt lat="43.8593933" lon="12.3639183"><ele>764.0</ele><time>2026-04-25T07:34:04.39Z</time></trkpt><trkpt lat="43.8594867" lon="12.363855"><ele>760.0</ele><time>2026-04-25T07:34:05.39Z</time></trkpt><trkpt lat="43.8595817" lon="12.3637567"><ele>756.0</ele><time>2026-04-25T07:34:06.39Z</time></trkpt><trkpt lat="43.8596683" lon="12.3636267"><ele>752.0</ele><time>2026-04-25T07:34:07.391Z</time></trkpt><trkpt lat="43.85976" lon="12.3634767"><ele>748.0</ele><time>2026-04-25T07:34:08.391Z</time></trkpt><trkpt lat="43.859845" lon="12.3633367"><ele>748.0</ele><time>2026-04-25T07:34:09.39Z</time></trkpt><trkpt lat="43.8599217" lon="12.3632133"><ele>748.0</ele><time>2026-04-25T07:34:10.391Z</time></trkpt><trkpt lat="43.8599917" lon="12.36309"><ele>748.0</ele><time>2026-04-25T07:34:11.391Z</time></trkpt><trkpt lat="43.8600567" lon="12.3629467"><ele>748.0</ele><time>2026-04-25T07:34:12.39Z</time></trkpt><trkpt lat="43.8601133" lon="12.3627867"><ele>744.75</ele><time>2026-04-25T07:34:13.391Z</time></trkpt><trkpt lat="43.86018" lon="12.36262"><ele>741.5</ele><time>2026-04-25T07:34:14.39Z</time></trkpt><trkpt lat="43.860265" lon="12.3624783"><ele>738.25</ele><time>2026-04-25T07:34:15.391Z</time></trkpt><trkpt lat="43.8603633" lon="12.3623483"><ele>735.0</ele><time>2026-04-25T07:34:16.39Z</time></trkpt><trkpt lat="43.8604683" lon="12.3622183"><ele>735.75</ele><time>2026-04-25T07:34:17.391Z</time></trkpt><trkpt lat="43.8605733" lon="12.3620783"><ele>736.5</ele><time>2026-04-25T07:34:18.39Z</time></trkpt><trkpt lat="43.86067" lon="12.3619483"><ele>737.25</ele><time>2026-04-25T07:34:19.391Z</time></trkpt><trkpt lat="43.860765" lon="12.3618183"><ele>738.0</ele><time>2026-04-25T07:34:20.391Z</time></trkpt><trkpt lat="43.8608433" lon="12.3616817"><ele>738.0</ele><time>2026-04-25T07:34:21.39Z</time></trkpt><trkpt lat="43.86092" lon="12.3615517"><ele>738.0</ele><time>2026-04-25T07:34:22.39Z</time></trkpt><trkpt lat="43.8609783" lon="12.3614317"><ele>738.0</ele><time>2026-04-25T07:34:23.39Z</time></trkpt><trkpt lat="43.8610583" lon="12.3613283"><ele>738.0</ele><time>2026-04-25T07:34:24.39Z</time></trkpt><trkpt lat="43.8611533" lon="12.3612717"><ele>738.0</ele><time>2026-04-25T07:34:25.391Z</time></trkpt><trkpt lat="43.8612583" lon="12.3612533"><ele>737.0</ele><time>2026-04-25T07:34:26.391Z</time></trkpt><trkpt lat="43.8613683" lon="12.36128"><ele>736.0</ele><time>2026-04-25T07:34:27.391Z</time></trkpt><trkpt lat="43.8614933" lon="12.3613317"><ele>735.0</ele><time>2026-04-25T07:34:28.39Z</time></trkpt><trkpt lat="43.8616183" lon="12.361385"><ele>734.0</ele><time>2026-04-25T07:34:29.391Z</time></trkpt><trkpt lat="43.86174" lon="12.3614417"><ele>730.5</ele><time>2026-04-25T07:34:30.391Z</time></trkpt><trkpt lat="43.8618633" lon="12.3615033"><ele>727.0</ele><time>2026-04-25T07:34:31.39Z</time></trkpt><trkpt lat="43.8619717" lon="12.3615567"><ele>723.5</ele><time>2026-04-25T07:34:32.391Z</time></trkpt><trkpt lat="43.8620767" lon="12.3616217"><ele>720.0</ele><time>2026-04-25T07:34:33.391Z</time></trkpt><trkpt lat="43.8621783" lon="12.3616817"><ele>720.0</ele><time>2026-04-25T07:34:34.391Z</time></trkpt><trkpt lat="43.86228" lon="12.3617383"><ele>720.0</ele><time>2026-04-25T07:34:35.391Z</time></trkpt><trkpt lat="43.8623733" lon="12.3618167"><ele>720.0</ele><time>2026-04-25T07:34:36.39Z</time></trkpt><trkpt lat="43.8624617" lon="12.361895"><ele>720.0</ele><time>2026-04-25T07:34:37.391Z</time></trkpt><trkpt lat="43.8625517" lon="12.361945"><ele>720.0</ele><time>2026-04-25T07:34:38.39Z</time></trkpt><trkpt lat="43.8626533" lon="12.3619833"><ele>719.0</ele><time>2026-04-25T07:34:39.391Z</time></trkpt><trkpt lat="43.8627567" lon="12.3620467"><ele>718.0</ele><time>2026-04-25T07:34:40.391Z</time></trkpt><trkpt lat="43.8628617" lon="12.36213"><ele>717.0</ele><time>2026-04-25T07:34:41.391Z</time></trkpt><trkpt lat="43.862955" lon="12.3622283"><ele>716.0</ele><time>2026-04-25T07:34:42.39Z</time></trkpt><trkpt lat="43.8630517" lon="12.36232"><ele>714.5</ele><time>2026-04-25T07:34:43.39Z</time></trkpt><trkpt lat="43.86316" lon="12.3623817"><ele>713.0</ele><time>2026-04-25T07:34:44.391Z</time></trkpt><trkpt lat="43.863285" lon="12.3624167"><ele>711.5</ele><time>2026-04-25T07:34:45.39Z</time></trkpt><trkpt lat="43.8634083" lon="12.3624433"><ele>710.0</ele><time>2026-04-25T07:34:46.39Z</time></trkpt><trkpt lat="43.8635217" lon="12.362465"><ele>712.4</ele><time>2026-04-25T07:34:47.39Z</time></trkpt><trkpt lat="43.86362" lon="12.36249"><ele>714.8</ele><time>2026-04-25T07:34:48.391Z</time></trkpt><trkpt lat="43.8637283" lon="12.3625017"><ele>717.2</ele><time>2026-04-25T07:34:49.39Z</time></trkpt><trkpt lat="43.8638333" lon="12.3625117"><ele>719.6</ele><time>2026-04-25T07:34:50.39Z</time></trkpt><trkpt lat="43.8639117" lon="12.36254"><ele>722.0</ele><time>2026-04-25T07:34:51.391Z</time></trkpt><trkpt lat="43.8639683" lon="12.362585"><ele>722.0</ele><time>2026-04-25T07:34:52.39Z</time></trkpt><trkpt lat="43.8640167" lon="12.36266"><ele>722.0</ele><time>2026-04-25T07:34:53.39Z</time></trkpt><trkpt lat="43.86406" lon="12.3627617"><ele>722.0</ele><time>2026-04-25T07:34:54.39Z</time></trkpt><trkpt lat="43.86409" lon="12.36289"><ele>722.0</ele><time>2026-04-25T07:34:55.391Z</time></trkpt><trkpt lat="43.864125" lon="12.3630217"><ele>722.0</ele><time>2026-04-25T07:34:56.39Z</time></trkpt><trkpt lat="43.86416" lon="12.363135"><ele>722.0</ele><time>2026-04-25T07:34:57.391Z</time></trkpt><trkpt lat="43.86422" lon="12.3632367"><ele>723.75</ele><time>2026-04-25T07:34:58.391Z</time></trkpt><trkpt lat="43.864305" lon="12.36333"><ele>725.5</ele><time>2026-04-25T07:34:59.391Z</time></trkpt><trkpt lat="43.86441" lon="12.3634267"><ele>727.25</ele><time>2026-04-25T07:35:00.391Z</time></trkpt><trkpt lat="43.8645183" lon="12.363525"><ele>729.0</ele><time>2026-04-25T07:35:01.391Z</time></trkpt><trkpt lat="43.86463" lon="12.3636183"><ele>729.0</ele><time>2026-04-25T07:35:02.39Z</time></trkpt><trkpt lat="43.8647233" lon="12.3637183"><ele>729.0</ele><time>2026-04-25T07:35:03.391Z</time></trkpt><trkpt lat="43.8648017" lon="12.3638133"><ele>729.0</ele><time>2026-04-25T07:35:04.39Z</time></trkpt><trkpt lat="43.8648183" lon="12.36395"><ele>729.0</ele><time>2026-04-25T07:35:05.353Z</time></trkpt><trkpt lat="43.8648667" lon="12.3640517"><ele>729.0</ele><time>2026-04-25T07:35:06.589Z</time></trkpt><trkpt lat="43.8649117" lon="12.3642567"><ele>727.0</ele><time>2026-04-25T07:35:07.89Z</time></trkpt><trkpt lat="43.8649367" lon="12.364475"><ele>725.0</ele><time>2026-04-25T07:35:08.889Z</time></trkpt><trkpt lat="43.8649783" lon="12.36468"><ele>723.0</ele><time>2026-04-25T07:35:09.89Z</time></trkpt><trkpt lat="43.86504" lon="12.3649433"><ele>722.25</ele><time>2026-04-25T07:35:11.39Z</time></trkpt><trkpt lat="43.8650983" lon="12.3650983"><ele>721.5</ele><time>2026-04-25T07:35:12.39Z</time></trkpt><trkpt lat="43.8651717" lon="12.3652433"><ele>720.75</ele><time>2026-04-25T07:35:13.39Z</time></trkpt><trkpt lat="43.8652517" lon="12.3653783"><ele>720.0</ele><time>2026-04-25T07:35:14.39Z</time></trkpt><trkpt lat="43.8653533" lon="12.365505"><ele>720.5</ele><time>2026-04-25T07:35:15.39Z</time></trkpt><trkpt lat="43.8654517" lon="12.3656217"><ele>721.0</ele><time>2026-04-25T07:35:16.39Z</time></trkpt><trkpt lat="43.8655567" lon="12.3657383"><ele>721.5</ele><time>2026-04-25T07:35:17.39Z</time></trkpt><trkpt lat="43.865665" lon="12.3658483"><ele>722.0</ele><time>2026-04-25T07:35:18.39Z</time></trkpt><trkpt lat="43.8657733" lon="12.3659517"><ele>722.0</ele><time>2026-04-25T07:35:19.39Z</time></trkpt><trkpt lat="43.865885" lon="12.3660483"><ele>722.0</ele><time>2026-04-25T07:35:20.39Z</time></trkpt><trkpt lat="43.8659783" lon="12.3661417"><ele>722.0</ele><time>2026-04-25T07:35:21.39Z</time></trkpt><trkpt lat="43.8660533" lon="12.36623"><ele>722.0</ele><time>2026-04-25T07:35:22.39Z</time></trkpt><trkpt lat="43.8661083" lon="12.36631"><ele>722.0</ele><time>2026-04-25T07:35:23.39Z</time></trkpt><trkpt lat="43.8661533" lon="12.3663917"><ele>723.0</ele><time>2026-04-25T07:35:24.389Z</time></trkpt><trkpt lat="43.8661767" lon="12.3664767"><ele>724.0</ele><time>2026-04-25T07:35:25.389Z</time></trkpt><trkpt lat="43.8662117" lon="12.366585"><ele>725.0</ele><time>2026-04-25T07:35:27.39Z</time></trkpt><trkpt lat="43.8662883" lon="12.3666017"><ele>726.0</ele><time>2026-04-25T07:35:29.39Z</time></trkpt><trkpt lat="43.8663567" lon="12.3665833"><ele>727.0</ele><time>2026-04-25T07:35:30.389Z</time></trkpt><trkpt lat="43.8664417" lon="12.3665433"><ele>728.0</ele><time>2026-04-25T07:35:31.39Z</time></trkpt><trkpt lat="43.8665233" lon="12.366525"><ele>728.0</ele><time>2026-04-25T07:35:32.39Z</time></trkpt><trkpt lat="43.8666033" lon="12.3665167"><ele>728.0</ele><time>2026-04-25T07:35:33.389Z</time></trkpt><trkpt lat="43.8666617" lon="12.3664733"><ele>728.0</ele><time>2026-04-25T07:35:34.39Z</time></trkpt><trkpt lat="43.866725" lon="12.3664167"><ele>728.0</ele><time>2026-04-25T07:35:35.39Z</time></trkpt><trkpt lat="43.866775" lon="12.36632"><ele>728.0</ele><time>2026-04-25T07:35:36.39Z</time></trkpt><trkpt lat="43.866825" lon="12.3661983"><ele>728.0</ele><time>2026-04-25T07:35:37.39Z</time></trkpt><trkpt lat="43.8668767" lon="12.3660817"><ele>731.0</ele><time>2026-04-25T07:35:38.39Z</time></trkpt><trkpt lat="43.8669267" lon="12.3659717"><ele>734.0</ele><time>2026-04-25T07:35:39.39Z</time></trkpt><trkpt lat="43.8669767" lon="12.3658567"><ele>737.0</ele><time>2026-04-25T07:35:40.389Z</time></trkpt><trkpt lat="43.8670233" lon="12.36573"><ele>740.0</ele><time>2026-04-25T07:35:41.39Z</time></trkpt><trkpt lat="43.8670683" lon="12.3656067"><ele>743.0</ele><time>2026-04-25T07:35:42.389Z</time></trkpt><trkpt lat="43.8671067" lon="12.3654717"><ele>745.25</ele><time>2026-04-25T07:35:43.39Z</time></trkpt><trkpt lat="43.86714" lon="12.3653217"><ele>747.5</ele><time>2026-04-25T07:35:44.39Z</time></trkpt><trkpt lat="43.8671733" lon="12.365165"><ele>749.75</ele><time>2026-04-25T07:35:45.39Z</time></trkpt><trkpt lat="43.8672" lon="12.365005"><ele>752.0</ele><time>2026-04-25T07:35:46.39Z</time></trkpt><trkpt lat="43.8672267" lon="12.3648383"><ele>753.5</ele><time>2026-04-25T07:35:47.39Z</time></trkpt><trkpt lat="43.8672517" lon="12.36466"><ele>755.0</ele><time>2026-04-25T07:35:48.39Z</time></trkpt><trkpt lat="43.8672767" lon="12.36448"><ele>756.5</ele><time>2026-04-25T07:35:49.39Z</time></trkpt><trkpt lat="43.8673117" lon="12.3643117"><ele>758.0</ele><time>2026-04-25T07:35:50.39Z</time></trkpt><trkpt lat="43.867355" lon="12.36415"><ele>758.0</ele><time>2026-04-25T07:35:51.39Z</time></trkpt><trkpt lat="43.8674133" lon="12.3640083"><ele>758.0</ele><time>2026-04-25T07:35:52.389Z</time></trkpt><trkpt lat="43.867475" lon="12.3638933"><ele>758.0</ele><time>2026-04-25T07:35:53.389Z</time></trkpt><trkpt lat="43.867535" lon="12.3638033"><ele>758.0</ele><time>2026-04-25T07:35:54.39Z</time></trkpt><trkpt lat="43.8676067" lon="12.36371"><ele>758.0</ele><time>2026-04-25T07:35:55.389Z</time></trkpt><trkpt lat="43.867695" lon="12.3636267"><ele>758.0</ele><time>2026-04-25T07:35:56.39Z</time></trkpt><trkpt lat="43.8677933" lon="12.363535"><ele>758.0</ele><time>2026-04-25T07:35:57.389Z</time></trkpt><trkpt lat="43.867905" lon="12.3634333"><ele>758.0</ele><time>2026-04-25T07:35:58.39Z</time></trkpt><trkpt lat="43.8680167" lon="12.3633217"><ele>758.0</ele><time>2026-04-25T07:35:59.389Z</time></trkpt><trkpt lat="43.868125" lon="12.3632067"><ele>758.0</ele><time>2026-04-25T07:36:00.389Z</time></trkpt><trkpt lat="43.8682283" lon="12.3630767"><ele>758.0</ele><time>2026-04-25T07:36:01.39Z</time></trkpt><trkpt lat="43.8683283" lon="12.3629267"><ele>758.0</ele><time>2026-04-25T07:36:02.39Z</time></trkpt><trkpt lat="43.86843" lon="12.3627683"><ele>758.0</ele><time>2026-04-25T07:36:03.389Z</time></trkpt><trkpt lat="43.8685317" lon="12.362605"><ele>758.0</ele><time>2026-04-25T07:36:04.39Z</time></trkpt><trkpt lat="43.8686267" lon="12.36244"><ele>758.0</ele><time>2026-04-25T07:36:05.39Z</time></trkpt><trkpt lat="43.868715" lon="12.3622767"><ele>758.0</ele><time>2026-04-25T07:36:06.389Z</time></trkpt><trkpt lat="43.8688" lon="12.362115"><ele>758.0</ele><time>2026-04-25T07:36:07.389Z</time></trkpt><trkpt lat="43.868885" lon="12.3619667"><ele>759.75</ele><time>2026-04-25T07:36:08.389Z</time></trkpt><trkpt lat="43.8689633" lon="12.3618183"><ele>761.5</ele><time>2026-04-25T07:36:09.389Z</time></trkpt><trkpt lat="43.8690333" lon="12.3616717"><ele>763.25</ele><time>2026-04-25T07:36:10.39Z</time></trkpt><trkpt lat="43.8691117" lon="12.36152"><ele>765.0</ele><time>2026-04-25T07:36:11.39Z</time></trkpt><trkpt lat="43.869195" lon="12.361365"><ele>764.25</ele><time>2026-04-25T07:36:12.389Z</time></trkpt><trkpt lat="43.86929" lon="12.361215"><ele>763.5</ele><time>2026-04-25T07:36:13.39Z</time></trkpt><trkpt lat="43.86939" lon="12.3610717"><ele>762.75</ele><time>2026-04-25T07:36:14.389Z</time></trkpt><trkpt lat="43.8694933" lon="12.3609317"><ele>762.0</ele><time>2026-04-25T07:36:15.389Z</time></trkpt><trkpt lat="43.8695983" lon="12.3607867"><ele>762.0</ele><time>2026-04-25T07:36:16.39Z</time></trkpt><trkpt lat="43.8697017" lon="12.3606367"><ele>762.0</ele><time>2026-04-25T07:36:17.39Z</time></trkpt><trkpt lat="43.8697933" lon="12.3604817"><ele>762.0</ele><time>2026-04-25T07:36:18.389Z</time></trkpt><trkpt lat="43.8698783" lon="12.36033"><ele>762.0</ele><time>2026-04-25T07:36:19.39Z</time></trkpt><trkpt lat="43.8699617" lon="12.3601767"><ele>765.0</ele><time>2026-04-25T07:36:20.39Z</time></trkpt><trkpt lat="43.87004" lon="12.36002"><ele>768.0</ele><time>2026-04-25T07:36:21.39Z</time></trkpt><trkpt lat="43.8701183" lon="12.3598667"><ele>771.0</ele><time>2026-04-25T07:36:22.39Z</time></trkpt><trkpt lat="43.8701833" lon="12.3597233"><ele>774.0</ele><time>2026-04-25T07:36:23.389Z</time></trkpt><trkpt lat="43.870255" lon="12.35961"><ele>781.0</ele><time>2026-04-25T07:36:24.39Z</time></trkpt><trkpt lat="43.8705383" lon="12.3595967"><ele>788.0</ele><time>2026-04-25T07:36:25.895Z</time></trkpt><trkpt lat="43.8707" lon="12.359405"><ele>788.0</ele><time>2026-04-25T07:36:28.39Z</time></trkpt><trkpt lat="43.8708117" lon="12.35935"><ele>788.0</ele><time>2026-04-25T07:36:29.391Z</time></trkpt><trkpt lat="43.87092" lon="12.3593017"><ele>788.0</ele><time>2026-04-25T07:36:30.39Z</time></trkpt><trkpt lat="43.87102" lon="12.3592467"><ele>788.0</ele><time>2026-04-25T07:36:31.391Z</time></trkpt><trkpt lat="43.871105" lon="12.359175"><ele>788.0</ele><time>2026-04-25T07:36:32.391Z</time></trkpt><trkpt lat="43.871185" lon="12.3590917"><ele>788.25</ele><time>2026-04-25T07:36:33.39Z</time></trkpt><trkpt lat="43.87126" lon="12.358995"><ele>788.5</ele><time>2026-04-25T07:36:34.391Z</time></trkpt><trkpt lat="43.8713133" lon="12.3588467"><ele>788.75</ele><time>2026-04-25T07:36:35.39Z</time></trkpt><trkpt lat="43.8713583" lon="12.358685"><ele>789.0</ele><time>2026-04-25T07:36:36.391Z</time></trkpt><trkpt lat="43.87139" lon="12.3585183"><ele>789.0</ele><time>2026-04-25T07:36:37.39Z</time></trkpt><trkpt lat="43.8714083" lon="12.3583517"><ele>789.0</ele><time>2026-04-25T07:36:38.391Z</time></trkpt><trkpt lat="43.871435" lon="12.3581917"><ele>789.0</ele><time>2026-04-25T07:36:39.39Z</time></trkpt><trkpt lat="43.871465" lon="12.3580467"><ele>789.0</ele><time>2026-04-25T07:36:40.391Z</time></trkpt><trkpt lat="43.871495" lon="12.3579117"><ele>790.0</ele><time>2026-04-25T07:36:41.391Z</time></trkpt><trkpt lat="43.8715267" lon="12.35777"><ele>791.0</ele><time>2026-04-25T07:36:42.391Z</time></trkpt><trkpt lat="43.8715667" lon="12.3576183"><ele>792.0</ele><time>2026-04-25T07:36:43.391Z</time></trkpt><trkpt lat="43.871615" lon="12.35747"><ele>793.0</ele><time>2026-04-25T07:36:44.39Z</time></trkpt><trkpt lat="43.871675" lon="12.3573417"><ele>792.9999999999999</ele><time>2026-04-25T07:36:45.39Z</time></trkpt><trkpt lat="43.87174" lon="12.3572417"><ele>793.0</ele><time>2026-04-25T07:36:46.391Z</time></trkpt><trkpt lat="43.8718" lon="12.35716"><ele>793.0</ele><time>2026-04-25T07:36:47.391Z</time></trkpt><trkpt lat="43.8718467" lon="12.3570983"><ele>793.0</ele><time>2026-04-25T07:36:48.39Z</time></trkpt><trkpt lat="43.8719033" lon="12.3570183"><ele>792.9999999999999</ele><time>2026-04-25T07:36:50.39Z</time></trkpt><trkpt lat="43.8720033" lon="12.3569333"><ele>793.0</ele><time>2026-04-25T07:36:53.391Z</time></trkpt><trkpt lat="43.87208" lon="12.35694"><ele>792.25</ele><time>2026-04-25T07:36:54.39Z</time></trkpt><trkpt lat="43.8721733" lon="12.3569783"><ele>791.5</ele><time>2026-04-25T07:36:55.39Z</time></trkpt><trkpt lat="43.87228" lon="12.3570367"><ele>790.75</ele><time>2026-04-25T07:36:56.391Z</time></trkpt><trkpt lat="43.8723967" lon="12.35711"><ele>790.0</ele><time>2026-04-25T07:36:57.39Z</time></trkpt><trkpt lat="43.872525" lon="12.3571833"><ele>790.25</ele><time>2026-04-25T07:36:58.39Z</time></trkpt><trkpt lat="43.8726433" lon="12.3572533"><ele>790.5</ele><time>2026-04-25T07:36:59.39Z</time></trkpt><trkpt lat="43.8727567" lon="12.3573133"><ele>790.75</ele><time>2026-04-25T07:37:00.391Z</time></trkpt><trkpt lat="43.87285" lon="12.357365"><ele>791.0</ele><time>2026-04-25T07:37:01.391Z</time></trkpt><trkpt lat="43.872945" lon="12.3574217"><ele>791.0</ele><time>2026-04-25T07:37:02.391Z</time></trkpt><trkpt lat="43.8730477" lon="12.3574709"><ele>791.0</ele><time>2026-04-25T07:37:03.391Z</time></trkpt><trkpt lat="43.8731638" lon="12.3575078"><ele>791.0</ele><time>2026-04-25T07:37:04.39Z</time></trkpt><trkpt lat="43.8732897" lon="12.3575234"><ele>791.0</ele><time>2026-04-25T07:37:05.39Z</time></trkpt><trkpt lat="43.8734136" lon="12.3574978"><ele>790.0</ele><time>2026-04-25T07:37:06.39Z</time></trkpt><trkpt lat="43.8735313" lon="12.3574461"><ele>789.0</ele><time>2026-04-25T07:37:07.39Z</time></trkpt><trkpt lat="43.873639" lon="12.357365"><ele>788.0</ele><time>2026-04-25T07:37:08.39Z</time></trkpt><trkpt lat="43.8737457" lon="12.3572462"><ele>787.0</ele><time>2026-04-25T07:37:09.391Z</time></trkpt><trkpt lat="43.8738579" lon="12.3571083"><ele>787.0</ele><time>2026-04-25T07:37:10.391Z</time></trkpt><trkpt lat="43.8739716" lon="12.356966"><ele>787.0</ele><time>2026-04-25T07:37:11.391Z</time></trkpt><trkpt lat="43.8740827" lon="12.3568273"><ele>787.0</ele><time>2026-04-25T07:37:12.391Z</time></trkpt><trkpt lat="43.8741916" lon="12.3566907"><ele>787.0</ele><time>2026-04-25T07:37:13.39Z</time></trkpt><trkpt lat="43.8743013" lon="12.3565599"><ele>784.0</ele><time>2026-04-25T07:37:14.391Z</time></trkpt><trkpt lat="43.8744077" lon="12.3564353"><ele>781.0</ele><time>2026-04-25T07:37:15.391Z</time></trkpt><trkpt lat="43.8745009" lon="12.3562966"><ele>778.0</ele><time>2026-04-25T07:37:16.391Z</time></trkpt><trkpt lat="43.8745796" lon="12.3561222"><ele>775.0</ele><time>2026-04-25T07:37:17.391Z</time></trkpt><trkpt lat="43.8746447" lon="12.3559236"><ele>775.0</ele><time>2026-04-25T07:37:18.391Z</time></trkpt><trkpt lat="43.8747037" lon="12.3557193"><ele>775.0</ele><time>2026-04-25T07:37:19.391Z</time></trkpt><trkpt lat="43.8747701" lon="12.3555286"><ele>775.0</ele><time>2026-04-25T07:37:20.39Z</time></trkpt><trkpt lat="43.8748495" lon="12.3553514"><ele>775.25</ele><time>2026-04-25T07:37:21.391Z</time></trkpt><trkpt lat="43.8749272" lon="12.3551848"><ele>775.5</ele><time>2026-04-25T07:37:22.391Z</time></trkpt><trkpt lat="43.8750023" lon="12.3550276"><ele>775.75</ele><time>2026-04-25T07:37:23.39Z</time></trkpt><trkpt lat="43.8750836" lon="12.354887"><ele>776.0</ele><time>2026-04-25T07:37:24.391Z</time></trkpt><trkpt lat="43.8751846" lon="12.3547783"><ele>774.0</ele><time>2026-04-25T07:37:25.391Z</time></trkpt><trkpt lat="43.8753093" lon="12.354697"><ele>772.0</ele><time>2026-04-25T07:37:26.391Z</time></trkpt><trkpt lat="43.8754321" lon="12.3546353"><ele>770.0</ele><time>2026-04-25T07:37:27.391Z</time></trkpt><trkpt lat="43.8755524" lon="12.354548"><ele>768.0</ele><time>2026-04-25T07:37:28.391Z</time></trkpt><trkpt lat="43.8756603" lon="12.354439"><ele>768.0</ele><time>2026-04-25T07:37:29.391Z</time></trkpt><trkpt lat="43.8757531" lon="12.3543188"><ele>768.0</ele><time>2026-04-25T07:37:30.391Z</time></trkpt><trkpt lat="43.8758294" lon="12.3541834"><ele>768.0</ele><time>2026-04-25T07:37:31.391Z</time></trkpt><trkpt lat="43.8758941" lon="12.3540292"><ele>768.0</ele><time>2026-04-25T07:37:32.39Z</time></trkpt><trkpt lat="43.8759319" lon="12.3538591"><ele>766.75</ele><time>2026-04-25T07:37:33.39Z</time></trkpt><trkpt lat="43.8759385" lon="12.3536796"><ele>765.5</ele><time>2026-04-25T07:37:34.391Z</time></trkpt><trkpt lat="43.8759" lon="12.35351"><ele>764.25</ele><time>2026-04-25T07:37:35.39Z</time></trkpt><trkpt lat="43.8758383" lon="12.3533583"><ele>763.0</ele><time>2026-04-25T07:37:36.39Z</time></trkpt><trkpt lat="43.87576" lon="12.3532183"><ele>763.0</ele><time>2026-04-25T07:37:37.391Z</time></trkpt><trkpt lat="43.8756767" lon="12.3530983"><ele>763.0</ele><time>2026-04-25T07:37:38.39Z</time></trkpt><trkpt lat="43.8755917" lon="12.3529983"><ele>763.0</ele><time>2026-04-25T07:37:39.391Z</time></trkpt><trkpt lat="43.8754867" lon="12.3529333"><ele>763.0</ele><time>2026-04-25T07:37:40.39Z</time></trkpt><trkpt lat="43.8753683" lon="12.352915"><ele>764.0</ele><time>2026-04-25T07:37:41.39Z</time></trkpt><trkpt lat="43.8752383" lon="12.352935"><ele>765.0</ele><time>2026-04-25T07:37:42.39Z</time></trkpt><trkpt lat="43.8751067" lon="12.3529733"><ele>766.0</ele><time>2026-04-25T07:37:43.39Z</time></trkpt><trkpt lat="43.874985" lon="12.3530183"><ele>767.0</ele><time>2026-04-25T07:37:44.391Z</time></trkpt><trkpt lat="43.87488" lon="12.3530567"><ele>767.0</ele><time>2026-04-25T07:37:45.39Z</time></trkpt><trkpt lat="43.8747867" lon="12.35308"><ele>767.0</ele><time>2026-04-25T07:37:46.391Z</time></trkpt><trkpt lat="43.8746967" lon="12.3530717"><ele>767.0</ele><time>2026-04-25T07:37:47.391Z</time></trkpt><trkpt lat="43.87462" lon="12.3530267"><ele>767.0</ele><time>2026-04-25T07:37:48.391Z</time></trkpt><trkpt lat="43.8745617" lon="12.35292"><ele>767.0</ele><time>2026-04-25T07:37:49.39Z</time></trkpt><trkpt lat="43.874535" lon="12.352775"><ele>764.6</ele><time>2026-04-25T07:37:50.391Z</time></trkpt><trkpt lat="43.8745167" lon="12.3526267"><ele>762.2</ele><time>2026-04-25T07:37:51.391Z</time></trkpt><trkpt lat="43.8744883" lon="12.3524917"><ele>759.8</ele><time>2026-04-25T07:37:52.391Z</time></trkpt><trkpt lat="43.87443" lon="12.3523967"><ele>757.4</ele><time>2026-04-25T07:37:53.391Z</time></trkpt><trkpt lat="43.8743483" lon="12.352345"><ele>755.0</ele><time>2026-04-25T07:37:54.391Z</time></trkpt><trkpt lat="43.8742467" lon="12.3523633"><ele>755.0</ele><time>2026-04-25T07:37:55.391Z</time></trkpt><trkpt lat="43.8741383" lon="12.352425"><ele>755.0</ele><time>2026-04-25T07:37:56.391Z</time></trkpt><trkpt lat="43.8740417" lon="12.3524917"><ele>755.0</ele><time>2026-04-25T07:37:57.39Z</time></trkpt><trkpt lat="43.873945" lon="12.3525133"><ele>755.0</ele><time>2026-04-25T07:37:58.391Z</time></trkpt><trkpt lat="43.873855" lon="12.3524867"><ele>755.0</ele><time>2026-04-25T07:37:59.39Z</time></trkpt><trkpt lat="43.8737733" lon="12.3523933"><ele>755.0</ele><time>2026-04-25T07:38:00.39Z</time></trkpt><trkpt lat="43.8737183" lon="12.3522433"><ele>755.0</ele><time>2026-04-25T07:38:01.391Z</time></trkpt><trkpt lat="43.8736833" lon="12.352055"><ele>755.0</ele><time>2026-04-25T07:38:02.391Z</time></trkpt><trkpt lat="43.8736567" lon="12.3518533"><ele>755.0</ele><time>2026-04-25T07:38:03.391Z</time></trkpt><trkpt lat="43.87363" lon="12.351655"><ele>752.25</ele><time>2026-04-25T07:38:04.391Z</time></trkpt><trkpt lat="43.8735967" lon="12.3514617"><ele>749.5</ele><time>2026-04-25T07:38:05.391Z</time></trkpt><trkpt lat="43.8735533" lon="12.3512633"><ele>746.75</ele><time>2026-04-25T07:38:06.39Z</time></trkpt><trkpt lat="43.8734967" lon="12.35108"><ele>744.0</ele><time>2026-04-25T07:38:07.391Z</time></trkpt><trkpt lat="43.8734533" lon="12.350895"><ele>744.25</ele><time>2026-04-25T07:38:08.391Z</time></trkpt><trkpt lat="43.873395" lon="12.3507417"><ele>744.5</ele><time>2026-04-25T07:38:09.391Z</time></trkpt><trkpt lat="43.8733367" lon="12.3505967"><ele>744.75</ele><time>2026-04-25T07:38:10.39Z</time></trkpt><trkpt lat="43.873285" lon="12.3504433"><ele>745.0</ele><time>2026-04-25T07:38:11.391Z</time></trkpt><trkpt lat="43.8732533" lon="12.35027"><ele>744.25</ele><time>2026-04-25T07:38:12.39Z</time></trkpt><trkpt lat="43.8732517" lon="12.3500817"><ele>743.5</ele><time>2026-04-25T07:38:13.391Z</time></trkpt><trkpt lat="43.8732617" lon="12.349895"><ele>742.75</ele><time>2026-04-25T07:38:14.391Z</time></trkpt><trkpt lat="43.8732767" lon="12.3497183"><ele>742.0</ele><time>2026-04-25T07:38:15.39Z</time></trkpt><trkpt lat="43.8732783" lon="12.3495517"><ele>740.5</ele><time>2026-04-25T07:38:16.391Z</time></trkpt><trkpt lat="43.873265" lon="12.3493867"><ele>739.0</ele><time>2026-04-25T07:38:17.391Z</time></trkpt><trkpt lat="43.8732167" lon="12.349225"><ele>737.5</ele><time>2026-04-25T07:38:18.391Z</time></trkpt><trkpt lat="43.8731417" lon="12.3490833"><ele>736.0</ele><time>2026-04-25T07:38:19.391Z</time></trkpt><trkpt lat="43.8730683" lon="12.3489383"><ele>734.0</ele><time>2026-04-25T07:38:20.391Z</time></trkpt><trkpt lat="43.8730217" lon="12.34877"><ele>732.0</ele><time>2026-04-25T07:38:21.391Z</time></trkpt><trkpt lat="43.87299" lon="12.34859"><ele>730.0</ele><time>2026-04-25T07:38:22.391Z</time></trkpt><trkpt lat="43.87298" lon="12.3484083"><ele>728.0</ele><time>2026-04-25T07:38:23.391Z</time></trkpt><trkpt lat="43.8729933" lon="12.34822"><ele>727.25</ele><time>2026-04-25T07:38:24.39Z</time></trkpt><trkpt lat="43.87302" lon="12.3480233"><ele>726.5</ele><time>2026-04-25T07:38:25.391Z</time></trkpt><trkpt lat="43.8730583" lon="12.3478267"><ele>725.75</ele><time>2026-04-25T07:38:26.391Z</time></trkpt><trkpt lat="43.8731033" lon="12.34764"><ele>725.0</ele><time>2026-04-25T07:38:27.391Z</time></trkpt><trkpt lat="43.8731483" lon="12.347465"><ele>725.0</ele><time>2026-04-25T07:38:28.39Z</time></trkpt><trkpt lat="43.8731967" lon="12.3472867"><ele>725.0</ele><time>2026-04-25T07:38:29.39Z</time></trkpt><trkpt lat="43.8732383" lon="12.3471167"><ele>725.0</ele><time>2026-04-25T07:38:30.391Z</time></trkpt><trkpt lat="43.873265" lon="12.3469367"><ele>725.0</ele><time>2026-04-25T07:38:31.39Z</time></trkpt><trkpt lat="43.8732833" lon="12.3467633"><ele>724.5</ele><time>2026-04-25T07:38:32.391Z</time></trkpt><trkpt lat="43.873305" lon="12.3465833"><ele>724.0</ele><time>2026-04-25T07:38:33.391Z</time></trkpt><trkpt lat="43.8733183" lon="12.3464017"><ele>723.5</ele><time>2026-04-25T07:38:34.391Z</time></trkpt><trkpt lat="43.8733283" lon="12.346215"><ele>723.0</ele><time>2026-04-25T07:38:35.39Z</time></trkpt><trkpt lat="43.873335" lon="12.3460367"><ele>722.0</ele><time>2026-04-25T07:38:36.39Z</time></trkpt><trkpt lat="43.8733367" lon="12.3458617"><ele>721.0</ele><time>2026-04-25T07:38:37.391Z</time></trkpt><trkpt lat="43.873345" lon="12.3456783"><ele>720.0</ele><time>2026-04-25T07:38:38.391Z</time></trkpt><trkpt lat="43.873345" lon="12.345485"><ele>719.0</ele><time>2026-04-25T07:38:39.391Z</time></trkpt><trkpt lat="43.8733483" lon="12.3452867"><ele>718.75</ele><time>2026-04-25T07:38:40.39Z</time></trkpt><trkpt lat="43.873355" lon="12.3450883"><ele>718.5</ele><time>2026-04-25T07:38:41.391Z</time></trkpt><trkpt lat="43.8733633" lon="12.344885"><ele>718.25</ele><time>2026-04-25T07:38:42.391Z</time></trkpt><trkpt lat="43.8733733" lon="12.34469"><ele>718.0</ele><time>2026-04-25T07:38:43.391Z</time></trkpt><trkpt lat="43.87339" lon="12.3445033"><ele>718.0</ele><time>2026-04-25T07:38:44.39Z</time></trkpt><trkpt lat="43.8734283" lon="12.3443267"><ele>718.0</ele><time>2026-04-25T07:38:45.391Z</time></trkpt><trkpt lat="43.873485" lon="12.3441567"><ele>718.0</ele><time>2026-04-25T07:38:46.39Z</time></trkpt><trkpt lat="43.8735517" lon="12.3440017"><ele>718.0</ele><time>2026-04-25T07:38:47.391Z</time></trkpt><trkpt lat="43.8736317" lon="12.3438683"><ele>715.5</ele><time>2026-04-25T07:38:48.39Z</time></trkpt><trkpt lat="43.8737233" lon="12.3437383"><ele>713.0</ele><time>2026-04-25T07:38:49.391Z</time></trkpt><trkpt lat="43.8738333" lon="12.3435983"><ele>710.5</ele><time>2026-04-25T07:38:50.39Z</time></trkpt><trkpt lat="43.8739467" lon="12.3434567"><ele>708.0</ele><time>2026-04-25T07:38:51.391Z</time></trkpt><trkpt lat="43.87405" lon="12.3433217"><ele>708.0</ele><time>2026-04-25T07:38:52.391Z</time></trkpt><trkpt lat="43.8741617" lon="12.3431867"><ele>708.0</ele><time>2026-04-25T07:38:53.391Z</time></trkpt><trkpt lat="43.8742667" lon="12.3430467"><ele>708.0</ele><time>2026-04-25T07:38:54.391Z</time></trkpt><trkpt lat="43.874365" lon="12.3429067"><ele>708.0</ele><time>2026-04-25T07:38:55.39Z</time></trkpt><trkpt lat="43.8744633" lon="12.3427683"><ele>705.5</ele><time>2026-04-25T07:38:56.39Z</time></trkpt><trkpt lat="43.8745683" lon="12.34263"><ele>703.0</ele><time>2026-04-25T07:38:57.39Z</time></trkpt><trkpt lat="43.8746783" lon="12.3424933"><ele>700.5</ele><time>2026-04-25T07:38:58.391Z</time></trkpt><trkpt lat="43.8747983" lon="12.342395"><ele>698.0</ele><time>2026-04-25T07:38:59.391Z</time></trkpt><trkpt lat="43.8749267" lon="12.3423217"><ele>698.0</ele><time>2026-04-25T07:39:00.39Z</time></trkpt><trkpt lat="43.8750733" lon="12.342295"><ele>698.0</ele><time>2026-04-25T07:39:01.391Z</time></trkpt><trkpt lat="43.875225" lon="12.342305"><ele>698.0</ele><time>2026-04-25T07:39:02.39Z</time></trkpt><trkpt lat="43.875375" lon="12.3423333"><ele>697.0</ele><time>2026-04-25T07:39:03.39Z</time></trkpt><trkpt lat="43.8755233" lon="12.34236"><ele>696.0</ele><time>2026-04-25T07:39:04.391Z</time></trkpt><trkpt lat="43.87567" lon="12.34239"><ele>695.0</ele><time>2026-04-25T07:39:05.391Z</time></trkpt><trkpt lat="43.8758167" lon="12.342405"><ele>694.0</ele><time>2026-04-25T07:39:06.391Z</time></trkpt><trkpt lat="43.8759633" lon="12.3424333"><ele>693.0</ele><time>2026-04-25T07:39:07.39Z</time></trkpt><trkpt lat="43.8761117" lon="12.3424567"><ele>692.0</ele><time>2026-04-25T07:39:08.391Z</time></trkpt><trkpt lat="43.87627" lon="12.34246"><ele>691.0</ele><time>2026-04-25T07:39:09.39Z</time></trkpt><trkpt lat="43.8764217" lon="12.34244"><ele>691.0</ele><time>2026-04-25T07:39:10.39Z</time></trkpt><trkpt lat="43.87657" lon="12.3424083"><ele>691.0</ele><time>2026-04-25T07:39:11.391Z</time></trkpt><trkpt lat="43.8767083" lon="12.3423867"><ele>691.0</ele><time>2026-04-25T07:39:12.391Z</time></trkpt><trkpt lat="43.8768417" lon="12.3423833"><ele>691.0</ele><time>2026-04-25T07:39:13.391Z</time></trkpt><trkpt lat="43.8769733" lon="12.3424"><ele>687.75</ele><time>2026-04-25T07:39:14.39Z</time></trkpt><trkpt lat="43.8771083" lon="12.342425"><ele>684.5</ele><time>2026-04-25T07:39:15.391Z</time></trkpt><trkpt lat="43.8772367" lon="12.3424467"><ele>681.25</ele><time>2026-04-25T07:39:16.391Z</time></trkpt><trkpt lat="43.8773717" lon="12.3424283"><ele>678.0</ele><time>2026-04-25T07:39:17.391Z</time></trkpt><trkpt lat="43.8774983" lon="12.3423833"><ele>674.0</ele><time>2026-04-25T07:39:18.39Z</time></trkpt><trkpt lat="43.877625" lon="12.3423283"><ele>670.0</ele><time>2026-04-25T07:39:19.39Z</time></trkpt><trkpt lat="43.8777417" lon="12.3422583"><ele>666.0</ele><time>2026-04-25T07:39:20.391Z</time></trkpt><trkpt lat="43.8778517" lon="12.3421683"><ele>662.0</ele><time>2026-04-25T07:39:21.391Z</time></trkpt><trkpt lat="43.8779417" lon="12.3420467"><ele>662.0</ele><time>2026-04-25T07:39:22.391Z</time></trkpt><trkpt lat="43.8780033" lon="12.3419033"><ele>662.0</ele><time>2026-04-25T07:39:23.391Z</time></trkpt><trkpt lat="43.8780467" lon="12.34174"><ele>662.0</ele><time>2026-04-25T07:39:24.391Z</time></trkpt><trkpt lat="43.8780817" lon="12.3415567"><ele>662.0</ele><time>2026-04-25T07:39:25.391Z</time></trkpt><trkpt lat="43.8781167" lon="12.3413783"><ele>663.5</ele><time>2026-04-25T07:39:26.39Z</time></trkpt><trkpt lat="43.8781667" lon="12.3412067"><ele>665.0</ele><time>2026-04-25T07:39:27.391Z</time></trkpt><trkpt lat="43.8782217" lon="12.341045"><ele>666.5</ele><time>2026-04-25T07:39:28.391Z</time></trkpt><trkpt lat="43.8782867" lon="12.340895"><ele>668.0</ele><time>2026-04-25T07:39:29.391Z</time></trkpt><trkpt lat="43.8783633" lon="12.3407733"><ele>662.6666666666666</ele><time>2026-04-25T07:39:30.39Z</time></trkpt><trkpt lat="43.87844" lon="12.3406817"><ele>657.3333333333333</ele><time>2026-04-25T07:39:31.39Z</time></trkpt><trkpt lat="43.8785083" lon="12.3406067"><ele>652.0</ele><time>2026-04-25T07:39:32.391Z</time></trkpt><trkpt lat="43.8785583" lon="12.34052"><ele>646.6666666666666</ele><time>2026-04-25T07:39:33.39Z</time></trkpt><trkpt lat="43.8785717" lon="12.3404083"><ele>641.3333333333334</ele><time>2026-04-25T07:39:34.39Z</time></trkpt><trkpt lat="43.8785517" lon="12.340275"><ele>636.0</ele><time>2026-04-25T07:39:35.391Z</time></trkpt><trkpt lat="43.8785" lon="12.3401333"><ele>643.25</ele><time>2026-04-25T07:39:36.391Z</time></trkpt><trkpt lat="43.8784317" lon="12.3399717"><ele>650.5</ele><time>2026-04-25T07:39:37.39Z</time></trkpt><trkpt lat="43.8783817" lon="12.3397833"><ele>657.75</ele><time>2026-04-25T07:39:38.39Z</time></trkpt><trkpt lat="43.8783567" lon="12.3395883"><ele>665.0</ele><time>2026-04-25T07:39:39.391Z</time></trkpt><trkpt lat="43.8783533" lon="12.339375"><ele>665.0</ele><time>2026-04-25T07:39:40.391Z</time></trkpt><trkpt lat="43.8783683" lon="12.3391517"><ele>665.0</ele><time>2026-04-25T07:39:41.391Z</time></trkpt><trkpt lat="43.8784017" lon="12.3389217"><ele>665.0</ele><time>2026-04-25T07:39:42.39Z</time></trkpt><trkpt lat="43.8784383" lon="12.33871"><ele>653.3333333333333</ele><time>2026-04-25T07:39:43.391Z</time></trkpt><trkpt lat="43.8784967" lon="12.3385167"><ele>641.6666666666666</ele><time>2026-04-25T07:39:44.391Z</time></trkpt><trkpt lat="43.878575" lon="12.33832"><ele>630.0</ele><time>2026-04-25T07:39:45.391Z</time></trkpt><trkpt lat="43.87867" lon="12.3381333"><ele>633.6666666666666</ele><time>2026-04-25T07:39:46.391Z</time></trkpt><trkpt lat="43.8787617" lon="12.3379467"><ele>637.3333333333333</ele><time>2026-04-25T07:39:47.391Z</time></trkpt><trkpt lat="43.878855" lon="12.3377683"><ele>641.0</ele><time>2026-04-25T07:39:48.391Z</time></trkpt><trkpt lat="43.87895" lon="12.3376117"><ele>641.0</ele><time>2026-04-25T07:39:49.39Z</time></trkpt><trkpt lat="43.879045" lon="12.33749"><ele>641.0</ele><time>2026-04-25T07:39:50.391Z</time></trkpt><trkpt lat="43.8791183" lon="12.3373867"><ele>641.0</ele><time>2026-04-25T07:39:51.39Z</time></trkpt><trkpt lat="43.87918" lon="12.3372683"><ele>641.0</ele><time>2026-04-25T07:39:52.391Z</time></trkpt><trkpt lat="43.8792217" lon="12.3371167"><ele>641.0</ele><time>2026-04-25T07:39:53.39Z</time></trkpt><trkpt lat="43.87925" lon="12.3369683"><ele>641.0</ele><time>2026-04-25T07:39:54.391Z</time></trkpt><trkpt lat="43.8792133" lon="12.336795"><ele>641.0</ele><time>2026-04-25T07:39:55.391Z</time></trkpt><trkpt lat="43.879145" lon="12.3366133"><ele>641.0</ele><time>2026-04-25T07:39:56.391Z</time></trkpt><trkpt lat="43.879075" lon="12.3364317"><ele>637.0</ele><time>2026-04-25T07:39:57.39Z</time></trkpt><trkpt lat="43.87903" lon="12.3362583"><ele>633.0</ele><time>2026-04-25T07:39:58.391Z</time></trkpt><trkpt lat="43.8789983" lon="12.336095"><ele>629.0</ele><time>2026-04-25T07:39:59.391Z</time></trkpt><trkpt lat="43.878955" lon="12.3359333"><ele>625.0</ele><time>2026-04-25T07:40:00.39Z</time></trkpt><trkpt lat="43.878895" lon="12.33578"><ele>625.0</ele><time>2026-04-25T07:40:01.391Z</time></trkpt><trkpt lat="43.8788167" lon="12.3356283"><ele>625.0</ele><time>2026-04-25T07:40:02.391Z</time></trkpt><trkpt lat="43.8787333" lon="12.3354817"><ele>625.0</ele><time>2026-04-25T07:40:03.391Z</time></trkpt><trkpt lat="43.878655" lon="12.3353467"><ele>625.0</ele><time>2026-04-25T07:40:04.39Z</time></trkpt><trkpt lat="43.87857" lon="12.3352233"><ele>626.2</ele><time>2026-04-25T07:40:05.391Z</time></trkpt><trkpt lat="43.8784917" lon="12.3350967"><ele>627.4</ele><time>2026-04-25T07:40:06.391Z</time></trkpt><trkpt lat="43.8784233" lon="12.3349833"><ele>628.6</ele><time>2026-04-25T07:40:07.39Z</time></trkpt><trkpt lat="43.8783633" lon="12.3348583"><ele>629.8</ele><time>2026-04-25T07:40:08.39Z</time></trkpt><trkpt lat="43.8783267" lon="12.33473"><ele>631.0</ele><time>2026-04-25T07:40:09.391Z</time></trkpt><trkpt lat="43.8783317" lon="12.3345733"><ele>631.0</ele><time>2026-04-25T07:40:10.39Z</time></trkpt><trkpt lat="43.8783667" lon="12.3343967"><ele>631.0</ele><time>2026-04-25T07:40:11.391Z</time></trkpt><trkpt lat="43.8784033" lon="12.3342217"><ele>631.0</ele><time>2026-04-25T07:40:12.39Z</time></trkpt><trkpt lat="43.8784433" lon="12.3340583"><ele>631.0</ele><time>2026-04-25T07:40:13.391Z</time></trkpt><trkpt lat="43.8784717" lon="12.3339067"><ele>627.25</ele><time>2026-04-25T07:40:14.391Z</time></trkpt><trkpt lat="43.8785033" lon="12.3337417"><ele>623.5</ele><time>2026-04-25T07:40:15.391Z</time></trkpt><trkpt lat="43.8785383" lon="12.33357"><ele>619.75</ele><time>2026-04-25T07:40:16.391Z</time></trkpt><trkpt lat="43.878565" lon="12.3334117"><ele>616.0</ele><time>2026-04-25T07:40:17.39Z</time></trkpt><trkpt lat="43.878595" lon="12.3332633"><ele>616.0</ele><time>2026-04-25T07:40:18.39Z</time></trkpt><trkpt lat="43.8786183" lon="12.3331233"><ele>616.0</ele><time>2026-04-25T07:40:19.391Z</time></trkpt><trkpt lat="43.8786383" lon="12.332985"><ele>616.0</ele><time>2026-04-25T07:40:20.391Z</time></trkpt><trkpt lat="43.8786433" lon="12.3328483"><ele>616.0</ele><time>2026-04-25T07:40:21.391Z</time></trkpt><trkpt lat="43.8786267" lon="12.33272"><ele>616.0</ele><time>2026-04-25T07:40:22.39Z</time></trkpt><trkpt lat="43.8786017" lon="12.3326117"><ele>617.1666666666667</ele><time>2026-04-25T07:40:23.39Z</time></trkpt><trkpt lat="43.8785517" lon="12.3325217"><ele>618.3333333333334</ele><time>2026-04-25T07:40:25.391Z</time></trkpt><trkpt lat="43.8785067" lon="12.3325883"><ele>619.5</ele><time>2026-04-25T07:40:28.391Z</time></trkpt><trkpt lat="43.878485" lon="12.332755"><ele>620.6666666666666</ele><time>2026-04-25T07:40:30.39Z</time></trkpt><trkpt lat="43.8784467" lon="12.332845"><ele>621.8333333333333</ele><time>2026-04-25T07:40:31.39Z</time></trkpt><trkpt lat="43.878375" lon="12.3329217"><ele>623.0</ele><time>2026-04-25T07:40:32.391Z</time></trkpt><trkpt lat="43.8782683" lon="12.3329783"><ele>625.0</ele><time>2026-04-25T07:40:33.39Z</time></trkpt><trkpt lat="43.8781517" lon="12.3330183"><ele>627.0</ele><time>2026-04-25T07:40:34.391Z</time></trkpt><trkpt lat="43.8780283" lon="12.3330683"><ele>629.0</ele><time>2026-04-25T07:40:35.39Z</time></trkpt><trkpt lat="43.8779" lon="12.333115"><ele>631.0</ele><time>2026-04-25T07:40:36.39Z</time></trkpt><trkpt lat="43.8777683" lon="12.3331533"><ele>631.25</ele><time>2026-04-25T07:40:37.391Z</time></trkpt><trkpt lat="43.8776317" lon="12.3331933"><ele>631.5</ele><time>2026-04-25T07:40:38.39Z</time></trkpt><trkpt lat="43.8774967" lon="12.333235"><ele>631.75</ele><time>2026-04-25T07:40:39.391Z</time></trkpt><trkpt lat="43.8773633" lon="12.3332717"><ele>632.0</ele><time>2026-04-25T07:40:40.391Z</time></trkpt><trkpt lat="43.8772467" lon="12.333305"><ele>635.6</ele><time>2026-04-25T07:40:41.391Z</time></trkpt><trkpt lat="43.8771467" lon="12.3333367"><ele>639.2</ele><time>2026-04-25T07:40:42.391Z</time></trkpt><trkpt lat="43.8770533" lon="12.3333967"><ele>642.8</ele><time>2026-04-25T07:40:43.39Z</time></trkpt><trkpt lat="43.8769667" lon="12.3334917"><ele>646.4</ele><time>2026-04-25T07:40:44.39Z</time></trkpt><trkpt lat="43.876875" lon="12.3336017"><ele>650.0</ele><time>2026-04-25T07:40:45.391Z</time></trkpt><trkpt lat="43.8767717" lon="12.33371"><ele>653.75</ele><time>2026-04-25T07:40:46.39Z</time></trkpt><trkpt lat="43.8766583" lon="12.3338067"><ele>657.5</ele><time>2026-04-25T07:40:47.39Z</time></trkpt><trkpt lat="43.8765333" lon="12.3338817"><ele>661.25</ele><time>2026-04-25T07:40:48.391Z</time></trkpt><trkpt lat="43.876405" lon="12.33394"><ele>665.0</ele><time>2026-04-25T07:40:49.391Z</time></trkpt><trkpt lat="43.87628" lon="12.334"><ele>665.0</ele><time>2026-04-25T07:40:50.391Z</time></trkpt><trkpt lat="43.8760317" lon="12.334225"><ele>665.0</ele><time>2026-04-25T07:40:52.105Z</time></trkpt><trkpt lat="43.8759283" lon="12.33418"><ele>665.0</ele><time>2026-04-25T07:40:53.295Z</time></trkpt><trkpt lat="43.8758267" lon="12.3342567"><ele>667.8</ele><time>2026-04-25T07:40:54.391Z</time></trkpt><trkpt lat="43.875735" lon="12.3343433"><ele>670.6</ele><time>2026-04-25T07:40:55.391Z</time></trkpt><trkpt lat="43.87565" lon="12.3344117"><ele>673.4000000000001</ele><time>2026-04-25T07:40:56.391Z</time></trkpt><trkpt lat="43.8755617" lon="12.3344567"><ele>676.2</ele><time>2026-04-25T07:40:57.391Z</time></trkpt><trkpt lat="43.87545" lon="12.3344683"><ele>679.0</ele><time>2026-04-25T07:40:58.39Z</time></trkpt><trkpt lat="43.8753317" lon="12.3344467"><ele>679.0</ele><time>2026-04-25T07:40:59.39Z</time></trkpt><trkpt lat="43.8751933" lon="12.3344083"><ele>679.0</ele><time>2026-04-25T07:41:00.391Z</time></trkpt><trkpt lat="43.8750583" lon="12.33439"><ele>679.0</ele><time>2026-04-25T07:41:01.391Z</time></trkpt><trkpt lat="43.8749317" lon="12.334385"><ele>679.0</ele><time>2026-04-25T07:41:02.391Z</time></trkpt><trkpt lat="43.8748233" lon="12.3343683"><ele>681.1666666666667</ele><time>2026-04-25T07:41:03.39Z</time></trkpt><trkpt lat="43.8747283" lon="12.33435"><ele>683.3333333333334</ele><time>2026-04-25T07:41:04.391Z</time></trkpt><trkpt lat="43.8746533" lon="12.334315"><ele>685.5</ele><time>2026-04-25T07:41:05.391Z</time></trkpt><trkpt lat="43.8745933" lon="12.334235"><ele>687.6666666666666</ele><time>2026-04-25T07:41:06.39Z</time></trkpt><trkpt lat="43.87456" lon="12.3341233"><ele>689.8333333333333</ele><time>2026-04-25T07:41:07.391Z</time></trkpt><trkpt lat="43.874545" lon="12.3339867"><ele>692.0</ele><time>2026-04-25T07:41:08.39Z</time></trkpt><trkpt lat="43.8745433" lon="12.3338267"><ele>694.8</ele><time>2026-04-25T07:41:09.391Z</time></trkpt><trkpt lat="43.87456" lon="12.3336617"><ele>697.6</ele><time>2026-04-25T07:41:10.391Z</time></trkpt><trkpt lat="43.8745667" lon="12.333505"><ele>700.4</ele><time>2026-04-25T07:41:11.391Z</time></trkpt><trkpt lat="43.874575" lon="12.3333567"><ele>703.1999999999999</ele><time>2026-04-25T07:41:12.391Z</time></trkpt><trkpt lat="43.874565" lon="12.3332183"><ele>706.0</ele><time>2026-04-25T07:41:13.391Z</time></trkpt><trkpt lat="43.8745567" lon="12.3330833"><ele>706.6666666666667</ele><time>2026-04-25T07:41:14.391Z</time></trkpt><trkpt lat="43.8745717" lon="12.3329667"><ele>707.3333333333334</ele><time>2026-04-25T07:41:15.391Z</time></trkpt><trkpt lat="43.874615" lon="12.3328833"><ele>708.0</ele><time>2026-04-25T07:41:16.391Z</time></trkpt><trkpt lat="43.8746633" lon="12.33282"><ele>708.6666666666666</ele><time>2026-04-25T07:41:17.391Z</time></trkpt><trkpt lat="43.8747283" lon="12.332705"><ele>709.3333333333333</ele><time>2026-04-25T07:41:19.391Z</time></trkpt><trkpt lat="43.8746917" lon="12.3326117"><ele>710.0</ele><time>2026-04-25T07:41:21.391Z</time></trkpt><trkpt lat="43.87461" lon="12.33256"><ele>710.0</ele><time>2026-04-25T07:41:23.391Z</time></trkpt><trkpt lat="43.8744617" lon="12.3325983"><ele>710.0</ele><time>2026-04-25T07:41:25.391Z</time></trkpt><trkpt lat="43.87436" lon="12.33265"><ele>710.0</ele><time>2026-04-25T07:41:26.391Z</time></trkpt><trkpt lat="43.874255" lon="12.332695"><ele>710.0</ele><time>2026-04-25T07:41:27.391Z</time></trkpt><trkpt lat="43.8741583" lon="12.3327433"><ele>710.1428571428571</ele><time>2026-04-25T07:41:28.391Z</time></trkpt><trkpt lat="43.8740867" lon="12.3327733"><ele>710.2857142857143</ele><time>2026-04-25T07:41:29.39Z</time></trkpt><trkpt lat="43.87402" lon="12.33279"><ele>710.4285714285714</ele><time>2026-04-25T07:41:30.39Z</time></trkpt><trkpt lat="43.8739583" lon="12.3328117"><ele>710.5714285714286</ele><time>2026-04-25T07:41:31.39Z</time></trkpt><trkpt lat="43.873885" lon="12.332825"><ele>710.7142857142857</ele><time>2026-04-25T07:41:32.39Z</time></trkpt><trkpt lat="43.8738083" lon="12.33286"><ele>710.8571428571429</ele><time>2026-04-25T07:41:33.391Z</time></trkpt><trkpt lat="43.8737317" lon="12.3329033"><ele>711.0</ele><time>2026-04-25T07:41:34.391Z</time></trkpt><trkpt lat="43.873655" lon="12.3329383"><ele>711.0</ele><time>2026-04-25T07:41:35.39Z</time></trkpt><trkpt lat="43.8735817" lon="12.33298"><ele>711.0</ele><time>2026-04-25T07:41:36.391Z</time></trkpt><trkpt lat="43.87351" lon="12.3330083"><ele>711.0</ele><time>2026-04-25T07:41:37.39Z</time></trkpt><trkpt lat="43.8734467" lon="12.3330417"><ele>711.0</ele><time>2026-04-25T07:41:38.391Z</time></trkpt><trkpt lat="43.8733333" lon="12.33309"><ele>711.0</ele><time>2026-04-25T07:41:40.39Z</time></trkpt><trkpt lat="43.873235" lon="12.3331683"><ele>713.1666666666666</ele><time>2026-04-25T07:41:42.39Z</time></trkpt><trkpt lat="43.8731667" lon="12.3332133"><ele>715.3333333333334</ele><time>2026-04-25T07:41:43.391Z</time></trkpt><trkpt lat="43.8730867" lon="12.333265"><ele>717.5</ele><time>2026-04-25T07:41:44.391Z</time></trkpt><trkpt lat="43.8730067" lon="12.3333083"><ele>719.6666666666667</ele><time>2026-04-25T07:41:45.391Z</time></trkpt><trkpt lat="43.872935" lon="12.3333467"><ele>721.8333333333334</ele><time>2026-04-25T07:41:46.39Z</time></trkpt><trkpt lat="43.8728767" lon="12.3333983"><ele>724.0</ele><time>2026-04-25T07:41:47.391Z</time></trkpt><trkpt lat="43.8728367" lon="12.3334667"><ele>724.0</ele><time>2026-04-25T07:41:48.391Z</time></trkpt><trkpt lat="43.8728" lon="12.3335567"><ele>724.0</ele><time>2026-04-25T07:41:49.391Z</time></trkpt><trkpt lat="43.872755" lon="12.3336517"><ele>724.0</ele><time>2026-04-25T07:41:50.391Z</time></trkpt><trkpt lat="43.8726967" lon="12.3337383"><ele>724.0</ele><time>2026-04-25T07:41:51.391Z</time></trkpt><trkpt lat="43.87263" lon="12.3338233"><ele>724.0</ele><time>2026-04-25T07:41:52.39Z</time></trkpt><trkpt lat="43.87256" lon="12.3339067"><ele>724.0</ele><time>2026-04-25T07:41:53.39Z</time></trkpt><trkpt lat="43.8724917" lon="12.3339867"><ele>725.8333333333334</ele><time>2026-04-25T07:41:54.39Z</time></trkpt><trkpt lat="43.8724233" lon="12.3340667"><ele>727.6666666666667</ele><time>2026-04-25T07:41:55.391Z</time></trkpt><trkpt lat="43.872355" lon="12.3341467"><ele>729.5</ele><time>2026-04-25T07:41:56.39Z</time></trkpt><trkpt lat="43.8722833" lon="12.3342067"><ele>731.3333333333334</ele><time>2026-04-25T07:41:57.391Z</time></trkpt><trkpt lat="43.8722167" lon="12.3342683"><ele>733.1666666666666</ele><time>2026-04-25T07:41:58.39Z</time></trkpt><trkpt lat="43.87215" lon="12.3343267"><ele>735.0</ele><time>2026-04-25T07:41:59.391Z</time></trkpt><trkpt lat="43.8720967" lon="12.334405"><ele>735.0</ele><time>2026-04-25T07:42:00.39Z</time></trkpt><trkpt lat="43.8720583" lon="12.33448"><ele>735.0</ele><time>2026-04-25T07:42:01.39Z</time></trkpt><trkpt lat="43.8720217" lon="12.3345667"><ele>735.0</ele><time>2026-04-25T07:42:02.391Z</time></trkpt><trkpt lat="43.8719767" lon="12.3346617"><ele>735.0</ele><time>2026-04-25T07:42:03.391Z</time></trkpt><trkpt lat="43.8719183" lon="12.3347533"><ele>735.0</ele><time>2026-04-25T07:42:04.39Z</time></trkpt><trkpt lat="43.8718667" lon="12.334835"><ele>735.0</ele><time>2026-04-25T07:42:05.39Z</time></trkpt><trkpt lat="43.8718083" lon="12.3349067"><ele>737.8333333333334</ele><time>2026-04-25T07:42:06.391Z</time></trkpt><trkpt lat="43.8717433" lon="12.3349667"><ele>740.6666666666666</ele><time>2026-04-25T07:42:07.391Z</time></trkpt><trkpt lat="43.871675" lon="12.335015"><ele>743.5</ele><time>2026-04-25T07:42:08.391Z</time></trkpt><trkpt lat="43.8716267" lon="12.335075"><ele>746.3333333333333</ele><time>2026-04-25T07:42:09.391Z</time></trkpt><trkpt lat="43.87159" lon="12.3351567"><ele>749.1666666666666</ele><time>2026-04-25T07:42:10.391Z</time></trkpt><trkpt lat="43.8715433" lon="12.3352467"><ele>752.0</ele><time>2026-04-25T07:42:11.391Z</time></trkpt><trkpt lat="43.8714883" lon="12.3353517"><ele>752.0</ele><time>2026-04-25T07:42:12.39Z</time></trkpt><trkpt lat="43.8714333" lon="12.3354433"><ele>752.0</ele><time>2026-04-25T07:42:13.39Z</time></trkpt><trkpt lat="43.87137" lon="12.3355167"><ele>752.0</ele><time>2026-04-25T07:42:14.391Z</time></trkpt><trkpt lat="43.8713033" lon="12.3355917"><ele>752.0</ele><time>2026-04-25T07:42:15.391Z</time></trkpt><trkpt lat="43.8712383" lon="12.3356533"><ele>752.0</ele><time>2026-04-25T07:42:16.39Z</time></trkpt><trkpt lat="43.87118" lon="12.335695"><ele>752.0</ele><time>2026-04-25T07:42:17.39Z</time></trkpt><trkpt lat="43.8710717" lon="12.3357533"><ele>752.2857142857142</ele><time>2026-04-25T07:42:19.391Z</time></trkpt><trkpt lat="43.87101" lon="12.3357733"><ele>752.5714285714286</ele><time>2026-04-25T07:42:20.391Z</time></trkpt><trkpt lat="43.8709467" lon="12.3357783"><ele>752.8571428571429</ele><time>2026-04-25T07:42:21.39Z</time></trkpt><trkpt lat="43.8708767" lon="12.3357683"><ele>753.1428571428571</ele><time>2026-04-25T07:42:22.39Z</time></trkpt><trkpt lat="43.8708083" lon="12.3357583"><ele>753.4285714285714</ele><time>2026-04-25T07:42:23.391Z</time></trkpt><trkpt lat="43.8707383" lon="12.33575"><ele>753.7142857142857</ele><time>2026-04-25T07:42:24.39Z</time></trkpt><trkpt lat="43.8706633" lon="12.33576"><ele>754.0</ele><time>2026-04-25T07:42:25.39Z</time></trkpt><trkpt lat="43.870585" lon="12.3357883"><ele>756.3333333333334</ele><time>2026-04-25T07:42:26.39Z</time></trkpt><trkpt lat="43.8705083" lon="12.3358233"><ele>758.6666666666667</ele><time>2026-04-25T07:42:27.39Z</time></trkpt><trkpt lat="43.8704433" lon="12.3358533"><ele>761.0</ele><time>2026-04-25T07:42:28.391Z</time></trkpt><trkpt lat="43.8703733" lon="12.3359033"><ele>763.3333333333334</ele><time>2026-04-25T07:42:29.39Z</time></trkpt><trkpt lat="43.87031" lon="12.3359533"><ele>765.6666666666666</ele><time>2026-04-25T07:42:30.391Z</time></trkpt><trkpt lat="43.8702517" lon="12.3359967"><ele>768.0</ele><time>2026-04-25T07:42:31.391Z</time></trkpt><trkpt lat="43.8701517" lon="12.3360467"><ele>770.1666666666666</ele><time>2026-04-25T07:42:33.391Z</time></trkpt><trkpt lat="43.8700433" lon="12.33603"><ele>772.3333333333333</ele><time>2026-04-25T07:42:35.391Z</time></trkpt><trkpt lat="43.86997" lon="12.3360133"><ele>774.5</ele><time>2026-04-25T07:42:36.39Z</time></trkpt><trkpt lat="43.869895" lon="12.336"><ele>776.6666666666666</ele><time>2026-04-25T07:42:37.391Z</time></trkpt><trkpt lat="43.8698283" lon="12.3359867"><ele>778.8333333333333</ele><time>2026-04-25T07:42:38.39Z</time></trkpt><trkpt lat="43.8697667" lon="12.3359667"><ele>781.0</ele><time>2026-04-25T07:42:39.391Z</time></trkpt><trkpt lat="43.8696983" lon="12.3359583"><ele>780.9999999999999</ele><time>2026-04-25T07:42:40.391Z</time></trkpt><trkpt lat="43.869625" lon="12.3359467"><ele>781.0</ele><time>2026-04-25T07:42:41.391Z</time></trkpt><trkpt lat="43.8695433" lon="12.3359417"><ele>781.0</ele><time>2026-04-25T07:42:42.39Z</time></trkpt><trkpt lat="43.8694667" lon="12.3359283"><ele>781.0</ele><time>2026-04-25T07:42:43.39Z</time></trkpt><trkpt lat="43.869385" lon="12.33592"><ele>780.9999999999999</ele><time>2026-04-25T07:42:44.39Z</time></trkpt><trkpt lat="43.8693083" lon="12.3359183"><ele>781.0</ele><time>2026-04-25T07:42:45.39Z</time></trkpt><trkpt lat="43.8692283" lon="12.3359183"><ele>785.8</ele><time>2026-04-25T07:42:46.391Z</time></trkpt><trkpt lat="43.86916" lon="12.335925"><ele>790.5999999999999</ele><time>2026-04-25T07:42:47.391Z</time></trkpt><trkpt lat="43.86906" lon="12.335925"><ele>795.4</ele><time>2026-04-25T07:42:49.391Z</time></trkpt><trkpt lat="43.868975" lon="12.335865"><ele>800.2</ele><time>2026-04-25T07:42:51.391Z</time></trkpt><trkpt lat="43.86889" lon="12.3357467"><ele>805.0</ele><time>2026-04-25T07:42:53.391Z</time></trkpt><trkpt lat="43.86885" lon="12.3356683"><ele>805.0</ele><time>2026-04-25T07:42:54.39Z</time></trkpt><trkpt lat="43.86882" lon="12.33559"><ele>805.0</ele><time>2026-04-25T07:42:55.391Z</time></trkpt><trkpt lat="43.86877" lon="12.3354567"><ele>805.0</ele><time>2026-04-25T07:42:57.391Z</time></trkpt><trkpt lat="43.8686983" lon="12.3353233"><ele>805.0</ele><time>2026-04-25T07:43:12.39Z</time></trkpt><trkpt lat="43.8686267" lon="12.3352583"><ele>805.0</ele><time>2026-04-25T07:43:14.39Z</time></trkpt><trkpt lat="43.8685633" lon="12.3351833"><ele>803.8</ele><time>2026-04-25T07:43:16.391Z</time></trkpt><trkpt lat="43.8685167" lon="12.3351"><ele>802.6</ele><time>2026-04-25T07:43:18.391Z</time></trkpt><trkpt lat="43.86845" lon="12.3350217"><ele>801.4000000000001</ele><time>2026-04-25T07:43:20.39Z</time></trkpt><trkpt lat="43.8683617" lon="12.3349367"><ele>800.2</ele><time>2026-04-25T07:43:22.39Z</time></trkpt><trkpt lat="43.86825" lon="12.334855"><ele>799.0</ele><time>2026-04-25T07:43:24.39Z</time></trkpt><trkpt lat="43.868195" lon="12.3348083"><ele>798.8333333333333</ele><time>2026-04-25T07:43:25.391Z</time></trkpt><trkpt lat="43.8681417" lon="12.3347617"><ele>798.6666666666666</ele><time>2026-04-25T07:43:26.391Z</time></trkpt><trkpt lat="43.86803" lon="12.3347"><ele>798.5</ele><time>2026-04-25T07:43:28.391Z</time></trkpt><trkpt lat="43.8679633" lon="12.3346717"><ele>798.3333333333333</ele><time>2026-04-25T07:43:29.391Z</time></trkpt><trkpt lat="43.867895" lon="12.3346433"><ele>798.1666666666666</ele><time>2026-04-25T07:43:30.391Z</time></trkpt><trkpt lat="43.86782" lon="12.3346067"><ele>798.0</ele><time>2026-04-25T07:43:31.391Z</time></trkpt><trkpt lat="43.8677383" lon="12.3345567"><ele>798.0</ele><time>2026-04-25T07:43:32.39Z</time></trkpt><trkpt lat="43.867655" lon="12.3345017"><ele>798.0</ele><time>2026-04-25T07:43:33.391Z</time></trkpt><trkpt lat="43.86758" lon="12.33444"><ele>798.0</ele><time>2026-04-25T07:43:34.39Z</time></trkpt><trkpt lat="43.8675083" lon="12.334375"><ele>798.0</ele><time>2026-04-25T07:43:35.39Z</time></trkpt><trkpt lat="43.8674317" lon="12.33431"><ele>798.0</ele><time>2026-04-25T07:43:36.391Z</time></trkpt><trkpt lat="43.8673583" lon="12.3342467"><ele>798.0</ele><time>2026-04-25T07:43:37.391Z</time></trkpt><trkpt lat="43.8672833" lon="12.3341817"><ele>798.4285714285714</ele><time>2026-04-25T07:43:38.391Z</time></trkpt><trkpt lat="43.8672117" lon="12.33412"><ele>798.8571428571429</ele><time>2026-04-25T07:43:39.39Z</time></trkpt><trkpt lat="43.867145" lon="12.33408"><ele>799.2857142857142</ele><time>2026-04-25T07:43:40.391Z</time></trkpt><trkpt lat="43.8670733" lon="12.3340583"><ele>799.7142857142858</ele><time>2026-04-25T07:43:41.391Z</time></trkpt><trkpt lat="43.8670017" lon="12.3340433"><ele>800.1428571428571</ele><time>2026-04-25T07:43:42.391Z</time></trkpt><trkpt lat="43.8669317" lon="12.3340317"><ele>800.5714285714286</ele><time>2026-04-25T07:43:43.391Z</time></trkpt><trkpt lat="43.8668583" lon="12.334015"><ele>801.0</ele><time>2026-04-25T07:43:44.391Z</time></trkpt><trkpt lat="43.8667917" lon="12.333995"><ele>800.7142857142857</ele><time>2026-04-25T07:43:45.391Z</time></trkpt><trkpt lat="43.866735" lon="12.3339533"><ele>800.4285714285713</ele><time>2026-04-25T07:43:46.391Z</time></trkpt><trkpt lat="43.86668" lon="12.3338983"><ele>800.1428571428571</ele><time>2026-04-25T07:43:47.391Z</time></trkpt><trkpt lat="43.8666267" lon="12.3338217"><ele>799.8571428571429</ele><time>2026-04-25T07:43:48.39Z</time></trkpt><trkpt lat="43.866575" lon="12.3337217"><ele>799.5714285714286</ele><time>2026-04-25T07:43:49.391Z</time></trkpt><trkpt lat="43.8665283" lon="12.3336333"><ele>799.2857142857143</ele><time>2026-04-25T07:43:50.39Z</time></trkpt><trkpt lat="43.866485" lon="12.3335617"><ele>799.0</ele><time>2026-04-25T07:43:51.39Z</time></trkpt><trkpt lat="43.86643" lon="12.3334917"><ele>798.9999999999999</ele><time>2026-04-25T07:43:52.391Z</time></trkpt><trkpt lat="43.86636" lon="12.3334217"><ele>799.0</ele><time>2026-04-25T07:43:53.391Z</time></trkpt><trkpt lat="43.8662933" lon="12.3333583"><ele>799.0</ele><time>2026-04-25T07:43:54.39Z</time></trkpt><trkpt lat="43.8662167" lon="12.3333033"><ele>799.0</ele><time>2026-04-25T07:43:55.391Z</time></trkpt><trkpt lat="43.8661333" lon="12.3332383"><ele>798.9999999999999</ele><time>2026-04-25T07:43:56.391Z</time></trkpt><trkpt lat="43.8660567" lon="12.3331883"><ele>799.0</ele><time>2026-04-25T07:43:57.391Z</time></trkpt><trkpt lat="43.8659933" lon="12.3331483"><ele>799.5714285714286</ele><time>2026-04-25T07:43:58.39Z</time></trkpt><trkpt lat="43.8659383" lon="12.333095"><ele>800.1428571428571</ele><time>2026-04-25T07:43:59.39Z</time></trkpt><trkpt lat="43.8658833" lon="12.3330267"><ele>800.7142857142857</ele><time>2026-04-25T07:44:00.391Z</time></trkpt><trkpt lat="43.8658533" lon="12.332935"><ele>801.2857142857142</ele><time>2026-04-25T07:44:01.39Z</time></trkpt><trkpt lat="43.8658383" lon="12.3328283"><ele>801.8571428571429</ele><time>2026-04-25T07:44:02.39Z</time></trkpt><trkpt lat="43.8658467" lon="12.332725"><ele>802.4285714285713</ele><time>2026-04-25T07:44:03.391Z</time></trkpt><trkpt lat="43.86587" lon="12.3326183"><ele>803.0</ele><time>2026-04-25T07:44:04.39Z</time></trkpt><trkpt lat="43.8658967" lon="12.33251"><ele>803.0000000000001</ele><time>2026-04-25T07:44:05.391Z</time></trkpt><trkpt lat="43.8659117" lon="12.33242"><ele>803.0</ele><time>2026-04-25T07:44:06.391Z</time></trkpt><trkpt lat="43.8659067" lon="12.3323033"><ele>803.0</ele><time>2026-04-25T07:44:08.391Z</time></trkpt><trkpt lat="43.8659267" lon="12.332195"><ele>803.0</ele><time>2026-04-25T07:44:11.391Z</time></trkpt><trkpt lat="43.86601" lon="12.33211"><ele>803.0000000000001</ele><time>2026-04-25T07:44:14.391Z</time></trkpt><trkpt lat="43.8660917" lon="12.3320367"><ele>803.0</ele><time>2026-04-25T07:44:16.391Z</time></trkpt><trkpt lat="43.86617" lon="12.3319733"><ele>800.0</ele><time>2026-04-25T07:44:18.391Z</time></trkpt><trkpt lat="43.866265" lon="12.331875"><ele>797.0</ele><time>2026-04-25T07:44:20.391Z</time></trkpt><trkpt lat="43.8663183" lon="12.3318283"><ele>794.0</ele><time>2026-04-25T07:44:21.391Z</time></trkpt><trkpt lat="43.8663967" lon="12.3317317"><ele>791.0</ele><time>2026-04-25T07:44:23.391Z</time></trkpt><trkpt lat="43.8664567" lon="12.3316"><ele>788.0</ele><time>2026-04-25T07:44:25.39Z</time></trkpt><trkpt lat="43.8665233" lon="12.331465"><ele>788.0</ele><time>2026-04-25T07:44:27.39Z</time></trkpt><trkpt lat="43.8666017" lon="12.331375"><ele>788.0</ele><time>2026-04-25T07:44:29.391Z</time></trkpt><trkpt lat="43.8666667" lon="12.3313183"><ele>788.0</ele><time>2026-04-25T07:44:31.39Z</time></trkpt><trkpt lat="43.8667583" lon="12.3312767"><ele>788.0</ele><time>2026-04-25T07:44:33.391Z</time></trkpt><trkpt lat="43.8668667" lon="12.3312417"><ele>788.0</ele><time>2026-04-25T07:44:35.391Z</time></trkpt><trkpt lat="43.8669333" lon="12.3312267"><ele>786.1666666666667</ele><time>2026-04-25T07:44:36.391Z</time></trkpt><trkpt lat="43.867015" lon="12.33122"><ele>784.3333333333334</ele><time>2026-04-25T07:44:37.391Z</time></trkpt><trkpt lat="43.8670967" lon="12.3312183"><ele>782.5</ele><time>2026-04-25T07:44:38.391Z</time></trkpt><trkpt lat="43.8671767" lon="12.33121"><ele>780.6666666666667</ele><time>2026-04-25T07:44:39.391Z</time></trkpt><trkpt lat="43.867255" lon="12.3311833"><ele>778.8333333333334</ele><time>2026-04-25T07:44:40.39Z</time></trkpt><trkpt lat="43.8673217" lon="12.331145"><ele>777.0</ele><time>2026-04-25T07:44:41.391Z</time></trkpt><trkpt lat="43.867375" lon="12.33109"><ele>777.0</ele><time>2026-04-25T07:44:42.39Z</time></trkpt><trkpt lat="43.867425" lon="12.3310267"><ele>777.0</ele><time>2026-04-25T07:44:43.391Z</time></trkpt><trkpt lat="43.8674733" lon="12.3309467"><ele>777.0</ele><time>2026-04-25T07:44:44.391Z</time></trkpt><trkpt lat="43.8675017" lon="12.3308467"><ele>777.0</ele><time>2026-04-25T07:44:45.391Z</time></trkpt><trkpt lat="43.867515" lon="12.3307417"><ele>777.0</ele><time>2026-04-25T07:44:46.39Z</time></trkpt><trkpt lat="43.8675133" lon="12.3306333"><ele>777.0</ele><time>2026-04-25T07:44:47.39Z</time></trkpt><trkpt lat="43.8675" lon="12.3305283"><ele>776.2857142857143</ele><time>2026-04-25T07:44:48.39Z</time></trkpt><trkpt lat="43.8674883" lon="12.3304283"><ele>775.5714285714286</ele><time>2026-04-25T07:44:49.39Z</time></trkpt><trkpt lat="43.8674833" lon="12.33034"><ele>774.8571428571429</ele><time>2026-04-25T07:44:50.391Z</time></trkpt><trkpt lat="43.867485" lon="12.3302467"><ele>774.1428571428571</ele><time>2026-04-25T07:44:51.39Z</time></trkpt><trkpt lat="43.8674917" lon="12.33015"><ele>773.4285714285714</ele><time>2026-04-25T07:44:52.39Z</time></trkpt><trkpt lat="43.8674983" lon="12.3300483"><ele>772.7142857142858</ele><time>2026-04-25T07:44:53.39Z</time></trkpt><trkpt lat="43.8675033" lon="12.3299417"><ele>772.0</ele><time>2026-04-25T07:44:54.391Z</time></trkpt><trkpt lat="43.8675133" lon="12.329845"><ele>771.9999999999999</ele><time>2026-04-25T07:44:55.39Z</time></trkpt><trkpt lat="43.867525" lon="12.3297483"><ele>772.0</ele><time>2026-04-25T07:44:56.391Z</time></trkpt><trkpt lat="43.8675317" lon="12.3296533"><ele>772.0</ele><time>2026-04-25T07:44:57.391Z</time></trkpt><trkpt lat="43.8675167" lon="12.3294667"><ele>772.0</ele><time>2026-04-25T07:44:59.39Z</time></trkpt><trkpt lat="43.8675017" lon="12.3293717"><ele>771.9999999999999</ele><time>2026-04-25T07:45:00.39Z</time></trkpt><trkpt lat="43.8674917" lon="12.3292633"><ele>772.0</ele><time>2026-04-25T07:45:01.391Z</time></trkpt><trkpt lat="43.8674867" lon="12.32915"><ele>771.3333333333333</ele><time>2026-04-25T07:45:02.39Z</time></trkpt><trkpt lat="43.8674883" lon="12.3290367"><ele>770.6666666666666</ele><time>2026-04-25T07:45:03.391Z</time></trkpt><trkpt lat="43.8675017" lon="12.3289283"><ele>770.0</ele><time>2026-04-25T07:45:04.391Z</time></trkpt><trkpt lat="43.8675167" lon="12.3288317"><ele>769.3333333333333</ele><time>2026-04-25T07:45:05.391Z</time></trkpt><trkpt lat="43.8675333" lon="12.3287467"><ele>768.6666666666666</ele><time>2026-04-25T07:45:06.391Z</time></trkpt><trkpt lat="43.86758" lon="12.3286133"><ele>768.0</ele><time>2026-04-25T07:45:08.391Z</time></trkpt><trkpt lat="43.867685" lon="12.3285417"><ele>764.6666666666666</ele><time>2026-04-25T07:45:10.391Z</time></trkpt><trkpt lat="43.8677533" lon="12.3285"><ele>761.3333333333334</ele><time>2026-04-25T07:45:11.391Z</time></trkpt><trkpt lat="43.86782" lon="12.3284533"><ele>758.0</ele><time>2026-04-25T07:45:12.391Z</time></trkpt><trkpt lat="43.867885" lon="12.3283917"><ele>754.6666666666667</ele><time>2026-04-25T07:45:13.39Z</time></trkpt><trkpt lat="43.8679517" lon="12.32833"><ele>751.3333333333334</ele><time>2026-04-25T07:45:14.391Z</time></trkpt><trkpt lat="43.8680167" lon="12.32826"><ele>748.0</ele><time>2026-04-25T07:45:15.391Z</time></trkpt><trkpt lat="43.8680733" lon="12.328205"><ele>748.0</ele><time>2026-04-25T07:45:16.391Z</time></trkpt><trkpt lat="43.8681267" lon="12.3281183"><ele>748.0</ele><time>2026-04-25T07:45:18.391Z</time></trkpt><trkpt lat="43.8681267" lon="12.32802"><ele>748.0</ele><time>2026-04-25T07:45:20.39Z</time></trkpt><trkpt lat="43.8680983" lon="12.3279383"><ele>748.0</ele><time>2026-04-25T07:45:21.391Z</time></trkpt><trkpt lat="43.8680617" lon="12.327825"><ele>748.0</ele><time>2026-04-25T07:45:22.391Z</time></trkpt><trkpt lat="43.868015" lon="12.3276617"><ele>748.0</ele><time>2026-04-25T07:45:23.391Z</time></trkpt><trkpt lat="43.8679617" lon="12.327485"><ele>748.0</ele><time>2026-04-25T07:45:24.39Z</time></trkpt><trkpt lat="43.8679183" lon="12.3273183"><ele>748.0</ele><time>2026-04-25T07:45:25.391Z</time></trkpt><trkpt lat="43.867875" lon="12.3271783"><ele>748.0</ele><time>2026-04-25T07:45:26.39Z</time></trkpt><trkpt lat="43.867855" lon="12.3270483"><ele>748.0</ele><time>2026-04-25T07:45:27.39Z</time></trkpt><trkpt lat="43.8678567" lon="12.3269083"><ele>748.0</ele><time>2026-04-25T07:45:28.391Z</time></trkpt><trkpt lat="43.8678783" lon="12.3267667"><ele>747.8333333333334</ele><time>2026-04-25T07:45:29.39Z</time></trkpt><trkpt lat="43.86792" lon="12.3266417"><ele>747.6666666666667</ele><time>2026-04-25T07:45:30.39Z</time></trkpt><trkpt lat="43.86798" lon="12.3265367"><ele>747.5</ele><time>2026-04-25T07:45:31.391Z</time></trkpt><trkpt lat="43.868025" lon="12.3264417"><ele>747.3333333333334</ele><time>2026-04-25T07:45:32.39Z</time></trkpt><trkpt lat="43.8680533" lon="12.3263467"><ele>747.1666666666666</ele><time>2026-04-25T07:45:33.39Z</time></trkpt><trkpt lat="43.86804" lon="12.3262167"><ele>747.0</ele><time>2026-04-25T07:45:35.39Z</time></trkpt><trkpt lat="43.8679383" lon="12.3261317"><ele>746.0</ele><time>2026-04-25T07:45:37.391Z</time></trkpt><trkpt lat="43.86786" lon="12.3261017"><ele>745.0</ele><time>2026-04-25T07:45:38.391Z</time></trkpt><trkpt lat="43.8677783" lon="12.3260533"><ele>744.0</ele><time>2026-04-25T07:45:39.391Z</time></trkpt><trkpt lat="43.8677167" lon="12.325965"><ele>743.0</ele><time>2026-04-25T07:45:40.39Z</time></trkpt><trkpt lat="43.8676717" lon="12.3258417"><ele>742.0</ele><time>2026-04-25T07:45:41.391Z</time></trkpt><trkpt lat="43.8676483" lon="12.3257083"><ele>742.0</ele><time>2026-04-25T07:45:42.391Z</time></trkpt><trkpt lat="43.8676433" lon="12.3255717"><ele>742.0</ele><time>2026-04-25T07:45:43.391Z</time></trkpt><trkpt lat="43.8676392" lon="12.3254228"><ele>742.0</ele><time>2026-04-25T07:45:44.391Z</time></trkpt><trkpt lat="43.8676363" lon="12.3252618"><ele>742.0</ele><time>2026-04-25T07:45:45.391Z</time></trkpt><trkpt lat="43.8676362" lon="12.3251027"><ele>742.0</ele><time>2026-04-25T07:45:46.391Z</time></trkpt><trkpt lat="43.8676365" lon="12.3249557"><ele>742.5</ele><time>2026-04-25T07:45:47.391Z</time></trkpt><trkpt lat="43.8676395" lon="12.3248203"><ele>743.0</ele><time>2026-04-25T07:45:48.39Z</time></trkpt><trkpt lat="43.8676433" lon="12.3246961"><ele>743.5</ele><time>2026-04-25T07:45:49.391Z</time></trkpt><trkpt lat="43.8676484" lon="12.3245832"><ele>744.0</ele><time>2026-04-25T07:45:50.391Z</time></trkpt><trkpt lat="43.8676636" lon="12.3244884"><ele>744.5</ele><time>2026-04-25T07:45:51.391Z</time></trkpt><trkpt lat="43.8676784" lon="12.3243377"><ele>745.0</ele><time>2026-04-25T07:45:53.39Z</time></trkpt><trkpt lat="43.867675" lon="12.324245"><ele>746.1666666666667</ele><time>2026-04-25T07:46:04.391Z</time></trkpt><trkpt lat="43.8677333" lon="12.3241433"><ele>747.3333333333334</ele><time>2026-04-25T07:46:06.391Z</time></trkpt><trkpt lat="43.8677933" lon="12.324095"><ele>748.5</ele><time>2026-04-25T07:46:07.391Z</time></trkpt><trkpt lat="43.8678517" lon="12.32405"><ele>749.6666666666666</ele><time>2026-04-25T07:46:08.391Z</time></trkpt><trkpt lat="43.8679183" lon="12.32399"><ele>750.8333333333333</ele><time>2026-04-25T07:46:10.39Z</time></trkpt><trkpt lat="43.86791" lon="12.3238717"><ele>752.0</ele><time>2026-04-25T07:46:14.39Z</time></trkpt><trkpt lat="43.867875" lon="12.32376"><ele>754.75</ele><time>2026-04-25T07:46:16.391Z</time></trkpt><trkpt lat="43.867825" lon="12.323625"><ele>757.5</ele><time>2026-04-25T07:46:18.391Z</time></trkpt><trkpt lat="43.8677767" lon="12.3234833"><ele>760.25</ele><time>2026-04-25T07:46:20.391Z</time></trkpt><trkpt lat="43.86772" lon="12.323335"><ele>763.0</ele><time>2026-04-25T07:46:22.391Z</time></trkpt><trkpt lat="43.86768" lon="12.3231833"><ele>762.75</ele><time>2026-04-25T07:46:24.391Z</time></trkpt><trkpt lat="43.86765" lon="12.32303"><ele>762.5</ele><time>2026-04-25T07:46:26.391Z</time></trkpt><trkpt lat="43.8676217" lon="12.32289"><ele>762.25</ele><time>2026-04-25T07:46:28.391Z</time></trkpt><trkpt lat="43.86759" lon="12.32272"><ele>762.0</ele><time>2026-04-25T07:46:30.39Z</time></trkpt><trkpt lat="43.8675517" lon="12.3225667"><ele>758.1666666666666</ele><time>2026-04-25T07:46:32.391Z</time></trkpt><trkpt lat="43.86754" lon="12.322435"><ele>754.3333333333334</ele><time>2026-04-25T07:46:34.391Z</time></trkpt><trkpt lat="43.8675183" lon="12.322325"><ele>750.5</ele><time>2026-04-25T07:46:36.391Z</time></trkpt><trkpt lat="43.8674817" lon="12.32223"><ele>746.6666666666667</ele><time>2026-04-25T07:46:38.391Z</time></trkpt><trkpt lat="43.86744" lon="12.322135"><ele>742.8333333333334</ele><time>2026-04-25T07:46:40.391Z</time></trkpt><trkpt lat="43.867365" lon="12.3220217"><ele>739.0</ele><time>2026-04-25T07:46:42.391Z</time></trkpt><trkpt lat="43.867305" lon="12.321875"><ele>738.6666666666667</ele><time>2026-04-25T07:46:44.39Z</time></trkpt><trkpt lat="43.8672717" lon="12.3217983"><ele>738.3333333333334</ele><time>2026-04-25T07:46:45.391Z</time></trkpt><trkpt lat="43.8672367" lon="12.3217167"><ele>738.0</ele><time>2026-04-25T07:46:46.39Z</time></trkpt><trkpt lat="43.8671883" lon="12.3216233"><ele>737.6666666666666</ele><time>2026-04-25T07:46:47.391Z</time></trkpt><trkpt lat="43.8671383" lon="12.321535"><ele>737.3333333333333</ele><time>2026-04-25T07:46:48.39Z</time></trkpt><trkpt lat="43.8670933" lon="12.3214583"><ele>737.0</ele><time>2026-04-25T07:46:49.391Z</time></trkpt><trkpt lat="43.8670233" lon="12.3213483"><ele>737.0000000000001</ele><time>2026-04-25T07:46:51.391Z</time></trkpt><trkpt lat="43.8669683" lon="12.3212567"><ele>737.0</ele><time>2026-04-25T07:46:53.391Z</time></trkpt><trkpt lat="43.86691" lon="12.3211967"><ele>737.0</ele><time>2026-04-25T07:46:55.39Z</time></trkpt><trkpt lat="43.8668533" lon="12.3211517"><ele>737.0</ele><time>2026-04-25T07:46:57.391Z</time></trkpt><trkpt lat="43.8667867" lon="12.3211083"><ele>737.0</ele><time>2026-04-25T07:47:00.391Z</time></trkpt><trkpt lat="43.8667217" lon="12.3210467"><ele>737.0000000000001</ele><time>2026-04-25T07:47:03.39Z</time></trkpt><trkpt lat="43.86667" lon="12.3209917"><ele>737.0</ele><time>2026-04-25T07:47:06.391Z</time></trkpt><trkpt lat="43.866615" lon="12.32091"><ele>734.1428571428572</ele><time>2026-04-25T07:47:09.391Z</time></trkpt><trkpt lat="43.8665617" lon="12.3208417"><ele>731.2857142857143</ele><time>2026-04-25T07:47:12.391Z</time></trkpt><trkpt lat="43.8665083" lon="12.3207533"><ele>728.4285714285714</ele><time>2026-04-25T07:47:15.391Z</time></trkpt><trkpt lat="43.8664633" lon="12.3206867"><ele>725.5714285714287</ele><time>2026-04-25T07:47:17.391Z</time></trkpt><trkpt lat="43.8664167" lon="12.3206267"><ele>722.7142857142857</ele><time>2026-04-25T07:47:19.39Z</time></trkpt><trkpt lat="43.8663717" lon="12.3205633"><ele>719.8571428571429</ele><time>2026-04-25T07:47:21.39Z</time></trkpt><trkpt lat="43.8663067" lon="12.3204767"><ele>717.0</ele><time>2026-04-25T07:47:24.39Z</time></trkpt><trkpt lat="43.8662417" lon="12.3203933"><ele>716.8333333333334</ele><time>2026-04-25T07:47:27.39Z</time></trkpt><trkpt lat="43.8661783" lon="12.3203231"><ele>716.6666666666666</ele><time>2026-04-25T07:47:29.448Z</time></trkpt><trkpt lat="43.8661172" lon="12.320272"><ele>716.5</ele><time>2026-04-25T07:47:31.46Z</time></trkpt><trkpt lat="43.8660319" lon="12.3202742"><ele>716.3333333333333</ele><time>2026-04-25T07:47:34.39Z</time></trkpt><trkpt lat="43.8659561" lon="12.3203074"><ele>716.1666666666666</ele><time>2026-04-25T07:47:36.326Z</time></trkpt><trkpt lat="43.8658685" lon="12.320362"><ele>716.0</ele><time>2026-04-25T07:47:38.403Z</time></trkpt><trkpt lat="43.8658083" lon="12.3204133"><ele>713.1666666666666</ele><time>2026-04-25T07:47:40.39Z</time></trkpt><trkpt lat="43.8657333" lon="12.3204417"><ele>710.3333333333333</ele><time>2026-04-25T07:47:42.39Z</time></trkpt><trkpt lat="43.8656467" lon="12.3204533"><ele>707.5</ele><time>2026-04-25T07:47:44.391Z</time></trkpt><trkpt lat="43.8655617" lon="12.32044"><ele>704.6666666666666</ele><time>2026-04-25T07:47:46.391Z</time></trkpt><trkpt lat="43.8654683" lon="12.3204"><ele>701.8333333333334</ele><time>2026-04-25T07:47:48.391Z</time></trkpt><trkpt lat="43.8653717" lon="12.32036"><ele>699.0</ele><time>2026-04-25T07:47:50.391Z</time></trkpt><trkpt lat="43.865305" lon="12.3203433"><ele>699.0</ele><time>2026-04-25T07:47:52.391Z</time></trkpt><trkpt lat="43.8652267" lon="12.3203533"><ele>699.0</ele><time>2026-04-25T07:47:54.39Z</time></trkpt><trkpt lat="43.865145" lon="12.3203767"><ele>699.0</ele><time>2026-04-25T07:47:56.39Z</time></trkpt><trkpt lat="43.86508" lon="12.3203983"><ele>699.0</ele><time>2026-04-25T07:47:58.391Z</time></trkpt><trkpt lat="43.8650133" lon="12.3204033"><ele>699.0</ele><time>2026-04-25T07:48:00.39Z</time></trkpt><trkpt lat="43.8649267" lon="12.32037"><ele>699.0</ele><time>2026-04-25T07:48:02.391Z</time></trkpt><trkpt lat="43.8648267" lon="12.3202767"><ele>697.5</ele><time>2026-04-25T07:48:04.391Z</time></trkpt><trkpt lat="43.8647467" lon="12.3201867"><ele>696.0</ele><time>2026-04-25T07:48:06.39Z</time></trkpt><trkpt lat="43.86467" lon="12.3201333"><ele>694.5</ele><time>2026-04-25T07:48:08.39Z</time></trkpt><trkpt lat="43.8645983" lon="12.3201117"><ele>693.0</ele><time>2026-04-25T07:48:10.391Z</time></trkpt><trkpt lat="43.8645317" lon="12.32011"><ele>691.5</ele><time>2026-04-25T07:48:12.391Z</time></trkpt><trkpt lat="43.86447" lon="12.3200817"><ele>690.0</ele><time>2026-04-25T07:48:14.391Z</time></trkpt><trkpt lat="43.8643766" lon="12.3200912"><ele>690.0</ele><time>2026-04-25T07:48:17.277Z</time></trkpt><trkpt lat="43.8642853" lon="12.320187"><ele>690.0</ele><time>2026-04-25T07:48:19.391Z</time></trkpt><trkpt lat="43.8642145" lon="12.3202507"><ele>690.0</ele><time>2026-04-25T07:48:20.391Z</time></trkpt><trkpt lat="43.8641267" lon="12.3203067"><ele>690.0</ele><time>2026-04-25T07:48:21.391Z</time></trkpt><trkpt lat="43.8640567" lon="12.3203333"><ele>690.0</ele><time>2026-04-25T07:48:22.391Z</time></trkpt><trkpt lat="43.8639817" lon="12.3203433"><ele>690.0</ele><time>2026-04-25T07:48:23.39Z</time></trkpt><trkpt lat="43.8638967" lon="12.3203367"><ele>689.1666666666666</ele><time>2026-04-25T07:48:24.39Z</time></trkpt><trkpt lat="43.8638267" lon="12.3203067"><ele>688.3333333333334</ele><time>2026-04-25T07:48:25.391Z</time></trkpt><trkpt lat="43.8637683" lon="12.32024"><ele>687.5</ele><time>2026-04-25T07:48:26.39Z</time></trkpt><trkpt lat="43.86372" lon="12.3201517"><ele>686.6666666666667</ele><time>2026-04-25T07:48:27.39Z</time></trkpt><trkpt lat="43.8636717" lon="12.3200583"><ele>685.8333333333334</ele><time>2026-04-25T07:48:28.391Z</time></trkpt><trkpt lat="43.8636183" lon="12.3199733"><ele>685.0</ele><time>2026-04-25T07:48:29.39Z</time></trkpt><trkpt lat="43.8635483" lon="12.3198967"><ele>685.0</ele><time>2026-04-25T07:48:30.391Z</time></trkpt><trkpt lat="43.863465" lon="12.3198217"><ele>685.0</ele><time>2026-04-25T07:48:31.391Z</time></trkpt><trkpt lat="43.8633833" lon="12.31974"><ele>685.0</ele><time>2026-04-25T07:48:32.391Z</time></trkpt><trkpt lat="43.86331" lon="12.3196667"><ele>685.0</ele><time>2026-04-25T07:48:33.391Z</time></trkpt><trkpt lat="43.8632283" lon="12.31959"><ele>685.0</ele><time>2026-04-25T07:48:34.391Z</time></trkpt><trkpt lat="43.8631417" lon="12.3195067"><ele>684.0</ele><time>2026-04-25T07:48:35.39Z</time></trkpt><trkpt lat="43.8630583" lon="12.3194267"><ele>683.0</ele><time>2026-04-25T07:48:36.39Z</time></trkpt><trkpt lat="43.862985" lon="12.3193317"><ele>682.0</ele><time>2026-04-25T07:48:37.391Z</time></trkpt><trkpt lat="43.8629233" lon="12.3192333"><ele>681.0</ele><time>2026-04-25T07:48:38.391Z</time></trkpt><trkpt lat="43.86287" lon="12.3191533"><ele>680.0</ele><time>2026-04-25T07:48:39.39Z</time></trkpt><trkpt lat="43.8628217" lon="12.3190533"><ele>680.0</ele><time>2026-04-25T07:48:40.39Z</time></trkpt><trkpt lat="43.8627717" lon="12.318965"><ele>680.0</ele><time>2026-04-25T07:48:41.391Z</time></trkpt><trkpt lat="43.8627217" lon="12.3188917"><ele>680.0</ele><time>2026-04-25T07:48:42.391Z</time></trkpt><trkpt lat="43.8626583" lon="12.318845"><ele>680.0</ele><time>2026-04-25T07:48:43.39Z</time></trkpt><trkpt lat="43.8625833" lon="12.31881"><ele>680.0</ele><time>2026-04-25T07:48:44.391Z</time></trkpt><trkpt lat="43.8624917" lon="12.318795"><ele>680.0</ele><time>2026-04-25T07:48:45.39Z</time></trkpt><trkpt lat="43.8623967" lon="12.3187783"><ele>681.0</ele><time>2026-04-25T07:48:46.39Z</time></trkpt><trkpt lat="43.8622983" lon="12.3187667"><ele>682.0</ele><time>2026-04-25T07:48:47.39Z</time></trkpt><trkpt lat="43.8622" lon="12.318745"><ele>683.0</ele><time>2026-04-25T07:48:48.391Z</time></trkpt><trkpt lat="43.8621" lon="12.3187233"><ele>684.0</ele><time>2026-04-25T07:48:49.391Z</time></trkpt><trkpt lat="43.8620017" lon="12.3187033"><ele>685.0</ele><time>2026-04-25T07:48:50.39Z</time></trkpt><trkpt lat="43.8619033" lon="12.3186867"><ele>685.0</ele><time>2026-04-25T07:48:51.391Z</time></trkpt><trkpt lat="43.8618167" lon="12.3186567"><ele>685.0</ele><time>2026-04-25T07:48:52.39Z</time></trkpt><trkpt lat="43.8617383" lon="12.3186067"><ele>685.0</ele><time>2026-04-25T07:48:53.391Z</time></trkpt><trkpt lat="43.8616583" lon="12.3185483"><ele>685.0</ele><time>2026-04-25T07:48:54.391Z</time></trkpt><trkpt lat="43.8615783" lon="12.31847"><ele>685.0</ele><time>2026-04-25T07:48:55.39Z</time></trkpt><trkpt lat="43.8614983" lon="12.3183883"><ele>686.4</ele><time>2026-04-25T07:48:56.39Z</time></trkpt><trkpt lat="43.8614117" lon="12.3182983"><ele>687.8</ele><time>2026-04-25T07:48:57.391Z</time></trkpt><trkpt lat="43.8613333" lon="12.3182283"><ele>689.2</ele><time>2026-04-25T07:48:58.391Z</time></trkpt><trkpt lat="43.8612483" lon="12.3181633"><ele>690.6</ele><time>2026-04-25T07:48:59.39Z</time></trkpt><trkpt lat="43.8611617" lon="12.3180967"><ele>692.0</ele><time>2026-04-25T07:49:00.39Z</time></trkpt><trkpt lat="43.86107" lon="12.3180367"><ele>692.0</ele><time>2026-04-25T07:49:01.39Z</time></trkpt><trkpt lat="43.860985" lon="12.3179883"><ele>692.0</ele><time>2026-04-25T07:49:02.391Z</time></trkpt><trkpt lat="43.860915" lon="12.3179467"><ele>692.0</ele><time>2026-04-25T07:49:03.391Z</time></trkpt><trkpt lat="43.8608467" lon="12.3179317"><ele>692.0</ele><time>2026-04-25T07:49:04.391Z</time></trkpt><trkpt lat="43.860755" lon="12.317945"><ele>692.0</ele><time>2026-04-25T07:49:06.391Z</time></trkpt><trkpt lat="43.8606817" lon="12.3180033"><ele>692.0</ele><time>2026-04-25T07:49:08.39Z</time></trkpt><trkpt lat="43.86061" lon="12.3180483"><ele>695.6666666666666</ele><time>2026-04-25T07:49:10.39Z</time></trkpt><trkpt lat="43.8605333" lon="12.3180883"><ele>699.3333333333333</ele><time>2026-04-25T07:49:13.391Z</time></trkpt><trkpt lat="43.860485" lon="12.3180167"><ele>703.0</ele><time>2026-04-25T07:49:15.39Z</time></trkpt><trkpt lat="43.8604367" lon="12.3179"><ele>706.6666666666666</ele><time>2026-04-25T07:49:17.39Z</time></trkpt><trkpt lat="43.8603867" lon="12.3178017"><ele>710.3333333333334</ele><time>2026-04-25T07:49:19.39Z</time></trkpt><trkpt lat="43.8603333" lon="12.31771"><ele>714.0</ele><time>2026-04-25T07:49:21.391Z</time></trkpt><trkpt lat="43.860275" lon="12.3176117"><ele>714.0</ele><time>2026-04-25T07:49:23.391Z</time></trkpt><trkpt lat="43.86022" lon="12.3175333"><ele>714.0</ele><time>2026-04-25T07:49:25.39Z</time></trkpt><trkpt lat="43.86016" lon="12.3174833"><ele>714.0</ele><time>2026-04-25T07:49:27.391Z</time></trkpt><trkpt lat="43.8600783" lon="12.3174433"><ele>714.0</ele><time>2026-04-25T07:49:29.391Z</time></trkpt><trkpt lat="43.859995" lon="12.3174117"><ele>714.0</ele><time>2026-04-25T07:49:31.391Z</time></trkpt><trkpt lat="43.8599137" lon="12.3173784"><ele>714.0</ele><time>2026-04-25T07:49:33.39Z</time></trkpt><trkpt lat="43.8598447" lon="12.3173324"><ele>713.3333333333334</ele><time>2026-04-25T07:49:35.391Z</time></trkpt><trkpt lat="43.8597911" lon="12.3172541"><ele>712.6666666666666</ele><time>2026-04-25T07:49:37.402Z</time></trkpt><trkpt lat="43.8597576" lon="12.3171324"><ele>712.0</ele><time>2026-04-25T07:49:39.467Z</time></trkpt><trkpt lat="43.8597366" lon="12.3170198"><ele>711.3333333333333</ele><time>2026-04-25T07:49:41.419Z</time></trkpt><trkpt lat="43.8597617" lon="12.3169133"><ele>710.6666666666666</ele><time>2026-04-25T07:49:43.39Z</time></trkpt><trkpt lat="43.8597667" lon="12.3167917"><ele>710.0</ele><time>2026-04-25T07:49:45.391Z</time></trkpt><trkpt lat="43.85978" lon="12.3166867"><ele>708.2857142857142</ele><time>2026-04-25T07:49:47.39Z</time></trkpt><trkpt lat="43.8597683" lon="12.3165867"><ele>706.5714285714286</ele><time>2026-04-25T07:49:49.39Z</time></trkpt><trkpt lat="43.8597567" lon="12.3164817"><ele>704.8571428571429</ele><time>2026-04-25T07:49:51.391Z</time></trkpt><trkpt lat="43.8597417" lon="12.3163733"><ele>703.1428571428571</ele><time>2026-04-25T07:49:53.391Z</time></trkpt><trkpt lat="43.8597017" lon="12.31627"><ele>701.4285714285714</ele><time>2026-04-25T07:49:56.39Z</time></trkpt><trkpt lat="43.8596583" lon="12.3162067"><ele>699.7142857142857</ele><time>2026-04-25T07:49:58.391Z</time></trkpt><trkpt lat="43.859605" lon="12.3161417"><ele>698.0</ele><time>2026-04-25T07:50:00.391Z</time></trkpt><trkpt lat="43.85957" lon="12.316045"><ele>695.0</ele><time>2026-04-25T07:50:02.39Z</time></trkpt><trkpt lat="43.85955" lon="12.3159433"><ele>692.0</ele><time>2026-04-25T07:50:04.391Z</time></trkpt><trkpt lat="43.859565" lon="12.31584"><ele>689.0</ele><time>2026-04-25T07:50:06.39Z</time></trkpt><trkpt lat="43.8595883" lon="12.3157167"><ele>686.0</ele><time>2026-04-25T07:50:08.391Z</time></trkpt><trkpt lat="43.859615" lon="12.31555"><ele>683.0</ele><time>2026-04-25T07:50:10.39Z</time></trkpt><trkpt lat="43.8596383" lon="12.3153867"><ele>680.8</ele><time>2026-04-25T07:50:12.39Z</time></trkpt><trkpt lat="43.859675" lon="12.3152183"><ele>678.5999999999999</ele><time>2026-04-25T07:50:14.391Z</time></trkpt><trkpt lat="43.859715" lon="12.3151067"><ele>676.4000000000001</ele><time>2026-04-25T07:50:16.391Z</time></trkpt><trkpt lat="43.859745" lon="12.3150067"><ele>674.2</ele><time>2026-04-25T07:50:18.391Z</time></trkpt><trkpt lat="43.85973" lon="12.31488"><ele>672.0</ele><time>2026-04-25T07:50:20.391Z</time></trkpt><trkpt lat="43.8596933" lon="12.3147467"><ele>670.1666666666666</ele><time>2026-04-25T07:50:22.39Z</time></trkpt><trkpt lat="43.8596533" lon="12.3146133"><ele>668.3333333333334</ele><time>2026-04-25T07:50:24.391Z</time></trkpt><trkpt lat="43.8596217" lon="12.3145067"><ele>666.5</ele><time>2026-04-25T07:50:26.391Z</time></trkpt><trkpt lat="43.8595867" lon="12.3144233"><ele>664.6666666666667</ele><time>2026-04-25T07:50:28.39Z</time></trkpt><trkpt lat="43.8595433" lon="12.31431"><ele>662.8333333333334</ele><time>2026-04-25T07:50:30.39Z</time></trkpt><trkpt lat="43.8595283" lon="12.3141917"><ele>661.0</ele><time>2026-04-25T07:50:32.39Z</time></trkpt><trkpt lat="43.859545" lon="12.3140517"><ele>661.0</ele><time>2026-04-25T07:50:34.391Z</time></trkpt><trkpt lat="43.85959" lon="12.31392"><ele>661.0</ele><time>2026-04-25T07:50:36.39Z</time></trkpt><trkpt lat="43.8596567" lon="12.31379"><ele>661.0</ele><time>2026-04-25T07:50:38.39Z</time></trkpt><trkpt lat="43.8597367" lon="12.31365"><ele>661.0</ele><time>2026-04-25T07:50:40.391Z</time></trkpt><trkpt lat="43.8597783" lon="12.313575"><ele>661.0</ele><time>2026-04-25T07:50:41.391Z</time></trkpt><trkpt lat="43.859815" lon="12.3134967"><ele>659.5714285714286</ele><time>2026-04-25T07:50:42.39Z</time></trkpt><trkpt lat="43.8598517" lon="12.3134233"><ele>658.1428571428571</ele><time>2026-04-25T07:50:43.39Z</time></trkpt><trkpt lat="43.8598883" lon="12.3133517"><ele>656.7142857142858</ele><time>2026-04-25T07:50:44.39Z</time></trkpt><trkpt lat="43.859925" lon="12.3132717"><ele>655.2857142857142</ele><time>2026-04-25T07:50:45.391Z</time></trkpt><trkpt lat="43.859965" lon="12.3132"><ele>653.8571428571429</ele><time>2026-04-25T07:50:46.391Z</time></trkpt><trkpt lat="43.86001" lon="12.3131267"><ele>652.4285714285714</ele><time>2026-04-25T07:50:47.39Z</time></trkpt><trkpt lat="43.8600517" lon="12.313055"><ele>651.0</ele><time>2026-04-25T07:50:48.391Z</time></trkpt><trkpt lat="43.8600917" lon="12.3129833"><ele>648.8</ele><time>2026-04-25T07:50:49.391Z</time></trkpt><trkpt lat="43.860135" lon="12.3129033"><ele>646.5999999999999</ele><time>2026-04-25T07:50:50.391Z</time></trkpt><trkpt lat="43.86017" lon="12.3128267"><ele>644.4</ele><time>2026-04-25T07:50:51.39Z</time></trkpt><trkpt lat="43.8602283" lon="12.3126817"><ele>642.2</ele><time>2026-04-25T07:50:53.391Z</time></trkpt><trkpt lat="43.860255" lon="12.3125367"><ele>640.0</ele><time>2026-04-25T07:50:55.391Z</time></trkpt><trkpt lat="43.8602767" lon="12.3123983"><ele>640.0</ele><time>2026-04-25T07:50:57.391Z</time></trkpt><trkpt lat="43.8602967" lon="12.3122983"><ele>640.0</ele><time>2026-04-25T07:51:00.391Z</time></trkpt><trkpt lat="43.8603283" lon="12.3122167"><ele>640.0</ele><time>2026-04-25T07:51:02.391Z</time></trkpt><trkpt lat="43.8604133" lon="12.3121167"><ele>640.0</ele><time>2026-04-25T07:51:04.391Z</time></trkpt><trkpt lat="43.8604683" lon="12.3120667"><ele>640.0</ele><time>2026-04-25T07:51:05.391Z</time></trkpt><trkpt lat="43.860565" lon="12.3119883"><ele>640.0</ele><time>2026-04-25T07:51:07.39Z</time></trkpt><trkpt lat="43.8606267" lon="12.3118867"><ele>639.8</ele><time>2026-04-25T07:51:09.39Z</time></trkpt><trkpt lat="43.860655" lon="12.3117483"><ele>639.6</ele><time>2026-04-25T07:51:11.391Z</time></trkpt><trkpt lat="43.8606633" lon="12.311625"><ele>639.4</ele><time>2026-04-25T07:51:13.39Z</time></trkpt><trkpt lat="43.8606633" lon="12.3115"><ele>639.2</ele><time>2026-04-25T07:51:15.391Z</time></trkpt><trkpt lat="43.8606583" lon="12.311365"><ele>639.0</ele><time>2026-04-25T07:51:17.391Z</time></trkpt><trkpt lat="43.860655" lon="12.3112267"><ele>637.4</ele><time>2026-04-25T07:51:19.39Z</time></trkpt><trkpt lat="43.8606583" lon="12.3110817"><ele>635.8</ele><time>2026-04-25T07:51:21.39Z</time></trkpt><trkpt lat="43.8607067" lon="12.3109267"><ele>634.2</ele><time>2026-04-25T07:51:23.39Z</time></trkpt><trkpt lat="43.86076" lon="12.3108"><ele>632.6</ele><time>2026-04-25T07:51:25.39Z</time></trkpt><trkpt lat="43.8608167" lon="12.3106717"><ele>631.0</ele><time>2026-04-25T07:51:27.39Z</time></trkpt><trkpt lat="43.8608583" lon="12.31053"><ele>629.0</ele><time>2026-04-25T07:51:29.391Z</time></trkpt><trkpt lat="43.8608967" lon="12.3103933"><ele>627.0</ele><time>2026-04-25T07:51:31.391Z</time></trkpt><trkpt lat="43.8609317" lon="12.3102717"><ele>625.0</ele><time>2026-04-25T07:51:33.391Z</time></trkpt><trkpt lat="43.8609783" lon="12.3101733"><ele>623.0</ele><time>2026-04-25T07:51:35.39Z</time></trkpt><trkpt lat="43.8610283" lon="12.3100717"><ele>621.0</ele><time>2026-04-25T07:51:37.391Z</time></trkpt><trkpt lat="43.8610767" lon="12.3099517"><ele>615.5</ele><time>2026-04-25T07:51:39.39Z</time></trkpt><trkpt lat="43.8611083" lon="12.3098"><ele>610.0</ele><time>2026-04-25T07:51:41.391Z</time></trkpt><trkpt lat="43.86114" lon="12.3096367"><ele>604.5</ele><time>2026-04-25T07:51:43.39Z</time></trkpt><trkpt lat="43.8611617" lon="12.309475"><ele>599.0</ele><time>2026-04-25T07:51:45.39Z</time></trkpt><trkpt lat="43.861175" lon="12.309315"><ele>599.0</ele><time>2026-04-25T07:51:47.391Z</time></trkpt><trkpt lat="43.8611817" lon="12.309175"><ele>599.0</ele><time>2026-04-25T07:51:49.39Z</time></trkpt><trkpt lat="43.8612" lon="12.309045"><ele>599.0</ele><time>2026-04-25T07:51:51.391Z</time></trkpt><trkpt lat="43.8612533" lon="12.3089183"><ele>599.0</ele><time>2026-04-25T07:51:53.391Z</time></trkpt><trkpt lat="43.861305" lon="12.3088533"><ele>599.0</ele><time>2026-04-25T07:51:54.391Z</time></trkpt><trkpt lat="43.8613583" lon="12.30879"><ele>599.0</ele><time>2026-04-25T07:51:55.39Z</time></trkpt><trkpt lat="43.861405" lon="12.30873"><ele>598.1666666666666</ele><time>2026-04-25T07:51:56.391Z</time></trkpt><trkpt lat="43.8614783" lon="12.3085767"><ele>597.3333333333333</ele><time>2026-04-25T07:51:58.39Z</time></trkpt><trkpt lat="43.8615117" lon="12.3084917"><ele>596.5</ele><time>2026-04-25T07:51:59.391Z</time></trkpt><trkpt lat="43.8615517" lon="12.3084083"><ele>595.6666666666666</ele><time>2026-04-25T07:52:00.391Z</time></trkpt><trkpt lat="43.8615917" lon="12.3083283"><ele>594.8333333333334</ele><time>2026-04-25T07:52:01.39Z</time></trkpt><trkpt lat="43.8616333" lon="12.30825"><ele>594.0</ele><time>2026-04-25T07:52:02.39Z</time></trkpt><trkpt lat="43.861685" lon="12.3081283"><ele>592.1666666666666</ele><time>2026-04-25T07:52:04.39Z</time></trkpt><trkpt lat="43.861705" lon="12.3080217"><ele>590.3333333333334</ele><time>2026-04-25T07:52:06.39Z</time></trkpt><trkpt lat="43.861695" lon="12.3079083"><ele>588.5</ele><time>2026-04-25T07:52:08.39Z</time></trkpt><trkpt lat="43.8616767" lon="12.307805"><ele>586.6666666666667</ele><time>2026-04-25T07:52:10.391Z</time></trkpt><trkpt lat="43.8616967" lon="12.3076817"><ele>584.8333333333334</ele><time>2026-04-25T07:52:12.391Z</time></trkpt><trkpt lat="43.8617033" lon="12.3075483"><ele>583.0</ele><time>2026-04-25T07:52:14.391Z</time></trkpt><trkpt lat="43.8616667" lon="12.307415"><ele>583.0000000000001</ele><time>2026-04-25T07:52:16.39Z</time></trkpt><trkpt lat="43.8616367" lon="12.3073317"><ele>583.0</ele><time>2026-04-25T07:52:17.391Z</time></trkpt><trkpt lat="43.8615967" lon="12.30724"><ele>583.0</ele><time>2026-04-25T07:52:18.39Z</time></trkpt><trkpt lat="43.8615567" lon="12.3071517"><ele>583.0</ele><time>2026-04-25T07:52:19.391Z</time></trkpt><trkpt lat="43.8615167" lon="12.30707"><ele>583.0</ele><time>2026-04-25T07:52:20.39Z</time></trkpt><trkpt lat="43.8614767" lon="12.3069867"><ele>583.0000000000001</ele><time>2026-04-25T07:52:21.39Z</time></trkpt><trkpt lat="43.86144" lon="12.306915"><ele>583.0</ele><time>2026-04-25T07:52:22.39Z</time></trkpt><trkpt lat="43.86139" lon="12.306775"><ele>581.1666666666667</ele><time>2026-04-25T07:52:24.391Z</time></trkpt><trkpt lat="43.8614167" lon="12.306635"><ele>579.3333333333334</ele><time>2026-04-25T07:52:26.391Z</time></trkpt><trkpt lat="43.8614617" lon="12.30657"><ele>577.5</ele><time>2026-04-25T07:52:27.391Z</time></trkpt><trkpt lat="43.8615183" lon="12.3065067"><ele>575.6666666666666</ele><time>2026-04-25T07:52:28.39Z</time></trkpt><trkpt lat="43.8615833" lon="12.3064417"><ele>573.8333333333333</ele><time>2026-04-25T07:52:29.391Z</time></trkpt><trkpt lat="43.8616433" lon="12.3063967"><ele>572.0</ele><time>2026-04-25T07:52:30.39Z</time></trkpt><trkpt lat="43.8617067" lon="12.3063817"><ele>569.5</ele><time>2026-04-25T07:52:31.391Z</time></trkpt><trkpt lat="43.8618333" lon="12.3064367"><ele>567.0</ele><time>2026-04-25T07:52:33.391Z</time></trkpt><trkpt lat="43.8618983" lon="12.30648"><ele>564.5</ele><time>2026-04-25T07:52:34.39Z</time></trkpt><trkpt lat="43.8619633" lon="12.3064983"><ele>562.0</ele><time>2026-04-25T07:52:35.39Z</time></trkpt><trkpt lat="43.862035" lon="12.3065"><ele>559.5</ele><time>2026-04-25T07:52:36.39Z</time></trkpt><trkpt lat="43.8620983" lon="12.3064833"><ele>557.0</ele><time>2026-04-25T07:52:37.39Z</time></trkpt><trkpt lat="43.862165" lon="12.3064483"><ele>556.0</ele><time>2026-04-25T07:52:38.39Z</time></trkpt><trkpt lat="43.862225" lon="12.3063967"><ele>555.0</ele><time>2026-04-25T07:52:39.391Z</time></trkpt><trkpt lat="43.8622817" lon="12.306325"><ele>554.0</ele><time>2026-04-25T07:52:40.391Z</time></trkpt><trkpt lat="43.8623333" lon="12.3062533"><ele>553.0</ele><time>2026-04-25T07:52:41.39Z</time></trkpt><trkpt lat="43.86242" lon="12.3061617"><ele>552.0</ele><time>2026-04-25T07:52:43.39Z</time></trkpt><trkpt lat="43.86248" lon="12.3060833"><ele>551.0</ele><time>2026-04-25T07:52:45.391Z</time></trkpt><trkpt lat="43.8624717" lon="12.3059717"><ele>551.0</ele><time>2026-04-25T07:52:47.391Z</time></trkpt><trkpt lat="43.862435" lon="12.3058967"><ele>551.0</ele><time>2026-04-25T07:52:48.39Z</time></trkpt><trkpt lat="43.862385" lon="12.3058133"><ele>551.0</ele><time>2026-04-25T07:52:49.391Z</time></trkpt><trkpt lat="43.8623333" lon="12.3057317"><ele>551.0</ele><time>2026-04-25T07:52:50.391Z</time></trkpt><trkpt lat="43.8622667" lon="12.3056567"><ele>551.0</ele><time>2026-04-25T07:52:51.391Z</time></trkpt><trkpt lat="43.8621967" lon="12.3055967"><ele>551.0</ele><time>2026-04-25T07:52:52.391Z</time></trkpt><trkpt lat="43.8621233" lon="12.30555"><ele>549.1666666666666</ele><time>2026-04-25T07:52:53.39Z</time></trkpt><trkpt lat="43.862055" lon="12.30552"><ele>547.3333333333333</ele><time>2026-04-25T07:52:54.391Z</time></trkpt><trkpt lat="43.8619333" lon="12.3054683"><ele>545.5</ele><time>2026-04-25T07:52:56.391Z</time></trkpt><trkpt lat="43.86187" lon="12.305445"><ele>543.6666666666666</ele><time>2026-04-25T07:52:57.391Z</time></trkpt><trkpt lat="43.861795" lon="12.3054317"><ele>541.8333333333334</ele><time>2026-04-25T07:52:58.39Z</time></trkpt><trkpt lat="43.8617183" lon="12.305425"><ele>540.0</ele><time>2026-04-25T07:52:59.391Z</time></trkpt><trkpt lat="43.8616367" lon="12.3054117"><ele>539.5</ele><time>2026-04-25T07:53:00.391Z</time></trkpt><trkpt lat="43.8615483" lon="12.3053783"><ele>539.0</ele><time>2026-04-25T07:53:01.391Z</time></trkpt><trkpt lat="43.8614683" lon="12.3053283"><ele>538.5</ele><time>2026-04-25T07:53:02.391Z</time></trkpt><trkpt lat="43.8613917" lon="12.3052917"><ele>538.0</ele><time>2026-04-25T07:53:03.391Z</time></trkpt><trkpt lat="43.8613217" lon="12.3052617"><ele>537.5</ele><time>2026-04-25T07:53:04.391Z</time></trkpt><trkpt lat="43.86125" lon="12.3052567"><ele>537.0</ele><time>2026-04-25T07:53:05.39Z</time></trkpt><trkpt lat="43.8611717" lon="12.3052567"><ele>536.9999999999999</ele><time>2026-04-25T07:53:06.391Z</time></trkpt><trkpt lat="43.8611067" lon="12.3052583"><ele>537.0</ele><time>2026-04-25T07:53:07.391Z</time></trkpt><trkpt lat="43.861035" lon="12.3052467"><ele>537.0</ele><time>2026-04-25T07:53:08.39Z</time></trkpt><trkpt lat="43.8609717" lon="12.3052"><ele>537.0</ele><time>2026-04-25T07:53:09.391Z</time></trkpt><trkpt lat="43.8609217" lon="12.3051333"><ele>537.0</ele><time>2026-04-25T07:53:10.391Z</time></trkpt><trkpt lat="43.8609033" lon="12.3050383"><ele>536.9999999999999</ele><time>2026-04-25T07:53:11.391Z</time></trkpt><trkpt lat="43.8609217" lon="12.3049083"><ele>537.0</ele><time>2026-04-25T07:53:12.391Z</time></trkpt><trkpt lat="43.86096" lon="12.3047817"><ele>536.6666666666666</ele><time>2026-04-25T07:53:13.391Z</time></trkpt><trkpt lat="43.86098" lon="12.3046717"><ele>536.3333333333334</ele><time>2026-04-25T07:53:14.39Z</time></trkpt><trkpt lat="43.8609833" lon="12.3045633"><ele>536.0</ele><time>2026-04-25T07:53:15.391Z</time></trkpt><trkpt lat="43.8609667" lon="12.30445"><ele>535.6666666666667</ele><time>2026-04-25T07:53:16.391Z</time></trkpt><trkpt lat="43.860925" lon="12.304335"><ele>535.3333333333334</ele><time>2026-04-25T07:53:17.39Z</time></trkpt><trkpt lat="43.8608667" lon="12.30423"><ele>535.0</ele><time>2026-04-25T07:53:18.391Z</time></trkpt><trkpt lat="43.8608033" lon="12.304155"><ele>535.0</ele><time>2026-04-25T07:53:19.39Z</time></trkpt><trkpt lat="43.8607383" lon="12.304095"><ele>535.0</ele><time>2026-04-25T07:53:20.391Z</time></trkpt><trkpt lat="43.8606867" lon="12.3040233"><ele>535.0</ele><time>2026-04-25T07:53:21.39Z</time></trkpt><trkpt lat="43.86065" lon="12.3039333"><ele>535.0</ele><time>2026-04-25T07:53:22.391Z</time></trkpt><trkpt lat="43.8606417" lon="12.303815"><ele>535.0</ele><time>2026-04-25T07:53:23.39Z</time></trkpt><trkpt lat="43.86066" lon="12.3036783"><ele>535.0</ele><time>2026-04-25T07:53:24.39Z</time></trkpt><trkpt lat="43.860675" lon="12.303535"><ele>534.4</ele><time>2026-04-25T07:53:25.39Z</time></trkpt><trkpt lat="43.8606817" lon="12.3033983"><ele>533.8</ele><time>2026-04-25T07:53:26.39Z</time></trkpt><trkpt lat="43.8606717" lon="12.3032683"><ele>533.2</ele><time>2026-04-25T07:53:27.391Z</time></trkpt><trkpt lat="43.8606417" lon="12.3031517"><ele>532.6</ele><time>2026-04-25T07:53:28.391Z</time></trkpt><trkpt lat="43.8606033" lon="12.3030417"><ele>532.0</ele><time>2026-04-25T07:53:29.39Z</time></trkpt><trkpt lat="43.86056" lon="12.3029317"><ele>531.1666666666667</ele><time>2026-04-25T07:53:30.391Z</time></trkpt><trkpt lat="43.860525" lon="12.3028333"><ele>530.3333333333334</ele><time>2026-04-25T07:53:31.391Z</time></trkpt><trkpt lat="43.8605067" lon="12.3027167"><ele>529.5</ele><time>2026-04-25T07:53:32.39Z</time></trkpt><trkpt lat="43.8605067" lon="12.3026"><ele>528.6666666666666</ele><time>2026-04-25T07:53:33.391Z</time></trkpt><trkpt lat="43.86053" lon="12.3024767"><ele>527.8333333333333</ele><time>2026-04-25T07:53:34.39Z</time></trkpt><trkpt lat="43.8605633" lon="12.302345"><ele>527.0</ele><time>2026-04-25T07:53:35.391Z</time></trkpt><trkpt lat="43.8605983" lon="12.302225"><ele>526.2</ele><time>2026-04-25T07:53:36.391Z</time></trkpt><trkpt lat="43.8606217" lon="12.3021267"><ele>525.4000000000001</ele><time>2026-04-25T07:53:37.391Z</time></trkpt><trkpt lat="43.860655" lon="12.3019833"><ele>524.5999999999999</ele><time>2026-04-25T07:53:39.39Z</time></trkpt><trkpt lat="43.8606883" lon="12.3018383"><ele>523.8</ele><time>2026-04-25T07:54:36.39Z</time></trkpt><trkpt lat="43.86069" lon="12.30168"><ele>523.0</ele><time>2026-04-25T07:54:39.391Z</time></trkpt><trkpt lat="43.8606467" lon="12.3015767"><ele>523.0</ele><time>2026-04-25T07:54:40.391Z</time></trkpt><trkpt lat="43.8605817" lon="12.3014567"><ele>523.0</ele><time>2026-04-25T07:54:41.391Z</time></trkpt><trkpt lat="43.8605067" lon="12.3013217"><ele>523.0</ele><time>2026-04-25T07:54:42.391Z</time></trkpt><trkpt lat="43.86043" lon="12.30119"><ele>523.0</ele><time>2026-04-25T07:54:43.391Z</time></trkpt><trkpt lat="43.8603467" lon="12.3010583"><ele>521.5</ele><time>2026-04-25T07:54:44.39Z</time></trkpt><trkpt lat="43.8602483" lon="12.3009417"><ele>520.0</ele><time>2026-04-25T07:54:45.39Z</time></trkpt><trkpt lat="43.8601167" lon="12.300855"><ele>518.5</ele><time>2026-04-25T07:54:46.391Z</time></trkpt><trkpt lat="43.8599767" lon="12.300785"><ele>517.0</ele><time>2026-04-25T07:54:47.39Z</time></trkpt><trkpt lat="43.85984" lon="12.3007117"><ele>519.5</ele><time>2026-04-25T07:54:48.391Z</time></trkpt><trkpt lat="43.8597233" lon="12.3006267"><ele>522.0</ele><time>2026-04-25T07:54:49.39Z</time></trkpt><trkpt lat="43.8596317" lon="12.3005083"><ele>524.5</ele><time>2026-04-25T07:54:50.39Z</time></trkpt><trkpt lat="43.859555" lon="12.3003633"><ele>527.0</ele><time>2026-04-25T07:54:51.391Z</time></trkpt><trkpt lat="43.8595017" lon="12.3001983"><ele>527.0</ele><time>2026-04-25T07:54:52.391Z</time></trkpt><trkpt lat="43.859445" lon="12.3000233"><ele>527.0</ele><time>2026-04-25T07:54:53.391Z</time></trkpt><trkpt lat="43.8593983" lon="12.2998433"><ele>527.0</ele><time>2026-04-25T07:54:54.391Z</time></trkpt><trkpt lat="43.85936" lon="12.2996717"><ele>527.0</ele><time>2026-04-25T07:54:55.391Z</time></trkpt><trkpt lat="43.85934" lon="12.2995083"><ele>527.6</ele><time>2026-04-25T07:54:56.391Z</time></trkpt><trkpt lat="43.8593417" lon="12.29936"><ele>528.2</ele><time>2026-04-25T07:54:57.39Z</time></trkpt><trkpt lat="43.8593533" lon="12.299215"><ele>528.8</ele><time>2026-04-25T07:54:58.391Z</time></trkpt><trkpt lat="43.85937" lon="12.299075"><ele>529.4</ele><time>2026-04-25T07:54:59.39Z</time></trkpt><trkpt lat="43.8593883" lon="12.2989583"><ele>530.0</ele><time>2026-04-25T07:55:00.39Z</time></trkpt><trkpt lat="43.859405" lon="12.2988583"><ele>530.8</ele><time>2026-04-25T07:55:01.391Z</time></trkpt><trkpt lat="43.8594117" lon="12.2986933"><ele>531.6</ele><time>2026-04-25T07:55:03.391Z</time></trkpt><trkpt lat="43.859405" lon="12.298575"><ele>532.4</ele><time>2026-04-25T07:55:05.391Z</time></trkpt><trkpt lat="43.859335" lon="12.298615"><ele>533.2</ele><time>2026-04-25T07:55:09.39Z</time></trkpt><trkpt lat="43.8593283" lon="12.29875"><ele>534.0</ele><time>2026-04-25T07:55:11.391Z</time></trkpt><trkpt lat="43.8592833" lon="12.2988933"><ele>536.8333333333334</ele><time>2026-04-25T07:55:13.391Z</time></trkpt><trkpt lat="43.8592333" lon="12.2989633"><ele>539.6666666666666</ele><time>2026-04-25T07:55:14.391Z</time></trkpt><trkpt lat="43.8591767" lon="12.29903"><ele>542.5</ele><time>2026-04-25T07:55:15.391Z</time></trkpt><trkpt lat="43.8591117" lon="12.299095"><ele>545.3333333333333</ele><time>2026-04-25T07:55:16.391Z</time></trkpt><trkpt lat="43.8590433" lon="12.2991583"><ele>548.1666666666666</ele><time>2026-04-25T07:55:17.39Z</time></trkpt><trkpt lat="43.8589833" lon="12.299245"><ele>551.0</ele><time>2026-04-25T07:55:18.39Z</time></trkpt><trkpt lat="43.8589233" lon="12.2993383"><ele>551.0</ele><time>2026-04-25T07:55:19.39Z</time></trkpt><trkpt lat="43.8588733" lon="12.2994433"><ele>551.0</ele><time>2026-04-25T07:55:20.39Z</time></trkpt><trkpt lat="43.8588333" lon="12.2995533"><ele>551.0</ele><time>2026-04-25T07:55:21.39Z</time></trkpt><trkpt lat="43.8588" lon="12.2996633"><ele>551.0</ele><time>2026-04-25T07:55:22.39Z</time></trkpt><trkpt lat="43.858775" lon="12.2997817"><ele>551.0</ele><time>2026-04-25T07:55:23.391Z</time></trkpt><trkpt lat="43.85877" lon="12.29991"><ele>551.0</ele><time>2026-04-25T07:55:24.391Z</time></trkpt><trkpt lat="43.8587717" lon="12.3000533"><ele>551.1666666666666</ele><time>2026-04-25T07:55:25.39Z</time></trkpt><trkpt lat="43.8587783" lon="12.300195"><ele>551.3333333333333</ele><time>2026-04-25T07:55:26.391Z</time></trkpt><trkpt lat="43.8587767" lon="12.30033"><ele>551.5</ele><time>2026-04-25T07:55:27.39Z</time></trkpt><trkpt lat="43.8587767" lon="12.3004517"><ele>551.6666666666666</ele><time>2026-04-25T07:55:28.391Z</time></trkpt><trkpt lat="43.85878" lon="12.3005622"><ele>551.8333333333334</ele><time>2026-04-25T07:55:29.39Z</time></trkpt><trkpt lat="43.8587887" lon="12.3006597"><ele>552.0</ele><time>2026-04-25T07:55:30.391Z</time></trkpt><trkpt lat="43.8588005" lon="12.300747"><ele>552.6666666666666</ele><time>2026-04-25T07:55:31.391Z</time></trkpt><trkpt lat="43.8588093" lon="12.3008363"><ele>553.3333333333334</ele><time>2026-04-25T07:55:32.391Z</time></trkpt><trkpt lat="43.8588066" lon="12.3009384"><ele>554.0</ele><time>2026-04-25T07:55:33.391Z</time></trkpt><trkpt lat="43.8587933" lon="12.3010585"><ele>554.6666666666667</ele><time>2026-04-25T07:55:34.391Z</time></trkpt><trkpt lat="43.8587757" lon="12.3011934"><ele>555.3333333333334</ele><time>2026-04-25T07:55:35.391Z</time></trkpt><trkpt lat="43.8587556" lon="12.301328"><ele>556.0</ele><time>2026-04-25T07:55:36.391Z</time></trkpt><trkpt lat="43.8587336" lon="12.3014585"><ele>557.6666666666667</ele><time>2026-04-25T07:55:37.391Z</time></trkpt><trkpt lat="43.8587066" lon="12.3015881"><ele>559.3333333333334</ele><time>2026-04-25T07:55:38.39Z</time></trkpt><trkpt lat="43.8586794" lon="12.3017111"><ele>561.0</ele><time>2026-04-25T07:55:39.39Z</time></trkpt><trkpt lat="43.8586471" lon="12.3018227"><ele>562.6666666666666</ele><time>2026-04-25T07:55:40.391Z</time></trkpt><trkpt lat="43.8586046" lon="12.3019196"><ele>564.3333333333333</ele><time>2026-04-25T07:55:41.391Z</time></trkpt><trkpt lat="43.8585683" lon="12.3020034"><ele>566.0</ele><time>2026-04-25T07:55:42.39Z</time></trkpt><trkpt lat="43.8585318" lon="12.3020832"><ele>566.0</ele><time>2026-04-25T07:55:43.39Z</time></trkpt><trkpt lat="43.8584961" lon="12.3022263"><ele>566.0</ele><time>2026-04-25T07:55:45.391Z</time></trkpt><trkpt lat="43.8585105" lon="12.3023757"><ele>566.0</ele><time>2026-04-25T07:55:47.39Z</time></trkpt><trkpt lat="43.8585348" lon="12.3024564"><ele>566.0</ele><time>2026-04-25T07:55:48.39Z</time></trkpt><trkpt lat="43.8585839" lon="12.3026009"><ele>566.0</ele><time>2026-04-25T07:55:50.391Z</time></trkpt><trkpt lat="43.8586212" lon="12.3026738"><ele>566.6666666666666</ele><time>2026-04-25T07:55:51.391Z</time></trkpt><trkpt lat="43.8586679" lon="12.3027586"><ele>567.3333333333333</ele><time>2026-04-25T07:55:52.391Z</time></trkpt><trkpt lat="43.858716" lon="12.3028539"><ele>568.0</ele><time>2026-04-25T07:55:53.39Z</time></trkpt><trkpt lat="43.8587621" lon="12.3029471"><ele>568.6666666666666</ele><time>2026-04-25T07:55:54.391Z</time></trkpt><trkpt lat="43.8588135" lon="12.3030373"><ele>569.3333333333334</ele><time>2026-04-25T07:55:55.39Z</time></trkpt><trkpt lat="43.8588533" lon="12.3031183"><ele>570.0</ele><time>2026-04-25T07:55:56.391Z</time></trkpt><trkpt lat="43.8588542" lon="12.3032617"><ele>570.2</ele><time>2026-04-25T07:55:58.391Z</time></trkpt><trkpt lat="43.8587733" lon="12.3033783"><ele>570.4</ele><time>2026-04-25T07:56:00.39Z</time></trkpt><trkpt lat="43.8587042" lon="12.3034172"><ele>570.6</ele><time>2026-04-25T07:56:01.39Z</time></trkpt><trkpt lat="43.8586202" lon="12.3034492"><ele>570.8</ele><time>2026-04-25T07:56:02.39Z</time></trkpt><trkpt lat="43.8585375" lon="12.303487"><ele>571.0</ele><time>2026-04-25T07:56:03.391Z</time></trkpt><trkpt lat="43.8584582" lon="12.3035279"><ele>574.4285714285714</ele><time>2026-04-25T07:56:04.39Z</time></trkpt><trkpt lat="43.8583841" lon="12.3035637"><ele>577.8571428571429</ele><time>2026-04-25T07:56:05.39Z</time></trkpt><trkpt lat="43.8583117" lon="12.3035825"><ele>581.2857142857142</ele><time>2026-04-25T07:56:06.39Z</time></trkpt><trkpt lat="43.8582338" lon="12.3035912"><ele>584.7142857142858</ele><time>2026-04-25T07:56:07.39Z</time></trkpt><trkpt lat="43.858167" lon="12.3036118"><ele>588.1428571428571</ele><time>2026-04-25T07:56:08.391Z</time></trkpt><trkpt lat="43.8580998" lon="12.3036458"><ele>591.5714285714286</ele><time>2026-04-25T07:56:09.39Z</time></trkpt><trkpt lat="43.8580449" lon="12.3036918"><ele>595.0</ele><time>2026-04-25T07:56:10.39Z</time></trkpt><trkpt lat="43.857997" lon="12.3037607"><ele>595.0</ele><time>2026-04-25T07:56:11.391Z</time></trkpt><trkpt lat="43.8579613" lon="12.3038587"><ele>595.0</ele><time>2026-04-25T07:56:12.391Z</time></trkpt><trkpt lat="43.8579259" lon="12.3039584"><ele>595.0</ele><time>2026-04-25T07:56:13.391Z</time></trkpt><trkpt lat="43.8578877" lon="12.3040586"><ele>595.0</ele><time>2026-04-25T07:56:14.39Z</time></trkpt><trkpt lat="43.8578459" lon="12.3041417"><ele>595.0</ele><time>2026-04-25T07:56:15.391Z</time></trkpt><trkpt lat="43.857812" lon="12.3042219"><ele>595.0</ele><time>2026-04-25T07:56:16.391Z</time></trkpt><trkpt lat="43.8577546" lon="12.3043515"><ele>594.5</ele><time>2026-04-25T07:56:18.39Z</time></trkpt><trkpt lat="43.8576918" lon="12.3044028"><ele>594.0</ele><time>2026-04-25T07:56:20.391Z</time></trkpt><trkpt lat="43.857624" lon="12.3043433"><ele>593.5</ele><time>2026-04-25T07:56:22.391Z</time></trkpt><trkpt lat="43.8575799" lon="12.3041793"><ele>593.0</ele><time>2026-04-25T07:56:24.39Z</time></trkpt><trkpt lat="43.8575666" lon="12.3040924"><ele>592.5</ele><time>2026-04-25T07:56:25.39Z</time></trkpt><trkpt lat="43.8575105" lon="12.3039838"><ele>592.0</ele><time>2026-04-25T07:56:27.39Z</time></trkpt><trkpt lat="43.8574403" lon="12.3039881"><ele>597.4</ele><time>2026-04-25T07:56:29.391Z</time></trkpt><trkpt lat="43.8573708" lon="12.3041357"><ele>602.8000000000001</ele><time>2026-04-25T07:56:31.391Z</time></trkpt><trkpt lat="43.8573509" lon="12.3042422"><ele>608.2</ele><time>2026-04-25T07:56:32.39Z</time></trkpt><trkpt lat="43.8573351" lon="12.304337"><ele>613.6</ele><time>2026-04-25T07:56:33.391Z</time></trkpt><trkpt lat="43.8573683" lon="12.3044983"><ele>619.0</ele><time>2026-04-25T07:56:35.391Z</time></trkpt><trkpt lat="43.8574133" lon="12.3046433"><ele>619.1666666666667</ele><time>2026-04-25T07:56:37.39Z</time></trkpt><trkpt lat="43.8573817" lon="12.3047567"><ele>619.3333333333334</ele><time>2026-04-25T07:56:39.39Z</time></trkpt><trkpt lat="43.8572967" lon="12.3048433"><ele>619.5</ele><time>2026-04-25T07:56:41.391Z</time></trkpt><trkpt lat="43.8572417" lon="12.304905"><ele>619.6666666666666</ele><time>2026-04-25T07:56:42.391Z</time></trkpt><trkpt lat="43.857195" lon="12.304985"><ele>619.8333333333333</ele><time>2026-04-25T07:56:43.39Z</time></trkpt><trkpt lat="43.8571583" lon="12.3050733"><ele>620.0</ele><time>2026-04-25T07:56:44.391Z</time></trkpt><trkpt lat="43.85713" lon="12.3051567"><ele>620.0</ele><time>2026-04-25T07:56:45.391Z</time></trkpt><trkpt lat="43.857085" lon="12.30529"><ele>620.0</ele><time>2026-04-25T07:56:47.391Z</time></trkpt><trkpt lat="43.856995" lon="12.3053817"><ele>620.0</ele><time>2026-04-25T07:56:49.39Z</time></trkpt><trkpt lat="43.8569317" lon="12.3054317"><ele>620.0</ele><time>2026-04-25T07:56:50.391Z</time></trkpt><trkpt lat="43.8568517" lon="12.305545"><ele>620.0</ele><time>2026-04-25T07:56:52.391Z</time></trkpt><trkpt lat="43.8567867" lon="12.3056033"><ele>623.5</ele><time>2026-04-25T07:56:54.391Z</time></trkpt><trkpt lat="43.8567083" lon="12.3055317"><ele>627.0</ele><time>2026-04-25T07:56:56.391Z</time></trkpt><trkpt lat="43.856675" lon="12.3054567"><ele>630.5</ele><time>2026-04-25T07:56:57.391Z</time></trkpt><trkpt lat="43.85665" lon="12.3053683"><ele>634.0</ele><time>2026-04-25T07:56:58.39Z</time></trkpt><trkpt lat="43.8565883" lon="12.3052533"><ele>637.5</ele><time>2026-04-25T07:57:00.391Z</time></trkpt><trkpt lat="43.8565217" lon="12.3052083"><ele>641.0</ele><time>2026-04-25T07:57:02.391Z</time></trkpt><trkpt lat="43.85652" lon="12.305325"><ele>641.0</ele><time>2026-04-25T07:57:05.391Z</time></trkpt><trkpt lat="43.8565267" lon="12.3054233"><ele>641.0</ele><time>2026-04-25T07:57:06.391Z</time></trkpt><trkpt lat="43.8565183" lon="12.30552"><ele>641.0</ele><time>2026-04-25T07:57:07.391Z</time></trkpt><trkpt lat="43.8564933" lon="12.3056183"><ele>641.0</ele><time>2026-04-25T07:57:08.39Z</time></trkpt><trkpt lat="43.8564567" lon="12.3056967"><ele>641.0</ele><time>2026-04-25T07:57:09.39Z</time></trkpt><trkpt lat="43.8564117" lon="12.30577"><ele>641.0</ele><time>2026-04-25T07:57:10.391Z</time></trkpt><trkpt lat="43.8563433" lon="12.3058933"><ele>640.0</ele><time>2026-04-25T07:57:12.39Z</time></trkpt><trkpt lat="43.8562867" lon="12.30605"><ele>639.0</ele><time>2026-04-25T07:57:14.39Z</time></trkpt><trkpt lat="43.856245" lon="12.3061917"><ele>638.0</ele><time>2026-04-25T07:57:16.391Z</time></trkpt><trkpt lat="43.856195" lon="12.3063317"><ele>637.0</ele><time>2026-04-25T07:57:18.391Z</time></trkpt><trkpt lat="43.8561433" lon="12.30647"><ele>636.4</ele><time>2026-04-25T07:57:20.39Z</time></trkpt><trkpt lat="43.85609" lon="12.30662"><ele>635.8000000000001</ele><time>2026-04-25T07:57:22.391Z</time></trkpt><trkpt lat="43.8560417" lon="12.30678"><ele>635.2</ele><time>2026-04-25T07:57:24.39Z</time></trkpt><trkpt lat="43.85599" lon="12.30694"><ele>634.6</ele><time>2026-04-25T07:57:26.391Z</time></trkpt><trkpt lat="43.8559717" lon="12.3070267"><ele>634.0</ele><time>2026-04-25T07:57:27.391Z</time></trkpt><trkpt lat="43.8559533" lon="12.3071183"><ele>635.6</ele><time>2026-04-25T07:57:28.391Z</time></trkpt><trkpt lat="43.85594" lon="12.307205"><ele>637.2</ele><time>2026-04-25T07:57:29.39Z</time></trkpt><trkpt lat="43.8559217" lon="12.3072933"><ele>638.8000000000001</ele><time>2026-04-25T07:57:30.391Z</time></trkpt><trkpt lat="43.8558967" lon="12.3074617"><ele>640.4</ele><time>2026-04-25T07:57:32.391Z</time></trkpt><trkpt lat="43.8559083" lon="12.3076233"><ele>642.0</ele><time>2026-04-25T07:57:34.391Z</time></trkpt><trkpt lat="43.8559133" lon="12.307775"><ele>642.3333333333334</ele><time>2026-04-25T07:57:36.391Z</time></trkpt><trkpt lat="43.8558583" lon="12.3079183"><ele>642.6666666666666</ele><time>2026-04-25T07:57:38.391Z</time></trkpt><trkpt lat="43.8558167" lon="12.3079917"><ele>643.0</ele><time>2026-04-25T07:57:39.391Z</time></trkpt><trkpt lat="43.8557417" lon="12.3081217"><ele>643.3333333333333</ele><time>2026-04-25T07:57:41.391Z</time></trkpt><trkpt lat="43.8556983" lon="12.30819"><ele>643.6666666666666</ele><time>2026-04-25T07:57:42.391Z</time></trkpt><trkpt lat="43.8556533" lon="12.30827"><ele>644.0</ele><time>2026-04-25T07:57:43.391Z</time></trkpt><trkpt lat="43.85561" lon="12.30834"><ele>644.1666666666666</ele><time>2026-04-25T07:57:44.391Z</time></trkpt><trkpt lat="43.8555717" lon="12.3084117"><ele>644.3333333333333</ele><time>2026-04-25T07:57:45.391Z</time></trkpt><trkpt lat="43.85553" lon="12.3084817"><ele>644.5</ele><time>2026-04-25T07:57:46.391Z</time></trkpt><trkpt lat="43.8554867" lon="12.308555"><ele>644.6666666666666</ele><time>2026-04-25T07:57:47.39Z</time></trkpt><trkpt lat="43.855415" lon="12.3086317"><ele>644.8333333333334</ele><time>2026-04-25T07:57:49.39Z</time></trkpt><trkpt lat="43.8553283" lon="12.308695"><ele>645.0</ele><time>2026-04-25T07:57:52.39Z</time></trkpt><trkpt lat="43.8552367" lon="12.308715"><ele>645.0</ele><time>2026-04-25T07:57:54.391Z</time></trkpt><trkpt lat="43.8551433" lon="12.308715"><ele>645.0</ele><time>2026-04-25T07:57:56.39Z</time></trkpt><trkpt lat="43.8550617" lon="12.3087483"><ele>645.0</ele><time>2026-04-25T07:57:58.391Z</time></trkpt><trkpt lat="43.854955" lon="12.3088183"><ele>645.0</ele><time>2026-04-25T07:58:00.39Z</time></trkpt><trkpt lat="43.8548967" lon="12.30886"><ele>645.0</ele><time>2026-04-25T07:58:01.39Z</time></trkpt><trkpt lat="43.8548333" lon="12.3088983"><ele>645.0</ele><time>2026-04-25T07:58:02.39Z</time></trkpt><trkpt lat="43.8547767" lon="12.3089433"><ele>646.6</ele><time>2026-04-25T07:58:03.391Z</time></trkpt><trkpt lat="43.854645" lon="12.30907"><ele>648.2</ele><time>2026-04-25T07:58:05.391Z</time></trkpt><trkpt lat="43.8545633" lon="12.30915"><ele>649.8</ele><time>2026-04-25T07:58:06.391Z</time></trkpt><trkpt lat="43.854505" lon="12.3092067"><ele>651.4</ele><time>2026-04-25T07:58:07.391Z</time></trkpt><trkpt lat="43.854445" lon="12.30925"><ele>653.0</ele><time>2026-04-25T07:58:08.391Z</time></trkpt><trkpt lat="43.8543733" lon="12.3092983"><ele>653.2</ele><time>2026-04-25T07:58:09.391Z</time></trkpt><trkpt lat="43.8542617" lon="12.309355"><ele>653.4</ele><time>2026-04-25T07:58:11.39Z</time></trkpt><trkpt lat="43.8541567" lon="12.30947"><ele>653.6</ele><time>2026-04-25T07:58:13.39Z</time></trkpt><trkpt lat="43.854095" lon="12.3095517"><ele>653.8000000000001</ele><time>2026-04-25T07:58:14.391Z</time></trkpt><trkpt lat="43.8540433" lon="12.3096433"><ele>654.0</ele><time>2026-04-25T07:58:15.391Z</time></trkpt><trkpt lat="43.853995" lon="12.30972"><ele>655.0</ele><time>2026-04-25T07:58:16.391Z</time></trkpt><trkpt lat="43.8539417" lon="12.3097917"><ele>656.0</ele><time>2026-04-25T07:58:17.39Z</time></trkpt><trkpt lat="43.8538633" lon="12.3099083"><ele>657.0</ele><time>2026-04-25T07:58:19.391Z</time></trkpt><trkpt lat="43.8537667" lon="12.3099617"><ele>658.0</ele><time>2026-04-25T07:58:21.39Z</time></trkpt><trkpt lat="43.8536667" lon="12.309925"><ele>659.0</ele><time>2026-04-25T07:58:23.391Z</time></trkpt><trkpt lat="43.8535533" lon="12.3099083"><ele>660.6666666666666</ele><time>2026-04-25T07:58:25.391Z</time></trkpt><trkpt lat="43.8534417" lon="12.3099117"><ele>662.3333333333333</ele><time>2026-04-25T07:58:27.39Z</time></trkpt><trkpt lat="43.8533683" lon="12.3099217"><ele>664.0</ele><time>2026-04-25T07:58:28.39Z</time></trkpt><trkpt lat="43.8532967" lon="12.309935"><ele>665.6666666666666</ele><time>2026-04-25T07:58:29.39Z</time></trkpt><trkpt lat="43.8532167" lon="12.3099483"><ele>667.3333333333334</ele><time>2026-04-25T07:58:30.391Z</time></trkpt><trkpt lat="43.8531333" lon="12.3099667"><ele>669.0</ele><time>2026-04-25T07:58:31.391Z</time></trkpt><trkpt lat="43.8530567" lon="12.309985"><ele>669.0</ele><time>2026-04-25T07:58:32.391Z</time></trkpt><trkpt lat="43.8529417" lon="12.31002"><ele>669.0</ele><time>2026-04-25T07:58:34.391Z</time></trkpt><trkpt lat="43.8528467" lon="12.3100983"><ele>669.0</ele><time>2026-04-25T07:58:36.391Z</time></trkpt><trkpt lat="43.8527917" lon="12.3101667"><ele>669.0</ele><time>2026-04-25T07:58:37.39Z</time></trkpt><trkpt lat="43.8527383" lon="12.3102433"><ele>669.0</ele><time>2026-04-25T07:58:38.391Z</time></trkpt><trkpt lat="43.8526883" lon="12.3103017"><ele>669.0</ele><time>2026-04-25T07:58:39.39Z</time></trkpt><trkpt lat="43.85263" lon="12.3103617"><ele>669.0</ele><time>2026-04-25T07:58:40.391Z</time></trkpt><trkpt lat="43.8525733" lon="12.3104217"><ele>669.0</ele><time>2026-04-25T07:58:41.391Z</time></trkpt><trkpt lat="43.8524767" lon="12.310515"><ele>669.0</ele><time>2026-04-25T07:58:43.391Z</time></trkpt><trkpt lat="43.8524017" lon="12.3106083"><ele>669.0</ele><time>2026-04-25T07:58:45.391Z</time></trkpt><trkpt lat="43.85233" lon="12.31068"><ele>669.0</ele><time>2026-04-25T07:58:48.391Z</time></trkpt><trkpt lat="43.8522533" lon="12.3107067"><ele>668.3333333333334</ele><time>2026-04-25T07:58:52.39Z</time></trkpt><trkpt lat="43.8521467" lon="12.3106767"><ele>667.6666666666666</ele><time>2026-04-25T07:58:54.391Z</time></trkpt><trkpt lat="43.85202" lon="12.3106683"><ele>667.0</ele><time>2026-04-25T07:58:56.391Z</time></trkpt><trkpt lat="43.8519533" lon="12.3106667"><ele>666.3333333333333</ele><time>2026-04-25T07:58:57.39Z</time></trkpt><trkpt lat="43.85188" lon="12.31066"><ele>665.6666666666666</ele><time>2026-04-25T07:58:58.391Z</time></trkpt><trkpt lat="43.8518133" lon="12.31065"><ele>665.0</ele><time>2026-04-25T07:58:59.391Z</time></trkpt><trkpt lat="43.8517483" lon="12.3106267"><ele>665.0</ele><time>2026-04-25T07:59:00.391Z</time></trkpt><trkpt lat="43.85167" lon="12.3106167"><ele>665.0</ele><time>2026-04-25T07:59:01.39Z</time></trkpt><trkpt lat="43.8515983" lon="12.3105967"><ele>665.0</ele><time>2026-04-25T07:59:02.39Z</time></trkpt><trkpt lat="43.8515283" lon="12.3105717"><ele>665.0</ele><time>2026-04-25T07:59:03.391Z</time></trkpt><trkpt lat="43.8514567" lon="12.31054"><ele>665.0</ele><time>2026-04-25T07:59:04.391Z</time></trkpt><trkpt lat="43.8513867" lon="12.3105017"><ele>665.0</ele><time>2026-04-25T07:59:05.39Z</time></trkpt><trkpt lat="43.8513083" lon="12.31047"><ele>664.3333333333333</ele><time>2026-04-25T07:59:06.39Z</time></trkpt><trkpt lat="43.8512283" lon="12.3104417"><ele>663.6666666666666</ele><time>2026-04-25T07:59:07.39Z</time></trkpt><trkpt lat="43.85115" lon="12.3104067"><ele>663.0</ele><time>2026-04-25T07:59:08.391Z</time></trkpt><trkpt lat="43.8510717" lon="12.3103833"><ele>662.3333333333334</ele><time>2026-04-25T07:59:09.391Z</time></trkpt><trkpt lat="43.850995" lon="12.3103617"><ele>661.6666666666667</ele><time>2026-04-25T07:59:10.39Z</time></trkpt><trkpt lat="43.85092" lon="12.3103267"><ele>661.0</ele><time>2026-04-25T07:59:11.39Z</time></trkpt><trkpt lat="43.8508533" lon="12.310295"><ele>658.8333333333334</ele><time>2026-04-25T07:59:12.391Z</time></trkpt><trkpt lat="43.8507833" lon="12.310265"><ele>656.6666666666667</ele><time>2026-04-25T07:59:13.39Z</time></trkpt><trkpt lat="43.8507117" lon="12.3102333"><ele>654.5</ele><time>2026-04-25T07:59:14.391Z</time></trkpt><trkpt lat="43.8506033" lon="12.3101417"><ele>652.3333333333334</ele><time>2026-04-25T07:59:16.39Z</time></trkpt><trkpt lat="43.85055" lon="12.3100717"><ele>650.1666666666666</ele><time>2026-04-25T07:59:17.391Z</time></trkpt><trkpt lat="43.850495" lon="12.3099917"><ele>648.0</ele><time>2026-04-25T07:59:18.391Z</time></trkpt><trkpt lat="43.8504333" lon="12.30991"><ele>648.0</ele><time>2026-04-25T07:59:19.391Z</time></trkpt><trkpt lat="43.8503633" lon="12.3098383"><ele>648.0</ele><time>2026-04-25T07:59:20.39Z</time></trkpt><trkpt lat="43.850295" lon="12.3097733"><ele>648.0</ele><time>2026-04-25T07:59:21.39Z</time></trkpt><trkpt lat="43.8502317" lon="12.3096933"><ele>648.0</ele><time>2026-04-25T07:59:22.391Z</time></trkpt><trkpt lat="43.850165" lon="12.3096317"><ele>648.0</ele><time>2026-04-25T07:59:23.391Z</time></trkpt><trkpt lat="43.850105" lon="12.309585"><ele>648.0</ele><time>2026-04-25T07:59:24.39Z</time></trkpt><trkpt lat="43.8500483" lon="12.3095383"><ele>645.6666666666666</ele><time>2026-04-25T07:59:25.391Z</time></trkpt><trkpt lat="43.849955" lon="12.309495"><ele>643.3333333333334</ele><time>2026-04-25T07:59:27.391Z</time></trkpt><trkpt lat="43.8498767" lon="12.3095483"><ele>641.0</ele><time>2026-04-25T07:59:29.391Z</time></trkpt><trkpt lat="43.849836" lon="12.3096283"><ele>638.6666666666667</ele><time>2026-04-25T07:59:31.391Z</time></trkpt><trkpt lat="43.8498533" lon="12.3097415"><ele>636.3333333333334</ele><time>2026-04-25T07:59:33.391Z</time></trkpt><trkpt lat="43.8498949" lon="12.3098127"><ele>634.0</ele><time>2026-04-25T07:59:34.391Z</time></trkpt><trkpt lat="43.8499717" lon="12.30992"><ele>634.0</ele><time>2026-04-25T07:59:35.391Z</time></trkpt><trkpt lat="43.8500517" lon="12.3100333"><ele>634.0</ele><time>2026-04-25T07:59:36.391Z</time></trkpt><trkpt lat="43.8501383" lon="12.31015"><ele>634.0</ele><time>2026-04-25T07:59:37.391Z</time></trkpt><trkpt lat="43.85022" lon="12.310255"><ele>634.0</ele><time>2026-04-25T07:59:38.391Z</time></trkpt><trkpt lat="43.8503067" lon="12.310365"><ele>637.5</ele><time>2026-04-25T07:59:39.39Z</time></trkpt><trkpt lat="43.850395" lon="12.3104767"><ele>641.0</ele><time>2026-04-25T07:59:40.391Z</time></trkpt><trkpt lat="43.850475" lon="12.3106267"><ele>644.5</ele><time>2026-04-25T07:59:41.39Z</time></trkpt><trkpt lat="43.850555" lon="12.3107883"><ele>648.0</ele><time>2026-04-25T07:59:42.391Z</time></trkpt><trkpt lat="43.8506333" lon="12.31095"><ele>648.25</ele><time>2026-04-25T07:59:43.391Z</time></trkpt><trkpt lat="43.8507067" lon="12.311105"><ele>648.5</ele><time>2026-04-25T07:59:44.39Z</time></trkpt><trkpt lat="43.8507733" lon="12.31126"><ele>648.75</ele><time>2026-04-25T07:59:45.391Z</time></trkpt><trkpt lat="43.850835" lon="12.31141"><ele>649.0</ele><time>2026-04-25T07:59:46.391Z</time></trkpt><trkpt lat="43.8508833" lon="12.3115667"><ele>648.25</ele><time>2026-04-25T07:59:47.391Z</time></trkpt><trkpt lat="43.8509117" lon="12.31174"><ele>647.5</ele><time>2026-04-25T07:59:48.39Z</time></trkpt><trkpt lat="43.8509067" lon="12.3119117"><ele>646.75</ele><time>2026-04-25T07:59:49.391Z</time></trkpt><trkpt lat="43.8508783" lon="12.3120833"><ele>646.0</ele><time>2026-04-25T07:59:50.391Z</time></trkpt><trkpt lat="43.85083" lon="12.3122383"><ele>647.0</ele><time>2026-04-25T07:59:51.39Z</time></trkpt><trkpt lat="43.8507667" lon="12.312375"><ele>648.0</ele><time>2026-04-25T07:59:52.39Z</time></trkpt><trkpt lat="43.850675" lon="12.3124917"><ele>649.0</ele><time>2026-04-25T07:59:53.391Z</time></trkpt><trkpt lat="43.8505683" lon="12.3125717"><ele>650.0</ele><time>2026-04-25T07:59:54.39Z</time></trkpt><trkpt lat="43.8504617" lon="12.31263"><ele>650.0</ele><time>2026-04-25T07:59:55.39Z</time></trkpt><trkpt lat="43.85036" lon="12.3126717"><ele>650.0</ele><time>2026-04-25T07:59:56.391Z</time></trkpt><trkpt lat="43.85027" lon="12.3127083"><ele>650.0</ele><time>2026-04-25T07:59:57.391Z</time></trkpt><trkpt lat="43.8501767" lon="12.312755"><ele>650.0</ele><time>2026-04-25T07:59:58.391Z</time></trkpt><trkpt lat="43.8500833" lon="12.3128117"><ele>650.0</ele><time>2026-04-25T07:59:59.391Z</time></trkpt><trkpt lat="43.8499983" lon="12.3128767"><ele>648.5</ele><time>2026-04-25T08:00:00.391Z</time></trkpt><trkpt lat="43.84991" lon="12.3129617"><ele>647.0</ele><time>2026-04-25T08:00:01.39Z</time></trkpt><trkpt lat="43.8498183" lon="12.31306"><ele>645.5</ele><time>2026-04-25T08:00:02.39Z</time></trkpt><trkpt lat="43.849715" lon="12.31318"><ele>644.0</ele><time>2026-04-25T08:00:03.39Z</time></trkpt><trkpt lat="43.8496167" lon="12.3132717"><ele>645.6</ele><time>2026-04-25T08:00:04.39Z</time></trkpt><trkpt lat="43.8495117" lon="12.3133467"><ele>647.2</ele><time>2026-04-25T08:00:05.391Z</time></trkpt><trkpt lat="43.849405" lon="12.3133883"><ele>648.8000000000001</ele><time>2026-04-25T08:00:06.391Z</time></trkpt><trkpt lat="43.8493017" lon="12.313425"><ele>650.4000000000001</ele><time>2026-04-25T08:00:07.39Z</time></trkpt><trkpt lat="43.8492133" lon="12.3134633"><ele>652.0</ele><time>2026-04-25T08:00:08.391Z</time></trkpt><trkpt lat="43.849135" lon="12.3135"><ele>652.0</ele><time>2026-04-25T08:00:09.39Z</time></trkpt><trkpt lat="43.8490633" lon="12.3135417"><ele>652.0</ele><time>2026-04-25T08:00:10.39Z</time></trkpt><trkpt lat="43.8489867" lon="12.31358"><ele>652.0</ele><time>2026-04-25T08:00:11.39Z</time></trkpt><trkpt lat="43.8488983" lon="12.3136283"><ele>652.0</ele><time>2026-04-25T08:00:12.39Z</time></trkpt><trkpt lat="43.84881" lon="12.3136933"><ele>652.0</ele><time>2026-04-25T08:00:13.391Z</time></trkpt><trkpt lat="43.8487317" lon="12.313765"><ele>652.0</ele><time>2026-04-25T08:00:14.391Z</time></trkpt><trkpt lat="43.8486733" lon="12.3138333"><ele>654.8</ele><time>2026-04-25T08:00:15.39Z</time></trkpt><trkpt lat="43.848595" lon="12.31396"><ele>657.6</ele><time>2026-04-25T08:00:17.39Z</time></trkpt><trkpt lat="43.848565" lon="12.3140967"><ele>660.4</ele><time>2026-04-25T08:00:19.39Z</time></trkpt><trkpt lat="43.84866" lon="12.3142117"><ele>663.1999999999999</ele><time>2026-04-25T08:00:21.391Z</time></trkpt><trkpt lat="43.8487567" lon="12.31422"><ele>666.0</ele><time>2026-04-25T08:00:22.39Z</time></trkpt><trkpt lat="43.8488617" lon="12.3141967"><ele>666.0</ele><time>2026-04-25T08:00:23.39Z</time></trkpt><trkpt lat="43.8489667" lon="12.3141767"><ele>666.0</ele><time>2026-04-25T08:00:24.391Z</time></trkpt><trkpt lat="43.8490633" lon="12.3141683"><ele>666.0</ele><time>2026-04-25T08:00:25.391Z</time></trkpt><trkpt lat="43.8491367" lon="12.3141733"><ele>666.0</ele><time>2026-04-25T08:00:26.391Z</time></trkpt><trkpt lat="43.849195" lon="12.3142217"><ele>666.0</ele><time>2026-04-25T08:00:27.391Z</time></trkpt><trkpt lat="43.8492183" lon="12.314325"><ele>666.0</ele><time>2026-04-25T08:00:28.39Z</time></trkpt><trkpt lat="43.849225" lon="12.3144667"><ele>666.0</ele><time>2026-04-25T08:00:29.391Z</time></trkpt><trkpt lat="43.8492283" lon="12.314615"><ele>666.0</ele><time>2026-04-25T08:00:30.391Z</time></trkpt><trkpt lat="43.8492267" lon="12.3147533"><ele>666.0</ele><time>2026-04-25T08:00:31.391Z</time></trkpt><trkpt lat="43.8492417" lon="12.3148817"><ele>666.0</ele><time>2026-04-25T08:00:32.391Z</time></trkpt><trkpt lat="43.8492783" lon="12.3150167"><ele>666.0</ele><time>2026-04-25T08:00:33.391Z</time></trkpt><trkpt lat="43.8493383" lon="12.31516"><ele>670.5</ele><time>2026-04-25T08:00:34.391Z</time></trkpt><trkpt lat="43.8494083" lon="12.3153033"><ele>675.0</ele><time>2026-04-25T08:00:35.391Z</time></trkpt><trkpt lat="43.8494683" lon="12.31545"><ele>679.5</ele><time>2026-04-25T08:00:36.39Z</time></trkpt><trkpt lat="43.849515" lon="12.3155833"><ele>684.0</ele><time>2026-04-25T08:00:37.391Z</time></trkpt><trkpt lat="43.84955" lon="12.3157333"><ele>685.4000000000001</ele><time>2026-04-25T08:00:38.391Z</time></trkpt><trkpt lat="43.8495617" lon="12.3158867"><ele>686.8</ele><time>2026-04-25T08:00:39.391Z</time></trkpt><trkpt lat="43.8495383" lon="12.3160217"><ele>688.2</ele><time>2026-04-25T08:00:40.391Z</time></trkpt><trkpt lat="43.849485" lon="12.31615"><ele>689.5999999999999</ele><time>2026-04-25T08:00:41.39Z</time></trkpt><trkpt lat="43.8493967" lon="12.3162633"><ele>691.0</ele><time>2026-04-25T08:00:42.39Z</time></trkpt><trkpt lat="43.8492917" lon="12.3163617"><ele>689.1999999999999</ele><time>2026-04-25T08:00:43.391Z</time></trkpt><trkpt lat="43.849185" lon="12.3164433"><ele>687.4</ele><time>2026-04-25T08:00:44.39Z</time></trkpt><trkpt lat="43.8490883" lon="12.3165233"><ele>685.6</ele><time>2026-04-25T08:00:45.39Z</time></trkpt><trkpt lat="43.8490017" lon="12.3165967"><ele>683.8</ele><time>2026-04-25T08:00:46.391Z</time></trkpt><trkpt lat="43.84891" lon="12.316675"><ele>682.0</ele><time>2026-04-25T08:00:47.391Z</time></trkpt><trkpt lat="43.8488167" lon="12.316755"><ele>682.0</ele><time>2026-04-25T08:00:48.392Z</time></trkpt><trkpt lat="43.8487267" lon="12.31684"><ele>682.0</ele><time>2026-04-25T08:00:49.391Z</time></trkpt><trkpt lat="43.84864" lon="12.31692"><ele>682.0</ele><time>2026-04-25T08:00:50.391Z</time></trkpt><trkpt lat="43.8485683" lon="12.3169917"><ele>682.0</ele><time>2026-04-25T08:00:51.392Z</time></trkpt><trkpt lat="43.84849" lon="12.3170583"><ele>682.0</ele><time>2026-04-25T08:00:52.392Z</time></trkpt><trkpt lat="43.8484183" lon="12.317115"><ele>680.0</ele><time>2026-04-25T08:00:53.392Z</time></trkpt><trkpt lat="43.8483533" lon="12.317155"><ele>678.0</ele><time>2026-04-25T08:00:54.392Z</time></trkpt><trkpt lat="43.848285" lon="12.31718"><ele>676.0</ele><time>2026-04-25T08:00:55.392Z</time></trkpt><trkpt lat="43.8482133" lon="12.3171533"><ele>674.0</ele><time>2026-04-25T08:00:56.392Z</time></trkpt><trkpt lat="43.84816" lon="12.31708"><ele>672.0</ele><time>2026-04-25T08:00:57.392Z</time></trkpt><trkpt lat="43.8481117" lon="12.316975"><ele>670.0</ele><time>2026-04-25T08:00:58.391Z</time></trkpt><trkpt lat="43.848075" lon="12.31684"><ele>670.0</ele><time>2026-04-25T08:00:59.392Z</time></trkpt><trkpt lat="43.8480533" lon="12.3167317"><ele>670.0</ele><time>2026-04-25T08:01:00.391Z</time></trkpt><trkpt lat="43.8479933" lon="12.316635"><ele>670.0</ele><time>2026-04-25T08:01:02.392Z</time></trkpt><trkpt lat="43.8479033" lon="12.3166767"><ele>670.0</ele><time>2026-04-25T08:01:04.391Z</time></trkpt><trkpt lat="43.84787" lon="12.31678"><ele>670.0</ele><time>2026-04-25T08:01:05.392Z</time></trkpt><trkpt lat="43.8478533" lon="12.316925"><ele>670.0</ele><time>2026-04-25T08:01:06.392Z</time></trkpt><trkpt lat="43.8478433" lon="12.3170683"><ele>670.0</ele><time>2026-04-25T08:01:07.392Z</time></trkpt><trkpt lat="43.84784" lon="12.3171867"><ele>670.0</ele><time>2026-04-25T08:01:08.391Z</time></trkpt><trkpt lat="43.8478233" lon="12.3172867"><ele>670.0</ele><time>2026-04-25T08:01:09.391Z</time></trkpt><trkpt lat="43.8477867" lon="12.3173767"><ele>670.0</ele><time>2026-04-25T08:01:10.392Z</time></trkpt><trkpt lat="43.8477383" lon="12.3174617"><ele>670.0</ele><time>2026-04-25T08:01:11.392Z</time></trkpt><trkpt lat="43.847675" lon="12.3175567"><ele>668.3333333333334</ele><time>2026-04-25T08:01:12.392Z</time></trkpt><trkpt lat="43.8476183" lon="12.3176633"><ele>666.6666666666667</ele><time>2026-04-25T08:01:13.392Z</time></trkpt><trkpt lat="43.8475733" lon="12.317765"><ele>665.0</ele><time>2026-04-25T08:01:14.391Z</time></trkpt><trkpt lat="43.8475367" lon="12.317865"><ele>663.3333333333334</ele><time>2026-04-25T08:01:15.392Z</time></trkpt><trkpt lat="43.84751" lon="12.31795"><ele>661.6666666666666</ele><time>2026-04-25T08:01:16.392Z</time></trkpt><trkpt lat="43.8474267" lon="12.31805"><ele>660.0</ele><time>2026-04-25T08:01:18.391Z</time></trkpt><trkpt lat="43.8473617" lon="12.318035"><ele>660.0</ele><time>2026-04-25T08:01:19.392Z</time></trkpt><trkpt lat="43.8472867" lon="12.31798"><ele>660.0</ele><time>2026-04-25T08:01:20.392Z</time></trkpt><trkpt lat="43.8472033" lon="12.3179"><ele>660.0</ele><time>2026-04-25T08:01:21.391Z</time></trkpt><trkpt lat="43.8471133" lon="12.3178117"><ele>660.0</ele><time>2026-04-25T08:01:22.391Z</time></trkpt><trkpt lat="43.84703" lon="12.317735"><ele>660.0</ele><time>2026-04-25T08:01:23.392Z</time></trkpt><trkpt lat="43.8469433" lon="12.3176683"><ele>660.0</ele><time>2026-04-25T08:01:24.392Z</time></trkpt><trkpt lat="43.8468483" lon="12.3176217"><ele>660.0</ele><time>2026-04-25T08:01:25.391Z</time></trkpt><trkpt lat="43.84676" lon="12.317585"><ele>660.0</ele><time>2026-04-25T08:01:26.391Z</time></trkpt><trkpt lat="43.8466733" lon="12.3175233"><ele>660.0</ele><time>2026-04-25T08:01:27.392Z</time></trkpt><trkpt lat="43.8465883" lon="12.3174667"><ele>660.0</ele><time>2026-04-25T08:01:28.391Z</time></trkpt><trkpt lat="43.8465017" lon="12.3174167"><ele>660.8333333333334</ele><time>2026-04-25T08:01:29.392Z</time></trkpt><trkpt lat="43.8464183" lon="12.3173883"><ele>661.6666666666666</ele><time>2026-04-25T08:01:30.392Z</time></trkpt><trkpt lat="43.8463317" lon="12.3173883"><ele>662.5</ele><time>2026-04-25T08:01:31.391Z</time></trkpt><trkpt lat="43.8462517" lon="12.317415"><ele>663.3333333333333</ele><time>2026-04-25T08:01:32.391Z</time></trkpt><trkpt lat="43.8461583" lon="12.3174483"><ele>664.1666666666666</ele><time>2026-04-25T08:01:33.391Z</time></trkpt><trkpt lat="43.8460683" lon="12.3174533"><ele>665.0</ele><time>2026-04-25T08:01:34.391Z</time></trkpt><trkpt lat="43.8459933" lon="12.3174433"><ele>666.6666666666666</ele><time>2026-04-25T08:01:35.392Z</time></trkpt><trkpt lat="43.8458783" lon="12.3174183"><ele>668.3333333333333</ele><time>2026-04-25T08:01:37.391Z</time></trkpt><trkpt lat="43.8458017" lon="12.3173833"><ele>670.0</ele><time>2026-04-25T08:01:39.392Z</time></trkpt><trkpt lat="43.845745" lon="12.3173433"><ele>671.6666666666666</ele><time>2026-04-25T08:01:40.392Z</time></trkpt><trkpt lat="43.8456767" lon="12.3172817"><ele>673.3333333333334</ele><time>2026-04-25T08:01:41.392Z</time></trkpt><trkpt lat="43.84561" lon="12.31724"><ele>675.0</ele><time>2026-04-25T08:01:42.392Z</time></trkpt><trkpt lat="43.8454883" lon="12.317245"><ele>675.0</ele><time>2026-04-25T08:01:44.391Z</time></trkpt><trkpt lat="43.8454533" lon="12.31733"><ele>675.0</ele><time>2026-04-25T08:01:45.391Z</time></trkpt><trkpt lat="43.8454283" lon="12.3174483"><ele>675.0</ele><time>2026-04-25T08:01:46.391Z</time></trkpt><trkpt lat="43.8454133" lon="12.317555"><ele>675.0</ele><time>2026-04-25T08:01:47.391Z</time></trkpt><trkpt lat="43.8454017" lon="12.3177117"><ele>675.0</ele><time>2026-04-25T08:01:49.392Z</time></trkpt><trkpt lat="43.84538" lon="12.3178267"><ele>675.0</ele><time>2026-04-25T08:01:51.392Z</time></trkpt><trkpt lat="43.8453633" lon="12.317925"><ele>675.0</ele><time>2026-04-25T08:01:53.392Z</time></trkpt><trkpt lat="43.8453367" lon="12.3180533"><ele>675.0</ele><time>2026-04-25T08:01:55.392Z</time></trkpt><trkpt lat="43.8453183" lon="12.3181517"><ele>675.0</ele><time>2026-04-25T08:01:56.391Z</time></trkpt><trkpt lat="43.845295" lon="12.318265"><ele>675.0</ele><time>2026-04-25T08:01:57.392Z</time></trkpt><trkpt lat="43.845275" lon="12.3183767"><ele>675.0</ele><time>2026-04-25T08:01:58.391Z</time></trkpt><trkpt lat="43.8452633" lon="12.3184917"><ele>675.0</ele><time>2026-04-25T08:01:59.392Z</time></trkpt><trkpt lat="43.8452517" lon="12.3186133"><ele>675.1666666666666</ele><time>2026-04-25T08:02:00.391Z</time></trkpt><trkpt lat="43.8452583" lon="12.3187283"><ele>675.3333333333334</ele><time>2026-04-25T08:02:01.391Z</time></trkpt><trkpt lat="43.8452667" lon="12.3188467"><ele>675.5</ele><time>2026-04-25T08:02:02.391Z</time></trkpt><trkpt lat="43.845275" lon="12.318955"><ele>675.6666666666667</ele><time>2026-04-25T08:02:03.392Z</time></trkpt><trkpt lat="43.84528" lon="12.3190633"><ele>675.8333333333334</ele><time>2026-04-25T08:02:04.391Z</time></trkpt><trkpt lat="43.8452783" lon="12.3191583"><ele>676.0</ele><time>2026-04-25T08:02:05.392Z</time></trkpt><trkpt lat="43.8452483" lon="12.3193"><ele>676.0</ele><time>2026-04-25T08:02:07.392Z</time></trkpt><trkpt lat="43.84519" lon="12.3193617"><ele>676.0</ele><time>2026-04-25T08:02:10.392Z</time></trkpt><trkpt lat="43.8451067" lon="12.3193417"><ele>676.0</ele><time>2026-04-25T08:02:14.392Z</time></trkpt><trkpt lat="43.8450367" lon="12.3192933"><ele>676.0</ele><time>2026-04-25T08:02:16.392Z</time></trkpt><trkpt lat="43.8449817" lon="12.3192433"><ele>676.0</ele><time>2026-04-25T08:02:18.391Z</time></trkpt><trkpt lat="43.8449217" lon="12.3192033"><ele>676.0</ele><time>2026-04-25T08:02:21.392Z</time></trkpt><trkpt lat="43.84486" lon="12.31916"><ele>676.0</ele><time>2026-04-25T08:02:24.392Z</time></trkpt><trkpt lat="43.8447983" lon="12.31912"><ele>676.0</ele><time>2026-04-25T08:02:27.391Z</time></trkpt><trkpt lat="43.8448733" lon="12.3192183"><ele>676.0</ele><time>2026-04-25T08:02:32.392Z</time></trkpt><trkpt lat="43.84496" lon="12.3192683"><ele>676.0</ele><time>2026-04-25T08:02:34.392Z</time></trkpt><trkpt lat="43.8450233" lon="12.3193233"><ele>676.0</ele><time>2026-04-25T08:02:36.392Z</time></trkpt><trkpt lat="43.8450833" lon="12.31936"><ele>676.0</ele><time>2026-04-25T08:02:39.392Z</time></trkpt><trkpt lat="43.8451433" lon="12.3194183"><ele>676.0</ele><time>2026-04-25T08:03:44.392Z</time></trkpt><trkpt lat="43.845095" lon="12.3193417"><ele>673.8</ele><time>2026-04-25T08:03:49.392Z</time></trkpt><trkpt lat="43.84497" lon="12.31934"><ele>671.5999999999999</ele><time>2026-04-25T08:03:51.392Z</time></trkpt><trkpt lat="43.8448883" lon="12.3193417"><ele>669.4</ele><time>2026-04-25T08:03:52.391Z</time></trkpt><trkpt lat="43.8448033" lon="12.319365"><ele>667.2</ele><time>2026-04-25T08:03:53.391Z</time></trkpt><trkpt lat="43.8447267" lon="12.3194017"><ele>665.0</ele><time>2026-04-25T08:03:54.391Z</time></trkpt><trkpt lat="43.8446267" lon="12.3194633"><ele>665.0</ele><time>2026-04-25T08:03:55.392Z</time></trkpt><trkpt lat="43.844525" lon="12.3195167"><ele>665.0</ele><time>2026-04-25T08:03:56.391Z</time></trkpt><trkpt lat="43.8444417" lon="12.319575"><ele>665.0</ele><time>2026-04-25T08:03:57.392Z</time></trkpt><trkpt lat="43.8443567" lon="12.31963"><ele>665.0</ele><time>2026-04-25T08:03:58.392Z</time></trkpt><trkpt lat="43.8442817" lon="12.3197"><ele>665.0</ele><time>2026-04-25T08:03:59.392Z</time></trkpt><trkpt lat="43.8442183" lon="12.3198033"><ele>668.1666666666666</ele><time>2026-04-25T08:04:00.391Z</time></trkpt><trkpt lat="43.84417" lon="12.31991"><ele>671.3333333333333</ele><time>2026-04-25T08:04:01.392Z</time></trkpt><trkpt lat="43.84412" lon="12.3199983"><ele>674.5</ele><time>2026-04-25T08:04:02.392Z</time></trkpt><trkpt lat="43.8440567" lon="12.3200617"><ele>677.6666666666666</ele><time>2026-04-25T08:04:03.391Z</time></trkpt><trkpt lat="43.8439867" lon="12.3200833"><ele>680.8333333333334</ele><time>2026-04-25T08:04:04.391Z</time></trkpt><trkpt lat="43.8438967" lon="12.32006"><ele>684.0</ele><time>2026-04-25T08:04:05.391Z</time></trkpt><trkpt lat="43.8437983" lon="12.320035"><ele>684.0</ele><time>2026-04-25T08:04:06.391Z</time></trkpt><trkpt lat="43.8437" lon="12.3200233"><ele>684.0</ele><time>2026-04-25T08:04:07.392Z</time></trkpt><trkpt lat="43.84361" lon="12.320015"><ele>684.0</ele><time>2026-04-25T08:04:08.392Z</time></trkpt><trkpt lat="43.8435317" lon="12.3200017"><ele>684.0</ele><time>2026-04-25T08:04:09.392Z</time></trkpt><trkpt lat="43.8434683" lon="12.319965"><ele>684.0</ele><time>2026-04-25T08:04:10.392Z</time></trkpt><trkpt lat="43.843415" lon="12.3198983"><ele>684.0</ele><time>2026-04-25T08:04:11.392Z</time></trkpt><trkpt lat="43.84336" lon="12.3198433"><ele>685.8333333333334</ele><time>2026-04-25T08:04:12.391Z</time></trkpt><trkpt lat="43.8432967" lon="12.31981"><ele>687.6666666666666</ele><time>2026-04-25T08:04:13.392Z</time></trkpt><trkpt lat="43.8432367" lon="12.3197783"><ele>689.5</ele><time>2026-04-25T08:04:14.391Z</time></trkpt><trkpt lat="43.8431183" lon="12.3197733"><ele>691.3333333333333</ele><time>2026-04-25T08:04:16.392Z</time></trkpt><trkpt lat="43.8430617" lon="12.3198217"><ele>693.1666666666666</ele><time>2026-04-25T08:04:17.391Z</time></trkpt><trkpt lat="43.84301" lon="12.319895"><ele>695.0</ele><time>2026-04-25T08:04:18.392Z</time></trkpt><trkpt lat="43.8429517" lon="12.3199633"><ele>695.0</ele><time>2026-04-25T08:04:19.391Z</time></trkpt><trkpt lat="43.84288" lon="12.3200267"><ele>695.0</ele><time>2026-04-25T08:04:20.392Z</time></trkpt><trkpt lat="43.8427933" lon="12.320085"><ele>695.0</ele><time>2026-04-25T08:04:21.391Z</time></trkpt><trkpt lat="43.842715" lon="12.3201283"><ele>695.0</ele><time>2026-04-25T08:04:22.391Z</time></trkpt><trkpt lat="43.8426417" lon="12.3201683"><ele>695.0</ele><time>2026-04-25T08:04:23.391Z</time></trkpt><trkpt lat="43.8425567" lon="12.32021"><ele>695.0</ele><time>2026-04-25T08:04:24.392Z</time></trkpt><trkpt lat="43.84247" lon="12.3202617"><ele>694.4</ele><time>2026-04-25T08:04:25.392Z</time></trkpt><trkpt lat="43.8423817" lon="12.320315"><ele>693.8</ele><time>2026-04-25T08:04:26.391Z</time></trkpt><trkpt lat="43.8422867" lon="12.3203783"><ele>693.2</ele><time>2026-04-25T08:04:27.392Z</time></trkpt><trkpt lat="43.842195" lon="12.3204367"><ele>692.6</ele><time>2026-04-25T08:04:28.391Z</time></trkpt><trkpt lat="43.8421" lon="12.320505"><ele>692.0</ele><time>2026-04-25T08:04:29.392Z</time></trkpt><trkpt lat="43.8420117" lon="12.320585"><ele>694.0</ele><time>2026-04-25T08:04:30.392Z</time></trkpt><trkpt lat="43.8419217" lon="12.3206583"><ele>696.0</ele><time>2026-04-25T08:04:31.392Z</time></trkpt><trkpt lat="43.8418283" lon="12.3207417"><ele>698.0</ele><time>2026-04-25T08:04:32.391Z</time></trkpt><trkpt lat="43.8417317" lon="12.3208417"><ele>700.0</ele><time>2026-04-25T08:04:33.392Z</time></trkpt><trkpt lat="43.8416367" lon="12.3209533"><ele>700.0</ele><time>2026-04-25T08:04:34.391Z</time></trkpt><trkpt lat="43.841535" lon="12.32107"><ele>700.0</ele><time>2026-04-25T08:04:35.391Z</time></trkpt><trkpt lat="43.8414417" lon="12.321155"><ele>700.0</ele><time>2026-04-25T08:04:36.391Z</time></trkpt><trkpt lat="43.8413583" lon="12.32123"><ele>700.0</ele><time>2026-04-25T08:04:37.392Z</time></trkpt><trkpt lat="43.8412817" lon="12.3212983"><ele>700.0</ele><time>2026-04-25T08:04:38.391Z</time></trkpt><trkpt lat="43.8412083" lon="12.3213633"><ele>701.6</ele><time>2026-04-25T08:04:39.392Z</time></trkpt><trkpt lat="43.84114" lon="12.3214283"><ele>703.2</ele><time>2026-04-25T08:04:40.392Z</time></trkpt><trkpt lat="43.84107" lon="12.3214933"><ele>704.8</ele><time>2026-04-25T08:04:41.391Z</time></trkpt><trkpt lat="43.84099" lon="12.3215667"><ele>706.4</ele><time>2026-04-25T08:04:42.392Z</time></trkpt><trkpt lat="43.8409033" lon="12.3216417"><ele>708.0</ele><time>2026-04-25T08:04:43.391Z</time></trkpt><trkpt lat="43.8408083" lon="12.3217217"><ele>708.5999999999999</ele><time>2026-04-25T08:04:44.392Z</time></trkpt><trkpt lat="43.8407117" lon="12.3217833"><ele>709.1999999999999</ele><time>2026-04-25T08:04:45.392Z</time></trkpt><trkpt lat="43.8406133" lon="12.321835"><ele>709.8</ele><time>2026-04-25T08:04:46.391Z</time></trkpt><trkpt lat="43.8405183" lon="12.3218817"><ele>710.4</ele><time>2026-04-25T08:04:47.391Z</time></trkpt><trkpt lat="43.840435" lon="12.3219183"><ele>711.0</ele><time>2026-04-25T08:04:48.392Z</time></trkpt><trkpt lat="43.8403533" lon="12.32196"><ele>711.0</ele><time>2026-04-25T08:04:49.392Z</time></trkpt><trkpt lat="43.8402883" lon="12.3219767"><ele>711.0</ele><time>2026-04-25T08:04:50.392Z</time></trkpt><trkpt lat="43.84022" lon="12.321975"><ele>711.0</ele><time>2026-04-25T08:04:51.392Z</time></trkpt><trkpt lat="43.8401083" lon="12.32199"><ele>711.0</ele><time>2026-04-25T08:04:53.392Z</time></trkpt><trkpt lat="43.840015" lon="12.3220633"><ele>711.0</ele><time>2026-04-25T08:04:55.391Z</time></trkpt><trkpt lat="43.8399617" lon="12.3221217"><ele>711.0</ele><time>2026-04-25T08:04:56.392Z</time></trkpt><trkpt lat="43.8398633" lon="12.3222"><ele>710.1666666666666</ele><time>2026-04-25T08:04:58.392Z</time></trkpt><trkpt lat="43.8397867" lon="12.322225"><ele>709.3333333333334</ele><time>2026-04-25T08:05:02.392Z</time></trkpt><trkpt lat="43.83971" lon="12.322225"><ele>708.5</ele><time>2026-04-25T08:05:05.392Z</time></trkpt><trkpt lat="43.83964" lon="12.322205"><ele>707.6666666666667</ele><time>2026-04-25T08:05:07.391Z</time></trkpt><trkpt lat="43.83955" lon="12.3222167"><ele>706.8333333333334</ele><time>2026-04-25T08:05:10.392Z</time></trkpt><trkpt lat="43.83949" lon="12.3222583"><ele>706.0</ele><time>2026-04-25T08:05:12.392Z</time></trkpt><trkpt lat="43.839435" lon="12.3223133"><ele>709.3333333333334</ele><time>2026-04-25T08:05:14.392Z</time></trkpt><trkpt lat="43.839385" lon="12.32239"><ele>712.6666666666667</ele><time>2026-04-25T08:05:16.392Z</time></trkpt><trkpt lat="43.8393333" lon="12.3224917"><ele>716.0</ele><time>2026-04-25T08:05:19.392Z</time></trkpt><trkpt lat="43.8392633" lon="12.3225683"><ele>719.3333333333334</ele><time>2026-04-25T08:05:21.392Z</time></trkpt><trkpt lat="43.839195" lon="12.322615"><ele>722.6666666666666</ele><time>2026-04-25T08:05:23.392Z</time></trkpt><trkpt lat="43.8391283" lon="12.32263"><ele>726.0</ele><time>2026-04-25T08:05:25.392Z</time></trkpt><trkpt lat="43.83904" lon="12.3226067"><ele>726.0</ele><time>2026-04-25T08:05:28.392Z</time></trkpt><trkpt lat="43.83898" lon="12.3226333"><ele>726.0</ele><time>2026-04-25T08:05:30.392Z</time></trkpt><trkpt lat="43.838915" lon="12.32255"><ele>726.0</ele><time>2026-04-25T08:05:34.391Z</time></trkpt><trkpt lat="43.8388967" lon="12.3224417"><ele>726.0</ele><time>2026-04-25T08:05:36.392Z</time></trkpt><trkpt lat="43.8388867" lon="12.3223217"><ele>726.0</ele><time>2026-04-25T08:05:38.392Z</time></trkpt><trkpt lat="43.8388817" lon="12.3222233"><ele>726.0</ele><time>2026-04-25T08:05:40.392Z</time></trkpt><trkpt lat="43.8388067" lon="12.3221933"><ele>726.0</ele><time>2026-04-25T08:05:46.392Z</time></trkpt><trkpt lat="43.8387183" lon="12.32228"><ele>726.0</ele><time>2026-04-25T08:05:53.392Z</time></trkpt><trkpt lat="43.8386417" lon="12.3223117"><ele>726.0</ele><time>2026-04-25T08:05:56.392Z</time></trkpt><trkpt lat="43.838575" lon="12.3222533"><ele>726.0</ele><time>2026-04-25T08:05:58.392Z</time></trkpt><trkpt lat="43.8385183" lon="12.32216"><ele>726.0</ele><time>2026-04-25T08:06:00.392Z</time></trkpt><trkpt lat="43.8384867" lon="12.322035"><ele>725.6666666666666</ele><time>2026-04-25T08:06:02.392Z</time></trkpt><trkpt lat="43.8384717" lon="12.3219083"><ele>725.3333333333334</ele><time>2026-04-25T08:06:04.392Z</time></trkpt><trkpt lat="43.8384583" lon="12.32178"><ele>725.0</ele><time>2026-04-25T08:06:06.391Z</time></trkpt><trkpt lat="43.8384667" lon="12.3216817"><ele>724.6666666666667</ele><time>2026-04-25T08:06:59.392Z</time></trkpt><trkpt lat="43.8385167" lon="12.3215717"><ele>724.3333333333334</ele><time>2026-04-25T08:07:01.391Z</time></trkpt><trkpt lat="43.838575" lon="12.321465"><ele>724.0</ele><time>2026-04-25T08:07:03.392Z</time></trkpt><trkpt lat="43.8386185" lon="12.3213173"><ele>725.8000000000001</ele><time>2026-04-25T08:07:18.46Z</time></trkpt><trkpt lat="43.8386583" lon="12.3212417"><ele>727.6</ele><time>2026-04-25T08:13:01.391Z</time></trkpt><trkpt lat="43.8387233" lon="12.3211383"><ele>729.4</ele><time>2026-04-25T08:13:03.391Z</time></trkpt><trkpt lat="43.83879" lon="12.32102"><ele>731.2</ele><time>2026-04-25T08:13:05.391Z</time></trkpt><trkpt lat="43.8388567" lon="12.3209067"><ele>733.0</ele><time>2026-04-25T08:13:07.391Z</time></trkpt><trkpt lat="43.8389117" lon="12.32078"><ele>733.0</ele><time>2026-04-25T08:13:09.391Z</time></trkpt><trkpt lat="43.8389533" lon="12.320675"><ele>733.0</ele><time>2026-04-25T08:13:11.391Z</time></trkpt><trkpt lat="43.8389683" lon="12.3205283"><ele>733.0</ele><time>2026-04-25T08:13:13.39Z</time></trkpt><trkpt lat="43.8389533" lon="12.32043"><ele>733.0</ele><time>2026-04-25T08:13:14.391Z</time></trkpt><trkpt lat="43.838935" lon="12.3203333"><ele>733.0</ele><time>2026-04-25T08:13:15.391Z</time></trkpt><trkpt lat="43.8389183" lon="12.3202433"><ele>733.0</ele><time>2026-04-25T08:13:16.391Z</time></trkpt><trkpt lat="43.8389033" lon="12.32015"><ele>735.5999999999999</ele><time>2026-04-25T08:13:17.39Z</time></trkpt><trkpt lat="43.83887" lon="12.3199933"><ele>738.1999999999999</ele><time>2026-04-25T08:13:19.39Z</time></trkpt><trkpt lat="43.838825" lon="12.3198583"><ele>740.8</ele><time>2026-04-25T08:13:21.391Z</time></trkpt><trkpt lat="43.83882" lon="12.3197233"><ele>743.4</ele><time>2026-04-25T08:13:23.391Z</time></trkpt><trkpt lat="43.8388333" lon="12.31955"><ele>746.0</ele><time>2026-04-25T08:13:25.391Z</time></trkpt><trkpt lat="43.8388217" lon="12.3194633"><ele>747.1666666666666</ele><time>2026-04-25T08:13:26.391Z</time></trkpt><trkpt lat="43.8387933" lon="12.3193783"><ele>748.3333333333333</ele><time>2026-04-25T08:13:27.391Z</time></trkpt><trkpt lat="43.83875" lon="12.3192883"><ele>749.5</ele><time>2026-04-25T08:13:28.391Z</time></trkpt><trkpt lat="43.8387067" lon="12.319195"><ele>750.6666666666666</ele><time>2026-04-25T08:13:29.391Z</time></trkpt><trkpt lat="43.8386633" lon="12.3190933"><ele>751.8333333333334</ele><time>2026-04-25T08:13:30.39Z</time></trkpt><trkpt lat="43.8386217" lon="12.31899"><ele>753.0</ele><time>2026-04-25T08:13:31.39Z</time></trkpt><trkpt lat="43.83858" lon="12.3188933"><ele>753.5</ele><time>2026-04-25T08:13:32.39Z</time></trkpt><trkpt lat="43.83854" lon="12.3187983"><ele>754.0</ele><time>2026-04-25T08:13:33.391Z</time></trkpt><trkpt lat="43.8385" lon="12.318705"><ele>754.5</ele><time>2026-04-25T08:13:34.39Z</time></trkpt><trkpt lat="43.8384517" lon="12.3186083"><ele>755.0</ele><time>2026-04-25T08:13:35.391Z</time></trkpt><trkpt lat="43.8384067" lon="12.3185133"><ele>755.5</ele><time>2026-04-25T08:13:36.391Z</time></trkpt><trkpt lat="43.838365" lon="12.318415"><ele>756.0</ele><time>2026-04-25T08:13:37.391Z</time></trkpt><trkpt lat="43.83832" lon="12.31833"><ele>756.1666666666666</ele><time>2026-04-25T08:13:38.391Z</time></trkpt><trkpt lat="43.8382767" lon="12.3182383"><ele>756.3333333333334</ele><time>2026-04-25T08:13:39.39Z</time></trkpt><trkpt lat="43.838235" lon="12.3181533"><ele>756.5</ele><time>2026-04-25T08:13:40.391Z</time></trkpt><trkpt lat="43.8382067" lon="12.3180633"><ele>756.6666666666667</ele><time>2026-04-25T08:13:41.391Z</time></trkpt><trkpt lat="43.8381867" lon="12.3179433"><ele>756.8333333333334</ele><time>2026-04-25T08:13:43.391Z</time></trkpt><trkpt lat="43.8382033" lon="12.3178467"><ele>757.0</ele><time>2026-04-25T08:13:45.391Z</time></trkpt><trkpt lat="43.8381917" lon="12.3177333"><ele>757.0</ele><time>2026-04-25T08:13:48.39Z</time></trkpt><trkpt lat="43.8381617" lon="12.3176433"><ele>757.0</ele><time>2026-04-25T08:13:50.391Z</time></trkpt><trkpt lat="43.83811" lon="12.31756"><ele>757.0</ele><time>2026-04-25T08:13:53.39Z</time></trkpt><trkpt lat="43.8380467" lon="12.3175483"><ele>757.0</ele><time>2026-04-25T08:13:55.39Z</time></trkpt><trkpt lat="43.8379833" lon="12.3175467"><ele>757.0</ele><time>2026-04-25T08:13:57.39Z</time></trkpt><trkpt lat="43.8379167" lon="12.3175317"><ele>757.0</ele><time>2026-04-25T08:14:00.391Z</time></trkpt><trkpt lat="43.83785" lon="12.31753"><ele>757.0</ele><time>2026-04-25T08:14:03.39Z</time></trkpt><trkpt lat="43.8377667" lon="12.3174817"><ele>757.0</ele><time>2026-04-25T08:14:06.39Z</time></trkpt><trkpt lat="43.8377" lon="12.3174217"><ele>757.0</ele><time>2026-04-25T08:14:08.39Z</time></trkpt><trkpt lat="43.8376417" lon="12.3173467"><ele>757.0</ele><time>2026-04-25T08:14:10.39Z</time></trkpt><trkpt lat="43.83759" lon="12.3172633"><ele>757.0</ele><time>2026-04-25T08:14:12.391Z</time></trkpt><trkpt lat="43.8375567" lon="12.3171767"><ele>757.0</ele><time>2026-04-25T08:14:14.391Z</time></trkpt><trkpt lat="43.837515" lon="12.3170783"><ele>757.0</ele><time>2026-04-25T08:14:16.39Z</time></trkpt><trkpt lat="43.8374617" lon="12.316975"><ele>753.3333333333334</ele><time>2026-04-25T08:14:18.39Z</time></trkpt><trkpt lat="43.837405" lon="12.3169033"><ele>749.6666666666667</ele><time>2026-04-25T08:14:20.391Z</time></trkpt><trkpt lat="43.8373333" lon="12.3168883"><ele>746.0</ele><time>2026-04-25T08:14:22.391Z</time></trkpt><trkpt lat="43.83722" lon="12.316915"><ele>742.3333333333334</ele><time>2026-04-25T08:14:24.391Z</time></trkpt><trkpt lat="43.8371167" lon="12.3169767"><ele>738.6666666666666</ele><time>2026-04-25T08:14:26.391Z</time></trkpt><trkpt lat="43.837065" lon="12.317045"><ele>735.0</ele><time>2026-04-25T08:14:27.39Z</time></trkpt><trkpt lat="43.837015" lon="12.31711"><ele>735.0</ele><time>2026-04-25T08:14:28.39Z</time></trkpt><trkpt lat="43.8369583" lon="12.3171833"><ele>735.0</ele><time>2026-04-25T08:14:29.391Z</time></trkpt><trkpt lat="43.8369067" lon="12.3172433"><ele>735.0</ele><time>2026-04-25T08:14:30.39Z</time></trkpt><trkpt lat="43.8368483" lon="12.317295"><ele>735.0</ele><time>2026-04-25T08:14:31.391Z</time></trkpt><trkpt lat="43.8367883" lon="12.3173317"><ele>735.0</ele><time>2026-04-25T08:14:32.391Z</time></trkpt><trkpt lat="43.836725" lon="12.31737"><ele>735.0</ele><time>2026-04-25T08:14:33.391Z</time></trkpt><trkpt lat="43.8366067" lon="12.317415"><ele>737.3333333333334</ele><time>2026-04-25T08:14:35.39Z</time></trkpt><trkpt lat="43.836485" lon="12.31739"><ele>739.6666666666666</ele><time>2026-04-25T08:14:37.39Z</time></trkpt><trkpt lat="43.8364133" lon="12.3172683"><ele>742.0</ele><time>2026-04-25T08:14:39.391Z</time></trkpt><trkpt lat="43.8364017" lon="12.3171767"><ele>744.3333333333333</ele><time>2026-04-25T08:14:40.391Z</time></trkpt><trkpt lat="43.8364117" lon="12.31708"><ele>746.6666666666666</ele><time>2026-04-25T08:14:41.391Z</time></trkpt><trkpt lat="43.8364317" lon="12.316985"><ele>749.0</ele><time>2026-04-25T08:14:42.391Z</time></trkpt><trkpt lat="43.8364517" lon="12.31688"><ele>749.0</ele><time>2026-04-25T08:14:43.391Z</time></trkpt><trkpt lat="43.836475" lon="12.316785"><ele>749.0</ele><time>2026-04-25T08:14:44.391Z</time></trkpt><trkpt lat="43.8364917" lon="12.3166967"><ele>749.0</ele><time>2026-04-25T08:14:45.391Z</time></trkpt><trkpt lat="43.836525" lon="12.3166217"><ele>749.0</ele><time>2026-04-25T08:14:46.39Z</time></trkpt><trkpt lat="43.83655" lon="12.3165033"><ele>749.0</ele><time>2026-04-25T08:14:48.39Z</time></trkpt><trkpt lat="43.8365283" lon="12.3163817"><ele>749.0</ele><time>2026-04-25T08:14:50.391Z</time></trkpt><trkpt lat="43.8364717" lon="12.3162683"><ele>749.8000000000001</ele><time>2026-04-25T08:14:52.391Z</time></trkpt><trkpt lat="43.8364183" lon="12.316165"><ele>750.6</ele><time>2026-04-25T08:14:54.39Z</time></trkpt><trkpt lat="43.836355" lon="12.31608"><ele>751.4</ele><time>2026-04-25T08:14:56.391Z</time></trkpt><trkpt lat="43.8362833" lon="12.3159633"><ele>752.2</ele><time>2026-04-25T08:14:58.391Z</time></trkpt><trkpt lat="43.8362217" lon="12.31584"><ele>753.0</ele><time>2026-04-25T08:15:00.391Z</time></trkpt><trkpt lat="43.836135" lon="12.315715"><ele>753.0</ele><time>2026-04-25T08:15:02.39Z</time></trkpt><trkpt lat="43.8360767" lon="12.31565"><ele>753.0</ele><time>2026-04-25T08:15:03.391Z</time></trkpt><trkpt lat="43.8360227" lon="12.3155881"><ele>753.0</ele><time>2026-04-25T08:15:04.391Z</time></trkpt><trkpt lat="43.8359698" lon="12.3155253"><ele>753.0</ele><time>2026-04-25T08:15:05.39Z</time></trkpt><trkpt lat="43.8359165" lon="12.3154581"><ele>753.0</ele><time>2026-04-25T08:15:06.39Z</time></trkpt><trkpt lat="43.8358575" lon="12.3153994"><ele>753.0</ele><time>2026-04-25T08:15:07.39Z</time></trkpt><trkpt lat="43.8357955" lon="12.315343"><ele>753.0</ele><time>2026-04-25T08:15:08.391Z</time></trkpt><trkpt lat="43.835735" lon="12.3152926"><ele>755.25</ele><time>2026-04-25T08:15:09.391Z</time></trkpt><trkpt lat="43.8356304" lon="12.3152404"><ele>757.5</ele><time>2026-04-25T08:15:11.391Z</time></trkpt><trkpt lat="43.8355202" lon="12.315233"><ele>759.75</ele><time>2026-04-25T08:15:13.39Z</time></trkpt><trkpt lat="43.8353962" lon="12.3152562"><ele>762.0</ele><time>2026-04-25T08:15:15.391Z</time></trkpt><trkpt lat="43.8352831" lon="12.3152661"><ele>762.0</ele><time>2026-04-25T08:15:17.39Z</time></trkpt><trkpt lat="43.8351891" lon="12.3152763"><ele>762.0</ele><time>2026-04-25T08:15:19.391Z</time></trkpt><trkpt lat="43.8350878" lon="12.3153006"><ele>762.0</ele><time>2026-04-25T08:15:31.391Z</time></trkpt><trkpt lat="43.8349711" lon="12.3153539"><ele>762.0</ele><time>2026-04-25T08:15:33.391Z</time></trkpt><trkpt lat="43.8348588" lon="12.3153462"><ele>762.0</ele><time>2026-04-25T08:15:35.391Z</time></trkpt><trkpt lat="43.8347709" lon="12.3153091"><ele>763.1666666666666</ele><time>2026-04-25T08:15:37.39Z</time></trkpt><trkpt lat="43.8347048" lon="12.3152825"><ele>764.3333333333333</ele><time>2026-04-25T08:15:39.391Z</time></trkpt><trkpt lat="43.8346314" lon="12.3152458"><ele>765.5</ele><time>2026-04-25T08:15:42.391Z</time></trkpt><trkpt lat="43.8345659" lon="12.3152974"><ele>766.6666666666666</ele><time>2026-04-25T08:15:45.39Z</time></trkpt><trkpt lat="43.8344901" lon="12.315322"><ele>767.8333333333333</ele><time>2026-04-25T08:15:47.391Z</time></trkpt><trkpt lat="43.834395" lon="12.3152683"><ele>769.0</ele><time>2026-04-25T08:15:49.391Z</time></trkpt><trkpt lat="43.8342917" lon="12.3152433"><ele>768.9999999999999</ele><time>2026-04-25T08:15:51.391Z</time></trkpt><trkpt lat="43.8342117" lon="12.3152283"><ele>769.0</ele><time>2026-04-25T08:15:53.39Z</time></trkpt><trkpt lat="43.8341567" lon="12.3151783"><ele>769.0</ele><time>2026-04-25T08:15:55.39Z</time></trkpt><trkpt lat="43.8341083" lon="12.315115"><ele>769.0</ele><time>2026-04-25T08:15:57.391Z</time></trkpt><trkpt lat="43.8340233" lon="12.3151033"><ele>768.9999999999999</ele><time>2026-04-25T08:15:59.391Z</time></trkpt><trkpt lat="43.8339333" lon="12.3150633"><ele>769.0</ele><time>2026-04-25T08:16:01.391Z</time></trkpt><trkpt lat="43.8338767" lon="12.314925"><ele>769.0</ele><time>2026-04-25T08:16:03.39Z</time></trkpt><trkpt lat="43.833855" lon="12.3148267"><ele>769.0</ele><time>2026-04-25T08:16:04.39Z</time></trkpt><trkpt lat="43.833835" lon="12.3147233"><ele>769.0</ele><time>2026-04-25T08:16:05.39Z</time></trkpt><trkpt lat="43.8338183" lon="12.3146233"><ele>769.0</ele><time>2026-04-25T08:16:06.391Z</time></trkpt><trkpt lat="43.8338" lon="12.3145333"><ele>769.0</ele><time>2026-04-25T08:16:07.39Z</time></trkpt><trkpt lat="43.8337817" lon="12.31443"><ele>769.0</ele><time>2026-04-25T08:16:08.39Z</time></trkpt><trkpt lat="43.83377" lon="12.3143317"><ele>769.0</ele><time>2026-04-25T08:16:09.391Z</time></trkpt><trkpt lat="43.83373" lon="12.31422"><ele>767.3333333333333</ele><time>2026-04-25T08:16:11.39Z</time></trkpt><trkpt lat="43.8336533" lon="12.3141583"><ele>765.6666666666666</ele><time>2026-04-25T08:16:13.39Z</time></trkpt><trkpt lat="43.833565" lon="12.3141183"><ele>764.0</ele><time>2026-04-25T08:16:15.391Z</time></trkpt><trkpt lat="43.833495" lon="12.31406"><ele>762.3333333333333</ele><time>2026-04-25T08:16:17.39Z</time></trkpt><trkpt lat="43.8334267" lon="12.313995"><ele>760.6666666666666</ele><time>2026-04-25T08:16:19.391Z</time></trkpt><trkpt lat="43.8333483" lon="12.3139483"><ele>759.0</ele><time>2026-04-25T08:16:21.39Z</time></trkpt><trkpt lat="43.83327" lon="12.3139133"><ele>759.0</ele><time>2026-04-25T08:16:23.39Z</time></trkpt><trkpt lat="43.8331783" lon="12.3139117"><ele>759.0</ele><time>2026-04-25T08:16:26.391Z</time></trkpt><trkpt lat="43.8331183" lon="12.3139467"><ele>759.0</ele><time>2026-04-25T08:16:28.391Z</time></trkpt><trkpt lat="43.833055" lon="12.31393"><ele>759.0</ele><time>2026-04-25T08:16:30.391Z</time></trkpt><trkpt lat="43.833005" lon="12.3138383"><ele>759.0</ele><time>2026-04-25T08:16:32.391Z</time></trkpt><trkpt lat="43.8329383" lon="12.3137667"><ele>759.0</ele><time>2026-04-25T08:16:34.391Z</time></trkpt><trkpt lat="43.832875" lon="12.3137167"><ele>757.0</ele><time>2026-04-25T08:16:36.391Z</time></trkpt><trkpt lat="43.8328517" lon="12.313605"><ele>755.0</ele><time>2026-04-25T08:16:39.391Z</time></trkpt><trkpt lat="43.8328667" lon="12.3134767"><ele>753.0</ele><time>2026-04-25T08:16:41.391Z</time></trkpt><trkpt lat="43.8328383" lon="12.3133717"><ele>751.0</ele><time>2026-04-25T08:16:43.391Z</time></trkpt><trkpt lat="43.8327483" lon="12.313255"><ele>749.0</ele><time>2026-04-25T08:16:45.391Z</time></trkpt><trkpt lat="43.8326783" lon="12.313165"><ele>750.4000000000001</ele><time>2026-04-25T08:16:47.391Z</time></trkpt><trkpt lat="43.8326067" lon="12.313055"><ele>751.8</ele><time>2026-04-25T08:16:55.391Z</time></trkpt><trkpt lat="43.83253" lon="12.3129483"><ele>753.2</ele><time>2026-04-25T08:16:57.391Z</time></trkpt><trkpt lat="43.832485" lon="12.312885"><ele>754.5999999999999</ele><time>2026-04-25T08:16:58.39Z</time></trkpt><trkpt lat="43.8324017" lon="12.3127867"><ele>756.0</ele><time>2026-04-25T08:17:00.39Z</time></trkpt><trkpt lat="43.8323367" lon="12.31268"><ele>756.0</ele><time>2026-04-25T08:17:02.39Z</time></trkpt><trkpt lat="43.83225" lon="12.312585"><ele>756.0</ele><time>2026-04-25T08:17:04.39Z</time></trkpt><trkpt lat="43.832175" lon="12.3124933"><ele>756.0</ele><time>2026-04-25T08:17:06.39Z</time></trkpt><trkpt lat="43.83211" lon="12.3123717"><ele>756.0</ele><time>2026-04-25T08:17:08.39Z</time></trkpt><trkpt lat="43.832075" lon="12.312295"><ele>756.0</ele><time>2026-04-25T08:17:09.391Z</time></trkpt><trkpt lat="43.8320333" lon="12.31218"><ele>754.4</ele><time>2026-04-25T08:17:11.39Z</time></trkpt><trkpt lat="43.83204" lon="12.3120633"><ele>752.8</ele><time>2026-04-25T08:17:13.391Z</time></trkpt><trkpt lat="43.83205" lon="12.31193"><ele>751.1999999999999</ele><time>2026-04-25T08:17:15.39Z</time></trkpt><trkpt lat="43.8320133" lon="12.311815"><ele>749.5999999999999</ele><time>2026-04-25T08:17:17.39Z</time></trkpt><trkpt lat="43.83191" lon="12.31171"><ele>748.0</ele><time>2026-04-25T08:17:19.39Z</time></trkpt><trkpt lat="43.8318483" lon="12.3116567"><ele>749.0</ele><time>2026-04-25T08:17:20.39Z</time></trkpt><trkpt lat="43.8317867" lon="12.3116117"><ele>750.0</ele><time>2026-04-25T08:17:21.39Z</time></trkpt><trkpt lat="43.8316983" lon="12.3115417"><ele>751.0</ele><time>2026-04-25T08:17:23.391Z</time></trkpt><trkpt lat="43.8316383" lon="12.3114767"><ele>752.0</ele><time>2026-04-25T08:17:25.391Z</time></trkpt><trkpt lat="43.8315633" lon="12.3113983"><ele>753.0</ele><time>2026-04-25T08:17:33.39Z</time></trkpt><trkpt lat="43.8314783" lon="12.3113917"><ele>754.0</ele><time>2026-04-25T08:17:36.391Z</time></trkpt><trkpt lat="43.8313997" lon="12.3114411"><ele>754.0</ele><time>2026-04-25T08:17:41.368Z</time></trkpt><trkpt lat="43.8313565" lon="12.3113542"><ele>754.0</ele><time>2026-04-25T08:17:44.435Z</time></trkpt><trkpt lat="43.8313497" lon="12.3112623"><ele>754.0</ele><time>2026-04-25T08:17:46.448Z</time></trkpt><trkpt lat="43.8313263" lon="12.3111459"><ele>754.0</ele><time>2026-04-25T08:17:48.461Z</time></trkpt><trkpt lat="43.8313" lon="12.3110067"><ele>754.0</ele><time>2026-04-25T08:17:49.391Z</time></trkpt><trkpt lat="43.8313" lon="12.3109033"><ele>754.0</ele><time>2026-04-25T08:17:51.39Z</time></trkpt><trkpt lat="43.83133" lon="12.3108"><ele>754.0</ele><time>2026-04-25T08:17:53.39Z</time></trkpt><trkpt lat="43.8313616" lon="12.3106879"><ele>754.0</ele><time>2026-04-25T08:17:55.404Z</time></trkpt><trkpt lat="43.8313551" lon="12.3105832"><ele>754.0</ele><time>2026-04-25T08:17:57.416Z</time></trkpt><trkpt lat="43.8313511" lon="12.3104839"><ele>754.0</ele><time>2026-04-25T08:17:59.429Z</time></trkpt><trkpt lat="43.8313867" lon="12.3104067"><ele>754.0</ele><time>2026-04-25T08:18:00.391Z</time></trkpt><trkpt lat="43.8314167" lon="12.3102967"><ele>754.0</ele><time>2026-04-25T08:18:02.39Z</time></trkpt><trkpt lat="43.8313817" lon="12.3101717"><ele>752.0</ele><time>2026-04-25T08:18:05.39Z</time></trkpt><trkpt lat="43.8313267" lon="12.3100717"><ele>750.0</ele><time>2026-04-25T08:18:07.39Z</time></trkpt><trkpt lat="43.83128" lon="12.3099267"><ele>748.0</ele><time>2026-04-25T08:18:09.391Z</time></trkpt><trkpt lat="43.8312619" lon="12.3097419"><ele>746.0</ele><time>2026-04-25T08:18:11.39Z</time></trkpt><trkpt lat="43.8312514" lon="12.3096366"><ele>744.0</ele><time>2026-04-25T08:18:12.391Z</time></trkpt><trkpt lat="43.8312399" lon="12.3095385"><ele>741.8333333333334</ele><time>2026-04-25T08:18:13.391Z</time></trkpt><trkpt lat="43.8312278" lon="12.3094498"><ele>739.6666666666666</ele><time>2026-04-25T08:18:14.391Z</time></trkpt><trkpt lat="43.831213" lon="12.3093545"><ele>737.5</ele><time>2026-04-25T08:18:15.39Z</time></trkpt><trkpt lat="43.8311968" lon="12.3092574"><ele>735.3333333333333</ele><time>2026-04-25T08:18:16.391Z</time></trkpt><trkpt lat="43.8311722" lon="12.3091576"><ele>733.1666666666666</ele><time>2026-04-25T08:18:17.39Z</time></trkpt><trkpt lat="43.8311367" lon="12.3090466"><ele>731.0</ele><time>2026-04-25T08:18:18.391Z</time></trkpt><trkpt lat="43.8310951" lon="12.3089372"><ele>728.8333333333333</ele><time>2026-04-25T08:18:19.39Z</time></trkpt><trkpt lat="43.8310668" lon="12.3088367"><ele>726.6666666666666</ele><time>2026-04-25T08:18:20.391Z</time></trkpt><trkpt lat="43.8310409" lon="12.3087321"><ele>724.5</ele><time>2026-04-25T08:18:21.39Z</time></trkpt><trkpt lat="43.8310204" lon="12.30863"><ele>722.3333333333334</ele><time>2026-04-25T08:18:22.39Z</time></trkpt><trkpt lat="43.83101" lon="12.3085262"><ele>720.1666666666667</ele><time>2026-04-25T08:18:23.391Z</time></trkpt><trkpt lat="43.8310032" lon="12.3084186"><ele>718.0</ele><time>2026-04-25T08:18:24.39Z</time></trkpt><trkpt lat="43.8309951" lon="12.3083201"><ele>718.0</ele><time>2026-04-25T08:18:25.39Z</time></trkpt><trkpt lat="43.8309877" lon="12.3082236"><ele>718.0</ele><time>2026-04-25T08:18:26.39Z</time></trkpt><trkpt lat="43.8309899" lon="12.3081248"><ele>718.0</ele><time>2026-04-25T08:18:27.391Z</time></trkpt><trkpt lat="43.8310024" lon="12.3080262"><ele>718.0</ele><time>2026-04-25T08:18:28.391Z</time></trkpt><trkpt lat="43.8310205" lon="12.3079334"><ele>718.0</ele><time>2026-04-25T08:18:29.391Z</time></trkpt><trkpt lat="43.8310232" lon="12.3077884"><ele>718.0</ele><time>2026-04-25T08:18:31.391Z</time></trkpt><trkpt lat="43.8309911" lon="12.3076886"><ele>720.5</ele><time>2026-04-25T08:18:33.39Z</time></trkpt><trkpt lat="43.8309044" lon="12.3076044"><ele>723.0</ele><time>2026-04-25T08:18:35.39Z</time></trkpt><trkpt lat="43.8308403" lon="12.3075521"><ele>725.5</ele><time>2026-04-25T08:18:36.391Z</time></trkpt><trkpt lat="43.8307699" lon="12.307492"><ele>728.0</ele><time>2026-04-25T08:18:37.391Z</time></trkpt><trkpt lat="43.8306965" lon="12.3074258"><ele>730.5</ele><time>2026-04-25T08:18:38.39Z</time></trkpt><trkpt lat="43.8306251" lon="12.3073604"><ele>733.0</ele><time>2026-04-25T08:18:39.39Z</time></trkpt><trkpt lat="43.8305607" lon="12.3072999"><ele>732.9999999999999</ele><time>2026-04-25T08:18:40.39Z</time></trkpt><trkpt lat="43.8305003" lon="12.3072445"><ele>733.0</ele><time>2026-04-25T08:18:41.391Z</time></trkpt><trkpt lat="43.8304444" lon="12.3071858"><ele>733.0</ele><time>2026-04-25T08:18:42.391Z</time></trkpt><trkpt lat="43.8303951" lon="12.3071161"><ele>733.0</ele><time>2026-04-25T08:18:43.39Z</time></trkpt><trkpt lat="43.8303533" lon="12.3070317"><ele>733.0</ele><time>2026-04-25T08:18:44.391Z</time></trkpt><trkpt lat="43.8303033" lon="12.30696"><ele>732.9999999999999</ele><time>2026-04-25T08:18:45.39Z</time></trkpt><trkpt lat="43.830265" lon="12.30689"><ele>733.0</ele><time>2026-04-25T08:18:46.391Z</time></trkpt><trkpt lat="43.8302283" lon="12.3068033"><ele>732.6666666666667</ele><time>2026-04-25T08:18:47.391Z</time></trkpt><trkpt lat="43.8301867" lon="12.30671"><ele>732.3333333333334</ele><time>2026-04-25T08:18:48.39Z</time></trkpt><trkpt lat="43.8301517" lon="12.3066083"><ele>732.0</ele><time>2026-04-25T08:18:49.391Z</time></trkpt><trkpt lat="43.830115" lon="12.3065083"><ele>731.6666666666666</ele><time>2026-04-25T08:18:50.391Z</time></trkpt><trkpt lat="43.8300833" lon="12.306425"><ele>731.3333333333333</ele><time>2026-04-25T08:18:51.391Z</time></trkpt><trkpt lat="43.8300467" lon="12.3063317"><ele>731.0</ele><time>2026-04-25T08:18:52.39Z</time></trkpt><trkpt lat="43.83002" lon="12.30624"><ele>731.0</ele><time>2026-04-25T08:18:53.391Z</time></trkpt><trkpt lat="43.82999" lon="12.30616"><ele>731.0</ele><time>2026-04-25T08:18:54.39Z</time></trkpt><trkpt lat="43.8299467" lon="12.3060917"><ele>731.0</ele><time>2026-04-25T08:18:55.391Z</time></trkpt><trkpt lat="43.829895" lon="12.3060233"><ele>731.0</ele><time>2026-04-25T08:18:56.391Z</time></trkpt><trkpt lat="43.8298467" lon="12.30589"><ele>731.0</ele><time>2026-04-25T08:18:58.391Z</time></trkpt><trkpt lat="43.8298567" lon="12.3058033"><ele>731.0</ele><time>2026-04-25T08:18:59.391Z</time></trkpt><trkpt lat="43.8298767" lon="12.3057067"><ele>731.0</ele><time>2026-04-25T08:19:00.391Z</time></trkpt><trkpt lat="43.8299033" lon="12.3055467"><ele>729.3333333333333</ele><time>2026-04-25T08:19:02.39Z</time></trkpt><trkpt lat="43.8298983" lon="12.305425"><ele>727.6666666666666</ele><time>2026-04-25T08:19:04.39Z</time></trkpt><trkpt lat="43.82985" lon="12.305325"><ele>726.0</ele><time>2026-04-25T08:19:06.39Z</time></trkpt><trkpt lat="43.8297683" lon="12.30527"><ele>724.3333333333334</ele><time>2026-04-25T08:19:08.391Z</time></trkpt><trkpt lat="43.8296983" lon="12.3052533"><ele>722.6666666666667</ele><time>2026-04-25T08:19:10.391Z</time></trkpt><trkpt lat="43.8296167" lon="12.3052483"><ele>721.0</ele><time>2026-04-25T08:19:12.39Z</time></trkpt><trkpt lat="43.8295517" lon="12.30527"><ele>721.0</ele><time>2026-04-25T08:19:13.39Z</time></trkpt><trkpt lat="43.82948" lon="12.3053033"><ele>721.0</ele><time>2026-04-25T08:19:14.39Z</time></trkpt><trkpt lat="43.8294017" lon="12.3053483"><ele>721.0</ele><time>2026-04-25T08:19:15.391Z</time></trkpt><trkpt lat="43.8293167" lon="12.3054017"><ele>721.0</ele><time>2026-04-25T08:19:16.391Z</time></trkpt><trkpt lat="43.8292283" lon="12.305455"><ele>721.0</ele><time>2026-04-25T08:19:17.391Z</time></trkpt><trkpt lat="43.8291383" lon="12.3054767"><ele>721.0</ele><time>2026-04-25T08:19:18.391Z</time></trkpt><trkpt lat="43.829045" lon="12.3054733"><ele>722.0</ele><time>2026-04-25T08:19:19.39Z</time></trkpt><trkpt lat="43.8289617" lon="12.3054167"><ele>723.0</ele><time>2026-04-25T08:19:20.391Z</time></trkpt><trkpt lat="43.8288983" lon="12.3053417"><ele>724.0</ele><time>2026-04-25T08:19:21.39Z</time></trkpt><trkpt lat="43.8288517" lon="12.3052533"><ele>725.0</ele><time>2026-04-25T08:19:22.391Z</time></trkpt><trkpt lat="43.8288183" lon="12.3051367"><ele>726.0</ele><time>2026-04-25T08:19:23.39Z</time></trkpt><trkpt lat="43.8288133" lon="12.3050017"><ele>727.0</ele><time>2026-04-25T08:19:24.391Z</time></trkpt><trkpt lat="43.82884" lon="12.304865"><ele>727.2</ele><time>2026-04-25T08:19:25.39Z</time></trkpt><trkpt lat="43.828885" lon="12.3047317"><ele>727.4000000000001</ele><time>2026-04-25T08:19:26.39Z</time></trkpt><trkpt lat="43.8289367" lon="12.3045917"><ele>727.5999999999999</ele><time>2026-04-25T08:19:27.39Z</time></trkpt><trkpt lat="43.8289883" lon="12.3044517"><ele>727.8</ele><time>2026-04-25T08:19:28.39Z</time></trkpt><trkpt lat="43.8290317" lon="12.3043267"><ele>728.0</ele><time>2026-04-25T08:19:29.39Z</time></trkpt><trkpt lat="43.8290767" lon="12.3042133"><ele>728.0</ele><time>2026-04-25T08:19:30.39Z</time></trkpt><trkpt lat="43.8291183" lon="12.304095"><ele>728.0</ele><time>2026-04-25T08:19:31.39Z</time></trkpt><trkpt lat="43.82916" lon="12.30398"><ele>728.0</ele><time>2026-04-25T08:19:32.39Z</time></trkpt><trkpt lat="43.8292017" lon="12.3038617"><ele>728.0</ele><time>2026-04-25T08:19:33.39Z</time></trkpt><trkpt lat="43.8292433" lon="12.3037467"><ele>728.0</ele><time>2026-04-25T08:19:34.39Z</time></trkpt><trkpt lat="43.829295" lon="12.3036333"><ele>727.8</ele><time>2026-04-25T08:19:35.39Z</time></trkpt><trkpt lat="43.829345" lon="12.3035217"><ele>727.5999999999999</ele><time>2026-04-25T08:19:36.389Z</time></trkpt><trkpt lat="43.8294083" lon="12.30339"><ele>727.4000000000001</ele><time>2026-04-25T08:19:37.39Z</time></trkpt><trkpt lat="43.8294717" lon="12.3032667"><ele>727.2</ele><time>2026-04-25T08:19:38.39Z</time></trkpt><trkpt lat="43.8295333" lon="12.3031483"><ele>727.0</ele><time>2026-04-25T08:19:39.389Z</time></trkpt><trkpt lat="43.8295917" lon="12.303055"><ele>726.6</ele><time>2026-04-25T08:19:40.39Z</time></trkpt><trkpt lat="43.829645" lon="12.3029733"><ele>726.2</ele><time>2026-04-25T08:19:41.39Z</time></trkpt><trkpt lat="43.8297083" lon="12.3028317"><ele>725.8</ele><time>2026-04-25T08:19:43.39Z</time></trkpt><trkpt lat="43.8297117" lon="12.3027133"><ele>725.4</ele><time>2026-04-25T08:19:45.39Z</time></trkpt><trkpt lat="43.82964" lon="12.3027383"><ele>725.0</ele><time>2026-04-25T08:19:48.39Z</time></trkpt><trkpt lat="43.829575" lon="12.302855"><ele>725.0</ele><time>2026-04-25T08:19:50.39Z</time></trkpt><trkpt lat="43.8295083" lon="12.3029017"><ele>725.0</ele><time>2026-04-25T08:19:51.39Z</time></trkpt><trkpt lat="43.829435" lon="12.302935"><ele>725.0</ele><time>2026-04-25T08:19:52.389Z</time></trkpt><trkpt lat="43.8293533" lon="12.3029506"><ele>725.0</ele><time>2026-04-25T08:19:53.39Z</time></trkpt><trkpt lat="43.829268" lon="12.3029555"><ele>725.0</ele><time>2026-04-25T08:19:54.389Z</time></trkpt><trkpt lat="43.829177" lon="12.3029736"><ele>725.0</ele><time>2026-04-25T08:19:55.39Z</time></trkpt><trkpt lat="43.8290941" lon="12.3029908"><ele>726.3333333333333</ele><time>2026-04-25T08:19:56.39Z</time></trkpt><trkpt lat="43.8290077" lon="12.3030126"><ele>727.6666666666666</ele><time>2026-04-25T08:19:57.389Z</time></trkpt><trkpt lat="43.8289215" lon="12.3030323"><ele>729.0</ele><time>2026-04-25T08:19:58.389Z</time></trkpt><trkpt lat="43.8288362" lon="12.303043"><ele>730.3333333333334</ele><time>2026-04-25T08:19:59.39Z</time></trkpt><trkpt lat="43.8287521" lon="12.3030491"><ele>731.6666666666667</ele><time>2026-04-25T08:20:00.389Z</time></trkpt><trkpt lat="43.8286668" lon="12.3030616"><ele>733.0</ele><time>2026-04-25T08:20:01.389Z</time></trkpt><trkpt lat="43.8285907" lon="12.3030749"><ele>732.9999999999999</ele><time>2026-04-25T08:20:02.39Z</time></trkpt><trkpt lat="43.8285134" lon="12.3030754"><ele>733.0</ele><time>2026-04-25T08:20:03.389Z</time></trkpt><trkpt lat="43.8284399" lon="12.3030714"><ele>733.0</ele><time>2026-04-25T08:20:04.39Z</time></trkpt><trkpt lat="43.8283704" lon="12.303077"><ele>733.0</ele><time>2026-04-25T08:20:05.39Z</time></trkpt><trkpt lat="43.8283102" lon="12.3031069"><ele>733.0</ele><time>2026-04-25T08:20:06.389Z</time></trkpt><trkpt lat="43.8282505" lon="12.3031493"><ele>732.9999999999999</ele><time>2026-04-25T08:20:07.39Z</time></trkpt><trkpt lat="43.8281924" lon="12.3031994"><ele>733.0</ele><time>2026-04-25T08:20:08.389Z</time></trkpt><trkpt lat="43.8281286" lon="12.3032614"><ele>735.5</ele><time>2026-04-25T08:20:09.389Z</time></trkpt><trkpt lat="43.8280645" lon="12.3033287"><ele>738.0</ele><time>2026-04-25T08:20:10.389Z</time></trkpt><trkpt lat="43.8280096" lon="12.303386"><ele>740.5</ele><time>2026-04-25T08:20:11.39Z</time></trkpt><trkpt lat="43.8279494" lon="12.303438"><ele>743.0</ele><time>2026-04-25T08:20:12.39Z</time></trkpt><trkpt lat="43.8278778" lon="12.3034864"><ele>745.5</ele><time>2026-04-25T08:20:13.39Z</time></trkpt><trkpt lat="43.8277894" lon="12.3035313"><ele>748.0</ele><time>2026-04-25T08:20:14.39Z</time></trkpt><trkpt lat="43.8276926" lon="12.3035532"><ele>749.5999999999999</ele><time>2026-04-25T08:20:15.39Z</time></trkpt><trkpt lat="43.8275925" lon="12.303559"><ele>751.1999999999999</ele><time>2026-04-25T08:20:16.389Z</time></trkpt><trkpt lat="43.82749" lon="12.3035664"><ele>752.8</ele><time>2026-04-25T08:20:17.39Z</time></trkpt><trkpt lat="43.8273913" lon="12.3035769"><ele>754.4</ele><time>2026-04-25T08:20:18.389Z</time></trkpt><trkpt lat="43.8273058" lon="12.3035995"><ele>756.0</ele><time>2026-04-25T08:20:19.39Z</time></trkpt><trkpt lat="43.8272249" lon="12.3036413"><ele>756.0</ele><time>2026-04-25T08:20:20.39Z</time></trkpt><trkpt lat="43.8271446" lon="12.3037043"><ele>756.0</ele><time>2026-04-25T08:20:21.389Z</time></trkpt><trkpt lat="43.8270688" lon="12.3037787"><ele>756.0</ele><time>2026-04-25T08:20:22.39Z</time></trkpt><trkpt lat="43.826992" lon="12.3038403"><ele>756.0</ele><time>2026-04-25T08:20:23.39Z</time></trkpt><trkpt lat="43.8269255" lon="12.3038871"><ele>756.0</ele><time>2026-04-25T08:20:24.39Z</time></trkpt><trkpt lat="43.8268007" lon="12.3038782"><ele>755.5999999999999</ele><time>2026-04-25T08:20:26.389Z</time></trkpt><trkpt lat="43.8267331" lon="12.3038189"><ele>755.2</ele><time>2026-04-25T08:20:27.389Z</time></trkpt><trkpt lat="43.8266493" lon="12.3037755"><ele>754.8</ele><time>2026-04-25T08:20:28.389Z</time></trkpt><trkpt lat="43.8265509" lon="12.3037457"><ele>754.4000000000001</ele><time>2026-04-25T08:20:29.389Z</time></trkpt><trkpt lat="43.8264527" lon="12.3037252"><ele>754.0</ele><time>2026-04-25T08:20:30.39Z</time></trkpt><trkpt lat="43.8263553" lon="12.3037054"><ele>754.0</ele><time>2026-04-25T08:20:31.39Z</time></trkpt><trkpt lat="43.8262593" lon="12.303691"><ele>754.0</ele><time>2026-04-25T08:20:32.389Z</time></trkpt><trkpt lat="43.8261693" lon="12.3036826"><ele>754.0</ele><time>2026-04-25T08:20:33.39Z</time></trkpt><trkpt lat="43.8260977" lon="12.3036763"><ele>754.0</ele><time>2026-04-25T08:20:34.39Z</time></trkpt><trkpt lat="43.8260009" lon="12.3036623"><ele>754.0</ele><time>2026-04-25T08:20:36.39Z</time></trkpt><trkpt lat="43.8259343" lon="12.3035979"><ele>754.0</ele><time>2026-04-25T08:20:38.39Z</time></trkpt><trkpt lat="43.8258986" lon="12.3034314"><ele>753.2</ele><time>2026-04-25T08:20:40.389Z</time></trkpt><trkpt lat="43.82589" lon="12.303306"><ele>752.4000000000001</ele><time>2026-04-25T08:20:41.39Z</time></trkpt><trkpt lat="43.8258865" lon="12.3031682"><ele>751.6</ele><time>2026-04-25T08:20:42.39Z</time></trkpt><trkpt lat="43.8258839" lon="12.3030208"><ele>750.8</ele><time>2026-04-25T08:20:43.39Z</time></trkpt><trkpt lat="43.8258766" lon="12.3028646"><ele>750.0</ele><time>2026-04-25T08:20:44.389Z</time></trkpt><trkpt lat="43.8258669" lon="12.3027123"><ele>749.0</ele><time>2026-04-25T08:20:45.389Z</time></trkpt><trkpt lat="43.8258659" lon="12.3025751"><ele>748.0</ele><time>2026-04-25T08:20:46.39Z</time></trkpt><trkpt lat="43.8258665" lon="12.302462"><ele>747.0</ele><time>2026-04-25T08:20:47.389Z</time></trkpt><trkpt lat="43.8258642" lon="12.3023715"><ele>746.0</ele><time>2026-04-25T08:20:48.39Z</time></trkpt><trkpt lat="43.8258654" lon="12.3022393"><ele>745.0</ele><time>2026-04-25T08:20:50.39Z</time></trkpt><trkpt lat="43.8257923" lon="12.3021986"><ele>744.0</ele><time>2026-04-25T08:20:55.389Z</time></trkpt><trkpt lat="43.8257037" lon="12.3023203"><ele>744.0</ele><time>2026-04-25T08:20:57.39Z</time></trkpt><trkpt lat="43.8256448" lon="12.302436"><ele>744.0</ele><time>2026-04-25T08:20:58.389Z</time></trkpt><trkpt lat="43.8255793" lon="12.3025511"><ele>744.0</ele><time>2026-04-25T08:20:59.39Z</time></trkpt><trkpt lat="43.8255027" lon="12.3026176"><ele>744.0</ele><time>2026-04-25T08:21:00.389Z</time></trkpt><trkpt lat="43.8254162" lon="12.3026212"><ele>744.0</ele><time>2026-04-25T08:21:01.389Z</time></trkpt><trkpt lat="43.825314" lon="12.3025765"><ele>744.0</ele><time>2026-04-25T08:21:02.389Z</time></trkpt><trkpt lat="43.8251942" lon="12.3024896"><ele>744.0</ele><time>2026-04-25T08:21:03.39Z</time></trkpt><trkpt lat="43.825069" lon="12.3023844"><ele>744.0</ele><time>2026-04-25T08:21:04.39Z</time></trkpt><trkpt lat="43.8249492" lon="12.3022598"><ele>744.0</ele><time>2026-04-25T08:21:05.39Z</time></trkpt><trkpt lat="43.8248479" lon="12.3021267"><ele>743.25</ele><time>2026-04-25T08:21:06.39Z</time></trkpt><trkpt lat="43.8247739" lon="12.3019898"><ele>742.5</ele><time>2026-04-25T08:21:07.39Z</time></trkpt><trkpt lat="43.824739" lon="12.3018409"><ele>741.75</ele><time>2026-04-25T08:21:08.39Z</time></trkpt><trkpt lat="43.8247372" lon="12.3016671"><ele>741.0</ele><time>2026-04-25T08:21:09.389Z</time></trkpt><trkpt lat="43.8247445" lon="12.3014843"><ele>741.5</ele><time>2026-04-25T08:21:10.389Z</time></trkpt><trkpt lat="43.8247359" lon="12.3012913"><ele>742.0</ele><time>2026-04-25T08:21:11.389Z</time></trkpt><trkpt lat="43.8246973" lon="12.3011019"><ele>742.5</ele><time>2026-04-25T08:21:12.39Z</time></trkpt><trkpt lat="43.824634" lon="12.3009315"><ele>743.0</ele><time>2026-04-25T08:21:13.389Z</time></trkpt><trkpt lat="43.8245586" lon="12.3007876"><ele>743.0</ele><time>2026-04-25T08:21:14.39Z</time></trkpt><trkpt lat="43.8244806" lon="12.3006939"><ele>743.0</ele><time>2026-04-25T08:21:15.389Z</time></trkpt><trkpt lat="43.8244073" lon="12.3006354"><ele>743.0</ele><time>2026-04-25T08:21:16.39Z</time></trkpt><trkpt lat="43.824353" lon="12.3005802"><ele>743.0</ele><time>2026-04-25T08:21:17.39Z</time></trkpt><trkpt lat="43.824313" lon="12.3004348"><ele>743.0</ele><time>2026-04-25T08:21:19.389Z</time></trkpt><trkpt lat="43.8243384" lon="12.3003259"><ele>743.25</ele><time>2026-04-25T08:21:20.39Z</time></trkpt><trkpt lat="43.8243917" lon="12.3001816"><ele>743.5</ele><time>2026-04-25T08:21:21.389Z</time></trkpt><trkpt lat="43.8244528" lon="12.3000154"><ele>743.75</ele><time>2026-04-25T08:21:22.389Z</time></trkpt><trkpt lat="43.8244917" lon="12.2998549"><ele>744.0</ele><time>2026-04-25T08:21:23.39Z</time></trkpt><trkpt lat="43.8245088" lon="12.2997235"><ele>744.0</ele><time>2026-04-25T08:21:24.39Z</time></trkpt><trkpt lat="43.8245336" lon="12.2996062"><ele>744.0</ele><time>2026-04-25T08:21:25.39Z</time></trkpt><trkpt lat="43.8245829" lon="12.2995009"><ele>744.0</ele><time>2026-04-25T08:21:26.389Z</time></trkpt><trkpt lat="43.8246374" lon="12.2994217"><ele>744.0</ele><time>2026-04-25T08:21:27.389Z</time></trkpt><trkpt lat="43.8246929" lon="12.2993069"><ele>744.0</ele><time>2026-04-25T08:21:29.39Z</time></trkpt><trkpt lat="43.824682" lon="12.2992207"><ele>744.0</ele><time>2026-04-25T08:21:31.39Z</time></trkpt><trkpt lat="43.824585" lon="12.29914"><ele>744.0</ele><time>2026-04-25T08:21:33.39Z</time></trkpt><trkpt lat="43.8245083" lon="12.2991017"><ele>744.0</ele><time>2026-04-25T08:21:35.389Z</time></trkpt><trkpt lat="43.824445" lon="12.299065"><ele>744.0</ele><time>2026-04-25T08:21:37.39Z</time></trkpt><trkpt lat="43.8243767" lon="12.2990433"><ele>744.0</ele><time>2026-04-25T08:21:39.39Z</time></trkpt><trkpt lat="43.8242983" lon="12.2990017"><ele>744.0</ele><time>2026-04-25T08:21:42.389Z</time></trkpt><trkpt lat="43.8241983" lon="12.2989617"><ele>744.0</ele><time>2026-04-25T08:21:44.39Z</time></trkpt><trkpt lat="43.8241233" lon="12.2989533"><ele>745.0</ele><time>2026-04-25T08:21:45.389Z</time></trkpt><trkpt lat="43.82405" lon="12.2989517"><ele>746.0</ele><time>2026-04-25T08:21:46.39Z</time></trkpt><trkpt lat="43.8239633" lon="12.2989767"><ele>747.0</ele><time>2026-04-25T08:21:47.39Z</time></trkpt><trkpt lat="43.8238767" lon="12.2990117"><ele>748.0</ele><time>2026-04-25T08:21:48.389Z</time></trkpt><trkpt lat="43.8237833" lon="12.29905"><ele>749.0</ele><time>2026-04-25T08:21:49.389Z</time></trkpt><trkpt lat="43.823685" lon="12.2990917"><ele>749.0</ele><time>2026-04-25T08:21:50.389Z</time></trkpt><trkpt lat="43.8235767" lon="12.2991333"><ele>749.0</ele><time>2026-04-25T08:21:51.39Z</time></trkpt><trkpt lat="43.8234617" lon="12.2991667"><ele>749.0</ele><time>2026-04-25T08:21:52.389Z</time></trkpt><trkpt lat="43.8233583" lon="12.2991917"><ele>749.0</ele><time>2026-04-25T08:21:53.389Z</time></trkpt><trkpt lat="43.82326" lon="12.2992183"><ele>749.0</ele><time>2026-04-25T08:21:54.389Z</time></trkpt><trkpt lat="43.82315" lon="12.299265"><ele>748.6</ele><time>2026-04-25T08:21:55.39Z</time></trkpt><trkpt lat="43.82304" lon="12.2993233"><ele>748.2</ele><time>2026-04-25T08:21:56.39Z</time></trkpt><trkpt lat="43.8229383" lon="12.2993667"><ele>747.8000000000001</ele><time>2026-04-25T08:21:57.39Z</time></trkpt><trkpt lat="43.8228367" lon="12.299415"><ele>747.4000000000001</ele><time>2026-04-25T08:21:58.39Z</time></trkpt><trkpt lat="43.822745" lon="12.2994567"><ele>747.0</ele><time>2026-04-25T08:21:59.39Z</time></trkpt><trkpt lat="43.822655" lon="12.2995017"><ele>746.0</ele><time>2026-04-25T08:22:00.389Z</time></trkpt><trkpt lat="43.8225617" lon="12.2995433"><ele>745.0</ele><time>2026-04-25T08:22:01.39Z</time></trkpt><trkpt lat="43.8224683" lon="12.2995883"><ele>744.0</ele><time>2026-04-25T08:22:02.39Z</time></trkpt><trkpt lat="43.8223783" lon="12.299635"><ele>743.0</ele><time>2026-04-25T08:22:03.39Z</time></trkpt><trkpt lat="43.8222767" lon="12.2996767"><ele>742.0</ele><time>2026-04-25T08:22:04.39Z</time></trkpt><trkpt lat="43.822185" lon="12.29971"><ele>742.0</ele><time>2026-04-25T08:22:05.389Z</time></trkpt><trkpt lat="43.822095" lon="12.2997367"><ele>742.0</ele><time>2026-04-25T08:22:06.39Z</time></trkpt><trkpt lat="43.8220117" lon="12.2997617"><ele>742.0</ele><time>2026-04-25T08:22:07.389Z</time></trkpt><trkpt lat="43.8219333" lon="12.2997917"><ele>742.0</ele><time>2026-04-25T08:22:08.389Z</time></trkpt><trkpt lat="43.8218517" lon="12.2998183"><ele>742.0</ele><time>2026-04-25T08:22:09.39Z</time></trkpt><trkpt lat="43.82177" lon="12.29985"><ele>742.0</ele><time>2026-04-25T08:22:10.39Z</time></trkpt><trkpt lat="43.82168" lon="12.299885"><ele>742.0</ele><time>2026-04-25T08:22:11.39Z</time></trkpt><trkpt lat="43.8215883" lon="12.29992"><ele>742.0</ele><time>2026-04-25T08:22:12.39Z</time></trkpt><trkpt lat="43.8214967" lon="12.2999483"><ele>742.0</ele><time>2026-04-25T08:22:13.39Z</time></trkpt><trkpt lat="43.8214133" lon="12.299975"><ele>742.0</ele><time>2026-04-25T08:22:14.39Z</time></trkpt><trkpt lat="43.8213317" lon="12.29999"><ele>742.0</ele><time>2026-04-25T08:22:15.39Z</time></trkpt><trkpt lat="43.8212483" lon="12.300005"><ele>742.0</ele><time>2026-04-25T08:22:16.39Z</time></trkpt><trkpt lat="43.8211667" lon="12.3000383"><ele>742.0</ele><time>2026-04-25T08:22:17.39Z</time></trkpt><trkpt lat="43.8210933" lon="12.30006"><ele>742.0</ele><time>2026-04-25T08:22:18.39Z</time></trkpt><trkpt lat="43.8210217" lon="12.3000733"><ele>742.0</ele><time>2026-04-25T08:22:19.39Z</time></trkpt><trkpt lat="43.820945" lon="12.300085"><ele>742.0</ele><time>2026-04-25T08:22:20.39Z</time></trkpt><trkpt lat="43.8208733" lon="12.300085"><ele>742.0</ele><time>2026-04-25T08:22:21.39Z</time></trkpt><trkpt lat="43.8207983" lon="12.3000883"><ele>742.0</ele><time>2026-04-25T08:22:22.39Z</time></trkpt><trkpt lat="43.8207267" lon="12.30009"><ele>742.0</ele><time>2026-04-25T08:22:23.389Z</time></trkpt><trkpt lat="43.8206433" lon="12.3000917"><ele>740.8</ele><time>2026-04-25T08:22:24.389Z</time></trkpt><trkpt lat="43.8205517" lon="12.3001033"><ele>739.6</ele><time>2026-04-25T08:22:25.389Z</time></trkpt><trkpt lat="43.8204633" lon="12.3001167"><ele>738.4</ele><time>2026-04-25T08:22:26.389Z</time></trkpt><trkpt lat="43.8203717" lon="12.3001367"><ele>737.1999999999999</ele><time>2026-04-25T08:22:27.39Z</time></trkpt><trkpt lat="43.8202683" lon="12.3001633"><ele>736.0</ele><time>2026-04-25T08:22:28.39Z</time></trkpt><trkpt lat="43.820165" lon="12.3001783"><ele>735.0</ele><time>2026-04-25T08:22:29.39Z</time></trkpt><trkpt lat="43.82006" lon="12.3001967"><ele>734.0</ele><time>2026-04-25T08:22:30.39Z</time></trkpt><trkpt lat="43.8199617" lon="12.3002"><ele>733.0</ele><time>2026-04-25T08:22:31.39Z</time></trkpt><trkpt lat="43.819855" lon="12.3002017"><ele>732.0</ele><time>2026-04-25T08:22:32.39Z</time></trkpt><trkpt lat="43.8197517" lon="12.3001983"><ele>731.0</ele><time>2026-04-25T08:22:33.39Z</time></trkpt><trkpt lat="43.8196583" lon="12.3001867"><ele>731.0</ele><time>2026-04-25T08:22:34.389Z</time></trkpt><trkpt lat="43.81957" lon="12.30018"><ele>731.0</ele><time>2026-04-25T08:22:35.39Z</time></trkpt><trkpt lat="43.8194883" lon="12.3001867"><ele>731.0</ele><time>2026-04-25T08:22:36.389Z</time></trkpt><trkpt lat="43.8194083" lon="12.3002"><ele>731.0</ele><time>2026-04-25T08:22:37.389Z</time></trkpt><trkpt lat="43.81932" lon="12.3002067"><ele>731.0</ele><time>2026-04-25T08:22:38.39Z</time></trkpt><trkpt lat="43.8192383" lon="12.3002167"><ele>731.0</ele><time>2026-04-25T08:22:39.39Z</time></trkpt><trkpt lat="43.8191567" lon="12.30023"><ele>730.1666666666666</ele><time>2026-04-25T08:22:40.39Z</time></trkpt><trkpt lat="43.8190833" lon="12.3002433"><ele>729.3333333333333</ele><time>2026-04-25T08:22:41.389Z</time></trkpt><trkpt lat="43.8189717" lon="12.3003217"><ele>728.5</ele><time>2026-04-25T08:22:43.39Z</time></trkpt><trkpt lat="43.818915" lon="12.3003867"><ele>727.6666666666666</ele><time>2026-04-25T08:22:44.39Z</time></trkpt><trkpt lat="43.818855" lon="12.3004467"><ele>726.8333333333334</ele><time>2026-04-25T08:22:45.389Z</time></trkpt><trkpt lat="43.8187933" lon="12.3005033"><ele>726.0</ele><time>2026-04-25T08:22:46.39Z</time></trkpt><trkpt lat="43.81873" lon="12.3005617"><ele>726.8</ele><time>2026-04-25T08:22:47.39Z</time></trkpt><trkpt lat="43.818675" lon="12.3006217"><ele>727.5999999999999</ele><time>2026-04-25T08:22:48.39Z</time></trkpt><trkpt lat="43.8186267" lon="12.3006867"><ele>728.4</ele><time>2026-04-25T08:22:49.39Z</time></trkpt><trkpt lat="43.81851" lon="12.3007583"><ele>729.2</ele><time>2026-04-25T08:22:51.389Z</time></trkpt><trkpt lat="43.81842" lon="12.3007667"><ele>730.0</ele><time>2026-04-25T08:22:52.39Z</time></trkpt><trkpt lat="43.8183133" lon="12.3007717"><ele>730.0</ele><time>2026-04-25T08:22:53.39Z</time></trkpt><trkpt lat="43.8182083" lon="12.30078"><ele>730.0</ele><time>2026-04-25T08:22:54.389Z</time></trkpt><trkpt lat="43.8180933" lon="12.3007867"><ele>730.0</ele><time>2026-04-25T08:22:55.39Z</time></trkpt><trkpt lat="43.8179917" lon="12.300795"><ele>730.0</ele><time>2026-04-25T08:22:56.39Z</time></trkpt><trkpt lat="43.8179" lon="12.3008017"><ele>730.0</ele><time>2026-04-25T08:22:57.389Z</time></trkpt><trkpt lat="43.8178117" lon="12.3007933"><ele>730.0</ele><time>2026-04-25T08:22:58.39Z</time></trkpt><trkpt lat="43.8177317" lon="12.3007633"><ele>730.0</ele><time>2026-04-25T08:22:59.389Z</time></trkpt><trkpt lat="43.8176583" lon="12.300705"><ele>730.0</ele><time>2026-04-25T08:23:00.39Z</time></trkpt><trkpt lat="43.8175917" lon="12.300655"><ele>730.0</ele><time>2026-04-25T08:23:01.39Z</time></trkpt><trkpt lat="43.8175283" lon="12.30062"><ele>730.0</ele><time>2026-04-25T08:23:02.389Z</time></trkpt><trkpt lat="43.8174583" lon="12.300585"><ele>730.0</ele><time>2026-04-25T08:23:03.39Z</time></trkpt><trkpt lat="43.8173883" lon="12.3005567"><ele>728.2857142857143</ele><time>2026-04-25T08:23:04.39Z</time></trkpt><trkpt lat="43.8173217" lon="12.30055"><ele>726.5714285714286</ele><time>2026-04-25T08:23:05.39Z</time></trkpt><trkpt lat="43.8172533" lon="12.3005417"><ele>724.8571428571429</ele><time>2026-04-25T08:23:06.39Z</time></trkpt><trkpt lat="43.8171867" lon="12.300525"><ele>723.1428571428571</ele><time>2026-04-25T08:23:07.389Z</time></trkpt><trkpt lat="43.8171233" lon="12.3004933"><ele>721.4285714285714</ele><time>2026-04-25T08:23:08.389Z</time></trkpt><trkpt lat="43.8170517" lon="12.3004517"><ele>719.7142857142858</ele><time>2026-04-25T08:23:09.39Z</time></trkpt><trkpt lat="43.8169783" lon="12.3003883"><ele>718.0</ele><time>2026-04-25T08:23:10.39Z</time></trkpt><trkpt lat="43.8169033" lon="12.30032"><ele>718.0</ele><time>2026-04-25T08:23:11.39Z</time></trkpt><trkpt lat="43.81682" lon="12.30026"><ele>718.0</ele><time>2026-04-25T08:23:12.39Z</time></trkpt><trkpt lat="43.8167317" lon="12.300215"><ele>718.0</ele><time>2026-04-25T08:23:13.389Z</time></trkpt><trkpt lat="43.8166567" lon="12.300185"><ele>718.0</ele><time>2026-04-25T08:23:14.39Z</time></trkpt><trkpt lat="43.8165883" lon="12.3001683"><ele>718.0</ele><time>2026-04-25T08:23:15.39Z</time></trkpt><trkpt lat="43.8165233" lon="12.30016"><ele>718.0</ele><time>2026-04-25T08:23:16.39Z</time></trkpt><trkpt lat="43.81645" lon="12.3001833"><ele>718.3333333333334</ele><time>2026-04-25T08:23:17.389Z</time></trkpt><trkpt lat="43.8163817" lon="12.3002133"><ele>718.6666666666667</ele><time>2026-04-25T08:23:18.39Z</time></trkpt><trkpt lat="43.8163117" lon="12.3002367"><ele>719.0</ele><time>2026-04-25T08:23:19.39Z</time></trkpt><trkpt lat="43.8162467" lon="12.3002367"><ele>719.3333333333334</ele><time>2026-04-25T08:23:20.39Z</time></trkpt><trkpt lat="43.81613" lon="12.3002517"><ele>719.6666666666666</ele><time>2026-04-25T08:23:22.39Z</time></trkpt><trkpt lat="43.8160383" lon="12.3002633"><ele>720.0</ele><time>2026-04-25T08:23:24.389Z</time></trkpt><trkpt lat="43.8159633" lon="12.30018"><ele>720.4</ele><time>2026-04-25T08:23:26.39Z</time></trkpt><trkpt lat="43.815915" lon="12.3000267"><ele>720.8</ele><time>2026-04-25T08:23:28.389Z</time></trkpt><trkpt lat="43.8158883" lon="12.2999267"><ele>721.2</ele><time>2026-04-25T08:23:29.39Z</time></trkpt><trkpt lat="43.8158617" lon="12.29982"><ele>721.6</ele><time>2026-04-25T08:23:30.389Z</time></trkpt><trkpt lat="43.8158233" lon="12.2997133"><ele>722.0</ele><time>2026-04-25T08:23:31.39Z</time></trkpt><trkpt lat="43.8157767" lon="12.2995967"><ele>722.0</ele><time>2026-04-25T08:23:32.389Z</time></trkpt><trkpt lat="43.81573" lon="12.2995067"><ele>722.0</ele><time>2026-04-25T08:23:33.39Z</time></trkpt><trkpt lat="43.8156883" lon="12.299435"><ele>722.0</ele><time>2026-04-25T08:23:34.39Z</time></trkpt><trkpt lat="43.8156383" lon="12.2993733"><ele>722.0</ele><time>2026-04-25T08:23:35.389Z</time></trkpt><trkpt lat="43.8155717" lon="12.2993283"><ele>722.0</ele><time>2026-04-25T08:23:36.39Z</time></trkpt><trkpt lat="43.815485" lon="12.2992967"><ele>722.0</ele><time>2026-04-25T08:23:37.389Z</time></trkpt><trkpt lat="43.815395" lon="12.299265"><ele>722.0</ele><time>2026-04-25T08:23:38.389Z</time></trkpt><trkpt lat="43.8153067" lon="12.2992267"><ele>722.0</ele><time>2026-04-25T08:23:39.39Z</time></trkpt><trkpt lat="43.815215" lon="12.29919"><ele>722.0</ele><time>2026-04-25T08:23:40.39Z</time></trkpt><trkpt lat="43.8151217" lon="12.2991483"><ele>722.0</ele><time>2026-04-25T08:23:41.39Z</time></trkpt><trkpt lat="43.8150233" lon="12.2991083"><ele>722.0</ele><time>2026-04-25T08:23:42.39Z</time></trkpt><trkpt lat="43.8149217" lon="12.2990783"><ele>722.4000000000001</ele><time>2026-04-25T08:23:43.39Z</time></trkpt><trkpt lat="43.8148133" lon="12.2990267"><ele>722.8000000000001</ele><time>2026-04-25T08:23:44.389Z</time></trkpt><trkpt lat="43.814715" lon="12.2989667"><ele>723.2</ele><time>2026-04-25T08:23:45.39Z</time></trkpt><trkpt lat="43.81462" lon="12.2988867"><ele>723.6</ele><time>2026-04-25T08:23:46.39Z</time></trkpt><trkpt lat="43.8145467" lon="12.2987917"><ele>724.0</ele><time>2026-04-25T08:23:47.39Z</time></trkpt><trkpt lat="43.814475" lon="12.2986917"><ele>724.0</ele><time>2026-04-25T08:23:48.39Z</time></trkpt><trkpt lat="43.8144217" lon="12.2985883"><ele>724.0</ele><time>2026-04-25T08:23:49.39Z</time></trkpt><trkpt lat="43.814365" lon="12.2984883"><ele>724.0</ele><time>2026-04-25T08:23:50.39Z</time></trkpt><trkpt lat="43.81431" lon="12.2983983"><ele>724.0</ele><time>2026-04-25T08:23:51.39Z</time></trkpt><trkpt lat="43.8142667" lon="12.2983167"><ele>724.0</ele><time>2026-04-25T08:23:52.389Z</time></trkpt><trkpt lat="43.81421" lon="12.298165"><ele>726.4000000000001</ele><time>2026-04-25T08:23:54.39Z</time></trkpt><trkpt lat="43.81416" lon="12.2980233"><ele>728.8</ele><time>2026-04-25T08:23:56.39Z</time></trkpt><trkpt lat="43.814075" lon="12.2978733"><ele>731.2</ele><time>2026-04-25T08:23:58.39Z</time></trkpt><trkpt lat="43.8140133" lon="12.29779"><ele>733.5999999999999</ele><time>2026-04-25T08:23:59.389Z</time></trkpt><trkpt lat="43.8139317" lon="12.2977217"><ele>736.0</ele><time>2026-04-25T08:24:00.389Z</time></trkpt><trkpt lat="43.813845" lon="12.2976483"><ele>736.0</ele><time>2026-04-25T08:24:01.39Z</time></trkpt><trkpt lat="43.8137583" lon="12.2976"><ele>736.0</ele><time>2026-04-25T08:24:02.39Z</time></trkpt><trkpt lat="43.8136833" lon="12.29754"><ele>736.0</ele><time>2026-04-25T08:24:03.39Z</time></trkpt><trkpt lat="43.8136267" lon="12.2974867"><ele>736.0</ele><time>2026-04-25T08:24:04.39Z</time></trkpt><trkpt lat="43.813535" lon="12.2974183"><ele>736.0</ele><time>2026-04-25T08:24:06.39Z</time></trkpt><trkpt lat="43.8134583" lon="12.29737"><ele>736.0</ele><time>2026-04-25T08:24:08.389Z</time></trkpt><trkpt lat="43.813435" lon="12.297275"><ele>736.8</ele><time>2026-04-25T08:24:10.389Z</time></trkpt><trkpt lat="43.813455" lon="12.2971483"><ele>737.5999999999999</ele><time>2026-04-25T08:24:12.389Z</time></trkpt><trkpt lat="43.8134633" lon="12.2970617"><ele>738.4</ele><time>2026-04-25T08:24:13.39Z</time></trkpt><trkpt lat="43.8134467" lon="12.2968933"><ele>739.2</ele><time>2026-04-25T08:24:15.389Z</time></trkpt><trkpt lat="43.8133967" lon="12.2967433"><ele>740.0</ele><time>2026-04-25T08:24:17.39Z</time></trkpt><trkpt lat="43.8133583" lon="12.2966733"><ele>740.0</ele><time>2026-04-25T08:24:18.39Z</time></trkpt><trkpt lat="43.8132967" lon="12.2966117"><ele>740.0</ele><time>2026-04-25T08:24:19.39Z</time></trkpt><trkpt lat="43.8132233" lon="12.2965483"><ele>740.0</ele><time>2026-04-25T08:24:20.389Z</time></trkpt><trkpt lat="43.81316" lon="12.296485"><ele>740.0</ele><time>2026-04-25T08:24:21.39Z</time></trkpt><trkpt lat="43.813075" lon="12.2963633"><ele>740.0</ele><time>2026-04-25T08:24:23.389Z</time></trkpt><trkpt lat="43.8130467" lon="12.296215"><ele>738.2</ele><time>2026-04-25T08:24:25.39Z</time></trkpt><trkpt lat="43.81303" lon="12.296105"><ele>736.4</ele><time>2026-04-25T08:24:27.389Z</time></trkpt><trkpt lat="43.8129717" lon="12.2960317"><ele>734.5999999999999</ele><time>2026-04-25T08:24:29.39Z</time></trkpt><trkpt lat="43.8128833" lon="12.2959483"><ele>732.8</ele><time>2026-04-25T08:24:31.39Z</time></trkpt><trkpt lat="43.81281" lon="12.295805"><ele>731.0</ele><time>2026-04-25T08:24:33.389Z</time></trkpt><trkpt lat="43.81277" lon="12.2957117"><ele>731.0</ele><time>2026-04-25T08:24:34.389Z</time></trkpt><trkpt lat="43.8127317" lon="12.29561"><ele>731.0</ele><time>2026-04-25T08:24:35.39Z</time></trkpt><trkpt lat="43.812695" lon="12.2955217"><ele>731.0</ele><time>2026-04-25T08:24:36.39Z</time></trkpt><trkpt lat="43.812665" lon="12.2954317"><ele>731.0</ele><time>2026-04-25T08:24:37.39Z</time></trkpt><trkpt lat="43.8126267" lon="12.2953333"><ele>731.0</ele><time>2026-04-25T08:24:38.39Z</time></trkpt><trkpt lat="43.8125883" lon="12.2952383"><ele>731.0</ele><time>2026-04-25T08:24:39.39Z</time></trkpt><trkpt lat="43.8125083" lon="12.2951183"><ele>730.8333333333333</ele><time>2026-04-25T08:24:41.389Z</time></trkpt><trkpt lat="43.8124617" lon="12.2950567"><ele>730.6666666666666</ele><time>2026-04-25T08:24:42.39Z</time></trkpt><trkpt lat="43.8124033" lon="12.2949867"><ele>730.5</ele><time>2026-04-25T08:24:43.39Z</time></trkpt><trkpt lat="43.81235" lon="12.2949033"><ele>730.3333333333334</ele><time>2026-04-25T08:24:44.39Z</time></trkpt><trkpt lat="43.812295" lon="12.2947933"><ele>730.1666666666667</ele><time>2026-04-25T08:24:45.39Z</time></trkpt><trkpt lat="43.8122367" lon="12.2946783"><ele>730.0</ele><time>2026-04-25T08:24:46.389Z</time></trkpt><trkpt lat="43.812175" lon="12.29457"><ele>728.5</ele><time>2026-04-25T08:24:47.39Z</time></trkpt><trkpt lat="43.8121217" lon="12.2944667"><ele>727.0</ele><time>2026-04-25T08:24:48.39Z</time></trkpt><trkpt lat="43.8120833" lon="12.2943533"><ele>725.5</ele><time>2026-04-25T08:24:49.39Z</time></trkpt><trkpt lat="43.8120483" lon="12.294245"><ele>724.0</ele><time>2026-04-25T08:24:50.39Z</time></trkpt><trkpt lat="43.8120217" lon="12.294165"><ele>722.5</ele><time>2026-04-25T08:24:51.389Z</time></trkpt><trkpt lat="43.8119533" lon="12.2940767"><ele>721.0</ele><time>2026-04-25T08:24:53.39Z</time></trkpt><trkpt lat="43.8118683" lon="12.2940767"><ele>724.0</ele><time>2026-04-25T08:24:55.39Z</time></trkpt><trkpt lat="43.8117417" lon="12.2941083"><ele>727.0</ele><time>2026-04-25T08:24:57.389Z</time></trkpt><trkpt lat="43.8116567" lon="12.2941217"><ele>730.0</ele><time>2026-04-25T08:24:58.39Z</time></trkpt><trkpt lat="43.811585" lon="12.2941517"><ele>733.0</ele><time>2026-04-25T08:24:59.39Z</time></trkpt><trkpt lat="43.8114767" lon="12.2941567"><ele>736.0</ele><time>2026-04-25T08:25:01.39Z</time></trkpt><trkpt lat="43.8114133" lon="12.29406"><ele>736.0</ele><time>2026-04-25T08:25:03.39Z</time></trkpt><trkpt lat="43.811375" lon="12.2939567"><ele>736.0</ele><time>2026-04-25T08:25:04.39Z</time></trkpt><trkpt lat="43.811345" lon="12.293845"><ele>736.0</ele><time>2026-04-25T08:25:05.39Z</time></trkpt><trkpt lat="43.8113267" lon="12.29373"><ele>736.0</ele><time>2026-04-25T08:25:06.389Z</time></trkpt><trkpt lat="43.8113083" lon="12.29363"><ele>736.0</ele><time>2026-04-25T08:25:07.389Z</time></trkpt><trkpt lat="43.8112283" lon="12.2934883"><ele>735.5</ele><time>2026-04-25T08:25:09.39Z</time></trkpt><trkpt lat="43.811165" lon="12.293425"><ele>735.0</ele><time>2026-04-25T08:25:10.39Z</time></trkpt><trkpt lat="43.81109" lon="12.293365"><ele>734.5</ele><time>2026-04-25T08:25:11.389Z</time></trkpt><trkpt lat="43.81101" lon="12.2933133"><ele>734.0</ele><time>2026-04-25T08:25:12.389Z</time></trkpt><trkpt lat="43.810955" lon="12.2932633"><ele>733.5</ele><time>2026-04-25T08:25:13.39Z</time></trkpt><trkpt lat="43.810905" lon="12.29315"><ele>733.0</ele><time>2026-04-25T08:25:15.39Z</time></trkpt><trkpt lat="43.8109367" lon="12.29302"><ele>733.0</ele><time>2026-04-25T08:25:17.39Z</time></trkpt><trkpt lat="43.8109567" lon="12.2929367"><ele>733.0</ele><time>2026-04-25T08:25:18.389Z</time></trkpt><trkpt lat="43.8109567" lon="12.2928417"><ele>733.0</ele><time>2026-04-25T08:25:19.389Z</time></trkpt><trkpt lat="43.810955" lon="12.292745"><ele>733.0</ele><time>2026-04-25T08:25:20.39Z</time></trkpt><trkpt lat="43.8109133" lon="12.2926267"><ele>733.0</ele><time>2026-04-25T08:25:21.389Z</time></trkpt><trkpt lat="43.8108583" lon="12.292515"><ele>733.0</ele><time>2026-04-25T08:25:22.39Z</time></trkpt><trkpt lat="43.81079" lon="12.2924017"><ele>732.9999999999999</ele><time>2026-04-25T08:25:23.39Z</time></trkpt><trkpt lat="43.8107383" lon="12.2923083"><ele>733.0</ele><time>2026-04-25T08:25:24.389Z</time></trkpt><trkpt lat="43.8107017" lon="12.2922167"><ele>733.0</ele><time>2026-04-25T08:25:25.389Z</time></trkpt><trkpt lat="43.8106867" lon="12.2921217"><ele>733.0</ele><time>2026-04-25T08:25:26.39Z</time></trkpt><trkpt lat="43.8106783" lon="12.292025"><ele>733.0</ele><time>2026-04-25T08:25:27.39Z</time></trkpt><trkpt lat="43.8106683" lon="12.2919317"><ele>732.9999999999999</ele><time>2026-04-25T08:25:28.389Z</time></trkpt><trkpt lat="43.81066" lon="12.29183"><ele>733.0</ele><time>2026-04-25T08:25:29.39Z</time></trkpt><trkpt lat="43.8106417" lon="12.2917333"><ele>732.1666666666667</ele><time>2026-04-25T08:25:30.389Z</time></trkpt><trkpt lat="43.8106" lon="12.29163"><ele>731.3333333333334</ele><time>2026-04-25T08:25:31.39Z</time></trkpt><trkpt lat="43.8105467" lon="12.2915267"><ele>730.5</ele><time>2026-04-25T08:25:32.39Z</time></trkpt><trkpt lat="43.8104933" lon="12.2914267"><ele>729.6666666666666</ele><time>2026-04-25T08:25:33.39Z</time></trkpt><trkpt lat="43.8104317" lon="12.2913467"><ele>728.8333333333333</ele><time>2026-04-25T08:25:34.39Z</time></trkpt><trkpt lat="43.8103667" lon="12.2912767"><ele>728.0</ele><time>2026-04-25T08:25:35.39Z</time></trkpt><trkpt lat="43.8103017" lon="12.2912133"><ele>728.3333333333333</ele><time>2026-04-25T08:25:36.39Z</time></trkpt><trkpt lat="43.810235" lon="12.2911567"><ele>728.6666666666666</ele><time>2026-04-25T08:25:37.389Z</time></trkpt><trkpt lat="43.8101667" lon="12.29111"><ele>729.0</ele><time>2026-04-25T08:25:38.389Z</time></trkpt><trkpt lat="43.8101017" lon="12.291085"><ele>729.3333333333334</ele><time>2026-04-25T08:25:39.389Z</time></trkpt><trkpt lat="43.8100367" lon="12.2910883"><ele>729.6666666666667</ele><time>2026-04-25T08:25:40.39Z</time></trkpt><trkpt lat="43.8099567" lon="12.2910967"><ele>730.0</ele><time>2026-04-25T08:25:41.39Z</time></trkpt><trkpt lat="43.8098683" lon="12.2910967"><ele>730.0</ele><time>2026-04-25T08:25:42.39Z</time></trkpt><trkpt lat="43.8097817" lon="12.2911033"><ele>730.0</ele><time>2026-04-25T08:25:43.389Z</time></trkpt><trkpt lat="43.8097033" lon="12.2910967"><ele>730.0</ele><time>2026-04-25T08:25:44.389Z</time></trkpt><trkpt lat="43.809635" lon="12.29109"><ele>730.0</ele><time>2026-04-25T08:25:45.39Z</time></trkpt><trkpt lat="43.80957" lon="12.2910567"><ele>730.0</ele><time>2026-04-25T08:25:46.39Z</time></trkpt><trkpt lat="43.8095117" lon="12.29099"><ele>730.0</ele><time>2026-04-25T08:25:47.39Z</time></trkpt><trkpt lat="43.809465" lon="12.290905"><ele>730.0</ele><time>2026-04-25T08:25:48.389Z</time></trkpt><trkpt lat="43.8094417" lon="12.290805"><ele>730.0</ele><time>2026-04-25T08:25:49.39Z</time></trkpt><trkpt lat="43.80944" lon="12.2906817"><ele>730.0</ele><time>2026-04-25T08:25:50.39Z</time></trkpt><trkpt lat="43.8094267" lon="12.29057"><ele>730.0</ele><time>2026-04-25T08:25:51.389Z</time></trkpt><trkpt lat="43.8094133" lon="12.290465"><ele>730.0</ele><time>2026-04-25T08:25:52.389Z</time></trkpt><trkpt lat="43.8093967" lon="12.2903433"><ele>730.0</ele><time>2026-04-25T08:25:53.389Z</time></trkpt><trkpt lat="43.809375" lon="12.2902433"><ele>730.8</ele><time>2026-04-25T08:25:54.39Z</time></trkpt><trkpt lat="43.8093267" lon="12.2901317"><ele>731.6</ele><time>2026-04-25T08:25:55.389Z</time></trkpt><trkpt lat="43.80928" lon="12.290015"><ele>732.4000000000001</ele><time>2026-04-25T08:25:56.39Z</time></trkpt><trkpt lat="43.8092383" lon="12.289905"><ele>733.2</ele><time>2026-04-25T08:25:57.39Z</time></trkpt><trkpt lat="43.8092033" lon="12.2898083"><ele>734.0</ele><time>2026-04-25T08:25:58.39Z</time></trkpt><trkpt lat="43.80915" lon="12.2896983"><ele>734.0</ele><time>2026-04-25T08:25:59.39Z</time></trkpt><trkpt lat="43.8091" lon="12.2895917"><ele>734.0</ele><time>2026-04-25T08:26:00.39Z</time></trkpt><trkpt lat="43.8090583" lon="12.2894967"><ele>734.0</ele><time>2026-04-25T08:26:01.389Z</time></trkpt><trkpt lat="43.8090233" lon="12.2894083"><ele>734.0</ele><time>2026-04-25T08:26:02.39Z</time></trkpt><trkpt lat="43.8089867" lon="12.289315"><ele>734.0</ele><time>2026-04-25T08:26:03.389Z</time></trkpt><trkpt lat="43.8089717" lon="12.2892183"><ele>734.0</ele><time>2026-04-25T08:26:04.39Z</time></trkpt><trkpt lat="43.8089467" lon="12.28912"><ele>734.0</ele><time>2026-04-25T08:26:05.389Z</time></trkpt><trkpt lat="43.8089317" lon="12.289025"><ele>734.0</ele><time>2026-04-25T08:26:06.389Z</time></trkpt><trkpt lat="43.808915" lon="12.2889317"><ele>734.0</ele><time>2026-04-25T08:26:07.39Z</time></trkpt><trkpt lat="43.8088967" lon="12.2888333"><ele>734.0</ele><time>2026-04-25T08:26:08.39Z</time></trkpt><trkpt lat="43.8088933" lon="12.28873"><ele>734.0</ele><time>2026-04-25T08:26:09.39Z</time></trkpt><trkpt lat="43.808895" lon="12.28857"><ele>734.0</ele><time>2026-04-25T08:26:11.389Z</time></trkpt><trkpt lat="43.8089217" lon="12.2884317"><ele>734.4000000000001</ele><time>2026-04-25T08:26:13.389Z</time></trkpt><trkpt lat="43.808995" lon="12.288285"><ele>734.8</ele><time>2026-04-25T08:26:15.39Z</time></trkpt><trkpt lat="43.809065" lon="12.2882017"><ele>735.2</ele><time>2026-04-25T08:26:16.39Z</time></trkpt><trkpt lat="43.8091433" lon="12.28811"><ele>735.5999999999999</ele><time>2026-04-25T08:26:17.39Z</time></trkpt><trkpt lat="43.8092133" lon="12.2880017"><ele>736.0</ele><time>2026-04-25T08:26:18.39Z</time></trkpt><trkpt lat="43.8092733" lon="12.28788"><ele>736.0</ele><time>2026-04-25T08:26:19.39Z</time></trkpt><trkpt lat="43.8093217" lon="12.2877367"><ele>736.0</ele><time>2026-04-25T08:26:20.389Z</time></trkpt><trkpt lat="43.809365" lon="12.2875817"><ele>736.0</ele><time>2026-04-25T08:26:21.389Z</time></trkpt><trkpt lat="43.8094117" lon="12.2874167"><ele>736.0</ele><time>2026-04-25T08:26:22.39Z</time></trkpt><trkpt lat="43.8094667" lon="12.2872583"><ele>737.4</ele><time>2026-04-25T08:26:23.39Z</time></trkpt><trkpt lat="43.80952" lon="12.287115"><ele>738.8</ele><time>2026-04-25T08:26:24.39Z</time></trkpt><trkpt lat="43.8095667" lon="12.2869983"><ele>740.1999999999999</ele><time>2026-04-25T08:26:25.389Z</time></trkpt><trkpt lat="43.809605" lon="12.28688"><ele>741.5999999999999</ele><time>2026-04-25T08:26:26.389Z</time></trkpt><trkpt lat="43.8096367" lon="12.2867583"><ele>743.0</ele><time>2026-04-25T08:26:27.39Z</time></trkpt><trkpt lat="43.8096583" lon="12.2866217"><ele>743.0</ele><time>2026-04-25T08:26:28.389Z</time></trkpt><trkpt lat="43.8096617" lon="12.2864833"><ele>743.0</ele><time>2026-04-25T08:26:29.39Z</time></trkpt><trkpt lat="43.80967" lon="12.2863367"><ele>743.0</ele><time>2026-04-25T08:26:30.39Z</time></trkpt><trkpt lat="43.8096917" lon="12.2861883"><ele>743.0</ele><time>2026-04-25T08:26:31.39Z</time></trkpt><trkpt lat="43.809725" lon="12.2860317"><ele>743.0</ele><time>2026-04-25T08:26:32.389Z</time></trkpt><trkpt lat="43.809775" lon="12.2858867"><ele>741.8</ele><time>2026-04-25T08:26:33.39Z</time></trkpt><trkpt lat="43.8098267" lon="12.2857517"><ele>740.5999999999999</ele><time>2026-04-25T08:26:34.389Z</time></trkpt><trkpt lat="43.8098733" lon="12.285615"><ele>739.4000000000001</ele><time>2026-04-25T08:26:35.389Z</time></trkpt><trkpt lat="43.80992" lon="12.2854867"><ele>738.2</ele><time>2026-04-25T08:26:36.39Z</time></trkpt><trkpt lat="43.8099717" lon="12.2853683"><ele>737.0</ele><time>2026-04-25T08:26:37.39Z</time></trkpt><trkpt lat="43.8100367" lon="12.2852617"><ele>735.25</ele><time>2026-04-25T08:26:38.39Z</time></trkpt><trkpt lat="43.8101233" lon="12.2851733"><ele>733.5</ele><time>2026-04-25T08:26:39.39Z</time></trkpt><trkpt lat="43.810225" lon="12.2850967"><ele>731.75</ele><time>2026-04-25T08:26:40.39Z</time></trkpt><trkpt lat="43.8103433" lon="12.285015"><ele>730.0</ele><time>2026-04-25T08:26:41.39Z</time></trkpt><trkpt lat="43.8104617" lon="12.284935"><ele>730.0</ele><time>2026-04-25T08:26:42.389Z</time></trkpt><trkpt lat="43.8105733" lon="12.28487"><ele>730.0</ele><time>2026-04-25T08:26:43.39Z</time></trkpt><trkpt lat="43.8106867" lon="12.2847867"><ele>730.0</ele><time>2026-04-25T08:26:44.39Z</time></trkpt><trkpt lat="43.8108017" lon="12.2846733"><ele>730.0</ele><time>2026-04-25T08:26:45.389Z</time></trkpt><trkpt lat="43.81091" lon="12.2845633"><ele>727.5</ele><time>2026-04-25T08:26:46.389Z</time></trkpt><trkpt lat="43.811015" lon="12.2844267"><ele>725.0</ele><time>2026-04-25T08:26:47.389Z</time></trkpt><trkpt lat="43.811115" lon="12.2843033"><ele>722.5</ele><time>2026-04-25T08:26:48.39Z</time></trkpt><trkpt lat="43.8112133" lon="12.2842"><ele>720.0</ele><time>2026-04-25T08:26:49.39Z</time></trkpt><trkpt lat="43.8113017" lon="12.2840933"><ele>720.0</ele><time>2026-04-25T08:26:50.389Z</time></trkpt><trkpt lat="43.81139" lon="12.283965"><ele>720.0</ele><time>2026-04-25T08:26:51.389Z</time></trkpt><trkpt lat="43.81147" lon="12.2838083"><ele>720.0</ele><time>2026-04-25T08:26:52.39Z</time></trkpt><trkpt lat="43.8115517" lon="12.283645"><ele>720.0</ele><time>2026-04-25T08:26:53.389Z</time></trkpt><trkpt lat="43.8116217" lon="12.2834933"><ele>718.25</ele><time>2026-04-25T08:26:54.389Z</time></trkpt><trkpt lat="43.8116867" lon="12.2833367"><ele>716.5</ele><time>2026-04-25T08:26:55.39Z</time></trkpt><trkpt lat="43.8117433" lon="12.2831867"><ele>714.75</ele><time>2026-04-25T08:26:56.389Z</time></trkpt><trkpt lat="43.81179" lon="12.2830333"><ele>713.0</ele><time>2026-04-25T08:26:57.39Z</time></trkpt><trkpt lat="43.8118267" lon="12.2828683"><ele>713.0</ele><time>2026-04-25T08:26:58.389Z</time></trkpt><trkpt lat="43.811865" lon="12.2827167"><ele>713.0</ele><time>2026-04-25T08:26:59.39Z</time></trkpt><trkpt lat="43.8119033" lon="12.2825733"><ele>713.0</ele><time>2026-04-25T08:27:00.39Z</time></trkpt><trkpt lat="43.8119717" lon="12.2824517"><ele>713.0</ele><time>2026-04-25T08:27:01.39Z</time></trkpt><trkpt lat="43.8120667" lon="12.2823467"><ele>705.5</ele><time>2026-04-25T08:27:02.39Z</time></trkpt><trkpt lat="43.8121733" lon="12.2822517"><ele>698.0</ele><time>2026-04-25T08:27:03.389Z</time></trkpt><trkpt lat="43.8123017" lon="12.2821783"><ele>690.5</ele><time>2026-04-25T08:27:04.39Z</time></trkpt><trkpt lat="43.8124183" lon="12.2821183"><ele>683.0</ele><time>2026-04-25T08:27:05.39Z</time></trkpt><trkpt lat="43.8125367" lon="12.2820583"><ele>683.0</ele><time>2026-04-25T08:27:06.389Z</time></trkpt><trkpt lat="43.81264" lon="12.2819717"><ele>683.0</ele><time>2026-04-25T08:27:07.39Z</time></trkpt><trkpt lat="43.8127417" lon="12.2818783"><ele>683.0</ele><time>2026-04-25T08:27:08.39Z</time></trkpt><trkpt lat="43.8128417" lon="12.2817817"><ele>683.0</ele><time>2026-04-25T08:27:09.39Z</time></trkpt><trkpt lat="43.8129333" lon="12.2816783"><ele>686.75</ele><time>2026-04-25T08:27:10.39Z</time></trkpt><trkpt lat="43.8130333" lon="12.2816133"><ele>690.5</ele><time>2026-04-25T08:27:11.389Z</time></trkpt><trkpt lat="43.8131483" lon="12.2815883"><ele>694.25</ele><time>2026-04-25T08:27:12.39Z</time></trkpt><trkpt lat="43.8132683" lon="12.281565"><ele>698.0</ele><time>2026-04-25T08:27:13.389Z</time></trkpt><trkpt lat="43.8133983" lon="12.2815333"><ele>697.5</ele><time>2026-04-25T08:27:14.389Z</time></trkpt><trkpt lat="43.8135317" lon="12.281495"><ele>697.0</ele><time>2026-04-25T08:27:15.389Z</time></trkpt><trkpt lat="43.81366" lon="12.2814417"><ele>696.5</ele><time>2026-04-25T08:27:16.39Z</time></trkpt><trkpt lat="43.8137833" lon="12.28137"><ele>696.0</ele><time>2026-04-25T08:27:17.389Z</time></trkpt><trkpt lat="43.813905" lon="12.2813017"><ele>689.5</ele><time>2026-04-25T08:27:18.389Z</time></trkpt><trkpt lat="43.814025" lon="12.281255"><ele>683.0</ele><time>2026-04-25T08:27:19.39Z</time></trkpt><trkpt lat="43.8141367" lon="12.2812"><ele>676.5</ele><time>2026-04-25T08:27:20.39Z</time></trkpt><trkpt lat="43.8142383" lon="12.2811517"><ele>670.0</ele><time>2026-04-25T08:27:21.39Z</time></trkpt><trkpt lat="43.814335" lon="12.2811033"><ele>669.4</ele><time>2026-04-25T08:27:22.39Z</time></trkpt><trkpt lat="43.8144367" lon="12.2810533"><ele>668.8</ele><time>2026-04-25T08:27:23.39Z</time></trkpt><trkpt lat="43.8145317" lon="12.2810133"><ele>668.2</ele><time>2026-04-25T08:27:24.389Z</time></trkpt><trkpt lat="43.8146283" lon="12.2809917"><ele>667.6</ele><time>2026-04-25T08:27:25.39Z</time></trkpt><trkpt lat="43.8147083" lon="12.2810067"><ele>667.0</ele><time>2026-04-25T08:27:26.39Z</time></trkpt><trkpt lat="43.814785" lon="12.2810583"><ele>667.0</ele><time>2026-04-25T08:27:27.389Z</time></trkpt><trkpt lat="43.814855" lon="12.2811633"><ele>667.0</ele><time>2026-04-25T08:27:28.389Z</time></trkpt><trkpt lat="43.8148767" lon="12.2813167"><ele>667.0</ele><time>2026-04-25T08:27:29.39Z</time></trkpt><trkpt lat="43.8148833" lon="12.281455"><ele>667.0</ele><time>2026-04-25T08:27:30.39Z</time></trkpt><trkpt lat="43.8149" lon="12.281555"><ele>667.0</ele><time>2026-04-25T08:27:31.39Z</time></trkpt><trkpt lat="43.8149317" lon="12.2816367"><ele>667.0</ele><time>2026-04-25T08:27:32.39Z</time></trkpt><trkpt lat="43.8150067" lon="12.28173"><ele>667.0</ele><time>2026-04-25T08:27:34.389Z</time></trkpt><trkpt lat="43.8150633" lon="12.2816733"><ele>667.0</ele><time>2026-04-25T08:27:35.39Z</time></trkpt><trkpt lat="43.8151083" lon="12.2815633"><ele>667.0</ele><time>2026-04-25T08:27:36.389Z</time></trkpt><trkpt lat="43.8151183" lon="12.2814067"><ele>667.0</ele><time>2026-04-25T08:27:37.39Z</time></trkpt><trkpt lat="43.815125" lon="12.2812367"><ele>667.0</ele><time>2026-04-25T08:27:38.39Z</time></trkpt><trkpt lat="43.815125" lon="12.281055"><ele>667.0</ele><time>2026-04-25T08:27:39.39Z</time></trkpt><trkpt lat="43.8151367" lon="12.2808817"><ele>667.0</ele><time>2026-04-25T08:27:40.389Z</time></trkpt><trkpt lat="43.8151583" lon="12.28073"><ele>667.0</ele><time>2026-04-25T08:27:41.389Z</time></trkpt><trkpt lat="43.8152067" lon="12.2805817"><ele>664.0</ele><time>2026-04-25T08:27:42.39Z</time></trkpt><trkpt lat="43.8152733" lon="12.2804483"><ele>661.0</ele><time>2026-04-25T08:27:43.39Z</time></trkpt><trkpt lat="43.815355" lon="12.28035"><ele>658.0</ele><time>2026-04-25T08:27:44.39Z</time></trkpt><trkpt lat="43.8154483" lon="12.2803017"><ele>655.0</ele><time>2026-04-25T08:27:45.389Z</time></trkpt><trkpt lat="43.8155667" lon="12.2803167"><ele>652.0</ele><time>2026-04-25T08:27:46.39Z</time></trkpt><trkpt lat="43.8156767" lon="12.280375"><ele>652.0</ele><time>2026-04-25T08:27:47.39Z</time></trkpt><trkpt lat="43.8157733" lon="12.2804217"><ele>652.0</ele><time>2026-04-25T08:27:48.39Z</time></trkpt><trkpt lat="43.8158617" lon="12.280425"><ele>652.0</ele><time>2026-04-25T08:27:49.39Z</time></trkpt><trkpt lat="43.81594" lon="12.2804"><ele>652.0</ele><time>2026-04-25T08:27:50.39Z</time></trkpt><trkpt lat="43.8160133" lon="12.2802933"><ele>652.0</ele><time>2026-04-25T08:27:51.39Z</time></trkpt><trkpt lat="43.81608" lon="12.2801383"><ele>648.75</ele><time>2026-04-25T08:27:52.39Z</time></trkpt><trkpt lat="43.8161417" lon="12.279965"><ele>645.5</ele><time>2026-04-25T08:27:53.39Z</time></trkpt><trkpt lat="43.8161783" lon="12.2798083"><ele>642.25</ele><time>2026-04-25T08:27:54.39Z</time></trkpt><trkpt lat="43.8162017" lon="12.27966"><ele>639.0</ele><time>2026-04-25T08:27:55.39Z</time></trkpt><trkpt lat="43.8161883" lon="12.2795333"><ele>639.3333333333334</ele><time>2026-04-25T08:27:56.389Z</time></trkpt><trkpt lat="43.81616" lon="12.2794333"><ele>639.6666666666666</ele><time>2026-04-25T08:27:57.389Z</time></trkpt><trkpt lat="43.8161083" lon="12.2793767"><ele>640.0</ele><time>2026-04-25T08:27:58.39Z</time></trkpt><trkpt lat="43.8160233" lon="12.2793733"><ele>640.3333333333333</ele><time>2026-04-25T08:27:59.39Z</time></trkpt><trkpt lat="43.8159333" lon="12.279405"><ele>640.6666666666666</ele><time>2026-04-25T08:28:00.39Z</time></trkpt><trkpt lat="43.815835" lon="12.279435"><ele>641.0</ele><time>2026-04-25T08:28:01.39Z</time></trkpt><trkpt lat="43.8157167" lon="12.2794283"><ele>641.0</ele><time>2026-04-25T08:28:02.389Z</time></trkpt><trkpt lat="43.8155967" lon="12.2793983"><ele>641.0</ele><time>2026-04-25T08:28:03.39Z</time></trkpt><trkpt lat="43.8154733" lon="12.2793633"><ele>641.0</ele><time>2026-04-25T08:28:04.389Z</time></trkpt><trkpt lat="43.815365" lon="12.279325"><ele>641.0</ele><time>2026-04-25T08:28:05.39Z</time></trkpt><trkpt lat="43.81528" lon="12.2792767"><ele>641.0</ele><time>2026-04-25T08:28:06.39Z</time></trkpt><trkpt lat="43.81522" lon="12.2791983"><ele>641.0</ele><time>2026-04-25T08:28:07.39Z</time></trkpt><trkpt lat="43.8152033" lon="12.279105"><ele>641.0</ele><time>2026-04-25T08:28:08.389Z</time></trkpt><trkpt lat="43.8152267" lon="12.2790083"><ele>641.0</ele><time>2026-04-25T08:28:09.389Z</time></trkpt><trkpt lat="43.8152783" lon="12.2789217"><ele>641.0</ele><time>2026-04-25T08:28:10.39Z</time></trkpt><trkpt lat="43.8153917" lon="12.2788567"><ele>641.0</ele><time>2026-04-25T08:28:11.39Z</time></trkpt><trkpt lat="43.8155283" lon="12.2788033"><ele>638.0</ele><time>2026-04-25T08:28:12.39Z</time></trkpt><trkpt lat="43.8156467" lon="12.27873"><ele>635.0</ele><time>2026-04-25T08:28:13.39Z</time></trkpt><trkpt lat="43.8157467" lon="12.2786383"><ele>632.0</ele><time>2026-04-25T08:28:14.39Z</time></trkpt><trkpt lat="43.8158383" lon="12.2785517"><ele>629.0</ele><time>2026-04-25T08:28:15.39Z</time></trkpt><trkpt lat="43.81591" lon="12.27843"><ele>629.0</ele><time>2026-04-25T08:28:16.39Z</time></trkpt><trkpt lat="43.8159717" lon="12.2783117"><ele>629.0</ele><time>2026-04-25T08:28:17.389Z</time></trkpt><trkpt lat="43.816035" lon="12.2781833"><ele>629.0</ele><time>2026-04-25T08:28:18.389Z</time></trkpt><trkpt lat="43.8161033" lon="12.2780533"><ele>629.0</ele><time>2026-04-25T08:28:19.389Z</time></trkpt><trkpt lat="43.8161667" lon="12.2779433"><ele>629.0</ele><time>2026-04-25T08:28:20.389Z</time></trkpt><trkpt lat="43.8162217" lon="12.277845"><ele>627.6666666666666</ele><time>2026-04-25T08:28:21.389Z</time></trkpt><trkpt lat="43.8162867" lon="12.2777483"><ele>626.3333333333333</ele><time>2026-04-25T08:28:22.389Z</time></trkpt><trkpt lat="43.8163383" lon="12.2776533"><ele>625.0</ele><time>2026-04-25T08:28:23.389Z</time></trkpt><trkpt lat="43.81638" lon="12.277565"><ele>623.6666666666666</ele><time>2026-04-25T08:28:24.389Z</time></trkpt><trkpt lat="43.8164367" lon="12.277475"><ele>622.3333333333334</ele><time>2026-04-25T08:28:25.389Z</time></trkpt><trkpt lat="43.8164833" lon="12.2773967"><ele>621.0</ele><time>2026-04-25T08:28:26.389Z</time></trkpt><trkpt lat="43.816525" lon="12.2773183"><ele>619.8</ele><time>2026-04-25T08:28:27.39Z</time></trkpt><trkpt lat="43.81657" lon="12.2772433"><ele>618.6</ele><time>2026-04-25T08:28:28.389Z</time></trkpt><trkpt lat="43.816615" lon="12.2771083"><ele>617.4</ele><time>2026-04-25T08:28:30.39Z</time></trkpt><trkpt lat="43.8165067" lon="12.27709"><ele>616.2</ele><time>2026-04-25T08:28:33.39Z</time></trkpt><trkpt lat="43.81644" lon="12.2771283"><ele>615.0</ele><time>2026-04-25T08:28:34.39Z</time></trkpt><trkpt lat="43.8163567" lon="12.2771783"><ele>615.0</ele><time>2026-04-25T08:28:35.39Z</time></trkpt><trkpt lat="43.8162717" lon="12.2772383"><ele>615.0</ele><time>2026-04-25T08:28:36.389Z</time></trkpt><trkpt lat="43.8161967" lon="12.2773033"><ele>615.0</ele><time>2026-04-25T08:28:37.39Z</time></trkpt><trkpt lat="43.816135" lon="12.2773383"><ele>615.0</ele><time>2026-04-25T08:28:38.39Z</time></trkpt><trkpt lat="43.8160533" lon="12.277345"><ele>615.0</ele><time>2026-04-25T08:28:40.389Z</time></trkpt><trkpt lat="43.81596" lon="12.2772117"><ele>614.4</ele><time>2026-04-25T08:28:42.389Z</time></trkpt><trkpt lat="43.8159017" lon="12.2771083"><ele>613.8</ele><time>2026-04-25T08:28:43.389Z</time></trkpt><trkpt lat="43.8158467" lon="12.2769983"><ele>613.2</ele><time>2026-04-25T08:28:44.389Z</time></trkpt><trkpt lat="43.8157933" lon="12.2768933"><ele>612.6</ele><time>2026-04-25T08:28:45.389Z</time></trkpt><trkpt lat="43.81574" lon="12.2767883"><ele>612.0</ele><time>2026-04-25T08:28:46.39Z</time></trkpt><trkpt lat="43.8156867" lon="12.276685"><ele>612.0</ele><time>2026-04-25T08:28:47.39Z</time></trkpt><trkpt lat="43.8156233" lon="12.2765883"><ele>612.0</ele><time>2026-04-25T08:28:48.389Z</time></trkpt><trkpt lat="43.81556" lon="12.276505"><ele>612.0</ele><time>2026-04-25T08:28:49.39Z</time></trkpt><trkpt lat="43.815505" lon="12.2764283"><ele>612.0</ele><time>2026-04-25T08:28:50.39Z</time></trkpt><trkpt lat="43.81545" lon="12.27636"><ele>612.0</ele><time>2026-04-25T08:28:51.39Z</time></trkpt><trkpt lat="43.81539" lon="12.2762967"><ele>612.0</ele><time>2026-04-25T08:28:52.39Z</time></trkpt><trkpt lat="43.81532" lon="12.2762433"><ele>610.3333333333334</ele><time>2026-04-25T08:28:53.389Z</time></trkpt><trkpt lat="43.81525" lon="12.2762017"><ele>608.6666666666666</ele><time>2026-04-25T08:28:54.39Z</time></trkpt><trkpt lat="43.8151767" lon="12.27617"><ele>607.0</ele><time>2026-04-25T08:28:55.39Z</time></trkpt><trkpt lat="43.8150967" lon="12.276145"><ele>605.3333333333333</ele><time>2026-04-25T08:28:56.39Z</time></trkpt><trkpt lat="43.815015" lon="12.2761283"><ele>603.6666666666666</ele><time>2026-04-25T08:28:57.39Z</time></trkpt><trkpt lat="43.8149383" lon="12.2761033"><ele>602.0</ele><time>2026-04-25T08:28:58.389Z</time></trkpt><trkpt lat="43.8148667" lon="12.276085"><ele>601.0</ele><time>2026-04-25T08:28:59.389Z</time></trkpt><trkpt lat="43.8148" lon="12.2760667"><ele>600.0</ele><time>2026-04-25T08:29:00.39Z</time></trkpt><trkpt lat="43.8147367" lon="12.2760533"><ele>599.0</ele><time>2026-04-25T08:29:01.39Z</time></trkpt><trkpt lat="43.8146683" lon="12.276045"><ele>598.0</ele><time>2026-04-25T08:29:02.389Z</time></trkpt><trkpt lat="43.8145433" lon="12.2760467"><ele>597.0</ele><time>2026-04-25T08:29:04.389Z</time></trkpt><trkpt lat="43.814475" lon="12.2760533"><ele>596.0</ele><time>2026-04-25T08:29:05.39Z</time></trkpt><trkpt lat="43.8144033" lon="12.2760517"><ele>596.0</ele><time>2026-04-25T08:29:06.389Z</time></trkpt><trkpt lat="43.8143233" lon="12.27605"><ele>596.0</ele><time>2026-04-25T08:29:07.39Z</time></trkpt><trkpt lat="43.8142467" lon="12.2760383"><ele>596.0</ele><time>2026-04-25T08:29:08.39Z</time></trkpt><trkpt lat="43.8141633" lon="12.276025"><ele>596.0</ele><time>2026-04-25T08:29:09.389Z</time></trkpt><trkpt lat="43.814085" lon="12.27601"><ele>596.0</ele><time>2026-04-25T08:29:10.39Z</time></trkpt><trkpt lat="43.81401" lon="12.27599"><ele>596.0</ele><time>2026-04-25T08:29:11.39Z</time></trkpt><trkpt lat="43.8139267" lon="12.2759783"><ele>594.8333333333333</ele><time>2026-04-25T08:29:12.389Z</time></trkpt><trkpt lat="43.813845" lon="12.275975"><ele>593.6666666666666</ele><time>2026-04-25T08:29:13.389Z</time></trkpt><trkpt lat="43.81377" lon="12.2759817"><ele>592.5</ele><time>2026-04-25T08:29:14.39Z</time></trkpt><trkpt lat="43.8136867" lon="12.2759767"><ele>591.3333333333334</ele><time>2026-04-25T08:29:15.389Z</time></trkpt><trkpt lat="43.813605" lon="12.275975"><ele>590.1666666666667</ele><time>2026-04-25T08:29:16.39Z</time></trkpt><trkpt lat="43.81353" lon="12.27596"><ele>589.0</ele><time>2026-04-25T08:29:17.39Z</time></trkpt><trkpt lat="43.8134617" lon="12.2759533"><ele>587.0</ele><time>2026-04-25T08:29:18.39Z</time></trkpt><trkpt lat="43.8133967" lon="12.2759317"><ele>585.0</ele><time>2026-04-25T08:29:19.389Z</time></trkpt><trkpt lat="43.8132867" lon="12.2758767"><ele>583.0</ele><time>2026-04-25T08:29:21.389Z</time></trkpt><trkpt lat="43.8132133" lon="12.27578"><ele>581.0</ele><time>2026-04-25T08:29:23.39Z</time></trkpt><trkpt lat="43.813165" lon="12.2756167"><ele>579.0</ele><time>2026-04-25T08:29:25.39Z</time></trkpt><trkpt lat="43.8131117" lon="12.2754683"><ele>576.8</ele><time>2026-04-25T08:29:27.389Z</time></trkpt><trkpt lat="43.8130467" lon="12.27535"><ele>574.5999999999999</ele><time>2026-04-25T08:29:29.39Z</time></trkpt><trkpt lat="43.8130033" lon="12.2752117"><ele>572.4</ele><time>2026-04-25T08:29:31.39Z</time></trkpt><trkpt lat="43.8129967" lon="12.275045"><ele>570.1999999999999</ele><time>2026-04-25T08:29:33.389Z</time></trkpt><trkpt lat="43.8129767" lon="12.2749567"><ele>568.0</ele><time>2026-04-25T08:29:34.389Z</time></trkpt><trkpt lat="43.8129467" lon="12.2748617"><ele>568.0</ele><time>2026-04-25T08:29:35.39Z</time></trkpt><trkpt lat="43.8129133" lon="12.2747717"><ele>568.0</ele><time>2026-04-25T08:29:36.39Z</time></trkpt><trkpt lat="43.8128767" lon="12.2746883"><ele>568.0</ele><time>2026-04-25T08:29:37.39Z</time></trkpt><trkpt lat="43.8128417" lon="12.2746117"><ele>568.0</ele><time>2026-04-25T08:29:38.389Z</time></trkpt><trkpt lat="43.8127767" lon="12.274455"><ele>568.0</ele><time>2026-04-25T08:29:40.389Z</time></trkpt><trkpt lat="43.8127467" lon="12.2743767"><ele>568.0</ele><time>2026-04-25T08:29:41.39Z</time></trkpt><trkpt lat="43.8126917" lon="12.27425"><ele>566.0</ele><time>2026-04-25T08:29:43.39Z</time></trkpt><trkpt lat="43.8126417" lon="12.2741317"><ele>564.0</ele><time>2026-04-25T08:29:45.39Z</time></trkpt><trkpt lat="43.8126283" lon="12.27399"><ele>562.0</ele><time>2026-04-25T08:29:47.389Z</time></trkpt><trkpt lat="43.8126183" lon="12.2738567"><ele>560.0</ele><time>2026-04-25T08:29:49.39Z</time></trkpt><trkpt lat="43.8125917" lon="12.2737217"><ele>558.0</ele><time>2026-04-25T08:29:51.39Z</time></trkpt><trkpt lat="43.8125467" lon="12.273585"><ele>556.4</ele><time>2026-04-25T08:29:53.389Z</time></trkpt><trkpt lat="43.8125083" lon="12.2734517"><ele>554.8</ele><time>2026-04-25T08:29:55.389Z</time></trkpt><trkpt lat="43.812455" lon="12.2733"><ele>553.2</ele><time>2026-04-25T08:29:57.389Z</time></trkpt><trkpt lat="43.8124183" lon="12.2732083"><ele>551.6</ele><time>2026-04-25T08:29:58.39Z</time></trkpt><trkpt lat="43.812375" lon="12.2731233"><ele>550.0</ele><time>2026-04-25T08:29:59.39Z</time></trkpt><trkpt lat="43.8123333" lon="12.2730333"><ele>548.1666666666667</ele><time>2026-04-25T08:30:00.389Z</time></trkpt><trkpt lat="43.8122833" lon="12.2729433"><ele>546.3333333333334</ele><time>2026-04-25T08:30:01.39Z</time></trkpt><trkpt lat="43.8122267" lon="12.272845"><ele>544.5</ele><time>2026-04-25T08:30:02.39Z</time></trkpt><trkpt lat="43.8121733" lon="12.272755"><ele>542.6666666666666</ele><time>2026-04-25T08:30:03.39Z</time></trkpt><trkpt lat="43.8121317" lon="12.2726717"><ele>540.8333333333333</ele><time>2026-04-25T08:30:04.389Z</time></trkpt><trkpt lat="43.8120917" lon="12.2725933"><ele>539.0</ele><time>2026-04-25T08:30:05.389Z</time></trkpt><trkpt lat="43.8120617" lon="12.272505"><ele>539.0</ele><time>2026-04-25T08:30:06.39Z</time></trkpt><trkpt lat="43.8120283" lon="12.27242"><ele>539.0</ele><time>2026-04-25T08:30:07.389Z</time></trkpt><trkpt lat="43.8119917" lon="12.2723267"><ele>539.0</ele><time>2026-04-25T08:30:08.389Z</time></trkpt><trkpt lat="43.81195" lon="12.2722417"><ele>539.0</ele><time>2026-04-25T08:30:09.39Z</time></trkpt><trkpt lat="43.8119033" lon="12.2721517"><ele>539.0</ele><time>2026-04-25T08:30:10.389Z</time></trkpt><trkpt lat="43.81186" lon="12.272065"><ele>539.0</ele><time>2026-04-25T08:30:11.389Z</time></trkpt><trkpt lat="43.811805" lon="12.271985"><ele>537.5</ele><time>2026-04-25T08:30:12.389Z</time></trkpt><trkpt lat="43.8117467" lon="12.2719183"><ele>536.0</ele><time>2026-04-25T08:30:13.39Z</time></trkpt><trkpt lat="43.81169" lon="12.27185"><ele>534.5</ele><time>2026-04-25T08:30:14.39Z</time></trkpt><trkpt lat="43.8116383" lon="12.2717733"><ele>533.0</ele><time>2026-04-25T08:30:15.39Z</time></trkpt><trkpt lat="43.8115983" lon="12.2716917"><ele>531.5</ele><time>2026-04-25T08:30:16.39Z</time></trkpt><trkpt lat="43.8115567" lon="12.2716167"><ele>530.0</ele><time>2026-04-25T08:30:17.389Z</time></trkpt><trkpt lat="43.8114683" lon="12.2715217"><ele>530.0</ele><time>2026-04-25T08:30:19.39Z</time></trkpt><trkpt lat="43.8113667" lon="12.271455"><ele>530.0</ele><time>2026-04-25T08:30:21.39Z</time></trkpt><trkpt lat="43.811295" lon="12.2713883"><ele>530.0</ele><time>2026-04-25T08:30:23.39Z</time></trkpt><trkpt lat="43.8112383" lon="12.27129"><ele>530.0</ele><time>2026-04-25T08:30:25.39Z</time></trkpt><trkpt lat="43.8111917" lon="12.2711717"><ele>530.0</ele><time>2026-04-25T08:30:27.39Z</time></trkpt><trkpt lat="43.8111183" lon="12.2710467"><ele>528.0</ele><time>2026-04-25T08:30:29.39Z</time></trkpt><trkpt lat="43.811075" lon="12.270975"><ele>526.0</ele><time>2026-04-25T08:30:30.39Z</time></trkpt><trkpt lat="43.81103" lon="12.2709083"><ele>524.0</ele><time>2026-04-25T08:30:31.389Z</time></trkpt><trkpt lat="43.8109833" lon="12.2708383"><ele>522.0</ele><time>2026-04-25T08:30:32.389Z</time></trkpt><trkpt lat="43.8109467" lon="12.2707533"><ele>520.0</ele><time>2026-04-25T08:30:33.39Z</time></trkpt><trkpt lat="43.8109083" lon="12.270675"><ele>518.0</ele><time>2026-04-25T08:30:34.389Z</time></trkpt><trkpt lat="43.810835" lon="12.27054"><ele>515.1999999999999</ele><time>2026-04-25T08:30:36.389Z</time></trkpt><trkpt lat="43.8108083" lon="12.2703733"><ele>512.4</ele><time>2026-04-25T08:30:38.389Z</time></trkpt><trkpt lat="43.810815" lon="12.2702717"><ele>509.59999999999997</ele><time>2026-04-25T08:30:39.39Z</time></trkpt><trkpt lat="43.810815" lon="12.27018"><ele>506.79999999999995</ele><time>2026-04-25T08:30:40.39Z</time></trkpt><trkpt lat="43.8108133" lon="12.2700133"><ele>504.0</ele><time>2026-04-25T08:30:42.39Z</time></trkpt><trkpt lat="43.8108133" lon="12.2698567"><ele>501.6</ele><time>2026-04-25T08:30:44.389Z</time></trkpt><trkpt lat="43.8108033" lon="12.2697033"><ele>499.2</ele><time>2026-04-25T08:30:46.39Z</time></trkpt><trkpt lat="43.8107733" lon="12.2695617"><ele>496.80000000000007</ele><time>2026-04-25T08:30:48.389Z</time></trkpt><trkpt lat="43.8107267" lon="12.2694317"><ele>494.40000000000003</ele><time>2026-04-25T08:30:50.39Z</time></trkpt><trkpt lat="43.8106833" lon="12.26931"><ele>492.0</ele><time>2026-04-25T08:30:52.389Z</time></trkpt><trkpt lat="43.8106617" lon="12.2692167"><ele>492.0</ele><time>2026-04-25T08:30:54.39Z</time></trkpt><trkpt lat="43.8105883" lon="12.2691"><ele>492.00000000000006</ele><time>2026-04-25T08:32:32.389Z</time></trkpt><trkpt lat="43.8105183" lon="12.2690833"><ele>492.00000000000006</ele><time>2026-04-25T08:32:33.39Z</time></trkpt><trkpt lat="43.810405" lon="12.26909"><ele>492.0</ele><time>2026-04-25T08:32:34.39Z</time></trkpt><trkpt lat="43.810285" lon="12.2691017"><ele>492.0</ele><time>2026-04-25T08:32:35.39Z</time></trkpt><trkpt lat="43.8101667" lon="12.2691117"><ele>491.25</ele><time>2026-04-25T08:32:36.389Z</time></trkpt><trkpt lat="43.810055" lon="12.269125"><ele>490.5</ele><time>2026-04-25T08:32:37.39Z</time></trkpt><trkpt lat="43.8099417" lon="12.2691383"><ele>489.75</ele><time>2026-04-25T08:32:38.389Z</time></trkpt><trkpt lat="43.8098133" lon="12.269145"><ele>489.0</ele><time>2026-04-25T08:32:39.389Z</time></trkpt><trkpt lat="43.8096817" lon="12.26915"><ele>489.0</ele><time>2026-04-25T08:32:40.39Z</time></trkpt><trkpt lat="43.80955" lon="12.269165"><ele>489.0</ele><time>2026-04-25T08:32:41.389Z</time></trkpt><trkpt lat="43.809415" lon="12.2691883"><ele>489.0</ele><time>2026-04-25T08:32:42.389Z</time></trkpt><trkpt lat="43.8092883" lon="12.2692033"><ele>489.0</ele><time>2026-04-25T08:32:43.389Z</time></trkpt><trkpt lat="43.8091667" lon="12.2692217"><ele>488.5</ele><time>2026-04-25T08:32:44.39Z</time></trkpt><trkpt lat="43.8090433" lon="12.2692567"><ele>488.0</ele><time>2026-04-25T08:32:45.389Z</time></trkpt><trkpt lat="43.8089283" lon="12.2692967"><ele>487.5</ele><time>2026-04-25T08:32:46.39Z</time></trkpt><trkpt lat="43.8088217" lon="12.2693533"><ele>487.0</ele><time>2026-04-25T08:32:47.39Z</time></trkpt><trkpt lat="43.808725" lon="12.2694167"><ele>487.0</ele><time>2026-04-25T08:32:48.39Z</time></trkpt><trkpt lat="43.808635" lon="12.269475"><ele>487.00000000000006</ele><time>2026-04-25T08:32:49.39Z</time></trkpt><trkpt lat="43.8085467" lon="12.26956"><ele>487.00000000000006</ele><time>2026-04-25T08:32:50.39Z</time></trkpt><trkpt lat="43.8084517" lon="12.2696517"><ele>487.0</ele><time>2026-04-25T08:32:51.389Z</time></trkpt><trkpt lat="43.8083667" lon="12.2697383"><ele>487.0</ele><time>2026-04-25T08:32:52.39Z</time></trkpt><trkpt lat="43.8082883" lon="12.2698183"><ele>487.8</ele><time>2026-04-25T08:32:53.39Z</time></trkpt><trkpt lat="43.8082083" lon="12.2698917"><ele>488.6</ele><time>2026-04-25T08:32:54.389Z</time></trkpt><trkpt lat="43.8081317" lon="12.2699733"><ele>489.40000000000003</ele><time>2026-04-25T08:32:55.39Z</time></trkpt><trkpt lat="43.80805" lon="12.2700567"><ele>490.20000000000005</ele><time>2026-04-25T08:32:56.389Z</time></trkpt><trkpt lat="43.807955" lon="12.2701417"><ele>491.0</ele><time>2026-04-25T08:32:57.39Z</time></trkpt><trkpt lat="43.8078533" lon="12.27023"><ele>491.0</ele><time>2026-04-25T08:32:58.39Z</time></trkpt><trkpt lat="43.8077517" lon="12.2703367"><ele>491.0</ele><time>2026-04-25T08:32:59.39Z</time></trkpt><trkpt lat="43.807645" lon="12.2704467"><ele>491.0</ele><time>2026-04-25T08:33:00.39Z</time></trkpt><trkpt lat="43.8075333" lon="12.270555"><ele>491.0</ele><time>2026-04-25T08:33:01.39Z</time></trkpt><trkpt lat="43.8074217" lon="12.270675"><ele>492.5</ele><time>2026-04-25T08:33:02.39Z</time></trkpt><trkpt lat="43.80732" lon="12.2707833"><ele>494.0</ele><time>2026-04-25T08:33:03.389Z</time></trkpt><trkpt lat="43.8072217" lon="12.2708717"><ele>495.5</ele><time>2026-04-25T08:33:04.389Z</time></trkpt><trkpt lat="43.8071133" lon="12.270935"><ele>497.0</ele><time>2026-04-25T08:33:05.389Z</time></trkpt><trkpt lat="43.807" lon="12.270975"><ele>497.0</ele><time>2026-04-25T08:33:06.389Z</time></trkpt><trkpt lat="43.8068917" lon="12.2709733"><ele>497.0</ele><time>2026-04-25T08:33:07.39Z</time></trkpt><trkpt lat="43.8067783" lon="12.2709217"><ele>497.0</ele><time>2026-04-25T08:33:08.389Z</time></trkpt><trkpt lat="43.8066733" lon="12.2708317"><ele>497.0</ele><time>2026-04-25T08:33:09.39Z</time></trkpt><trkpt lat="43.8065833" lon="12.2707083"><ele>498.75</ele><time>2026-04-25T08:33:10.389Z</time></trkpt><trkpt lat="43.80651" lon="12.2705633"><ele>500.5</ele><time>2026-04-25T08:33:11.389Z</time></trkpt><trkpt lat="43.8064233" lon="12.2704417"><ele>502.25</ele><time>2026-04-25T08:33:12.39Z</time></trkpt><trkpt lat="43.8063167" lon="12.2703467"><ele>504.0</ele><time>2026-04-25T08:33:13.39Z</time></trkpt><trkpt lat="43.806195" lon="12.2702583"><ele>504.0</ele><time>2026-04-25T08:33:14.39Z</time></trkpt><trkpt lat="43.8060717" lon="12.2701583"><ele>504.0</ele><time>2026-04-25T08:33:15.39Z</time></trkpt><trkpt lat="43.8059467" lon="12.2700583"><ele>504.0</ele><time>2026-04-25T08:33:16.389Z</time></trkpt><trkpt lat="43.8058183" lon="12.2699567"><ele>504.0</ele><time>2026-04-25T08:33:17.389Z</time></trkpt><trkpt lat="43.80568" lon="12.2698717"><ele>506.0</ele><time>2026-04-25T08:33:18.389Z</time></trkpt><trkpt lat="43.805555" lon="12.2697917"><ele>508.0</ele><time>2026-04-25T08:33:19.39Z</time></trkpt><trkpt lat="43.805445" lon="12.2697267"><ele>510.0</ele><time>2026-04-25T08:33:20.39Z</time></trkpt><trkpt lat="43.8053233" lon="12.269705"><ele>512.0</ele><time>2026-04-25T08:33:21.39Z</time></trkpt><trkpt lat="43.8051967" lon="12.2697217"><ele>514.25</ele><time>2026-04-25T08:33:22.39Z</time></trkpt><trkpt lat="43.80507" lon="12.2697783"><ele>516.5</ele><time>2026-04-25T08:33:23.389Z</time></trkpt><trkpt lat="43.804955" lon="12.269835"><ele>518.75</ele><time>2026-04-25T08:33:24.389Z</time></trkpt><trkpt lat="43.8048517" lon="12.269875"><ele>521.0</ele><time>2026-04-25T08:33:25.39Z</time></trkpt><trkpt lat="43.8047483" lon="12.26989"><ele>521.0</ele><time>2026-04-25T08:33:26.39Z</time></trkpt><trkpt lat="43.8046583" lon="12.2698833"><ele>521.0</ele><time>2026-04-25T08:33:27.39Z</time></trkpt><trkpt lat="43.8045733" lon="12.2698417"><ele>521.0</ele><time>2026-04-25T08:33:28.389Z</time></trkpt><trkpt lat="43.804505" lon="12.26977"><ele>521.0</ele><time>2026-04-25T08:33:29.39Z</time></trkpt><trkpt lat="43.80447" lon="12.2696683"><ele>521.0</ele><time>2026-04-25T08:33:30.39Z</time></trkpt><trkpt lat="43.80446" lon="12.2695567"><ele>521.0</ele><time>2026-04-25T08:33:31.389Z</time></trkpt><trkpt lat="43.8044567" lon="12.2694317"><ele>520.8</ele><time>2026-04-25T08:33:32.39Z</time></trkpt><trkpt lat="43.8044417" lon="12.26931"><ele>520.6</ele><time>2026-04-25T08:33:33.39Z</time></trkpt><trkpt lat="43.8044217" lon="12.2691717"><ele>520.4</ele><time>2026-04-25T08:33:34.39Z</time></trkpt><trkpt lat="43.804395" lon="12.26903"><ele>520.2</ele><time>2026-04-25T08:33:35.389Z</time></trkpt><trkpt lat="43.8043667" lon="12.268885"><ele>520.0</ele><time>2026-04-25T08:33:36.39Z</time></trkpt><trkpt lat="43.8043317" lon="12.268755"><ele>522.4</ele><time>2026-04-25T08:33:37.39Z</time></trkpt><trkpt lat="43.80429" lon="12.2686533"><ele>524.8</ele><time>2026-04-25T08:33:38.39Z</time></trkpt><trkpt lat="43.8042317" lon="12.2685767"><ele>527.2</ele><time>2026-04-25T08:33:39.39Z</time></trkpt><trkpt lat="43.804135" lon="12.268555"><ele>529.6</ele><time>2026-04-25T08:33:40.39Z</time></trkpt><trkpt lat="43.8040267" lon="12.2685683"><ele>532.0</ele><time>2026-04-25T08:33:41.39Z</time></trkpt><trkpt lat="43.803905" lon="12.26862"><ele>532.0</ele><time>2026-04-25T08:33:42.389Z</time></trkpt><trkpt lat="43.8037883" lon="12.2686733"><ele>532.0</ele><time>2026-04-25T08:33:43.39Z</time></trkpt><trkpt lat="43.8036667" lon="12.268735"><ele>532.0</ele><time>2026-04-25T08:33:44.389Z</time></trkpt><trkpt lat="43.8035483" lon="12.26881"><ele>532.0</ele><time>2026-04-25T08:33:45.39Z</time></trkpt><trkpt lat="43.8034267" lon="12.2688883"><ele>536.0</ele><time>2026-04-25T08:33:46.389Z</time></trkpt><trkpt lat="43.8033117" lon="12.2689633"><ele>540.0</ele><time>2026-04-25T08:33:47.389Z</time></trkpt><trkpt lat="43.8031967" lon="12.2690483"><ele>544.0</ele><time>2026-04-25T08:33:48.39Z</time></trkpt><trkpt lat="43.8030867" lon="12.269135"><ele>548.0</ele><time>2026-04-25T08:33:49.389Z</time></trkpt><trkpt lat="43.8029767" lon="12.269235"><ele>548.0</ele><time>2026-04-25T08:33:50.39Z</time></trkpt><trkpt lat="43.8028667" lon="12.2693317"><ele>548.0</ele><time>2026-04-25T08:33:51.389Z</time></trkpt><trkpt lat="43.8027567" lon="12.2694267"><ele>548.0</ele><time>2026-04-25T08:33:52.39Z</time></trkpt><trkpt lat="43.8026433" lon="12.2695267"><ele>548.0</ele><time>2026-04-25T08:33:53.389Z</time></trkpt><trkpt lat="43.8025383" lon="12.26964"><ele>550.0</ele><time>2026-04-25T08:33:54.39Z</time></trkpt><trkpt lat="43.80243" lon="12.26974"><ele>552.0</ele><time>2026-04-25T08:33:55.39Z</time></trkpt><trkpt lat="43.8023217" lon="12.2698383"><ele>554.0</ele><time>2026-04-25T08:33:56.39Z</time></trkpt><trkpt lat="43.8022083" lon="12.2699133"><ele>556.0</ele><time>2026-04-25T08:33:57.39Z</time></trkpt><trkpt lat="43.80209" lon="12.2699433"><ele>556.8</ele><time>2026-04-25T08:33:58.39Z</time></trkpt><trkpt lat="43.801975" lon="12.2699433"><ele>557.6</ele><time>2026-04-25T08:33:59.39Z</time></trkpt><trkpt lat="43.8018567" lon="12.2699183"><ele>558.4</ele><time>2026-04-25T08:34:00.389Z</time></trkpt><trkpt lat="43.801755" lon="12.2698983"><ele>559.2</ele><time>2026-04-25T08:34:01.389Z</time></trkpt><trkpt lat="43.8016633" lon="12.2698833"><ele>560.0</ele><time>2026-04-25T08:34:02.389Z</time></trkpt><trkpt lat="43.801575" lon="12.2698817"><ele>563.75</ele><time>2026-04-25T08:34:03.39Z</time></trkpt><trkpt lat="43.8014783" lon="12.26992"><ele>567.5</ele><time>2026-04-25T08:34:04.39Z</time></trkpt><trkpt lat="43.8013767" lon="12.26998"><ele>571.25</ele><time>2026-04-25T08:34:05.389Z</time></trkpt><trkpt lat="43.8012683" lon="12.2700567"><ele>575.0</ele><time>2026-04-25T08:34:06.389Z</time></trkpt><trkpt lat="43.8011583" lon="12.2701417"><ele>575.0</ele><time>2026-04-25T08:34:07.39Z</time></trkpt><trkpt lat="43.8010567" lon="12.2702167"><ele>575.0</ele><time>2026-04-25T08:34:08.389Z</time></trkpt><trkpt lat="43.800965" lon="12.2702933"><ele>575.0</ele><time>2026-04-25T08:34:09.39Z</time></trkpt><trkpt lat="43.800875" lon="12.2703817"><ele>575.0</ele><time>2026-04-25T08:34:10.389Z</time></trkpt><trkpt lat="43.80081" lon="12.2704867"><ele>575.0</ele><time>2026-04-25T08:34:11.39Z</time></trkpt><trkpt lat="43.800745" lon="12.2706233"><ele>576.75</ele><time>2026-04-25T08:34:12.389Z</time></trkpt><trkpt lat="43.800685" lon="12.2707783"><ele>578.5</ele><time>2026-04-25T08:34:13.39Z</time></trkpt><trkpt lat="43.800615" lon="12.2709383"><ele>580.25</ele><time>2026-04-25T08:34:14.389Z</time></trkpt><trkpt lat="43.8005367" lon="12.2710933"><ele>582.0</ele><time>2026-04-25T08:34:15.39Z</time></trkpt><trkpt lat="43.8004467" lon="12.27124"><ele>582.0</ele><time>2026-04-25T08:34:16.389Z</time></trkpt><trkpt lat="43.8003483" lon="12.27138"><ele>582.0</ele><time>2026-04-25T08:34:17.389Z</time></trkpt><trkpt lat="43.8002483" lon="12.2715167"><ele>582.0</ele><time>2026-04-25T08:34:18.39Z</time></trkpt><trkpt lat="43.800135" lon="12.2716467"><ele>582.0</ele><time>2026-04-25T08:34:19.389Z</time></trkpt><trkpt lat="43.8000117" lon="12.271755"><ele>583.8000000000001</ele><time>2026-04-25T08:34:20.389Z</time></trkpt><trkpt lat="43.7998867" lon="12.2718333"><ele>585.6</ele><time>2026-04-25T08:34:21.389Z</time></trkpt><trkpt lat="43.7997917" lon="12.2718883"><ele>587.4000000000001</ele><time>2026-04-25T08:34:22.39Z</time></trkpt><trkpt lat="43.7997117" lon="12.27192"><ele>589.2</ele><time>2026-04-25T08:34:23.389Z</time></trkpt><trkpt lat="43.79964" lon="12.27194"><ele>591.0</ele><time>2026-04-25T08:34:24.389Z</time></trkpt><trkpt lat="43.79957" lon="12.2719383"><ele>591.0</ele><time>2026-04-25T08:34:25.389Z</time></trkpt><trkpt lat="43.7994917" lon="12.271915"><ele>591.0</ele><time>2026-04-25T08:34:26.389Z</time></trkpt><trkpt lat="43.7993983" lon="12.2718667"><ele>591.0</ele><time>2026-04-25T08:34:27.39Z</time></trkpt><trkpt lat="43.79929" lon="12.2718067"><ele>591.0</ele><time>2026-04-25T08:34:28.39Z</time></trkpt><trkpt lat="43.7991767" lon="12.271725"><ele>591.0</ele><time>2026-04-25T08:34:29.389Z</time></trkpt><trkpt lat="43.7990617" lon="12.271645"><ele>593.5</ele><time>2026-04-25T08:34:30.389Z</time></trkpt><trkpt lat="43.7989517" lon="12.2715583"><ele>596.0</ele><time>2026-04-25T08:34:31.389Z</time></trkpt><trkpt lat="43.7988383" lon="12.2714783"><ele>598.5</ele><time>2026-04-25T08:34:32.389Z</time></trkpt><trkpt lat="43.7987267" lon="12.2714067"><ele>601.0</ele><time>2026-04-25T08:34:33.389Z</time></trkpt><trkpt lat="43.7986067" lon="12.2713367"><ele>603.25</ele><time>2026-04-25T08:34:34.39Z</time></trkpt><trkpt lat="43.798485" lon="12.2712617"><ele>605.5</ele><time>2026-04-25T08:34:35.39Z</time></trkpt><trkpt lat="43.7983683" lon="12.2711733"><ele>607.75</ele><time>2026-04-25T08:34:36.389Z</time></trkpt><trkpt lat="43.7982567" lon="12.2710983"><ele>610.0</ele><time>2026-04-25T08:34:37.39Z</time></trkpt><trkpt lat="43.79815" lon="12.2710167"><ele>610.0</ele><time>2026-04-25T08:34:38.389Z</time></trkpt><trkpt lat="43.7980667" lon="12.2709217"><ele>610.0</ele><time>2026-04-25T08:34:39.389Z</time></trkpt><trkpt lat="43.798005" lon="12.2707967"><ele>610.0</ele><time>2026-04-25T08:34:40.39Z</time></trkpt><trkpt lat="43.797965" lon="12.2706417"><ele>610.0</ele><time>2026-04-25T08:34:41.389Z</time></trkpt><trkpt lat="43.7979467" lon="12.2704883"><ele>610.0</ele><time>2026-04-25T08:34:42.39Z</time></trkpt><trkpt lat="43.7979617" lon="12.270355"><ele>612.2</ele><time>2026-04-25T08:34:43.39Z</time></trkpt><trkpt lat="43.79801" lon="12.2702633"><ele>614.4</ele><time>2026-04-25T08:34:44.39Z</time></trkpt><trkpt lat="43.7980867" lon="12.270195"><ele>616.6</ele><time>2026-04-25T08:34:45.389Z</time></trkpt><trkpt lat="43.7981867" lon="12.2701417"><ele>618.8</ele><time>2026-04-25T08:34:46.39Z</time></trkpt><trkpt lat="43.7982933" lon="12.2701017"><ele>621.0</ele><time>2026-04-25T08:34:47.39Z</time></trkpt><trkpt lat="43.7983817" lon="12.2700567"><ele>621.0</ele><time>2026-04-25T08:34:48.39Z</time></trkpt><trkpt lat="43.7984617" lon="12.270005"><ele>621.0</ele><time>2026-04-25T08:34:49.389Z</time></trkpt><trkpt lat="43.7985167" lon="12.2699433"><ele>621.0</ele><time>2026-04-25T08:34:50.39Z</time></trkpt><trkpt lat="43.7985667" lon="12.2698483"><ele>621.0</ele><time>2026-04-25T08:34:51.389Z</time></trkpt><trkpt lat="43.7985883" lon="12.269725"><ele>621.0</ele><time>2026-04-25T08:34:52.39Z</time></trkpt><trkpt lat="43.7985967" lon="12.269575"><ele>621.0</ele><time>2026-04-25T08:34:53.39Z</time></trkpt><trkpt lat="43.7986" lon="12.2694317"><ele>621.2</ele><time>2026-04-25T08:34:54.39Z</time></trkpt><trkpt lat="43.7986133" lon="12.26929"><ele>621.4000000000001</ele><time>2026-04-25T08:34:55.389Z</time></trkpt><trkpt lat="43.7986067" lon="12.2691467"><ele>621.6</ele><time>2026-04-25T08:34:56.39Z</time></trkpt><trkpt lat="43.79857" lon="12.269005"><ele>621.8000000000001</ele><time>2026-04-25T08:34:57.39Z</time></trkpt><trkpt lat="43.7985083" lon="12.2688867"><ele>622.0</ele><time>2026-04-25T08:34:58.39Z</time></trkpt><trkpt lat="43.7984217" lon="12.2688"><ele>622.0</ele><time>2026-04-25T08:34:59.389Z</time></trkpt><trkpt lat="43.7983233" lon="12.26873"><ele>622.0</ele><time>2026-04-25T08:35:00.39Z</time></trkpt><trkpt lat="43.7982267" lon="12.2686617"><ele>622.0</ele><time>2026-04-25T08:35:01.39Z</time></trkpt><trkpt lat="43.7981417" lon="12.268595"><ele>622.0</ele><time>2026-04-25T08:35:02.389Z</time></trkpt><trkpt lat="43.7980633" lon="12.268545"><ele>622.0</ele><time>2026-04-25T08:35:03.389Z</time></trkpt><trkpt lat="43.7979817" lon="12.26853"><ele>622.0</ele><time>2026-04-25T08:35:04.39Z</time></trkpt><trkpt lat="43.7979083" lon="12.2685717"><ele>622.0</ele><time>2026-04-25T08:35:05.39Z</time></trkpt><trkpt lat="43.7978367" lon="12.2686633"><ele>622.0</ele><time>2026-04-25T08:35:06.39Z</time></trkpt><trkpt lat="43.79779" lon="12.2687883"><ele>622.0</ele><time>2026-04-25T08:35:07.39Z</time></trkpt><trkpt lat="43.7977583" lon="12.2689067"><ele>622.0</ele><time>2026-04-25T08:35:08.389Z</time></trkpt><trkpt lat="43.797715" lon="12.2690033"><ele>625.0</ele><time>2026-04-25T08:35:09.389Z</time></trkpt><trkpt lat="43.7976683" lon="12.26909"><ele>628.0</ele><time>2026-04-25T08:35:10.389Z</time></trkpt><trkpt lat="43.7976267" lon="12.2691617"><ele>631.0</ele><time>2026-04-25T08:35:11.389Z</time></trkpt><trkpt lat="43.7975283" lon="12.269225"><ele>634.0</ele><time>2026-04-25T08:35:13.39Z</time></trkpt><trkpt lat="43.7974" lon="12.269175"><ele>637.0</ele><time>2026-04-25T08:35:15.389Z</time></trkpt><trkpt lat="43.797315" lon="12.26912"><ele>637.0</ele><time>2026-04-25T08:35:16.389Z</time></trkpt><trkpt lat="43.7972233" lon="12.2690617"><ele>637.0</ele><time>2026-04-25T08:35:17.39Z</time></trkpt><trkpt lat="43.7971233" lon="12.2689917"><ele>637.0</ele><time>2026-04-25T08:35:18.39Z</time></trkpt><trkpt lat="43.7970167" lon="12.2689167"><ele>637.0</ele><time>2026-04-25T08:35:19.39Z</time></trkpt><trkpt lat="43.796915" lon="12.2688333"><ele>639.6</ele><time>2026-04-25T08:35:20.39Z</time></trkpt><trkpt lat="43.79683" lon="12.26875"><ele>642.2</ele><time>2026-04-25T08:35:21.39Z</time></trkpt><trkpt lat="43.7967483" lon="12.26867"><ele>644.8</ele><time>2026-04-25T08:35:22.389Z</time></trkpt><trkpt lat="43.7966583" lon="12.2686067"><ele>647.4</ele><time>2026-04-25T08:35:23.39Z</time></trkpt><trkpt lat="43.7965733" lon="12.2685583"><ele>650.0</ele><time>2026-04-25T08:35:24.389Z</time></trkpt><trkpt lat="43.7965" lon="12.2685317"><ele>650.0</ele><time>2026-04-25T08:35:25.39Z</time></trkpt><trkpt lat="43.7963817" lon="12.26848"><ele>650.0</ele><time>2026-04-25T08:35:27.389Z</time></trkpt><trkpt lat="43.7962633" lon="12.26841"><ele>650.0</ele><time>2026-04-25T08:35:29.389Z</time></trkpt><trkpt lat="43.7962067" lon="12.268355"><ele>650.0</ele><time>2026-04-25T08:35:30.389Z</time></trkpt><trkpt lat="43.79615" lon="12.2682933"><ele>650.0</ele><time>2026-04-25T08:35:31.39Z</time></trkpt><trkpt lat="43.7960933" lon="12.2682333"><ele>650.0</ele><time>2026-04-25T08:35:32.39Z</time></trkpt><trkpt lat="43.796035" lon="12.26818"><ele>650.0</ele><time>2026-04-25T08:35:33.39Z</time></trkpt><trkpt lat="43.7959667" lon="12.2681333"><ele>650.0</ele><time>2026-04-25T08:35:34.389Z</time></trkpt><trkpt lat="43.7959" lon="12.2680983"><ele>650.0</ele><time>2026-04-25T08:35:35.39Z</time></trkpt><trkpt lat="43.7958417" lon="12.2680583"><ele>650.0</ele><time>2026-04-25T08:35:36.389Z</time></trkpt><trkpt lat="43.795785" lon="12.2680183"><ele>650.0</ele><time>2026-04-25T08:35:37.389Z</time></trkpt><trkpt lat="43.795735" lon="12.267965"><ele>650.0</ele><time>2026-04-25T08:35:38.389Z</time></trkpt><trkpt lat="43.7956717" lon="12.26782"><ele>653.2</ele><time>2026-04-25T08:35:40.39Z</time></trkpt><trkpt lat="43.7956433" lon="12.267735"><ele>656.4</ele><time>2026-04-25T08:35:41.39Z</time></trkpt><trkpt lat="43.7955883" lon="12.2675767"><ele>659.5999999999999</ele><time>2026-04-25T08:35:43.39Z</time></trkpt><trkpt lat="43.7955233" lon="12.2674367"><ele>662.8</ele><time>2026-04-25T08:35:45.39Z</time></trkpt><trkpt lat="43.7954817" lon="12.26737"><ele>666.0</ele><time>2026-04-25T08:35:46.389Z</time></trkpt><trkpt lat="43.7953983" lon="12.2672467"><ele>666.0</ele><time>2026-04-25T08:35:48.39Z</time></trkpt><trkpt lat="43.795345" lon="12.2671933"><ele>666.0</ele><time>2026-04-25T08:35:49.389Z</time></trkpt><trkpt lat="43.7952883" lon="12.2671483"><ele>666.0</ele><time>2026-04-25T08:35:50.389Z</time></trkpt><trkpt lat="43.7952233" lon="12.2671"><ele>666.0</ele><time>2026-04-25T08:35:51.39Z</time></trkpt><trkpt lat="43.7951567" lon="12.2670733"><ele>666.0</ele><time>2026-04-25T08:35:52.39Z</time></trkpt><trkpt lat="43.79505" lon="12.2670367"><ele>666.0</ele><time>2026-04-25T08:35:54.389Z</time></trkpt><trkpt lat="43.7949233" lon="12.2670033"><ele>669.0</ele><time>2026-04-25T08:35:56.39Z</time></trkpt><trkpt lat="43.7948067" lon="12.2669483"><ele>672.0</ele><time>2026-04-25T08:35:58.39Z</time></trkpt><trkpt lat="43.794698" lon="12.2669152"><ele>675.0</ele><time>2026-04-25T08:36:00.39Z</time></trkpt><trkpt lat="43.7945866" lon="12.2668905"><ele>678.0</ele><time>2026-04-25T08:36:02.39Z</time></trkpt><trkpt lat="43.7944875" lon="12.2668573"><ele>681.0</ele><time>2026-04-25T08:36:04.39Z</time></trkpt><trkpt lat="43.7943783" lon="12.266824"><ele>684.1999999999999</ele><time>2026-04-25T08:36:06.389Z</time></trkpt><trkpt lat="43.7942685" lon="12.2667946"><ele>687.4</ele><time>2026-04-25T08:36:08.39Z</time></trkpt><trkpt lat="43.7941667" lon="12.2667473"><ele>690.6</ele><time>2026-04-25T08:36:10.39Z</time></trkpt><trkpt lat="43.7940758" lon="12.2667198"><ele>693.8</ele><time>2026-04-25T08:36:12.39Z</time></trkpt><trkpt lat="43.7939767" lon="12.2666881"><ele>697.0</ele><time>2026-04-25T08:36:14.39Z</time></trkpt><trkpt lat="43.7938738" lon="12.2666226"><ele>697.0</ele><time>2026-04-25T08:36:16.389Z</time></trkpt><trkpt lat="43.79377" lon="12.2665405"><ele>697.0</ele><time>2026-04-25T08:36:18.389Z</time></trkpt><trkpt lat="43.7936636" lon="12.2664784"><ele>697.0</ele><time>2026-04-25T08:36:20.39Z</time></trkpt><trkpt lat="43.7935445" lon="12.2664357"><ele>697.0</ele><time>2026-04-25T08:36:22.389Z</time></trkpt><trkpt lat="43.7934172" lon="12.2664245"><ele>699.3333333333334</ele><time>2026-04-25T08:36:24.39Z</time></trkpt><trkpt lat="43.7933469" lon="12.2664349"><ele>701.6666666666667</ele><time>2026-04-25T08:36:25.39Z</time></trkpt><trkpt lat="43.793274" lon="12.2664489"><ele>704.0</ele><time>2026-04-25T08:36:26.39Z</time></trkpt><trkpt lat="43.7932031" lon="12.2664564"><ele>706.3333333333334</ele><time>2026-04-25T08:36:27.389Z</time></trkpt><trkpt lat="43.7931353" lon="12.2664583"><ele>708.6666666666666</ele><time>2026-04-25T08:36:28.389Z</time></trkpt><trkpt lat="43.7930705" lon="12.2664503"><ele>711.0</ele><time>2026-04-25T08:36:29.389Z</time></trkpt><trkpt lat="43.7929477" lon="12.2664199"><ele>711.0</ele><time>2026-04-25T08:36:31.39Z</time></trkpt><trkpt lat="43.7928398" lon="12.2663896"><ele>711.0</ele><time>2026-04-25T08:36:33.39Z</time></trkpt><trkpt lat="43.7927465" lon="12.2663903"><ele>711.0</ele><time>2026-04-25T08:36:35.39Z</time></trkpt><trkpt lat="43.7926488" lon="12.266373"><ele>711.0</ele><time>2026-04-25T08:36:37.39Z</time></trkpt><trkpt lat="43.7925422" lon="12.2662959"><ele>711.0</ele><time>2026-04-25T08:36:39.39Z</time></trkpt><trkpt lat="43.7924487" lon="12.2661853"><ele>714.0</ele><time>2026-04-25T08:36:41.39Z</time></trkpt><trkpt lat="43.7923914" lon="12.2660839"><ele>717.0</ele><time>2026-04-25T08:36:43.39Z</time></trkpt><trkpt lat="43.7923516" lon="12.2659928"><ele>720.0</ele><time>2026-04-25T08:36:46.39Z</time></trkpt><trkpt lat="43.7923049" lon="12.2659165"><ele>723.0</ele><time>2026-04-25T08:36:48.389Z</time></trkpt><trkpt lat="43.792227" lon="12.2658107"><ele>726.0</ele><time>2026-04-25T08:36:50.389Z</time></trkpt><trkpt lat="43.7921407" lon="12.2656811"><ele>725.4</ele><time>2026-04-25T08:36:52.39Z</time></trkpt><trkpt lat="43.792102" lon="12.2656098"><ele>724.8</ele><time>2026-04-25T08:36:53.39Z</time></trkpt><trkpt lat="43.7920453" lon="12.2655047"><ele>724.1999999999999</ele><time>2026-04-25T08:36:55.389Z</time></trkpt><trkpt lat="43.7919667" lon="12.2654267"><ele>723.5999999999999</ele><time>2026-04-25T08:36:57.39Z</time></trkpt><trkpt lat="43.7918917" lon="12.2653467"><ele>723.0</ele><time>2026-04-25T08:36:59.39Z</time></trkpt><trkpt lat="43.7918216" lon="12.2652474"><ele>727.0</ele><time>2026-04-25T08:37:01.39Z</time></trkpt><trkpt lat="43.7917444" lon="12.2651474"><ele>731.0</ele><time>2026-04-25T08:37:03.39Z</time></trkpt><trkpt lat="43.7916392" lon="12.2650571"><ele>735.0</ele><time>2026-04-25T08:37:05.389Z</time></trkpt><trkpt lat="43.7915815" lon="12.2650045"><ele>739.0</ele><time>2026-04-25T08:37:06.389Z</time></trkpt><trkpt lat="43.7915318" lon="12.2649486"><ele>743.0</ele><time>2026-04-25T08:37:07.39Z</time></trkpt><trkpt lat="43.7914407" lon="12.2648431"><ele>743.2</ele><time>2026-04-25T08:37:09.39Z</time></trkpt><trkpt lat="43.7913678" lon="12.2647453"><ele>743.4</ele><time>2026-04-25T08:37:11.39Z</time></trkpt><trkpt lat="43.7913086" lon="12.2646483"><ele>743.6</ele><time>2026-04-25T08:37:13.39Z</time></trkpt><trkpt lat="43.7912301" lon="12.2645392"><ele>743.8000000000001</ele><time>2026-04-25T08:37:15.39Z</time></trkpt><trkpt lat="43.7911325" lon="12.2644535"><ele>744.0</ele><time>2026-04-25T08:37:17.389Z</time></trkpt><trkpt lat="43.7910346" lon="12.264391"><ele>747.2</ele><time>2026-04-25T08:37:19.39Z</time></trkpt><trkpt lat="43.7909357" lon="12.2643345"><ele>750.4000000000001</ele><time>2026-04-25T08:37:21.39Z</time></trkpt><trkpt lat="43.7908399" lon="12.2642629"><ele>753.6</ele><time>2026-04-25T08:37:23.39Z</time></trkpt><trkpt lat="43.7907613" lon="12.2641953"><ele>756.8</ele><time>2026-04-25T08:37:25.39Z</time></trkpt><trkpt lat="43.7906943" lon="12.2641255"><ele>760.0</ele><time>2026-04-25T08:37:27.389Z</time></trkpt><trkpt lat="43.7906086" lon="12.2640478"><ele>760.0</ele><time>2026-04-25T08:37:29.39Z</time></trkpt><trkpt lat="43.7905119" lon="12.2639524"><ele>760.0</ele><time>2026-04-25T08:37:31.39Z</time></trkpt><trkpt lat="43.7904283" lon="12.2638751"><ele>760.0</ele><time>2026-04-25T08:37:33.39Z</time></trkpt><trkpt lat="43.7903357" lon="12.2637601"><ele>760.0</ele><time>2026-04-25T08:37:36.438Z</time></trkpt><trkpt lat="43.7903054" lon="12.2636558"><ele>760.0</ele><time>2026-04-25T08:37:38.385Z</time></trkpt><trkpt lat="43.7902415" lon="12.2635341"><ele>759.4</ele><time>2026-04-25T08:37:40.389Z</time></trkpt><trkpt lat="43.7901908" lon="12.2633837"><ele>758.8</ele><time>2026-04-25T08:37:42.39Z</time></trkpt><trkpt lat="43.7901512" lon="12.2632327"><ele>758.2</ele><time>2026-04-25T08:37:44.389Z</time></trkpt><trkpt lat="43.7900972" lon="12.2631267"><ele>757.6</ele><time>2026-04-25T08:37:46.39Z</time></trkpt><trkpt lat="43.7900743" lon="12.2630306"><ele>757.0</ele><time>2026-04-25T08:37:48.39Z</time></trkpt><trkpt lat="43.7900637" lon="12.2629075"><ele>760.6666666666667</ele><time>2026-04-25T08:37:50.39Z</time></trkpt><trkpt lat="43.7900167" lon="12.2627533"><ele>764.3333333333334</ele><time>2026-04-25T08:37:52.389Z</time></trkpt><trkpt lat="43.7899817" lon="12.26259"><ele>768.0</ele><time>2026-04-25T08:37:54.39Z</time></trkpt><trkpt lat="43.7899633" lon="12.262505"><ele>771.6666666666667</ele><time>2026-04-25T08:37:55.39Z</time></trkpt><trkpt lat="43.789945" lon="12.262415"><ele>775.3333333333334</ele><time>2026-04-25T08:37:56.389Z</time></trkpt><trkpt lat="43.7899225" lon="12.2623309"><ele>779.0</ele><time>2026-04-25T08:37:57.389Z</time></trkpt><trkpt lat="43.7898965" lon="12.262233"><ele>780.1666666666667</ele><time>2026-04-25T08:37:58.39Z</time></trkpt><trkpt lat="43.7898756" lon="12.2621465"><ele>781.3333333333334</ele><time>2026-04-25T08:37:59.39Z</time></trkpt><trkpt lat="43.7898367" lon="12.2619989"><ele>782.5</ele><time>2026-04-25T08:38:01.39Z</time></trkpt><trkpt lat="43.789799" lon="12.2618797"><ele>783.6666666666667</ele><time>2026-04-25T08:38:03.39Z</time></trkpt><trkpt lat="43.7897435" lon="12.2618073"><ele>784.8333333333334</ele><time>2026-04-25T08:38:05.39Z</time></trkpt><trkpt lat="43.7896613" lon="12.2617726"><ele>786.0</ele><time>2026-04-25T08:38:07.39Z</time></trkpt><trkpt lat="43.7895667" lon="12.2617569"><ele>786.0</ele><time>2026-04-25T08:38:09.389Z</time></trkpt><trkpt lat="43.7894874" lon="12.2617144"><ele>786.0</ele><time>2026-04-25T08:38:11.389Z</time></trkpt><trkpt lat="43.789411" lon="12.2615718"><ele>786.0</ele><time>2026-04-25T08:38:13.389Z</time></trkpt><trkpt lat="43.7893827" lon="12.261489"><ele>786.0</ele><time>2026-04-25T08:38:14.39Z</time></trkpt><trkpt lat="43.7893117" lon="12.2613479"><ele>786.0</ele><time>2026-04-25T08:38:16.389Z</time></trkpt><trkpt lat="43.7892621" lon="12.2612738"><ele>787.0</ele><time>2026-04-25T08:38:17.39Z</time></trkpt><trkpt lat="43.7892163" lon="12.2611956"><ele>788.0</ele><time>2026-04-25T08:38:18.39Z</time></trkpt><trkpt lat="43.7891734" lon="12.2611189"><ele>789.0</ele><time>2026-04-25T08:38:19.39Z</time></trkpt><trkpt lat="43.7891079" lon="12.2609882"><ele>790.0</ele><time>2026-04-25T08:38:21.389Z</time></trkpt><trkpt lat="43.7890567" lon="12.2609083"><ele>791.0</ele><time>2026-04-25T08:38:23.389Z</time></trkpt><trkpt lat="43.7890067" lon="12.26084"><ele>792.0</ele><time>2026-04-25T08:38:25.39Z</time></trkpt><trkpt lat="43.7889567" lon="12.2607667"><ele>792.0</ele><time>2026-04-25T08:38:27.39Z</time></trkpt><trkpt lat="43.788895" lon="12.2606883"><ele>792.0</ele><time>2026-04-25T08:38:29.39Z</time></trkpt><trkpt lat="43.788805" lon="12.2606217"><ele>792.0</ele><time>2026-04-25T08:38:31.389Z</time></trkpt><trkpt lat="43.7886967" lon="12.2605483"><ele>792.0</ele><time>2026-04-25T08:38:33.39Z</time></trkpt><trkpt lat="43.788635" lon="12.2605117"><ele>792.0</ele><time>2026-04-25T08:38:34.39Z</time></trkpt><trkpt lat="43.7885667" lon="12.26048"><ele>792.0</ele><time>2026-04-25T08:38:35.39Z</time></trkpt><trkpt lat="43.7884617" lon="12.2604233"><ele>794.8</ele><time>2026-04-25T08:38:37.39Z</time></trkpt><trkpt lat="43.78836" lon="12.2603783"><ele>797.6</ele><time>2026-04-25T08:38:39.389Z</time></trkpt><trkpt lat="43.7882667" lon="12.2603333"><ele>800.4</ele><time>2026-04-25T08:38:41.389Z</time></trkpt><trkpt lat="43.7881817" lon="12.2602733"><ele>803.1999999999999</ele><time>2026-04-25T08:38:43.389Z</time></trkpt><trkpt lat="43.7880683" lon="12.2601817"><ele>806.0</ele><time>2026-04-25T08:38:45.39Z</time></trkpt><trkpt lat="43.7880117" lon="12.2601117"><ele>806.0000000000001</ele><time>2026-04-25T08:38:46.39Z</time></trkpt><trkpt lat="43.7879517" lon="12.2600433"><ele>806.0</ele><time>2026-04-25T08:38:47.389Z</time></trkpt><trkpt lat="43.7879067" lon="12.25997"><ele>806.0</ele><time>2026-04-25T08:38:48.39Z</time></trkpt><trkpt lat="43.7878483" lon="12.259855"><ele>806.0</ele><time>2026-04-25T08:38:50.389Z</time></trkpt><trkpt lat="43.7877767" lon="12.2597467"><ele>806.0000000000001</ele><time>2026-04-25T08:38:52.389Z</time></trkpt><trkpt lat="43.7877283" lon="12.259685"><ele>806.0</ele><time>2026-04-25T08:38:53.39Z</time></trkpt><trkpt lat="43.7876783" lon="12.25963"><ele>808.1666666666667</ele><time>2026-04-25T08:38:54.389Z</time></trkpt><trkpt lat="43.787625" lon="12.25957"><ele>810.3333333333334</ele><time>2026-04-25T08:38:55.389Z</time></trkpt><trkpt lat="43.7875767" lon="12.2595133"><ele>812.5</ele><time>2026-04-25T08:38:56.39Z</time></trkpt><trkpt lat="43.7875383" lon="12.2594383"><ele>814.6666666666667</ele><time>2026-04-25T08:38:57.389Z</time></trkpt><trkpt lat="43.7874683" lon="12.2593283"><ele>816.8333333333334</ele><time>2026-04-25T08:38:59.389Z</time></trkpt><trkpt lat="43.7873783" lon="12.2592367"><ele>819.0</ele><time>2026-04-25T08:39:01.39Z</time></trkpt><trkpt lat="43.7872833" lon="12.25914"><ele>819.0</ele><time>2026-04-25T08:39:03.39Z</time></trkpt><trkpt lat="43.7872167" lon="12.2590517"><ele>819.0</ele><time>2026-04-25T08:39:05.389Z</time></trkpt><trkpt lat="43.7871533" lon="12.25896"><ele>819.0</ele><time>2026-04-25T08:39:07.389Z</time></trkpt><trkpt lat="43.7870717" lon="12.2589017"><ele>819.0</ele><time>2026-04-25T08:39:09.39Z</time></trkpt><trkpt lat="43.7869717" lon="12.2588467"><ele>819.0</ele><time>2026-04-25T08:39:11.389Z</time></trkpt><trkpt lat="43.7868783" lon="12.25879"><ele>818.2</ele><time>2026-04-25T08:39:13.39Z</time></trkpt><trkpt lat="43.7867783" lon="12.2587733"><ele>817.4000000000001</ele><time>2026-04-25T08:39:15.389Z</time></trkpt><trkpt lat="43.78666" lon="12.2587583"><ele>816.6</ele><time>2026-04-25T08:39:17.39Z</time></trkpt><trkpt lat="43.7865367" lon="12.258715"><ele>815.8</ele><time>2026-04-25T08:39:19.39Z</time></trkpt><trkpt lat="43.7864783" lon="12.258665"><ele>815.0</ele><time>2026-04-25T08:39:20.39Z</time></trkpt><trkpt lat="43.78642" lon="12.258605"><ele>815.0000000000001</ele><time>2026-04-25T08:39:21.389Z</time></trkpt><trkpt lat="43.7863667" lon="12.2585583"><ele>815.0</ele><time>2026-04-25T08:39:22.39Z</time></trkpt><trkpt lat="43.78631" lon="12.2585083"><ele>815.0</ele><time>2026-04-25T08:39:23.389Z</time></trkpt><trkpt lat="43.7862267" lon="12.2584333"><ele>815.0</ele><time>2026-04-25T08:39:25.39Z</time></trkpt><trkpt lat="43.7861517" lon="12.2583933"><ele>815.0000000000001</ele><time>2026-04-25T08:39:27.39Z</time></trkpt><trkpt lat="43.786085" lon="12.2583483"><ele>815.0</ele><time>2026-04-25T08:39:29.389Z</time></trkpt><trkpt lat="43.7860767" lon="12.2582483"><ele>815.0000000000001</ele><time>2026-04-25T08:39:32.389Z</time></trkpt><trkpt lat="43.7861217" lon="12.2581283"><ele>815.0</ele><time>2026-04-25T08:39:34.389Z</time></trkpt><trkpt lat="43.7861633" lon="12.2580067"><ele>815.0</ele><time>2026-04-25T08:39:36.39Z</time></trkpt><trkpt lat="43.7862017" lon="12.2578917"><ele>815.0</ele><time>2026-04-25T08:39:38.389Z</time></trkpt><trkpt lat="43.7862217" lon="12.257805"><ele>815.0000000000001</ele><time>2026-04-25T08:39:40.389Z</time></trkpt><trkpt lat="43.786195" lon="12.2577117"><ele>815.0</ele><time>2026-04-25T08:39:43.389Z</time></trkpt><trkpt lat="43.7861433" lon="12.25762"><ele>814.6</ele><time>2026-04-25T08:39:45.39Z</time></trkpt><trkpt lat="43.7860787" lon="12.257496"><ele>814.2</ele><time>2026-04-25T08:39:47.39Z</time></trkpt><trkpt lat="43.7860154" lon="12.2573654"><ele>813.8</ele><time>2026-04-25T08:39:49.39Z</time></trkpt><trkpt lat="43.7859708" lon="12.2572068"><ele>813.4</ele><time>2026-04-25T08:39:51.389Z</time></trkpt><trkpt lat="43.7859455" lon="12.257122"><ele>813.0</ele><time>2026-04-25T08:39:52.389Z</time></trkpt><trkpt lat="43.785916" lon="12.2570393"><ele>816.1666666666666</ele><time>2026-04-25T08:39:53.39Z</time></trkpt><trkpt lat="43.7858831" lon="12.2569579"><ele>819.3333333333333</ele><time>2026-04-25T08:39:54.39Z</time></trkpt><trkpt lat="43.7858479" lon="12.2568832"><ele>822.5</ele><time>2026-04-25T08:39:55.389Z</time></trkpt><trkpt lat="43.7858005" lon="12.2567597"><ele>825.6666666666666</ele><time>2026-04-25T08:39:57.39Z</time></trkpt><trkpt lat="43.7857724" lon="12.2566255"><ele>828.8333333333333</ele><time>2026-04-25T08:39:59.389Z</time></trkpt><trkpt lat="43.785725" lon="12.2565085"><ele>832.0</ele><time>2026-04-25T08:40:01.389Z</time></trkpt><trkpt lat="43.7856615" lon="12.2564566"><ele>831.9999999999999</ele><time>2026-04-25T08:40:03.39Z</time></trkpt><trkpt lat="43.785595" lon="12.2564612"><ele>832.0</ele><time>2026-04-25T08:40:05.389Z</time></trkpt><trkpt lat="43.7854991" lon="12.2564572"><ele>832.0</ele><time>2026-04-25T08:40:07.39Z</time></trkpt><trkpt lat="43.785389" lon="12.2564019"><ele>832.0</ele><time>2026-04-25T08:40:09.39Z</time></trkpt><trkpt lat="43.7853001" lon="12.2563471"><ele>831.9999999999999</ele><time>2026-04-25T08:40:11.39Z</time></trkpt><trkpt lat="43.78524" lon="12.2563032"><ele>832.0</ele><time>2026-04-25T08:40:13.39Z</time></trkpt><trkpt lat="43.7851561" lon="12.256239"><ele>834.4000000000001</ele><time>2026-04-25T08:40:15.389Z</time></trkpt><trkpt lat="43.7850617" lon="12.256185"><ele>836.8000000000001</ele><time>2026-04-25T08:40:17.39Z</time></trkpt><trkpt lat="43.7849719" lon="12.2561337"><ele>839.2</ele><time>2026-04-25T08:40:19.389Z</time></trkpt><trkpt lat="43.7848917" lon="12.2560467"><ele>841.6</ele><time>2026-04-25T08:40:21.389Z</time></trkpt><trkpt lat="43.78484" lon="12.255995"><ele>844.0</ele><time>2026-04-25T08:40:22.389Z</time></trkpt><trkpt lat="43.7847533" lon="12.2558767"><ele>843.9999999999999</ele><time>2026-04-25T08:40:24.389Z</time></trkpt><trkpt lat="43.78471" lon="12.2558067"><ele>844.0</ele><time>2026-04-25T08:40:25.389Z</time></trkpt><trkpt lat="43.7846683" lon="12.25574"><ele>844.0</ele><time>2026-04-25T08:40:26.39Z</time></trkpt><trkpt lat="43.7846" lon="12.2556083"><ele>844.0</ele><time>2026-04-25T08:40:28.39Z</time></trkpt><trkpt lat="43.78455" lon="12.2555533"><ele>843.9999999999999</ele><time>2026-04-25T08:40:29.39Z</time></trkpt><trkpt lat="43.7844633" lon="12.2554517"><ele>844.0</ele><time>2026-04-25T08:40:31.389Z</time></trkpt><trkpt lat="43.7843817" lon="12.2553667"><ele>844.8333333333333</ele><time>2026-04-25T08:40:33.389Z</time></trkpt><trkpt lat="43.7843167" lon="12.2552917"><ele>845.6666666666666</ele><time>2026-04-25T08:40:35.39Z</time></trkpt><trkpt lat="43.7842633" lon="12.255245"><ele>846.5</ele><time>2026-04-25T08:40:37.39Z</time></trkpt><trkpt lat="43.7841983" lon="12.2551883"><ele>847.3333333333333</ele><time>2026-04-25T08:40:39.389Z</time></trkpt><trkpt lat="43.7841317" lon="12.255095"><ele>848.1666666666666</ele><time>2026-04-25T08:40:41.39Z</time></trkpt><trkpt lat="43.7840533" lon="12.255015"><ele>849.0</ele><time>2026-04-25T08:40:43.39Z</time></trkpt><trkpt lat="43.7839683" lon="12.2549533"><ele>849.0</ele><time>2026-04-25T08:40:45.389Z</time></trkpt><trkpt lat="43.7838733" lon="12.2548983"><ele>849.0</ele><time>2026-04-25T08:40:47.39Z</time></trkpt><trkpt lat="43.7837917" lon="12.2548317"><ele>849.0</ele><time>2026-04-25T08:40:49.39Z</time></trkpt><trkpt lat="43.7837017" lon="12.2547567"><ele>849.0</ele><time>2026-04-25T08:40:51.39Z</time></trkpt><trkpt lat="43.7835983" lon="12.2547067"><ele>849.0</ele><time>2026-04-25T08:40:53.39Z</time></trkpt><trkpt lat="43.7834933" lon="12.2546817"><ele>850.1666666666666</ele><time>2026-04-25T08:40:55.389Z</time></trkpt><trkpt lat="43.7834133" lon="12.2546467"><ele>851.3333333333333</ele><time>2026-04-25T08:40:57.39Z</time></trkpt><trkpt lat="43.7833733" lon="12.25455"><ele>852.5</ele><time>2026-04-25T08:40:59.389Z</time></trkpt><trkpt lat="43.7833503" lon="12.2543995"><ele>853.6666666666666</ele><time>2026-04-25T08:41:03.39Z</time></trkpt><trkpt lat="43.7833534" lon="12.2544954"><ele>854.8333333333333</ele><time>2026-04-25T08:41:06.41Z</time></trkpt><trkpt lat="43.78334" lon="12.254395"><ele>856.0</ele><time>2026-04-25T08:41:29.39Z</time></trkpt><trkpt lat="43.78335" lon="12.2543017"><ele>855.9999999999999</ele><time>2026-04-25T08:41:35.389Z</time></trkpt><trkpt lat="43.7833767" lon="12.2541667"><ele>856.0</ele><time>2026-04-25T08:41:48.39Z</time></trkpt><trkpt lat="43.7833867" lon="12.254055"><ele>856.0</ele><time>2026-04-25T08:41:53.39Z</time></trkpt><trkpt lat="43.7833983" lon="12.25396"><ele>856.0</ele><time>2026-04-25T08:41:55.389Z</time></trkpt><trkpt lat="43.7834083" lon="12.25385"><ele>855.9999999999999</ele><time>2026-04-25T08:41:57.389Z</time></trkpt><trkpt lat="43.7834133" lon="12.2537417"><ele>856.0</ele><time>2026-04-25T08:42:00.39Z</time></trkpt><trkpt lat="43.7834117" lon="12.25362"><ele>855.8333333333333</ele><time>2026-04-25T08:42:03.39Z</time></trkpt><trkpt lat="43.783405" lon="12.2535317"><ele>855.6666666666666</ele><time>2026-04-25T08:42:05.39Z</time></trkpt><trkpt lat="43.7833717" lon="12.25345"><ele>855.5</ele><time>2026-04-25T08:42:10.39Z</time></trkpt><trkpt lat="43.7833483" lon="12.2532983"><ele>855.3333333333333</ele><time>2026-04-25T08:42:25.389Z</time></trkpt><trkpt lat="43.7833517" lon="12.2531767"><ele>855.1666666666666</ele><time>2026-04-25T08:42:26.39Z</time></trkpt><trkpt lat="43.7833567" lon="12.2530333"><ele>855.0</ele><time>2026-04-25T08:42:27.389Z</time></trkpt><trkpt lat="43.7833517" lon="12.25285"><ele>854.25</ele><time>2026-04-25T08:42:28.39Z</time></trkpt><trkpt lat="43.7833467" lon="12.25266"><ele>853.5</ele><time>2026-04-25T08:42:29.39Z</time></trkpt><trkpt lat="43.78334" lon="12.252475"><ele>852.75</ele><time>2026-04-25T08:42:30.389Z</time></trkpt><trkpt lat="43.7833367" lon="12.2522983"><ele>852.0</ele><time>2026-04-25T08:42:31.39Z</time></trkpt><trkpt lat="43.7833367" lon="12.2521383"><ele>851.0</ele><time>2026-04-25T08:42:32.39Z</time></trkpt><trkpt lat="43.78334" lon="12.2519783"><ele>850.0</ele><time>2026-04-25T08:42:33.39Z</time></trkpt><trkpt lat="43.783335" lon="12.2518217"><ele>849.0</ele><time>2026-04-25T08:42:34.389Z</time></trkpt><trkpt lat="43.7833383" lon="12.2516767"><ele>848.0</ele><time>2026-04-25T08:42:35.39Z</time></trkpt><trkpt lat="43.783335" lon="12.2515367"><ele>847.0</ele><time>2026-04-25T08:42:36.39Z</time></trkpt><trkpt lat="43.7833267" lon="12.251385"><ele>846.0</ele><time>2026-04-25T08:42:37.39Z</time></trkpt><trkpt lat="43.7833133" lon="12.25123"><ele>845.0</ele><time>2026-04-25T08:42:38.389Z</time></trkpt><trkpt lat="43.7832983" lon="12.2510833"><ele>844.0</ele><time>2026-04-25T08:42:39.39Z</time></trkpt><trkpt lat="43.7832767" lon="12.250965"><ele>843.0</ele><time>2026-04-25T08:42:40.389Z</time></trkpt><trkpt lat="43.7832667" lon="12.250865"><ele>842.0</ele><time>2026-04-25T08:42:41.389Z</time></trkpt><trkpt lat="43.7832583" lon="12.2507667"><ele>842.0000000000001</ele><time>2026-04-25T08:42:42.39Z</time></trkpt><trkpt lat="43.78325" lon="12.250665"><ele>842.0</ele><time>2026-04-25T08:42:43.39Z</time></trkpt><trkpt lat="43.7832467" lon="12.25055"><ele>842.0</ele><time>2026-04-25T08:42:44.389Z</time></trkpt><trkpt lat="43.7832433" lon="12.2504317"><ele>842.0</ele><time>2026-04-25T08:42:45.39Z</time></trkpt><trkpt lat="43.7832433" lon="12.2503"><ele>842.0000000000001</ele><time>2026-04-25T08:42:46.389Z</time></trkpt><trkpt lat="43.7832517" lon="12.250165"><ele>842.0</ele><time>2026-04-25T08:42:47.39Z</time></trkpt><trkpt lat="43.7832533" lon="12.250025"><ele>841.0</ele><time>2026-04-25T08:42:48.389Z</time></trkpt><trkpt lat="43.78326" lon="12.2498817"><ele>840.0</ele><time>2026-04-25T08:42:49.39Z</time></trkpt><trkpt lat="43.7832683" lon="12.249735"><ele>839.0</ele><time>2026-04-25T08:42:50.39Z</time></trkpt><trkpt lat="43.7832683" lon="12.2495833"><ele>838.0</ele><time>2026-04-25T08:42:51.389Z</time></trkpt><trkpt lat="43.78327" lon="12.2494367"><ele>837.0</ele><time>2026-04-25T08:42:52.389Z</time></trkpt><trkpt lat="43.7832733" lon="12.24929"><ele>836.2</ele><time>2026-04-25T08:42:53.39Z</time></trkpt><trkpt lat="43.783275" lon="12.2491417"><ele>835.4000000000001</ele><time>2026-04-25T08:42:54.389Z</time></trkpt><trkpt lat="43.7832783" lon="12.2490033"><ele>834.5999999999999</ele><time>2026-04-25T08:42:55.39Z</time></trkpt><trkpt lat="43.783285" lon="12.248875"><ele>833.8</ele><time>2026-04-25T08:42:56.389Z</time></trkpt><trkpt lat="43.78329" lon="12.2487467"><ele>833.0</ele><time>2026-04-25T08:42:57.39Z</time></trkpt><trkpt lat="43.783285" lon="12.2486233"><ele>832.8333333333334</ele><time>2026-04-25T08:42:58.39Z</time></trkpt><trkpt lat="43.7832833" lon="12.2485317"><ele>832.6666666666667</ele><time>2026-04-25T08:42:59.39Z</time></trkpt><trkpt lat="43.7832933" lon="12.2484"><ele>832.5</ele><time>2026-04-25T08:43:01.39Z</time></trkpt><trkpt lat="43.78332" lon="12.2483133"><ele>832.3333333333333</ele><time>2026-04-25T08:43:03.39Z</time></trkpt><trkpt lat="43.7833617" lon="12.2481667"><ele>832.1666666666666</ele><time>2026-04-25T08:44:34.39Z</time></trkpt><trkpt lat="43.7833783" lon="12.2480233"><ele>832.0</ele><time>2026-04-25T08:44:36.39Z</time></trkpt><trkpt lat="43.7834" lon="12.2479367"><ele>831.4000000000001</ele><time>2026-04-25T08:44:37.39Z</time></trkpt><trkpt lat="43.783435" lon="12.24785"><ele>830.8000000000001</ele><time>2026-04-25T08:44:38.39Z</time></trkpt><trkpt lat="43.7834967" lon="12.24774"><ele>830.2</ele><time>2026-04-25T08:44:39.39Z</time></trkpt><trkpt lat="43.7835867" lon="12.2476233"><ele>829.6</ele><time>2026-04-25T08:44:40.39Z</time></trkpt><trkpt lat="43.783685" lon="12.2474917"><ele>829.0</ele><time>2026-04-25T08:44:41.389Z</time></trkpt><trkpt lat="43.7837733" lon="12.2473567"><ele>830.0</ele><time>2026-04-25T08:44:42.389Z</time></trkpt><trkpt lat="43.7838717" lon="12.24722"><ele>831.0</ele><time>2026-04-25T08:44:43.39Z</time></trkpt><trkpt lat="43.7839667" lon="12.2470767"><ele>832.0</ele><time>2026-04-25T08:44:44.389Z</time></trkpt><trkpt lat="43.784065" lon="12.24694"><ele>833.0</ele><time>2026-04-25T08:44:45.389Z</time></trkpt><trkpt lat="43.7841567" lon="12.2468117"><ele>833.0</ele><time>2026-04-25T08:44:46.389Z</time></trkpt><trkpt lat="43.7842633" lon="12.2466833"><ele>833.0</ele><time>2026-04-25T08:44:47.389Z</time></trkpt><trkpt lat="43.7843833" lon="12.2465667"><ele>833.0</ele><time>2026-04-25T08:44:48.39Z</time></trkpt><trkpt lat="43.7845067" lon="12.2464717"><ele>833.0</ele><time>2026-04-25T08:44:49.389Z</time></trkpt><trkpt lat="43.7846367" lon="12.2463933"><ele>833.25</ele><time>2026-04-25T08:44:50.389Z</time></trkpt><trkpt lat="43.7847633" lon="12.2463133"><ele>833.5</ele><time>2026-04-25T08:44:51.39Z</time></trkpt><trkpt lat="43.7849017" lon="12.2462333"><ele>833.75</ele><time>2026-04-25T08:44:52.39Z</time></trkpt><trkpt lat="43.7850267" lon="12.24615"><ele>834.0</ele><time>2026-04-25T08:44:53.389Z</time></trkpt><trkpt lat="43.785155" lon="12.2460683"><ele>832.5</ele><time>2026-04-25T08:44:54.389Z</time></trkpt><trkpt lat="43.7852767" lon="12.245985"><ele>831.0</ele><time>2026-04-25T08:44:55.39Z</time></trkpt><trkpt lat="43.7853933" lon="12.2459133"><ele>829.5</ele><time>2026-04-25T08:44:56.39Z</time></trkpt><trkpt lat="43.7855133" lon="12.2458433"><ele>828.0</ele><time>2026-04-25T08:44:57.389Z</time></trkpt><trkpt lat="43.7856267" lon="12.24581"><ele>828.0</ele><time>2026-04-25T08:44:58.39Z</time></trkpt><trkpt lat="43.7857433" lon="12.2458217"><ele>828.0</ele><time>2026-04-25T08:44:59.39Z</time></trkpt><trkpt lat="43.7858633" lon="12.2458683"><ele>828.0</ele><time>2026-04-25T08:45:00.39Z</time></trkpt><trkpt lat="43.7859917" lon="12.2459483"><ele>828.0</ele><time>2026-04-25T08:45:01.39Z</time></trkpt><trkpt lat="43.7861233" lon="12.24604"><ele>829.75</ele><time>2026-04-25T08:45:02.389Z</time></trkpt><trkpt lat="43.7862483" lon="12.2461283"><ele>831.5</ele><time>2026-04-25T08:45:03.39Z</time></trkpt><trkpt lat="43.7863733" lon="12.246215"><ele>833.25</ele><time>2026-04-25T08:45:04.39Z</time></trkpt><trkpt lat="43.786495" lon="12.2462967"><ele>835.0</ele><time>2026-04-25T08:45:05.39Z</time></trkpt><trkpt lat="43.78661" lon="12.2463733"><ele>835.0</ele><time>2026-04-25T08:45:06.389Z</time></trkpt><trkpt lat="43.7867317" lon="12.2464383"><ele>835.0</ele><time>2026-04-25T08:45:07.389Z</time></trkpt><trkpt lat="43.78687" lon="12.2464867"><ele>835.0</ele><time>2026-04-25T08:45:08.389Z</time></trkpt><trkpt lat="43.7870167" lon="12.2464967"><ele>835.0</ele><time>2026-04-25T08:45:09.39Z</time></trkpt><trkpt lat="43.7871533" lon="12.246495"><ele>830.25</ele><time>2026-04-25T08:45:10.389Z</time></trkpt><trkpt lat="43.7872883" lon="12.24649"><ele>825.5</ele><time>2026-04-25T08:45:11.389Z</time></trkpt><trkpt lat="43.7874217" lon="12.246495"><ele>820.75</ele><time>2026-04-25T08:45:12.389Z</time></trkpt><trkpt lat="43.7875483" lon="12.246525"><ele>816.0</ele><time>2026-04-25T08:45:13.39Z</time></trkpt><trkpt lat="43.7876783" lon="12.2465917"><ele>815.0</ele><time>2026-04-25T08:45:14.389Z</time></trkpt><trkpt lat="43.7878083" lon="12.2466833"><ele>814.0</ele><time>2026-04-25T08:45:15.39Z</time></trkpt><trkpt lat="43.7879333" lon="12.24679"><ele>813.0</ele><time>2026-04-25T08:45:16.39Z</time></trkpt><trkpt lat="43.788055" lon="12.2469017"><ele>812.0</ele><time>2026-04-25T08:45:17.389Z</time></trkpt><trkpt lat="43.7881733" lon="12.2470017"><ele>812.0</ele><time>2026-04-25T08:45:18.389Z</time></trkpt><trkpt lat="43.7882933" lon="12.2471"><ele>812.0</ele><time>2026-04-25T08:45:19.389Z</time></trkpt><trkpt lat="43.7884067" lon="12.2471933"><ele>812.0</ele><time>2026-04-25T08:45:20.39Z</time></trkpt><trkpt lat="43.78852" lon="12.2472833"><ele>812.0</ele><time>2026-04-25T08:45:21.39Z</time></trkpt><trkpt lat="43.78864" lon="12.2473683"><ele>809.25</ele><time>2026-04-25T08:45:22.39Z</time></trkpt><trkpt lat="43.7887767" lon="12.247445"><ele>806.5</ele><time>2026-04-25T08:45:23.389Z</time></trkpt><trkpt lat="43.788915" lon="12.2475233"><ele>803.75</ele><time>2026-04-25T08:45:24.39Z</time></trkpt><trkpt lat="43.7890583" lon="12.2475867"><ele>801.0</ele><time>2026-04-25T08:45:25.39Z</time></trkpt><trkpt lat="43.7891933" lon="12.247645"><ele>801.0</ele><time>2026-04-25T08:45:26.39Z</time></trkpt><trkpt lat="43.78932" lon="12.247695"><ele>801.0</ele><time>2026-04-25T08:45:27.39Z</time></trkpt><trkpt lat="43.7894483" lon="12.2477267"><ele>801.0</ele><time>2026-04-25T08:45:28.389Z</time></trkpt><trkpt lat="43.7895717" lon="12.24774"><ele>801.0</ele><time>2026-04-25T08:45:29.39Z</time></trkpt><trkpt lat="43.7896883" lon="12.2477283"><ele>798.75</ele><time>2026-04-25T08:45:30.389Z</time></trkpt><trkpt lat="43.78981" lon="12.2476933"><ele>796.5</ele><time>2026-04-25T08:45:31.39Z</time></trkpt><trkpt lat="43.7899317" lon="12.24762"><ele>794.25</ele><time>2026-04-25T08:45:32.39Z</time></trkpt><trkpt lat="43.79004" lon="12.2475033"><ele>792.0</ele><time>2026-04-25T08:45:33.389Z</time></trkpt><trkpt lat="43.7901383" lon="12.2473767"><ele>789.5</ele><time>2026-04-25T08:45:34.39Z</time></trkpt><trkpt lat="43.7902367" lon="12.247255"><ele>787.0</ele><time>2026-04-25T08:45:35.389Z</time></trkpt><trkpt lat="43.7903333" lon="12.2471433"><ele>784.5</ele><time>2026-04-25T08:45:36.39Z</time></trkpt><trkpt lat="43.7904267" lon="12.2470267"><ele>782.0</ele><time>2026-04-25T08:45:37.39Z</time></trkpt><trkpt lat="43.7905117" lon="12.2469083"><ele>782.0</ele><time>2026-04-25T08:45:38.389Z</time></trkpt><trkpt lat="43.7906017" lon="12.2467833"><ele>782.0</ele><time>2026-04-25T08:45:39.389Z</time></trkpt><trkpt lat="43.790705" lon="12.24666"><ele>782.0</ele><time>2026-04-25T08:45:40.389Z</time></trkpt><trkpt lat="43.79081" lon="12.2465517"><ele>782.0</ele><time>2026-04-25T08:45:41.389Z</time></trkpt><trkpt lat="43.79091" lon="12.246445"><ele>779.75</ele><time>2026-04-25T08:45:42.39Z</time></trkpt><trkpt lat="43.7910167" lon="12.246335"><ele>777.5</ele><time>2026-04-25T08:45:43.389Z</time></trkpt><trkpt lat="43.7911183" lon="12.2462283"><ele>775.25</ele><time>2026-04-25T08:45:44.39Z</time></trkpt><trkpt lat="43.791225" lon="12.2461267"><ele>773.0</ele><time>2026-04-25T08:45:45.389Z</time></trkpt><trkpt lat="43.7913217" lon="12.2460033"><ele>773.0</ele><time>2026-04-25T08:45:46.389Z</time></trkpt><trkpt lat="43.7914067" lon="12.2458683"><ele>773.0</ele><time>2026-04-25T08:45:47.39Z</time></trkpt><trkpt lat="43.7914867" lon="12.2457217"><ele>773.0</ele><time>2026-04-25T08:45:48.39Z</time></trkpt><trkpt lat="43.7915667" lon="12.24557"><ele>773.0</ele><time>2026-04-25T08:45:49.39Z</time></trkpt><trkpt lat="43.7916417" lon="12.24542"><ele>774.5</ele><time>2026-04-25T08:45:50.39Z</time></trkpt><trkpt lat="43.7917117" lon="12.2452683"><ele>776.0</ele><time>2026-04-25T08:45:51.389Z</time></trkpt><trkpt lat="43.79178" lon="12.2451133"><ele>777.5</ele><time>2026-04-25T08:45:52.389Z</time></trkpt><trkpt lat="43.7918383" lon="12.2449633"><ele>779.0</ele><time>2026-04-25T08:45:53.389Z</time></trkpt><trkpt lat="43.7919033" lon="12.2448133"><ele>776.0</ele><time>2026-04-25T08:45:54.389Z</time></trkpt><trkpt lat="43.7919667" lon="12.244675"><ele>773.0</ele><time>2026-04-25T08:45:55.39Z</time></trkpt><trkpt lat="43.79204" lon="12.2445383"><ele>770.0</ele><time>2026-04-25T08:45:56.389Z</time></trkpt><trkpt lat="43.7921167" lon="12.2444167"><ele>767.0</ele><time>2026-04-25T08:45:57.389Z</time></trkpt><trkpt lat="43.792185" lon="12.2443117"><ele>767.0</ele><time>2026-04-25T08:45:58.389Z</time></trkpt><trkpt lat="43.7922417" lon="12.2442283"><ele>767.0</ele><time>2026-04-25T08:45:59.39Z</time></trkpt><trkpt lat="43.7923017" lon="12.2441767"><ele>767.0</ele><time>2026-04-25T08:46:00.389Z</time></trkpt><trkpt lat="43.7923783" lon="12.2441667"><ele>767.0</ele><time>2026-04-25T08:46:01.389Z</time></trkpt><trkpt lat="43.7924533" lon="12.2442283"><ele>767.0</ele><time>2026-04-25T08:46:02.39Z</time></trkpt><trkpt lat="43.7924983" lon="12.2443333"><ele>767.0</ele><time>2026-04-25T08:46:03.389Z</time></trkpt><trkpt lat="43.7925017" lon="12.244455"><ele>767.0</ele><time>2026-04-25T08:46:04.39Z</time></trkpt><trkpt lat="43.79247" lon="12.2445767"><ele>767.0</ele><time>2026-04-25T08:46:05.39Z</time></trkpt><trkpt lat="43.7924167" lon="12.24469"><ele>767.0</ele><time>2026-04-25T08:46:06.39Z</time></trkpt><trkpt lat="43.7923233" lon="12.244805"><ele>767.0</ele><time>2026-04-25T08:46:07.39Z</time></trkpt><trkpt lat="43.7922333" lon="12.2449267"><ele>767.0</ele><time>2026-04-25T08:46:08.39Z</time></trkpt><trkpt lat="43.7921517" lon="12.245055"><ele>766.2</ele><time>2026-04-25T08:46:09.389Z</time></trkpt><trkpt lat="43.792095" lon="12.245195"><ele>765.4000000000001</ele><time>2026-04-25T08:46:10.39Z</time></trkpt><trkpt lat="43.7920583" lon="12.24533"><ele>764.5999999999999</ele><time>2026-04-25T08:46:11.39Z</time></trkpt><trkpt lat="43.7920483" lon="12.24547"><ele>763.8</ele><time>2026-04-25T08:46:12.389Z</time></trkpt><trkpt lat="43.7920733" lon="12.2456117"><ele>763.0</ele><time>2026-04-25T08:46:13.389Z</time></trkpt><trkpt lat="43.79213" lon="12.245735"><ele>763.0</ele><time>2026-04-25T08:46:14.39Z</time></trkpt><trkpt lat="43.79221" lon="12.2458183"><ele>763.0</ele><time>2026-04-25T08:46:15.389Z</time></trkpt><trkpt lat="43.7923" lon="12.2458417"><ele>763.0</ele><time>2026-04-25T08:46:16.389Z</time></trkpt><trkpt lat="43.7923933" lon="12.2457783"><ele>763.0</ele><time>2026-04-25T08:46:17.39Z</time></trkpt><trkpt lat="43.7924883" lon="12.2456633"><ele>763.0</ele><time>2026-04-25T08:46:18.39Z</time></trkpt><trkpt lat="43.7925817" lon="12.24552"><ele>757.75</ele><time>2026-04-25T08:46:19.389Z</time></trkpt><trkpt lat="43.792675" lon="12.2453717"><ele>752.5</ele><time>2026-04-25T08:46:20.39Z</time></trkpt><trkpt lat="43.79276" lon="12.2452267"><ele>747.25</ele><time>2026-04-25T08:46:21.389Z</time></trkpt><trkpt lat="43.7928433" lon="12.2450867"><ele>742.0</ele><time>2026-04-25T08:46:22.39Z</time></trkpt><trkpt lat="43.7929217" lon="12.24494"><ele>742.0</ele><time>2026-04-25T08:46:23.389Z</time></trkpt><trkpt lat="43.7930033" lon="12.2448033"><ele>742.0</ele><time>2026-04-25T08:46:24.389Z</time></trkpt><trkpt lat="43.7930817" lon="12.2446767"><ele>742.0</ele><time>2026-04-25T08:46:25.39Z</time></trkpt><trkpt lat="43.7931583" lon="12.2445583"><ele>742.0</ele><time>2026-04-25T08:46:26.39Z</time></trkpt><trkpt lat="43.7932367" lon="12.2444367"><ele>741.6</ele><time>2026-04-25T08:46:27.389Z</time></trkpt><trkpt lat="43.79331" lon="12.2443233"><ele>741.2</ele><time>2026-04-25T08:46:28.389Z</time></trkpt><trkpt lat="43.79334" lon="12.244175"><ele>740.8</ele><time>2026-04-25T08:46:29.39Z</time></trkpt><trkpt lat="43.79333" lon="12.2440233"><ele>740.4</ele><time>2026-04-25T08:46:30.39Z</time></trkpt><trkpt lat="43.793285" lon="12.2438783"><ele>740.0</ele><time>2026-04-25T08:46:31.39Z</time></trkpt><trkpt lat="43.793225" lon="12.2437367"><ele>738.5</ele><time>2026-04-25T08:46:32.389Z</time></trkpt><trkpt lat="43.7931783" lon="12.24359"><ele>737.0</ele><time>2026-04-25T08:46:33.39Z</time></trkpt><trkpt lat="43.79315" lon="12.24344"><ele>735.5</ele><time>2026-04-25T08:46:34.39Z</time></trkpt><trkpt lat="43.793165" lon="12.2432817"><ele>734.0</ele><time>2026-04-25T08:46:35.389Z</time></trkpt><trkpt lat="43.7932033" lon="12.2431367"><ele>733.1666666666666</ele><time>2026-04-25T08:46:36.39Z</time></trkpt><trkpt lat="43.7932667" lon="12.2430133"><ele>732.3333333333333</ele><time>2026-04-25T08:46:37.39Z</time></trkpt><trkpt lat="43.7933267" lon="12.242905"><ele>731.5</ele><time>2026-04-25T08:46:38.39Z</time></trkpt><trkpt lat="43.7933717" lon="12.2428033"><ele>730.6666666666666</ele><time>2026-04-25T08:46:39.389Z</time></trkpt><trkpt lat="43.7934033" lon="12.2427"><ele>729.8333333333334</ele><time>2026-04-25T08:46:40.389Z</time></trkpt><trkpt lat="43.793405" lon="12.2425983"><ele>729.0</ele><time>2026-04-25T08:46:41.39Z</time></trkpt><trkpt lat="43.7933767" lon="12.2424867"><ele>729.0</ele><time>2026-04-25T08:46:42.39Z</time></trkpt><trkpt lat="43.7932933" lon="12.2424117"><ele>729.0</ele><time>2026-04-25T08:46:43.39Z</time></trkpt><trkpt lat="43.7931883" lon="12.2423567"><ele>729.0</ele><time>2026-04-25T08:46:44.389Z</time></trkpt><trkpt lat="43.793095" lon="12.2422967"><ele>729.0</ele><time>2026-04-25T08:46:45.39Z</time></trkpt><trkpt lat="43.7929983" lon="12.242215"><ele>729.0</ele><time>2026-04-25T08:46:46.39Z</time></trkpt><trkpt lat="43.7929283" lon="12.2421067"><ele>727.5</ele><time>2026-04-25T08:46:47.389Z</time></trkpt><trkpt lat="43.79289" lon="12.241955"><ele>726.0</ele><time>2026-04-25T08:46:48.39Z</time></trkpt><trkpt lat="43.7928583" lon="12.2417917"><ele>724.5</ele><time>2026-04-25T08:46:49.39Z</time></trkpt><trkpt lat="43.7928383" lon="12.241625"><ele>723.0</ele><time>2026-04-25T08:46:50.39Z</time></trkpt><trkpt lat="43.79282" lon="12.241465"><ele>723.0</ele><time>2026-04-25T08:46:51.39Z</time></trkpt><trkpt lat="43.7928267" lon="12.2413133"><ele>723.0</ele><time>2026-04-25T08:46:52.39Z</time></trkpt><trkpt lat="43.7928567" lon="12.2411633"><ele>723.0</ele><time>2026-04-25T08:46:53.389Z</time></trkpt><trkpt lat="43.7929017" lon="12.2410217"><ele>723.0</ele><time>2026-04-25T08:46:54.39Z</time></trkpt><trkpt lat="43.7929767" lon="12.2408983"><ele>723.0</ele><time>2026-04-25T08:46:55.39Z</time></trkpt><trkpt lat="43.7930767" lon="12.240805"><ele>723.0</ele><time>2026-04-25T08:46:56.39Z</time></trkpt><trkpt lat="43.7931783" lon="12.24073"><ele>723.0</ele><time>2026-04-25T08:46:57.389Z</time></trkpt><trkpt lat="43.7932717" lon="12.2406633"><ele>723.0</ele><time>2026-04-25T08:46:58.39Z</time></trkpt><trkpt lat="43.7933583" lon="12.2405933"><ele>723.0</ele><time>2026-04-25T08:46:59.389Z</time></trkpt><trkpt lat="43.7934417" lon="12.240535"><ele>722.8333333333334</ele><time>2026-04-25T08:47:00.39Z</time></trkpt><trkpt lat="43.7935167" lon="12.2404833"><ele>722.6666666666666</ele><time>2026-04-25T08:47:01.39Z</time></trkpt><trkpt lat="43.7935867" lon="12.24044"><ele>722.5</ele><time>2026-04-25T08:47:02.389Z</time></trkpt><trkpt lat="43.7936483" lon="12.2404133"><ele>722.3333333333333</ele><time>2026-04-25T08:47:03.389Z</time></trkpt><trkpt lat="43.79375" lon="12.2404133"><ele>722.1666666666666</ele><time>2026-04-25T08:47:05.39Z</time></trkpt><trkpt lat="43.7938117" lon="12.2403883"><ele>722.0</ele><time>2026-04-25T08:47:06.389Z</time></trkpt><trkpt lat="43.793885" lon="12.2403367"><ele>722.0</ele><time>2026-04-25T08:47:07.39Z</time></trkpt><trkpt lat="43.7939517" lon="12.2402367"><ele>722.0</ele><time>2026-04-25T08:47:08.39Z</time></trkpt><trkpt lat="43.7940167" lon="12.240115"><ele>722.0</ele><time>2026-04-25T08:47:09.39Z</time></trkpt><trkpt lat="43.7940767" lon="12.2399933"><ele>722.0</ele><time>2026-04-25T08:47:10.389Z</time></trkpt><trkpt lat="43.7941367" lon="12.239865"><ele>722.0</ele><time>2026-04-25T08:47:11.39Z</time></trkpt><trkpt lat="43.7942117" lon="12.23974"><ele>723.0</ele><time>2026-04-25T08:47:12.39Z</time></trkpt><trkpt lat="43.7943067" lon="12.2396283"><ele>724.0</ele><time>2026-04-25T08:47:13.39Z</time></trkpt><trkpt lat="43.7943967" lon="12.239525"><ele>725.0</ele><time>2026-04-25T08:47:14.39Z</time></trkpt><trkpt lat="43.7944767" lon="12.2393967"><ele>726.0</ele><time>2026-04-25T08:47:15.389Z</time></trkpt><trkpt lat="43.79454" lon="12.2392617"><ele>726.0</ele><time>2026-04-25T08:47:16.39Z</time></trkpt><trkpt lat="43.7946183" lon="12.239145"><ele>726.0</ele><time>2026-04-25T08:47:17.39Z</time></trkpt><trkpt lat="43.794715" lon="12.2390533"><ele>726.0</ele><time>2026-04-25T08:47:18.39Z</time></trkpt><trkpt lat="43.7948083" lon="12.2390117"><ele>726.0</ele><time>2026-04-25T08:47:19.389Z</time></trkpt><trkpt lat="43.794905" lon="12.23899"><ele>726.0</ele><time>2026-04-25T08:47:20.39Z</time></trkpt><trkpt lat="43.794975" lon="12.2389733"><ele>728.0</ele><time>2026-04-25T08:47:21.39Z</time></trkpt><trkpt lat="43.7950467" lon="12.2389267"><ele>730.0</ele><time>2026-04-25T08:47:22.389Z</time></trkpt><trkpt lat="43.7951133" lon="12.2388533"><ele>732.0</ele><time>2026-04-25T08:47:23.39Z</time></trkpt><trkpt lat="43.7951583" lon="12.2387217"><ele>734.0</ele><time>2026-04-25T08:47:24.389Z</time></trkpt><trkpt lat="43.7951833" lon="12.238555"><ele>736.0</ele><time>2026-04-25T08:47:25.39Z</time></trkpt><trkpt lat="43.7951983" lon="12.2384017"><ele>734.1999999999999</ele><time>2026-04-25T08:47:26.39Z</time></trkpt><trkpt lat="43.7952217" lon="12.238265"><ele>732.4</ele><time>2026-04-25T08:47:27.39Z</time></trkpt><trkpt lat="43.7952667" lon="12.238155"><ele>730.6</ele><time>2026-04-25T08:47:28.389Z</time></trkpt><trkpt lat="43.7953217" lon="12.2380767"><ele>728.8</ele><time>2026-04-25T08:47:29.39Z</time></trkpt><trkpt lat="43.7954183" lon="12.23802"><ele>727.0</ele><time>2026-04-25T08:47:30.389Z</time></trkpt><trkpt lat="43.7955333" lon="12.238"><ele>727.0</ele><time>2026-04-25T08:47:31.389Z</time></trkpt><trkpt lat="43.7956583" lon="12.23801"><ele>727.0</ele><time>2026-04-25T08:47:32.39Z</time></trkpt><trkpt lat="43.7957767" lon="12.23802"><ele>727.0</ele><time>2026-04-25T08:47:33.39Z</time></trkpt><trkpt lat="43.7958833" lon="12.2380183"><ele>727.0</ele><time>2026-04-25T08:47:34.39Z</time></trkpt><trkpt lat="43.7959867" lon="12.23799"><ele>723.25</ele><time>2026-04-25T08:47:35.39Z</time></trkpt><trkpt lat="43.796085" lon="12.2379283"><ele>719.5</ele><time>2026-04-25T08:47:36.389Z</time></trkpt><trkpt lat="43.7961733" lon="12.2378183"><ele>715.75</ele><time>2026-04-25T08:47:37.389Z</time></trkpt><trkpt lat="43.7962567" lon="12.237675"><ele>712.0</ele><time>2026-04-25T08:47:38.39Z</time></trkpt><trkpt lat="43.796325" lon="12.237535"><ele>712.0</ele><time>2026-04-25T08:47:39.389Z</time></trkpt><trkpt lat="43.7964" lon="12.2373833"><ele>712.0</ele><time>2026-04-25T08:47:40.39Z</time></trkpt><trkpt lat="43.79647" lon="12.23724"><ele>712.0</ele><time>2026-04-25T08:47:41.39Z</time></trkpt><trkpt lat="43.79653" lon="12.23712"><ele>712.0</ele><time>2026-04-25T08:47:42.39Z</time></trkpt><trkpt lat="43.7965817" lon="12.2370367"><ele>712.0</ele><time>2026-04-25T08:47:43.389Z</time></trkpt><trkpt lat="43.796645" lon="12.2369717"><ele>713.3333333333334</ele><time>2026-04-25T08:47:44.389Z</time></trkpt><trkpt lat="43.7967267" lon="12.2369333"><ele>714.6666666666667</ele><time>2026-04-25T08:47:45.389Z</time></trkpt><trkpt lat="43.7968283" lon="12.2369033"><ele>716.0</ele><time>2026-04-25T08:47:46.389Z</time></trkpt><trkpt lat="43.796935" lon="12.2368933"><ele>717.3333333333334</ele><time>2026-04-25T08:47:47.389Z</time></trkpt><trkpt lat="43.797015" lon="12.2368867"><ele>718.6666666666666</ele><time>2026-04-25T08:47:48.39Z</time></trkpt><trkpt lat="43.7970833" lon="12.23688"><ele>720.0</ele><time>2026-04-25T08:47:49.39Z</time></trkpt><trkpt lat="43.79722" lon="12.23686"><ele>717.3333333333334</ele><time>2026-04-25T08:47:51.39Z</time></trkpt><trkpt lat="43.7973017" lon="12.2368433"><ele>714.6666666666666</ele><time>2026-04-25T08:47:52.39Z</time></trkpt><trkpt lat="43.79738" lon="12.2368133"><ele>712.0</ele><time>2026-04-25T08:47:53.39Z</time></trkpt><trkpt lat="43.7974583" lon="12.2367767"><ele>709.3333333333333</ele><time>2026-04-25T08:47:54.39Z</time></trkpt><trkpt lat="43.7975333" lon="12.236725"><ele>706.6666666666666</ele><time>2026-04-25T08:47:55.39Z</time></trkpt><trkpt lat="43.7976067" lon="12.2366667"><ele>704.0</ele><time>2026-04-25T08:47:56.39Z</time></trkpt><trkpt lat="43.7976767" lon="12.2365917"><ele>701.4000000000001</ele><time>2026-04-25T08:47:57.389Z</time></trkpt><trkpt lat="43.797745" lon="12.2365167"><ele>698.8</ele><time>2026-04-25T08:47:58.39Z</time></trkpt><trkpt lat="43.7978133" lon="12.2364483"><ele>696.2</ele><time>2026-04-25T08:47:59.389Z</time></trkpt><trkpt lat="43.7978867" lon="12.2363733"><ele>693.5999999999999</ele><time>2026-04-25T08:48:00.389Z</time></trkpt><trkpt lat="43.7979567" lon="12.2362883"><ele>691.0</ele><time>2026-04-25T08:48:01.39Z</time></trkpt><trkpt lat="43.7980283" lon="12.2362017"><ele>691.0</ele><time>2026-04-25T08:48:02.39Z</time></trkpt><trkpt lat="43.7980983" lon="12.2361067"><ele>691.0</ele><time>2026-04-25T08:48:03.39Z</time></trkpt><trkpt lat="43.7981633" lon="12.2360133"><ele>691.0</ele><time>2026-04-25T08:48:04.39Z</time></trkpt><trkpt lat="43.7982383" lon="12.235925"><ele>691.0</ele><time>2026-04-25T08:48:05.389Z</time></trkpt><trkpt lat="43.798325" lon="12.2358267"><ele>691.0</ele><time>2026-04-25T08:48:06.39Z</time></trkpt><trkpt lat="43.7984117" lon="12.235735"><ele>691.0</ele><time>2026-04-25T08:48:07.39Z</time></trkpt><trkpt lat="43.798495" lon="12.2356467"><ele>691.0</ele><time>2026-04-25T08:48:08.39Z</time></trkpt><trkpt lat="43.798575" lon="12.2355683"><ele>691.0</ele><time>2026-04-25T08:48:09.39Z</time></trkpt><trkpt lat="43.79865" lon="12.2354867"><ele>691.0</ele><time>2026-04-25T08:48:10.39Z</time></trkpt><trkpt lat="43.7987167" lon="12.2354033"><ele>691.0</ele><time>2026-04-25T08:48:11.39Z</time></trkpt><trkpt lat="43.7987767" lon="12.2353267"><ele>689.3333333333334</ele><time>2026-04-25T08:48:12.389Z</time></trkpt><trkpt lat="43.7988283" lon="12.2352517"><ele>687.6666666666667</ele><time>2026-04-25T08:48:13.39Z</time></trkpt><trkpt lat="43.798865" lon="12.23517"><ele>686.0</ele><time>2026-04-25T08:48:14.389Z</time></trkpt><trkpt lat="43.7989117" lon="12.2350983"><ele>684.3333333333334</ele><time>2026-04-25T08:48:15.39Z</time></trkpt><trkpt lat="43.7990167" lon="12.2349833"><ele>682.6666666666666</ele><time>2026-04-25T08:48:17.389Z</time></trkpt><trkpt lat="43.79907" lon="12.23491"><ele>681.0</ele><time>2026-04-25T08:48:18.39Z</time></trkpt><trkpt lat="43.7991183" lon="12.2348233"><ele>681.6666666666666</ele><time>2026-04-25T08:48:19.39Z</time></trkpt><trkpt lat="43.79915" lon="12.23473"><ele>682.3333333333334</ele><time>2026-04-25T08:48:20.389Z</time></trkpt><trkpt lat="43.7991517" lon="12.2346317"><ele>683.0</ele><time>2026-04-25T08:48:21.39Z</time></trkpt><trkpt lat="43.7991433" lon="12.2345433"><ele>683.6666666666667</ele><time>2026-04-25T08:48:22.39Z</time></trkpt><trkpt lat="43.799125" lon="12.2344583"><ele>684.3333333333334</ele><time>2026-04-25T08:48:23.389Z</time></trkpt><trkpt lat="43.7991117" lon="12.2342933"><ele>685.0</ele><time>2026-04-25T08:48:25.39Z</time></trkpt><trkpt lat="43.7991283" lon="12.2342067"><ele>685.0</ele><time>2026-04-25T08:48:26.39Z</time></trkpt><trkpt lat="43.799165" lon="12.234125"><ele>685.0</ele><time>2026-04-25T08:48:27.39Z</time></trkpt><trkpt lat="43.79922" lon="12.2340633"><ele>685.0</ele><time>2026-04-25T08:48:28.39Z</time></trkpt><trkpt lat="43.7992783" lon="12.2340133"><ele>685.0</ele><time>2026-04-25T08:48:29.39Z</time></trkpt><trkpt lat="43.7993417" lon="12.2339667"><ele>685.0</ele><time>2026-04-25T08:48:30.39Z</time></trkpt><trkpt lat="43.7993983" lon="12.2339183"><ele>685.0</ele><time>2026-04-25T08:48:31.39Z</time></trkpt><trkpt lat="43.7994467" lon="12.2337667"><ele>680.3333333333334</ele><time>2026-04-25T08:48:33.39Z</time></trkpt><trkpt lat="43.7994383" lon="12.2336683"><ele>675.6666666666667</ele><time>2026-04-25T08:48:34.39Z</time></trkpt><trkpt lat="43.7994183" lon="12.2335517"><ele>671.0</ele><time>2026-04-25T08:48:35.39Z</time></trkpt><trkpt lat="43.799405" lon="12.2334367"><ele>666.3333333333334</ele><time>2026-04-25T08:48:36.389Z</time></trkpt><trkpt lat="43.7993983" lon="12.2333183"><ele>661.6666666666666</ele><time>2026-04-25T08:48:37.389Z</time></trkpt><trkpt lat="43.7994067" lon="12.2332117"><ele>657.0</ele><time>2026-04-25T08:48:38.39Z</time></trkpt><trkpt lat="43.799425" lon="12.2331117"><ele>657.0</ele><time>2026-04-25T08:48:39.389Z</time></trkpt><trkpt lat="43.7994583" lon="12.2330367"><ele>657.0</ele><time>2026-04-25T08:48:40.389Z</time></trkpt><trkpt lat="43.7995017" lon="12.2329667"><ele>657.0</ele><time>2026-04-25T08:48:41.39Z</time></trkpt><trkpt lat="43.79955" lon="12.2328917"><ele>657.0</ele><time>2026-04-25T08:48:42.39Z</time></trkpt><trkpt lat="43.799595" lon="12.2327183"><ele>657.0</ele><time>2026-04-25T08:48:44.389Z</time></trkpt><trkpt lat="43.7995983" lon="12.232615"><ele>657.0</ele><time>2026-04-25T08:48:45.39Z</time></trkpt><trkpt lat="43.799595" lon="12.2325017"><ele>657.0</ele><time>2026-04-25T08:48:46.39Z</time></trkpt><trkpt lat="43.7996017" lon="12.2323867"><ele>657.0</ele><time>2026-04-25T08:48:47.39Z</time></trkpt><trkpt lat="43.7996117" lon="12.232275"><ele>657.0</ele><time>2026-04-25T08:48:48.389Z</time></trkpt><trkpt lat="43.7996317" lon="12.232155"><ele>657.0</ele><time>2026-04-25T08:48:49.389Z</time></trkpt><trkpt lat="43.7996567" lon="12.23205"><ele>657.0</ele><time>2026-04-25T08:48:50.39Z</time></trkpt><trkpt lat="43.7997" lon="12.2319633"><ele>657.0</ele><time>2026-04-25T08:48:51.389Z</time></trkpt><trkpt lat="43.7997483" lon="12.23189"><ele>657.7142857142857</ele><time>2026-04-25T08:48:52.39Z</time></trkpt><trkpt lat="43.7998" lon="12.231825"><ele>658.4285714285714</ele><time>2026-04-25T08:48:53.39Z</time></trkpt><trkpt lat="43.799855" lon="12.2317617"><ele>659.1428571428571</ele><time>2026-04-25T08:48:54.39Z</time></trkpt><trkpt lat="43.79992" lon="12.2316983"><ele>659.8571428571429</ele><time>2026-04-25T08:48:55.389Z</time></trkpt><trkpt lat="43.7999833" lon="12.231635"><ele>660.5714285714286</ele><time>2026-04-25T08:48:56.389Z</time></trkpt><trkpt lat="43.800045" lon="12.231575"><ele>661.2857142857143</ele><time>2026-04-25T08:48:57.39Z</time></trkpt><trkpt lat="43.8000983" lon="12.2315233"><ele>662.0</ele><time>2026-04-25T08:48:58.39Z</time></trkpt><trkpt lat="43.80015" lon="12.2314567"><ele>657.8571428571429</ele><time>2026-04-25T08:48:59.39Z</time></trkpt><trkpt lat="43.8001917" lon="12.231385"><ele>653.7142857142857</ele><time>2026-04-25T08:49:00.39Z</time></trkpt><trkpt lat="43.8002083" lon="12.23129"><ele>649.5714285714286</ele><time>2026-04-25T08:49:01.389Z</time></trkpt><trkpt lat="43.8002083" lon="12.23119"><ele>645.4285714285714</ele><time>2026-04-25T08:49:02.39Z</time></trkpt><trkpt lat="43.8001933" lon="12.2310933"><ele>641.2857142857143</ele><time>2026-04-25T08:49:03.389Z</time></trkpt><trkpt lat="43.8001917" lon="12.2309983"><ele>637.1428571428571</ele><time>2026-04-25T08:49:04.39Z</time></trkpt><trkpt lat="43.8002283" lon="12.2308733"><ele>633.0</ele><time>2026-04-25T08:49:06.389Z</time></trkpt><trkpt lat="43.8003167" lon="12.2308867"><ele>633.0</ele><time>2026-04-25T08:49:08.389Z</time></trkpt><trkpt lat="43.8003667" lon="12.2310267"><ele>633.0</ele><time>2026-04-25T08:49:10.39Z</time></trkpt><trkpt lat="43.8003667" lon="12.231115"><ele>633.0</ele><time>2026-04-25T08:49:11.39Z</time></trkpt><trkpt lat="43.80036" lon="12.2312083"><ele>633.0</ele><time>2026-04-25T08:49:12.39Z</time></trkpt><trkpt lat="43.8003633" lon="12.2313017"><ele>633.0</ele><time>2026-04-25T08:49:13.389Z</time></trkpt><trkpt lat="43.8003633" lon="12.2313983"><ele>633.0</ele><time>2026-04-25T08:49:14.389Z</time></trkpt><trkpt lat="43.8003517" lon="12.23149"><ele>633.0</ele><time>2026-04-25T08:49:15.389Z</time></trkpt><trkpt lat="43.80028" lon="12.23165"><ele>633.4285714285714</ele><time>2026-04-25T08:49:17.389Z</time></trkpt><trkpt lat="43.800225" lon="12.2317283"><ele>633.8571428571429</ele><time>2026-04-25T08:49:18.39Z</time></trkpt><trkpt lat="43.800178" lon="12.2318111"><ele>634.2857142857142</ele><time>2026-04-25T08:49:19.39Z</time></trkpt><trkpt lat="43.8001367" lon="12.2318989"><ele>634.7142857142858</ele><time>2026-04-25T08:49:20.39Z</time></trkpt><trkpt lat="43.8001082" lon="12.2319969"><ele>635.1428571428572</ele><time>2026-04-25T08:49:21.389Z</time></trkpt><trkpt lat="43.8000992" lon="12.2320949"><ele>635.5714285714286</ele><time>2026-04-25T08:49:22.39Z</time></trkpt><trkpt lat="43.8000977" lon="12.2321901"><ele>636.0</ele><time>2026-04-25T08:49:23.389Z</time></trkpt><trkpt lat="43.800098" lon="12.2322928"><ele>635.0</ele><time>2026-04-25T08:49:24.39Z</time></trkpt><trkpt lat="43.8001062" lon="12.2323901"><ele>634.0</ele><time>2026-04-25T08:49:25.39Z</time></trkpt><trkpt lat="43.8001307" lon="12.2324854"><ele>633.0</ele><time>2026-04-25T08:49:26.39Z</time></trkpt><trkpt lat="43.8001709" lon="12.2325787"><ele>632.0</ele><time>2026-04-25T08:49:27.39Z</time></trkpt><trkpt lat="43.8002184" lon="12.2326596"><ele>631.0</ele><time>2026-04-25T08:49:28.389Z</time></trkpt><trkpt lat="43.8002656" lon="12.2327403"><ele>630.0</ele><time>2026-04-25T08:49:29.389Z</time></trkpt><trkpt lat="43.8003112" lon="12.2328265"><ele>630.0</ele><time>2026-04-25T08:49:30.39Z</time></trkpt><trkpt lat="43.8003478" lon="12.23292"><ele>630.0</ele><time>2026-04-25T08:49:31.39Z</time></trkpt><trkpt lat="43.8003741" lon="12.2330188"><ele>630.0</ele><time>2026-04-25T08:49:32.39Z</time></trkpt><trkpt lat="43.8003918" lon="12.2331191"><ele>630.0</ele><time>2026-04-25T08:49:33.39Z</time></trkpt><trkpt lat="43.8004029" lon="12.233224"><ele>630.0</ele><time>2026-04-25T08:49:34.39Z</time></trkpt><trkpt lat="43.8004141" lon="12.2333267"><ele>630.0</ele><time>2026-04-25T08:49:35.389Z</time></trkpt><trkpt lat="43.8004186" lon="12.23343"><ele>629.8571428571429</ele><time>2026-04-25T08:49:36.389Z</time></trkpt><trkpt lat="43.800429" lon="12.233531"><ele>629.7142857142858</ele><time>2026-04-25T08:49:37.389Z</time></trkpt><trkpt lat="43.800441" lon="12.2336292"><ele>629.5714285714286</ele><time>2026-04-25T08:49:38.39Z</time></trkpt><trkpt lat="43.8004478" lon="12.2337278"><ele>629.4285714285714</ele><time>2026-04-25T08:49:39.39Z</time></trkpt><trkpt lat="43.8004577" lon="12.2338249"><ele>629.2857142857143</ele><time>2026-04-25T08:49:40.39Z</time></trkpt><trkpt lat="43.8004666" lon="12.2339165"><ele>629.1428571428571</ele><time>2026-04-25T08:49:41.39Z</time></trkpt><trkpt lat="43.800469" lon="12.2340052"><ele>629.0</ele><time>2026-04-25T08:49:42.39Z</time></trkpt><trkpt lat="43.8004668" lon="12.234093"><ele>629.0</ele><time>2026-04-25T08:49:43.389Z</time></trkpt><trkpt lat="43.8004695" lon="12.2341802"><ele>629.0</ele><time>2026-04-25T08:49:44.389Z</time></trkpt><trkpt lat="43.8004772" lon="12.234272"><ele>629.0</ele><time>2026-04-25T08:49:45.39Z</time></trkpt><trkpt lat="43.8004825" lon="12.2343687"><ele>629.0</ele><time>2026-04-25T08:49:46.39Z</time></trkpt><trkpt lat="43.800492" lon="12.234471"><ele>629.0</ele><time>2026-04-25T08:49:47.389Z</time></trkpt><trkpt lat="43.8005007" lon="12.2345712"><ele>629.0</ele><time>2026-04-25T08:49:48.39Z</time></trkpt><trkpt lat="43.8005121" lon="12.2346702"><ele>629.0</ele><time>2026-04-25T08:49:49.39Z</time></trkpt><trkpt lat="43.8005353" lon="12.2347733"><ele>629.7142857142857</ele><time>2026-04-25T08:49:50.39Z</time></trkpt><trkpt lat="43.8005708" lon="12.2348661"><ele>630.4285714285714</ele><time>2026-04-25T08:49:51.389Z</time></trkpt><trkpt lat="43.8006193" lon="12.2349471"><ele>631.1428571428571</ele><time>2026-04-25T08:49:52.389Z</time></trkpt><trkpt lat="43.8006752" lon="12.2350147"><ele>631.8571428571429</ele><time>2026-04-25T08:49:53.389Z</time></trkpt><trkpt lat="43.8007365" lon="12.2350721"><ele>632.5714285714286</ele><time>2026-04-25T08:49:54.39Z</time></trkpt><trkpt lat="43.8008008" lon="12.2351263"><ele>633.2857142857143</ele><time>2026-04-25T08:49:55.39Z</time></trkpt><trkpt lat="43.8008687" lon="12.2351677"><ele>634.0</ele><time>2026-04-25T08:49:56.39Z</time></trkpt><trkpt lat="43.800936" lon="12.2352018"><ele>631.5</ele><time>2026-04-25T08:49:57.39Z</time></trkpt><trkpt lat="43.8010014" lon="12.2352263"><ele>629.0</ele><time>2026-04-25T08:49:58.389Z</time></trkpt><trkpt lat="43.8011176" lon="12.2352273"><ele>626.5</ele><time>2026-04-25T08:50:00.39Z</time></trkpt><trkpt lat="43.8012298" lon="12.2351527"><ele>624.0</ele><time>2026-04-25T08:50:02.389Z</time></trkpt><trkpt lat="43.8012737" lon="12.2350866"><ele>621.5</ele><time>2026-04-25T08:50:03.39Z</time></trkpt><trkpt lat="43.8013068" lon="12.235005"><ele>619.0</ele><time>2026-04-25T08:50:04.389Z</time></trkpt><trkpt lat="43.8013272" lon="12.2349213"><ele>619.0</ele><time>2026-04-25T08:50:05.389Z</time></trkpt><trkpt lat="43.8013492" lon="12.2348315"><ele>619.0</ele><time>2026-04-25T08:50:06.39Z</time></trkpt><trkpt lat="43.8013685" lon="12.2347284"><ele>619.0</ele><time>2026-04-25T08:50:07.39Z</time></trkpt><trkpt lat="43.8013838" lon="12.2346216"><ele>619.0</ele><time>2026-04-25T08:50:08.389Z</time></trkpt><trkpt lat="43.8014032" lon="12.2345122"><ele>619.0</ele><time>2026-04-25T08:50:09.39Z</time></trkpt><trkpt lat="43.80142" lon="12.2344028"><ele>619.0</ele><time>2026-04-25T08:50:10.389Z</time></trkpt><trkpt lat="43.8014348" lon="12.2342995"><ele>617.8333333333334</ele><time>2026-04-25T08:50:11.389Z</time></trkpt><trkpt lat="43.8014485" lon="12.2341986"><ele>616.6666666666667</ele><time>2026-04-25T08:50:12.39Z</time></trkpt><trkpt lat="43.8014602" lon="12.2340955"><ele>615.5</ele><time>2026-04-25T08:50:13.389Z</time></trkpt><trkpt lat="43.8014722" lon="12.2339892"><ele>614.3333333333334</ele><time>2026-04-25T08:50:14.389Z</time></trkpt><trkpt lat="43.8014844" lon="12.2338873"><ele>613.1666666666666</ele><time>2026-04-25T08:50:15.39Z</time></trkpt><trkpt lat="43.8014958" lon="12.2337861"><ele>612.0</ele><time>2026-04-25T08:50:16.389Z</time></trkpt><trkpt lat="43.8015075" lon="12.2336813"><ele>611.1666666666666</ele><time>2026-04-25T08:50:17.389Z</time></trkpt><trkpt lat="43.8015214" lon="12.2335816"><ele>610.3333333333334</ele><time>2026-04-25T08:50:18.39Z</time></trkpt><trkpt lat="43.8015376" lon="12.2334901"><ele>609.5</ele><time>2026-04-25T08:50:19.39Z</time></trkpt><trkpt lat="43.8015544" lon="12.2333862"><ele>608.6666666666667</ele><time>2026-04-25T08:50:20.389Z</time></trkpt><trkpt lat="43.8015787" lon="12.233272"><ele>607.8333333333334</ele><time>2026-04-25T08:50:21.389Z</time></trkpt><trkpt lat="43.801603" lon="12.2331544"><ele>607.0</ele><time>2026-04-25T08:50:22.389Z</time></trkpt><trkpt lat="43.8016209" lon="12.2330336"><ele>607.0</ele><time>2026-04-25T08:50:23.389Z</time></trkpt><trkpt lat="43.8016388" lon="12.2329189"><ele>607.0</ele><time>2026-04-25T08:50:24.389Z</time></trkpt><trkpt lat="43.80166" lon="12.2328"><ele>607.0</ele><time>2026-04-25T08:50:25.39Z</time></trkpt><trkpt lat="43.8016867" lon="12.2326767"><ele>607.0</ele><time>2026-04-25T08:50:26.389Z</time></trkpt><trkpt lat="43.801705" lon="12.232545"><ele>607.0</ele><time>2026-04-25T08:50:27.39Z</time></trkpt><trkpt lat="43.8017233" lon="12.2324317"><ele>607.0</ele><time>2026-04-25T08:50:28.39Z</time></trkpt><trkpt lat="43.8017417" lon="12.232325"><ele>608.0</ele><time>2026-04-25T08:50:29.39Z</time></trkpt><trkpt lat="43.8017517" lon="12.2322167"><ele>609.0</ele><time>2026-04-25T08:50:30.39Z</time></trkpt><trkpt lat="43.8017767" lon="12.2321067"><ele>610.0</ele><time>2026-04-25T08:50:31.389Z</time></trkpt><trkpt lat="43.8018167" lon="12.232"><ele>611.0</ele><time>2026-04-25T08:50:32.39Z</time></trkpt><trkpt lat="43.8018567" lon="12.231905"><ele>612.0</ele><time>2026-04-25T08:50:33.39Z</time></trkpt><trkpt lat="43.8019017" lon="12.2318017"><ele>613.0</ele><time>2026-04-25T08:50:34.389Z</time></trkpt><trkpt lat="43.80195" lon="12.2316983"><ele>609.1999999999999</ele><time>2026-04-25T08:50:35.389Z</time></trkpt><trkpt lat="43.802005" lon="12.2315783"><ele>605.4</ele><time>2026-04-25T08:50:36.389Z</time></trkpt><trkpt lat="43.80207" lon="12.231455"><ele>601.5999999999999</ele><time>2026-04-25T08:50:37.39Z</time></trkpt><trkpt lat="43.8021383" lon="12.2313417"><ele>597.8</ele><time>2026-04-25T08:50:38.39Z</time></trkpt><trkpt lat="43.802215" lon="12.2312283"><ele>594.0</ele><time>2026-04-25T08:50:39.389Z</time></trkpt><trkpt lat="43.80229" lon="12.23112"><ele>594.0</ele><time>2026-04-25T08:50:40.39Z</time></trkpt><trkpt lat="43.802365" lon="12.231015"><ele>594.0</ele><time>2026-04-25T08:50:41.389Z</time></trkpt><trkpt lat="43.8024483" lon="12.2309133"><ele>594.0</ele><time>2026-04-25T08:50:42.389Z</time></trkpt><trkpt lat="43.802525" lon="12.230815"><ele>594.0</ele><time>2026-04-25T08:50:43.39Z</time></trkpt><trkpt lat="43.8025883" lon="12.2307083"><ele>594.0</ele><time>2026-04-25T08:50:44.39Z</time></trkpt><trkpt lat="43.8026467" lon="12.2305967"><ele>592.0</ele><time>2026-04-25T08:50:45.39Z</time></trkpt><trkpt lat="43.8026883" lon="12.230485"><ele>590.0</ele><time>2026-04-25T08:50:46.389Z</time></trkpt><trkpt lat="43.802705" lon="12.2303767"><ele>588.0</ele><time>2026-04-25T08:50:47.39Z</time></trkpt><trkpt lat="43.8026983" lon="12.2302883"><ele>586.0</ele><time>2026-04-25T08:50:48.389Z</time></trkpt><trkpt lat="43.8026167" lon="12.230165"><ele>584.0</ele><time>2026-04-25T08:50:50.389Z</time></trkpt><trkpt lat="43.802545" lon="12.2301333"><ele>582.0</ele><time>2026-04-25T08:50:51.39Z</time></trkpt><trkpt lat="43.8024633" lon="12.2301117"><ele>582.0</ele><time>2026-04-25T08:50:52.39Z</time></trkpt><trkpt lat="43.8023683" lon="12.2300983"><ele>582.0</ele><time>2026-04-25T08:50:53.39Z</time></trkpt><trkpt lat="43.8022617" lon="12.23008"><ele>582.0</ele><time>2026-04-25T08:50:54.389Z</time></trkpt><trkpt lat="43.8021533" lon="12.2300683"><ele>582.0</ele><time>2026-04-25T08:50:55.39Z</time></trkpt><trkpt lat="43.8020433" lon="12.2300517"><ele>582.0</ele><time>2026-04-25T08:50:56.389Z</time></trkpt><trkpt lat="43.8019317" lon="12.2300283"><ele>584.2</ele><time>2026-04-25T08:50:57.389Z</time></trkpt><trkpt lat="43.80183" lon="12.2299967"><ele>586.4000000000001</ele><time>2026-04-25T08:50:58.389Z</time></trkpt><trkpt lat="43.8017317" lon="12.2299683"><ele>588.5999999999999</ele><time>2026-04-25T08:50:59.39Z</time></trkpt><trkpt lat="43.8016288" lon="12.229948"><ele>590.8</ele><time>2026-04-25T08:51:00.39Z</time></trkpt><trkpt lat="43.8015296" lon="12.2299374"><ele>593.0</ele><time>2026-04-25T08:51:01.389Z</time></trkpt><trkpt lat="43.8014325" lon="12.2299268"><ele>593.0</ele><time>2026-04-25T08:51:02.39Z</time></trkpt><trkpt lat="43.8013356" lon="12.2299121"><ele>593.0</ele><time>2026-04-25T08:51:03.39Z</time></trkpt><trkpt lat="43.801235" lon="12.2298914"><ele>593.0</ele><time>2026-04-25T08:51:04.389Z</time></trkpt><trkpt lat="43.801133" lon="12.229857"><ele>593.0</ele><time>2026-04-25T08:51:05.39Z</time></trkpt><trkpt lat="43.8010304" lon="12.2298037"><ele>593.0</ele><time>2026-04-25T08:51:06.39Z</time></trkpt><trkpt lat="43.8009325" lon="12.2297412"><ele>591.0</ele><time>2026-04-25T08:51:07.39Z</time></trkpt><trkpt lat="43.8008356" lon="12.2296803"><ele>589.0</ele><time>2026-04-25T08:51:08.39Z</time></trkpt><trkpt lat="43.8007389" lon="12.229602"><ele>587.0</ele><time>2026-04-25T08:51:09.389Z</time></trkpt><trkpt lat="43.8006425" lon="12.2295155"><ele>585.0</ele><time>2026-04-25T08:51:10.39Z</time></trkpt><trkpt lat="43.8005515" lon="12.2294197"><ele>583.0</ele><time>2026-04-25T08:51:11.39Z</time></trkpt><trkpt lat="43.8004764" lon="12.2293183"><ele>583.0</ele><time>2026-04-25T08:51:12.39Z</time></trkpt><trkpt lat="43.8004136" lon="12.2292204"><ele>583.0</ele><time>2026-04-25T08:51:13.389Z</time></trkpt><trkpt lat="43.8003556" lon="12.2291124"><ele>583.0</ele><time>2026-04-25T08:51:14.389Z</time></trkpt><trkpt lat="43.8003003" lon="12.2289994"><ele>583.0</ele><time>2026-04-25T08:51:15.39Z</time></trkpt><trkpt lat="43.8002476" lon="12.2288856"><ele>583.0</ele><time>2026-04-25T08:51:16.39Z</time></trkpt><trkpt lat="43.8001968" lon="12.2287662"><ele>582.6</ele><time>2026-04-25T08:51:17.389Z</time></trkpt><trkpt lat="43.80015" lon="12.2286343"><ele>582.1999999999999</ele><time>2026-04-25T08:51:18.389Z</time></trkpt><trkpt lat="43.8001104" lon="12.2284903"><ele>581.8</ele><time>2026-04-25T08:51:19.39Z</time></trkpt><trkpt lat="43.800082" lon="12.22834"><ele>581.4</ele><time>2026-04-25T08:51:20.39Z</time></trkpt><trkpt lat="43.8000592" lon="12.228212"><ele>581.0</ele><time>2026-04-25T08:51:21.389Z</time></trkpt><trkpt lat="43.8000294" lon="12.2280945"><ele>581.0</ele><time>2026-04-25T08:51:22.39Z</time></trkpt><trkpt lat="43.7999908" lon="12.2279873"><ele>581.0</ele><time>2026-04-25T08:51:23.389Z</time></trkpt><trkpt lat="43.7999415" lon="12.2278806"><ele>581.0</ele><time>2026-04-25T08:51:24.389Z</time></trkpt><trkpt lat="43.7998786" lon="12.2277836"><ele>581.0</ele><time>2026-04-25T08:51:25.39Z</time></trkpt><trkpt lat="43.7998103" lon="12.2277007"><ele>581.0</ele><time>2026-04-25T08:51:26.389Z</time></trkpt><trkpt lat="43.7997417" lon="12.2276255"><ele>581.0</ele><time>2026-04-25T08:51:27.39Z</time></trkpt><trkpt lat="43.7996746" lon="12.2275423"><ele>581.0</ele><time>2026-04-25T08:51:28.389Z</time></trkpt><trkpt lat="43.7996147" lon="12.2274574"><ele>581.0</ele><time>2026-04-25T08:51:29.389Z</time></trkpt><trkpt lat="43.7995729" lon="12.2273709"><ele>581.0</ele><time>2026-04-25T08:51:30.389Z</time></trkpt><trkpt lat="43.7995439" lon="12.2272823"><ele>581.0</ele><time>2026-04-25T08:51:31.389Z</time></trkpt><trkpt lat="43.7995343" lon="12.2271777"><ele>581.0</ele><time>2026-04-25T08:51:32.39Z</time></trkpt><trkpt lat="43.7995473" lon="12.2270565"><ele>579.0</ele><time>2026-04-25T08:51:33.389Z</time></trkpt><trkpt lat="43.7995768" lon="12.226923"><ele>577.0</ele><time>2026-04-25T08:51:34.39Z</time></trkpt><trkpt lat="43.7996096" lon="12.2267916"><ele>575.0</ele><time>2026-04-25T08:51:35.39Z</time></trkpt><trkpt lat="43.7996369" lon="12.2266729"><ele>573.0</ele><time>2026-04-25T08:51:36.389Z</time></trkpt><trkpt lat="43.799665" lon="12.2265666"><ele>571.0</ele><time>2026-04-25T08:51:37.39Z</time></trkpt><trkpt lat="43.7996874" lon="12.2264801"><ele>569.0</ele><time>2026-04-25T08:51:38.389Z</time></trkpt><trkpt lat="43.7996956" lon="12.226362"><ele>567.8</ele><time>2026-04-25T08:51:40.39Z</time></trkpt><trkpt lat="43.7996328" lon="12.2262816"><ele>566.5999999999999</ele><time>2026-04-25T08:51:42.389Z</time></trkpt><trkpt lat="43.7995754" lon="12.2262311"><ele>565.4</ele><time>2026-04-25T08:51:45.389Z</time></trkpt><trkpt lat="43.799515" lon="12.2261317"><ele>564.1999999999999</ele><time>2026-04-25T08:52:02.39Z</time></trkpt><trkpt lat="43.7994417" lon="12.225935"><ele>563.0</ele><time>2026-04-25T08:53:29.39Z</time></trkpt><trkpt lat="43.7994383" lon="12.2258283"><ele>563.0</ele><time>2026-04-25T08:53:33.39Z</time></trkpt><trkpt lat="43.799465" lon="12.2257383"><ele>563.0</ele><time>2026-04-25T08:53:44.389Z</time></trkpt><trkpt lat="43.799485" lon="12.2255967"><ele>563.0</ele><time>2026-04-25T08:57:15.39Z</time></trkpt><trkpt lat="43.7994717" lon="12.2255033"><ele>563.0</ele><time>2026-04-25T08:57:18.39Z</time></trkpt><trkpt lat="43.7994583" lon="12.2254083"><ele>563.0</ele><time>2026-04-25T08:57:21.39Z</time></trkpt><trkpt lat="43.7995083" lon="12.22532"><ele>563.0</ele><time>2026-04-25T08:57:25.39Z</time></trkpt><trkpt lat="43.7995783" lon="12.2252417"><ele>564.8</ele><time>2026-04-25T08:57:27.389Z</time></trkpt><trkpt lat="43.799625" lon="12.2251817"><ele>566.5999999999999</ele><time>2026-04-25T08:57:29.39Z</time></trkpt><trkpt lat="43.7997067" lon="12.22506"><ele>568.4000000000001</ele><time>2026-04-25T08:57:50.389Z</time></trkpt><trkpt lat="43.7997633" lon="12.2249067"><ele>570.2</ele><time>2026-04-25T08:57:52.389Z</time></trkpt><trkpt lat="43.79983" lon="12.224775"><ele>572.0</ele><time>2026-04-25T08:57:54.389Z</time></trkpt><trkpt lat="43.7999" lon="12.224635"><ele>573.8000000000001</ele><time>2026-04-25T08:57:56.39Z</time></trkpt><trkpt lat="43.79993" lon="12.22448"><ele>575.6</ele><time>2026-04-25T08:57:58.39Z</time></trkpt><trkpt lat="43.799875" lon="12.2243367"><ele>577.4000000000001</ele><time>2026-04-25T08:58:00.39Z</time></trkpt><trkpt lat="43.7998167" lon="12.22426"><ele>579.2</ele><time>2026-04-25T08:58:01.389Z</time></trkpt><trkpt lat="43.7997367" lon="12.224195"><ele>581.0</ele><time>2026-04-25T08:58:02.389Z</time></trkpt><trkpt lat="43.7996433" lon="12.2241233"><ele>581.0</ele><time>2026-04-25T08:58:03.39Z</time></trkpt><trkpt lat="43.79954" lon="12.2240617"><ele>581.0</ele><time>2026-04-25T08:58:04.39Z</time></trkpt><trkpt lat="43.79944" lon="12.2240133"><ele>581.0</ele><time>2026-04-25T08:58:05.389Z</time></trkpt><trkpt lat="43.7993433" lon="12.22397"><ele>581.0</ele><time>2026-04-25T08:58:06.39Z</time></trkpt><trkpt lat="43.7992417" lon="12.2239267"><ele>581.0</ele><time>2026-04-25T08:58:07.389Z</time></trkpt><trkpt lat="43.7991333" lon="12.2238917"><ele>578.0</ele><time>2026-04-25T08:58:08.39Z</time></trkpt><trkpt lat="43.799015" lon="12.223855"><ele>575.0</ele><time>2026-04-25T08:58:09.39Z</time></trkpt><trkpt lat="43.7989" lon="12.2238067"><ele>572.0</ele><time>2026-04-25T08:58:10.389Z</time></trkpt><trkpt lat="43.79879" lon="12.2237533"><ele>569.0</ele><time>2026-04-25T08:58:11.39Z</time></trkpt><trkpt lat="43.798692" lon="12.2236918"><ele>569.0</ele><time>2026-04-25T08:58:12.389Z</time></trkpt><trkpt lat="43.7985928" lon="12.2236331"><ele>569.0</ele><time>2026-04-25T08:58:13.39Z</time></trkpt><trkpt lat="43.798501" lon="12.2235728"><ele>569.0</ele><time>2026-04-25T08:58:14.389Z</time></trkpt><trkpt lat="43.7984125" lon="12.2235184"><ele>569.0</ele><time>2026-04-25T08:58:15.39Z</time></trkpt><trkpt lat="43.7983382" lon="12.2234736"><ele>569.0</ele><time>2026-04-25T08:58:16.39Z</time></trkpt><trkpt lat="43.7982835" lon="12.2234298"><ele>570.0</ele><time>2026-04-25T08:58:17.39Z</time></trkpt><trkpt lat="43.7982201" lon="12.223285"><ele>571.0</ele><time>2026-04-25T08:58:19.39Z</time></trkpt><trkpt lat="43.798205" lon="12.2231561"><ele>572.0</ele><time>2026-04-25T08:58:20.389Z</time></trkpt><trkpt lat="43.7981946" lon="12.2229931"><ele>573.0</ele><time>2026-04-25T08:58:21.389Z</time></trkpt><trkpt lat="43.7981923" lon="12.222833"><ele>573.0</ele><time>2026-04-25T08:58:22.39Z</time></trkpt><trkpt lat="43.7981794" lon="12.222687"><ele>573.0</ele><time>2026-04-25T08:58:23.389Z</time></trkpt><trkpt lat="43.7981493" lon="12.2225539"><ele>573.0</ele><time>2026-04-25T08:58:24.389Z</time></trkpt><trkpt lat="43.7980948" lon="12.2224104"><ele>573.0</ele><time>2026-04-25T08:58:25.389Z</time></trkpt><trkpt lat="43.7980162" lon="12.2222617"><ele>569.75</ele><time>2026-04-25T08:58:26.39Z</time></trkpt><trkpt lat="43.7979282" lon="12.2221098"><ele>566.5</ele><time>2026-04-25T08:58:27.389Z</time></trkpt><trkpt lat="43.797845" lon="12.221964"><ele>563.25</ele><time>2026-04-25T08:58:28.39Z</time></trkpt><trkpt lat="43.7977846" lon="12.2218334"><ele>560.0</ele><time>2026-04-25T08:58:29.389Z</time></trkpt><trkpt lat="43.797739" lon="12.2217137"><ele>560.0</ele><time>2026-04-25T08:58:30.389Z</time></trkpt><trkpt lat="43.797711" lon="12.2215831"><ele>560.0</ele><time>2026-04-25T08:58:31.39Z</time></trkpt><trkpt lat="43.7977006" lon="12.2214414"><ele>560.0</ele><time>2026-04-25T08:58:32.389Z</time></trkpt><trkpt lat="43.797701" lon="12.2212845"><ele>560.0</ele><time>2026-04-25T08:58:33.389Z</time></trkpt><trkpt lat="43.7976973" lon="12.2211207"><ele>560.0</ele><time>2026-04-25T08:58:34.39Z</time></trkpt><trkpt lat="43.7976782" lon="12.220949"><ele>561.5</ele><time>2026-04-25T08:58:35.389Z</time></trkpt><trkpt lat="43.7976374" lon="12.2207886"><ele>563.0</ele><time>2026-04-25T08:58:36.389Z</time></trkpt><trkpt lat="43.7976007" lon="12.220635"><ele>564.5</ele><time>2026-04-25T08:58:37.389Z</time></trkpt><trkpt lat="43.7975559" lon="12.2204969"><ele>566.0</ele><time>2026-04-25T08:58:38.389Z</time></trkpt><trkpt lat="43.7975006" lon="12.2203684"><ele>566.0</ele><time>2026-04-25T08:58:39.389Z</time></trkpt><trkpt lat="43.7974364" lon="12.220235"><ele>566.0</ele><time>2026-04-25T08:58:40.39Z</time></trkpt><trkpt lat="43.7973666" lon="12.2201151"><ele>566.0</ele><time>2026-04-25T08:58:41.389Z</time></trkpt><trkpt lat="43.797303" lon="12.219998"><ele>566.0</ele><time>2026-04-25T08:58:42.389Z</time></trkpt><trkpt lat="43.7972487" lon="12.2198792"><ele>566.0</ele><time>2026-04-25T08:58:43.39Z</time></trkpt><trkpt lat="43.7971969" lon="12.2197444"><ele>563.0</ele><time>2026-04-25T08:58:44.39Z</time></trkpt><trkpt lat="43.7971483" lon="12.2196067"><ele>560.0</ele><time>2026-04-25T08:58:45.389Z</time></trkpt><trkpt lat="43.7970983" lon="12.21949"><ele>557.0</ele><time>2026-04-25T08:58:46.39Z</time></trkpt><trkpt lat="43.7970483" lon="12.219385"><ele>554.0</ele><time>2026-04-25T08:58:47.39Z</time></trkpt><trkpt lat="43.7969867" lon="12.21928"><ele>551.0</ele><time>2026-04-25T08:58:48.389Z</time></trkpt><trkpt lat="43.7968983" lon="12.2191917"><ele>551.25</ele><time>2026-04-25T08:58:49.39Z</time></trkpt><trkpt lat="43.79679" lon="12.2190983"><ele>551.5</ele><time>2026-04-25T08:58:50.389Z</time></trkpt><trkpt lat="43.7966667" lon="12.218995"><ele>551.75</ele><time>2026-04-25T08:58:51.389Z</time></trkpt><trkpt lat="43.7965433" lon="12.2188967"><ele>552.0</ele><time>2026-04-25T08:58:52.389Z</time></trkpt><trkpt lat="43.79643" lon="12.21881"><ele>552.0</ele><time>2026-04-25T08:58:53.39Z</time></trkpt><trkpt lat="43.7963017" lon="12.2187167"><ele>552.0</ele><time>2026-04-25T08:58:54.389Z</time></trkpt><trkpt lat="43.7961867" lon="12.2186233"><ele>552.0</ele><time>2026-04-25T08:58:55.389Z</time></trkpt><trkpt lat="43.79609" lon="12.21854"><ele>552.0</ele><time>2026-04-25T08:58:56.39Z</time></trkpt><trkpt lat="43.796" lon="12.2184617"><ele>552.8333333333334</ele><time>2026-04-25T08:58:57.39Z</time></trkpt><trkpt lat="43.7959183" lon="12.2183967"><ele>553.6666666666666</ele><time>2026-04-25T08:58:58.39Z</time></trkpt><trkpt lat="43.7958467" lon="12.2183333"><ele>554.5</ele><time>2026-04-25T08:58:59.389Z</time></trkpt><trkpt lat="43.7957717" lon="12.218265"><ele>555.3333333333333</ele><time>2026-04-25T08:59:00.39Z</time></trkpt><trkpt lat="43.795705" lon="12.2181833"><ele>556.1666666666666</ele><time>2026-04-25T08:59:01.389Z</time></trkpt><trkpt lat="43.79565" lon="12.2181033"><ele>557.0</ele><time>2026-04-25T08:59:02.39Z</time></trkpt><trkpt lat="43.7956067" lon="12.2180267"><ele>554.25</ele><time>2026-04-25T08:59:03.39Z</time></trkpt><trkpt lat="43.7955667" lon="12.2179317"><ele>551.5</ele><time>2026-04-25T08:59:05.389Z</time></trkpt><trkpt lat="43.7955117" lon="12.2178"><ele>548.75</ele><time>2026-04-25T08:59:09.389Z</time></trkpt><trkpt lat="43.7954567" lon="12.2176517"><ele>546.0</ele><time>2026-04-25T08:59:10.389Z</time></trkpt><trkpt lat="43.7954" lon="12.2174583"><ele>542.3333333333334</ele><time>2026-04-25T08:59:11.389Z</time></trkpt><trkpt lat="43.795325" lon="12.217255"><ele>538.6666666666667</ele><time>2026-04-25T08:59:12.389Z</time></trkpt><trkpt lat="43.7952617" lon="12.2170483"><ele>535.0</ele><time>2026-04-25T08:59:13.39Z</time></trkpt><trkpt lat="43.7952033" lon="12.216845"><ele>534.25</ele><time>2026-04-25T08:59:14.389Z</time></trkpt><trkpt lat="43.7951417" lon="12.21664"><ele>533.5</ele><time>2026-04-25T08:59:15.39Z</time></trkpt><trkpt lat="43.7950867" lon="12.2164567"><ele>532.75</ele><time>2026-04-25T08:59:16.39Z</time></trkpt><trkpt lat="43.795015" lon="12.2162967"><ele>532.0</ele><time>2026-04-25T08:59:17.39Z</time></trkpt><trkpt lat="43.794935" lon="12.2161617"><ele>532.0</ele><time>2026-04-25T08:59:18.389Z</time></trkpt><trkpt lat="43.7948433" lon="12.2160517"><ele>532.0</ele><time>2026-04-25T08:59:19.39Z</time></trkpt><trkpt lat="43.7947417" lon="12.2159567"><ele>532.0</ele><time>2026-04-25T08:59:20.39Z</time></trkpt><trkpt lat="43.794655" lon="12.2158917"><ele>532.0</ele><time>2026-04-25T08:59:21.39Z</time></trkpt><trkpt lat="43.7945533" lon="12.21586"><ele>532.0</ele><time>2026-04-25T08:59:22.39Z</time></trkpt><trkpt lat="43.7944567" lon="12.2158467"><ele>532.0</ele><time>2026-04-25T08:59:23.39Z</time></trkpt><trkpt lat="43.7943633" lon="12.21581"><ele>532.0</ele><time>2026-04-25T08:59:24.39Z</time></trkpt><trkpt lat="43.79428" lon="12.2157517"><ele>532.0</ele><time>2026-04-25T08:59:25.389Z</time></trkpt><trkpt lat="43.7941917" lon="12.2156917"><ele>532.0</ele><time>2026-04-25T08:59:26.389Z</time></trkpt><trkpt lat="43.7940983" lon="12.215655"><ele>532.0</ele><time>2026-04-25T08:59:27.389Z</time></trkpt><trkpt lat="43.7940017" lon="12.21566"><ele>532.0</ele><time>2026-04-25T08:59:28.39Z</time></trkpt><trkpt lat="43.7939033" lon="12.2156933"><ele>532.0</ele><time>2026-04-25T08:59:29.39Z</time></trkpt><trkpt lat="43.79381" lon="12.215735"><ele>532.0</ele><time>2026-04-25T08:59:30.39Z</time></trkpt><trkpt lat="43.7937233" lon="12.2157667"><ele>532.0</ele><time>2026-04-25T08:59:31.389Z</time></trkpt><trkpt lat="43.79362" lon="12.2157533"><ele>532.0</ele><time>2026-04-25T08:59:32.389Z</time></trkpt><trkpt lat="43.7935133" lon="12.215715"><ele>532.0</ele><time>2026-04-25T08:59:33.389Z</time></trkpt><trkpt lat="43.7934167" lon="12.2156683"><ele>532.0</ele><time>2026-04-25T08:59:34.389Z</time></trkpt><trkpt lat="43.7933233" lon="12.2156317"><ele>532.0</ele><time>2026-04-25T08:59:35.39Z</time></trkpt><trkpt lat="43.7932367" lon="12.2155883"><ele>532.0</ele><time>2026-04-25T08:59:36.39Z</time></trkpt><trkpt lat="43.7931517" lon="12.2155283"><ele>532.0</ele><time>2026-04-25T08:59:37.389Z</time></trkpt><trkpt lat="43.7930683" lon="12.2154467"><ele>528.2</ele><time>2026-04-25T08:59:38.39Z</time></trkpt><trkpt lat="43.792995" lon="12.2153483"><ele>524.4000000000001</ele><time>2026-04-25T08:59:39.39Z</time></trkpt><trkpt lat="43.7929217" lon="12.2152367"><ele>520.5999999999999</ele><time>2026-04-25T08:59:40.39Z</time></trkpt><trkpt lat="43.7928617" lon="12.2151017"><ele>516.8</ele><time>2026-04-25T08:59:41.39Z</time></trkpt><trkpt lat="43.7928033" lon="12.2149767"><ele>513.0</ele><time>2026-04-25T08:59:42.389Z</time></trkpt><trkpt lat="43.7927383" lon="12.2148533"><ele>510.2</ele><time>2026-04-25T08:59:43.389Z</time></trkpt><trkpt lat="43.7926667" lon="12.21474"><ele>507.4</ele><time>2026-04-25T08:59:44.389Z</time></trkpt><trkpt lat="43.7926" lon="12.214645"><ele>504.59999999999997</ele><time>2026-04-25T08:59:45.39Z</time></trkpt><trkpt lat="43.7925183" lon="12.2145567"><ele>501.79999999999995</ele><time>2026-04-25T08:59:46.389Z</time></trkpt><trkpt lat="43.792415" lon="12.21449"><ele>499.0</ele><time>2026-04-25T08:59:47.389Z</time></trkpt><trkpt lat="43.7923067" lon="12.21443"><ele>499.0</ele><time>2026-04-25T08:59:48.39Z</time></trkpt><trkpt lat="43.7922033" lon="12.2143633"><ele>499.0</ele><time>2026-04-25T08:59:49.39Z</time></trkpt><trkpt lat="43.7920983" lon="12.214295"><ele>499.0</ele><time>2026-04-25T08:59:50.389Z</time></trkpt><trkpt lat="43.7920033" lon="12.2142417"><ele>499.0</ele><time>2026-04-25T08:59:51.389Z</time></trkpt><trkpt lat="43.7918983" lon="12.2142117"><ele>499.0</ele><time>2026-04-25T08:59:52.39Z</time></trkpt><trkpt lat="43.79179" lon="12.2142067"><ele>499.2</ele><time>2026-04-25T08:59:53.39Z</time></trkpt><trkpt lat="43.7916783" lon="12.2142067"><ele>499.4</ele><time>2026-04-25T08:59:54.39Z</time></trkpt><trkpt lat="43.7915733" lon="12.21421"><ele>499.6</ele><time>2026-04-25T08:59:55.39Z</time></trkpt><trkpt lat="43.7914767" lon="12.2142083"><ele>499.8</ele><time>2026-04-25T08:59:56.389Z</time></trkpt><trkpt lat="43.7913817" lon="12.2141867"><ele>500.0</ele><time>2026-04-25T08:59:57.389Z</time></trkpt><trkpt lat="43.7912833" lon="12.2141667"><ele>500.0</ele><time>2026-04-25T08:59:58.389Z</time></trkpt><trkpt lat="43.79118" lon="12.21414"><ele>500.0</ele><time>2026-04-25T08:59:59.39Z</time></trkpt><trkpt lat="43.7910733" lon="12.21412"><ele>500.0</ele><time>2026-04-25T09:00:00.389Z</time></trkpt><trkpt lat="43.7909633" lon="12.2140833"><ele>500.0</ele><time>2026-04-25T09:00:01.389Z</time></trkpt><trkpt lat="43.790855" lon="12.21405"><ele>500.0</ele><time>2026-04-25T09:00:02.39Z</time></trkpt><trkpt lat="43.7907533" lon="12.21401"><ele>496.2</ele><time>2026-04-25T09:00:03.39Z</time></trkpt><trkpt lat="43.7906533" lon="12.2139783"><ele>492.4</ele><time>2026-04-25T09:00:04.39Z</time></trkpt><trkpt lat="43.79057" lon="12.2139417"><ele>488.6</ele><time>2026-04-25T09:00:05.39Z</time></trkpt><trkpt lat="43.79049" lon="12.2138867"><ele>484.8</ele><time>2026-04-25T09:00:06.39Z</time></trkpt><trkpt lat="43.79041" lon="12.2138017"><ele>481.0</ele><time>2026-04-25T09:00:07.39Z</time></trkpt><trkpt lat="43.7903317" lon="12.213685"><ele>481.0</ele><time>2026-04-25T09:00:08.39Z</time></trkpt><trkpt lat="43.7902533" lon="12.213555"><ele>481.0</ele><time>2026-04-25T09:00:09.39Z</time></trkpt><trkpt lat="43.7901767" lon="12.2134133"><ele>481.0</ele><time>2026-04-25T09:00:10.39Z</time></trkpt><trkpt lat="43.7900917" lon="12.2132767"><ele>481.0</ele><time>2026-04-25T09:00:11.389Z</time></trkpt><trkpt lat="43.7900017" lon="12.2131517"><ele>480.25</ele><time>2026-04-25T09:00:12.39Z</time></trkpt><trkpt lat="43.789915" lon="12.213035"><ele>479.5</ele><time>2026-04-25T09:00:13.39Z</time></trkpt><trkpt lat="43.7898217" lon="12.21293"><ele>478.75</ele><time>2026-04-25T09:00:14.39Z</time></trkpt><trkpt lat="43.7897283" lon="12.21284"><ele>478.0</ele><time>2026-04-25T09:00:15.389Z</time></trkpt><trkpt lat="43.789625" lon="12.2127617"><ele>478.0</ele><time>2026-04-25T09:00:16.39Z</time></trkpt><trkpt lat="43.7895217" lon="12.2126867"><ele>478.0</ele><time>2026-04-25T09:00:17.39Z</time></trkpt><trkpt lat="43.78941" lon="12.21262"><ele>478.0</ele><time>2026-04-25T09:00:18.39Z</time></trkpt><trkpt lat="43.78929" lon="12.2125533"><ele>478.0</ele><time>2026-04-25T09:00:19.389Z</time></trkpt><trkpt lat="43.7891733" lon="12.2124967"><ele>478.0</ele><time>2026-04-25T09:00:20.389Z</time></trkpt><trkpt lat="43.78906" lon="12.2124467"><ele>478.0</ele><time>2026-04-25T09:00:21.39Z</time></trkpt><trkpt lat="43.7889483" lon="12.2124083"><ele>478.0</ele><time>2026-04-25T09:00:22.389Z</time></trkpt><trkpt lat="43.78883" lon="12.21237"><ele>478.0</ele><time>2026-04-25T09:00:23.389Z</time></trkpt><trkpt lat="43.7887217" lon="12.21235"><ele>478.0</ele><time>2026-04-25T09:00:24.39Z</time></trkpt><trkpt lat="43.78862" lon="12.212335"><ele>477.99999999999994</ele><time>2026-04-25T09:00:25.39Z</time></trkpt><trkpt lat="43.78852" lon="12.2123117"><ele>477.99999999999994</ele><time>2026-04-25T09:00:26.389Z</time></trkpt><trkpt lat="43.7884167" lon="12.2122683"><ele>478.0</ele><time>2026-04-25T09:00:27.39Z</time></trkpt><trkpt lat="43.788315" lon="12.2122017"><ele>478.0</ele><time>2026-04-25T09:00:28.39Z</time></trkpt><trkpt lat="43.7882067" lon="12.2121217"><ele>473.75</ele><time>2026-04-25T09:00:29.39Z</time></trkpt><trkpt lat="43.7880917" lon="12.2120517"><ele>469.5</ele><time>2026-04-25T09:00:30.389Z</time></trkpt><trkpt lat="43.7879817" lon="12.2119933"><ele>465.25</ele><time>2026-04-25T09:00:31.39Z</time></trkpt><trkpt lat="43.78788" lon="12.2119333"><ele>461.0</ele><time>2026-04-25T09:00:32.389Z</time></trkpt><trkpt lat="43.7877767" lon="12.2118733"><ele>461.6</ele><time>2026-04-25T09:00:33.39Z</time></trkpt><trkpt lat="43.7876767" lon="12.2118167"><ele>462.20000000000005</ele><time>2026-04-25T09:00:34.39Z</time></trkpt><trkpt lat="43.787575" lon="12.211765"><ele>462.79999999999995</ele><time>2026-04-25T09:00:35.39Z</time></trkpt><trkpt lat="43.7874867" lon="12.2117167"><ele>463.4</ele><time>2026-04-25T09:00:36.39Z</time></trkpt><trkpt lat="43.787415" lon="12.2116617"><ele>464.0</ele><time>2026-04-25T09:00:37.389Z</time></trkpt><trkpt lat="43.787365" lon="12.2115933"><ele>463.99999999999994</ele><time>2026-04-25T09:00:38.389Z</time></trkpt><trkpt lat="43.787345" lon="12.2114933"><ele>464.0</ele><time>2026-04-25T09:00:39.389Z</time></trkpt><trkpt lat="43.787355" lon="12.2113833"><ele>464.0</ele><time>2026-04-25T09:00:40.389Z</time></trkpt><trkpt lat="43.7873833" lon="12.211265"><ele>464.0</ele><time>2026-04-25T09:00:41.39Z</time></trkpt><trkpt lat="43.7874167" lon="12.2111417"><ele>463.99999999999994</ele><time>2026-04-25T09:00:42.39Z</time></trkpt><trkpt lat="43.7874283" lon="12.2110233"><ele>464.0</ele><time>2026-04-25T09:00:43.39Z</time></trkpt><trkpt lat="43.7874033" lon="12.210895"><ele>461.2</ele><time>2026-04-25T09:00:44.389Z</time></trkpt><trkpt lat="43.7873533" lon="12.2107717"><ele>458.4</ele><time>2026-04-25T09:00:45.39Z</time></trkpt><trkpt lat="43.7872883" lon="12.2106567"><ele>455.6</ele><time>2026-04-25T09:00:46.389Z</time></trkpt><trkpt lat="43.7872167" lon="12.2105517"><ele>452.8</ele><time>2026-04-25T09:00:47.39Z</time></trkpt><trkpt lat="43.787145" lon="12.2104667"><ele>450.0</ele><time>2026-04-25T09:00:48.39Z</time></trkpt><trkpt lat="43.7870583" lon="12.2103967"><ele>446.0</ele><time>2026-04-25T09:00:49.39Z</time></trkpt><trkpt lat="43.7869633" lon="12.2103433"><ele>442.0</ele><time>2026-04-25T09:00:50.39Z</time></trkpt><trkpt lat="43.7868767" lon="12.2103017"><ele>438.0</ele><time>2026-04-25T09:00:51.39Z</time></trkpt><trkpt lat="43.78679" lon="12.21029"><ele>434.0</ele><time>2026-04-25T09:00:52.39Z</time></trkpt><trkpt lat="43.7867017" lon="12.2103"><ele>430.0</ele><time>2026-04-25T09:00:53.389Z</time></trkpt><trkpt lat="43.7866117" lon="12.2103417"><ele>430.0</ele><time>2026-04-25T09:00:54.389Z</time></trkpt><trkpt lat="43.78652" lon="12.210395"><ele>430.0</ele><time>2026-04-25T09:00:55.39Z</time></trkpt><trkpt lat="43.7864333" lon="12.210455"><ele>430.0</ele><time>2026-04-25T09:00:56.39Z</time></trkpt><trkpt lat="43.7863433" lon="12.2105"><ele>430.0</ele><time>2026-04-25T09:00:57.39Z</time></trkpt><trkpt lat="43.7862583" lon="12.2105167"><ele>430.0</ele><time>2026-04-25T09:00:58.389Z</time></trkpt><trkpt lat="43.78616" lon="12.2105233"><ele>430.0</ele><time>2026-04-25T09:00:59.39Z</time></trkpt><trkpt lat="43.7860633" lon="12.210505"><ele>430.0</ele><time>2026-04-25T09:01:00.389Z</time></trkpt><trkpt lat="43.7859683" lon="12.2104617"><ele>430.0</ele><time>2026-04-25T09:01:01.389Z</time></trkpt><trkpt lat="43.785885" lon="12.2104033"><ele>430.0</ele><time>2026-04-25T09:01:02.39Z</time></trkpt><trkpt lat="43.7858133" lon="12.2103533"><ele>430.0</ele><time>2026-04-25T09:01:03.389Z</time></trkpt><trkpt lat="43.7857367" lon="12.2103167"><ele>429.33333333333337</ele><time>2026-04-25T09:01:04.39Z</time></trkpt><trkpt lat="43.7856583" lon="12.2103083"><ele>428.6666666666667</ele><time>2026-04-25T09:01:05.39Z</time></trkpt><trkpt lat="43.78559" lon="12.2103183"><ele>428.0</ele><time>2026-04-25T09:01:06.389Z</time></trkpt><trkpt lat="43.7855217" lon="12.2103633"><ele>427.33333333333337</ele><time>2026-04-25T09:01:07.39Z</time></trkpt><trkpt lat="43.7854483" lon="12.2104183"><ele>426.6666666666667</ele><time>2026-04-25T09:01:08.39Z</time></trkpt><trkpt lat="43.78537" lon="12.2104867"><ele>426.0</ele><time>2026-04-25T09:01:09.389Z</time></trkpt><trkpt lat="43.785295" lon="12.210545"><ele>426.0</ele><time>2026-04-25T09:01:10.39Z</time></trkpt><trkpt lat="43.78522" lon="12.2105967"><ele>426.0</ele><time>2026-04-25T09:01:11.39Z</time></trkpt><trkpt lat="43.7851483" lon="12.21063"><ele>426.0</ele><time>2026-04-25T09:01:12.39Z</time></trkpt><trkpt lat="43.78504" lon="12.210625"><ele>426.0</ele><time>2026-04-25T09:01:14.39Z</time></trkpt><trkpt lat="43.78497" lon="12.21059"><ele>426.0</ele><time>2026-04-25T09:01:16.39Z</time></trkpt><trkpt lat="43.7849067" lon="12.210585"><ele>426.0</ele><time>2026-04-25T09:01:20.39Z</time></trkpt><trkpt lat="43.78484" lon="12.210675"><ele>426.0</ele><time>2026-04-25T09:01:22.39Z</time></trkpt><trkpt lat="43.7848017" lon="12.2107667"><ele>426.0</ele><time>2026-04-25T09:01:23.39Z</time></trkpt><trkpt lat="43.7847333" lon="12.210875"><ele>426.0</ele><time>2026-04-25T09:01:24.389Z</time></trkpt><trkpt lat="43.7846433" lon="12.210965"><ele>426.0</ele><time>2026-04-25T09:01:25.389Z</time></trkpt><trkpt lat="43.7845267" lon="12.2110167"><ele>426.0</ele><time>2026-04-25T09:01:26.389Z</time></trkpt><trkpt lat="43.7843967" lon="12.2110583"><ele>424.75</ele><time>2026-04-25T09:01:27.389Z</time></trkpt><trkpt lat="43.7842667" lon="12.2110717"><ele>423.5</ele><time>2026-04-25T09:01:28.39Z</time></trkpt><trkpt lat="43.7841267" lon="12.21105"><ele>422.25</ele><time>2026-04-25T09:01:29.39Z</time></trkpt><trkpt lat="43.784" lon="12.21101"><ele>421.0</ele><time>2026-04-25T09:01:30.389Z</time></trkpt><trkpt lat="43.7838717" lon="12.2109533"><ele>421.0</ele><time>2026-04-25T09:01:31.39Z</time></trkpt><trkpt lat="43.7837433" lon="12.2109033"><ele>421.0</ele><time>2026-04-25T09:01:32.389Z</time></trkpt><trkpt lat="43.7836283" lon="12.2108617"><ele>421.0</ele><time>2026-04-25T09:01:33.389Z</time></trkpt><trkpt lat="43.7835517" lon="12.210835"><ele>421.0</ele><time>2026-04-25T09:01:34.39Z</time></trkpt><trkpt lat="43.7834467" lon="12.2108617"><ele>421.0</ele><time>2026-04-25T09:01:36.389Z</time></trkpt><trkpt lat="43.7833767" lon="12.2109067"><ele>421.8</ele><time>2026-04-25T09:01:37.389Z</time></trkpt><trkpt lat="43.783285" lon="12.2109433"><ele>422.6</ele><time>2026-04-25T09:01:38.389Z</time></trkpt><trkpt lat="43.7831817" lon="12.2109717"><ele>423.4</ele><time>2026-04-25T09:01:39.39Z</time></trkpt><trkpt lat="43.7830717" lon="12.211"><ele>424.2</ele><time>2026-04-25T09:01:40.39Z</time></trkpt><trkpt lat="43.7829667" lon="12.21103"><ele>425.0</ele><time>2026-04-25T09:01:41.389Z</time></trkpt><trkpt lat="43.78286" lon="12.2110483"><ele>425.0</ele><time>2026-04-25T09:01:42.389Z</time></trkpt><trkpt lat="43.7827533" lon="12.2110767"><ele>425.0</ele><time>2026-04-25T09:01:43.39Z</time></trkpt><trkpt lat="43.78264" lon="12.211105"><ele>425.0</ele><time>2026-04-25T09:01:44.39Z</time></trkpt><trkpt lat="43.7825233" lon="12.21113"><ele>425.0</ele><time>2026-04-25T09:01:45.39Z</time></trkpt><trkpt lat="43.7823967" lon="12.2111383"><ele>425.6</ele><time>2026-04-25T09:01:46.389Z</time></trkpt><trkpt lat="43.7822783" lon="12.21114"><ele>426.2</ele><time>2026-04-25T09:01:47.39Z</time></trkpt><trkpt lat="43.7821733" lon="12.2111483"><ele>426.79999999999995</ele><time>2026-04-25T09:01:48.389Z</time></trkpt><trkpt lat="43.782075" lon="12.2111817"><ele>427.4</ele><time>2026-04-25T09:01:49.39Z</time></trkpt><trkpt lat="43.7819783" lon="12.211255"><ele>428.0</ele><time>2026-04-25T09:01:50.39Z</time></trkpt><trkpt lat="43.7819" lon="12.2113533"><ele>428.25</ele><time>2026-04-25T09:01:51.389Z</time></trkpt><trkpt lat="43.78181" lon="12.211425"><ele>428.5</ele><time>2026-04-25T09:01:52.39Z</time></trkpt><trkpt lat="43.7817067" lon="12.211455"><ele>428.75</ele><time>2026-04-25T09:01:53.39Z</time></trkpt><trkpt lat="43.7815867" lon="12.211455"><ele>429.0</ele><time>2026-04-25T09:01:54.39Z</time></trkpt><trkpt lat="43.7814633" lon="12.2114633"><ele>433.75</ele><time>2026-04-25T09:01:55.39Z</time></trkpt><trkpt lat="43.781345" lon="12.2114933"><ele>438.5</ele><time>2026-04-25T09:01:56.389Z</time></trkpt><trkpt lat="43.781225" lon="12.21153"><ele>443.25</ele><time>2026-04-25T09:01:57.39Z</time></trkpt><trkpt lat="43.7811067" lon="12.2115783"><ele>448.0</ele><time>2026-04-25T09:01:58.389Z</time></trkpt><trkpt lat="43.781" lon="12.21163"><ele>449.0</ele><time>2026-04-25T09:01:59.389Z</time></trkpt><trkpt lat="43.7808833" lon="12.211705"><ele>450.0</ele><time>2026-04-25T09:02:00.389Z</time></trkpt><trkpt lat="43.780795" lon="12.21182"><ele>451.0</ele><time>2026-04-25T09:02:01.389Z</time></trkpt><trkpt lat="43.7807433" lon="12.2119733"><ele>452.0</ele><time>2026-04-25T09:02:02.39Z</time></trkpt><trkpt lat="43.780705" lon="12.21214"><ele>452.0</ele><time>2026-04-25T09:02:03.39Z</time></trkpt><trkpt lat="43.7806717" lon="12.21231"><ele>452.0</ele><time>2026-04-25T09:02:04.389Z</time></trkpt><trkpt lat="43.780645" lon="12.2124717"><ele>452.0</ele><time>2026-04-25T09:02:05.39Z</time></trkpt><trkpt lat="43.7806433" lon="12.2126267"><ele>452.0</ele><time>2026-04-25T09:02:06.39Z</time></trkpt><trkpt lat="43.78067" lon="12.2127717"><ele>454.75</ele><time>2026-04-25T09:02:07.389Z</time></trkpt><trkpt lat="43.7807317" lon="12.2128917"><ele>457.5</ele><time>2026-04-25T09:02:08.39Z</time></trkpt><trkpt lat="43.7808233" lon="12.212975"><ele>460.25</ele><time>2026-04-25T09:02:09.39Z</time></trkpt><trkpt lat="43.7809417" lon="12.2129967"><ele>463.0</ele><time>2026-04-25T09:02:10.389Z</time></trkpt><trkpt lat="43.7810633" lon="12.212985"><ele>463.5</ele><time>2026-04-25T09:02:11.39Z</time></trkpt><trkpt lat="43.7811817" lon="12.2129667"><ele>464.0</ele><time>2026-04-25T09:02:12.39Z</time></trkpt><trkpt lat="43.7813017" lon="12.2129383"><ele>464.5</ele><time>2026-04-25T09:02:13.39Z</time></trkpt><trkpt lat="43.781425" lon="12.2129317"><ele>465.0</ele><time>2026-04-25T09:02:14.39Z</time></trkpt><trkpt lat="43.7815433" lon="12.2129517"><ele>465.0</ele><time>2026-04-25T09:02:15.389Z</time></trkpt><trkpt lat="43.781655" lon="12.2129867"><ele>465.0</ele><time>2026-04-25T09:02:16.39Z</time></trkpt><trkpt lat="43.7817617" lon="12.2130333"><ele>465.0</ele><time>2026-04-25T09:02:17.389Z</time></trkpt><trkpt lat="43.7818467" lon="12.2130767"><ele>465.0</ele><time>2026-04-25T09:02:18.39Z</time></trkpt><trkpt lat="43.7819233" lon="12.21314"><ele>465.0</ele><time>2026-04-25T09:02:19.39Z</time></trkpt><trkpt lat="43.7819717" lon="12.213215"><ele>466.6666666666667</ele><time>2026-04-25T09:02:20.39Z</time></trkpt><trkpt lat="43.7819867" lon="12.2133133"><ele>468.33333333333337</ele><time>2026-04-25T09:02:21.39Z</time></trkpt><trkpt lat="43.7819833" lon="12.2134183"><ele>470.0</ele><time>2026-04-25T09:02:22.39Z</time></trkpt><trkpt lat="43.78196" lon="12.2135333"><ele>471.6666666666667</ele><time>2026-04-25T09:02:23.389Z</time></trkpt><trkpt lat="43.7819133" lon="12.2136483"><ele>473.33333333333337</ele><time>2026-04-25T09:02:24.39Z</time></trkpt><trkpt lat="43.78183" lon="12.2137533"><ele>475.0</ele><time>2026-04-25T09:02:25.389Z</time></trkpt><trkpt lat="43.7817217" lon="12.21384"><ele>476.0</ele><time>2026-04-25T09:02:26.39Z</time></trkpt><trkpt lat="43.7815967" lon="12.2138983"><ele>477.0</ele><time>2026-04-25T09:02:27.39Z</time></trkpt><trkpt lat="43.7814817" lon="12.2139467"><ele>478.0</ele><time>2026-04-25T09:02:28.389Z</time></trkpt><trkpt lat="43.7813683" lon="12.2139867"><ele>479.0</ele><time>2026-04-25T09:02:29.39Z</time></trkpt><trkpt lat="43.781265" lon="12.2140533"><ele>480.75</ele><time>2026-04-25T09:02:30.389Z</time></trkpt><trkpt lat="43.781165" lon="12.2141517"><ele>482.5</ele><time>2026-04-25T09:02:31.389Z</time></trkpt><trkpt lat="43.7810733" lon="12.2142733"><ele>484.25</ele><time>2026-04-25T09:02:32.39Z</time></trkpt><trkpt lat="43.780985" lon="12.21442"><ele>486.0</ele><time>2026-04-25T09:02:33.39Z</time></trkpt><trkpt lat="43.7808917" lon="12.2145717"><ele>486.0</ele><time>2026-04-25T09:02:34.39Z</time></trkpt><trkpt lat="43.78081" lon="12.2147217"><ele>486.0</ele><time>2026-04-25T09:02:35.39Z</time></trkpt><trkpt lat="43.78074" lon="12.2148817"><ele>486.0</ele><time>2026-04-25T09:02:36.389Z</time></trkpt><trkpt lat="43.7806767" lon="12.2150583"><ele>486.0</ele><time>2026-04-25T09:02:37.39Z</time></trkpt><trkpt lat="43.780635" lon="12.2152467"><ele>489.25</ele><time>2026-04-25T09:02:38.39Z</time></trkpt><trkpt lat="43.780605" lon="12.2154367"><ele>492.5</ele><time>2026-04-25T09:02:39.39Z</time></trkpt><trkpt lat="43.7805567" lon="12.2156183"><ele>495.75</ele><time>2026-04-25T09:02:40.389Z</time></trkpt><trkpt lat="43.780485" lon="12.2157717"><ele>499.0</ele><time>2026-04-25T09:02:41.39Z</time></trkpt><trkpt lat="43.7804" lon="12.2159283"><ele>498.25</ele><time>2026-04-25T09:02:42.389Z</time></trkpt><trkpt lat="43.7803167" lon="12.2160783"><ele>497.5</ele><time>2026-04-25T09:02:43.389Z</time></trkpt><trkpt lat="43.7802467" lon="12.2162517"><ele>496.75</ele><time>2026-04-25T09:02:44.389Z</time></trkpt><trkpt lat="43.7801667" lon="12.21644"><ele>496.0</ele><time>2026-04-25T09:02:45.39Z</time></trkpt><trkpt lat="43.7800767" lon="12.2166117"><ele>499.0</ele><time>2026-04-25T09:02:46.389Z</time></trkpt><trkpt lat="43.7799867" lon="12.2167583"><ele>502.0</ele><time>2026-04-25T09:02:47.39Z</time></trkpt><trkpt lat="43.7799083" lon="12.2169033"><ele>505.0</ele><time>2026-04-25T09:02:48.389Z</time></trkpt><trkpt lat="43.7798433" lon="12.2170517"><ele>508.0</ele><time>2026-04-25T09:02:49.39Z</time></trkpt><trkpt lat="43.7797833" lon="12.2171883"><ele>508.0</ele><time>2026-04-25T09:02:50.389Z</time></trkpt><trkpt lat="43.7796933" lon="12.217285"><ele>508.0</ele><time>2026-04-25T09:02:51.39Z</time></trkpt><trkpt lat="43.779585" lon="12.2173533"><ele>508.0</ele><time>2026-04-25T09:02:52.389Z</time></trkpt><trkpt lat="43.7794567" lon="12.2174017"><ele>508.0</ele><time>2026-04-25T09:02:53.39Z</time></trkpt><trkpt lat="43.7793333" lon="12.2174583"><ele>508.25</ele><time>2026-04-25T09:02:54.39Z</time></trkpt><trkpt lat="43.77922" lon="12.2175467"><ele>508.5</ele><time>2026-04-25T09:02:55.39Z</time></trkpt><trkpt lat="43.7791217" lon="12.2176517"><ele>508.75</ele><time>2026-04-25T09:02:56.39Z</time></trkpt><trkpt lat="43.7790583" lon="12.2177733"><ele>509.0</ele><time>2026-04-25T09:02:57.389Z</time></trkpt><trkpt lat="43.779025" lon="12.217925"><ele>509.0</ele><time>2026-04-25T09:02:58.39Z</time></trkpt><trkpt lat="43.7790183" lon="12.2180983"><ele>509.0</ele><time>2026-04-25T09:02:59.39Z</time></trkpt><trkpt lat="43.7790317" lon="12.21829"><ele>509.0</ele><time>2026-04-25T09:03:00.389Z</time></trkpt><trkpt lat="43.77906" lon="12.21848"><ele>509.0</ele><time>2026-04-25T09:03:01.39Z</time></trkpt><trkpt lat="43.7791083" lon="12.2186567"><ele>511.0</ele><time>2026-04-25T09:03:02.39Z</time></trkpt><trkpt lat="43.7791633" lon="12.2188"><ele>513.0</ele><time>2026-04-25T09:03:03.39Z</time></trkpt><trkpt lat="43.7792083" lon="12.2189467"><ele>515.0</ele><time>2026-04-25T09:03:04.39Z</time></trkpt><trkpt lat="43.7792133" lon="12.2191"><ele>517.0</ele><time>2026-04-25T09:03:05.389Z</time></trkpt><trkpt lat="43.7791883" lon="12.2192583"><ele>519.75</ele><time>2026-04-25T09:03:06.389Z</time></trkpt><trkpt lat="43.779125" lon="12.2193883"><ele>522.5</ele><time>2026-04-25T09:03:07.39Z</time></trkpt><trkpt lat="43.7790367" lon="12.2194967"><ele>525.25</ele><time>2026-04-25T09:03:08.39Z</time></trkpt><trkpt lat="43.77893" lon="12.2195983"><ele>528.0</ele><time>2026-04-25T09:03:09.39Z</time></trkpt><trkpt lat="43.77882" lon="12.2196867"><ele>528.0</ele><time>2026-04-25T09:03:10.39Z</time></trkpt><trkpt lat="43.7787067" lon="12.21976"><ele>528.0</ele><time>2026-04-25T09:03:11.39Z</time></trkpt><trkpt lat="43.7785967" lon="12.2198283"><ele>528.0</ele><time>2026-04-25T09:03:12.39Z</time></trkpt><trkpt lat="43.7785133" lon="12.2199067"><ele>528.0</ele><time>2026-04-25T09:03:13.389Z</time></trkpt><trkpt lat="43.778455" lon="12.2200067"><ele>528.0</ele><time>2026-04-25T09:03:14.39Z</time></trkpt><trkpt lat="43.7784117" lon="12.220125"><ele>529.5</ele><time>2026-04-25T09:03:15.389Z</time></trkpt><trkpt lat="43.7783917" lon="12.2202783"><ele>531.0</ele><time>2026-04-25T09:03:16.389Z</time></trkpt><trkpt lat="43.7783733" lon="12.2204483"><ele>532.5</ele><time>2026-04-25T09:03:17.39Z</time></trkpt><trkpt lat="43.77836" lon="12.2206183"><ele>534.0</ele><time>2026-04-25T09:03:18.389Z</time></trkpt><trkpt lat="43.778325" lon="12.220765"><ele>537.0</ele><time>2026-04-25T09:03:19.39Z</time></trkpt><trkpt lat="43.77827" lon="12.2208833"><ele>540.0</ele><time>2026-04-25T09:03:20.389Z</time></trkpt><trkpt lat="43.778185" lon="12.2209867"><ele>543.0</ele><time>2026-04-25T09:03:21.39Z</time></trkpt><trkpt lat="43.778085" lon="12.2210867"><ele>546.0</ele><time>2026-04-25T09:03:22.39Z</time></trkpt><trkpt lat="43.77798" lon="12.221185"><ele>546.0</ele><time>2026-04-25T09:03:23.389Z</time></trkpt><trkpt lat="43.777885" lon="12.221305"><ele>546.0</ele><time>2026-04-25T09:03:24.39Z</time></trkpt><trkpt lat="43.777795" lon="12.2214317"><ele>546.0</ele><time>2026-04-25T09:03:25.389Z</time></trkpt><trkpt lat="43.777715" lon="12.221565"><ele>546.0</ele><time>2026-04-25T09:03:26.389Z</time></trkpt><trkpt lat="43.7776483" lon="12.22172"><ele>545.5</ele><time>2026-04-25T09:03:27.389Z</time></trkpt><trkpt lat="43.7775917" lon="12.22189"><ele>545.0</ele><time>2026-04-25T09:03:28.39Z</time></trkpt><trkpt lat="43.7775467" lon="12.222075"><ele>544.5</ele><time>2026-04-25T09:03:29.389Z</time></trkpt><trkpt lat="43.7775133" lon="12.2222633"><ele>544.0</ele><time>2026-04-25T09:03:30.39Z</time></trkpt><trkpt lat="43.7774733" lon="12.22245"><ele>546.25</ele><time>2026-04-25T09:03:31.39Z</time></trkpt><trkpt lat="43.7774133" lon="12.2226283"><ele>548.5</ele><time>2026-04-25T09:03:32.39Z</time></trkpt><trkpt lat="43.7773283" lon="12.2227933"><ele>550.75</ele><time>2026-04-25T09:03:33.39Z</time></trkpt><trkpt lat="43.7772333" lon="12.2229433"><ele>553.0</ele><time>2026-04-25T09:03:34.39Z</time></trkpt><trkpt lat="43.7771133" lon="12.223065"><ele>553.0</ele><time>2026-04-25T09:03:35.389Z</time></trkpt><trkpt lat="43.776975" lon="12.2231467"><ele>553.0</ele><time>2026-04-25T09:03:36.39Z</time></trkpt><trkpt lat="43.7768383" lon="12.2232083"><ele>553.0</ele><time>2026-04-25T09:03:37.39Z</time></trkpt><trkpt lat="43.776705" lon="12.2232883"><ele>553.0</ele><time>2026-04-25T09:03:38.389Z</time></trkpt><trkpt lat="43.77658" lon="12.2233917"><ele>554.5</ele><time>2026-04-25T09:03:39.39Z</time></trkpt><trkpt lat="43.7764733" lon="12.223515"><ele>556.0</ele><time>2026-04-25T09:03:40.389Z</time></trkpt><trkpt lat="43.77638" lon="12.223655"><ele>557.5</ele><time>2026-04-25T09:03:41.39Z</time></trkpt><trkpt lat="43.7762967" lon="12.22382"><ele>559.0</ele><time>2026-04-25T09:03:42.389Z</time></trkpt><trkpt lat="43.7762233" lon="12.2239783"><ele>559.75</ele><time>2026-04-25T09:03:43.389Z</time></trkpt><trkpt lat="43.776155" lon="12.2241367"><ele>560.5</ele><time>2026-04-25T09:03:44.389Z</time></trkpt><trkpt lat="43.7760783" lon="12.2242783"><ele>561.25</ele><time>2026-04-25T09:03:45.389Z</time></trkpt><trkpt lat="43.7759967" lon="12.224415"><ele>562.0</ele><time>2026-04-25T09:03:46.39Z</time></trkpt><trkpt lat="43.7759167" lon="12.224545"><ele>562.0</ele><time>2026-04-25T09:03:47.389Z</time></trkpt><trkpt lat="43.7758367" lon="12.2246633"><ele>562.0</ele><time>2026-04-25T09:03:48.389Z</time></trkpt><trkpt lat="43.775785" lon="12.224795"><ele>562.0</ele><time>2026-04-25T09:03:49.389Z</time></trkpt><trkpt lat="43.775755" lon="12.2249567"><ele>562.0</ele><time>2026-04-25T09:03:50.389Z</time></trkpt><trkpt lat="43.7757383" lon="12.2251367"><ele>564.25</ele><time>2026-04-25T09:03:51.39Z</time></trkpt><trkpt lat="43.77572" lon="12.2253167"><ele>566.5</ele><time>2026-04-25T09:03:52.39Z</time></trkpt><trkpt lat="43.77569" lon="12.2255067"><ele>568.75</ele><time>2026-04-25T09:03:53.39Z</time></trkpt><trkpt lat="43.7756467" lon="12.2256983"><ele>571.0</ele><time>2026-04-25T09:03:54.39Z</time></trkpt><trkpt lat="43.7755933" lon="12.2259"><ele>573.0</ele><time>2026-04-25T09:03:55.39Z</time></trkpt><trkpt lat="43.7755333" lon="12.226095"><ele>575.0</ele><time>2026-04-25T09:03:56.389Z</time></trkpt><trkpt lat="43.7754667" lon="12.2262933"><ele>577.0</ele><time>2026-04-25T09:03:57.389Z</time></trkpt><trkpt lat="43.775385" lon="12.226485"><ele>580.0</ele><time>2026-04-25T09:03:58.39Z</time></trkpt><trkpt lat="43.7752867" lon="12.226655"><ele>583.0</ele><time>2026-04-25T09:03:59.389Z</time></trkpt><trkpt lat="43.7751883" lon="12.226825"><ele>586.0</ele><time>2026-04-25T09:04:00.39Z</time></trkpt><trkpt lat="43.7751067" lon="12.2269917"><ele>582.5</ele><time>2026-04-25T09:04:01.389Z</time></trkpt><trkpt lat="43.77503" lon="12.2271733"><ele>579.0</ele><time>2026-04-25T09:04:02.389Z</time></trkpt><trkpt lat="43.7749733" lon="12.22736"><ele>575.5</ele><time>2026-04-25T09:04:03.389Z</time></trkpt><trkpt lat="43.7749117" lon="12.2275367"><ele>572.0</ele><time>2026-04-25T09:04:04.389Z</time></trkpt><trkpt lat="43.7748233" lon="12.2276917"><ele>572.0</ele><time>2026-04-25T09:04:05.39Z</time></trkpt><trkpt lat="43.7747217" lon="12.2278383"><ele>572.0</ele><time>2026-04-25T09:04:06.39Z</time></trkpt><trkpt lat="43.774625" lon="12.22796"><ele>572.0</ele><time>2026-04-25T09:04:07.389Z</time></trkpt><trkpt lat="43.77455" lon="12.22807"><ele>572.0</ele><time>2026-04-25T09:04:08.39Z</time></trkpt><trkpt lat="43.7744917" lon="12.2281917"><ele>574.0</ele><time>2026-04-25T09:04:09.39Z</time></trkpt><trkpt lat="43.77446" lon="12.2283333"><ele>576.0</ele><time>2026-04-25T09:04:10.39Z</time></trkpt><trkpt lat="43.774465" lon="12.2284867"><ele>578.0</ele><time>2026-04-25T09:04:11.389Z</time></trkpt><trkpt lat="43.7745033" lon="12.228645"><ele>580.0</ele><time>2026-04-25T09:04:12.388Z</time></trkpt><trkpt lat="43.7745517" lon="12.228775"><ele>582.0</ele><time>2026-04-25T09:04:13.389Z</time></trkpt><trkpt lat="43.7746067" lon="12.2288583"><ele>582.0</ele><time>2026-04-25T09:04:14.389Z</time></trkpt><trkpt lat="43.7746667" lon="12.2289017"><ele>582.0</ele><time>2026-04-25T09:04:15.388Z</time></trkpt><trkpt lat="43.7747317" lon="12.228915"><ele>582.0</ele><time>2026-04-25T09:04:16.389Z</time></trkpt><trkpt lat="43.77481" lon="12.2288483"><ele>582.0</ele><time>2026-04-25T09:04:17.388Z</time></trkpt><trkpt lat="43.774895" lon="12.2287733"><ele>582.0</ele><time>2026-04-25T09:04:18.389Z</time></trkpt><trkpt lat="43.7749883" lon="12.2286983"><ele>582.0</ele><time>2026-04-25T09:04:19.388Z</time></trkpt><trkpt lat="43.7750967" lon="12.2286633"><ele>585.5</ele><time>2026-04-25T09:04:20.389Z</time></trkpt><trkpt lat="43.7752133" lon="12.2286833"><ele>589.0</ele><time>2026-04-25T09:04:21.389Z</time></trkpt><trkpt lat="43.77533" lon="12.228755"><ele>592.5</ele><time>2026-04-25T09:04:22.389Z</time></trkpt><trkpt lat="43.77545" lon="12.2288433"><ele>596.0</ele><time>2026-04-25T09:04:23.388Z</time></trkpt><trkpt lat="43.7755667" lon="12.22891"><ele>597.5</ele><time>2026-04-25T09:04:24.389Z</time></trkpt><trkpt lat="43.7756783" lon="12.2289767"><ele>599.0</ele><time>2026-04-25T09:04:25.388Z</time></trkpt><trkpt lat="43.7757817" lon="12.2290833"><ele>600.5</ele><time>2026-04-25T09:04:26.389Z</time></trkpt><trkpt lat="43.7758667" lon="12.2292167"><ele>602.0</ele><time>2026-04-25T09:04:27.388Z</time></trkpt><trkpt lat="43.7759433" lon="12.2293283"><ele>602.0</ele><time>2026-04-25T09:04:28.389Z</time></trkpt><trkpt lat="43.7759867" lon="12.229445"><ele>602.0</ele><time>2026-04-25T09:04:29.389Z</time></trkpt><trkpt lat="43.7759983" lon="12.2295567"><ele>602.0</ele><time>2026-04-25T09:04:30.388Z</time></trkpt><trkpt lat="43.77596" lon="12.2296567"><ele>602.0</ele><time>2026-04-25T09:04:31.389Z</time></trkpt><trkpt lat="43.7758817" lon="12.2297533"><ele>602.0</ele><time>2026-04-25T09:04:32.388Z</time></trkpt><trkpt lat="43.7758" lon="12.22984"><ele>604.0</ele><time>2026-04-25T09:04:33.389Z</time></trkpt><trkpt lat="43.7757283" lon="12.22993"><ele>606.0</ele><time>2026-04-25T09:04:34.389Z</time></trkpt><trkpt lat="43.7756617" lon="12.2300333"><ele>608.0</ele><time>2026-04-25T09:04:35.388Z</time></trkpt><trkpt lat="43.7756067" lon="12.2301683"><ele>610.0</ele><time>2026-04-25T09:04:36.388Z</time></trkpt><trkpt lat="43.7755583" lon="12.2303233"><ele>612.0</ele><time>2026-04-25T09:04:37.389Z</time></trkpt><trkpt lat="43.7755333" lon="12.230485"><ele>615.0</ele><time>2026-04-25T09:04:38.388Z</time></trkpt><trkpt lat="43.7755233" lon="12.23065"><ele>618.0</ele><time>2026-04-25T09:04:39.389Z</time></trkpt><trkpt lat="43.775525" lon="12.2308267"><ele>621.0</ele><time>2026-04-25T09:04:40.388Z</time></trkpt><trkpt lat="43.7755317" lon="12.2310133"><ele>624.0</ele><time>2026-04-25T09:04:41.389Z</time></trkpt><trkpt lat="43.775535" lon="12.2312"><ele>624.0</ele><time>2026-04-25T09:04:42.389Z</time></trkpt><trkpt lat="43.7755317" lon="12.2314017"><ele>624.0</ele><time>2026-04-25T09:04:43.389Z</time></trkpt><trkpt lat="43.775525" lon="12.23161"><ele>624.0</ele><time>2026-04-25T09:04:44.388Z</time></trkpt><trkpt lat="43.7755133" lon="12.231825"><ele>626.6666666666666</ele><time>2026-04-25T09:04:45.388Z</time></trkpt><trkpt lat="43.7754967" lon="12.232045"><ele>629.3333333333333</ele><time>2026-04-25T09:04:46.389Z</time></trkpt><trkpt lat="43.7754717" lon="12.2322633"><ele>632.0</ele><time>2026-04-25T09:04:47.388Z</time></trkpt><trkpt lat="43.7754217" lon="12.232465"><ele>632.75</ele><time>2026-04-25T09:04:48.388Z</time></trkpt><trkpt lat="43.7753583" lon="12.2326433"><ele>633.5</ele><time>2026-04-25T09:04:49.388Z</time></trkpt><trkpt lat="43.775285" lon="12.2328117"><ele>634.25</ele><time>2026-04-25T09:04:50.389Z</time></trkpt><trkpt lat="43.7752283" lon="12.232985"><ele>635.0</ele><time>2026-04-25T09:04:51.389Z</time></trkpt><trkpt lat="43.7751883" lon="12.233165"><ele>636.0</ele><time>2026-04-25T09:04:52.389Z</time></trkpt><trkpt lat="43.77516" lon="12.2333383"><ele>637.0</ele><time>2026-04-25T09:04:53.388Z</time></trkpt><trkpt lat="43.775155" lon="12.233515"><ele>638.0</ele><time>2026-04-25T09:04:54.389Z</time></trkpt><trkpt lat="43.7751717" lon="12.2337067"><ele>639.0</ele><time>2026-04-25T09:04:55.388Z</time></trkpt><trkpt lat="43.7752283" lon="12.2338983"><ele>640.25</ele><time>2026-04-25T09:04:56.388Z</time></trkpt><trkpt lat="43.775295" lon="12.2340667"><ele>641.5</ele><time>2026-04-25T09:04:57.389Z</time></trkpt><trkpt lat="43.77536" lon="12.2342233"><ele>642.75</ele><time>2026-04-25T09:04:58.389Z</time></trkpt><trkpt lat="43.77541" lon="12.234385"><ele>644.0</ele><time>2026-04-25T09:04:59.389Z</time></trkpt><trkpt lat="43.7754217" lon="12.2345467"><ele>644.0</ele><time>2026-04-25T09:05:00.389Z</time></trkpt><trkpt lat="43.7754" lon="12.2347233"><ele>644.0</ele><time>2026-04-25T09:05:01.389Z</time></trkpt><trkpt lat="43.77536" lon="12.2348867"><ele>644.0</ele><time>2026-04-25T09:05:02.388Z</time></trkpt><trkpt lat="43.77532" lon="12.235025"><ele>644.0</ele><time>2026-04-25T09:05:03.388Z</time></trkpt><trkpt lat="43.7752933" lon="12.2351533"><ele>644.8000000000001</ele><time>2026-04-25T09:05:04.388Z</time></trkpt><trkpt lat="43.7752717" lon="12.2352933"><ele>645.6</ele><time>2026-04-25T09:05:05.388Z</time></trkpt><trkpt lat="43.77525" lon="12.235445"><ele>646.4</ele><time>2026-04-25T09:05:06.389Z</time></trkpt><trkpt lat="43.7752233" lon="12.2355867"><ele>647.2</ele><time>2026-04-25T09:05:07.388Z</time></trkpt><trkpt lat="43.7751833" lon="12.2357233"><ele>648.0</ele><time>2026-04-25T09:05:08.389Z</time></trkpt><trkpt lat="43.7751217" lon="12.2358483"><ele>646.0</ele><time>2026-04-25T09:05:09.388Z</time></trkpt><trkpt lat="43.77506" lon="12.23597"><ele>644.0</ele><time>2026-04-25T09:05:10.389Z</time></trkpt><trkpt lat="43.7749883" lon="12.2360567"><ele>642.0</ele><time>2026-04-25T09:05:11.388Z</time></trkpt><trkpt lat="43.7749133" lon="12.2361183"><ele>640.0</ele><time>2026-04-25T09:05:12.388Z</time></trkpt><trkpt lat="43.7748233" lon="12.23615"><ele>638.0</ele><time>2026-04-25T09:05:13.388Z</time></trkpt><trkpt lat="43.7747333" lon="12.2361633"><ele>638.0</ele><time>2026-04-25T09:05:14.388Z</time></trkpt><trkpt lat="43.7746333" lon="12.236195"><ele>638.0</ele><time>2026-04-25T09:05:15.388Z</time></trkpt><trkpt lat="43.7745383" lon="12.2362383"><ele>638.0</ele><time>2026-04-25T09:05:16.389Z</time></trkpt><trkpt lat="43.774445" lon="12.2362983"><ele>638.0</ele><time>2026-04-25T09:05:17.389Z</time></trkpt><trkpt lat="43.77436" lon="12.236385"><ele>638.0</ele><time>2026-04-25T09:05:18.389Z</time></trkpt><trkpt lat="43.7743" lon="12.23649"><ele>637.4</ele><time>2026-04-25T09:05:19.389Z</time></trkpt><trkpt lat="43.77426" lon="12.23661"><ele>636.8</ele><time>2026-04-25T09:05:20.389Z</time></trkpt><trkpt lat="43.7742367" lon="12.2367483"><ele>636.2</ele><time>2026-04-25T09:05:21.388Z</time></trkpt><trkpt lat="43.77425" lon="12.2368967"><ele>635.6</ele><time>2026-04-25T09:05:22.389Z</time></trkpt><trkpt lat="43.77429" lon="12.2370583"><ele>635.0</ele><time>2026-04-25T09:05:23.389Z</time></trkpt><trkpt lat="43.774335" lon="12.23723"><ele>636.0</ele><time>2026-04-25T09:05:24.389Z</time></trkpt><trkpt lat="43.7743583" lon="12.2374083"><ele>637.0</ele><time>2026-04-25T09:05:25.389Z</time></trkpt><trkpt lat="43.7743583" lon="12.2375917"><ele>638.0</ele><time>2026-04-25T09:05:26.389Z</time></trkpt><trkpt lat="43.7743317" lon="12.2377733"><ele>639.0</ele><time>2026-04-25T09:05:27.389Z</time></trkpt><trkpt lat="43.7743133" lon="12.2379267"><ele>639.0</ele><time>2026-04-25T09:05:28.389Z</time></trkpt><trkpt lat="43.774305" lon="12.2380417"><ele>639.0</ele><time>2026-04-25T09:05:29.389Z</time></trkpt><trkpt lat="43.7742883" lon="12.23814"><ele>639.0</ele><time>2026-04-25T09:05:30.389Z</time></trkpt><trkpt lat="43.77426" lon="12.2382583"><ele>639.0</ele><time>2026-04-25T09:05:31.389Z</time></trkpt><trkpt lat="43.7742167" lon="12.2384"><ele>639.0</ele><time>2026-04-25T09:05:32.389Z</time></trkpt><trkpt lat="43.774165" lon="12.2385567"><ele>639.75</ele><time>2026-04-25T09:05:33.389Z</time></trkpt><trkpt lat="43.7741067" lon="12.2387217"><ele>640.5</ele><time>2026-04-25T09:05:34.389Z</time></trkpt><trkpt lat="43.7740433" lon="12.2388917"><ele>641.25</ele><time>2026-04-25T09:05:35.388Z</time></trkpt><trkpt lat="43.7739867" lon="12.2390533"><ele>642.0</ele><time>2026-04-25T09:05:36.389Z</time></trkpt><trkpt lat="43.7739167" lon="12.239195"><ele>641.5</ele><time>2026-04-25T09:05:37.388Z</time></trkpt><trkpt lat="43.7738317" lon="12.2392867"><ele>641.0</ele><time>2026-04-25T09:05:38.388Z</time></trkpt><trkpt lat="43.7737133" lon="12.2393383"><ele>640.5</ele><time>2026-04-25T09:05:39.389Z</time></trkpt><trkpt lat="43.773575" lon="12.2393617"><ele>640.0</ele><time>2026-04-25T09:05:40.389Z</time></trkpt><trkpt lat="43.7734233" lon="12.239365"><ele>640.0</ele><time>2026-04-25T09:05:41.389Z</time></trkpt><trkpt lat="43.7732767" lon="12.2393633"><ele>640.0</ele><time>2026-04-25T09:05:42.389Z</time></trkpt><trkpt lat="43.77314" lon="12.239365"><ele>640.0</ele><time>2026-04-25T09:05:43.388Z</time></trkpt><trkpt lat="43.7730217" lon="12.2393667"><ele>640.0</ele><time>2026-04-25T09:05:44.389Z</time></trkpt><trkpt lat="43.7729167" lon="12.2393967"><ele>640.0</ele><time>2026-04-25T09:05:45.388Z</time></trkpt><trkpt lat="43.7728433" lon="12.2394867"><ele>640.0</ele><time>2026-04-25T09:05:46.389Z</time></trkpt><trkpt lat="43.7727883" lon="12.2395983"><ele>640.0</ele><time>2026-04-25T09:05:47.388Z</time></trkpt><trkpt lat="43.7727167" lon="12.2396967"><ele>640.0</ele><time>2026-04-25T09:05:48.389Z</time></trkpt><trkpt lat="43.772615" lon="12.239755"><ele>640.0</ele><time>2026-04-25T09:05:49.388Z</time></trkpt><trkpt lat="43.7724983" lon="12.2397733"><ele>641.5</ele><time>2026-04-25T09:05:50.388Z</time></trkpt><trkpt lat="43.7723783" lon="12.2397917"><ele>643.0</ele><time>2026-04-25T09:05:51.389Z</time></trkpt><trkpt lat="43.7722683" lon="12.23984"><ele>644.5</ele><time>2026-04-25T09:05:52.388Z</time></trkpt><trkpt lat="43.7721717" lon="12.239945"><ele>646.0</ele><time>2026-04-25T09:05:53.389Z</time></trkpt><trkpt lat="43.772075" lon="12.2400683"><ele>648.25</ele><time>2026-04-25T09:05:54.389Z</time></trkpt><trkpt lat="43.771985" lon="12.240205"><ele>650.5</ele><time>2026-04-25T09:05:55.389Z</time></trkpt><trkpt lat="43.77191" lon="12.2403383"><ele>652.75</ele><time>2026-04-25T09:05:56.388Z</time></trkpt><trkpt lat="43.771865" lon="12.2404717"><ele>655.0</ele><time>2026-04-25T09:05:57.389Z</time></trkpt><trkpt lat="43.77182" lon="12.2405967"><ele>656.0</ele><time>2026-04-25T09:05:58.389Z</time></trkpt><trkpt lat="43.7717517" lon="12.2407033"><ele>657.0</ele><time>2026-04-25T09:05:59.389Z</time></trkpt><trkpt lat="43.7716567" lon="12.2407267"><ele>658.0</ele><time>2026-04-25T09:06:00.388Z</time></trkpt><trkpt lat="43.771565" lon="12.240695"><ele>659.0</ele><time>2026-04-25T09:06:01.388Z</time></trkpt><trkpt lat="43.7714617" lon="12.2406117"><ele>660.0</ele><time>2026-04-25T09:06:02.389Z</time></trkpt><trkpt lat="43.771375" lon="12.2405"><ele>660.0</ele><time>2026-04-25T09:06:03.388Z</time></trkpt><trkpt lat="43.7712883" lon="12.2403867"><ele>660.0</ele><time>2026-04-25T09:06:04.388Z</time></trkpt><trkpt lat="43.7712117" lon="12.2402933"><ele>660.0</ele><time>2026-04-25T09:06:05.389Z</time></trkpt><trkpt lat="43.771135" lon="12.2402067"><ele>660.0</ele><time>2026-04-25T09:06:06.389Z</time></trkpt><trkpt lat="43.77106" lon="12.24012"><ele>660.0</ele><time>2026-04-25T09:06:07.388Z</time></trkpt><trkpt lat="43.7709783" lon="12.2400433"><ele>662.2</ele><time>2026-04-25T09:06:08.389Z</time></trkpt><trkpt lat="43.7708917" lon="12.2399633"><ele>664.4</ele><time>2026-04-25T09:06:09.389Z</time></trkpt><trkpt lat="43.7708033" lon="12.2398767"><ele>666.5999999999999</ele><time>2026-04-25T09:06:10.388Z</time></trkpt><trkpt lat="43.7707183" lon="12.2397717"><ele>668.8</ele><time>2026-04-25T09:06:11.388Z</time></trkpt><trkpt lat="43.7706467" lon="12.2396367"><ele>671.0</ele><time>2026-04-25T09:06:12.388Z</time></trkpt><trkpt lat="43.7705883" lon="12.2394917"><ele>671.0</ele><time>2026-04-25T09:06:13.388Z</time></trkpt><trkpt lat="43.7705417" lon="12.2393583"><ele>671.0</ele><time>2026-04-25T09:06:14.389Z</time></trkpt><trkpt lat="43.77049" lon="12.2392533"><ele>671.0</ele><time>2026-04-25T09:06:15.389Z</time></trkpt><trkpt lat="43.7704233" lon="12.2391917"><ele>671.0</ele><time>2026-04-25T09:06:16.388Z</time></trkpt><trkpt lat="43.7703417" lon="12.2391733"><ele>671.0</ele><time>2026-04-25T09:06:17.388Z</time></trkpt><trkpt lat="43.7702517" lon="12.23924"><ele>674.5999999999999</ele><time>2026-04-25T09:06:18.388Z</time></trkpt><trkpt lat="43.7701733" lon="12.23934"><ele>678.2</ele><time>2026-04-25T09:06:19.389Z</time></trkpt><trkpt lat="43.7701317" lon="12.239465"><ele>681.8</ele><time>2026-04-25T09:06:20.388Z</time></trkpt><trkpt lat="43.7701183" lon="12.2396067"><ele>685.4000000000001</ele><time>2026-04-25T09:06:21.389Z</time></trkpt><trkpt lat="43.7701417" lon="12.239745"><ele>689.0</ele><time>2026-04-25T09:06:22.389Z</time></trkpt><trkpt lat="43.770155" lon="12.239865"><ele>689.0</ele><time>2026-04-25T09:06:23.389Z</time></trkpt><trkpt lat="43.7701417" lon="12.23997"><ele>689.0</ele><time>2026-04-25T09:06:24.389Z</time></trkpt><trkpt lat="43.770095" lon="12.24004"><ele>689.0</ele><time>2026-04-25T09:06:25.388Z</time></trkpt><trkpt lat="43.77003" lon="12.2400667"><ele>689.0</ele><time>2026-04-25T09:06:26.388Z</time></trkpt><trkpt lat="43.7699617" lon="12.23999"><ele>689.0</ele><time>2026-04-25T09:06:27.388Z</time></trkpt><trkpt lat="43.769895" lon="12.23989"><ele>689.0</ele><time>2026-04-25T09:06:28.389Z</time></trkpt><trkpt lat="43.7698333" lon="12.239785"><ele>689.0</ele><time>2026-04-25T09:06:29.389Z</time></trkpt><trkpt lat="43.769735" lon="12.239695"><ele>689.0</ele><time>2026-04-25T09:06:30.389Z</time></trkpt><trkpt lat="43.769635" lon="12.2396233"><ele>689.0</ele><time>2026-04-25T09:06:31.388Z</time></trkpt><trkpt lat="43.7695267" lon="12.239545"><ele>689.0</ele><time>2026-04-25T09:06:32.389Z</time></trkpt><trkpt lat="43.76941" lon="12.23946"><ele>694.25</ele><time>2026-04-25T09:06:33.389Z</time></trkpt><trkpt lat="43.7692917" lon="12.2393767"><ele>699.5</ele><time>2026-04-25T09:06:34.389Z</time></trkpt><trkpt lat="43.7691567" lon="12.239305"><ele>704.75</ele><time>2026-04-25T09:06:35.388Z</time></trkpt><trkpt lat="43.7690117" lon="12.239255"><ele>710.0</ele><time>2026-04-25T09:06:36.388Z</time></trkpt><trkpt lat="43.7688583" lon="12.23922"><ele>710.0</ele><time>2026-04-25T09:06:37.388Z</time></trkpt><trkpt lat="43.7687083" lon="12.239175"><ele>710.0</ele><time>2026-04-25T09:06:38.388Z</time></trkpt><trkpt lat="43.7685583" lon="12.2391233"><ele>710.0</ele><time>2026-04-25T09:06:39.388Z</time></trkpt><trkpt lat="43.7684083" lon="12.2390617"><ele>711.6666666666666</ele><time>2026-04-25T09:06:40.388Z</time></trkpt><trkpt lat="43.7682583" lon="12.2389917"><ele>713.3333333333334</ele><time>2026-04-25T09:06:41.389Z</time></trkpt><trkpt lat="43.7681083" lon="12.2389183"><ele>715.0</ele><time>2026-04-25T09:06:42.388Z</time></trkpt><trkpt lat="43.7679717" lon="12.2388367"><ele>715.0</ele><time>2026-04-25T09:06:43.389Z</time></trkpt><trkpt lat="43.76784" lon="12.238755"><ele>715.0</ele><time>2026-04-25T09:06:44.389Z</time></trkpt><trkpt lat="43.76771" lon="12.2386767"><ele>715.0</ele><time>2026-04-25T09:06:45.389Z</time></trkpt><trkpt lat="43.7675833" lon="12.2385833"><ele>715.0</ele><time>2026-04-25T09:06:46.389Z</time></trkpt><trkpt lat="43.76747" lon="12.238465"><ele>720.0</ele><time>2026-04-25T09:06:47.389Z</time></trkpt><trkpt lat="43.7673667" lon="12.2383267"><ele>725.0</ele><time>2026-04-25T09:06:48.388Z</time></trkpt><trkpt lat="43.76728" lon="12.238205"><ele>730.0</ele><time>2026-04-25T09:06:49.389Z</time></trkpt><trkpt lat="43.7672017" lon="12.2380983"><ele>735.0</ele><time>2026-04-25T09:06:50.388Z</time></trkpt><trkpt lat="43.7671417" lon="12.2379767"><ele>737.4</ele><time>2026-04-25T09:06:51.388Z</time></trkpt><trkpt lat="43.7671067" lon="12.23784"><ele>739.8</ele><time>2026-04-25T09:06:52.389Z</time></trkpt><trkpt lat="43.7671167" lon="12.2377067"><ele>742.2</ele><time>2026-04-25T09:06:53.388Z</time></trkpt><trkpt lat="43.7671733" lon="12.2375733"><ele>744.6</ele><time>2026-04-25T09:06:54.389Z</time></trkpt><trkpt lat="43.7672667" lon="12.237455"><ele>747.0</ele><time>2026-04-25T09:06:55.388Z</time></trkpt><trkpt lat="43.7673717" lon="12.2373283"><ele>750.0</ele><time>2026-04-25T09:06:56.389Z</time></trkpt><trkpt lat="43.767475" lon="12.2372167"><ele>753.0</ele><time>2026-04-25T09:06:57.389Z</time></trkpt><trkpt lat="43.76756" lon="12.2371333"><ele>756.0</ele><time>2026-04-25T09:06:58.389Z</time></trkpt><trkpt lat="43.7676317" lon="12.23705"><ele>759.0</ele><time>2026-04-25T09:06:59.389Z</time></trkpt><trkpt lat="43.7676883" lon="12.2369583"><ele>762.0</ele><time>2026-04-25T09:07:00.388Z</time></trkpt><trkpt lat="43.7677183" lon="12.2368417"><ele>762.0</ele><time>2026-04-25T09:07:01.388Z</time></trkpt><trkpt lat="43.76771" lon="12.2367233"><ele>762.0</ele><time>2026-04-25T09:07:02.389Z</time></trkpt><trkpt lat="43.767675" lon="12.236615"><ele>762.0</ele><time>2026-04-25T09:07:03.389Z</time></trkpt><trkpt lat="43.76759" lon="12.2365433"><ele>762.0</ele><time>2026-04-25T09:07:04.389Z</time></trkpt><trkpt lat="43.76747" lon="12.2364933"><ele>762.0</ele><time>2026-04-25T09:07:05.388Z</time></trkpt><trkpt lat="43.7673317" lon="12.2364517"><ele>762.0</ele><time>2026-04-25T09:07:06.388Z</time></trkpt><trkpt lat="43.767205" lon="12.2364383"><ele>762.0</ele><time>2026-04-25T09:07:07.388Z</time></trkpt><trkpt lat="43.7670883" lon="12.23646"><ele>762.0</ele><time>2026-04-25T09:07:08.388Z</time></trkpt><trkpt lat="43.7669683" lon="12.2365283"><ele>762.0</ele><time>2026-04-25T09:07:09.389Z</time></trkpt><trkpt lat="43.7668533" lon="12.2366333"><ele>765.0</ele><time>2026-04-25T09:07:10.388Z</time></trkpt><trkpt lat="43.7667383" lon="12.2367383"><ele>768.0</ele><time>2026-04-25T09:07:11.389Z</time></trkpt><trkpt lat="43.7666167" lon="12.23684"><ele>771.0</ele><time>2026-04-25T09:07:12.389Z</time></trkpt><trkpt lat="43.76649" lon="12.2369233"><ele>774.0</ele><time>2026-04-25T09:07:13.388Z</time></trkpt><trkpt lat="43.76635" lon="12.23698"><ele>774.0</ele><time>2026-04-25T09:07:14.389Z</time></trkpt><trkpt lat="43.7662" lon="12.2370183"><ele>774.0</ele><time>2026-04-25T09:07:15.388Z</time></trkpt><trkpt lat="43.76606" lon="12.2370517"><ele>774.0</ele><time>2026-04-25T09:07:16.389Z</time></trkpt><trkpt lat="43.7659217" lon="12.2371017"><ele>774.0</ele><time>2026-04-25T09:07:17.388Z</time></trkpt><trkpt lat="43.76579" lon="12.237135"><ele>777.25</ele><time>2026-04-25T09:07:18.389Z</time></trkpt><trkpt lat="43.7656633" lon="12.2371417"><ele>780.5</ele><time>2026-04-25T09:07:19.389Z</time></trkpt><trkpt lat="43.7655333" lon="12.2371"><ele>783.75</ele><time>2026-04-25T09:07:20.389Z</time></trkpt><trkpt lat="43.7654133" lon="12.2370067"><ele>787.0</ele><time>2026-04-25T09:07:21.389Z</time></trkpt><trkpt lat="43.7653133" lon="12.2368983"><ele>786.9999999999999</ele><time>2026-04-25T09:07:22.389Z</time></trkpt><trkpt lat="43.7652317" lon="12.2368117"><ele>787.0</ele><time>2026-04-25T09:07:23.389Z</time></trkpt><trkpt lat="43.76516" lon="12.2367633"><ele>787.0</ele><time>2026-04-25T09:07:24.388Z</time></trkpt><trkpt lat="43.7650733" lon="12.2367867"><ele>787.0</ele><time>2026-04-25T09:07:25.389Z</time></trkpt><trkpt lat="43.765" lon="12.2368533"><ele>786.9999999999999</ele><time>2026-04-25T09:07:26.389Z</time></trkpt><trkpt lat="43.7649433" lon="12.2369317"><ele>787.0</ele><time>2026-04-25T09:07:27.388Z</time></trkpt><trkpt lat="43.7648817" lon="12.2369617"><ele>791.25</ele><time>2026-04-25T09:07:28.388Z</time></trkpt><trkpt lat="43.7647817" lon="12.2368683"><ele>795.5</ele><time>2026-04-25T09:07:30.389Z</time></trkpt><trkpt lat="43.764755" lon="12.2367467"><ele>799.75</ele><time>2026-04-25T09:07:31.389Z</time></trkpt><trkpt lat="43.7647317" lon="12.2365933"><ele>804.0</ele><time>2026-04-25T09:07:32.388Z</time></trkpt><trkpt lat="43.7646983" lon="12.2364267"><ele>804.5</ele><time>2026-04-25T09:07:33.389Z</time></trkpt><trkpt lat="43.7646383" lon="12.23626"><ele>805.0</ele><time>2026-04-25T09:07:34.388Z</time></trkpt><trkpt lat="43.7645567" lon="12.2361033"><ele>805.5</ele><time>2026-04-25T09:07:35.389Z</time></trkpt><trkpt lat="43.7644767" lon="12.235975"><ele>806.0</ele><time>2026-04-25T09:07:36.389Z</time></trkpt><trkpt lat="43.7644133" lon="12.235875"><ele>805.5000000000001</ele><time>2026-04-25T09:07:37.389Z</time></trkpt><trkpt lat="43.764355" lon="12.2358133"><ele>805.0</ele><time>2026-04-25T09:07:38.389Z</time></trkpt><trkpt lat="43.76427" lon="12.2357417"><ele>804.5</ele><time>2026-04-25T09:07:40.389Z</time></trkpt><trkpt lat="43.7642733" lon="12.2356367"><ele>804.0</ele><time>2026-04-25T09:07:42.388Z</time></trkpt><trkpt lat="43.7643133" lon="12.2355467"><ele>803.5000000000001</ele><time>2026-04-25T09:07:43.389Z</time></trkpt><trkpt lat="43.76436" lon="12.2354383"><ele>803.0</ele><time>2026-04-25T09:07:44.389Z</time></trkpt><trkpt lat="43.764395" lon="12.2353267"><ele>803.0000000000001</ele><time>2026-04-25T09:07:45.389Z</time></trkpt><trkpt lat="43.7644283" lon="12.2352183"><ele>803.0</ele><time>2026-04-25T09:07:46.389Z</time></trkpt><trkpt lat="43.76446" lon="12.2351133"><ele>803.0</ele><time>2026-04-25T09:07:47.389Z</time></trkpt><trkpt lat="43.7644967" lon="12.23502"><ele>803.0</ele><time>2026-04-25T09:07:48.388Z</time></trkpt><trkpt lat="43.7645317" lon="12.2349317"><ele>803.0000000000001</ele><time>2026-04-25T09:07:49.388Z</time></trkpt><trkpt lat="43.7645717" lon="12.23484"><ele>803.0</ele><time>2026-04-25T09:07:50.388Z</time></trkpt><trkpt lat="43.7646" lon="12.234755"><ele>801.8571428571428</ele><time>2026-04-25T09:07:51.389Z</time></trkpt><trkpt lat="43.76464" lon="12.23467"><ele>800.7142857142857</ele><time>2026-04-25T09:07:52.389Z</time></trkpt><trkpt lat="43.764675" lon="12.2345867"><ele>799.5714285714286</ele><time>2026-04-25T09:07:53.388Z</time></trkpt><trkpt lat="43.7647183" lon="12.2345067"><ele>798.4285714285713</ele><time>2026-04-25T09:07:54.389Z</time></trkpt><trkpt lat="43.764765" lon="12.23443"><ele>797.2857142857143</ele><time>2026-04-25T09:07:55.388Z</time></trkpt><trkpt lat="43.7648133" lon="12.2343483"><ele>796.1428571428571</ele><time>2026-04-25T09:07:56.388Z</time></trkpt><trkpt lat="43.76486" lon="12.2342583"><ele>795.0</ele><time>2026-04-25T09:07:57.389Z</time></trkpt><trkpt lat="43.7648967" lon="12.2341633"><ele>795.0</ele><time>2026-04-25T09:07:58.388Z</time></trkpt><trkpt lat="43.7649117" lon="12.2340717"><ele>795.0</ele><time>2026-04-25T09:07:59.389Z</time></trkpt><trkpt lat="43.7649017" lon="12.2339717"><ele>795.0</ele><time>2026-04-25T09:08:00.389Z</time></trkpt><trkpt lat="43.7648483" lon="12.2338533"><ele>795.0</ele><time>2026-04-25T09:08:01.388Z</time></trkpt><trkpt lat="43.76478" lon="12.2337367"><ele>795.0</ele><time>2026-04-25T09:08:02.389Z</time></trkpt><trkpt lat="43.7647017" lon="12.2336117"><ele>792.6</ele><time>2026-04-25T09:08:03.389Z</time></trkpt><trkpt lat="43.7646283" lon="12.2334833"><ele>790.2</ele><time>2026-04-25T09:08:04.389Z</time></trkpt><trkpt lat="43.7645567" lon="12.2333717"><ele>787.8</ele><time>2026-04-25T09:08:05.388Z</time></trkpt><trkpt lat="43.7644967" lon="12.2332717"><ele>785.4</ele><time>2026-04-25T09:08:06.388Z</time></trkpt><trkpt lat="43.7644533" lon="12.23319"><ele>783.0</ele><time>2026-04-25T09:08:07.388Z</time></trkpt><trkpt lat="43.7644317" lon="12.233095"><ele>781.0</ele><time>2026-04-25T09:08:08.388Z</time></trkpt><trkpt lat="43.76444" lon="12.2329917"><ele>779.0</ele><time>2026-04-25T09:08:09.389Z</time></trkpt><trkpt lat="43.7644683" lon="12.2328467"><ele>777.0</ele><time>2026-04-25T09:08:10.389Z</time></trkpt><trkpt lat="43.7645117" lon="12.2326883"><ele>775.0</ele><time>2026-04-25T09:08:11.388Z</time></trkpt><trkpt lat="43.7645583" lon="12.2325367"><ele>773.0</ele><time>2026-04-25T09:08:12.389Z</time></trkpt><trkpt lat="43.764615" lon="12.2323817"><ele>771.5</ele><time>2026-04-25T09:08:13.389Z</time></trkpt><trkpt lat="43.7646867" lon="12.23223"><ele>770.0</ele><time>2026-04-25T09:08:14.389Z</time></trkpt><trkpt lat="43.7647583" lon="12.2320783"><ele>768.5</ele><time>2026-04-25T09:08:15.389Z</time></trkpt><trkpt lat="43.7648317" lon="12.2319133"><ele>767.0</ele><time>2026-04-25T09:08:16.389Z</time></trkpt><trkpt lat="43.764905" lon="12.2317433"><ele>767.0</ele><time>2026-04-25T09:08:17.389Z</time></trkpt><trkpt lat="43.764975" lon="12.2315733"><ele>767.0</ele><time>2026-04-25T09:08:18.388Z</time></trkpt><trkpt lat="43.7650367" lon="12.2314183"><ele>767.0</ele><time>2026-04-25T09:08:19.388Z</time></trkpt><trkpt lat="43.7651017" lon="12.23127"><ele>767.0</ele><time>2026-04-25T09:08:20.389Z</time></trkpt><trkpt lat="43.7651667" lon="12.231145"><ele>766.1666666666666</ele><time>2026-04-25T09:08:21.389Z</time></trkpt><trkpt lat="43.7652167" lon="12.2310333"><ele>765.3333333333333</ele><time>2026-04-25T09:08:22.389Z</time></trkpt><trkpt lat="43.7652583" lon="12.23093"><ele>764.5</ele><time>2026-04-25T09:08:23.389Z</time></trkpt><trkpt lat="43.7652783" lon="12.2308133"><ele>763.6666666666666</ele><time>2026-04-25T09:08:24.389Z</time></trkpt><trkpt lat="43.7652717" lon="12.230695"><ele>762.8333333333334</ele><time>2026-04-25T09:08:25.389Z</time></trkpt><trkpt lat="43.7652567" lon="12.230565"><ele>762.0</ele><time>2026-04-25T09:08:26.389Z</time></trkpt><trkpt lat="43.76523" lon="12.230435"><ele>761.5</ele><time>2026-04-25T09:08:27.389Z</time></trkpt><trkpt lat="43.7652133" lon="12.230295"><ele>761.0</ele><time>2026-04-25T09:08:28.388Z</time></trkpt><trkpt lat="43.7652183" lon="12.2301433"><ele>760.5</ele><time>2026-04-25T09:08:29.389Z</time></trkpt><trkpt lat="43.76524" lon="12.22998"><ele>760.0</ele><time>2026-04-25T09:08:30.388Z</time></trkpt><trkpt lat="43.7652617" lon="12.2298117"><ele>757.5</ele><time>2026-04-25T09:08:31.389Z</time></trkpt><trkpt lat="43.7652717" lon="12.2296367"><ele>755.0</ele><time>2026-04-25T09:08:32.389Z</time></trkpt><trkpt lat="43.7652717" lon="12.22946"><ele>752.5</ele><time>2026-04-25T09:08:33.388Z</time></trkpt><trkpt lat="43.765275" lon="12.2292917"><ele>750.0</ele><time>2026-04-25T09:08:34.389Z</time></trkpt><trkpt lat="43.7652817" lon="12.229115"><ele>748.0</ele><time>2026-04-25T09:08:35.388Z</time></trkpt><trkpt lat="43.765275" lon="12.2289417"><ele>746.0</ele><time>2026-04-25T09:08:36.389Z</time></trkpt><trkpt lat="43.7652683" lon="12.2287683"><ele>744.0</ele><time>2026-04-25T09:08:37.388Z</time></trkpt><trkpt lat="43.765265" lon="12.2286"><ele>742.0</ele><time>2026-04-25T09:08:38.388Z</time></trkpt><trkpt lat="43.76526" lon="12.2284233"><ele>742.0</ele><time>2026-04-25T09:08:39.389Z</time></trkpt><trkpt lat="43.765245" lon="12.228245"><ele>742.0</ele><time>2026-04-25T09:08:40.388Z</time></trkpt><trkpt lat="43.7652283" lon="12.228065"><ele>742.0</ele><time>2026-04-25T09:08:41.389Z</time></trkpt><trkpt lat="43.76521" lon="12.2278867"><ele>742.0</ele><time>2026-04-25T09:08:42.389Z</time></trkpt><trkpt lat="43.7651867" lon="12.227725"><ele>740.6</ele><time>2026-04-25T09:08:43.388Z</time></trkpt><trkpt lat="43.7651467" lon="12.2275733"><ele>739.2</ele><time>2026-04-25T09:08:44.388Z</time></trkpt><trkpt lat="43.7651133" lon="12.2274333"><ele>737.8</ele><time>2026-04-25T09:08:45.389Z</time></trkpt><trkpt lat="43.7650733" lon="12.227305"><ele>736.4</ele><time>2026-04-25T09:08:46.389Z</time></trkpt><trkpt lat="43.7650317" lon="12.2271833"><ele>735.0</ele><time>2026-04-25T09:08:47.388Z</time></trkpt><trkpt lat="43.764995" lon="12.2270333"><ele>733.5</ele><time>2026-04-25T09:08:48.388Z</time></trkpt><trkpt lat="43.7649633" lon="12.2268683"><ele>732.0</ele><time>2026-04-25T09:08:49.389Z</time></trkpt><trkpt lat="43.7649383" lon="12.2267117"><ele>730.5</ele><time>2026-04-25T09:08:50.388Z</time></trkpt><trkpt lat="43.7649167" lon="12.2265567"><ele>729.0</ele><time>2026-04-25T09:08:51.388Z</time></trkpt><trkpt lat="43.7648967" lon="12.22641"><ele>728.1666666666666</ele><time>2026-04-25T09:08:52.388Z</time></trkpt><trkpt lat="43.764875" lon="12.226295"><ele>727.3333333333334</ele><time>2026-04-25T09:08:53.388Z</time></trkpt><trkpt lat="43.7648467" lon="12.22619"><ele>726.5</ele><time>2026-04-25T09:08:54.388Z</time></trkpt><trkpt lat="43.7648117" lon="12.2261"><ele>725.6666666666667</ele><time>2026-04-25T09:08:55.388Z</time></trkpt><trkpt lat="43.7647567" lon="12.2260233"><ele>724.8333333333334</ele><time>2026-04-25T09:08:56.389Z</time></trkpt><trkpt lat="43.7646733" lon="12.22597"><ele>724.0</ele><time>2026-04-25T09:08:57.389Z</time></trkpt><trkpt lat="43.7645817" lon="12.2259233"><ele>724.0</ele><time>2026-04-25T09:08:58.389Z</time></trkpt><trkpt lat="43.76448" lon="12.2258867"><ele>724.0</ele><time>2026-04-25T09:08:59.388Z</time></trkpt><trkpt lat="43.764385" lon="12.2258267"><ele>724.0</ele><time>2026-04-25T09:09:00.389Z</time></trkpt><trkpt lat="43.7643" lon="12.2257417"><ele>724.0</ele><time>2026-04-25T09:09:01.388Z</time></trkpt><trkpt lat="43.76423" lon="12.225635"><ele>724.0</ele><time>2026-04-25T09:09:02.389Z</time></trkpt><trkpt lat="43.76417" lon="12.22554"><ele>721.5</ele><time>2026-04-25T09:09:03.388Z</time></trkpt><trkpt lat="43.7641267" lon="12.225455"><ele>719.0</ele><time>2026-04-25T09:09:04.389Z</time></trkpt><trkpt lat="43.7640633" lon="12.2253883"><ele>716.5</ele><time>2026-04-25T09:09:05.388Z</time></trkpt><trkpt lat="43.7639933" lon="12.2253267"><ele>714.0</ele><time>2026-04-25T09:09:06.388Z</time></trkpt><trkpt lat="43.7639167" lon="12.2252967"><ele>711.5</ele><time>2026-04-25T09:09:07.389Z</time></trkpt><trkpt lat="43.76383" lon="12.2252983"><ele>709.0</ele><time>2026-04-25T09:09:08.388Z</time></trkpt><trkpt lat="43.76374" lon="12.2253133"><ele>709.0</ele><time>2026-04-25T09:09:09.388Z</time></trkpt><trkpt lat="43.76366" lon="12.22532"><ele>709.0</ele><time>2026-04-25T09:09:10.388Z</time></trkpt><trkpt lat="43.7635517" lon="12.2252917"><ele>709.0</ele><time>2026-04-25T09:09:11.388Z</time></trkpt><trkpt lat="43.7634483" lon="12.2252283"><ele>709.0</ele><time>2026-04-25T09:09:12.388Z</time></trkpt><trkpt lat="43.7633517" lon="12.2251517"><ele>709.0</ele><time>2026-04-25T09:09:13.388Z</time></trkpt><trkpt lat="43.7632583" lon="12.22506"><ele>705.25</ele><time>2026-04-25T09:09:14.389Z</time></trkpt><trkpt lat="43.763175" lon="12.2249467"><ele>701.5</ele><time>2026-04-25T09:09:15.388Z</time></trkpt><trkpt lat="43.763095" lon="12.224825"><ele>697.75</ele><time>2026-04-25T09:09:16.389Z</time></trkpt><trkpt lat="43.7630183" lon="12.2247017"><ele>694.0</ele><time>2026-04-25T09:09:17.389Z</time></trkpt><trkpt lat="43.762945" lon="12.22457"><ele>690.75</ele><time>2026-04-25T09:09:18.389Z</time></trkpt><trkpt lat="43.7628783" lon="12.2244317"><ele>687.5</ele><time>2026-04-25T09:09:19.389Z</time></trkpt><trkpt lat="43.7628033" lon="12.2242983"><ele>684.25</ele><time>2026-04-25T09:09:20.389Z</time></trkpt><trkpt lat="43.762735" lon="12.22416"><ele>681.0</ele><time>2026-04-25T09:09:21.389Z</time></trkpt><trkpt lat="43.7626717" lon="12.2240267"><ele>677.1999999999999</ele><time>2026-04-25T09:09:22.389Z</time></trkpt><trkpt lat="43.762605" lon="12.2239283"><ele>673.4</ele><time>2026-04-25T09:09:23.388Z</time></trkpt><trkpt lat="43.7625333" lon="12.2238517"><ele>669.6</ele><time>2026-04-25T09:09:24.388Z</time></trkpt><trkpt lat="43.7624567" lon="12.22378"><ele>665.8</ele><time>2026-04-25T09:09:25.389Z</time></trkpt><trkpt lat="43.7623833" lon="12.22369"><ele>662.0</ele><time>2026-04-25T09:09:26.389Z</time></trkpt><trkpt lat="43.7623067" lon="12.2236033"><ele>662.0</ele><time>2026-04-25T09:09:27.389Z</time></trkpt><trkpt lat="43.7622333" lon="12.22351"><ele>662.0</ele><time>2026-04-25T09:09:28.389Z</time></trkpt><trkpt lat="43.7621783" lon="12.22342"><ele>662.0</ele><time>2026-04-25T09:09:29.389Z</time></trkpt><trkpt lat="43.7621367" lon="12.2233317"><ele>662.0</ele><time>2026-04-25T09:09:30.389Z</time></trkpt><trkpt lat="43.76212" lon="12.223215"><ele>662.0</ele><time>2026-04-25T09:09:31.388Z</time></trkpt><trkpt lat="43.7621167" lon="12.2231067"><ele>662.0</ele><time>2026-04-25T09:09:32.388Z</time></trkpt><trkpt lat="43.7621033" lon="12.223015"><ele>660.0</ele><time>2026-04-25T09:09:33.388Z</time></trkpt><trkpt lat="43.7620583" lon="12.2229167"><ele>658.0</ele><time>2026-04-25T09:09:34.389Z</time></trkpt><trkpt lat="43.7620017" lon="12.22282"><ele>656.0</ele><time>2026-04-25T09:09:35.389Z</time></trkpt><trkpt lat="43.7619417" lon="12.22272"><ele>654.0</ele><time>2026-04-25T09:09:36.389Z</time></trkpt><trkpt lat="43.7618767" lon="12.2226167"><ele>652.0</ele><time>2026-04-25T09:09:37.389Z</time></trkpt><trkpt lat="43.761815" lon="12.2225017"><ele>652.0</ele><time>2026-04-25T09:09:38.389Z</time></trkpt><trkpt lat="43.7617567" lon="12.2223933"><ele>652.0</ele><time>2026-04-25T09:09:39.389Z</time></trkpt><trkpt lat="43.7617017" lon="12.22229"><ele>652.0</ele><time>2026-04-25T09:09:40.389Z</time></trkpt><trkpt lat="43.7616417" lon="12.2222117"><ele>652.0</ele><time>2026-04-25T09:09:41.389Z</time></trkpt><trkpt lat="43.7615767" lon="12.2221567"><ele>652.0</ele><time>2026-04-25T09:09:42.388Z</time></trkpt><trkpt lat="43.7614833" lon="12.2221333"><ele>652.0</ele><time>2026-04-25T09:09:43.388Z</time></trkpt><trkpt lat="43.76139" lon="12.2221183"><ele>648.6</ele><time>2026-04-25T09:09:44.388Z</time></trkpt><trkpt lat="43.76129" lon="12.2221033"><ele>645.2</ele><time>2026-04-25T09:09:45.389Z</time></trkpt><trkpt lat="43.7612033" lon="12.2220567"><ele>641.8</ele><time>2026-04-25T09:09:46.388Z</time></trkpt><trkpt lat="43.7611417" lon="12.2219617"><ele>638.4</ele><time>2026-04-25T09:09:47.389Z</time></trkpt><trkpt lat="43.7611117" lon="12.2218333"><ele>635.0</ele><time>2026-04-25T09:09:48.389Z</time></trkpt><trkpt lat="43.761095" lon="12.22167"><ele>635.0</ele><time>2026-04-25T09:09:49.388Z</time></trkpt><trkpt lat="43.761105" lon="12.221485"><ele>635.0</ele><time>2026-04-25T09:09:50.388Z</time></trkpt><trkpt lat="43.7611217" lon="12.2212983"><ele>635.0</ele><time>2026-04-25T09:09:51.388Z</time></trkpt><trkpt lat="43.7611317" lon="12.22111"><ele>635.0</ele><time>2026-04-25T09:09:52.389Z</time></trkpt><trkpt lat="43.7611367" lon="12.220925"><ele>632.2</ele><time>2026-04-25T09:09:53.388Z</time></trkpt><trkpt lat="43.761135" lon="12.220775"><ele>629.4</ele><time>2026-04-25T09:09:54.389Z</time></trkpt><trkpt lat="43.7611283" lon="12.2206367"><ele>626.6</ele><time>2026-04-25T09:09:55.389Z</time></trkpt><trkpt lat="43.761125" lon="12.220515"><ele>623.8</ele><time>2026-04-25T09:09:56.388Z</time></trkpt><trkpt lat="43.7611367" lon="12.2204017"><ele>621.0</ele><time>2026-04-25T09:09:57.389Z</time></trkpt><trkpt lat="43.7611633" lon="12.2203033"><ele>619.4</ele><time>2026-04-25T09:09:58.388Z</time></trkpt><trkpt lat="43.7611883" lon="12.2202233"><ele>617.8</ele><time>2026-04-25T09:09:59.388Z</time></trkpt><trkpt lat="43.76122" lon="12.220085"><ele>616.1999999999999</ele><time>2026-04-25T09:10:01.389Z</time></trkpt><trkpt lat="43.7612267" lon="12.2199867"><ele>614.6</ele><time>2026-04-25T09:10:03.389Z</time></trkpt><trkpt lat="43.7612417" lon="12.2198733"><ele>613.0</ele><time>2026-04-25T09:10:05.389Z</time></trkpt><trkpt lat="43.761295" lon="12.2197033"><ele>610.8333333333334</ele><time>2026-04-25T09:10:07.388Z</time></trkpt><trkpt lat="43.76132" lon="12.2196"><ele>608.6666666666667</ele><time>2026-04-25T09:10:08.389Z</time></trkpt><trkpt lat="43.7613383" lon="12.2195017"><ele>606.5</ele><time>2026-04-25T09:10:09.389Z</time></trkpt><trkpt lat="43.761345" lon="12.2193883"><ele>604.3333333333334</ele><time>2026-04-25T09:10:10.388Z</time></trkpt><trkpt lat="43.761345" lon="12.2192817"><ele>602.1666666666666</ele><time>2026-04-25T09:10:11.389Z</time></trkpt><trkpt lat="43.761345" lon="12.21918"><ele>600.0</ele><time>2026-04-25T09:10:12.388Z</time></trkpt><trkpt lat="43.7613183" lon="12.2190833"><ele>600.0</ele><time>2026-04-25T09:10:13.389Z</time></trkpt><trkpt lat="43.7612867" lon="12.2189933"><ele>600.0</ele><time>2026-04-25T09:10:14.388Z</time></trkpt><trkpt lat="43.7612467" lon="12.2189033"><ele>600.0</ele><time>2026-04-25T09:10:15.389Z</time></trkpt><trkpt lat="43.7611933" lon="12.2188033"><ele>600.0</ele><time>2026-04-25T09:10:16.389Z</time></trkpt><trkpt lat="43.76114" lon="12.218705"><ele>600.0</ele><time>2026-04-25T09:10:17.389Z</time></trkpt><trkpt lat="43.7610617" lon="12.218635"><ele>600.0</ele><time>2026-04-25T09:10:18.388Z</time></trkpt><trkpt lat="43.7609717" lon="12.2185667"><ele>599.8</ele><time>2026-04-25T09:10:19.388Z</time></trkpt><trkpt lat="43.76088" lon="12.218535"><ele>599.6</ele><time>2026-04-25T09:10:20.389Z</time></trkpt><trkpt lat="43.7607717" lon="12.21852"><ele>599.4</ele><time>2026-04-25T09:10:21.388Z</time></trkpt><trkpt lat="43.7606667" lon="12.2185017"><ele>599.2</ele><time>2026-04-25T09:10:22.388Z</time></trkpt><trkpt lat="43.7605583" lon="12.2184833"><ele>599.0</ele><time>2026-04-25T09:10:23.389Z</time></trkpt><trkpt lat="43.7604567" lon="12.21846"><ele>599.0</ele><time>2026-04-25T09:10:24.389Z</time></trkpt><trkpt lat="43.7603583" lon="12.2184283"><ele>599.0</ele><time>2026-04-25T09:10:25.388Z</time></trkpt><trkpt lat="43.76027" lon="12.2183983"><ele>599.0</ele><time>2026-04-25T09:10:26.389Z</time></trkpt><trkpt lat="43.7601867" lon="12.21837"><ele>599.0</ele><time>2026-04-25T09:10:27.389Z</time></trkpt><trkpt lat="43.7601133" lon="12.2183383"><ele>599.0</ele><time>2026-04-25T09:10:28.388Z</time></trkpt><trkpt lat="43.7600367" lon="12.2183117"><ele>599.0</ele><time>2026-04-25T09:10:29.388Z</time></trkpt><trkpt lat="43.7599667" lon="12.2182717"><ele>598.0</ele><time>2026-04-25T09:10:30.389Z</time></trkpt><trkpt lat="43.7599033" lon="12.2182"><ele>597.0</ele><time>2026-04-25T09:10:31.389Z</time></trkpt><trkpt lat="43.7598483" lon="12.2181183"><ele>596.0</ele><time>2026-04-25T09:10:32.388Z</time></trkpt><trkpt lat="43.7598133" lon="12.2180233"><ele>595.0</ele><time>2026-04-25T09:10:33.389Z</time></trkpt><trkpt lat="43.7597883" lon="12.2179233"><ele>594.0</ele><time>2026-04-25T09:10:34.389Z</time></trkpt><trkpt lat="43.75979" lon="12.21782"><ele>593.0</ele><time>2026-04-25T09:10:35.389Z</time></trkpt><trkpt lat="43.759815" lon="12.217705"><ele>591.4</ele><time>2026-04-25T09:10:36.389Z</time></trkpt><trkpt lat="43.759855" lon="12.2175967"><ele>589.8</ele><time>2026-04-25T09:10:37.388Z</time></trkpt><trkpt lat="43.7599083" lon="12.21749"><ele>588.2</ele><time>2026-04-25T09:10:38.388Z</time></trkpt><trkpt lat="43.75998" lon="12.2174"><ele>586.6</ele><time>2026-04-25T09:10:39.389Z</time></trkpt><trkpt lat="43.7600567" lon="12.2173267"><ele>585.0</ele><time>2026-04-25T09:10:40.388Z</time></trkpt><trkpt lat="43.7601383" lon="12.2172817"><ele>584.0</ele><time>2026-04-25T09:10:41.388Z</time></trkpt><trkpt lat="43.7602283" lon="12.2172733"><ele>583.0</ele><time>2026-04-25T09:10:42.389Z</time></trkpt><trkpt lat="43.760335" lon="12.2173117"><ele>582.0</ele><time>2026-04-25T09:10:43.389Z</time></trkpt><trkpt lat="43.7604267" lon="12.2173417"><ele>581.0</ele><time>2026-04-25T09:10:44.388Z</time></trkpt><trkpt lat="43.7605133" lon="12.21735"><ele>580.0</ele><time>2026-04-25T09:10:45.388Z</time></trkpt><trkpt lat="43.7605883" lon="12.21734"><ele>577.6666666666667</ele><time>2026-04-25T09:10:46.389Z</time></trkpt><trkpt lat="43.7606683" lon="12.2172967"><ele>575.3333333333334</ele><time>2026-04-25T09:10:48.388Z</time></trkpt><trkpt lat="43.760605" lon="12.2172317"><ele>573.0</ele><time>2026-04-25T09:10:51.389Z</time></trkpt><trkpt lat="43.7605317" lon="12.2172167"><ele>570.6666666666666</ele><time>2026-04-25T09:10:52.389Z</time></trkpt><trkpt lat="43.76044" lon="12.2172017"><ele>568.3333333333333</ele><time>2026-04-25T09:10:53.389Z</time></trkpt><trkpt lat="43.7603383" lon="12.2171817"><ele>566.0</ele><time>2026-04-25T09:10:54.389Z</time></trkpt><trkpt lat="43.76023" lon="12.217165"><ele>567.0</ele><time>2026-04-25T09:10:55.389Z</time></trkpt><trkpt lat="43.7601217" lon="12.2171433"><ele>568.0</ele><time>2026-04-25T09:10:56.389Z</time></trkpt><trkpt lat="43.760005" lon="12.217135"><ele>569.0</ele><time>2026-04-25T09:10:57.389Z</time></trkpt><trkpt lat="43.7598883" lon="12.2171333"><ele>570.0</ele><time>2026-04-25T09:10:58.388Z</time></trkpt><trkpt lat="43.759765" lon="12.2171583"><ele>570.0</ele><time>2026-04-25T09:10:59.388Z</time></trkpt><trkpt lat="43.7596417" lon="12.2172183"><ele>570.0</ele><time>2026-04-25T09:11:00.389Z</time></trkpt><trkpt lat="43.75952" lon="12.2172883"><ele>570.0</ele><time>2026-04-25T09:11:01.389Z</time></trkpt><trkpt lat="43.75941" lon="12.2173717"><ele>570.0</ele><time>2026-04-25T09:11:02.388Z</time></trkpt><trkpt lat="43.75931" lon="12.21746"><ele>569.25</ele><time>2026-04-25T09:11:03.389Z</time></trkpt><trkpt lat="43.7592117" lon="12.217555"><ele>568.5</ele><time>2026-04-25T09:11:04.389Z</time></trkpt><trkpt lat="43.7591367" lon="12.217665"><ele>567.75</ele><time>2026-04-25T09:11:05.389Z</time></trkpt><trkpt lat="43.759085" lon="12.2178017"><ele>567.0</ele><time>2026-04-25T09:11:06.388Z</time></trkpt><trkpt lat="43.759065" lon="12.21796"><ele>567.0</ele><time>2026-04-25T09:11:07.388Z</time></trkpt><trkpt lat="43.75907" lon="12.2181367"><ele>567.0</ele><time>2026-04-25T09:11:08.389Z</time></trkpt><trkpt lat="43.7591" lon="12.21831"><ele>567.0</ele><time>2026-04-25T09:11:09.389Z</time></trkpt><trkpt lat="43.7591367" lon="12.2185033"><ele>567.0</ele><time>2026-04-25T09:11:10.389Z</time></trkpt><trkpt lat="43.7591517" lon="12.2186967"><ele>568.3333333333334</ele><time>2026-04-25T09:11:11.389Z</time></trkpt><trkpt lat="43.7591417" lon="12.2189033"><ele>569.6666666666667</ele><time>2026-04-25T09:11:12.389Z</time></trkpt><trkpt lat="43.7591033" lon="12.219105"><ele>571.0</ele><time>2026-04-25T09:11:13.388Z</time></trkpt><trkpt lat="43.7590517" lon="12.2193133"><ele>571.6666666666667</ele><time>2026-04-25T09:11:14.389Z</time></trkpt><trkpt lat="43.7589917" lon="12.21951"><ele>572.3333333333334</ele><time>2026-04-25T09:11:15.389Z</time></trkpt><trkpt lat="43.75894" lon="12.2197033"><ele>573.0</ele><time>2026-04-25T09:11:16.388Z</time></trkpt><trkpt lat="43.758885" lon="12.2199117"><ele>574.5</ele><time>2026-04-25T09:11:17.389Z</time></trkpt><trkpt lat="43.7588383" lon="12.2201117"><ele>576.0</ele><time>2026-04-25T09:11:18.388Z</time></trkpt><trkpt lat="43.758795" lon="12.220305"><ele>577.5</ele><time>2026-04-25T09:11:19.389Z</time></trkpt><trkpt lat="43.758755" lon="12.2204883"><ele>579.0</ele><time>2026-04-25T09:11:20.389Z</time></trkpt><trkpt lat="43.7587217" lon="12.2206467"><ele>578.6</ele><time>2026-04-25T09:11:21.389Z</time></trkpt><trkpt lat="43.7586917" lon="12.2207933"><ele>578.2</ele><time>2026-04-25T09:11:22.389Z</time></trkpt><trkpt lat="43.7586367" lon="12.2209217"><ele>577.8000000000001</ele><time>2026-04-25T09:11:23.389Z</time></trkpt><trkpt lat="43.75857" lon="12.22103"><ele>577.4</ele><time>2026-04-25T09:11:24.388Z</time></trkpt><trkpt lat="43.7584783" lon="12.2211183"><ele>577.0</ele><time>2026-04-25T09:11:25.389Z</time></trkpt><trkpt lat="43.7583583" lon="12.2211717"><ele>577.0</ele><time>2026-04-25T09:11:26.389Z</time></trkpt><trkpt lat="43.7582183" lon="12.2211783"><ele>577.0</ele><time>2026-04-25T09:11:27.389Z</time></trkpt><trkpt lat="43.758075" lon="12.2211833"><ele>577.0</ele><time>2026-04-25T09:11:28.389Z</time></trkpt><trkpt lat="43.7579467" lon="12.2211717"><ele>577.0</ele><time>2026-04-25T09:11:29.388Z</time></trkpt><trkpt lat="43.7578367" lon="12.2211983"><ele>577.0</ele><time>2026-04-25T09:11:30.388Z</time></trkpt><trkpt lat="43.7577383" lon="12.221255"><ele>577.0</ele><time>2026-04-25T09:11:31.389Z</time></trkpt><trkpt lat="43.7576417" lon="12.2213467"><ele>577.0</ele><time>2026-04-25T09:11:32.388Z</time></trkpt><trkpt lat="43.75755" lon="12.221475"><ele>577.0</ele><time>2026-04-25T09:11:33.388Z</time></trkpt><trkpt lat="43.7574667" lon="12.2216333"><ele>578.6666666666667</ele><time>2026-04-25T09:11:34.389Z</time></trkpt><trkpt lat="43.7573917" lon="12.221815"><ele>580.3333333333334</ele><time>2026-04-25T09:11:35.388Z</time></trkpt><trkpt lat="43.7573083" lon="12.2220017"><ele>582.0</ele><time>2026-04-25T09:11:36.389Z</time></trkpt><trkpt lat="43.7572117" lon="12.22219"><ele>583.6666666666666</ele><time>2026-04-25T09:11:37.388Z</time></trkpt><trkpt lat="43.75712" lon="12.222385"><ele>585.3333333333333</ele><time>2026-04-25T09:11:38.389Z</time></trkpt><trkpt lat="43.7570167" lon="12.2225817"><ele>587.0</ele><time>2026-04-25T09:11:39.388Z</time></trkpt><trkpt lat="43.7569117" lon="12.2227833"><ele>586.6666666666666</ele><time>2026-04-25T09:11:40.388Z</time></trkpt><trkpt lat="43.7568033" lon="12.2229867"><ele>586.3333333333334</ele><time>2026-04-25T09:11:41.388Z</time></trkpt><trkpt lat="43.7567017" lon="12.2231883"><ele>586.0</ele><time>2026-04-25T09:11:42.388Z</time></trkpt><trkpt lat="43.756605" lon="12.22338"><ele>586.0</ele><time>2026-04-25T09:11:43.389Z</time></trkpt><trkpt lat="43.75651" lon="12.2235633"><ele>586.0</ele><time>2026-04-25T09:11:44.389Z</time></trkpt><trkpt lat="43.7564267" lon="12.2237267"><ele>586.0</ele><time>2026-04-25T09:11:45.389Z</time></trkpt><trkpt lat="43.7563433" lon="12.2238783"><ele>586.0</ele><time>2026-04-25T09:11:46.388Z</time></trkpt><trkpt lat="43.7562583" lon="12.2240283"><ele>587.0</ele><time>2026-04-25T09:11:47.389Z</time></trkpt><trkpt lat="43.7561833" lon="12.22418"><ele>588.0</ele><time>2026-04-25T09:11:48.389Z</time></trkpt><trkpt lat="43.756115" lon="12.2243417"><ele>589.0</ele><time>2026-04-25T09:11:49.388Z</time></trkpt><trkpt lat="43.7560517" lon="12.22452"><ele>590.0</ele><time>2026-04-25T09:11:50.388Z</time></trkpt><trkpt lat="43.755995" lon="12.2247117"><ele>593.0</ele><time>2026-04-25T09:11:51.389Z</time></trkpt><trkpt lat="43.7559433" lon="12.2249167"><ele>596.0</ele><time>2026-04-25T09:11:52.389Z</time></trkpt><trkpt lat="43.75589" lon="12.225125"><ele>599.0</ele><time>2026-04-25T09:11:53.388Z</time></trkpt><trkpt lat="43.7558317" lon="12.2253267"><ele>599.0</ele><time>2026-04-25T09:11:54.389Z</time></trkpt><trkpt lat="43.7557717" lon="12.22553"><ele>599.0</ele><time>2026-04-25T09:11:55.388Z</time></trkpt><trkpt lat="43.7557183" lon="12.2257333"><ele>599.0</ele><time>2026-04-25T09:11:56.388Z</time></trkpt><trkpt lat="43.75566" lon="12.225935"><ele>600.6666666666666</ele><time>2026-04-25T09:11:57.389Z</time></trkpt><trkpt lat="43.755605" lon="12.226135"><ele>602.3333333333334</ele><time>2026-04-25T09:11:58.389Z</time></trkpt><trkpt lat="43.7555417" lon="12.22633"><ele>604.0</ele><time>2026-04-25T09:11:59.388Z</time></trkpt><trkpt lat="43.755485" lon="12.2265283"><ele>606.3333333333334</ele><time>2026-04-25T09:12:00.388Z</time></trkpt><trkpt lat="43.7554317" lon="12.2267317"><ele>608.6666666666666</ele><time>2026-04-25T09:12:01.389Z</time></trkpt><trkpt lat="43.75537" lon="12.2269383"><ele>611.0</ele><time>2026-04-25T09:12:02.389Z</time></trkpt><trkpt lat="43.7553117" lon="12.2271417"><ele>611.3333333333333</ele><time>2026-04-25T09:12:03.389Z</time></trkpt><trkpt lat="43.755255" lon="12.2273483"><ele>611.6666666666666</ele><time>2026-04-25T09:12:04.389Z</time></trkpt><trkpt lat="43.755195" lon="12.22755"><ele>612.0</ele><time>2026-04-25T09:12:05.389Z</time></trkpt><trkpt lat="43.7551383" lon="12.22775"><ele>612.0</ele><time>2026-04-25T09:12:06.389Z</time></trkpt><trkpt lat="43.7550783" lon="12.22794"><ele>612.0</ele><time>2026-04-25T09:12:07.389Z</time></trkpt><trkpt lat="43.755025" lon="12.22813"><ele>612.0</ele><time>2026-04-25T09:12:08.388Z</time></trkpt><trkpt lat="43.75497" lon="12.228325"><ele>612.0</ele><time>2026-04-25T09:12:09.389Z</time></trkpt><trkpt lat="43.75492" lon="12.228525"><ele>613.75</ele><time>2026-04-25T09:12:10.389Z</time></trkpt><trkpt lat="43.754875" lon="12.2287183"><ele>615.5</ele><time>2026-04-25T09:12:11.389Z</time></trkpt><trkpt lat="43.7548383" lon="12.2289183"><ele>617.25</ele><time>2026-04-25T09:12:12.389Z</time></trkpt><trkpt lat="43.754795" lon="12.2291117"><ele>619.0</ele><time>2026-04-25T09:12:13.389Z</time></trkpt><trkpt lat="43.7547517" lon="12.2292933"><ele>620.75</ele><time>2026-04-25T09:12:14.388Z</time></trkpt><trkpt lat="43.754705" lon="12.229455"><ele>622.5</ele><time>2026-04-25T09:12:15.389Z</time></trkpt><trkpt lat="43.7546483" lon="12.2296017"><ele>624.25</ele><time>2026-04-25T09:12:16.388Z</time></trkpt><trkpt lat="43.7545767" lon="12.2297217"><ele>626.0</ele><time>2026-04-25T09:12:17.389Z</time></trkpt><trkpt lat="43.7544883" lon="12.2298133"><ele>626.0</ele><time>2026-04-25T09:12:18.388Z</time></trkpt><trkpt lat="43.754375" lon="12.2298667"><ele>626.0</ele><time>2026-04-25T09:12:19.389Z</time></trkpt><trkpt lat="43.7542517" lon="12.2298867"><ele>626.0</ele><time>2026-04-25T09:12:20.388Z</time></trkpt><trkpt lat="43.7541267" lon="12.2298767"><ele>626.0</ele><time>2026-04-25T09:12:21.389Z</time></trkpt><trkpt lat="43.7539867" lon="12.2298483"><ele>626.0</ele><time>2026-04-25T09:12:22.388Z</time></trkpt><trkpt lat="43.75384" lon="12.22981"><ele>626.0</ele><time>2026-04-25T09:12:23.388Z</time></trkpt><trkpt lat="43.7537017" lon="12.2297733"><ele>626.0</ele><time>2026-04-25T09:12:24.388Z</time></trkpt><trkpt lat="43.753555" lon="12.229745"><ele>626.0</ele><time>2026-04-25T09:12:25.388Z</time></trkpt><trkpt lat="43.7534067" lon="12.2297083"><ele>625.6666666666666</ele><time>2026-04-25T09:12:26.389Z</time></trkpt><trkpt lat="43.7532617" lon="12.2296783"><ele>625.3333333333334</ele><time>2026-04-25T09:12:27.388Z</time></trkpt><trkpt lat="43.7531033" lon="12.2296483"><ele>625.0</ele><time>2026-04-25T09:12:28.389Z</time></trkpt><trkpt lat="43.7529483" lon="12.22962"><ele>625.0</ele><time>2026-04-25T09:12:29.388Z</time></trkpt><trkpt lat="43.7527883" lon="12.2295883"><ele>625.0</ele><time>2026-04-25T09:12:30.389Z</time></trkpt><trkpt lat="43.7526317" lon="12.229555"><ele>625.0</ele><time>2026-04-25T09:12:31.389Z</time></trkpt><trkpt lat="43.7524817" lon="12.229525"><ele>627.0</ele><time>2026-04-25T09:12:32.389Z</time></trkpt><trkpt lat="43.752335" lon="12.229505"><ele>629.0</ele><time>2026-04-25T09:12:33.388Z</time></trkpt><trkpt lat="43.7521817" lon="12.2294867"><ele>631.0</ele><time>2026-04-25T09:12:34.388Z</time></trkpt><trkpt lat="43.7520317" lon="12.2294667"><ele>631.0</ele><time>2026-04-25T09:12:35.388Z</time></trkpt><trkpt lat="43.75188" lon="12.2294533"><ele>631.0</ele><time>2026-04-25T09:12:36.389Z</time></trkpt><trkpt lat="43.7517433" lon="12.2294283"><ele>631.0</ele><time>2026-04-25T09:12:37.388Z</time></trkpt><trkpt lat="43.7516117" lon="12.2294083"><ele>631.0</ele><time>2026-04-25T09:12:38.388Z</time></trkpt><trkpt lat="43.7514933" lon="12.2294183"><ele>632.5</ele><time>2026-04-25T09:12:39.389Z</time></trkpt><trkpt lat="43.7513867" lon="12.2294583"><ele>634.0</ele><time>2026-04-25T09:12:40.389Z</time></trkpt><trkpt lat="43.7512833" lon="12.2295433"><ele>635.5</ele><time>2026-04-25T09:12:41.389Z</time></trkpt><trkpt lat="43.751185" lon="12.229665"><ele>637.0</ele><time>2026-04-25T09:12:42.389Z</time></trkpt><trkpt lat="43.7511017" lon="12.2298133"><ele>638.0</ele><time>2026-04-25T09:12:43.389Z</time></trkpt><trkpt lat="43.75102" lon="12.2299767"><ele>639.0</ele><time>2026-04-25T09:12:44.389Z</time></trkpt><trkpt lat="43.7509483" lon="12.2301533"><ele>640.0</ele><time>2026-04-25T09:12:45.389Z</time></trkpt><trkpt lat="43.7508783" lon="12.2303283"><ele>641.0</ele><time>2026-04-25T09:12:46.388Z</time></trkpt><trkpt lat="43.750815" lon="12.2304983"><ele>642.0</ele><time>2026-04-25T09:12:47.388Z</time></trkpt><trkpt lat="43.7507533" lon="12.2306633"><ele>643.0</ele><time>2026-04-25T09:12:48.389Z</time></trkpt><trkpt lat="43.75069" lon="12.2308183"><ele>644.0</ele><time>2026-04-25T09:12:49.389Z</time></trkpt><trkpt lat="43.7506417" lon="12.2309617"><ele>645.0</ele><time>2026-04-25T09:12:50.389Z</time></trkpt><trkpt lat="43.75059" lon="12.2310967"><ele>645.0</ele><time>2026-04-25T09:12:51.388Z</time></trkpt><trkpt lat="43.7505417" lon="12.2312217"><ele>645.0</ele><time>2026-04-25T09:12:52.389Z</time></trkpt><trkpt lat="43.7504967" lon="12.2313433"><ele>645.0</ele><time>2026-04-25T09:12:53.389Z</time></trkpt><trkpt lat="43.750465" lon="12.23143"><ele>645.0</ele><time>2026-04-25T09:12:54.389Z</time></trkpt><trkpt lat="43.750405" lon="12.2315283"><ele>645.0</ele><time>2026-04-25T09:12:56.388Z</time></trkpt><trkpt lat="43.750295" lon="12.2315833"><ele>644.4</ele><time>2026-04-25T09:12:58.389Z</time></trkpt><trkpt lat="43.7502067" lon="12.2315933"><ele>643.8</ele><time>2026-04-25T09:12:59.388Z</time></trkpt><trkpt lat="43.7500983" lon="12.231575"><ele>643.2</ele><time>2026-04-25T09:13:00.388Z</time></trkpt><trkpt lat="43.74999" lon="12.2315483"><ele>642.6</ele><time>2026-04-25T09:13:01.388Z</time></trkpt><trkpt lat="43.74989" lon="12.2315167"><ele>642.0</ele><time>2026-04-25T09:13:02.388Z</time></trkpt><trkpt lat="43.7497983" lon="12.231465"><ele>642.0</ele><time>2026-04-25T09:13:03.388Z</time></trkpt><trkpt lat="43.749715" lon="12.2313883"><ele>642.0</ele><time>2026-04-25T09:13:04.389Z</time></trkpt><trkpt lat="43.7496367" lon="12.231295"><ele>642.0</ele><time>2026-04-25T09:13:05.389Z</time></trkpt><trkpt lat="43.7495567" lon="12.231185"><ele>642.0</ele><time>2026-04-25T09:13:06.389Z</time></trkpt><trkpt lat="43.749475" lon="12.231065"><ele>642.0</ele><time>2026-04-25T09:13:07.388Z</time></trkpt><trkpt lat="43.74939" lon="12.23094"><ele>642.75</ele><time>2026-04-25T09:13:08.389Z</time></trkpt><trkpt lat="43.7493" lon="12.2308133"><ele>643.5</ele><time>2026-04-25T09:13:09.389Z</time></trkpt><trkpt lat="43.7492033" lon="12.23069"><ele>644.25</ele><time>2026-04-25T09:13:10.389Z</time></trkpt><trkpt lat="43.7491083" lon="12.2305717"><ele>645.0</ele><time>2026-04-25T09:13:11.388Z</time></trkpt><trkpt lat="43.74901" lon="12.2304567"><ele>642.25</ele><time>2026-04-25T09:13:12.389Z</time></trkpt><trkpt lat="43.7489117" lon="12.2303267"><ele>639.5</ele><time>2026-04-25T09:13:13.389Z</time></trkpt><trkpt lat="43.7488167" lon="12.2301817"><ele>636.75</ele><time>2026-04-25T09:13:14.388Z</time></trkpt><trkpt lat="43.748735" lon="12.2300333"><ele>634.0</ele><time>2026-04-25T09:13:15.388Z</time></trkpt><trkpt lat="43.7486667" lon="12.2299017"><ele>634.1666666666667</ele><time>2026-04-25T09:13:16.388Z</time></trkpt><trkpt lat="43.7486183" lon="12.22979"><ele>634.3333333333334</ele><time>2026-04-25T09:13:17.388Z</time></trkpt><trkpt lat="43.7485733" lon="12.2297"><ele>634.5</ele><time>2026-04-25T09:13:18.388Z</time></trkpt><trkpt lat="43.74852" lon="12.22961"><ele>634.6666666666666</ele><time>2026-04-25T09:13:19.389Z</time></trkpt><trkpt lat="43.7484683" lon="12.22953"><ele>634.8333333333333</ele><time>2026-04-25T09:13:20.388Z</time></trkpt><trkpt lat="43.74842" lon="12.22945"><ele>635.0</ele><time>2026-04-25T09:13:21.389Z</time></trkpt><trkpt lat="43.7483783" lon="12.229375"><ele>636.0</ele><time>2026-04-25T09:13:22.388Z</time></trkpt><trkpt lat="43.74831" lon="12.2292533"><ele>637.0</ele><time>2026-04-25T09:13:24.389Z</time></trkpt><trkpt lat="43.74823" lon="12.2291883"><ele>638.0</ele><time>2026-04-25T09:13:26.388Z</time></trkpt><trkpt lat="43.74813" lon="12.2292183"><ele>639.0</ele><time>2026-04-25T09:13:28.388Z</time></trkpt><trkpt lat="43.7480683" lon="12.22928"><ele>640.0</ele><time>2026-04-25T09:13:29.389Z</time></trkpt><trkpt lat="43.747995" lon="12.2293567"><ele>640.0</ele><time>2026-04-25T09:13:30.389Z</time></trkpt><trkpt lat="43.7479117" lon="12.2294533"><ele>640.0</ele><time>2026-04-25T09:13:31.389Z</time></trkpt><trkpt lat="43.747825" lon="12.2295483"><ele>640.0</ele><time>2026-04-25T09:13:32.388Z</time></trkpt><trkpt lat="43.747735" lon="12.2296617"><ele>640.0</ele><time>2026-04-25T09:13:33.389Z</time></trkpt><trkpt lat="43.7476467" lon="12.2297733"><ele>640.5</ele><time>2026-04-25T09:13:34.388Z</time></trkpt><trkpt lat="43.7475517" lon="12.2298883"><ele>641.0</ele><time>2026-04-25T09:13:35.389Z</time></trkpt><trkpt lat="43.74746" lon="12.2300083"><ele>641.5</ele><time>2026-04-25T09:13:36.388Z</time></trkpt><trkpt lat="43.74736" lon="12.230135"><ele>642.0</ele><time>2026-04-25T09:13:37.389Z</time></trkpt><trkpt lat="43.7472667" lon="12.2302567"><ele>642.0</ele><time>2026-04-25T09:13:38.389Z</time></trkpt><trkpt lat="43.7471717" lon="12.2303767"><ele>642.0</ele><time>2026-04-25T09:13:39.388Z</time></trkpt><trkpt lat="43.7470783" lon="12.2305017"><ele>642.0</ele><time>2026-04-25T09:13:40.388Z</time></trkpt><trkpt lat="43.7469917" lon="12.2306133"><ele>642.0</ele><time>2026-04-25T09:13:41.388Z</time></trkpt><trkpt lat="43.7469067" lon="12.230725"><ele>644.8</ele><time>2026-04-25T09:13:42.389Z</time></trkpt><trkpt lat="43.7468283" lon="12.2308117"><ele>647.6</ele><time>2026-04-25T09:13:43.389Z</time></trkpt><trkpt lat="43.7467417" lon="12.2308983"><ele>650.4</ele><time>2026-04-25T09:13:44.389Z</time></trkpt><trkpt lat="43.74664" lon="12.230965"><ele>653.1999999999999</ele><time>2026-04-25T09:13:45.389Z</time></trkpt><trkpt lat="43.7465383" lon="12.231005"><ele>656.0</ele><time>2026-04-25T09:13:46.389Z</time></trkpt><trkpt lat="43.7464317" lon="12.2310083"><ele>656.0</ele><time>2026-04-25T09:13:47.389Z</time></trkpt><trkpt lat="43.7463383" lon="12.2310133"><ele>656.0</ele><time>2026-04-25T09:13:48.389Z</time></trkpt><trkpt lat="43.74626" lon="12.2310367"><ele>656.0</ele><time>2026-04-25T09:13:49.389Z</time></trkpt><trkpt lat="43.7462" lon="12.231095"><ele>656.0</ele><time>2026-04-25T09:13:50.389Z</time></trkpt><trkpt lat="43.7461683" lon="12.231175"><ele>656.0</ele><time>2026-04-25T09:13:51.389Z</time></trkpt><trkpt lat="43.7461533" lon="12.231285"><ele>656.0</ele><time>2026-04-25T09:13:52.388Z</time></trkpt><trkpt lat="43.7461767" lon="12.231425"><ele>657.25</ele><time>2026-04-25T09:13:53.389Z</time></trkpt><trkpt lat="43.746205" lon="12.23158"><ele>658.5</ele><time>2026-04-25T09:13:54.388Z</time></trkpt><trkpt lat="43.7462333" lon="12.2317467"><ele>659.75</ele><time>2026-04-25T09:13:55.389Z</time></trkpt><trkpt lat="43.7462633" lon="12.2319233"><ele>661.0</ele><time>2026-04-25T09:13:56.389Z</time></trkpt><trkpt lat="43.746285" lon="12.2320833"><ele>661.0</ele><time>2026-04-25T09:13:57.389Z</time></trkpt><trkpt lat="43.7463" lon="12.2322033"><ele>661.0</ele><time>2026-04-25T09:13:58.389Z</time></trkpt><trkpt lat="43.7463017" lon="12.2323"><ele>661.0</ele><time>2026-04-25T09:13:59.388Z</time></trkpt><trkpt lat="43.7462567" lon="12.23243"><ele>661.0</ele><time>2026-04-25T09:14:01.389Z</time></trkpt><trkpt lat="43.746175" lon="12.23247"><ele>661.0</ele><time>2026-04-25T09:14:03.389Z</time></trkpt><trkpt lat="43.74607" lon="12.232465"><ele>663.3333333333334</ele><time>2026-04-25T09:14:05.389Z</time></trkpt><trkpt lat="43.746005" lon="12.232435"><ele>665.6666666666667</ele><time>2026-04-25T09:14:06.389Z</time></trkpt><trkpt lat="43.7459333" lon="12.232395"><ele>668.0</ele><time>2026-04-25T09:14:07.389Z</time></trkpt><trkpt lat="43.74585" lon="12.2323617"><ele>670.3333333333334</ele><time>2026-04-25T09:14:08.389Z</time></trkpt><trkpt lat="43.7457567" lon="12.23233"><ele>672.6666666666666</ele><time>2026-04-25T09:14:09.389Z</time></trkpt><trkpt lat="43.74567" lon="12.2323167"><ele>675.0</ele><time>2026-04-25T09:14:10.389Z</time></trkpt><trkpt lat="43.7455967" lon="12.23232"><ele>675.0</ele><time>2026-04-25T09:14:11.389Z</time></trkpt><trkpt lat="43.7455317" lon="12.2323417"><ele>675.0</ele><time>2026-04-25T09:14:12.388Z</time></trkpt><trkpt lat="43.7454583" lon="12.2324133"><ele>675.0</ele><time>2026-04-25T09:14:14.388Z</time></trkpt><trkpt lat="43.7454433" lon="12.2325017"><ele>675.0</ele><time>2026-04-25T09:14:16.388Z</time></trkpt><trkpt lat="43.7454517" lon="12.2325967"><ele>675.0</ele><time>2026-04-25T09:14:18.389Z</time></trkpt><trkpt lat="43.7454717" lon="12.2327533"><ele>675.0</ele><time>2026-04-25T09:14:20.389Z</time></trkpt><trkpt lat="43.7454917" lon="12.2328717"><ele>675.0</ele><time>2026-04-25T09:14:21.388Z</time></trkpt><trkpt lat="43.7455133" lon="12.233015"><ele>675.0</ele><time>2026-04-25T09:14:22.388Z</time></trkpt><trkpt lat="43.745515" lon="12.23316"><ele>675.0</ele><time>2026-04-25T09:14:23.389Z</time></trkpt><trkpt lat="43.7454933" lon="12.2332967"><ele>675.0</ele><time>2026-04-25T09:14:24.389Z</time></trkpt><trkpt lat="43.7454433" lon="12.23342"><ele>675.0</ele><time>2026-04-25T09:14:25.388Z</time></trkpt><trkpt lat="43.7453733" lon="12.23352"><ele>675.25</ele><time>2026-04-25T09:14:26.389Z</time></trkpt><trkpt lat="43.7452833" lon="12.2336017"><ele>675.5</ele><time>2026-04-25T09:14:27.389Z</time></trkpt><trkpt lat="43.74518" lon="12.233665"><ele>675.75</ele><time>2026-04-25T09:14:28.389Z</time></trkpt><trkpt lat="43.745065" lon="12.2337183"><ele>676.0</ele><time>2026-04-25T09:14:29.389Z</time></trkpt><trkpt lat="43.7449467" lon="12.233775"><ele>677.8</ele><time>2026-04-25T09:14:30.389Z</time></trkpt><trkpt lat="43.744845" lon="12.2338283"><ele>679.5999999999999</ele><time>2026-04-25T09:14:31.389Z</time></trkpt><trkpt lat="43.7447533" lon="12.23386"><ele>681.4</ele><time>2026-04-25T09:14:32.389Z</time></trkpt><trkpt lat="43.7446533" lon="12.2338633"><ele>683.2</ele><time>2026-04-25T09:14:33.389Z</time></trkpt><trkpt lat="43.7445517" lon="12.2338417"><ele>685.0</ele><time>2026-04-25T09:14:34.388Z</time></trkpt><trkpt lat="43.7444417" lon="12.2338017"><ele>687.75</ele><time>2026-04-25T09:14:35.389Z</time></trkpt><trkpt lat="43.744335" lon="12.2337583"><ele>690.5</ele><time>2026-04-25T09:14:36.389Z</time></trkpt><trkpt lat="43.7442167" lon="12.2337183"><ele>693.25</ele><time>2026-04-25T09:14:37.389Z</time></trkpt><trkpt lat="43.7440933" lon="12.2336867"><ele>696.0</ele><time>2026-04-25T09:14:38.389Z</time></trkpt><trkpt lat="43.7439833" lon="12.2336617"><ele>696.0</ele><time>2026-04-25T09:14:39.389Z</time></trkpt><trkpt lat="43.7438717" lon="12.2336567"><ele>696.0</ele><time>2026-04-25T09:14:40.389Z</time></trkpt><trkpt lat="43.7437467" lon="12.23368"><ele>696.0</ele><time>2026-04-25T09:14:41.388Z</time></trkpt><trkpt lat="43.743625" lon="12.233735"><ele>696.0</ele><time>2026-04-25T09:14:42.389Z</time></trkpt><trkpt lat="43.7435067" lon="12.2337917"><ele>699.25</ele><time>2026-04-25T09:14:43.388Z</time></trkpt><trkpt lat="43.7433867" lon="12.2338483"><ele>702.5</ele><time>2026-04-25T09:14:44.388Z</time></trkpt><trkpt lat="43.743265" lon="12.2338867"><ele>705.75</ele><time>2026-04-25T09:14:45.389Z</time></trkpt><trkpt lat="43.7431517" lon="12.23392"><ele>709.0</ele><time>2026-04-25T09:14:46.389Z</time></trkpt><trkpt lat="43.7430317" lon="12.2339283"><ele>709.0</ele><time>2026-04-25T09:14:47.388Z</time></trkpt><trkpt lat="43.7429217" lon="12.2339083"><ele>709.0</ele><time>2026-04-25T09:14:48.389Z</time></trkpt><trkpt lat="43.7428333" lon="12.2338533"><ele>709.0</ele><time>2026-04-25T09:14:49.389Z</time></trkpt><trkpt lat="43.742755" lon="12.2337683"><ele>709.0</ele><time>2026-04-25T09:14:50.389Z</time></trkpt><trkpt lat="43.7427" lon="12.233655"><ele>709.0</ele><time>2026-04-25T09:14:51.388Z</time></trkpt><trkpt lat="43.742675" lon="12.233525"><ele>710.0</ele><time>2026-04-25T09:14:52.389Z</time></trkpt><trkpt lat="43.7426567" lon="12.2333833"><ele>711.0</ele><time>2026-04-25T09:14:53.388Z</time></trkpt><trkpt lat="43.74264" lon="12.23327"><ele>712.0</ele><time>2026-04-25T09:14:54.388Z</time></trkpt><trkpt lat="43.7426083" lon="12.233175"><ele>713.0</ele><time>2026-04-25T09:14:55.389Z</time></trkpt><trkpt lat="43.7425567" lon="12.2331183"><ele>714.0</ele><time>2026-04-25T09:14:56.388Z</time></trkpt><trkpt lat="43.74249" lon="12.2330817"><ele>715.0</ele><time>2026-04-25T09:14:57.389Z</time></trkpt><trkpt lat="43.7424083" lon="12.2330833"><ele>715.0</ele><time>2026-04-25T09:14:58.389Z</time></trkpt><trkpt lat="43.74232" lon="12.23312"><ele>715.0</ele><time>2026-04-25T09:14:59.389Z</time></trkpt><trkpt lat="43.7422167" lon="12.2331783"><ele>715.0</ele><time>2026-04-25T09:15:00.389Z</time></trkpt><trkpt lat="43.7421" lon="12.2332467"><ele>715.0</ele><time>2026-04-25T09:15:01.389Z</time></trkpt><trkpt lat="43.7419867" lon="12.233305"><ele>716.75</ele><time>2026-04-25T09:15:02.389Z</time></trkpt><trkpt lat="43.7418683" lon="12.2333683"><ele>718.5</ele><time>2026-04-25T09:15:03.389Z</time></trkpt><trkpt lat="43.741745" lon="12.2334367"><ele>720.25</ele><time>2026-04-25T09:15:04.388Z</time></trkpt><trkpt lat="43.74162" lon="12.2334867"><ele>722.0</ele><time>2026-04-25T09:15:05.389Z</time></trkpt><trkpt lat="43.7415017" lon="12.23351"><ele>722.0</ele><time>2026-04-25T09:15:06.388Z</time></trkpt><trkpt lat="43.74139" lon="12.23351"><ele>722.0</ele><time>2026-04-25T09:15:07.388Z</time></trkpt><trkpt lat="43.741275" lon="12.23347"><ele>722.0</ele><time>2026-04-25T09:15:08.388Z</time></trkpt><trkpt lat="43.741175" lon="12.2333967"><ele>722.0</ele><time>2026-04-25T09:15:09.389Z</time></trkpt><trkpt lat="43.7410767" lon="12.2332933"><ele>725.25</ele><time>2026-04-25T09:15:10.388Z</time></trkpt><trkpt lat="43.740995" lon="12.233185"><ele>728.5</ele><time>2026-04-25T09:15:11.388Z</time></trkpt><trkpt lat="43.7409233" lon="12.2330617"><ele>731.75</ele><time>2026-04-25T09:15:12.389Z</time></trkpt><trkpt lat="43.740855" lon="12.23291"><ele>735.0</ele><time>2026-04-25T09:15:13.389Z</time></trkpt><trkpt lat="43.7407783" lon="12.2327517"><ele>735.75</ele><time>2026-04-25T09:15:14.389Z</time></trkpt><trkpt lat="43.7407" lon="12.2325933"><ele>736.5</ele><time>2026-04-25T09:15:15.389Z</time></trkpt><trkpt lat="43.7406217" lon="12.2324433"><ele>737.25</ele><time>2026-04-25T09:15:16.388Z</time></trkpt><trkpt lat="43.7405433" lon="12.23231"><ele>738.0</ele><time>2026-04-25T09:15:17.389Z</time></trkpt><trkpt lat="43.74049" lon="12.2321717"><ele>738.25</ele><time>2026-04-25T09:15:18.389Z</time></trkpt><trkpt lat="43.74045" lon="12.232015"><ele>738.5</ele><time>2026-04-25T09:15:19.389Z</time></trkpt><trkpt lat="43.740425" lon="12.2318433"><ele>738.75</ele><time>2026-04-25T09:15:20.388Z</time></trkpt><trkpt lat="43.7404183" lon="12.231675"><ele>739.0</ele><time>2026-04-25T09:15:21.389Z</time></trkpt><trkpt lat="43.7404267" lon="12.2315183"><ele>740.6</ele><time>2026-04-25T09:15:22.389Z</time></trkpt><trkpt lat="43.7404517" lon="12.23137"><ele>742.2</ele><time>2026-04-25T09:15:23.388Z</time></trkpt><trkpt lat="43.7404983" lon="12.23125"><ele>743.8000000000001</ele><time>2026-04-25T09:15:24.389Z</time></trkpt><trkpt lat="43.7405467" lon="12.231135"><ele>745.4000000000001</ele><time>2026-04-25T09:15:25.388Z</time></trkpt><trkpt lat="43.7405983" lon="12.2310367"><ele>747.0</ele><time>2026-04-25T09:15:26.388Z</time></trkpt><trkpt lat="43.740635" lon="12.230925"><ele>747.0</ele><time>2026-04-25T09:15:27.389Z</time></trkpt><trkpt lat="43.74064" lon="12.2308217"><ele>747.0</ele><time>2026-04-25T09:15:28.389Z</time></trkpt><trkpt lat="43.7406217" lon="12.2307167"><ele>747.0</ele><time>2026-04-25T09:15:29.388Z</time></trkpt><trkpt lat="43.7405767" lon="12.2306283"><ele>747.0</ele><time>2026-04-25T09:15:30.388Z</time></trkpt><trkpt lat="43.74051" lon="12.23056"><ele>747.0</ele><time>2026-04-25T09:15:31.388Z</time></trkpt><trkpt lat="43.7404233" lon="12.2305067"><ele>747.0</ele><time>2026-04-25T09:15:32.389Z</time></trkpt><trkpt lat="43.7403217" lon="12.2304767"><ele>750.0</ele><time>2026-04-25T09:15:33.389Z</time></trkpt><trkpt lat="43.7402283" lon="12.2304683"><ele>753.0</ele><time>2026-04-25T09:15:34.388Z</time></trkpt><trkpt lat="43.7401383" lon="12.230495"><ele>756.0</ele><time>2026-04-25T09:15:35.389Z</time></trkpt><trkpt lat="43.7400567" lon="12.2305417"><ele>759.0</ele><time>2026-04-25T09:15:36.389Z</time></trkpt><trkpt lat="43.739985" lon="12.230615"><ele>762.0</ele><time>2026-04-25T09:15:37.389Z</time></trkpt><trkpt lat="43.7399417" lon="12.2307083"><ele>765.0</ele><time>2026-04-25T09:15:38.388Z</time></trkpt><trkpt lat="43.7399183" lon="12.230825"><ele>765.0</ele><time>2026-04-25T09:15:39.388Z</time></trkpt><trkpt lat="43.7399217" lon="12.2309683"><ele>765.0</ele><time>2026-04-25T09:15:40.389Z</time></trkpt><trkpt lat="43.7399133" lon="12.231105"><ele>765.0</ele><time>2026-04-25T09:15:41.388Z</time></trkpt><trkpt lat="43.7398957" lon="12.231246"><ele>765.0</ele><time>2026-04-25T09:15:42.389Z</time></trkpt><trkpt lat="43.7398646" lon="12.2313779"><ele>765.0</ele><time>2026-04-25T09:15:43.388Z</time></trkpt><trkpt lat="43.739807" lon="12.2315005"><ele>765.0</ele><time>2026-04-25T09:15:44.388Z</time></trkpt><trkpt lat="43.7397349" lon="12.2316023"><ele>765.0</ele><time>2026-04-25T09:15:45.389Z</time></trkpt><trkpt lat="43.7396623" lon="12.2316633"><ele>765.0</ele><time>2026-04-25T09:15:46.388Z</time></trkpt><trkpt lat="43.7395893" lon="12.2316688"><ele>765.0</ele><time>2026-04-25T09:15:47.389Z</time></trkpt><trkpt lat="43.7395291" lon="12.2316291"><ele>765.0</ele><time>2026-04-25T09:15:48.389Z</time></trkpt><trkpt lat="43.7394823" lon="12.2315455"><ele>765.0</ele><time>2026-04-25T09:15:49.389Z</time></trkpt><trkpt lat="43.7394461" lon="12.2314239"><ele>765.0</ele><time>2026-04-25T09:15:50.388Z</time></trkpt><trkpt lat="43.7394046" lon="12.2312874"><ele>765.0</ele><time>2026-04-25T09:15:51.388Z</time></trkpt><trkpt lat="43.7393431" lon="12.2311468"><ele>765.0</ele><time>2026-04-25T09:15:52.389Z</time></trkpt><trkpt lat="43.7392622" lon="12.2310058"><ele>765.0</ele><time>2026-04-25T09:15:53.389Z</time></trkpt><trkpt lat="43.7391629" lon="12.2308817"><ele>767.8</ele><time>2026-04-25T09:15:54.389Z</time></trkpt><trkpt lat="43.7390562" lon="12.2307777"><ele>770.6</ele><time>2026-04-25T09:15:55.389Z</time></trkpt><trkpt lat="43.7389535" lon="12.2306875"><ele>773.4000000000001</ele><time>2026-04-25T09:15:56.389Z</time></trkpt><trkpt lat="43.7388667" lon="12.2306127"><ele>776.2</ele><time>2026-04-25T09:15:57.389Z</time></trkpt><trkpt lat="43.7388108" lon="12.2305328"><ele>779.0</ele><time>2026-04-25T09:15:58.388Z</time></trkpt><trkpt lat="43.7387852" lon="12.2304514"><ele>780.6666666666667</ele><time>2026-04-25T09:15:59.388Z</time></trkpt><trkpt lat="43.7388689" lon="12.2303583"><ele>782.3333333333334</ele><time>2026-04-25T09:16:01.388Z</time></trkpt><trkpt lat="43.7389406" lon="12.2303494"><ele>784.0</ele><time>2026-04-25T09:16:02.389Z</time></trkpt><trkpt lat="43.7390243" lon="12.2303565"><ele>785.6666666666667</ele><time>2026-04-25T09:16:03.389Z</time></trkpt><trkpt lat="43.7391137" lon="12.2303456"><ele>787.3333333333334</ele><time>2026-04-25T09:16:04.388Z</time></trkpt><trkpt lat="43.7391881" lon="12.2302896"><ele>789.0</ele><time>2026-04-25T09:16:05.388Z</time></trkpt><trkpt lat="43.7392243" lon="12.2301895"><ele>789.0</ele><time>2026-04-25T09:16:06.389Z</time></trkpt><trkpt lat="43.7392314" lon="12.2300747"><ele>789.0</ele><time>2026-04-25T09:16:07.389Z</time></trkpt><trkpt lat="43.7392151" lon="12.2299526"><ele>789.0</ele><time>2026-04-25T09:16:08.388Z</time></trkpt><trkpt lat="43.7391797" lon="12.2298324"><ele>789.0</ele><time>2026-04-25T09:16:09.389Z</time></trkpt><trkpt lat="43.7391262" lon="12.2297227"><ele>789.0</ele><time>2026-04-25T09:16:10.389Z</time></trkpt><trkpt lat="43.7390525" lon="12.2296271"><ele>790.6</ele><time>2026-04-25T09:16:11.389Z</time></trkpt><trkpt lat="43.7389675" lon="12.2295507"><ele>792.2</ele><time>2026-04-25T09:16:12.388Z</time></trkpt><trkpt lat="43.7388665" lon="12.2295108"><ele>793.8000000000001</ele><time>2026-04-25T09:16:13.388Z</time></trkpt><trkpt lat="43.7387547" lon="12.2294995"><ele>795.4000000000001</ele><time>2026-04-25T09:16:14.389Z</time></trkpt><trkpt lat="43.7386395" lon="12.229495"><ele>797.0</ele><time>2026-04-25T09:16:15.388Z</time></trkpt><trkpt lat="43.738524" lon="12.2294858"><ele>799.2</ele><time>2026-04-25T09:16:16.389Z</time></trkpt><trkpt lat="43.7384141" lon="12.2294632"><ele>801.4000000000001</ele><time>2026-04-25T09:16:17.388Z</time></trkpt><trkpt lat="43.7383197" lon="12.2294312"><ele>803.5999999999999</ele><time>2026-04-25T09:16:18.389Z</time></trkpt><trkpt lat="43.7382395" lon="12.2293756"><ele>805.8</ele><time>2026-04-25T09:16:19.388Z</time></trkpt><trkpt lat="43.7381746" lon="12.229291"><ele>808.0</ele><time>2026-04-25T09:16:20.388Z</time></trkpt><trkpt lat="43.7381215" lon="12.2291814"><ele>808.0</ele><time>2026-04-25T09:16:21.389Z</time></trkpt><trkpt lat="43.7380663" lon="12.2290649"><ele>808.0</ele><time>2026-04-25T09:16:22.389Z</time></trkpt><trkpt lat="43.7379931" lon="12.2289533"><ele>808.0</ele><time>2026-04-25T09:16:23.389Z</time></trkpt><trkpt lat="43.737911" lon="12.2288407"><ele>808.0</ele><time>2026-04-25T09:16:24.389Z</time></trkpt><trkpt lat="43.7378281" lon="12.2287329"><ele>808.0</ele><time>2026-04-25T09:16:25.389Z</time></trkpt><trkpt lat="43.7377616" lon="12.228624"><ele>808.9999999999999</ele><time>2026-04-25T09:16:26.389Z</time></trkpt><trkpt lat="43.737731" lon="12.2285151"><ele>810.0</ele><time>2026-04-25T09:16:27.389Z</time></trkpt><trkpt lat="43.7377278" lon="12.2284111"><ele>811.0</ele><time>2026-04-25T09:16:28.389Z</time></trkpt><trkpt lat="43.7377598" lon="12.2283176"><ele>812.0</ele><time>2026-04-25T09:16:29.389Z</time></trkpt><trkpt lat="43.7378288" lon="12.2282229"><ele>812.9999999999999</ele><time>2026-04-25T09:16:30.389Z</time></trkpt><trkpt lat="43.7379063" lon="12.2281064"><ele>814.0</ele><time>2026-04-25T09:16:31.388Z</time></trkpt><trkpt lat="43.7379852" lon="12.2279738"><ele>816.4000000000001</ele><time>2026-04-25T09:16:32.389Z</time></trkpt><trkpt lat="43.7380617" lon="12.2278377"><ele>818.8</ele><time>2026-04-25T09:16:33.389Z</time></trkpt><trkpt lat="43.7381235" lon="12.2277109"><ele>821.2</ele><time>2026-04-25T09:16:34.388Z</time></trkpt><trkpt lat="43.7381645" lon="12.2275767"><ele>823.5999999999999</ele><time>2026-04-25T09:16:35.389Z</time></trkpt><trkpt lat="43.7381835" lon="12.2274298"><ele>826.0</ele><time>2026-04-25T09:16:36.389Z</time></trkpt><trkpt lat="43.7381794" lon="12.2272757"><ele>827.8</ele><time>2026-04-25T09:16:37.388Z</time></trkpt><trkpt lat="43.7381613" lon="12.22713"><ele>829.5999999999999</ele><time>2026-04-25T09:16:38.389Z</time></trkpt><trkpt lat="43.7381571" lon="12.226978"><ele>831.4</ele><time>2026-04-25T09:16:39.389Z</time></trkpt><trkpt lat="43.738175" lon="12.2268195"><ele>833.2</ele><time>2026-04-25T09:16:40.389Z</time></trkpt><trkpt lat="43.7382011" lon="12.226663"><ele>835.0</ele><time>2026-04-25T09:16:41.389Z</time></trkpt><trkpt lat="43.7382206" lon="12.2265199"><ele>837.3333333333333</ele><time>2026-04-25T09:16:42.389Z</time></trkpt><trkpt lat="43.7382322" lon="12.2264046"><ele>839.6666666666666</ele><time>2026-04-25T09:16:43.388Z</time></trkpt><trkpt lat="43.7382482" lon="12.226256"><ele>842.0</ele><time>2026-04-25T09:16:45.388Z</time></trkpt><trkpt lat="43.7382065" lon="12.2261559"><ele>844.3333333333333</ele><time>2026-04-25T09:16:47.389Z</time></trkpt><trkpt lat="43.7381477" lon="12.2261071"><ele>846.6666666666666</ele><time>2026-04-25T09:16:48.388Z</time></trkpt><trkpt lat="43.738071" lon="12.2260641"><ele>849.0</ele><time>2026-04-25T09:16:49.389Z</time></trkpt><trkpt lat="43.7379775" lon="12.226032"><ele>849.0</ele><time>2026-04-25T09:16:50.389Z</time></trkpt><trkpt lat="43.7378721" lon="12.2260324"><ele>849.0</ele><time>2026-04-25T09:16:51.388Z</time></trkpt><trkpt lat="43.7377628" lon="12.2260542"><ele>849.0</ele><time>2026-04-25T09:16:52.388Z</time></trkpt><trkpt lat="43.7376497" lon="12.2261269"><ele>849.0</ele><time>2026-04-25T09:16:53.388Z</time></trkpt><trkpt lat="43.7375353" lon="12.2262225"><ele>851.0</ele><time>2026-04-25T09:16:54.389Z</time></trkpt><trkpt lat="43.7374312" lon="12.2263206"><ele>853.0</ele><time>2026-04-25T09:16:55.388Z</time></trkpt><trkpt lat="43.7373333" lon="12.2264232"><ele>855.0</ele><time>2026-04-25T09:16:56.389Z</time></trkpt><trkpt lat="43.7372426" lon="12.2264903"><ele>857.0</ele><time>2026-04-25T09:16:57.388Z</time></trkpt><trkpt lat="43.7371498" lon="12.2265337"><ele>856.25</ele><time>2026-04-25T09:16:58.388Z</time></trkpt><trkpt lat="43.7370538" lon="12.2265702"><ele>855.5</ele><time>2026-04-25T09:16:59.389Z</time></trkpt><trkpt lat="43.7369531" lon="12.2266156"><ele>854.75</ele><time>2026-04-25T09:17:00.388Z</time></trkpt><trkpt lat="43.7368453" lon="12.2266972"><ele>854.0</ele><time>2026-04-25T09:17:01.388Z</time></trkpt><trkpt lat="43.7367409" lon="12.2268116"><ele>854.0</ele><time>2026-04-25T09:17:02.389Z</time></trkpt><trkpt lat="43.7366438" lon="12.226943"><ele>854.0</ele><time>2026-04-25T09:17:03.388Z</time></trkpt><trkpt lat="43.7365497" lon="12.2270699"><ele>854.0</ele><time>2026-04-25T09:17:04.389Z</time></trkpt><trkpt lat="43.7364552" lon="12.2271827"><ele>854.0</ele><time>2026-04-25T09:17:05.389Z</time></trkpt><trkpt lat="43.7363588" lon="12.2272928"><ele>853.25</ele><time>2026-04-25T09:17:06.388Z</time></trkpt><trkpt lat="43.7362628" lon="12.227399"><ele>852.5</ele><time>2026-04-25T09:17:07.389Z</time></trkpt><trkpt lat="43.7361635" lon="12.2275066"><ele>851.75</ele><time>2026-04-25T09:17:08.388Z</time></trkpt><trkpt lat="43.7360581" lon="12.2276036"><ele>851.0</ele><time>2026-04-25T09:17:09.389Z</time></trkpt><trkpt lat="43.7359519" lon="12.2276933"><ele>853.5</ele><time>2026-04-25T09:17:10.388Z</time></trkpt><trkpt lat="43.7358579" lon="12.2277992"><ele>856.0</ele><time>2026-04-25T09:17:11.388Z</time></trkpt><trkpt lat="43.7357862" lon="12.2279331"><ele>858.5</ele><time>2026-04-25T09:17:12.389Z</time></trkpt><trkpt lat="43.7357382" lon="12.2280848"><ele>861.0</ele><time>2026-04-25T09:17:13.389Z</time></trkpt><trkpt lat="43.7356947" lon="12.2282211"><ele>861.0</ele><time>2026-04-25T09:17:14.389Z</time></trkpt><trkpt lat="43.7356539" lon="12.2283335"><ele>861.0</ele><time>2026-04-25T09:17:15.389Z</time></trkpt><trkpt lat="43.7356082" lon="12.2284244"><ele>861.0</ele><time>2026-04-25T09:17:16.388Z</time></trkpt><trkpt lat="43.7355435" lon="12.2284972"><ele>861.0</ele><time>2026-04-25T09:17:17.389Z</time></trkpt><trkpt lat="43.7354608" lon="12.2285411"><ele>861.0</ele><time>2026-04-25T09:17:18.388Z</time></trkpt><trkpt lat="43.7353693" lon="12.228549"><ele>861.0</ele><time>2026-04-25T09:17:19.389Z</time></trkpt><trkpt lat="43.735272" lon="12.2285316"><ele>863.4</ele><time>2026-04-25T09:17:20.388Z</time></trkpt><trkpt lat="43.7351849" lon="12.2284711"><ele>865.8</ele><time>2026-04-25T09:17:21.388Z</time></trkpt><trkpt lat="43.7351073" lon="12.2283796"><ele>868.1999999999999</ele><time>2026-04-25T09:17:22.388Z</time></trkpt><trkpt lat="43.7350351" lon="12.2282634"><ele>870.5999999999999</ele><time>2026-04-25T09:17:23.389Z</time></trkpt><trkpt lat="43.7349625" lon="12.2281515"><ele>873.0</ele><time>2026-04-25T09:17:24.389Z</time></trkpt><trkpt lat="43.7348883" lon="12.2280681"><ele>876.0</ele><time>2026-04-25T09:17:25.389Z</time></trkpt><trkpt lat="43.7348008" lon="12.2280109"><ele>879.0</ele><time>2026-04-25T09:17:26.389Z</time></trkpt><trkpt lat="43.7347112" lon="12.2279773"><ele>882.0</ele><time>2026-04-25T09:17:27.388Z</time></trkpt><trkpt lat="43.7346201" lon="12.2279329"><ele>885.0</ele><time>2026-04-25T09:17:28.389Z</time></trkpt><trkpt lat="43.7345294" lon="12.2278486"><ele>888.0</ele><time>2026-04-25T09:17:29.389Z</time></trkpt><trkpt lat="43.7344444" lon="12.227739"><ele>887.0</ele><time>2026-04-25T09:17:30.389Z</time></trkpt><trkpt lat="43.7343521" lon="12.2276347"><ele>886.0</ele><time>2026-04-25T09:17:31.388Z</time></trkpt><trkpt lat="43.7342506" lon="12.2275405"><ele>885.0</ele><time>2026-04-25T09:17:32.389Z</time></trkpt><trkpt lat="43.734139" lon="12.2274719"><ele>884.0</ele><time>2026-04-25T09:17:33.388Z</time></trkpt><trkpt lat="43.7340262" lon="12.2274096"><ele>884.0</ele><time>2026-04-25T09:17:34.388Z</time></trkpt><trkpt lat="43.7339224" lon="12.2273453"><ele>884.0000000000001</ele><time>2026-04-25T09:17:35.388Z</time></trkpt><trkpt lat="43.7338283" lon="12.2272651"><ele>884.0000000000001</ele><time>2026-04-25T09:17:36.388Z</time></trkpt><trkpt lat="43.7337542" lon="12.2271678"><ele>884.0</ele><time>2026-04-25T09:17:37.389Z</time></trkpt><trkpt lat="43.7336902" lon="12.2270577"><ele>884.0</ele><time>2026-04-25T09:17:38.388Z</time></trkpt><trkpt lat="43.7336309" lon="12.2269445"><ele>884.8000000000001</ele><time>2026-04-25T09:17:39.389Z</time></trkpt><trkpt lat="43.7335685" lon="12.226848"><ele>885.6000000000001</ele><time>2026-04-25T09:17:40.388Z</time></trkpt><trkpt lat="43.7334955" lon="12.2267808"><ele>886.4</ele><time>2026-04-25T09:17:41.388Z</time></trkpt><trkpt lat="43.7334141" lon="12.2267329"><ele>887.2</ele><time>2026-04-25T09:17:42.389Z</time></trkpt><trkpt lat="43.7333277" lon="12.226721"><ele>888.0</ele><time>2026-04-25T09:17:43.389Z</time></trkpt><trkpt lat="43.7332225" lon="12.2267522"><ele>888.0</ele><time>2026-04-25T09:17:44.388Z</time></trkpt><trkpt lat="43.7331125" lon="12.2268127"><ele>888.0</ele><time>2026-04-25T09:17:45.389Z</time></trkpt><trkpt lat="43.7329975" lon="12.2268964"><ele>888.0</ele><time>2026-04-25T09:17:46.388Z</time></trkpt><trkpt lat="43.7328856" lon="12.2269973"><ele>888.0</ele><time>2026-04-25T09:17:47.389Z</time></trkpt><trkpt lat="43.7327815" lon="12.2271019"><ele>888.0</ele><time>2026-04-25T09:17:48.388Z</time></trkpt><trkpt lat="43.7326829" lon="12.2272062"><ele>888.0</ele><time>2026-04-25T09:17:49.389Z</time></trkpt><trkpt lat="43.7325944" lon="12.2273029"><ele>888.0</ele><time>2026-04-25T09:17:50.389Z</time></trkpt><trkpt lat="43.7325024" lon="12.2273813"><ele>888.0</ele><time>2026-04-25T09:17:51.389Z</time></trkpt><trkpt lat="43.7324023" lon="12.2274399"><ele>887.8</ele><time>2026-04-25T09:17:52.388Z</time></trkpt><trkpt lat="43.7322938" lon="12.2274824"><ele>887.5999999999999</ele><time>2026-04-25T09:17:53.388Z</time></trkpt><trkpt lat="43.7321839" lon="12.2275264"><ele>887.4000000000001</ele><time>2026-04-25T09:17:54.388Z</time></trkpt><trkpt lat="43.7320754" lon="12.2275796"><ele>887.2</ele><time>2026-04-25T09:17:55.388Z</time></trkpt><trkpt lat="43.7319833" lon="12.2276433"><ele>887.0</ele><time>2026-04-25T09:17:56.388Z</time></trkpt><trkpt lat="43.7319083" lon="12.2277183"><ele>886.8</ele><time>2026-04-25T09:17:57.389Z</time></trkpt><trkpt lat="43.73184" lon="12.227805"><ele>886.6</ele><time>2026-04-25T09:17:58.389Z</time></trkpt><trkpt lat="43.7317867" lon="12.2279083"><ele>886.3999999999999</ele><time>2026-04-25T09:17:59.389Z</time></trkpt><trkpt lat="43.7317383" lon="12.2280117"><ele>886.1999999999999</ele><time>2026-04-25T09:18:00.389Z</time></trkpt><trkpt lat="43.7316767" lon="12.2281117"><ele>886.0</ele><time>2026-04-25T09:18:01.389Z</time></trkpt><trkpt lat="43.7316083" lon="12.228175"><ele>885.9999999999999</ele><time>2026-04-25T09:18:02.389Z</time></trkpt><trkpt lat="43.7315483" lon="12.2282067"><ele>886.0</ele><time>2026-04-25T09:18:03.388Z</time></trkpt><trkpt lat="43.7314833" lon="12.228195"><ele>886.0</ele><time>2026-04-25T09:18:04.389Z</time></trkpt><trkpt lat="43.731405" lon="12.2281383"><ele>886.0</ele><time>2026-04-25T09:18:05.388Z</time></trkpt><trkpt lat="43.7313183" lon="12.22807"><ele>885.9999999999999</ele><time>2026-04-25T09:18:06.388Z</time></trkpt><trkpt lat="43.73123" lon="12.22798"><ele>886.0</ele><time>2026-04-25T09:18:07.389Z</time></trkpt><trkpt lat="43.7311433" lon="12.227875"><ele>886.0</ele><time>2026-04-25T09:18:08.388Z</time></trkpt><trkpt lat="43.73107" lon="12.227765"><ele>886.0</ele><time>2026-04-25T09:18:09.388Z</time></trkpt><trkpt lat="43.73099" lon="12.227665"><ele>886.0</ele><time>2026-04-25T09:18:10.389Z</time></trkpt><trkpt lat="43.73089" lon="12.2275617"><ele>886.0</ele><time>2026-04-25T09:18:11.388Z</time></trkpt><trkpt lat="43.7307733" lon="12.2274667"><ele>885.0</ele><time>2026-04-25T09:18:12.389Z</time></trkpt><trkpt lat="43.7306483" lon="12.22737"><ele>884.0</ele><time>2026-04-25T09:18:13.389Z</time></trkpt><trkpt lat="43.7305317" lon="12.227275"><ele>883.0</ele><time>2026-04-25T09:18:14.389Z</time></trkpt><trkpt lat="43.7304267" lon="12.2271933"><ele>882.0</ele><time>2026-04-25T09:18:15.389Z</time></trkpt><trkpt lat="43.7303233" lon="12.2270967"><ele>882.0</ele><time>2026-04-25T09:18:16.389Z</time></trkpt><trkpt lat="43.7302317" lon="12.2269833"><ele>882.0</ele><time>2026-04-25T09:18:17.388Z</time></trkpt><trkpt lat="43.7301583" lon="12.2268633"><ele>882.0</ele><time>2026-04-25T09:18:18.389Z</time></trkpt><trkpt lat="43.73008" lon="12.2267633"><ele>882.0</ele><time>2026-04-25T09:18:19.389Z</time></trkpt><trkpt lat="43.7299967" lon="12.2266783"><ele>882.0</ele><time>2026-04-25T09:18:20.388Z</time></trkpt><trkpt lat="43.72991" lon="12.2266167"><ele>884.2</ele><time>2026-04-25T09:18:21.389Z</time></trkpt><trkpt lat="43.7298117" lon="12.226585"><ele>886.4000000000001</ele><time>2026-04-25T09:18:22.388Z</time></trkpt><trkpt lat="43.729705" lon="12.22656"><ele>888.5999999999999</ele><time>2026-04-25T09:18:23.389Z</time></trkpt><trkpt lat="43.729595" lon="12.2265533"><ele>890.8</ele><time>2026-04-25T09:18:24.389Z</time></trkpt><trkpt lat="43.7294883" lon="12.2265367"><ele>893.0</ele><time>2026-04-25T09:18:25.389Z</time></trkpt><trkpt lat="43.729375" lon="12.226525"><ele>894.2</ele><time>2026-04-25T09:18:26.389Z</time></trkpt><trkpt lat="43.7292633" lon="12.2265"><ele>895.4</ele><time>2026-04-25T09:18:27.389Z</time></trkpt><trkpt lat="43.729165" lon="12.2264567"><ele>896.6000000000001</ele><time>2026-04-25T09:18:28.389Z</time></trkpt><trkpt lat="43.7290783" lon="12.2264"><ele>897.8000000000001</ele><time>2026-04-25T09:18:29.388Z</time></trkpt><trkpt lat="43.7289983" lon="12.226345"><ele>899.0</ele><time>2026-04-25T09:18:30.388Z</time></trkpt><trkpt lat="43.7289317" lon="12.2262967"><ele>896.8000000000001</ele><time>2026-04-25T09:18:31.389Z</time></trkpt><trkpt lat="43.7288233" lon="12.2262133"><ele>894.6000000000001</ele><time>2026-04-25T09:18:33.388Z</time></trkpt><trkpt lat="43.7287167" lon="12.226125"><ele>892.4</ele><time>2026-04-25T09:18:35.389Z</time></trkpt><trkpt lat="43.72865" lon="12.226085"><ele>890.2</ele><time>2026-04-25T09:18:36.388Z</time></trkpt><trkpt lat="43.7285917" lon="12.2260517"><ele>888.0</ele><time>2026-04-25T09:18:37.389Z</time></trkpt><trkpt lat="43.7285217" lon="12.2260117"><ele>888.0</ele><time>2026-04-25T09:18:38.389Z</time></trkpt><trkpt lat="43.728455" lon="12.2259817"><ele>888.0</ele><time>2026-04-25T09:18:39.389Z</time></trkpt><trkpt lat="43.7283783" lon="12.2259733"><ele>888.0</ele><time>2026-04-25T09:18:40.388Z</time></trkpt><trkpt lat="43.7283033" lon="12.2259817"><ele>888.0</ele><time>2026-04-25T09:18:41.388Z</time></trkpt><trkpt lat="43.7282283" lon="12.226005"><ele>888.0</ele><time>2026-04-25T09:18:42.388Z</time></trkpt><trkpt lat="43.72816" lon="12.226015"><ele>888.0</ele><time>2026-04-25T09:18:43.389Z</time></trkpt><trkpt lat="43.7280933" lon="12.2260183"><ele>888.0</ele><time>2026-04-25T09:18:44.389Z</time></trkpt><trkpt lat="43.728025" lon="12.2260067"><ele>888.0</ele><time>2026-04-25T09:18:45.389Z</time></trkpt><trkpt lat="43.727955" lon="12.2259733"><ele>888.0</ele><time>2026-04-25T09:18:46.389Z</time></trkpt><trkpt lat="43.7278933" lon="12.2259083"><ele>888.0</ele><time>2026-04-25T09:18:47.388Z</time></trkpt><trkpt lat="43.72783" lon="12.22581"><ele>888.0</ele><time>2026-04-25T09:18:48.389Z</time></trkpt><trkpt lat="43.7277817" lon="12.2256867"><ele>888.0</ele><time>2026-04-25T09:18:49.389Z</time></trkpt><trkpt lat="43.7277417" lon="12.22556"><ele>888.0</ele><time>2026-04-25T09:18:50.389Z</time></trkpt><trkpt lat="43.727695" lon="12.2254383"><ele>886.6666666666666</ele><time>2026-04-25T09:18:51.389Z</time></trkpt><trkpt lat="43.7276467" lon="12.22532"><ele>885.3333333333333</ele><time>2026-04-25T09:18:52.388Z</time></trkpt><trkpt lat="43.7276083" lon="12.22522"><ele>884.0</ele><time>2026-04-25T09:18:53.388Z</time></trkpt><trkpt lat="43.7275633" lon="12.2251267"><ele>882.6666666666666</ele><time>2026-04-25T09:18:54.388Z</time></trkpt><trkpt lat="43.7275067" lon="12.2250467"><ele>881.3333333333333</ele><time>2026-04-25T09:18:55.389Z</time></trkpt><trkpt lat="43.7274417" lon="12.22498"><ele>880.0</ele><time>2026-04-25T09:18:56.389Z</time></trkpt><trkpt lat="43.727365" lon="12.2249383"><ele>880.0</ele><time>2026-04-25T09:18:57.389Z</time></trkpt><trkpt lat="43.7272717" lon="12.2249233"><ele>880.0</ele><time>2026-04-25T09:18:58.388Z</time></trkpt><trkpt lat="43.727175" lon="12.22493"><ele>880.0</ele><time>2026-04-25T09:18:59.389Z</time></trkpt><trkpt lat="43.7270783" lon="12.2249517"><ele>880.0</ele><time>2026-04-25T09:19:00.389Z</time></trkpt><trkpt lat="43.7269817" lon="12.2249767"><ele>880.0</ele><time>2026-04-25T09:19:01.389Z</time></trkpt><trkpt lat="43.72689" lon="12.2249983"><ele>880.2</ele><time>2026-04-25T09:19:02.389Z</time></trkpt><trkpt lat="43.726805" lon="12.2250183"><ele>880.4</ele><time>2026-04-25T09:19:03.389Z</time></trkpt><trkpt lat="43.7267333" lon="12.2250367"><ele>880.5999999999999</ele><time>2026-04-25T09:19:04.389Z</time></trkpt><trkpt lat="43.72662" lon="12.2251083"><ele>880.8</ele><time>2026-04-25T09:19:06.388Z</time></trkpt><trkpt lat="43.72657" lon="12.2252517"><ele>881.0</ele><time>2026-04-25T09:19:08.389Z</time></trkpt><trkpt lat="43.7265817" lon="12.225345"><ele>881.0</ele><time>2026-04-25T09:19:09.389Z</time></trkpt><trkpt lat="43.726625" lon="12.22546"><ele>880.9999999999999</ele><time>2026-04-25T09:19:10.389Z</time></trkpt><trkpt lat="43.7266783" lon="12.2255717"><ele>880.9999999999999</ele><time>2026-04-25T09:19:11.389Z</time></trkpt><trkpt lat="43.7267183" lon="12.2256867"><ele>881.0</ele><time>2026-04-25T09:19:12.389Z</time></trkpt><trkpt lat="43.726735" lon="12.2258233"><ele>881.0</ele><time>2026-04-25T09:19:13.389Z</time></trkpt><trkpt lat="43.72673" lon="12.2259567"><ele>878.5000000000001</ele><time>2026-04-25T09:19:14.389Z</time></trkpt><trkpt lat="43.7267317" lon="12.2260933"><ele>876.0</ele><time>2026-04-25T09:19:15.389Z</time></trkpt><trkpt lat="43.7267483" lon="12.2262317"><ele>873.5</ele><time>2026-04-25T09:19:16.389Z</time></trkpt><trkpt lat="43.7267667" lon="12.22636"><ele>871.0</ele><time>2026-04-25T09:19:17.389Z</time></trkpt><trkpt lat="43.7267867" lon="12.2264717"><ele>868.5000000000001</ele><time>2026-04-25T09:19:18.388Z</time></trkpt><trkpt lat="43.7267917" lon="12.22657"><ele>866.0</ele><time>2026-04-25T09:19:19.389Z</time></trkpt><trkpt lat="43.72677" lon="12.226655"><ele>866.0000000000001</ele><time>2026-04-25T09:19:20.388Z</time></trkpt><trkpt lat="43.726725" lon="12.2267183"><ele>866.0</ele><time>2026-04-25T09:19:21.388Z</time></trkpt><trkpt lat="43.7266517" lon="12.2267383"><ele>866.0</ele><time>2026-04-25T09:19:22.388Z</time></trkpt><trkpt lat="43.726585" lon="12.226715"><ele>866.0</ele><time>2026-04-25T09:19:23.389Z</time></trkpt><trkpt lat="43.7265283" lon="12.2266533"><ele>866.0000000000001</ele><time>2026-04-25T09:19:24.389Z</time></trkpt><trkpt lat="43.7264717" lon="12.2265583"><ele>866.0</ele><time>2026-04-25T09:19:25.389Z</time></trkpt><trkpt lat="43.72642" lon="12.2264433"><ele>866.0</ele><time>2026-04-25T09:19:26.389Z</time></trkpt><trkpt lat="43.72637" lon="12.2262983"><ele>866.0</ele><time>2026-04-25T09:19:27.389Z</time></trkpt><trkpt lat="43.7263133" lon="12.2261367"><ele>866.0</ele><time>2026-04-25T09:19:28.388Z</time></trkpt><trkpt lat="43.726275" lon="12.225985"><ele>866.0</ele><time>2026-04-25T09:19:29.388Z</time></trkpt><trkpt lat="43.7262317" lon="12.2258467"><ele>866.0</ele><time>2026-04-25T09:19:30.389Z</time></trkpt><trkpt lat="43.7261717" lon="12.2257567"><ele>865.9999999999999</ele><time>2026-04-25T09:19:31.388Z</time></trkpt><trkpt lat="43.7261" lon="12.2257017"><ele>865.9999999999999</ele><time>2026-04-25T09:19:32.388Z</time></trkpt><trkpt lat="43.7260167" lon="12.22567"><ele>866.0</ele><time>2026-04-25T09:19:33.388Z</time></trkpt><trkpt lat="43.725915" lon="12.225665"><ele>866.0</ele><time>2026-04-25T09:19:34.389Z</time></trkpt><trkpt lat="43.7258033" lon="12.2256833"><ele>862.75</ele><time>2026-04-25T09:19:35.389Z</time></trkpt><trkpt lat="43.7256967" lon="12.2256967"><ele>859.5</ele><time>2026-04-25T09:19:36.389Z</time></trkpt><trkpt lat="43.72559" lon="12.2256983"><ele>856.25</ele><time>2026-04-25T09:19:37.389Z</time></trkpt><trkpt lat="43.7254633" lon="12.225695"><ele>853.0</ele><time>2026-04-25T09:19:38.389Z</time></trkpt><trkpt lat="43.7253468" lon="12.2256782"><ele>853.0</ele><time>2026-04-25T09:19:39.389Z</time></trkpt><trkpt lat="43.7252366" lon="12.2256601"><ele>853.0</ele><time>2026-04-25T09:19:40.389Z</time></trkpt><trkpt lat="43.7251351" lon="12.2256447"><ele>853.0</ele><time>2026-04-25T09:19:41.388Z</time></trkpt><trkpt lat="43.7250427" lon="12.2256308"><ele>853.0</ele><time>2026-04-25T09:19:42.389Z</time></trkpt><trkpt lat="43.7249563" lon="12.2256186"><ele>853.0</ele><time>2026-04-25T09:19:43.389Z</time></trkpt><trkpt lat="43.7248743" lon="12.2255789"><ele>851.2</ele><time>2026-04-25T09:19:44.389Z</time></trkpt><trkpt lat="43.7247945" lon="12.2255076"><ele>849.4</ele><time>2026-04-25T09:19:45.389Z</time></trkpt><trkpt lat="43.7247081" lon="12.2254177"><ele>847.6</ele><time>2026-04-25T09:19:46.389Z</time></trkpt><trkpt lat="43.7246161" lon="12.2253178"><ele>845.8000000000001</ele><time>2026-04-25T09:19:47.388Z</time></trkpt><trkpt lat="43.7245074" lon="12.2252354"><ele>844.0</ele><time>2026-04-25T09:19:48.389Z</time></trkpt><trkpt lat="43.7243872" lon="12.2251836"><ele>844.0</ele><time>2026-04-25T09:19:49.389Z</time></trkpt><trkpt lat="43.7242617" lon="12.2251609"><ele>844.0</ele><time>2026-04-25T09:19:50.389Z</time></trkpt><trkpt lat="43.7241367" lon="12.2251582"><ele>844.0</ele><time>2026-04-25T09:19:51.389Z</time></trkpt><trkpt lat="43.7240207" lon="12.2251706"><ele>844.0</ele><time>2026-04-25T09:19:52.388Z</time></trkpt><trkpt lat="43.7239116" lon="12.2251859"><ele>843.9999999999999</ele><time>2026-04-25T09:19:53.388Z</time></trkpt><trkpt lat="43.7238116" lon="12.2251929"><ele>844.0</ele><time>2026-04-25T09:19:54.388Z</time></trkpt><trkpt lat="43.7237315" lon="12.2251999"><ele>844.0</ele><time>2026-04-25T09:19:55.389Z</time></trkpt><trkpt lat="43.7236582" lon="12.2252037"><ele>844.0</ele><time>2026-04-25T09:19:56.389Z</time></trkpt><trkpt lat="43.7235833" lon="12.2251889"><ele>843.9999999999999</ele><time>2026-04-25T09:19:57.389Z</time></trkpt><trkpt lat="43.7235094" lon="12.2251449"><ele>844.0</ele><time>2026-04-25T09:19:58.389Z</time></trkpt><trkpt lat="43.723437" lon="12.2250711"><ele>839.0</ele><time>2026-04-25T09:19:59.389Z</time></trkpt><trkpt lat="43.7233765" lon="12.2249528"><ele>834.0</ele><time>2026-04-25T09:20:00.389Z</time></trkpt><trkpt lat="43.7233307" lon="12.2247973"><ele>829.0</ele><time>2026-04-25T09:20:01.388Z</time></trkpt><trkpt lat="43.7232868" lon="12.2246296"><ele>824.0</ele><time>2026-04-25T09:20:02.389Z</time></trkpt><trkpt lat="43.7232377" lon="12.2244629"><ele>824.0</ele><time>2026-04-25T09:20:03.388Z</time></trkpt><trkpt lat="43.7231914" lon="12.2243142"><ele>824.0</ele><time>2026-04-25T09:20:04.388Z</time></trkpt><trkpt lat="43.7231527" lon="12.2241875"><ele>824.0</ele><time>2026-04-25T09:20:05.388Z</time></trkpt><trkpt lat="43.7231182" lon="12.2240866"><ele>824.0</ele><time>2026-04-25T09:20:06.388Z</time></trkpt><trkpt lat="43.7230794" lon="12.2240071"><ele>824.0</ele><time>2026-04-25T09:20:07.389Z</time></trkpt><trkpt lat="43.7229839" lon="12.2239074"><ele>824.0000000000001</ele><time>2026-04-25T09:20:09.389Z</time></trkpt><trkpt lat="43.7228827" lon="12.2239422"><ele>824.0</ele><time>2026-04-25T09:20:11.389Z</time></trkpt><trkpt lat="43.7228417" lon="12.2240367"><ele>824.0</ele><time>2026-04-25T09:20:12.389Z</time></trkpt><trkpt lat="43.7228233" lon="12.2241217"><ele>824.0</ele><time>2026-04-25T09:20:13.389Z</time></trkpt><trkpt lat="43.722825" lon="12.2242133"><ele>824.0000000000001</ele><time>2026-04-25T09:20:14.389Z</time></trkpt><trkpt lat="43.72283" lon="12.224375"><ele>824.0</ele><time>2026-04-25T09:20:16.389Z</time></trkpt><trkpt lat="43.7228167" lon="12.224475"><ele>824.0</ele><time>2026-04-25T09:20:18.389Z</time></trkpt><trkpt lat="43.7227483" lon="12.22447"><ele>824.0</ele><time>2026-04-25T09:21:46.389Z</time></trkpt><trkpt lat="43.7227183" lon="12.2243183"><ele>824.0</ele><time>2026-04-25T09:21:48.389Z</time></trkpt><trkpt lat="43.7226917" lon="12.2242"><ele>824.0</ele><time>2026-04-25T09:21:49.388Z</time></trkpt><trkpt lat="43.7226667" lon="12.2240617"><ele>824.0</ele><time>2026-04-25T09:21:50.389Z</time></trkpt><trkpt lat="43.7226367" lon="12.22391"><ele>818.75</ele><time>2026-04-25T09:21:51.388Z</time></trkpt><trkpt lat="43.722605" lon="12.2237583"><ele>813.5</ele><time>2026-04-25T09:21:52.388Z</time></trkpt><trkpt lat="43.7225733" lon="12.2235833"><ele>808.25</ele><time>2026-04-25T09:21:53.389Z</time></trkpt><trkpt lat="43.7225267" lon="12.2234183"><ele>803.0</ele><time>2026-04-25T09:21:54.388Z</time></trkpt><trkpt lat="43.7224683" lon="12.2232633"><ele>803.5</ele><time>2026-04-25T09:21:55.389Z</time></trkpt><trkpt lat="43.722395" lon="12.223125"><ele>804.0</ele><time>2026-04-25T09:21:56.388Z</time></trkpt><trkpt lat="43.72231" lon="12.2230133"><ele>804.5</ele><time>2026-04-25T09:21:57.389Z</time></trkpt><trkpt lat="43.7222167" lon="12.22293"><ele>805.0</ele><time>2026-04-25T09:21:58.388Z</time></trkpt><trkpt lat="43.7221067" lon="12.2228633"><ele>805.0</ele><time>2026-04-25T09:21:59.389Z</time></trkpt><trkpt lat="43.72198" lon="12.2228133"><ele>805.0</ele><time>2026-04-25T09:22:00.388Z</time></trkpt><trkpt lat="43.7218533" lon="12.2227817"><ele>805.0</ele><time>2026-04-25T09:22:01.389Z</time></trkpt><trkpt lat="43.72172" lon="12.2227617"><ele>805.0</ele><time>2026-04-25T09:22:02.388Z</time></trkpt><trkpt lat="43.721585" lon="12.2227283"><ele>804.0</ele><time>2026-04-25T09:22:03.388Z</time></trkpt><trkpt lat="43.72146" lon="12.2226917"><ele>803.0</ele><time>2026-04-25T09:22:04.388Z</time></trkpt><trkpt lat="43.721335" lon="12.2226667"><ele>802.0</ele><time>2026-04-25T09:22:05.388Z</time></trkpt><trkpt lat="43.7212183" lon="12.2226383"><ele>801.0</ele><time>2026-04-25T09:22:06.389Z</time></trkpt><trkpt lat="43.7211083" lon="12.2226133"><ele>799.4</ele><time>2026-04-25T09:22:07.388Z</time></trkpt><trkpt lat="43.721005" lon="12.2225867"><ele>797.8</ele><time>2026-04-25T09:22:08.389Z</time></trkpt><trkpt lat="43.7209033" lon="12.2225617"><ele>796.1999999999999</ele><time>2026-04-25T09:22:09.389Z</time></trkpt><trkpt lat="43.720805" lon="12.2225333"><ele>794.5999999999999</ele><time>2026-04-25T09:22:10.389Z</time></trkpt><trkpt lat="43.7207117" lon="12.2225117"><ele>793.0</ele><time>2026-04-25T09:22:11.389Z</time></trkpt><trkpt lat="43.720625" lon="12.2225033"><ele>792.9999999999999</ele><time>2026-04-25T09:22:12.389Z</time></trkpt><trkpt lat="43.7205417" lon="12.2225233"><ele>793.0</ele><time>2026-04-25T09:22:13.388Z</time></trkpt><trkpt lat="43.720465" lon="12.2225617"><ele>793.0</ele><time>2026-04-25T09:22:14.389Z</time></trkpt><trkpt lat="43.7203883" lon="12.22261"><ele>793.0</ele><time>2026-04-25T09:22:15.389Z</time></trkpt><trkpt lat="43.7203133" lon="12.2226683"><ele>792.9999999999999</ele><time>2026-04-25T09:22:16.389Z</time></trkpt><trkpt lat="43.7202417" lon="12.2227167"><ele>793.0</ele><time>2026-04-25T09:22:17.389Z</time></trkpt><trkpt lat="43.7201667" lon="12.222755"><ele>791.6666666666666</ele><time>2026-04-25T09:22:18.388Z</time></trkpt><trkpt lat="43.7200983" lon="12.2227833"><ele>790.3333333333333</ele><time>2026-04-25T09:22:19.389Z</time></trkpt><trkpt lat="43.7200267" lon="12.2228"><ele>789.0</ele><time>2026-04-25T09:22:20.389Z</time></trkpt><trkpt lat="43.7199567" lon="12.2228083"><ele>787.6666666666667</ele><time>2026-04-25T09:22:21.388Z</time></trkpt><trkpt lat="43.7198917" lon="12.222805"><ele>786.3333333333334</ele><time>2026-04-25T09:22:22.389Z</time></trkpt><trkpt lat="43.7198067" lon="12.22274"><ele>785.0</ele><time>2026-04-25T09:22:24.389Z</time></trkpt><trkpt lat="43.7197217" lon="12.22268"><ele>785.0</ele><time>2026-04-25T09:22:26.389Z</time></trkpt><trkpt lat="43.7196533" lon="12.2226783"><ele>785.0</ele><time>2026-04-25T09:22:27.389Z</time></trkpt><trkpt lat="43.7195717" lon="12.22267"><ele>785.0</ele><time>2026-04-25T09:22:28.388Z</time></trkpt><trkpt lat="43.7194833" lon="12.2226333"><ele>785.0</ele><time>2026-04-25T09:22:29.389Z</time></trkpt><trkpt lat="43.71939" lon="12.2225717"><ele>785.0</ele><time>2026-04-25T09:22:30.389Z</time></trkpt><trkpt lat="43.71929" lon="12.22249"><ele>782.5</ele><time>2026-04-25T09:22:31.389Z</time></trkpt><trkpt lat="43.7191833" lon="12.2224017"><ele>780.0</ele><time>2026-04-25T09:22:32.389Z</time></trkpt><trkpt lat="43.7190817" lon="12.22232"><ele>777.5</ele><time>2026-04-25T09:22:33.388Z</time></trkpt><trkpt lat="43.718975" lon="12.222245"><ele>775.0</ele><time>2026-04-25T09:22:34.388Z</time></trkpt><trkpt lat="43.718865" lon="12.2221583"><ele>774.8</ele><time>2026-04-25T09:22:35.389Z</time></trkpt><trkpt lat="43.7187633" lon="12.222065"><ele>774.6</ele><time>2026-04-25T09:22:36.389Z</time></trkpt><trkpt lat="43.7186783" lon="12.2219733"><ele>774.4000000000001</ele><time>2026-04-25T09:22:37.388Z</time></trkpt><trkpt lat="43.7185983" lon="12.2218867"><ele>774.2</ele><time>2026-04-25T09:22:38.388Z</time></trkpt><trkpt lat="43.718535" lon="12.221815"><ele>774.0</ele><time>2026-04-25T09:22:39.388Z</time></trkpt><trkpt lat="43.7184817" lon="12.221765"><ele>774.0</ele><time>2026-04-25T09:22:40.389Z</time></trkpt><trkpt lat="43.71842" lon="12.22173"><ele>774.0</ele><time>2026-04-25T09:22:41.389Z</time></trkpt><trkpt lat="43.7183067" lon="12.2216683"><ele>774.0</ele><time>2026-04-25T09:22:43.389Z</time></trkpt><trkpt lat="43.7181917" lon="12.2216033"><ele>774.0</ele><time>2026-04-25T09:22:45.389Z</time></trkpt><trkpt lat="43.7181283" lon="12.2215783"><ele>774.0</ele><time>2026-04-25T09:22:46.389Z</time></trkpt><trkpt lat="43.7180617" lon="12.22156"><ele>774.0</ele><time>2026-04-25T09:22:47.388Z</time></trkpt><trkpt lat="43.7179883" lon="12.2215467"><ele>774.0</ele><time>2026-04-25T09:22:48.389Z</time></trkpt><trkpt lat="43.71791" lon="12.221525"><ele>774.0</ele><time>2026-04-25T09:22:49.388Z</time></trkpt><trkpt lat="43.717825" lon="12.2214967"><ele>774.0</ele><time>2026-04-25T09:22:50.388Z</time></trkpt><trkpt lat="43.7177433" lon="12.221465"><ele>774.0</ele><time>2026-04-25T09:22:51.389Z</time></trkpt><trkpt lat="43.7176633" lon="12.2214283"><ele>774.0</ele><time>2026-04-25T09:22:52.389Z</time></trkpt><trkpt lat="43.71758" lon="12.221385"><ele>774.0</ele><time>2026-04-25T09:22:53.388Z</time></trkpt><trkpt lat="43.7175033" lon="12.2213367"><ele>776.1666666666666</ele><time>2026-04-25T09:22:54.388Z</time></trkpt><trkpt lat="43.7174333" lon="12.2212767"><ele>778.3333333333333</ele><time>2026-04-25T09:22:55.389Z</time></trkpt><trkpt lat="43.7173633" lon="12.2212233"><ele>780.5</ele><time>2026-04-25T09:22:56.388Z</time></trkpt><trkpt lat="43.717285" lon="12.2211833"><ele>782.6666666666666</ele><time>2026-04-25T09:22:57.389Z</time></trkpt><trkpt lat="43.717205" lon="12.2211433"><ele>784.8333333333333</ele><time>2026-04-25T09:22:58.389Z</time></trkpt><trkpt lat="43.7171283" lon="12.22111"><ele>787.0</ele><time>2026-04-25T09:22:59.389Z</time></trkpt><trkpt lat="43.7170483" lon="12.2210917"><ele>786.9999999999999</ele><time>2026-04-25T09:23:00.388Z</time></trkpt><trkpt lat="43.7169583" lon="12.2210883"><ele>787.0</ele><time>2026-04-25T09:23:01.389Z</time></trkpt><trkpt lat="43.71687" lon="12.2210833"><ele>787.0</ele><time>2026-04-25T09:23:02.389Z</time></trkpt><trkpt lat="43.7167833" lon="12.2210733"><ele>787.0</ele><time>2026-04-25T09:23:03.388Z</time></trkpt><trkpt lat="43.716695" lon="12.22106"><ele>786.9999999999999</ele><time>2026-04-25T09:23:04.388Z</time></trkpt><trkpt lat="43.716605" lon="12.2210317"><ele>787.0</ele><time>2026-04-25T09:23:05.389Z</time></trkpt><trkpt lat="43.7165117" lon="12.2209933"><ele>783.75</ele><time>2026-04-25T09:23:06.389Z</time></trkpt><trkpt lat="43.7164167" lon="12.2208983"><ele>780.5</ele><time>2026-04-25T09:23:07.389Z</time></trkpt><trkpt lat="43.71631" lon="12.22079"><ele>777.25</ele><time>2026-04-25T09:23:08.389Z</time></trkpt><trkpt lat="43.716205" lon="12.22069"><ele>774.0</ele><time>2026-04-25T09:23:09.389Z</time></trkpt><trkpt lat="43.7161033" lon="12.2205883"><ele>768.4000000000001</ele><time>2026-04-25T09:23:10.388Z</time></trkpt><trkpt lat="43.7160033" lon="12.220495"><ele>762.8</ele><time>2026-04-25T09:23:11.388Z</time></trkpt><trkpt lat="43.7159133" lon="12.2204033"><ele>757.2</ele><time>2026-04-25T09:23:12.389Z</time></trkpt><trkpt lat="43.7158267" lon="12.2203217"><ele>751.5999999999999</ele><time>2026-04-25T09:23:13.388Z</time></trkpt><trkpt lat="43.7157583" lon="12.22023"><ele>746.0</ele><time>2026-04-25T09:23:14.389Z</time></trkpt><trkpt lat="43.7156983" lon="12.2201183"><ele>746.0</ele><time>2026-04-25T09:23:15.388Z</time></trkpt><trkpt lat="43.7156567" lon="12.21999"><ele>746.0</ele><time>2026-04-25T09:23:16.389Z</time></trkpt><trkpt lat="43.7156167" lon="12.219865"><ele>746.0</ele><time>2026-04-25T09:23:17.389Z</time></trkpt><trkpt lat="43.7155817" lon="12.21973"><ele>746.0</ele><time>2026-04-25T09:23:18.389Z</time></trkpt><trkpt lat="43.7155517" lon="12.219595"><ele>746.0</ele><time>2026-04-25T09:23:19.389Z</time></trkpt><trkpt lat="43.7155333" lon="12.21946"><ele>745.0</ele><time>2026-04-25T09:23:20.388Z</time></trkpt><trkpt lat="43.7155117" lon="12.21933"><ele>744.0</ele><time>2026-04-25T09:23:21.389Z</time></trkpt><trkpt lat="43.71547" lon="12.2191883"><ele>743.0</ele><time>2026-04-25T09:23:22.389Z</time></trkpt><trkpt lat="43.7154133" lon="12.219055"><ele>742.0</ele><time>2026-04-25T09:23:23.389Z</time></trkpt><trkpt lat="43.7153483" lon="12.218935"><ele>741.0</ele><time>2026-04-25T09:23:24.389Z</time></trkpt><trkpt lat="43.7152917" lon="12.2188167"><ele>738.3333333333334</ele><time>2026-04-25T09:23:25.389Z</time></trkpt><trkpt lat="43.7152533" lon="12.2187083"><ele>735.6666666666666</ele><time>2026-04-25T09:23:26.388Z</time></trkpt><trkpt lat="43.7152283" lon="12.218605"><ele>733.0</ele><time>2026-04-25T09:23:27.388Z</time></trkpt><trkpt lat="43.7152083" lon="12.2185017"><ele>730.3333333333333</ele><time>2026-04-25T09:23:28.388Z</time></trkpt><trkpt lat="43.7152033" lon="12.2184017"><ele>727.6666666666666</ele><time>2026-04-25T09:23:29.389Z</time></trkpt><trkpt lat="43.7152167" lon="12.2183017"><ele>725.0</ele><time>2026-04-25T09:23:30.389Z</time></trkpt><trkpt lat="43.7152433" lon="12.2182067"><ele>723.0</ele><time>2026-04-25T09:23:31.389Z</time></trkpt><trkpt lat="43.7152833" lon="12.218115"><ele>721.0</ele><time>2026-04-25T09:23:32.389Z</time></trkpt><trkpt lat="43.715335" lon="12.218025"><ele>719.0</ele><time>2026-04-25T09:23:33.388Z</time></trkpt><trkpt lat="43.7153883" lon="12.217925"><ele>717.0</ele><time>2026-04-25T09:23:34.389Z</time></trkpt><trkpt lat="43.715435" lon="12.217815"><ele>715.0</ele><time>2026-04-25T09:23:35.388Z</time></trkpt><trkpt lat="43.7154783" lon="12.217685"><ele>713.0</ele><time>2026-04-25T09:23:36.389Z</time></trkpt><trkpt lat="43.7155133" lon="12.2175667"><ele>713.0</ele><time>2026-04-25T09:23:37.388Z</time></trkpt><trkpt lat="43.71555" lon="12.2174533"><ele>713.0</ele><time>2026-04-25T09:23:38.389Z</time></trkpt><trkpt lat="43.7155783" lon="12.2173483"><ele>713.0</ele><time>2026-04-25T09:23:39.388Z</time></trkpt><trkpt lat="43.71561" lon="12.2172433"><ele>713.0</ele><time>2026-04-25T09:23:40.389Z</time></trkpt><trkpt lat="43.7156383" lon="12.217125"><ele>713.0</ele><time>2026-04-25T09:23:41.389Z</time></trkpt><trkpt lat="43.7156667" lon="12.2170083"><ele>713.0</ele><time>2026-04-25T09:23:42.389Z</time></trkpt><trkpt lat="43.7156833" lon="12.2168933"><ele>711.3333333333333</ele><time>2026-04-25T09:23:43.389Z</time></trkpt><trkpt lat="43.7157033" lon="12.2167783"><ele>709.6666666666666</ele><time>2026-04-25T09:23:44.389Z</time></trkpt><trkpt lat="43.7157133" lon="12.2166667"><ele>708.0</ele><time>2026-04-25T09:23:45.389Z</time></trkpt><trkpt lat="43.7157217" lon="12.2165533"><ele>706.3333333333334</ele><time>2026-04-25T09:23:46.389Z</time></trkpt><trkpt lat="43.7157183" lon="12.2164317"><ele>704.6666666666667</ele><time>2026-04-25T09:23:47.388Z</time></trkpt><trkpt lat="43.7157067" lon="12.2163083"><ele>703.0</ele><time>2026-04-25T09:23:48.389Z</time></trkpt><trkpt lat="43.7156867" lon="12.216175"><ele>702.0</ele><time>2026-04-25T09:23:49.389Z</time></trkpt><trkpt lat="43.7156717" lon="12.2160467"><ele>701.0</ele><time>2026-04-25T09:23:50.388Z</time></trkpt><trkpt lat="43.7156617" lon="12.21592"><ele>700.0</ele><time>2026-04-25T09:23:51.389Z</time></trkpt><trkpt lat="43.71567" lon="12.215795"><ele>699.0</ele><time>2026-04-25T09:23:52.389Z</time></trkpt><trkpt lat="43.715685" lon="12.21568"><ele>698.0</ele><time>2026-04-25T09:23:53.389Z</time></trkpt><trkpt lat="43.7156967" lon="12.21558"><ele>697.0</ele><time>2026-04-25T09:23:54.389Z</time></trkpt><trkpt lat="43.7157" lon="12.21548"><ele>695.7142857142858</ele><time>2026-04-25T09:23:55.388Z</time></trkpt><trkpt lat="43.715685" lon="12.2153833"><ele>694.4285714285714</ele><time>2026-04-25T09:23:56.389Z</time></trkpt><trkpt lat="43.7156517" lon="12.2152867"><ele>693.1428571428571</ele><time>2026-04-25T09:23:57.388Z</time></trkpt><trkpt lat="43.7156167" lon="12.2151867"><ele>691.8571428571429</ele><time>2026-04-25T09:23:58.388Z</time></trkpt><trkpt lat="43.7155817" lon="12.2150967"><ele>690.5714285714286</ele><time>2026-04-25T09:23:59.389Z</time></trkpt><trkpt lat="43.715545" lon="12.2150117"><ele>689.2857142857143</ele><time>2026-04-25T09:24:00.389Z</time></trkpt><trkpt lat="43.7154917" lon="12.21494"><ele>688.0</ele><time>2026-04-25T09:24:01.388Z</time></trkpt><trkpt lat="43.7154217" lon="12.214875"><ele>686.4</ele><time>2026-04-25T09:24:02.389Z</time></trkpt><trkpt lat="43.715345" lon="12.2148067"><ele>684.8</ele><time>2026-04-25T09:24:03.389Z</time></trkpt><trkpt lat="43.7152783" lon="12.214735"><ele>683.2</ele><time>2026-04-25T09:24:04.389Z</time></trkpt><trkpt lat="43.71521" lon="12.2146483"><ele>681.6</ele><time>2026-04-25T09:24:05.388Z</time></trkpt><trkpt lat="43.715145" lon="12.2145483"><ele>680.0</ele><time>2026-04-25T09:24:06.389Z</time></trkpt><trkpt lat="43.71508" lon="12.2144533"><ele>679.4</ele><time>2026-04-25T09:24:07.389Z</time></trkpt><trkpt lat="43.7150117" lon="12.2143483"><ele>678.8</ele><time>2026-04-25T09:24:08.389Z</time></trkpt><trkpt lat="43.7149383" lon="12.214255"><ele>678.2</ele><time>2026-04-25T09:24:09.388Z</time></trkpt><trkpt lat="43.71486" lon="12.2141717"><ele>677.6</ele><time>2026-04-25T09:24:10.389Z</time></trkpt><trkpt lat="43.7147667" lon="12.2140817"><ele>677.0</ele><time>2026-04-25T09:24:11.389Z</time></trkpt><trkpt lat="43.714675" lon="12.2139917"><ele>675.2</ele><time>2026-04-25T09:24:12.388Z</time></trkpt><trkpt lat="43.7145967" lon="12.2139"><ele>673.4000000000001</ele><time>2026-04-25T09:24:13.389Z</time></trkpt><trkpt lat="43.7145233" lon="12.2138117"><ele>671.5999999999999</ele><time>2026-04-25T09:24:14.388Z</time></trkpt><trkpt lat="43.7144583" lon="12.2137267"><ele>669.8</ele><time>2026-04-25T09:24:15.389Z</time></trkpt><trkpt lat="43.7144117" lon="12.21363"><ele>668.0</ele><time>2026-04-25T09:24:16.389Z</time></trkpt><trkpt lat="43.7143817" lon="12.2135017"><ele>668.0</ele><time>2026-04-25T09:24:17.388Z</time></trkpt><trkpt lat="43.71437" lon="12.213365"><ele>668.0</ele><time>2026-04-25T09:24:18.388Z</time></trkpt><trkpt lat="43.7143683" lon="12.2132167"><ele>668.0</ele><time>2026-04-25T09:24:19.389Z</time></trkpt><trkpt lat="43.714355" lon="12.2130583"><ele>668.0</ele><time>2026-04-25T09:24:20.389Z</time></trkpt><trkpt lat="43.714345" lon="12.2128967"><ele>668.0</ele><time>2026-04-25T09:24:21.388Z</time></trkpt><trkpt lat="43.7143283" lon="12.2127367"><ele>665.5</ele><time>2026-04-25T09:24:22.388Z</time></trkpt><trkpt lat="43.7142967" lon="12.2125833"><ele>663.0</ele><time>2026-04-25T09:24:23.388Z</time></trkpt><trkpt lat="43.71425" lon="12.212445"><ele>660.5</ele><time>2026-04-25T09:24:24.389Z</time></trkpt><trkpt lat="43.7141933" lon="12.2123183"><ele>658.0</ele><time>2026-04-25T09:24:25.389Z</time></trkpt><trkpt lat="43.714125" lon="12.2121867"><ele>655.0</ele><time>2026-04-25T09:24:26.388Z</time></trkpt><trkpt lat="43.714045" lon="12.2120583"><ele>652.0</ele><time>2026-04-25T09:24:27.389Z</time></trkpt><trkpt lat="43.7139633" lon="12.2119233"><ele>649.0</ele><time>2026-04-25T09:24:28.389Z</time></trkpt><trkpt lat="43.7138883" lon="12.2117967"><ele>646.0</ele><time>2026-04-25T09:24:29.388Z</time></trkpt><trkpt lat="43.71381" lon="12.2116767"><ele>646.0</ele><time>2026-04-25T09:24:30.388Z</time></trkpt><trkpt lat="43.713735" lon="12.211565"><ele>646.0</ele><time>2026-04-25T09:24:31.389Z</time></trkpt><trkpt lat="43.7136617" lon="12.21147"><ele>646.0</ele><time>2026-04-25T09:24:32.388Z</time></trkpt><trkpt lat="43.7135983" lon="12.2113983"><ele>646.0</ele><time>2026-04-25T09:24:33.388Z</time></trkpt><trkpt lat="43.7135417" lon="12.2113283"><ele>646.0</ele><time>2026-04-25T09:24:34.389Z</time></trkpt><trkpt lat="43.713435" lon="12.2112633"><ele>646.0</ele><time>2026-04-25T09:24:36.388Z</time></trkpt><trkpt lat="43.71331" lon="12.2112967"><ele>646.0</ele><time>2026-04-25T09:24:38.388Z</time></trkpt><trkpt lat="43.713235" lon="12.21134"><ele>646.0</ele><time>2026-04-25T09:24:39.388Z</time></trkpt><trkpt lat="43.7131383" lon="12.2114183"><ele>646.0</ele><time>2026-04-25T09:24:40.389Z</time></trkpt><trkpt lat="43.713035" lon="12.2115033"><ele>646.0</ele><time>2026-04-25T09:24:41.388Z</time></trkpt><trkpt lat="43.7129267" lon="12.211575"><ele>646.0</ele><time>2026-04-25T09:24:42.388Z</time></trkpt><trkpt lat="43.7128233" lon="12.2116467"><ele>646.0</ele><time>2026-04-25T09:24:43.389Z</time></trkpt><trkpt lat="43.7127167" lon="12.21171"><ele>646.0</ele><time>2026-04-25T09:24:44.389Z</time></trkpt><trkpt lat="43.7126117" lon="12.2117633"><ele>646.0</ele><time>2026-04-25T09:24:45.389Z</time></trkpt><trkpt lat="43.7125117" lon="12.2118183"><ele>643.6666666666667</ele><time>2026-04-25T09:24:46.389Z</time></trkpt><trkpt lat="43.712415" lon="12.2118567"><ele>641.3333333333334</ele><time>2026-04-25T09:24:47.389Z</time></trkpt><trkpt lat="43.71232" lon="12.2118917"><ele>639.0</ele><time>2026-04-25T09:24:48.389Z</time></trkpt><trkpt lat="43.7122333" lon="12.211925"><ele>636.6666666666666</ele><time>2026-04-25T09:24:49.389Z</time></trkpt><trkpt lat="43.7121583" lon="12.211955"><ele>634.3333333333333</ele><time>2026-04-25T09:24:50.388Z</time></trkpt><trkpt lat="43.71209" lon="12.2119883"><ele>632.0</ele><time>2026-04-25T09:24:51.389Z</time></trkpt><trkpt lat="43.7120283" lon="12.2120183"><ele>632.0</ele><time>2026-04-25T09:24:52.389Z</time></trkpt><trkpt lat="43.7119417" lon="12.2120983"><ele>632.0</ele><time>2026-04-25T09:24:54.389Z</time></trkpt><trkpt lat="43.7118583" lon="12.2122433"><ele>632.0</ele><time>2026-04-25T09:24:56.388Z</time></trkpt><trkpt lat="43.711805" lon="12.2123283"><ele>632.0</ele><time>2026-04-25T09:24:57.389Z</time></trkpt><trkpt lat="43.7117483" lon="12.2123983"><ele>632.0</ele><time>2026-04-25T09:24:58.389Z</time></trkpt><trkpt lat="43.7116633" lon="12.2124933"><ele>632.1666666666666</ele><time>2026-04-25T09:25:00.389Z</time></trkpt><trkpt lat="43.71159" lon="12.212545"><ele>632.3333333333333</ele><time>2026-04-25T09:25:02.388Z</time></trkpt><trkpt lat="43.7115117" lon="12.2125817"><ele>632.5</ele><time>2026-04-25T09:25:05.389Z</time></trkpt><trkpt lat="43.711575" lon="12.2125983"><ele>632.6666666666666</ele><time>2026-04-25T09:25:11.388Z</time></trkpt><trkpt lat="43.7116817" lon="12.2124867"><ele>632.8333333333334</ele><time>2026-04-25T09:25:13.389Z</time></trkpt><trkpt lat="43.7117467" lon="12.2124133"><ele>633.0</ele><time>2026-04-25T09:25:14.388Z</time></trkpt><trkpt lat="43.7118067" lon="12.2123317"><ele>632.8333333333334</ele><time>2026-04-25T09:25:15.389Z</time></trkpt><trkpt lat="43.7118567" lon="12.212245"><ele>632.6666666666666</ele><time>2026-04-25T09:25:16.389Z</time></trkpt><trkpt lat="43.7118933" lon="12.2121517"><ele>632.5</ele><time>2026-04-25T09:25:17.388Z</time></trkpt><trkpt lat="43.7119167" lon="12.2120617"><ele>632.3333333333333</ele><time>2026-04-25T09:25:18.389Z</time></trkpt><trkpt lat="43.71192" lon="12.2119583"><ele>632.1666666666666</ele><time>2026-04-25T09:25:19.389Z</time></trkpt><trkpt lat="43.711915" lon="12.2118617"><ele>632.0</ele><time>2026-04-25T09:25:20.389Z</time></trkpt><trkpt lat="43.7118933" lon="12.2117267"><ele>632.0</ele><time>2026-04-25T09:25:22.388Z</time></trkpt><trkpt lat="43.7118783" lon="12.211625"><ele>632.0</ele><time>2026-04-25T09:25:24.388Z</time></trkpt><trkpt lat="43.711895" lon="12.211525"><ele>632.0</ele><time>2026-04-25T09:25:27.389Z</time></trkpt><trkpt lat="43.7118817" lon="12.2116467"><ele>632.0</ele><time>2026-04-25T09:25:35.388Z</time></trkpt><trkpt lat="43.7118967" lon="12.2117467"><ele>632.0</ele><time>2026-04-25T09:25:36.389Z</time></trkpt><trkpt lat="43.71191" lon="12.211855"><ele>632.0</ele><time>2026-04-25T09:25:37.389Z</time></trkpt><trkpt lat="43.71191" lon="12.2120083"><ele>630.8000000000001</ele><time>2026-04-25T09:25:39.389Z</time></trkpt><trkpt lat="43.7118517" lon="12.21206"><ele>629.6</ele><time>2026-04-25T09:25:41.389Z</time></trkpt><trkpt lat="43.7117133" lon="12.212075"><ele>628.4000000000001</ele><time>2026-04-25T09:25:43.389Z</time></trkpt><trkpt lat="43.7116283" lon="12.2120667"><ele>627.2</ele><time>2026-04-25T09:25:44.389Z</time></trkpt><trkpt lat="43.7115383" lon="12.212025"><ele>626.0</ele><time>2026-04-25T09:25:45.389Z</time></trkpt><trkpt lat="43.71144" lon="12.2119533"><ele>626.0</ele><time>2026-04-25T09:25:46.389Z</time></trkpt><trkpt lat="43.7113617" lon="12.2118667"><ele>626.0</ele><time>2026-04-25T09:25:47.388Z</time></trkpt><trkpt lat="43.711265" lon="12.2117783"><ele>626.0</ele><time>2026-04-25T09:25:48.388Z</time></trkpt><trkpt lat="43.7111483" lon="12.2117183"><ele>626.0</ele><time>2026-04-25T09:25:49.388Z</time></trkpt><trkpt lat="43.7110383" lon="12.21166"><ele>625.2</ele><time>2026-04-25T09:25:50.389Z</time></trkpt><trkpt lat="43.710935" lon="12.21162"><ele>624.4000000000001</ele><time>2026-04-25T09:25:51.388Z</time></trkpt><trkpt lat="43.7108433" lon="12.211575"><ele>623.6</ele><time>2026-04-25T09:25:52.388Z</time></trkpt><trkpt lat="43.710735" lon="12.2115667"><ele>622.8000000000001</ele><time>2026-04-25T09:25:53.389Z</time></trkpt><trkpt lat="43.7106233" lon="12.2115867"><ele>622.0</ele><time>2026-04-25T09:25:54.388Z</time></trkpt><trkpt lat="43.71052" lon="12.211645"><ele>622.0</ele><time>2026-04-25T09:25:55.389Z</time></trkpt><trkpt lat="43.7104183" lon="12.2117133"><ele>622.0</ele><time>2026-04-25T09:25:56.389Z</time></trkpt><trkpt lat="43.7103167" lon="12.211785"><ele>622.0</ele><time>2026-04-25T09:25:57.388Z</time></trkpt><trkpt lat="43.7102267" lon="12.2118483"><ele>622.0</ele><time>2026-04-25T09:25:58.389Z</time></trkpt><trkpt lat="43.7101467" lon="12.2118967"><ele>622.0</ele><time>2026-04-25T09:25:59.389Z</time></trkpt><trkpt lat="43.7100633" lon="12.2119167"><ele>621.2</ele><time>2026-04-25T09:26:00.389Z</time></trkpt><trkpt lat="43.70998" lon="12.211895"><ele>620.4000000000001</ele><time>2026-04-25T09:26:01.389Z</time></trkpt><trkpt lat="43.7098983" lon="12.2118533"><ele>619.5999999999999</ele><time>2026-04-25T09:26:02.388Z</time></trkpt><trkpt lat="43.7098117" lon="12.2118033"><ele>618.8</ele><time>2026-04-25T09:26:03.388Z</time></trkpt><trkpt lat="43.7097383" lon="12.2117033"><ele>618.0</ele><time>2026-04-25T09:26:04.389Z</time></trkpt><trkpt lat="43.7096717" lon="12.21158"><ele>616.6</ele><time>2026-04-25T09:26:05.389Z</time></trkpt><trkpt lat="43.7096217" lon="12.211445"><ele>615.1999999999999</ele><time>2026-04-25T09:26:06.388Z</time></trkpt><trkpt lat="43.7095983" lon="12.2113067"><ele>613.8</ele><time>2026-04-25T09:26:07.388Z</time></trkpt><trkpt lat="43.7095883" lon="12.2111667"><ele>612.4</ele><time>2026-04-25T09:26:08.389Z</time></trkpt><trkpt lat="43.70958" lon="12.2110317"><ele>611.0</ele><time>2026-04-25T09:26:09.389Z</time></trkpt><trkpt lat="43.709565" lon="12.21091"><ele>611.0</ele><time>2026-04-25T09:26:10.388Z</time></trkpt><trkpt lat="43.709535" lon="12.2108"><ele>611.0</ele><time>2026-04-25T09:26:11.389Z</time></trkpt><trkpt lat="43.7094783" lon="12.2107117"><ele>611.0</ele><time>2026-04-25T09:26:12.388Z</time></trkpt><trkpt lat="43.7094017" lon="12.2106433"><ele>611.0</ele><time>2026-04-25T09:26:13.389Z</time></trkpt><trkpt lat="43.7093133" lon="12.2105833"><ele>611.0</ele><time>2026-04-25T09:26:14.389Z</time></trkpt><trkpt lat="43.7092183" lon="12.2105333"><ele>609.1666666666666</ele><time>2026-04-25T09:26:15.389Z</time></trkpt><trkpt lat="43.70914" lon="12.2104917"><ele>607.3333333333333</ele><time>2026-04-25T09:26:16.389Z</time></trkpt><trkpt lat="43.7090817" lon="12.2104233"><ele>605.5</ele><time>2026-04-25T09:26:17.389Z</time></trkpt><trkpt lat="43.7090383" lon="12.21034"><ele>603.6666666666666</ele><time>2026-04-25T09:26:18.389Z</time></trkpt><trkpt lat="43.7090183" lon="12.210235"><ele>601.8333333333334</ele><time>2026-04-25T09:26:19.388Z</time></trkpt><trkpt lat="43.7090117" lon="12.210105"><ele>600.0</ele><time>2026-04-25T09:26:20.388Z</time></trkpt><trkpt lat="43.709005" lon="12.2099683"><ele>598.0</ele><time>2026-04-25T09:26:21.389Z</time></trkpt><trkpt lat="43.708995" lon="12.2098217"><ele>596.0</ele><time>2026-04-25T09:26:22.388Z</time></trkpt><trkpt lat="43.7089967" lon="12.2096817"><ele>594.0</ele><time>2026-04-25T09:26:23.389Z</time></trkpt><trkpt lat="43.7089933" lon="12.2095533"><ele>592.0</ele><time>2026-04-25T09:26:24.389Z</time></trkpt><trkpt lat="43.70899" lon="12.2094367"><ele>590.0</ele><time>2026-04-25T09:26:25.388Z</time></trkpt><trkpt lat="43.708985" lon="12.2092833"><ele>590.0</ele><time>2026-04-25T09:26:27.388Z</time></trkpt><trkpt lat="43.708945" lon="12.2091083"><ele>590.0</ele><time>2026-04-25T09:26:29.389Z</time></trkpt><trkpt lat="43.7089183" lon="12.2089883"><ele>590.0</ele><time>2026-04-25T09:26:30.389Z</time></trkpt><trkpt lat="43.70891" lon="12.2088617"><ele>590.0</ele><time>2026-04-25T09:26:31.389Z</time></trkpt><trkpt lat="43.7089367" lon="12.20872"><ele>590.0</ele><time>2026-04-25T09:26:32.388Z</time></trkpt><trkpt lat="43.709" lon="12.2085767"><ele>588.25</ele><time>2026-04-25T09:26:33.388Z</time></trkpt><trkpt lat="43.7090833" lon="12.2084317"><ele>586.5</ele><time>2026-04-25T09:26:34.388Z</time></trkpt><trkpt lat="43.7091833" lon="12.2082833"><ele>584.75</ele><time>2026-04-25T09:26:35.389Z</time></trkpt><trkpt lat="43.7092867" lon="12.2081367"><ele>583.0</ele><time>2026-04-25T09:26:36.389Z</time></trkpt><trkpt lat="43.7093867" lon="12.2079983"><ele>582.75</ele><time>2026-04-25T09:26:37.389Z</time></trkpt><trkpt lat="43.7094817" lon="12.207855"><ele>582.5</ele><time>2026-04-25T09:26:38.388Z</time></trkpt><trkpt lat="43.7095633" lon="12.2077183"><ele>582.25</ele><time>2026-04-25T09:26:39.388Z</time></trkpt><trkpt lat="43.7096433" lon="12.2075933"><ele>582.0</ele><time>2026-04-25T09:26:40.389Z</time></trkpt><trkpt lat="43.7097233" lon="12.2074817"><ele>582.0</ele><time>2026-04-25T09:26:41.389Z</time></trkpt><trkpt lat="43.7097967" lon="12.2073633"><ele>582.0</ele><time>2026-04-25T09:26:42.388Z</time></trkpt><trkpt lat="43.7098717" lon="12.2072233"><ele>582.0</ele><time>2026-04-25T09:26:43.389Z</time></trkpt><trkpt lat="43.7099367" lon="12.20707"><ele>582.0</ele><time>2026-04-25T09:26:44.389Z</time></trkpt><trkpt lat="43.709995" lon="12.2069"><ele>580.5</ele><time>2026-04-25T09:26:45.389Z</time></trkpt><trkpt lat="43.7100483" lon="12.206735"><ele>579.0</ele><time>2026-04-25T09:26:46.388Z</time></trkpt><trkpt lat="43.7101017" lon="12.206575"><ele>577.5</ele><time>2026-04-25T09:26:47.388Z</time></trkpt><trkpt lat="43.71015" lon="12.2064183"><ele>576.0</ele><time>2026-04-25T09:26:48.389Z</time></trkpt><trkpt lat="43.7101917" lon="12.206275"><ele>574.6666666666666</ele><time>2026-04-25T09:26:49.388Z</time></trkpt><trkpt lat="43.710235" lon="12.2061617"><ele>573.3333333333334</ele><time>2026-04-25T09:26:50.389Z</time></trkpt><trkpt lat="43.71028" lon="12.2060633"><ele>572.0</ele><time>2026-04-25T09:26:51.388Z</time></trkpt><trkpt lat="43.7103333" lon="12.20599"><ele>570.6666666666667</ele><time>2026-04-25T09:26:52.389Z</time></trkpt><trkpt lat="43.7103983" lon="12.2059467"><ele>569.3333333333334</ele><time>2026-04-25T09:26:53.388Z</time></trkpt><trkpt lat="43.7104767" lon="12.2059333"><ele>568.0</ele><time>2026-04-25T09:26:54.389Z</time></trkpt><trkpt lat="43.7105533" lon="12.205935"><ele>568.0</ele><time>2026-04-25T09:26:55.389Z</time></trkpt><trkpt lat="43.7106633" lon="12.205925"><ele>568.0</ele><time>2026-04-25T09:26:57.389Z</time></trkpt><trkpt lat="43.71063" lon="12.2058183"><ele>568.0</ele><time>2026-04-25T09:27:00.389Z</time></trkpt><trkpt lat="43.71056" lon="12.2057667"><ele>568.0</ele><time>2026-04-25T09:27:01.388Z</time></trkpt><trkpt lat="43.71046" lon="12.205705"><ele>568.0</ele><time>2026-04-25T09:27:02.389Z</time></trkpt><trkpt lat="43.7103617" lon="12.2056317"><ele>566.1999999999999</ele><time>2026-04-25T09:27:03.389Z</time></trkpt><trkpt lat="43.710275" lon="12.20555"><ele>564.4</ele><time>2026-04-25T09:27:04.389Z</time></trkpt><trkpt lat="43.7101917" lon="12.2054583"><ele>562.5999999999999</ele><time>2026-04-25T09:27:05.389Z</time></trkpt><trkpt lat="43.7101183" lon="12.20533"><ele>560.8</ele><time>2026-04-25T09:27:06.388Z</time></trkpt><trkpt lat="43.710075" lon="12.2051817"><ele>559.0</ele><time>2026-04-25T09:27:07.388Z</time></trkpt><trkpt lat="43.71005" lon="12.205025"><ele>559.0</ele><time>2026-04-25T09:27:08.388Z</time></trkpt><trkpt lat="43.7100317" lon="12.204855"><ele>559.0</ele><time>2026-04-25T09:27:09.389Z</time></trkpt><trkpt lat="43.7100083" lon="12.204705"><ele>559.0</ele><time>2026-04-25T09:27:10.389Z</time></trkpt><trkpt lat="43.7099633" lon="12.2045667"><ele>559.0</ele><time>2026-04-25T09:27:11.388Z</time></trkpt><trkpt lat="43.7098933" lon="12.2044517"><ele>557.25</ele><time>2026-04-25T09:27:12.389Z</time></trkpt><trkpt lat="43.709785" lon="12.2043567"><ele>555.5</ele><time>2026-04-25T09:27:13.388Z</time></trkpt><trkpt lat="43.7096517" lon="12.2042967"><ele>553.75</ele><time>2026-04-25T09:27:14.388Z</time></trkpt><trkpt lat="43.7095067" lon="12.2042533"><ele>552.0</ele><time>2026-04-25T09:27:15.389Z</time></trkpt><trkpt lat="43.70936" lon="12.2042017"><ele>551.75</ele><time>2026-04-25T09:27:16.388Z</time></trkpt><trkpt lat="43.7092217" lon="12.2041483"><ele>551.5</ele><time>2026-04-25T09:27:17.389Z</time></trkpt><trkpt lat="43.7090833" lon="12.2040933"><ele>551.25</ele><time>2026-04-25T09:27:18.389Z</time></trkpt><trkpt lat="43.708935" lon="12.2040383"><ele>551.0</ele><time>2026-04-25T09:27:19.389Z</time></trkpt><trkpt lat="43.7088017" lon="12.20399"><ele>550.0</ele><time>2026-04-25T09:27:20.389Z</time></trkpt><trkpt lat="43.70867" lon="12.2039433"><ele>549.0</ele><time>2026-04-25T09:27:21.388Z</time></trkpt><trkpt lat="43.7085467" lon="12.2038967"><ele>548.0</ele><time>2026-04-25T09:27:22.388Z</time></trkpt><trkpt lat="43.7084333" lon="12.20385"><ele>547.0</ele><time>2026-04-25T09:27:23.389Z</time></trkpt><trkpt lat="43.70833" lon="12.2038"><ele>546.2</ele><time>2026-04-25T09:27:24.388Z</time></trkpt><trkpt lat="43.7082283" lon="12.2037633"><ele>545.4000000000001</ele><time>2026-04-25T09:27:25.388Z</time></trkpt><trkpt lat="43.7081317" lon="12.2037467"><ele>544.5999999999999</ele><time>2026-04-25T09:27:26.389Z</time></trkpt><trkpt lat="43.7080267" lon="12.20378"><ele>543.8</ele><time>2026-04-25T09:27:27.389Z</time></trkpt><trkpt lat="43.7079283" lon="12.2038583"><ele>543.0</ele><time>2026-04-25T09:27:28.389Z</time></trkpt><trkpt lat="43.7078417" lon="12.2039767"><ele>542.5</ele><time>2026-04-25T09:27:29.389Z</time></trkpt><trkpt lat="43.7077517" lon="12.2040933"><ele>542.0</ele><time>2026-04-25T09:27:30.389Z</time></trkpt><trkpt lat="43.7076517" lon="12.2041867"><ele>541.5</ele><time>2026-04-25T09:27:31.389Z</time></trkpt><trkpt lat="43.7075367" lon="12.2042233"><ele>541.0</ele><time>2026-04-25T09:27:32.388Z</time></trkpt><trkpt lat="43.707425" lon="12.204215"><ele>541.0</ele><time>2026-04-25T09:27:33.389Z</time></trkpt><trkpt lat="43.7073283" lon="12.2041967"><ele>541.0</ele><time>2026-04-25T09:27:34.388Z</time></trkpt><trkpt lat="43.7072533" lon="12.2041583"><ele>541.0</ele><time>2026-04-25T09:27:35.388Z</time></trkpt><trkpt lat="43.7072" lon="12.2040983"><ele>541.0</ele><time>2026-04-25T09:27:36.389Z</time></trkpt><trkpt lat="43.70717" lon="12.2040167"><ele>541.0</ele><time>2026-04-25T09:27:37.388Z</time></trkpt><trkpt lat="43.707185" lon="12.2039017"><ele>541.0</ele><time>2026-04-25T09:27:38.389Z</time></trkpt><trkpt lat="43.70721" lon="12.2037633"><ele>540.8</ele><time>2026-04-25T09:27:39.389Z</time></trkpt><trkpt lat="43.7072267" lon="12.2036317"><ele>540.6</ele><time>2026-04-25T09:27:40.389Z</time></trkpt><trkpt lat="43.70723" lon="12.2035133"><ele>540.4</ele><time>2026-04-25T09:27:41.389Z</time></trkpt><trkpt lat="43.7072167" lon="12.2034"><ele>540.2</ele><time>2026-04-25T09:27:42.389Z</time></trkpt><trkpt lat="43.707185" lon="12.2032867"><ele>540.0</ele><time>2026-04-25T09:27:43.389Z</time></trkpt><trkpt lat="43.707135" lon="12.2031633"><ele>539.5</ele><time>2026-04-25T09:27:44.388Z</time></trkpt><trkpt lat="43.70707" lon="12.2030417"><ele>539.0</ele><time>2026-04-25T09:27:45.388Z</time></trkpt><trkpt lat="43.7070067" lon="12.2029033"><ele>538.5</ele><time>2026-04-25T09:27:46.389Z</time></trkpt><trkpt lat="43.7069467" lon="12.202755"><ele>538.0</ele><time>2026-04-25T09:27:47.388Z</time></trkpt><trkpt lat="43.7068917" lon="12.20259"><ele>539.75</ele><time>2026-04-25T09:27:48.389Z</time></trkpt><trkpt lat="43.7068367" lon="12.202415"><ele>541.5</ele><time>2026-04-25T09:27:49.388Z</time></trkpt><trkpt lat="43.7067783" lon="12.2022317"><ele>543.25</ele><time>2026-04-25T09:27:50.389Z</time></trkpt><trkpt lat="43.7067133" lon="12.2020433"><ele>545.0</ele><time>2026-04-25T09:27:51.388Z</time></trkpt><trkpt lat="43.7066467" lon="12.20185"><ele>545.0</ele><time>2026-04-25T09:27:52.388Z</time></trkpt><trkpt lat="43.7065783" lon="12.201675"><ele>545.0</ele><time>2026-04-25T09:27:53.388Z</time></trkpt><trkpt lat="43.70652" lon="12.20151"><ele>545.0</ele><time>2026-04-25T09:27:54.389Z</time></trkpt><trkpt lat="43.7064717" lon="12.2013583"><ele>545.0</ele><time>2026-04-25T09:27:55.389Z</time></trkpt><trkpt lat="43.7064267" lon="12.2012133"><ele>543.75</ele><time>2026-04-25T09:27:56.388Z</time></trkpt><trkpt lat="43.7063733" lon="12.2010767"><ele>542.5</ele><time>2026-04-25T09:27:57.389Z</time></trkpt><trkpt lat="43.7063017" lon="12.200955"><ele>541.25</ele><time>2026-04-25T09:27:58.389Z</time></trkpt><trkpt lat="43.7062167" lon="12.2008467"><ele>540.0</ele><time>2026-04-25T09:27:59.388Z</time></trkpt><trkpt lat="43.7061033" lon="12.20076"><ele>541.75</ele><time>2026-04-25T09:28:00.389Z</time></trkpt><trkpt lat="43.70597" lon="12.2006917"><ele>543.5</ele><time>2026-04-25T09:28:01.389Z</time></trkpt><trkpt lat="43.7058367" lon="12.200615"><ele>545.25</ele><time>2026-04-25T09:28:02.388Z</time></trkpt><trkpt lat="43.705705" lon="12.2005233"><ele>547.0</ele><time>2026-04-25T09:28:03.389Z</time></trkpt><trkpt lat="43.7055833" lon="12.2004333"><ele>547.0</ele><time>2026-04-25T09:28:04.389Z</time></trkpt><trkpt lat="43.70546" lon="12.2003483"><ele>547.0</ele><time>2026-04-25T09:28:05.388Z</time></trkpt><trkpt lat="43.7053317" lon="12.200285"><ele>547.0</ele><time>2026-04-25T09:28:06.389Z</time></trkpt><trkpt lat="43.7052" lon="12.2002367"><ele>547.0</ele><time>2026-04-25T09:28:07.389Z</time></trkpt><trkpt lat="43.70508" lon="12.2001967"><ele>547.5</ele><time>2026-04-25T09:28:08.389Z</time></trkpt><trkpt lat="43.70497" lon="12.2001767"><ele>548.0</ele><time>2026-04-25T09:28:09.389Z</time></trkpt><trkpt lat="43.704865" lon="12.2001567"><ele>548.5</ele><time>2026-04-25T09:28:10.389Z</time></trkpt><trkpt lat="43.7047483" lon="12.2001267"><ele>549.0</ele><time>2026-04-25T09:28:11.388Z</time></trkpt><trkpt lat="43.70462" lon="12.2000983"><ele>549.0</ele><time>2026-04-25T09:28:12.388Z</time></trkpt><trkpt lat="43.7044783" lon="12.2000617"><ele>549.0</ele><time>2026-04-25T09:28:13.389Z</time></trkpt><trkpt lat="43.7043267" lon="12.2000267"><ele>549.0</ele><time>2026-04-25T09:28:14.388Z</time></trkpt><trkpt lat="43.70417" lon="12.2000067"><ele>551.0</ele><time>2026-04-25T09:28:15.388Z</time></trkpt><trkpt lat="43.7040117" lon="12.199975"><ele>553.0</ele><time>2026-04-25T09:28:16.389Z</time></trkpt><trkpt lat="43.70385" lon="12.19995"><ele>555.0</ele><time>2026-04-25T09:28:17.389Z</time></trkpt><trkpt lat="43.703695" lon="12.1999083"><ele>554.25</ele><time>2026-04-25T09:28:18.389Z</time></trkpt><trkpt lat="43.7035467" lon="12.199855"><ele>553.5</ele><time>2026-04-25T09:28:19.389Z</time></trkpt><trkpt lat="43.7034067" lon="12.199775"><ele>552.75</ele><time>2026-04-25T09:28:20.388Z</time></trkpt><trkpt lat="43.7032883" lon="12.1996683"><ele>552.0</ele><time>2026-04-25T09:28:21.389Z</time></trkpt><trkpt lat="43.7031633" lon="12.19956"><ele>552.0</ele><time>2026-04-25T09:28:22.389Z</time></trkpt><trkpt lat="43.7030433" lon="12.1994467"><ele>552.0</ele><time>2026-04-25T09:28:23.389Z</time></trkpt><trkpt lat="43.7029133" lon="12.1993383"><ele>552.0</ele><time>2026-04-25T09:28:24.389Z</time></trkpt><trkpt lat="43.7027883" lon="12.1992383"><ele>552.0</ele><time>2026-04-25T09:28:25.389Z</time></trkpt><trkpt lat="43.7026567" lon="12.1991433"><ele>551.5</ele><time>2026-04-25T09:28:26.389Z</time></trkpt><trkpt lat="43.702525" lon="12.1990417"><ele>551.0</ele><time>2026-04-25T09:28:27.389Z</time></trkpt><trkpt lat="43.7024067" lon="12.1989467"><ele>550.5</ele><time>2026-04-25T09:28:28.389Z</time></trkpt><trkpt lat="43.7022983" lon="12.1988683"><ele>550.0</ele><time>2026-04-25T09:28:29.388Z</time></trkpt><trkpt lat="43.7021783" lon="12.1987983"><ele>550.0</ele><time>2026-04-25T09:28:30.389Z</time></trkpt><trkpt lat="43.70205" lon="12.1987483"><ele>550.0</ele><time>2026-04-25T09:28:31.389Z</time></trkpt><trkpt lat="43.7019183" lon="12.1987067"><ele>550.0</ele><time>2026-04-25T09:28:32.389Z</time></trkpt><trkpt lat="43.7017767" lon="12.198655"><ele>550.0</ele><time>2026-04-25T09:28:33.388Z</time></trkpt><trkpt lat="43.7016317" lon="12.1986033"><ele>551.0</ele><time>2026-04-25T09:28:34.389Z</time></trkpt><trkpt lat="43.7014983" lon="12.19852"><ele>552.0</ele><time>2026-04-25T09:28:35.389Z</time></trkpt><trkpt lat="43.7013617" lon="12.1984483"><ele>553.0</ele><time>2026-04-25T09:28:36.389Z</time></trkpt><trkpt lat="43.70123" lon="12.198385"><ele>554.0</ele><time>2026-04-25T09:28:37.389Z</time></trkpt><trkpt lat="43.7010983" lon="12.1983317"><ele>554.3333333333333</ele><time>2026-04-25T09:28:38.388Z</time></trkpt><trkpt lat="43.7009533" lon="12.1982817"><ele>554.6666666666666</ele><time>2026-04-25T09:28:39.388Z</time></trkpt><trkpt lat="43.700805" lon="12.1982367"><ele>555.0</ele><time>2026-04-25T09:28:40.388Z</time></trkpt><trkpt lat="43.7006508" lon="12.1981931"><ele>553.3333333333334</ele><time>2026-04-25T09:28:41.389Z</time></trkpt><trkpt lat="43.7004939" lon="12.1981552"><ele>551.6666666666667</ele><time>2026-04-25T09:28:42.388Z</time></trkpt><trkpt lat="43.7003349" lon="12.1981084"><ele>550.0</ele><time>2026-04-25T09:28:43.389Z</time></trkpt><trkpt lat="43.7001781" lon="12.1980548"><ele>550.0</ele><time>2026-04-25T09:28:44.389Z</time></trkpt><trkpt lat="43.70002" lon="12.1979976"><ele>550.0</ele><time>2026-04-25T09:28:45.388Z</time></trkpt><trkpt lat="43.6998608" lon="12.1979303"><ele>550.0</ele><time>2026-04-25T09:28:46.389Z</time></trkpt><trkpt lat="43.6997076" lon="12.1978484"><ele>550.0</ele><time>2026-04-25T09:28:47.389Z</time></trkpt><trkpt lat="43.6995704" lon="12.1977445"><ele>550.0</ele><time>2026-04-25T09:28:48.388Z</time></trkpt><trkpt lat="43.6994419" lon="12.1976125"><ele>550.0</ele><time>2026-04-25T09:28:49.388Z</time></trkpt><trkpt lat="43.6993209" lon="12.1974604"><ele>550.0</ele><time>2026-04-25T09:28:50.388Z</time></trkpt><trkpt lat="43.6992053" lon="12.1972923"><ele>550.0</ele><time>2026-04-25T09:28:51.389Z</time></trkpt><trkpt lat="43.6990983" lon="12.1971107"><ele>550.0</ele><time>2026-04-25T09:28:52.389Z</time></trkpt><trkpt lat="43.6990048" lon="12.196913"><ele>550.0</ele><time>2026-04-25T09:28:53.389Z</time></trkpt><trkpt lat="43.6989215" lon="12.19671"><ele>550.0</ele><time>2026-04-25T09:28:54.388Z</time></trkpt><trkpt lat="43.6988436" lon="12.196512"><ele>550.0</ele><time>2026-04-25T09:28:55.389Z</time></trkpt><trkpt lat="43.6987762" lon="12.1963233"><ele>553.0</ele><time>2026-04-25T09:28:56.389Z</time></trkpt><trkpt lat="43.6987171" lon="12.1961326"><ele>556.0</ele><time>2026-04-25T09:28:57.389Z</time></trkpt><trkpt lat="43.6986752" lon="12.195932"><ele>559.0</ele><time>2026-04-25T09:28:58.389Z</time></trkpt><trkpt lat="43.6986578" lon="12.1957184"><ele>560.0</ele><time>2026-04-25T09:28:59.389Z</time></trkpt><trkpt lat="43.6986634" lon="12.1954906"><ele>561.0</ele><time>2026-04-25T09:29:00.389Z</time></trkpt><trkpt lat="43.6986849" lon="12.1952696"><ele>562.0</ele><time>2026-04-25T09:29:01.389Z</time></trkpt><trkpt lat="43.698704" lon="12.195054"><ele>562.0</ele><time>2026-04-25T09:29:02.388Z</time></trkpt><trkpt lat="43.6987162" lon="12.1948459"><ele>562.0</ele><time>2026-04-25T09:29:03.389Z</time></trkpt><trkpt lat="43.6987346" lon="12.1946396"><ele>562.0</ele><time>2026-04-25T09:29:04.389Z</time></trkpt><trkpt lat="43.6987599" lon="12.1944389"><ele>562.0</ele><time>2026-04-25T09:29:05.388Z</time></trkpt><trkpt lat="43.6987896" lon="12.1942517"><ele>561.25</ele><time>2026-04-25T09:29:06.389Z</time></trkpt><trkpt lat="43.6988158" lon="12.1940613"><ele>560.5</ele><time>2026-04-25T09:29:07.388Z</time></trkpt><trkpt lat="43.6988378" lon="12.1938745"><ele>559.75</ele><time>2026-04-25T09:29:08.388Z</time></trkpt><trkpt lat="43.6988458" lon="12.1936918"><ele>559.0</ele><time>2026-04-25T09:29:09.389Z</time></trkpt><trkpt lat="43.6988368" lon="12.1935086"><ele>559.0</ele><time>2026-04-25T09:29:10.388Z</time></trkpt><trkpt lat="43.6988041" lon="12.1933232"><ele>559.0</ele><time>2026-04-25T09:29:11.389Z</time></trkpt><trkpt lat="43.6987501" lon="12.1931437"><ele>559.0</ele><time>2026-04-25T09:29:12.389Z</time></trkpt><trkpt lat="43.6986808" lon="12.1929741"><ele>559.0</ele><time>2026-04-25T09:29:13.389Z</time></trkpt><trkpt lat="43.69859" lon="12.1928183"><ele>560.6</ele><time>2026-04-25T09:29:14.388Z</time></trkpt><trkpt lat="43.6984967" lon="12.1927083"><ele>562.2</ele><time>2026-04-25T09:29:15.389Z</time></trkpt><trkpt lat="43.6984283" lon="12.19264"><ele>563.8000000000001</ele><time>2026-04-25T09:29:16.389Z</time></trkpt><trkpt lat="43.6983633" lon="12.1925983"><ele>565.4</ele><time>2026-04-25T09:29:17.388Z</time></trkpt><trkpt lat="43.6982883" lon="12.1925533"><ele>567.0</ele><time>2026-04-25T09:29:19.389Z</time></trkpt><trkpt lat="43.69822" lon="12.1924617"><ele>567.0</ele><time>2026-04-25T09:29:45.389Z</time></trkpt><trkpt lat="43.6981733" lon="12.1923517"><ele>567.0</ele><time>2026-04-25T09:29:46.389Z</time></trkpt><trkpt lat="43.6981483" lon="12.1922167"><ele>567.0</ele><time>2026-04-25T09:29:47.389Z</time></trkpt><trkpt lat="43.698145" lon="12.1920333"><ele>567.0</ele><time>2026-04-25T09:29:48.389Z</time></trkpt><trkpt lat="43.6981667" lon="12.1918267"><ele>566.3333333333334</ele><time>2026-04-25T09:29:49.389Z</time></trkpt><trkpt lat="43.6982017" lon="12.191615"><ele>565.6666666666667</ele><time>2026-04-25T09:29:50.389Z</time></trkpt><trkpt lat="43.6982367" lon="12.1913983"><ele>565.0</ele><time>2026-04-25T09:29:51.389Z</time></trkpt><trkpt lat="43.698285" lon="12.1911683"><ele>564.3333333333334</ele><time>2026-04-25T09:29:52.388Z</time></trkpt><trkpt lat="43.69834" lon="12.1909417"><ele>563.6666666666666</ele><time>2026-04-25T09:29:53.389Z</time></trkpt><trkpt lat="43.6984017" lon="12.1907217"><ele>563.0</ele><time>2026-04-25T09:29:54.389Z</time></trkpt><trkpt lat="43.6984533" lon="12.1905183"><ele>564.0</ele><time>2026-04-25T09:29:55.388Z</time></trkpt><trkpt lat="43.6985017" lon="12.190345"><ele>565.0</ele><time>2026-04-25T09:29:56.389Z</time></trkpt><trkpt lat="43.698545" lon="12.190185"><ele>566.0</ele><time>2026-04-25T09:29:57.389Z</time></trkpt><trkpt lat="43.6985783" lon="12.1900133"><ele>567.0</ele><time>2026-04-25T09:29:58.389Z</time></trkpt><trkpt lat="43.6985983" lon="12.1898333"><ele>567.0</ele><time>2026-04-25T09:29:59.389Z</time></trkpt><trkpt lat="43.6985917" lon="12.18964"><ele>567.0</ele><time>2026-04-25T09:30:00.388Z</time></trkpt><trkpt lat="43.6985733" lon="12.18946"><ele>567.0</ele><time>2026-04-25T09:30:01.389Z</time></trkpt><trkpt lat="43.6985667" lon="12.18928"><ele>567.0</ele><time>2026-04-25T09:30:02.388Z</time></trkpt><trkpt lat="43.6985783" lon="12.1890967"><ele>567.25</ele><time>2026-04-25T09:30:03.388Z</time></trkpt><trkpt lat="43.698615" lon="12.1889167"><ele>567.5</ele><time>2026-04-25T09:30:04.388Z</time></trkpt><trkpt lat="43.6986633" lon="12.18874"><ele>567.75</ele><time>2026-04-25T09:30:05.388Z</time></trkpt><trkpt lat="43.6987183" lon="12.1885617"><ele>568.0</ele><time>2026-04-25T09:30:06.388Z</time></trkpt><trkpt lat="43.69879" lon="12.1883783"><ele>568.0</ele><time>2026-04-25T09:30:07.389Z</time></trkpt><trkpt lat="43.6988567" lon="12.1881917"><ele>568.0</ele><time>2026-04-25T09:30:08.389Z</time></trkpt><trkpt lat="43.6989433" lon="12.18801"><ele>568.0</ele><time>2026-04-25T09:30:09.388Z</time></trkpt><trkpt lat="43.6990333" lon="12.1878367"><ele>575.0</ele><time>2026-04-25T09:30:10.389Z</time></trkpt><trkpt lat="43.6991367" lon="12.1876783"><ele>582.0</ele><time>2026-04-25T09:30:11.389Z</time></trkpt><trkpt lat="43.6992417" lon="12.1875317"><ele>589.0</ele><time>2026-04-25T09:30:12.389Z</time></trkpt><trkpt lat="43.6993367" lon="12.1873767"><ele>588.0</ele><time>2026-04-25T09:30:13.388Z</time></trkpt><trkpt lat="43.6994167" lon="12.187205"><ele>587.0</ele><time>2026-04-25T09:30:14.388Z</time></trkpt><trkpt lat="43.6995183" lon="12.18706"><ele>586.0</ele><time>2026-04-25T09:30:15.389Z</time></trkpt><trkpt lat="43.699645" lon="12.1869383"><ele>585.0</ele><time>2026-04-25T09:30:16.389Z</time></trkpt><trkpt lat="43.6997883" lon="12.1868467"><ele>585.0</ele><time>2026-04-25T09:30:17.388Z</time></trkpt><trkpt lat="43.699945" lon="12.1867767"><ele>585.0</ele><time>2026-04-25T09:30:18.389Z</time></trkpt><trkpt lat="43.7000883" lon="12.1867033"><ele>585.0</ele><time>2026-04-25T09:30:19.388Z</time></trkpt><trkpt lat="43.7002133" lon="12.18664"><ele>582.75</ele><time>2026-04-25T09:30:20.389Z</time></trkpt><trkpt lat="43.7003317" lon="12.1865767"><ele>580.5</ele><time>2026-04-25T09:30:21.389Z</time></trkpt><trkpt lat="43.7004383" lon="12.1865167"><ele>578.25</ele><time>2026-04-25T09:30:22.389Z</time></trkpt><trkpt lat="43.70054" lon="12.1864533"><ele>576.0</ele><time>2026-04-25T09:30:23.388Z</time></trkpt><trkpt lat="43.7006335" lon="12.1863921"><ele>579.8</ele><time>2026-04-25T09:30:24.389Z</time></trkpt><trkpt lat="43.7007155" lon="12.1863366"><ele>583.6</ele><time>2026-04-25T09:30:25.389Z</time></trkpt><trkpt lat="43.7007814" lon="12.1862893"><ele>587.4</ele><time>2026-04-25T09:30:26.389Z</time></trkpt><trkpt lat="43.7008609" lon="12.1862156"><ele>591.2</ele><time>2026-04-25T09:30:28.388Z</time></trkpt><trkpt lat="43.7009084" lon="12.1861136"><ele>595.0</ele><time>2026-04-25T09:30:30.389Z</time></trkpt><trkpt lat="43.7009648" lon="12.1859567"><ele>595.0</ele><time>2026-04-25T09:30:32.389Z</time></trkpt><trkpt lat="43.700981" lon="12.1858614"><ele>595.0</ele><time>2026-04-25T09:30:33.388Z</time></trkpt><trkpt lat="43.7009781" lon="12.1857686"><ele>595.0</ele><time>2026-04-25T09:30:34.389Z</time></trkpt><trkpt lat="43.7009772" lon="12.1856079"><ele>595.0</ele><time>2026-04-25T09:30:36.388Z</time></trkpt><trkpt lat="43.7009851" lon="12.185515"><ele>595.0</ele><time>2026-04-25T09:30:38.388Z</time></trkpt><trkpt lat="43.7009583" lon="12.1856267"><ele>595.0</ele><time>2026-04-25T09:30:49.389Z</time></trkpt><trkpt lat="43.7009667" lon="12.1857233"><ele>595.0</ele><time>2026-04-25T09:30:50.388Z</time></trkpt><trkpt lat="43.7009733" lon="12.1858567"><ele>595.0</ele><time>2026-04-25T09:30:51.388Z</time></trkpt><trkpt lat="43.700955" lon="12.1859917"><ele>595.0</ele><time>2026-04-25T09:30:52.389Z</time></trkpt><trkpt lat="43.7009167" lon="12.186125"><ele>595.0</ele><time>2026-04-25T09:30:53.388Z</time></trkpt><trkpt lat="43.7008383" lon="12.1862433"><ele>595.0</ele><time>2026-04-25T09:30:54.389Z</time></trkpt><trkpt lat="43.7007367" lon="12.1863367"><ele>595.0</ele><time>2026-04-25T09:30:55.389Z</time></trkpt><trkpt lat="43.7006183" lon="12.1864117"><ele>595.0</ele><time>2026-04-25T09:30:56.388Z</time></trkpt><trkpt lat="43.7005067" lon="12.1864767"><ele>595.0</ele><time>2026-04-25T09:30:57.389Z</time></trkpt><trkpt lat="43.7004" lon="12.186535"><ele>595.0</ele><time>2026-04-25T09:30:58.388Z</time></trkpt><trkpt lat="43.7003133" lon="12.18659"><ele>593.0</ele><time>2026-04-25T09:30:59.389Z</time></trkpt><trkpt lat="43.7002433" lon="12.186635"><ele>591.0</ele><time>2026-04-25T09:31:00.389Z</time></trkpt><trkpt lat="43.7001817" lon="12.186715"><ele>589.0</ele><time>2026-04-25T09:31:02.388Z</time></trkpt><trkpt lat="43.70029" lon="12.1867667"><ele>587.0</ele><time>2026-04-25T09:31:05.389Z</time></trkpt><trkpt lat="43.70038" lon="12.1867467"><ele>585.0</ele><time>2026-04-25T09:31:06.389Z</time></trkpt><trkpt lat="43.70049" lon="12.1867033"><ele>582.75</ele><time>2026-04-25T09:31:07.389Z</time></trkpt><trkpt lat="43.7006217" lon="12.186675"><ele>580.5</ele><time>2026-04-25T09:31:08.389Z</time></trkpt><trkpt lat="43.7007617" lon="12.1866433"><ele>578.25</ele><time>2026-04-25T09:31:09.389Z</time></trkpt><trkpt lat="43.7009083" lon="12.1866117"><ele>576.0</ele><time>2026-04-25T09:31:10.388Z</time></trkpt><trkpt lat="43.7010417" lon="12.1865933"><ele>580.75</ele><time>2026-04-25T09:31:11.388Z</time></trkpt><trkpt lat="43.7011633" lon="12.1865767"><ele>585.5</ele><time>2026-04-25T09:31:12.389Z</time></trkpt><trkpt lat="43.7012683" lon="12.1865517"><ele>590.25</ele><time>2026-04-25T09:31:13.389Z</time></trkpt><trkpt lat="43.7013717" lon="12.18649"><ele>595.0</ele><time>2026-04-25T09:31:14.389Z</time></trkpt><trkpt lat="43.7014517" lon="12.1863633"><ele>595.0</ele><time>2026-04-25T09:31:15.389Z</time></trkpt><trkpt lat="43.701505" lon="12.1861833"><ele>595.0</ele><time>2026-04-25T09:31:16.388Z</time></trkpt><trkpt lat="43.7015367" lon="12.18598"><ele>595.0</ele><time>2026-04-25T09:31:17.389Z</time></trkpt><trkpt lat="43.70156" lon="12.1857717"><ele>595.0</ele><time>2026-04-25T09:31:18.389Z</time></trkpt><trkpt lat="43.7016" lon="12.1855667"><ele>593.0</ele><time>2026-04-25T09:31:19.389Z</time></trkpt><trkpt lat="43.7016483" lon="12.18536"><ele>591.0</ele><time>2026-04-25T09:31:20.389Z</time></trkpt><trkpt lat="43.7017117" lon="12.1851717"><ele>589.0</ele><time>2026-04-25T09:31:21.388Z</time></trkpt><trkpt lat="43.70178" lon="12.1850083"><ele>587.0</ele><time>2026-04-25T09:31:22.388Z</time></trkpt><trkpt lat="43.701855" lon="12.184845"><ele>592.5</ele><time>2026-04-25T09:31:23.389Z</time></trkpt><trkpt lat="43.7019367" lon="12.184695"><ele>598.0</ele><time>2026-04-25T09:31:24.388Z</time></trkpt><trkpt lat="43.7020383" lon="12.18457"><ele>603.5</ele><time>2026-04-25T09:31:25.388Z</time></trkpt><trkpt lat="43.7021417" lon="12.18445"><ele>609.0</ele><time>2026-04-25T09:31:26.388Z</time></trkpt><trkpt lat="43.7022617" lon="12.1843333"><ele>609.0</ele><time>2026-04-25T09:31:27.388Z</time></trkpt><trkpt lat="43.7023933" lon="12.184215"><ele>609.0</ele><time>2026-04-25T09:31:28.388Z</time></trkpt><trkpt lat="43.702505" lon="12.1840667"><ele>609.0</ele><time>2026-04-25T09:31:29.389Z</time></trkpt><trkpt lat="43.7026067" lon="12.1839133"><ele>605.75</ele><time>2026-04-25T09:31:30.388Z</time></trkpt><trkpt lat="43.70269" lon="12.1837367"><ele>602.5</ele><time>2026-04-25T09:31:31.389Z</time></trkpt><trkpt lat="43.7027517" lon="12.18355"><ele>599.25</ele><time>2026-04-25T09:31:32.388Z</time></trkpt><trkpt lat="43.7027867" lon="12.18336"><ele>596.0</ele><time>2026-04-25T09:31:33.389Z</time></trkpt><trkpt lat="43.7028417" lon="12.1831933"><ele>599.75</ele><time>2026-04-25T09:31:34.389Z</time></trkpt><trkpt lat="43.7029183" lon="12.1830433"><ele>603.5</ele><time>2026-04-25T09:31:35.389Z</time></trkpt><trkpt lat="43.7030233" lon="12.1829217"><ele>607.25</ele><time>2026-04-25T09:31:36.389Z</time></trkpt><trkpt lat="43.703145" lon="12.1828483"><ele>611.0</ele><time>2026-04-25T09:31:37.389Z</time></trkpt><trkpt lat="43.7032767" lon="12.1827983"><ele>611.0</ele><time>2026-04-25T09:31:38.389Z</time></trkpt><trkpt lat="43.7033983" lon="12.1827617"><ele>611.0</ele><time>2026-04-25T09:31:39.388Z</time></trkpt><trkpt lat="43.703515" lon="12.18272"><ele>611.0</ele><time>2026-04-25T09:31:40.389Z</time></trkpt><trkpt lat="43.7036233" lon="12.1826583"><ele>611.0</ele><time>2026-04-25T09:31:41.388Z</time></trkpt><trkpt lat="43.7037333" lon="12.18258"><ele>613.25</ele><time>2026-04-25T09:31:42.388Z</time></trkpt><trkpt lat="43.7038533" lon="12.1825117"><ele>615.5</ele><time>2026-04-25T09:31:43.388Z</time></trkpt><trkpt lat="43.7039783" lon="12.1824417"><ele>617.75</ele><time>2026-04-25T09:31:44.389Z</time></trkpt><trkpt lat="43.7041033" lon="12.1823517"><ele>620.0</ele><time>2026-04-25T09:31:45.388Z</time></trkpt><trkpt lat="43.704235" lon="12.1822583"><ele>620.0</ele><time>2026-04-25T09:31:46.388Z</time></trkpt><trkpt lat="43.7043767" lon="12.1821817"><ele>620.0</ele><time>2026-04-25T09:31:47.388Z</time></trkpt><trkpt lat="43.7045267" lon="12.1821"><ele>620.0</ele><time>2026-04-25T09:31:48.389Z</time></trkpt><trkpt lat="43.7046733" lon="12.18201"><ele>625.3333333333333</ele><time>2026-04-25T09:31:49.389Z</time></trkpt><trkpt lat="43.70482" lon="12.181925"><ele>630.6666666666666</ele><time>2026-04-25T09:31:50.388Z</time></trkpt><trkpt lat="43.70498" lon="12.1818233"><ele>636.0</ele><time>2026-04-25T09:31:51.389Z</time></trkpt><trkpt lat="43.7051283" lon="12.1817333"><ele>637.3333333333334</ele><time>2026-04-25T09:31:52.388Z</time></trkpt><trkpt lat="43.705265" lon="12.1816517"><ele>638.6666666666667</ele><time>2026-04-25T09:31:53.389Z</time></trkpt><trkpt lat="43.705405" lon="12.181565"><ele>640.0</ele><time>2026-04-25T09:31:54.389Z</time></trkpt><trkpt lat="43.7055467" lon="12.1814817"><ele>640.0</ele><time>2026-04-25T09:31:55.389Z</time></trkpt><trkpt lat="43.7056867" lon="12.181405"><ele>640.0</ele><time>2026-04-25T09:31:56.389Z</time></trkpt><trkpt lat="43.70583" lon="12.1813283"><ele>640.0</ele><time>2026-04-25T09:31:57.389Z</time></trkpt><trkpt lat="43.7059683" lon="12.1812433"><ele>643.3333333333334</ele><time>2026-04-25T09:31:58.388Z</time></trkpt><trkpt lat="43.7061117" lon="12.1811517"><ele>646.6666666666666</ele><time>2026-04-25T09:31:59.389Z</time></trkpt><trkpt lat="43.7062417" lon="12.1810483"><ele>650.0</ele><time>2026-04-25T09:32:00.388Z</time></trkpt><trkpt lat="43.7063583" lon="12.1809283"><ele>650.0</ele><time>2026-04-25T09:32:01.388Z</time></trkpt><trkpt lat="43.7064717" lon="12.1807883"><ele>650.0</ele><time>2026-04-25T09:32:02.389Z</time></trkpt><trkpt lat="43.7065867" lon="12.18064"><ele>650.0</ele><time>2026-04-25T09:32:03.389Z</time></trkpt><trkpt lat="43.7067" lon="12.1804983"><ele>650.3333333333333</ele><time>2026-04-25T09:32:04.389Z</time></trkpt><trkpt lat="43.7068167" lon="12.18035"><ele>650.6666666666666</ele><time>2026-04-25T09:32:05.388Z</time></trkpt><trkpt lat="43.7069267" lon="12.18021"><ele>651.0</ele><time>2026-04-25T09:32:06.388Z</time></trkpt><trkpt lat="43.7070367" lon="12.1800667"><ele>653.5</ele><time>2026-04-25T09:32:07.388Z</time></trkpt><trkpt lat="43.70714" lon="12.17993"><ele>656.0</ele><time>2026-04-25T09:32:08.389Z</time></trkpt><trkpt lat="43.7072383" lon="12.17981"><ele>658.5</ele><time>2026-04-25T09:32:09.388Z</time></trkpt><trkpt lat="43.7073317" lon="12.1797283"><ele>661.0</ele><time>2026-04-25T09:32:10.388Z</time></trkpt><trkpt lat="43.7074217" lon="12.1797017"><ele>661.0</ele><time>2026-04-25T09:32:11.389Z</time></trkpt><trkpt lat="43.707515" lon="12.1797317"><ele>661.0</ele><time>2026-04-25T09:32:12.389Z</time></trkpt><trkpt lat="43.7075917" lon="12.1798067"><ele>661.0</ele><time>2026-04-25T09:32:13.388Z</time></trkpt><trkpt lat="43.707655" lon="12.1799117"><ele>661.0</ele><time>2026-04-25T09:32:14.389Z</time></trkpt><trkpt lat="43.70772" lon="12.1800283"><ele>661.0</ele><time>2026-04-25T09:32:15.389Z</time></trkpt><trkpt lat="43.7077833" lon="12.1801633"><ele>663.5</ele><time>2026-04-25T09:32:16.389Z</time></trkpt><trkpt lat="43.7078517" lon="12.1803117"><ele>666.0</ele><time>2026-04-25T09:32:17.388Z</time></trkpt><trkpt lat="43.707925" lon="12.18048"><ele>668.5</ele><time>2026-04-25T09:32:18.388Z</time></trkpt><trkpt lat="43.7079967" lon="12.1806517"><ele>671.0</ele><time>2026-04-25T09:32:19.389Z</time></trkpt><trkpt lat="43.7080767" lon="12.18082"><ele>671.5</ele><time>2026-04-25T09:32:20.388Z</time></trkpt><trkpt lat="43.70816" lon="12.1809883"><ele>672.0</ele><time>2026-04-25T09:32:21.389Z</time></trkpt><trkpt lat="43.7082433" lon="12.1811483"><ele>672.5</ele><time>2026-04-25T09:32:22.389Z</time></trkpt><trkpt lat="43.7083183" lon="12.1813133"><ele>673.0</ele><time>2026-04-25T09:32:23.388Z</time></trkpt><trkpt lat="43.708395" lon="12.1814833"><ele>673.5</ele><time>2026-04-25T09:32:24.389Z</time></trkpt><trkpt lat="43.7084667" lon="12.18165"><ele>674.0</ele><time>2026-04-25T09:32:25.388Z</time></trkpt><trkpt lat="43.7085417" lon="12.1818067"><ele>674.5</ele><time>2026-04-25T09:32:26.388Z</time></trkpt><trkpt lat="43.708625" lon="12.1819667"><ele>675.0</ele><time>2026-04-25T09:32:27.389Z</time></trkpt><trkpt lat="43.7087083" lon="12.18213"><ele>679.5</ele><time>2026-04-25T09:32:28.388Z</time></trkpt><trkpt lat="43.70878" lon="12.1823"><ele>684.0</ele><time>2026-04-25T09:32:29.389Z</time></trkpt><trkpt lat="43.70883" lon="12.182455"><ele>688.5</ele><time>2026-04-25T09:32:30.389Z</time></trkpt><trkpt lat="43.7088483" lon="12.1826233"><ele>693.0</ele><time>2026-04-25T09:32:31.389Z</time></trkpt><trkpt lat="43.7088317" lon="12.1827933"><ele>693.0</ele><time>2026-04-25T09:32:32.389Z</time></trkpt><trkpt lat="43.70878" lon="12.1829633"><ele>693.0</ele><time>2026-04-25T09:32:33.388Z</time></trkpt><trkpt lat="43.7087117" lon="12.1831383"><ele>693.0</ele><time>2026-04-25T09:32:34.388Z</time></trkpt><trkpt lat="43.7086417" lon="12.183305"><ele>693.0</ele><time>2026-04-25T09:32:35.389Z</time></trkpt><trkpt lat="43.7085783" lon="12.18347"><ele>692.8</ele><time>2026-04-25T09:32:36.388Z</time></trkpt><trkpt lat="43.7085167" lon="12.1836183"><ele>692.5999999999999</ele><time>2026-04-25T09:32:37.389Z</time></trkpt><trkpt lat="43.7084633" lon="12.18376"><ele>692.4000000000001</ele><time>2026-04-25T09:32:38.389Z</time></trkpt><trkpt lat="43.7084317" lon="12.183895"><ele>692.2</ele><time>2026-04-25T09:32:39.389Z</time></trkpt><trkpt lat="43.7084333" lon="12.184025"><ele>692.0</ele><time>2026-04-25T09:32:40.389Z</time></trkpt><trkpt lat="43.7084533" lon="12.184155"><ele>692.0</ele><time>2026-04-25T09:32:41.389Z</time></trkpt><trkpt lat="43.7084858" lon="12.1842825"><ele>692.0</ele><time>2026-04-25T09:32:42.389Z</time></trkpt><trkpt lat="43.708526" lon="12.1843999"><ele>692.0</ele><time>2026-04-25T09:32:43.389Z</time></trkpt><trkpt lat="43.7085645" lon="12.1845185"><ele>692.0</ele><time>2026-04-25T09:32:44.388Z</time></trkpt><trkpt lat="43.7085987" lon="12.1846196"><ele>692.0</ele><time>2026-04-25T09:32:45.388Z</time></trkpt><trkpt lat="43.7086186" lon="12.1847047"><ele>692.0</ele><time>2026-04-25T09:32:46.388Z</time></trkpt><trkpt lat="43.7086511" lon="12.1848328"><ele>693.0</ele><time>2026-04-25T09:32:48.388Z</time></trkpt><trkpt lat="43.7087409" lon="12.1849192"><ele>694.0</ele><time>2026-04-25T09:32:50.388Z</time></trkpt><trkpt lat="43.7088008" lon="12.1849472"><ele>695.0</ele><time>2026-04-25T09:32:51.388Z</time></trkpt><trkpt lat="43.7089066" lon="12.1850037"><ele>696.0</ele><time>2026-04-25T09:32:53.389Z</time></trkpt><trkpt lat="43.7089745" lon="12.1850763"><ele>697.0</ele><time>2026-04-25T09:32:55.389Z</time></trkpt><trkpt lat="43.7090262" lon="12.1851301"><ele>698.0</ele><time>2026-04-25T09:32:58.388Z</time></trkpt><trkpt lat="43.7089941" lon="12.1852285"><ele>698.0</ele><time>2026-04-25T09:33:07.389Z</time></trkpt><trkpt lat="43.7088898" lon="12.1852562"><ele>698.0</ele><time>2026-04-25T09:33:09.389Z</time></trkpt><trkpt lat="43.7088099" lon="12.18524"><ele>698.0</ele><time>2026-04-25T09:33:10.389Z</time></trkpt><trkpt lat="43.7087117" lon="12.1851857"><ele>698.0</ele><time>2026-04-25T09:33:11.388Z</time></trkpt><trkpt lat="43.7085917" lon="12.1851033"><ele>698.0</ele><time>2026-04-25T09:33:12.388Z</time></trkpt><trkpt lat="43.7084867" lon="12.185045"><ele>698.6666666666666</ele><time>2026-04-25T09:33:13.388Z</time></trkpt><trkpt lat="43.7083967" lon="12.1849983"><ele>699.3333333333333</ele><time>2026-04-25T09:33:14.389Z</time></trkpt><trkpt lat="43.7083133" lon="12.1849583"><ele>700.0</ele><time>2026-04-25T09:33:15.389Z</time></trkpt><trkpt lat="43.70826" lon="12.184905"><ele>700.6666666666666</ele><time>2026-04-25T09:33:16.388Z</time></trkpt><trkpt lat="43.7081817" lon="12.1847883"><ele>701.3333333333334</ele><time>2026-04-25T09:33:18.388Z</time></trkpt><trkpt lat="43.7081717" lon="12.18468"><ele>702.0</ele><time>2026-04-25T09:33:19.389Z</time></trkpt><trkpt lat="43.7081667" lon="12.1845667"><ele>700.0</ele><time>2026-04-25T09:33:20.388Z</time></trkpt><trkpt lat="43.7081567" lon="12.1844633"><ele>698.0</ele><time>2026-04-25T09:33:21.389Z</time></trkpt><trkpt lat="43.7081133" lon="12.1843617"><ele>696.0</ele><time>2026-04-25T09:33:23.388Z</time></trkpt><trkpt lat="43.7079617" lon="12.1842833"><ele>694.0</ele><time>2026-04-25T09:33:25.388Z</time></trkpt><trkpt lat="43.7078383" lon="12.1842567"><ele>692.0</ele><time>2026-04-25T09:33:26.388Z</time></trkpt><trkpt lat="43.7076967" lon="12.184245"><ele>691.6666666666666</ele><time>2026-04-25T09:33:27.388Z</time></trkpt><trkpt lat="43.7075467" lon="12.1842367"><ele>691.3333333333334</ele><time>2026-04-25T09:33:28.388Z</time></trkpt><trkpt lat="43.70739" lon="12.1842283"><ele>691.0</ele><time>2026-04-25T09:33:29.389Z</time></trkpt><trkpt lat="43.7072383" lon="12.1842217"><ele>691.0</ele><time>2026-04-25T09:33:30.389Z</time></trkpt><trkpt lat="43.707095" lon="12.1842317"><ele>691.0</ele><time>2026-04-25T09:33:31.389Z</time></trkpt><trkpt lat="43.7069583" lon="12.184275"><ele>691.0</ele><time>2026-04-25T09:33:32.388Z</time></trkpt><trkpt lat="43.7068133" lon="12.1843483"><ele>691.0</ele><time>2026-04-25T09:33:33.389Z</time></trkpt><trkpt lat="43.706675" lon="12.184455"><ele>691.6666666666667</ele><time>2026-04-25T09:33:34.389Z</time></trkpt><trkpt lat="43.7065417" lon="12.1845917"><ele>692.3333333333334</ele><time>2026-04-25T09:33:35.389Z</time></trkpt><trkpt lat="43.706425" lon="12.1847533"><ele>693.0</ele><time>2026-04-25T09:33:36.389Z</time></trkpt><trkpt lat="43.70632" lon="12.1849233"><ele>692.6666666666666</ele><time>2026-04-25T09:33:37.389Z</time></trkpt><trkpt lat="43.7061983" lon="12.1850767"><ele>692.3333333333333</ele><time>2026-04-25T09:33:38.389Z</time></trkpt><trkpt lat="43.7060867" lon="12.18524"><ele>692.0</ele><time>2026-04-25T09:33:39.389Z</time></trkpt><trkpt lat="43.705965" lon="12.1854017"><ele>692.0</ele><time>2026-04-25T09:33:40.389Z</time></trkpt><trkpt lat="43.7058333" lon="12.1855583"><ele>692.0</ele><time>2026-04-25T09:33:41.388Z</time></trkpt><trkpt lat="43.705705" lon="12.1857217"><ele>692.0</ele><time>2026-04-25T09:33:42.388Z</time></trkpt><trkpt lat="43.7055883" lon="12.1858917"><ele>690.0</ele><time>2026-04-25T09:33:43.388Z</time></trkpt><trkpt lat="43.7054633" lon="12.1860583"><ele>688.0</ele><time>2026-04-25T09:33:44.388Z</time></trkpt><trkpt lat="43.70534" lon="12.1862283"><ele>686.0</ele><time>2026-04-25T09:33:45.389Z</time></trkpt><trkpt lat="43.7052133" lon="12.1863917"><ele>688.0</ele><time>2026-04-25T09:33:46.389Z</time></trkpt><trkpt lat="43.7050933" lon="12.1865583"><ele>690.0</ele><time>2026-04-25T09:33:47.389Z</time></trkpt><trkpt lat="43.7049717" lon="12.18671"><ele>692.0</ele><time>2026-04-25T09:33:48.389Z</time></trkpt><trkpt lat="43.7048483" lon="12.1868383"><ele>692.0</ele><time>2026-04-25T09:33:49.388Z</time></trkpt><trkpt lat="43.7047383" lon="12.18695"><ele>692.0</ele><time>2026-04-25T09:33:50.388Z</time></trkpt><trkpt lat="43.704655" lon="12.18705"><ele>692.0</ele><time>2026-04-25T09:33:51.389Z</time></trkpt><trkpt lat="43.70458" lon="12.1871417"><ele>692.0</ele><time>2026-04-25T09:33:52.388Z</time></trkpt><trkpt lat="43.7045033" lon="12.1872217"><ele>692.0</ele><time>2026-04-25T09:33:53.389Z</time></trkpt><trkpt lat="43.70443" lon="12.187285"><ele>692.0</ele><time>2026-04-25T09:33:54.388Z</time></trkpt><trkpt lat="43.7043533" lon="12.187325"><ele>692.0</ele><time>2026-04-25T09:33:55.389Z</time></trkpt><trkpt lat="43.70428" lon="12.1873333"><ele>692.0</ele><time>2026-04-25T09:33:56.389Z</time></trkpt><trkpt lat="43.70418" lon="12.18731"><ele>692.0</ele><time>2026-04-25T09:33:58.388Z</time></trkpt><trkpt lat="43.704115" lon="12.187275"><ele>692.0</ele><time>2026-04-25T09:34:00.388Z</time></trkpt><trkpt lat="43.7040467" lon="12.187345"><ele>692.0</ele><time>2026-04-25T09:39:49.388Z</time></trkpt><trkpt lat="43.7040117" lon="12.1874367"><ele>692.0</ele><time>2026-04-25T09:39:53.387Z</time></trkpt><trkpt lat="43.704045" lon="12.187515"><ele>692.0</ele><time>2026-04-25T09:39:57.387Z</time></trkpt><trkpt lat="43.70409" lon="12.1876"><ele>692.0</ele><time>2026-04-25T09:40:05.387Z</time></trkpt><trkpt lat="43.7041883" lon="12.18758"><ele>692.0</ele><time>2026-04-25T09:40:07.388Z</time></trkpt><trkpt lat="43.7042667" lon="12.187525"><ele>692.0</ele><time>2026-04-25T09:40:08.388Z</time></trkpt><trkpt lat="43.7043533" lon="12.1874417"><ele>692.0</ele><time>2026-04-25T09:40:09.387Z</time></trkpt><trkpt lat="43.7044467" lon="12.1873367"><ele>692.0</ele><time>2026-04-25T09:40:10.387Z</time></trkpt><trkpt lat="43.70455" lon="12.187225"><ele>692.0</ele><time>2026-04-25T09:40:11.388Z</time></trkpt><trkpt lat="43.704655" lon="12.1871133"><ele>692.0</ele><time>2026-04-25T09:40:12.387Z</time></trkpt><trkpt lat="43.7047683" lon="12.187"><ele>692.0</ele><time>2026-04-25T09:40:13.388Z</time></trkpt><trkpt lat="43.7048833" lon="12.186885"><ele>692.0</ele><time>2026-04-25T09:40:14.388Z</time></trkpt><trkpt lat="43.7050033" lon="12.1867617"><ele>692.0</ele><time>2026-04-25T09:40:15.388Z</time></trkpt><trkpt lat="43.7051183" lon="12.1866333"><ele>692.0</ele><time>2026-04-25T09:40:16.388Z</time></trkpt><trkpt lat="43.7052317" lon="12.1864933"><ele>692.0</ele><time>2026-04-25T09:40:17.388Z</time></trkpt><trkpt lat="43.7053433" lon="12.1863433"><ele>694.3333333333333</ele><time>2026-04-25T09:40:18.387Z</time></trkpt><trkpt lat="43.705445" lon="12.18619"><ele>696.6666666666666</ele><time>2026-04-25T09:40:19.388Z</time></trkpt><trkpt lat="43.7055517" lon="12.186045"><ele>699.0</ele><time>2026-04-25T09:40:20.388Z</time></trkpt><trkpt lat="43.70566" lon="12.1858983"><ele>699.0</ele><time>2026-04-25T09:40:21.387Z</time></trkpt><trkpt lat="43.7057667" lon="12.185755"><ele>699.0</ele><time>2026-04-25T09:40:22.387Z</time></trkpt><trkpt lat="43.7058767" lon="12.1856183"><ele>699.0</ele><time>2026-04-25T09:40:23.388Z</time></trkpt><trkpt lat="43.7059833" lon="12.185475"><ele>699.0</ele><time>2026-04-25T09:40:24.388Z</time></trkpt><trkpt lat="43.706085" lon="12.18533"><ele>699.0</ele><time>2026-04-25T09:40:25.388Z</time></trkpt><trkpt lat="43.7061833" lon="12.185175"><ele>699.0</ele><time>2026-04-25T09:40:26.387Z</time></trkpt><trkpt lat="43.706285" lon="12.1850367"><ele>699.0</ele><time>2026-04-25T09:40:27.387Z</time></trkpt><trkpt lat="43.70638" lon="12.1849"><ele>699.0</ele><time>2026-04-25T09:40:28.387Z</time></trkpt><trkpt lat="43.7064817" lon="12.1847667"><ele>697.5</ele><time>2026-04-25T09:40:29.388Z</time></trkpt><trkpt lat="43.7065833" lon="12.1846383"><ele>696.0</ele><time>2026-04-25T09:40:30.388Z</time></trkpt><trkpt lat="43.706675" lon="12.1845183"><ele>694.5</ele><time>2026-04-25T09:40:31.387Z</time></trkpt><trkpt lat="43.7067667" lon="12.18442"><ele>693.0</ele><time>2026-04-25T09:40:32.387Z</time></trkpt><trkpt lat="43.70686" lon="12.1843467"><ele>692.5</ele><time>2026-04-25T09:40:33.387Z</time></trkpt><trkpt lat="43.706965" lon="12.1842917"><ele>692.0</ele><time>2026-04-25T09:40:34.387Z</time></trkpt><trkpt lat="43.7070883" lon="12.1842467"><ele>691.5</ele><time>2026-04-25T09:40:35.388Z</time></trkpt><trkpt lat="43.7072267" lon="12.184235"><ele>691.0</ele><time>2026-04-25T09:40:36.388Z</time></trkpt><trkpt lat="43.7073617" lon="12.18424"><ele>691.0</ele><time>2026-04-25T09:40:37.387Z</time></trkpt><trkpt lat="43.7074883" lon="12.1842583"><ele>691.0</ele><time>2026-04-25T09:40:38.387Z</time></trkpt><trkpt lat="43.7076067" lon="12.1842683"><ele>691.0</ele><time>2026-04-25T09:40:39.388Z</time></trkpt><trkpt lat="43.7077217" lon="12.1842817"><ele>691.0</ele><time>2026-04-25T09:40:40.388Z</time></trkpt><trkpt lat="43.7078133" lon="12.1842933"><ele>691.1666666666667</ele><time>2026-04-25T09:40:41.388Z</time></trkpt><trkpt lat="43.7078933" lon="12.1843083"><ele>691.3333333333334</ele><time>2026-04-25T09:40:42.388Z</time></trkpt><trkpt lat="43.7079583" lon="12.1843133"><ele>691.5</ele><time>2026-04-25T09:40:43.388Z</time></trkpt><trkpt lat="43.70805" lon="12.18433"><ele>691.6666666666666</ele><time>2026-04-25T09:40:45.388Z</time></trkpt><trkpt lat="43.70807" lon="12.1844667"><ele>691.8333333333333</ele><time>2026-04-25T09:40:48.388Z</time></trkpt><trkpt lat="43.70805" lon="12.1845533"><ele>692.0</ele><time>2026-04-25T09:40:49.387Z</time></trkpt><trkpt lat="43.7080283" lon="12.1846467"><ele>692.0</ele><time>2026-04-25T09:40:50.388Z</time></trkpt><trkpt lat="43.7080167" lon="12.1847333"><ele>692.0</ele><time>2026-04-25T09:40:51.387Z</time></trkpt><trkpt lat="43.70802" lon="12.1848483"><ele>692.0</ele><time>2026-04-25T09:40:53.387Z</time></trkpt><trkpt lat="43.7080667" lon="12.184935"><ele>692.0</ele><time>2026-04-25T09:40:55.387Z</time></trkpt><trkpt lat="43.708135" lon="12.1849633"><ele>692.0</ele><time>2026-04-25T09:40:56.388Z</time></trkpt><trkpt lat="43.708235" lon="12.1849817"><ele>692.0</ele><time>2026-04-25T09:40:57.387Z</time></trkpt><trkpt lat="43.7083467" lon="12.1850117"><ele>693.2</ele><time>2026-04-25T09:40:58.387Z</time></trkpt><trkpt lat="43.7084533" lon="12.1850617"><ele>694.4000000000001</ele><time>2026-04-25T09:40:59.387Z</time></trkpt><trkpt lat="43.7085567" lon="12.1851217"><ele>695.5999999999999</ele><time>2026-04-25T09:41:00.387Z</time></trkpt><trkpt lat="43.7086417" lon="12.1851733"><ele>696.8</ele><time>2026-04-25T09:41:01.388Z</time></trkpt><trkpt lat="43.7087217" lon="12.18522"><ele>698.0</ele><time>2026-04-25T09:41:02.388Z</time></trkpt><trkpt lat="43.708805" lon="12.185255"><ele>698.0</ele><time>2026-04-25T09:41:03.388Z</time></trkpt><trkpt lat="43.7088783" lon="12.1852967"><ele>698.0</ele><time>2026-04-25T09:41:04.387Z</time></trkpt><trkpt lat="43.7089967" lon="12.1853267"><ele>698.0</ele><time>2026-04-25T09:41:06.388Z</time></trkpt><trkpt lat="43.7090967" lon="12.185195"><ele>698.0</ele><time>2026-04-25T09:41:08.387Z</time></trkpt><trkpt lat="43.7091367" lon="12.1850983"><ele>698.0</ele><time>2026-04-25T09:41:09.387Z</time></trkpt><trkpt lat="43.7091717" lon="12.1850083"><ele>698.0</ele><time>2026-04-25T09:41:10.388Z</time></trkpt><trkpt lat="43.7091983" lon="12.1849133"><ele>698.0</ele><time>2026-04-25T09:41:11.388Z</time></trkpt><trkpt lat="43.709225" lon="12.184815"><ele>698.0</ele><time>2026-04-25T09:41:12.388Z</time></trkpt><trkpt lat="43.7092417" lon="12.18471"><ele>698.0</ele><time>2026-04-25T09:41:13.388Z</time></trkpt><trkpt lat="43.7092483" lon="12.1846067"><ele>698.0</ele><time>2026-04-25T09:41:14.388Z</time></trkpt><trkpt lat="43.7092517" lon="12.1844883"><ele>698.0</ele><time>2026-04-25T09:41:15.387Z</time></trkpt><trkpt lat="43.7092433" lon="12.1843633"><ele>698.2</ele><time>2026-04-25T09:41:16.388Z</time></trkpt><trkpt lat="43.7092317" lon="12.184235"><ele>698.4</ele><time>2026-04-25T09:41:17.387Z</time></trkpt><trkpt lat="43.7092283" lon="12.1841117"><ele>698.6</ele><time>2026-04-25T09:41:18.388Z</time></trkpt><trkpt lat="43.7092283" lon="12.183985"><ele>698.8000000000001</ele><time>2026-04-25T09:41:19.388Z</time></trkpt><trkpt lat="43.7092333" lon="12.18386"><ele>699.0</ele><time>2026-04-25T09:41:20.388Z</time></trkpt><trkpt lat="43.7092567" lon="12.183745"><ele>699.0</ele><time>2026-04-25T09:41:21.387Z</time></trkpt><trkpt lat="43.7092983" lon="12.18363"><ele>699.0</ele><time>2026-04-25T09:41:22.388Z</time></trkpt><trkpt lat="43.7093517" lon="12.1835"><ele>699.0</ele><time>2026-04-25T09:41:23.387Z</time></trkpt><trkpt lat="43.7094133" lon="12.183385"><ele>699.0</ele><time>2026-04-25T09:41:24.387Z</time></trkpt><trkpt lat="43.709465" lon="12.1832783"><ele>699.0</ele><time>2026-04-25T09:41:25.387Z</time></trkpt><trkpt lat="43.7095217" lon="12.1832133"><ele>700.0</ele><time>2026-04-25T09:41:26.388Z</time></trkpt><trkpt lat="43.70959" lon="12.1831683"><ele>701.0</ele><time>2026-04-25T09:41:27.387Z</time></trkpt><trkpt lat="43.7096683" lon="12.1831333"><ele>702.0</ele><time>2026-04-25T09:41:28.387Z</time></trkpt><trkpt lat="43.7097567" lon="12.1831083"><ele>703.0</ele><time>2026-04-25T09:41:29.388Z</time></trkpt><trkpt lat="43.7098583" lon="12.1830833"><ele>704.0</ele><time>2026-04-25T09:41:30.387Z</time></trkpt><trkpt lat="43.709975" lon="12.1830567"><ele>704.0</ele><time>2026-04-25T09:41:31.387Z</time></trkpt><trkpt lat="43.71008" lon="12.183025"><ele>704.0</ele><time>2026-04-25T09:41:32.388Z</time></trkpt><trkpt lat="43.7101767" lon="12.182985"><ele>704.0</ele><time>2026-04-25T09:41:33.388Z</time></trkpt><trkpt lat="43.7102833" lon="12.1829367"><ele>704.0</ele><time>2026-04-25T09:41:34.388Z</time></trkpt><trkpt lat="43.7103983" lon="12.1828717"><ele>704.0</ele><time>2026-04-25T09:41:35.387Z</time></trkpt><trkpt lat="43.7105067" lon="12.1827667"><ele>703.75</ele><time>2026-04-25T09:41:36.387Z</time></trkpt><trkpt lat="43.7106" lon="12.1826267"><ele>703.5</ele><time>2026-04-25T09:41:37.388Z</time></trkpt><trkpt lat="43.710695" lon="12.182505"><ele>703.25</ele><time>2026-04-25T09:41:38.388Z</time></trkpt><trkpt lat="43.71079" lon="12.1823783"><ele>703.0</ele><time>2026-04-25T09:41:39.388Z</time></trkpt><trkpt lat="43.7108917" lon="12.1822617"><ele>703.0</ele><time>2026-04-25T09:41:40.387Z</time></trkpt><trkpt lat="43.7109983" lon="12.1821567"><ele>703.0</ele><time>2026-04-25T09:41:41.387Z</time></trkpt><trkpt lat="43.71111" lon="12.182055"><ele>703.0</ele><time>2026-04-25T09:41:42.387Z</time></trkpt><trkpt lat="43.71122" lon="12.1819883"><ele>703.0</ele><time>2026-04-25T09:41:43.388Z</time></trkpt><trkpt lat="43.711335" lon="12.18195"><ele>701.25</ele><time>2026-04-25T09:41:44.387Z</time></trkpt><trkpt lat="43.711455" lon="12.1819417"><ele>699.5</ele><time>2026-04-25T09:41:45.387Z</time></trkpt><trkpt lat="43.7115683" lon="12.1819783"><ele>697.75</ele><time>2026-04-25T09:41:46.388Z</time></trkpt><trkpt lat="43.711685" lon="12.1820483"><ele>696.0</ele><time>2026-04-25T09:41:47.387Z</time></trkpt><trkpt lat="43.7117933" lon="12.182145"><ele>696.0</ele><time>2026-04-25T09:41:48.388Z</time></trkpt><trkpt lat="43.7118967" lon="12.18227"><ele>696.0</ele><time>2026-04-25T09:41:49.388Z</time></trkpt><trkpt lat="43.712" lon="12.1823983"><ele>696.0</ele><time>2026-04-25T09:41:50.387Z</time></trkpt><trkpt lat="43.7121033" lon="12.1825183"><ele>696.0</ele><time>2026-04-25T09:41:51.388Z</time></trkpt><trkpt lat="43.7122083" lon="12.18265"><ele>694.25</ele><time>2026-04-25T09:41:52.388Z</time></trkpt><trkpt lat="43.712315" lon="12.1827733"><ele>692.5</ele><time>2026-04-25T09:41:53.387Z</time></trkpt><trkpt lat="43.71242" lon="12.1828883"><ele>690.75</ele><time>2026-04-25T09:41:54.388Z</time></trkpt><trkpt lat="43.7125217" lon="12.183"><ele>689.0</ele><time>2026-04-25T09:41:55.387Z</time></trkpt><trkpt lat="43.7126267" lon="12.183115"><ele>689.0</ele><time>2026-04-25T09:41:56.388Z</time></trkpt><trkpt lat="43.71272" lon="12.1832283"><ele>689.0</ele><time>2026-04-25T09:41:57.387Z</time></trkpt><trkpt lat="43.7128117" lon="12.1833417"><ele>689.0</ele><time>2026-04-25T09:41:58.388Z</time></trkpt><trkpt lat="43.7128983" lon="12.1834467"><ele>689.0</ele><time>2026-04-25T09:41:59.388Z</time></trkpt><trkpt lat="43.7129917" lon="12.1835417"><ele>689.0</ele><time>2026-04-25T09:42:00.388Z</time></trkpt><trkpt lat="43.7130867" lon="12.1836317"><ele>689.0</ele><time>2026-04-25T09:42:01.387Z</time></trkpt><trkpt lat="43.713205" lon="12.1836833"><ele>689.0</ele><time>2026-04-25T09:42:02.388Z</time></trkpt><trkpt lat="43.7133417" lon="12.18372"><ele>689.0</ele><time>2026-04-25T09:42:03.388Z</time></trkpt><trkpt lat="43.7134833" lon="12.18377"><ele>690.5</ele><time>2026-04-25T09:42:04.388Z</time></trkpt><trkpt lat="43.7136183" lon="12.1838333"><ele>692.0</ele><time>2026-04-25T09:42:05.387Z</time></trkpt><trkpt lat="43.7137517" lon="12.1839033"><ele>693.5</ele><time>2026-04-25T09:42:06.387Z</time></trkpt><trkpt lat="43.7138867" lon="12.1839767"><ele>695.0</ele><time>2026-04-25T09:42:07.387Z</time></trkpt><trkpt lat="43.7140217" lon="12.1840533"><ele>690.5</ele><time>2026-04-25T09:42:08.388Z</time></trkpt><trkpt lat="43.7141517" lon="12.184135"><ele>686.0</ele><time>2026-04-25T09:42:09.388Z</time></trkpt><trkpt lat="43.71429" lon="12.184205"><ele>681.5</ele><time>2026-04-25T09:42:10.387Z</time></trkpt><trkpt lat="43.7144217" lon="12.1842583"><ele>677.0</ele><time>2026-04-25T09:42:11.388Z</time></trkpt><trkpt lat="43.7145533" lon="12.18428"><ele>675.0</ele><time>2026-04-25T09:42:12.388Z</time></trkpt><trkpt lat="43.714705" lon="12.18427"><ele>673.0</ele><time>2026-04-25T09:42:13.388Z</time></trkpt><trkpt lat="43.7148567" lon="12.184235"><ele>671.0</ele><time>2026-04-25T09:42:14.388Z</time></trkpt><trkpt lat="43.715005" lon="12.1841817"><ele>671.0</ele><time>2026-04-25T09:42:15.387Z</time></trkpt><trkpt lat="43.7151483" lon="12.1841433"><ele>671.0</ele><time>2026-04-25T09:42:16.387Z</time></trkpt><trkpt lat="43.7152783" lon="12.1841167"><ele>671.0</ele><time>2026-04-25T09:42:17.387Z</time></trkpt><trkpt lat="43.7154033" lon="12.1841033"><ele>671.0</ele><time>2026-04-25T09:42:18.387Z</time></trkpt><trkpt lat="43.7155367" lon="12.1840917"><ele>668.75</ele><time>2026-04-25T09:42:19.388Z</time></trkpt><trkpt lat="43.7156817" lon="12.1840833"><ele>666.5</ele><time>2026-04-25T09:42:20.387Z</time></trkpt><trkpt lat="43.7158217" lon="12.1840617"><ele>664.25</ele><time>2026-04-25T09:42:21.387Z</time></trkpt><trkpt lat="43.71596" lon="12.1840567"><ele>662.0</ele><time>2026-04-25T09:42:22.387Z</time></trkpt><trkpt lat="43.7161017" lon="12.1840433"><ele>662.5</ele><time>2026-04-25T09:42:23.387Z</time></trkpt><trkpt lat="43.7162483" lon="12.1840317"><ele>663.0</ele><time>2026-04-25T09:42:24.387Z</time></trkpt><trkpt lat="43.71639" lon="12.1840117"><ele>663.5</ele><time>2026-04-25T09:42:25.388Z</time></trkpt><trkpt lat="43.7165267" lon="12.183995"><ele>664.0</ele><time>2026-04-25T09:42:26.388Z</time></trkpt><trkpt lat="43.7166667" lon="12.1839817"><ele>664.0</ele><time>2026-04-25T09:42:27.388Z</time></trkpt><trkpt lat="43.716795" lon="12.183965"><ele>664.0</ele><time>2026-04-25T09:42:28.387Z</time></trkpt><trkpt lat="43.7169283" lon="12.18392"><ele>664.0</ele><time>2026-04-25T09:42:29.387Z</time></trkpt><trkpt lat="43.7170517" lon="12.1838367"><ele>664.0</ele><time>2026-04-25T09:42:30.387Z</time></trkpt><trkpt lat="43.7171533" lon="12.183745"><ele>664.0</ele><time>2026-04-25T09:42:31.387Z</time></trkpt><trkpt lat="43.71726" lon="12.183675"><ele>664.0</ele><time>2026-04-25T09:42:32.387Z</time></trkpt><trkpt lat="43.7173683" lon="12.18363"><ele>664.0</ele><time>2026-04-25T09:42:33.388Z</time></trkpt><trkpt lat="43.7174933" lon="12.18362"><ele>664.0</ele><time>2026-04-25T09:42:34.387Z</time></trkpt><trkpt lat="43.7176133" lon="12.183655"><ele>664.0</ele><time>2026-04-25T09:42:35.388Z</time></trkpt><trkpt lat="43.7177333" lon="12.1837167"><ele>664.0</ele><time>2026-04-25T09:42:36.388Z</time></trkpt><trkpt lat="43.7178617" lon="12.1837683"><ele>664.0</ele><time>2026-04-25T09:42:37.388Z</time></trkpt><trkpt lat="43.7179967" lon="12.18381"><ele>664.0</ele><time>2026-04-25T09:42:38.388Z</time></trkpt><trkpt lat="43.71814" lon="12.1838433"><ele>666.25</ele><time>2026-04-25T09:42:39.387Z</time></trkpt><trkpt lat="43.71828" lon="12.1838783"><ele>668.5</ele><time>2026-04-25T09:42:40.388Z</time></trkpt><trkpt lat="43.7184233" lon="12.1839217"><ele>670.75</ele><time>2026-04-25T09:42:41.387Z</time></trkpt><trkpt lat="43.7185667" lon="12.1839683"><ele>673.0</ele><time>2026-04-25T09:42:42.387Z</time></trkpt><trkpt lat="43.7187017" lon="12.1840383"><ele>668.0</ele><time>2026-04-25T09:42:43.388Z</time></trkpt><trkpt lat="43.7188317" lon="12.1841117"><ele>663.0</ele><time>2026-04-25T09:42:44.388Z</time></trkpt><trkpt lat="43.718955" lon="12.184175"><ele>658.0</ele><time>2026-04-25T09:42:45.388Z</time></trkpt><trkpt lat="43.7190667" lon="12.184235"><ele>653.0</ele><time>2026-04-25T09:42:46.388Z</time></trkpt><trkpt lat="43.7191883" lon="12.1842633"><ele>653.0</ele><time>2026-04-25T09:42:47.388Z</time></trkpt><trkpt lat="43.719305" lon="12.1842533"><ele>653.0</ele><time>2026-04-25T09:42:48.388Z</time></trkpt><trkpt lat="43.71943" lon="12.184205"><ele>653.0</ele><time>2026-04-25T09:42:49.388Z</time></trkpt><trkpt lat="43.71956" lon="12.184155"><ele>653.0</ele><time>2026-04-25T09:42:50.387Z</time></trkpt><trkpt lat="43.71971" lon="12.1841117"><ele>653.6666666666666</ele><time>2026-04-25T09:42:51.388Z</time></trkpt><trkpt lat="43.7198767" lon="12.184055"><ele>654.3333333333334</ele><time>2026-04-25T09:42:52.387Z</time></trkpt><trkpt lat="43.7200217" lon="12.1840367"><ele>655.0</ele><time>2026-04-25T09:42:53.388Z</time></trkpt><trkpt lat="43.7201667" lon="12.1840317"><ele>657.25</ele><time>2026-04-25T09:42:54.388Z</time></trkpt><trkpt lat="43.7203017" lon="12.18402"><ele>659.5</ele><time>2026-04-25T09:42:55.388Z</time></trkpt><trkpt lat="43.72043" lon="12.1840617"><ele>661.75</ele><time>2026-04-25T09:42:56.388Z</time></trkpt><trkpt lat="43.7205633" lon="12.184135"><ele>664.0</ele><time>2026-04-25T09:42:57.387Z</time></trkpt><trkpt lat="43.7206883" lon="12.184225"><ele>664.0</ele><time>2026-04-25T09:42:58.388Z</time></trkpt><trkpt lat="43.72079" lon="12.1843517"><ele>664.0</ele><time>2026-04-25T09:42:59.387Z</time></trkpt><trkpt lat="43.72088" lon="12.184505"><ele>664.0</ele><time>2026-04-25T09:43:00.387Z</time></trkpt><trkpt lat="43.7209417" lon="12.184655"><ele>664.0</ele><time>2026-04-25T09:43:01.387Z</time></trkpt><trkpt lat="43.721" lon="12.1847717"><ele>663.75</ele><time>2026-04-25T09:43:02.388Z</time></trkpt><trkpt lat="43.7210817" lon="12.1848683"><ele>663.5</ele><time>2026-04-25T09:43:03.387Z</time></trkpt><trkpt lat="43.7211883" lon="12.1849267"><ele>663.25</ele><time>2026-04-25T09:43:04.388Z</time></trkpt><trkpt lat="43.721325" lon="12.1849533"><ele>663.0</ele><time>2026-04-25T09:43:05.388Z</time></trkpt><trkpt lat="43.721465" lon="12.184995"><ele>663.0</ele><time>2026-04-25T09:43:06.387Z</time></trkpt><trkpt lat="43.7216017" lon="12.1850867"><ele>663.0</ele><time>2026-04-25T09:43:07.388Z</time></trkpt><trkpt lat="43.721745" lon="12.18519"><ele>663.0</ele><time>2026-04-25T09:43:08.388Z</time></trkpt><trkpt lat="43.72189" lon="12.18531"><ele>663.3333333333334</ele><time>2026-04-25T09:43:09.387Z</time></trkpt><trkpt lat="43.7220383" lon="12.1854333"><ele>663.6666666666667</ele><time>2026-04-25T09:43:10.387Z</time></trkpt><trkpt lat="43.7221733" lon="12.1855533"><ele>664.0</ele><time>2026-04-25T09:43:11.388Z</time></trkpt><trkpt lat="43.7222917" lon="12.1856733"><ele>660.0</ele><time>2026-04-25T09:43:12.388Z</time></trkpt><trkpt lat="43.7224033" lon="12.1857717"><ele>656.0</ele><time>2026-04-25T09:43:13.388Z</time></trkpt><trkpt lat="43.7225167" lon="12.18583"><ele>652.0</ele><time>2026-04-25T09:43:14.388Z</time></trkpt><trkpt lat="43.7226267" lon="12.18584"><ele>648.0</ele><time>2026-04-25T09:43:15.387Z</time></trkpt><trkpt lat="43.7227383" lon="12.1858017"><ele>644.8</ele><time>2026-04-25T09:43:16.388Z</time></trkpt><trkpt lat="43.7228183" lon="12.1857233"><ele>641.5999999999999</ele><time>2026-04-25T09:43:17.388Z</time></trkpt><trkpt lat="43.722855" lon="12.1856167"><ele>638.4000000000001</ele><time>2026-04-25T09:43:18.388Z</time></trkpt><trkpt lat="43.7228767" lon="12.1854883"><ele>635.2</ele><time>2026-04-25T09:43:19.387Z</time></trkpt><trkpt lat="43.7228617" lon="12.1853317"><ele>632.0</ele><time>2026-04-25T09:43:20.387Z</time></trkpt><trkpt lat="43.7228283" lon="12.18515"><ele>632.0</ele><time>2026-04-25T09:43:21.388Z</time></trkpt><trkpt lat="43.7228033" lon="12.184955"><ele>632.0</ele><time>2026-04-25T09:43:22.388Z</time></trkpt><trkpt lat="43.7227733" lon="12.1847633"><ele>632.0</ele><time>2026-04-25T09:43:23.388Z</time></trkpt><trkpt lat="43.7227483" lon="12.1845733"><ele>632.0</ele><time>2026-04-25T09:43:24.388Z</time></trkpt><trkpt lat="43.7227383" lon="12.1843667"><ele>637.25</ele><time>2026-04-25T09:43:25.387Z</time></trkpt><trkpt lat="43.7227217" lon="12.1841617"><ele>642.5</ele><time>2026-04-25T09:43:26.387Z</time></trkpt><trkpt lat="43.72271" lon="12.183965"><ele>647.75</ele><time>2026-04-25T09:43:27.388Z</time></trkpt><trkpt lat="43.7226983" lon="12.1837817"><ele>653.0</ele><time>2026-04-25T09:43:28.387Z</time></trkpt><trkpt lat="43.7226833" lon="12.18361"><ele>653.0</ele><time>2026-04-25T09:43:29.388Z</time></trkpt><trkpt lat="43.722675" lon="12.183465"><ele>653.0</ele><time>2026-04-25T09:43:30.388Z</time></trkpt><trkpt lat="43.7226933" lon="12.18334"><ele>653.0</ele><time>2026-04-25T09:43:31.388Z</time></trkpt><trkpt lat="43.72273" lon="12.183225"><ele>653.0</ele><time>2026-04-25T09:43:32.388Z</time></trkpt><trkpt lat="43.7228067" lon="12.1831467"><ele>653.0</ele><time>2026-04-25T09:43:33.387Z</time></trkpt><trkpt lat="43.7229033" lon="12.1831"><ele>651.0</ele><time>2026-04-25T09:43:34.387Z</time></trkpt><trkpt lat="43.7230017" lon="12.183085"><ele>649.0</ele><time>2026-04-25T09:43:35.388Z</time></trkpt><trkpt lat="43.7230983" lon="12.1831283"><ele>647.0</ele><time>2026-04-25T09:43:36.388Z</time></trkpt><trkpt lat="43.7231917" lon="12.183195"><ele>645.0</ele><time>2026-04-25T09:43:37.388Z</time></trkpt><trkpt lat="43.7232517" lon="12.183345"><ele>643.0</ele><time>2026-04-25T09:43:38.388Z</time></trkpt><trkpt lat="43.7232917" lon="12.18353"><ele>643.0</ele><time>2026-04-25T09:43:39.387Z</time></trkpt><trkpt lat="43.7233083" lon="12.1837283"><ele>643.0</ele><time>2026-04-25T09:43:40.388Z</time></trkpt><trkpt lat="43.7233067" lon="12.1839267"><ele>643.0</ele><time>2026-04-25T09:43:41.388Z</time></trkpt><trkpt lat="43.7232883" lon="12.18412"><ele>643.0</ele><time>2026-04-25T09:43:42.388Z</time></trkpt><trkpt lat="43.72325" lon="12.1843"><ele>642.0</ele><time>2026-04-25T09:43:43.387Z</time></trkpt><trkpt lat="43.7232083" lon="12.1844567"><ele>641.0</ele><time>2026-04-25T09:43:44.388Z</time></trkpt><trkpt lat="43.7231767" lon="12.1845917"><ele>640.0</ele><time>2026-04-25T09:43:45.388Z</time></trkpt><trkpt lat="43.7231683" lon="12.1847"><ele>639.0</ele><time>2026-04-25T09:43:46.388Z</time></trkpt><trkpt lat="43.7231883" lon="12.18479"><ele>638.0</ele><time>2026-04-25T09:43:47.387Z</time></trkpt><trkpt lat="43.72324" lon="12.18486"><ele>637.0</ele><time>2026-04-25T09:43:48.388Z</time></trkpt><trkpt lat="43.72333" lon="12.1848833"><ele>635.75</ele><time>2026-04-25T09:43:49.388Z</time></trkpt><trkpt lat="43.7234317" lon="12.1849183"><ele>634.5</ele><time>2026-04-25T09:43:50.388Z</time></trkpt><trkpt lat="43.7235317" lon="12.1850083"><ele>633.25</ele><time>2026-04-25T09:43:51.388Z</time></trkpt><trkpt lat="43.7236217" lon="12.1851433"><ele>632.0</ele><time>2026-04-25T09:43:52.387Z</time></trkpt><trkpt lat="43.7236917" lon="12.1852933"><ele>631.4</ele><time>2026-04-25T09:43:53.388Z</time></trkpt><trkpt lat="43.72374" lon="12.1854233"><ele>630.8000000000001</ele><time>2026-04-25T09:43:54.387Z</time></trkpt><trkpt lat="43.7237483" lon="12.1855433"><ele>630.2</ele><time>2026-04-25T09:43:55.388Z</time></trkpt><trkpt lat="43.7237083" lon="12.185655"><ele>629.6</ele><time>2026-04-25T09:43:56.387Z</time></trkpt><trkpt lat="43.7236317" lon="12.1857317"><ele>629.0</ele><time>2026-04-25T09:43:57.387Z</time></trkpt><trkpt lat="43.723555" lon="12.18581"><ele>629.0</ele><time>2026-04-25T09:43:58.387Z</time></trkpt><trkpt lat="43.7235033" lon="12.1859167"><ele>629.0</ele><time>2026-04-25T09:43:59.387Z</time></trkpt><trkpt lat="43.7234933" lon="12.1860533"><ele>629.0</ele><time>2026-04-25T09:44:00.388Z</time></trkpt><trkpt lat="43.72353" lon="12.1862"><ele>629.0</ele><time>2026-04-25T09:44:01.388Z</time></trkpt><trkpt lat="43.7235883" lon="12.1863117"><ele>629.0</ele><time>2026-04-25T09:44:02.388Z</time></trkpt><trkpt lat="43.72367" lon="12.1863717"><ele>624.2</ele><time>2026-04-25T09:44:03.388Z</time></trkpt><trkpt lat="43.72377" lon="12.186385"><ele>619.4</ele><time>2026-04-25T09:44:04.387Z</time></trkpt><trkpt lat="43.7238717" lon="12.1863267"><ele>614.6</ele><time>2026-04-25T09:44:05.387Z</time></trkpt><trkpt lat="43.7239533" lon="12.18622"><ele>609.8</ele><time>2026-04-25T09:44:06.387Z</time></trkpt><trkpt lat="43.7240083" lon="12.1860833"><ele>605.0</ele><time>2026-04-25T09:44:07.387Z</time></trkpt><trkpt lat="43.7240467" lon="12.185915"><ele>605.0</ele><time>2026-04-25T09:44:08.387Z</time></trkpt><trkpt lat="43.724055" lon="12.1857367"><ele>605.0</ele><time>2026-04-25T09:44:09.387Z</time></trkpt><trkpt lat="43.7240667" lon="12.1855667"><ele>605.0</ele><time>2026-04-25T09:44:10.388Z</time></trkpt><trkpt lat="43.724085" lon="12.1854"><ele>605.0</ele><time>2026-04-25T09:44:11.388Z</time></trkpt><trkpt lat="43.7241083" lon="12.1852333"><ele>605.0</ele><time>2026-04-25T09:44:12.388Z</time></trkpt><trkpt lat="43.7241533" lon="12.185075"><ele>605.0</ele><time>2026-04-25T09:44:13.388Z</time></trkpt><trkpt lat="43.724205" lon="12.184915"><ele>605.0</ele><time>2026-04-25T09:44:14.388Z</time></trkpt><trkpt lat="43.7242583" lon="12.1847617"><ele>605.0</ele><time>2026-04-25T09:44:15.388Z</time></trkpt><trkpt lat="43.7242983" lon="12.1846117"><ele>605.0</ele><time>2026-04-25T09:44:16.387Z</time></trkpt><trkpt lat="43.724335" lon="12.184455"><ele>605.0</ele><time>2026-04-25T09:44:17.387Z</time></trkpt><trkpt lat="43.7243567" lon="12.1842967"><ele>605.0</ele><time>2026-04-25T09:44:18.387Z</time></trkpt><trkpt lat="43.7243667" lon="12.1841333"><ele>605.0</ele><time>2026-04-25T09:44:19.388Z</time></trkpt><trkpt lat="43.7243817" lon="12.1839683"><ele>596.25</ele><time>2026-04-25T09:44:20.388Z</time></trkpt><trkpt lat="43.7244117" lon="12.1838"><ele>587.5</ele><time>2026-04-25T09:44:21.387Z</time></trkpt><trkpt lat="43.7244517" lon="12.1836367"><ele>578.75</ele><time>2026-04-25T09:44:22.387Z</time></trkpt><trkpt lat="43.7244883" lon="12.1834683"><ele>570.0</ele><time>2026-04-25T09:44:23.388Z</time></trkpt><trkpt lat="43.724495" lon="12.1832867"><ele>570.25</ele><time>2026-04-25T09:44:24.387Z</time></trkpt><trkpt lat="43.7244933" lon="12.183095"><ele>570.5</ele><time>2026-04-25T09:44:25.388Z</time></trkpt><trkpt lat="43.7245" lon="12.1829133"><ele>570.75</ele><time>2026-04-25T09:44:26.388Z</time></trkpt><trkpt lat="43.724535" lon="12.1827233"><ele>571.0</ele><time>2026-04-25T09:44:27.388Z</time></trkpt><trkpt lat="43.7245833" lon="12.1825533"><ele>571.0</ele><time>2026-04-25T09:44:28.388Z</time></trkpt><trkpt lat="43.724605" lon="12.1823883"><ele>571.0</ele><time>2026-04-25T09:44:29.387Z</time></trkpt><trkpt lat="43.724585" lon="12.1822"><ele>571.0</ele><time>2026-04-25T09:44:30.388Z</time></trkpt><trkpt lat="43.7245617" lon="12.182"><ele>571.0</ele><time>2026-04-25T09:44:31.387Z</time></trkpt><trkpt lat="43.7245667" lon="12.1817983"><ele>570.75</ele><time>2026-04-25T09:44:32.388Z</time></trkpt><trkpt lat="43.724585" lon="12.181615"><ele>570.5</ele><time>2026-04-25T09:44:33.388Z</time></trkpt><trkpt lat="43.7246" lon="12.181445"><ele>570.25</ele><time>2026-04-25T09:44:34.387Z</time></trkpt><trkpt lat="43.724645" lon="12.181305"><ele>570.0</ele><time>2026-04-25T09:44:35.388Z</time></trkpt><trkpt lat="43.724715" lon="12.18116"><ele>571.25</ele><time>2026-04-25T09:44:36.388Z</time></trkpt><trkpt lat="43.7247933" lon="12.1810033"><ele>572.5</ele><time>2026-04-25T09:44:37.388Z</time></trkpt><trkpt lat="43.7248567" lon="12.180845"><ele>573.75</ele><time>2026-04-25T09:44:38.388Z</time></trkpt><trkpt lat="43.7249033" lon="12.180685"><ele>575.0</ele><time>2026-04-25T09:44:39.387Z</time></trkpt><trkpt lat="43.724925" lon="12.1805267"><ele>575.5</ele><time>2026-04-25T09:44:40.388Z</time></trkpt><trkpt lat="43.7249117" lon="12.18036"><ele>576.0</ele><time>2026-04-25T09:44:41.387Z</time></trkpt><trkpt lat="43.724895" lon="12.1801767"><ele>576.5</ele><time>2026-04-25T09:44:42.388Z</time></trkpt><trkpt lat="43.7248817" lon="12.179985"><ele>577.0</ele><time>2026-04-25T09:44:43.388Z</time></trkpt><trkpt lat="43.7248717" lon="12.1797967"><ele>577.75</ele><time>2026-04-25T09:44:44.387Z</time></trkpt><trkpt lat="43.72489" lon="12.1796217"><ele>578.5</ele><time>2026-04-25T09:44:45.388Z</time></trkpt><trkpt lat="43.7249183" lon="12.1794467"><ele>579.25</ele><time>2026-04-25T09:44:46.387Z</time></trkpt><trkpt lat="43.72493" lon="12.179275"><ele>580.0</ele><time>2026-04-25T09:44:47.388Z</time></trkpt><trkpt lat="43.7249083" lon="12.1791133"><ele>580.25</ele><time>2026-04-25T09:44:48.388Z</time></trkpt><trkpt lat="43.7248667" lon="12.1789517"><ele>580.5</ele><time>2026-04-25T09:44:49.388Z</time></trkpt><trkpt lat="43.7248067" lon="12.1788183"><ele>580.75</ele><time>2026-04-25T09:44:50.388Z</time></trkpt><trkpt lat="43.7247383" lon="12.17869"><ele>581.0</ele><time>2026-04-25T09:44:51.387Z</time></trkpt><trkpt lat="43.72467" lon="12.1785567"><ele>581.0</ele><time>2026-04-25T09:44:52.387Z</time></trkpt><trkpt lat="43.7246067" lon="12.1784233"><ele>581.0</ele><time>2026-04-25T09:44:53.388Z</time></trkpt><trkpt lat="43.7245417" lon="12.178295"><ele>581.0</ele><time>2026-04-25T09:44:54.388Z</time></trkpt><trkpt lat="43.7244833" lon="12.1781667"><ele>581.0</ele><time>2026-04-25T09:44:55.387Z</time></trkpt><trkpt lat="43.7244417" lon="12.1780333"><ele>581.0</ele><time>2026-04-25T09:44:56.388Z</time></trkpt><trkpt lat="43.7244267" lon="12.1778883"><ele>579.5</ele><time>2026-04-25T09:44:57.387Z</time></trkpt><trkpt lat="43.7244517" lon="12.177735"><ele>578.0</ele><time>2026-04-25T09:44:58.388Z</time></trkpt><trkpt lat="43.7245133" lon="12.1775783"><ele>576.5</ele><time>2026-04-25T09:44:59.388Z</time></trkpt><trkpt lat="43.7245783" lon="12.1774317"><ele>575.0</ele><time>2026-04-25T09:45:00.388Z</time></trkpt><trkpt lat="43.7246367" lon="12.1772817"><ele>575.0</ele><time>2026-04-25T09:45:01.387Z</time></trkpt><trkpt lat="43.724685" lon="12.17713"><ele>575.0</ele><time>2026-04-25T09:45:02.388Z</time></trkpt><trkpt lat="43.7247283" lon="12.1769867"><ele>575.0</ele><time>2026-04-25T09:45:03.387Z</time></trkpt><trkpt lat="43.72478" lon="12.17687"><ele>575.0</ele><time>2026-04-25T09:45:04.388Z</time></trkpt><trkpt lat="43.7248367" lon="12.1767917"><ele>575.0</ele><time>2026-04-25T09:45:05.388Z</time></trkpt><trkpt lat="43.7249067" lon="12.176775"><ele>575.0</ele><time>2026-04-25T09:45:06.388Z</time></trkpt><trkpt lat="43.7249833" lon="12.1768183"><ele>575.0</ele><time>2026-04-25T09:45:07.387Z</time></trkpt><trkpt lat="43.725055" lon="12.176925"><ele>575.0</ele><time>2026-04-25T09:45:08.388Z</time></trkpt><trkpt lat="43.725125" lon="12.177065"><ele>575.0</ele><time>2026-04-25T09:45:09.387Z</time></trkpt><trkpt lat="43.7251917" lon="12.1772"><ele>575.0</ele><time>2026-04-25T09:45:10.388Z</time></trkpt><trkpt lat="43.725265" lon="12.1773033"><ele>571.2</ele><time>2026-04-25T09:45:11.388Z</time></trkpt><trkpt lat="43.725335" lon="12.177365"><ele>567.4</ele><time>2026-04-25T09:45:12.388Z</time></trkpt><trkpt lat="43.7254133" lon="12.1773917"><ele>563.6</ele><time>2026-04-25T09:45:13.387Z</time></trkpt><trkpt lat="43.7255167" lon="12.1773283"><ele>559.8</ele><time>2026-04-25T09:45:14.388Z</time></trkpt><trkpt lat="43.7256233" lon="12.177205"><ele>556.0</ele><time>2026-04-25T09:45:15.388Z</time></trkpt><trkpt lat="43.7257333" lon="12.1770633"><ele>556.0</ele><time>2026-04-25T09:45:16.388Z</time></trkpt><trkpt lat="43.7258317" lon="12.17691"><ele>556.0</ele><time>2026-04-25T09:45:17.388Z</time></trkpt><trkpt lat="43.7259183" lon="12.1767617"><ele>556.0</ele><time>2026-04-25T09:45:18.387Z</time></trkpt><trkpt lat="43.7259867" lon="12.1766217"><ele>556.0</ele><time>2026-04-25T09:45:19.388Z</time></trkpt><trkpt lat="43.7260333" lon="12.1764917"><ele>557.0</ele><time>2026-04-25T09:45:20.387Z</time></trkpt><trkpt lat="43.7260667" lon="12.17637"><ele>558.0</ele><time>2026-04-25T09:45:21.387Z</time></trkpt><trkpt lat="43.7260767" lon="12.17624"><ele>559.0</ele><time>2026-04-25T09:45:22.388Z</time></trkpt><trkpt lat="43.7260667" lon="12.1760867"><ele>560.0</ele><time>2026-04-25T09:45:23.387Z</time></trkpt><trkpt lat="43.7260367" lon="12.1759117"><ele>561.0</ele><time>2026-04-25T09:45:24.388Z</time></trkpt><trkpt lat="43.7260083" lon="12.1757283"><ele>559.25</ele><time>2026-04-25T09:45:25.388Z</time></trkpt><trkpt lat="43.725985" lon="12.1755483"><ele>557.5</ele><time>2026-04-25T09:45:26.388Z</time></trkpt><trkpt lat="43.7259733" lon="12.17538"><ele>555.75</ele><time>2026-04-25T09:45:27.388Z</time></trkpt><trkpt lat="43.7259567" lon="12.175225"><ele>554.0</ele><time>2026-04-25T09:45:28.387Z</time></trkpt><trkpt lat="43.7259333" lon="12.1750783"><ele>554.0</ele><time>2026-04-25T09:45:29.388Z</time></trkpt><trkpt lat="43.7259133" lon="12.1749483"><ele>554.0</ele><time>2026-04-25T09:45:30.388Z</time></trkpt><trkpt lat="43.72589" lon="12.1748317"><ele>554.0</ele><time>2026-04-25T09:45:31.388Z</time></trkpt><trkpt lat="43.725905" lon="12.174725"><ele>554.0</ele><time>2026-04-25T09:45:32.387Z</time></trkpt><trkpt lat="43.7259433" lon="12.17464"><ele>554.0</ele><time>2026-04-25T09:45:33.388Z</time></trkpt><trkpt lat="43.7259983" lon="12.1745783"><ele>554.0</ele><time>2026-04-25T09:45:34.388Z</time></trkpt><trkpt lat="43.7260783" lon="12.1745783"><ele>551.4</ele><time>2026-04-25T09:45:35.388Z</time></trkpt><trkpt lat="43.7261583" lon="12.17464"><ele>548.8</ele><time>2026-04-25T09:45:36.387Z</time></trkpt><trkpt lat="43.7262033" lon="12.17476"><ele>546.2</ele><time>2026-04-25T09:45:37.388Z</time></trkpt><trkpt lat="43.726215" lon="12.174915"><ele>543.6</ele><time>2026-04-25T09:45:38.388Z</time></trkpt><trkpt lat="43.7262117" lon="12.1750983"><ele>541.0</ele><time>2026-04-25T09:45:39.388Z</time></trkpt><trkpt lat="43.7262033" lon="12.1752833"><ele>539.75</ele><time>2026-04-25T09:45:40.387Z</time></trkpt><trkpt lat="43.7261983" lon="12.175465"><ele>538.5</ele><time>2026-04-25T09:45:41.388Z</time></trkpt><trkpt lat="43.7262033" lon="12.1756417"><ele>537.25</ele><time>2026-04-25T09:45:42.388Z</time></trkpt><trkpt lat="43.72622" lon="12.17581"><ele>536.0</ele><time>2026-04-25T09:45:43.387Z</time></trkpt><trkpt lat="43.7262417" lon="12.1759617"><ele>535.8</ele><time>2026-04-25T09:45:44.388Z</time></trkpt><trkpt lat="43.7262667" lon="12.1761033"><ele>535.6</ele><time>2026-04-25T09:45:45.388Z</time></trkpt><trkpt lat="43.726285" lon="12.1762283"><ele>535.4</ele><time>2026-04-25T09:45:46.387Z</time></trkpt><trkpt lat="43.7263233" lon="12.176325"><ele>535.2</ele><time>2026-04-25T09:45:47.388Z</time></trkpt><trkpt lat="43.7263783" lon="12.17641"><ele>535.0</ele><time>2026-04-25T09:45:48.387Z</time></trkpt><trkpt lat="43.7264717" lon="12.1764517"><ele>535.0</ele><time>2026-04-25T09:45:49.388Z</time></trkpt><trkpt lat="43.726575" lon="12.17648"><ele>535.0</ele><time>2026-04-25T09:45:50.388Z</time></trkpt><trkpt lat="43.7266717" lon="12.1764883"><ele>535.0</ele><time>2026-04-25T09:45:51.387Z</time></trkpt><trkpt lat="43.7267633" lon="12.176465"><ele>535.0</ele><time>2026-04-25T09:45:52.387Z</time></trkpt><trkpt lat="43.7268483" lon="12.1763767"><ele>535.0</ele><time>2026-04-25T09:45:53.388Z</time></trkpt><trkpt lat="43.7269167" lon="12.176255"><ele>536.5</ele><time>2026-04-25T09:45:54.388Z</time></trkpt><trkpt lat="43.7269833" lon="12.1761117"><ele>538.0</ele><time>2026-04-25T09:45:55.388Z</time></trkpt><trkpt lat="43.72706" lon="12.1759667"><ele>539.5</ele><time>2026-04-25T09:45:56.388Z</time></trkpt><trkpt lat="43.72714" lon="12.1758267"><ele>541.0</ele><time>2026-04-25T09:45:57.387Z</time></trkpt><trkpt lat="43.7272217" lon="12.17568"><ele>541.0</ele><time>2026-04-25T09:45:58.388Z</time></trkpt><trkpt lat="43.7272967" lon="12.1755333"><ele>541.0</ele><time>2026-04-25T09:45:59.387Z</time></trkpt><trkpt lat="43.7273783" lon="12.1753983"><ele>541.0</ele><time>2026-04-25T09:46:00.387Z</time></trkpt><trkpt lat="43.727475" lon="12.1753017"><ele>541.0</ele><time>2026-04-25T09:46:01.387Z</time></trkpt><trkpt lat="43.7275883" lon="12.175235"><ele>541.0</ele><time>2026-04-25T09:46:02.387Z</time></trkpt><trkpt lat="43.72771" lon="12.1751883"><ele>541.0</ele><time>2026-04-25T09:46:03.387Z</time></trkpt><trkpt lat="43.7278333" lon="12.1751283"><ele>541.0</ele><time>2026-04-25T09:46:04.387Z</time></trkpt><trkpt lat="43.727945" lon="12.17504"><ele>541.0</ele><time>2026-04-25T09:46:05.388Z</time></trkpt><trkpt lat="43.7280317" lon="12.1749083"><ele>544.0</ele><time>2026-04-25T09:46:06.387Z</time></trkpt><trkpt lat="43.7281083" lon="12.1747733"><ele>547.0</ele><time>2026-04-25T09:46:07.388Z</time></trkpt><trkpt lat="43.728195" lon="12.1746533"><ele>550.0</ele><time>2026-04-25T09:46:08.388Z</time></trkpt><trkpt lat="43.728285" lon="12.1745767"><ele>553.0</ele><time>2026-04-25T09:46:09.388Z</time></trkpt><trkpt lat="43.7283817" lon="12.174545"><ele>553.0</ele><time>2026-04-25T09:46:10.388Z</time></trkpt><trkpt lat="43.72847" lon="12.174575"><ele>553.0</ele><time>2026-04-25T09:46:11.387Z</time></trkpt><trkpt lat="43.7285467" lon="12.1746633"><ele>553.0</ele><time>2026-04-25T09:46:12.387Z</time></trkpt><trkpt lat="43.7285883" lon="12.1747933"><ele>553.0</ele><time>2026-04-25T09:46:13.388Z</time></trkpt><trkpt lat="43.728575" lon="12.1749417"><ele>553.0</ele><time>2026-04-25T09:46:14.388Z</time></trkpt><trkpt lat="43.728535" lon="12.1751017"><ele>553.75</ele><time>2026-04-25T09:46:15.387Z</time></trkpt><trkpt lat="43.7284767" lon="12.1752733"><ele>554.5</ele><time>2026-04-25T09:46:16.388Z</time></trkpt><trkpt lat="43.7284183" lon="12.175455"><ele>555.25</ele><time>2026-04-25T09:46:17.387Z</time></trkpt><trkpt lat="43.7283667" lon="12.17563"><ele>556.0</ele><time>2026-04-25T09:46:18.388Z</time></trkpt><trkpt lat="43.7283117" lon="12.1758083"><ele>557.0</ele><time>2026-04-25T09:46:19.387Z</time></trkpt><trkpt lat="43.728255" lon="12.1759883"><ele>558.0</ele><time>2026-04-25T09:46:20.388Z</time></trkpt><trkpt lat="43.7281933" lon="12.1761617"><ele>559.0</ele><time>2026-04-25T09:46:21.387Z</time></trkpt><trkpt lat="43.7281333" lon="12.176345"><ele>560.0</ele><time>2026-04-25T09:46:22.388Z</time></trkpt><trkpt lat="43.7280783" lon="12.176505"><ele>562.25</ele><time>2026-04-25T09:46:23.388Z</time></trkpt><trkpt lat="43.72805" lon="12.17666"><ele>564.5</ele><time>2026-04-25T09:46:24.388Z</time></trkpt><trkpt lat="43.7280517" lon="12.176825"><ele>566.75</ele><time>2026-04-25T09:46:25.388Z</time></trkpt><trkpt lat="43.7280817" lon="12.1769917"><ele>569.0</ele><time>2026-04-25T09:46:26.387Z</time></trkpt><trkpt lat="43.7281367" lon="12.1771717"><ele>569.0</ele><time>2026-04-25T09:46:27.387Z</time></trkpt><trkpt lat="43.72818" lon="12.1773483"><ele>569.0</ele><time>2026-04-25T09:46:28.388Z</time></trkpt><trkpt lat="43.7282083" lon="12.17753"><ele>569.0</ele><time>2026-04-25T09:46:29.388Z</time></trkpt><trkpt lat="43.7282383" lon="12.1777"><ele>569.0</ele><time>2026-04-25T09:46:30.388Z</time></trkpt><trkpt lat="43.7282883" lon="12.1778517"><ele>569.2</ele><time>2026-04-25T09:46:31.388Z</time></trkpt><trkpt lat="43.7283533" lon="12.177975"><ele>569.4</ele><time>2026-04-25T09:46:32.388Z</time></trkpt><trkpt lat="43.72843" lon="12.1780567"><ele>569.6</ele><time>2026-04-25T09:46:33.388Z</time></trkpt><trkpt lat="43.7285233" lon="12.1781033"><ele>569.8</ele><time>2026-04-25T09:46:34.388Z</time></trkpt><trkpt lat="43.7286433" lon="12.1780967"><ele>570.0</ele><time>2026-04-25T09:46:35.388Z</time></trkpt><trkpt lat="43.7287783" lon="12.17805"><ele>573.3333333333334</ele><time>2026-04-25T09:46:36.387Z</time></trkpt><trkpt lat="43.7289267" lon="12.1779817"><ele>576.6666666666667</ele><time>2026-04-25T09:46:37.388Z</time></trkpt><trkpt lat="43.7290717" lon="12.177915"><ele>580.0</ele><time>2026-04-25T09:46:38.388Z</time></trkpt><trkpt lat="43.72921" lon="12.177865"><ele>580.0</ele><time>2026-04-25T09:46:39.387Z</time></trkpt><trkpt lat="43.7293483" lon="12.1778083"><ele>580.0</ele><time>2026-04-25T09:46:40.387Z</time></trkpt><trkpt lat="43.729485" lon="12.1777567"><ele>580.0</ele><time>2026-04-25T09:46:41.388Z</time></trkpt><trkpt lat="43.7296133" lon="12.1776967"><ele>580.0</ele><time>2026-04-25T09:46:42.388Z</time></trkpt><trkpt lat="43.729735" lon="12.1776267"><ele>580.5</ele><time>2026-04-25T09:46:43.387Z</time></trkpt><trkpt lat="43.7298233" lon="12.1775133"><ele>581.0</ele><time>2026-04-25T09:46:44.388Z</time></trkpt><trkpt lat="43.7298917" lon="12.1773567"><ele>581.5</ele><time>2026-04-25T09:46:45.388Z</time></trkpt><trkpt lat="43.729955" lon="12.1771783"><ele>582.0</ele><time>2026-04-25T09:46:46.388Z</time></trkpt><trkpt lat="43.730015" lon="12.176995"><ele>584.0</ele><time>2026-04-25T09:46:47.388Z</time></trkpt><trkpt lat="43.7300783" lon="12.1768183"><ele>586.0</ele><time>2026-04-25T09:46:48.387Z</time></trkpt><trkpt lat="43.7301483" lon="12.17665"><ele>588.0</ele><time>2026-04-25T09:46:49.388Z</time></trkpt><trkpt lat="43.730225" lon="12.1764867"><ele>590.0</ele><time>2026-04-25T09:46:50.388Z</time></trkpt><trkpt lat="43.7303283" lon="12.17636"><ele>592.6666666666666</ele><time>2026-04-25T09:46:51.388Z</time></trkpt><trkpt lat="43.730455" lon="12.1762517"><ele>595.3333333333334</ele><time>2026-04-25T09:46:52.387Z</time></trkpt><trkpt lat="43.73059" lon="12.176135"><ele>598.0</ele><time>2026-04-25T09:46:53.387Z</time></trkpt><trkpt lat="43.7307233" lon="12.1760233"><ele>598.0</ele><time>2026-04-25T09:46:54.388Z</time></trkpt><trkpt lat="43.7308617" lon="12.1759033"><ele>598.0</ele><time>2026-04-25T09:46:55.388Z</time></trkpt><trkpt lat="43.7309967" lon="12.1757883"><ele>598.0</ele><time>2026-04-25T09:46:56.387Z</time></trkpt><trkpt lat="43.7311367" lon="12.17568"><ele>601.0</ele><time>2026-04-25T09:46:57.387Z</time></trkpt><trkpt lat="43.7312583" lon="12.1755767"><ele>604.0</ele><time>2026-04-25T09:46:58.388Z</time></trkpt><trkpt lat="43.73135" lon="12.1754933"><ele>607.0</ele><time>2026-04-25T09:46:59.388Z</time></trkpt><trkpt lat="43.7314233" lon="12.175365"><ele>610.0</ele><time>2026-04-25T09:47:00.387Z</time></trkpt><trkpt lat="43.73145" lon="12.175215"><ele>610.0</ele><time>2026-04-25T09:47:01.387Z</time></trkpt><trkpt lat="43.731445" lon="12.175045"><ele>610.0</ele><time>2026-04-25T09:47:02.388Z</time></trkpt><trkpt lat="43.7314417" lon="12.17489"><ele>610.0</ele><time>2026-04-25T09:47:03.387Z</time></trkpt><trkpt lat="43.7314733" lon="12.1747483"><ele>610.0</ele><time>2026-04-25T09:47:04.387Z</time></trkpt><trkpt lat="43.7315383" lon="12.1746233"><ele>611.25</ele><time>2026-04-25T09:47:05.388Z</time></trkpt><trkpt lat="43.7316483" lon="12.1745283"><ele>612.5</ele><time>2026-04-25T09:47:06.388Z</time></trkpt><trkpt lat="43.73178" lon="12.1744583"><ele>613.75</ele><time>2026-04-25T09:47:07.388Z</time></trkpt><trkpt lat="43.7319183" lon="12.1743817"><ele>615.0</ele><time>2026-04-25T09:47:08.387Z</time></trkpt><trkpt lat="43.7320517" lon="12.174315"><ele>617.25</ele><time>2026-04-25T09:47:09.387Z</time></trkpt><trkpt lat="43.7321817" lon="12.1742733"><ele>619.5</ele><time>2026-04-25T09:47:10.387Z</time></trkpt><trkpt lat="43.732305" lon="12.174265"><ele>621.75</ele><time>2026-04-25T09:47:11.388Z</time></trkpt><trkpt lat="43.7324417" lon="12.174305"><ele>624.0</ele><time>2026-04-25T09:47:12.388Z</time></trkpt><trkpt lat="43.7325767" lon="12.17439"><ele>624.0</ele><time>2026-04-25T09:47:13.387Z</time></trkpt><trkpt lat="43.7327033" lon="12.1744883"><ele>624.0</ele><time>2026-04-25T09:47:14.388Z</time></trkpt><trkpt lat="43.7328233" lon="12.1745733"><ele>624.0</ele><time>2026-04-25T09:47:15.387Z</time></trkpt><trkpt lat="43.7329367" lon="12.1746417"><ele>624.0</ele><time>2026-04-25T09:47:16.387Z</time></trkpt><trkpt lat="43.7330467" lon="12.1746633"><ele>625.75</ele><time>2026-04-25T09:47:17.388Z</time></trkpt><trkpt lat="43.7331717" lon="12.174665"><ele>627.5</ele><time>2026-04-25T09:47:18.388Z</time></trkpt><trkpt lat="43.7333067" lon="12.1746467"><ele>629.25</ele><time>2026-04-25T09:47:19.387Z</time></trkpt><trkpt lat="43.73345" lon="12.1746167"><ele>631.0</ele><time>2026-04-25T09:47:20.388Z</time></trkpt><trkpt lat="43.733605" lon="12.17459"><ele>633.25</ele><time>2026-04-25T09:47:21.388Z</time></trkpt><trkpt lat="43.7337633" lon="12.1745683"><ele>635.5</ele><time>2026-04-25T09:47:22.387Z</time></trkpt><trkpt lat="43.7339067" lon="12.17455"><ele>637.75</ele><time>2026-04-25T09:47:23.388Z</time></trkpt><trkpt lat="43.7340267" lon="12.1745317"><ele>640.0</ele><time>2026-04-25T09:47:24.388Z</time></trkpt><trkpt lat="43.7341283" lon="12.1745117"><ele>640.0</ele><time>2026-04-25T09:47:25.387Z</time></trkpt><trkpt lat="43.73421" lon="12.1744967"><ele>640.0</ele><time>2026-04-25T09:47:26.388Z</time></trkpt><trkpt lat="43.7343217" lon="12.1745117"><ele>640.0</ele><time>2026-04-25T09:47:28.388Z</time></trkpt><trkpt lat="43.7343883" lon="12.1746567"><ele>640.0</ele><time>2026-04-25T09:47:30.388Z</time></trkpt><trkpt lat="43.7344167" lon="12.1747733"><ele>640.0</ele><time>2026-04-25T09:47:31.388Z</time></trkpt><trkpt lat="43.7344433" lon="12.174885"><ele>641.0</ele><time>2026-04-25T09:47:32.388Z</time></trkpt><trkpt lat="43.7344483" lon="12.1750083"><ele>642.0</ele><time>2026-04-25T09:47:33.388Z</time></trkpt><trkpt lat="43.7344217" lon="12.17514"><ele>643.0</ele><time>2026-04-25T09:47:34.388Z</time></trkpt><trkpt lat="43.734365" lon="12.1752633"><ele>644.0</ele><time>2026-04-25T09:47:35.388Z</time></trkpt><trkpt lat="43.7343067" lon="12.17538"><ele>645.0</ele><time>2026-04-25T09:47:36.387Z</time></trkpt><trkpt lat="43.7342533" lon="12.17549"><ele>643.1666666666666</ele><time>2026-04-25T09:47:37.387Z</time></trkpt><trkpt lat="43.7341983" lon="12.1756033"><ele>641.3333333333334</ele><time>2026-04-25T09:47:38.387Z</time></trkpt><trkpt lat="43.7341533" lon="12.17571"><ele>639.5</ele><time>2026-04-25T09:47:39.387Z</time></trkpt><trkpt lat="43.7341033" lon="12.1758067"><ele>637.6666666666667</ele><time>2026-04-25T09:47:40.388Z</time></trkpt><trkpt lat="43.73406" lon="12.1758917"><ele>635.8333333333334</ele><time>2026-04-25T09:47:41.387Z</time></trkpt><trkpt lat="43.7340233" lon="12.1759733"><ele>634.0</ele><time>2026-04-25T09:47:42.388Z</time></trkpt><trkpt lat="43.733975" lon="12.1760317"><ele>634.0</ele><time>2026-04-25T09:47:43.388Z</time></trkpt><trkpt lat="43.73391" lon="12.1760783"><ele>634.0</ele><time>2026-04-25T09:47:44.387Z</time></trkpt><trkpt lat="43.7338483" lon="12.1761183"><ele>634.0</ele><time>2026-04-25T09:47:45.387Z</time></trkpt><trkpt lat="43.7337617" lon="12.176225"><ele>634.0</ele><time>2026-04-25T09:47:47.388Z</time></trkpt><trkpt lat="43.7337367" lon="12.1763667"><ele>634.0</ele><time>2026-04-25T09:47:49.388Z</time></trkpt><trkpt lat="43.7337933" lon="12.1764417"><ele>634.0</ele><time>2026-04-25T09:47:50.388Z</time></trkpt><trkpt lat="43.7338667" lon="12.1765067"><ele>633.5</ele><time>2026-04-25T09:47:51.388Z</time></trkpt><trkpt lat="43.7339517" lon="12.1765633"><ele>633.0</ele><time>2026-04-25T09:47:52.387Z</time></trkpt><trkpt lat="43.7340317" lon="12.17662"><ele>632.5</ele><time>2026-04-25T09:47:53.388Z</time></trkpt><trkpt lat="43.7341" lon="12.1766817"><ele>632.0</ele><time>2026-04-25T09:47:54.388Z</time></trkpt><trkpt lat="43.7341717" lon="12.1767517"><ele>631.5</ele><time>2026-04-25T09:47:55.388Z</time></trkpt><trkpt lat="43.734235" lon="12.176835"><ele>631.0</ele><time>2026-04-25T09:47:56.387Z</time></trkpt><trkpt lat="43.7343017" lon="12.17691"><ele>631.0</ele><time>2026-04-25T09:47:57.388Z</time></trkpt><trkpt lat="43.7343633" lon="12.1770083"><ele>631.0</ele><time>2026-04-25T09:47:58.388Z</time></trkpt><trkpt lat="43.73442" lon="12.1771033"><ele>631.0</ele><time>2026-04-25T09:47:59.387Z</time></trkpt><trkpt lat="43.7344717" lon="12.1771933"><ele>631.0</ele><time>2026-04-25T09:48:00.388Z</time></trkpt><trkpt lat="43.7345283" lon="12.1772933"><ele>631.0</ele><time>2026-04-25T09:48:01.388Z</time></trkpt><trkpt lat="43.73458" lon="12.1773867"><ele>631.0</ele><time>2026-04-25T09:48:02.387Z</time></trkpt><trkpt lat="43.734635" lon="12.1774567"><ele>631.2857142857143</ele><time>2026-04-25T09:48:03.387Z</time></trkpt><trkpt lat="43.7346967" lon="12.1775117"><ele>631.5714285714286</ele><time>2026-04-25T09:48:04.388Z</time></trkpt><trkpt lat="43.734765" lon="12.1775483"><ele>631.8571428571429</ele><time>2026-04-25T09:48:05.388Z</time></trkpt><trkpt lat="43.7348383" lon="12.1775817"><ele>632.1428571428571</ele><time>2026-04-25T09:48:06.388Z</time></trkpt><trkpt lat="43.73491" lon="12.1776117"><ele>632.4285714285714</ele><time>2026-04-25T09:48:07.388Z</time></trkpt><trkpt lat="43.7349767" lon="12.1776583"><ele>632.7142857142857</ele><time>2026-04-25T09:48:08.388Z</time></trkpt><trkpt lat="43.7350467" lon="12.1776967"><ele>633.0</ele><time>2026-04-25T09:48:09.387Z</time></trkpt><trkpt lat="43.7351083" lon="12.1777517"><ele>633.0</ele><time>2026-04-25T09:48:10.388Z</time></trkpt><trkpt lat="43.7351467" lon="12.17783"><ele>633.0</ele><time>2026-04-25T09:48:11.388Z</time></trkpt><trkpt lat="43.7351633" lon="12.177925"><ele>633.0</ele><time>2026-04-25T09:48:12.387Z</time></trkpt><trkpt lat="43.7351317" lon="12.1780317"><ele>633.0</ele><time>2026-04-25T09:48:13.388Z</time></trkpt><trkpt lat="43.7350767" lon="12.1781217"><ele>633.0</ele><time>2026-04-25T09:48:14.387Z</time></trkpt><trkpt lat="43.7350067" lon="12.17818"><ele>633.0</ele><time>2026-04-25T09:48:15.388Z</time></trkpt><trkpt lat="43.7349283" lon="12.1782283"><ele>632.0</ele><time>2026-04-25T09:48:16.387Z</time></trkpt><trkpt lat="43.7348567" lon="12.1782483"><ele>631.0</ele><time>2026-04-25T09:48:17.387Z</time></trkpt><trkpt lat="43.7347917" lon="12.1782717"><ele>630.0</ele><time>2026-04-25T09:48:18.388Z</time></trkpt><trkpt lat="43.734725" lon="12.1783233"><ele>629.0</ele><time>2026-04-25T09:48:19.387Z</time></trkpt><trkpt lat="43.7346767" lon="12.1784"><ele>628.0</ele><time>2026-04-25T09:48:20.387Z</time></trkpt><trkpt lat="43.73463" lon="12.1784967"><ele>627.0</ele><time>2026-04-25T09:48:21.388Z</time></trkpt><trkpt lat="43.73459" lon="12.178615"><ele>627.0</ele><time>2026-04-25T09:48:22.388Z</time></trkpt><trkpt lat="43.734545" lon="12.178715"><ele>627.0</ele><time>2026-04-25T09:48:23.388Z</time></trkpt><trkpt lat="43.7345017" lon="12.1788017"><ele>627.0</ele><time>2026-04-25T09:48:24.388Z</time></trkpt><trkpt lat="43.7344617" lon="12.1788917"><ele>627.0</ele><time>2026-04-25T09:48:25.387Z</time></trkpt><trkpt lat="43.7344267" lon="12.17899"><ele>627.0</ele><time>2026-04-25T09:48:26.387Z</time></trkpt><trkpt lat="43.7344033" lon="12.1791017"><ele>627.0</ele><time>2026-04-25T09:48:27.388Z</time></trkpt><trkpt lat="43.7343983" lon="12.179225"><ele>626.6</ele><time>2026-04-25T09:48:28.387Z</time></trkpt><trkpt lat="43.7343933" lon="12.1793467"><ele>626.2</ele><time>2026-04-25T09:48:29.387Z</time></trkpt><trkpt lat="43.7343883" lon="12.1794783"><ele>625.8</ele><time>2026-04-25T09:48:30.388Z</time></trkpt><trkpt lat="43.7343667" lon="12.1796017"><ele>625.4</ele><time>2026-04-25T09:48:31.387Z</time></trkpt><trkpt lat="43.7343367" lon="12.179725"><ele>625.0</ele><time>2026-04-25T09:48:32.387Z</time></trkpt><trkpt lat="43.7343117" lon="12.179855"><ele>627.0</ele><time>2026-04-25T09:48:33.388Z</time></trkpt><trkpt lat="43.73428" lon="12.1799883"><ele>629.0</ele><time>2026-04-25T09:48:34.388Z</time></trkpt><trkpt lat="43.734265" lon="12.1801067"><ele>631.0</ele><time>2026-04-25T09:48:35.387Z</time></trkpt><trkpt lat="43.7342533" lon="12.1802133"><ele>633.0</ele><time>2026-04-25T09:48:36.388Z</time></trkpt><trkpt lat="43.73426" lon="12.1803433"><ele>635.0</ele><time>2026-04-25T09:48:37.387Z</time></trkpt><trkpt lat="43.7342883" lon="12.18046"><ele>637.0</ele><time>2026-04-25T09:48:38.387Z</time></trkpt><trkpt lat="43.7343217" lon="12.1805767"><ele>637.0</ele><time>2026-04-25T09:48:39.387Z</time></trkpt><trkpt lat="43.734335" lon="12.1806817"><ele>637.0</ele><time>2026-04-25T09:48:40.387Z</time></trkpt><trkpt lat="43.7343317" lon="12.18078"><ele>637.0</ele><time>2026-04-25T09:48:41.387Z</time></trkpt><trkpt lat="43.7342983" lon="12.1808683"><ele>637.0</ele><time>2026-04-25T09:48:42.387Z</time></trkpt><trkpt lat="43.7342433" lon="12.18095"><ele>637.0</ele><time>2026-04-25T09:48:43.388Z</time></trkpt><trkpt lat="43.7341733" lon="12.1810333"><ele>637.0</ele><time>2026-04-25T09:48:44.387Z</time></trkpt><trkpt lat="43.7341083" lon="12.181115"><ele>638.6</ele><time>2026-04-25T09:48:45.388Z</time></trkpt><trkpt lat="43.7340483" lon="12.1812083"><ele>640.2</ele><time>2026-04-25T09:48:46.388Z</time></trkpt><trkpt lat="43.7339983" lon="12.181315"><ele>641.8</ele><time>2026-04-25T09:48:47.387Z</time></trkpt><trkpt lat="43.7339567" lon="12.1814333"><ele>643.4</ele><time>2026-04-25T09:48:48.388Z</time></trkpt><trkpt lat="43.7339167" lon="12.1815633"><ele>645.0</ele><time>2026-04-25T09:48:49.388Z</time></trkpt><trkpt lat="43.73389" lon="12.18168"><ele>648.0</ele><time>2026-04-25T09:48:50.388Z</time></trkpt><trkpt lat="43.73387" lon="12.1818017"><ele>651.0</ele><time>2026-04-25T09:48:51.388Z</time></trkpt><trkpt lat="43.73386" lon="12.1819367"><ele>654.0</ele><time>2026-04-25T09:48:52.388Z</time></trkpt><trkpt lat="43.73385" lon="12.1820633"><ele>657.0</ele><time>2026-04-25T09:48:53.388Z</time></trkpt><trkpt lat="43.7338317" lon="12.1822017"><ele>660.0</ele><time>2026-04-25T09:48:54.388Z</time></trkpt><trkpt lat="43.73381" lon="12.1823433"><ele>661.8</ele><time>2026-04-25T09:48:55.387Z</time></trkpt><trkpt lat="43.7337817" lon="12.1824867"><ele>663.6</ele><time>2026-04-25T09:48:56.387Z</time></trkpt><trkpt lat="43.7337667" lon="12.1826267"><ele>665.4000000000001</ele><time>2026-04-25T09:48:57.388Z</time></trkpt><trkpt lat="43.733745" lon="12.1827867"><ele>667.2</ele><time>2026-04-25T09:48:58.388Z</time></trkpt><trkpt lat="43.7337267" lon="12.18295"><ele>669.0</ele><time>2026-04-25T09:48:59.387Z</time></trkpt><trkpt lat="43.7337083" lon="12.183095"><ele>670.6666666666666</ele><time>2026-04-25T09:49:00.388Z</time></trkpt><trkpt lat="43.733685" lon="12.1832133"><ele>672.3333333333334</ele><time>2026-04-25T09:49:01.388Z</time></trkpt><trkpt lat="43.7336617" lon="12.183325"><ele>674.0</ele><time>2026-04-25T09:49:02.388Z</time></trkpt><trkpt lat="43.73365" lon="12.1834483"><ele>675.6666666666667</ele><time>2026-04-25T09:49:03.387Z</time></trkpt><trkpt lat="43.7336517" lon="12.1835717"><ele>677.3333333333334</ele><time>2026-04-25T09:49:04.387Z</time></trkpt><trkpt lat="43.73365" lon="12.18369"><ele>679.0</ele><time>2026-04-25T09:49:05.388Z</time></trkpt><trkpt lat="43.7336333" lon="12.1838117"><ele>679.0</ele><time>2026-04-25T09:49:06.388Z</time></trkpt><trkpt lat="43.733605" lon="12.1839133"><ele>679.0</ele><time>2026-04-25T09:49:07.387Z</time></trkpt><trkpt lat="43.7335517" lon="12.1839967"><ele>679.0</ele><time>2026-04-25T09:49:08.388Z</time></trkpt><trkpt lat="43.73346" lon="12.1840517"><ele>679.0</ele><time>2026-04-25T09:49:09.388Z</time></trkpt><trkpt lat="43.733365" lon="12.184125"><ele>679.0</ele><time>2026-04-25T09:49:10.388Z</time></trkpt><trkpt lat="43.7332733" lon="12.1842133"><ele>676.2</ele><time>2026-04-25T09:49:11.388Z</time></trkpt><trkpt lat="43.7331867" lon="12.18431"><ele>673.4000000000001</ele><time>2026-04-25T09:49:12.387Z</time></trkpt><trkpt lat="43.7331083" lon="12.1844117"><ele>670.6</ele><time>2026-04-25T09:49:13.388Z</time></trkpt><trkpt lat="43.7330386" lon="12.1845129"><ele>667.8</ele><time>2026-04-25T09:49:14.387Z</time></trkpt><trkpt lat="43.7329726" lon="12.184619"><ele>665.0</ele><time>2026-04-25T09:49:15.388Z</time></trkpt><trkpt lat="43.7329052" lon="12.1847222"><ele>665.0</ele><time>2026-04-25T09:49:16.388Z</time></trkpt><trkpt lat="43.732837" lon="12.1848253"><ele>665.0</ele><time>2026-04-25T09:49:17.388Z</time></trkpt><trkpt lat="43.7327739" lon="12.1849445"><ele>665.0</ele><time>2026-04-25T09:49:18.387Z</time></trkpt><trkpt lat="43.732719" lon="12.1850664"><ele>665.0</ele><time>2026-04-25T09:49:19.388Z</time></trkpt><trkpt lat="43.7326703" lon="12.1851923"><ele>665.0</ele><time>2026-04-25T09:49:20.388Z</time></trkpt><trkpt lat="43.7326321" lon="12.1853172"><ele>664.6</ele><time>2026-04-25T09:49:21.387Z</time></trkpt><trkpt lat="43.7325973" lon="12.1854361"><ele>664.2</ele><time>2026-04-25T09:49:22.388Z</time></trkpt><trkpt lat="43.7325594" lon="12.1855498"><ele>663.8</ele><time>2026-04-25T09:49:23.388Z</time></trkpt><trkpt lat="43.7325067" lon="12.1856619"><ele>663.4</ele><time>2026-04-25T09:49:24.387Z</time></trkpt><trkpt lat="43.7324356" lon="12.185754"><ele>663.0</ele><time>2026-04-25T09:49:25.388Z</time></trkpt><trkpt lat="43.7323648" lon="12.1858407"><ele>666.2</ele><time>2026-04-25T09:49:26.388Z</time></trkpt><trkpt lat="43.7323021" lon="12.1859391"><ele>669.4</ele><time>2026-04-25T09:49:27.388Z</time></trkpt><trkpt lat="43.7322449" lon="12.186042"><ele>672.6</ele><time>2026-04-25T09:49:28.388Z</time></trkpt><trkpt lat="43.7321966" lon="12.1861558"><ele>675.8000000000001</ele><time>2026-04-25T09:49:29.387Z</time></trkpt><trkpt lat="43.7321496" lon="12.1862867"><ele>679.0</ele><time>2026-04-25T09:49:30.388Z</time></trkpt><trkpt lat="43.7320982" lon="12.1864257"><ele>683.25</ele><time>2026-04-25T09:49:31.388Z</time></trkpt><trkpt lat="43.73204" lon="12.1865687"><ele>687.5</ele><time>2026-04-25T09:49:32.388Z</time></trkpt><trkpt lat="43.7319802" lon="12.1867098"><ele>691.75</ele><time>2026-04-25T09:49:33.388Z</time></trkpt><trkpt lat="43.7319321" lon="12.1868625"><ele>696.0</ele><time>2026-04-25T09:49:34.388Z</time></trkpt><trkpt lat="43.7319" lon="12.1870239"><ele>690.5999999999999</ele><time>2026-04-25T09:49:35.388Z</time></trkpt><trkpt lat="43.7318753" lon="12.1871856"><ele>685.2</ele><time>2026-04-25T09:49:36.388Z</time></trkpt><trkpt lat="43.7318588" lon="12.1873455"><ele>679.8</ele><time>2026-04-25T09:49:37.388Z</time></trkpt><trkpt lat="43.7318492" lon="12.187492"><ele>674.4000000000001</ele><time>2026-04-25T09:49:38.387Z</time></trkpt><trkpt lat="43.731845" lon="12.187624"><ele>669.0</ele><time>2026-04-25T09:49:39.387Z</time></trkpt><trkpt lat="43.7318542" lon="12.1877505"><ele>669.0</ele><time>2026-04-25T09:49:40.387Z</time></trkpt><trkpt lat="43.7318813" lon="12.1878735"><ele>669.0</ele><time>2026-04-25T09:49:41.388Z</time></trkpt><trkpt lat="43.731932" lon="12.1879949"><ele>669.0</ele><time>2026-04-25T09:49:42.387Z</time></trkpt><trkpt lat="43.7320047" lon="12.1881068"><ele>669.0</ele><time>2026-04-25T09:49:43.387Z</time></trkpt><trkpt lat="43.7320858" lon="12.1882133"><ele>669.0</ele><time>2026-04-25T09:49:44.388Z</time></trkpt><trkpt lat="43.732168" lon="12.1883083"><ele>670.3333333333334</ele><time>2026-04-25T09:49:45.388Z</time></trkpt><trkpt lat="43.7322447" lon="12.1883848"><ele>671.6666666666666</ele><time>2026-04-25T09:49:46.388Z</time></trkpt><trkpt lat="43.7323167" lon="12.1884283"><ele>673.0</ele><time>2026-04-25T09:49:47.387Z</time></trkpt><trkpt lat="43.7323967" lon="12.1884383"><ele>674.3333333333333</ele><time>2026-04-25T09:49:48.388Z</time></trkpt><trkpt lat="43.732485" lon="12.1884233"><ele>675.6666666666666</ele><time>2026-04-25T09:49:49.388Z</time></trkpt><trkpt lat="43.732575" lon="12.188395"><ele>677.0</ele><time>2026-04-25T09:49:50.387Z</time></trkpt><trkpt lat="43.7326717" lon="12.1883667"><ele>677.4000000000001</ele><time>2026-04-25T09:49:51.387Z</time></trkpt><trkpt lat="43.732765" lon="12.18835"><ele>677.8000000000001</ele><time>2026-04-25T09:49:52.388Z</time></trkpt><trkpt lat="43.7328567" lon="12.188355"><ele>678.2</ele><time>2026-04-25T09:49:53.388Z</time></trkpt><trkpt lat="43.732955" lon="12.1883833"><ele>678.6</ele><time>2026-04-25T09:49:54.387Z</time></trkpt><trkpt lat="43.7330517" lon="12.1884117"><ele>679.0</ele><time>2026-04-25T09:49:55.387Z</time></trkpt><trkpt lat="43.73315" lon="12.1884467"><ele>679.0</ele><time>2026-04-25T09:49:56.387Z</time></trkpt><trkpt lat="43.7332517" lon="12.1884783"><ele>679.0</ele><time>2026-04-25T09:49:57.387Z</time></trkpt><trkpt lat="43.733335" lon="12.1885083"><ele>679.0</ele><time>2026-04-25T09:49:58.387Z</time></trkpt><trkpt lat="43.73342" lon="12.18853"><ele>679.0</ele><time>2026-04-25T09:49:59.388Z</time></trkpt><trkpt lat="43.7335017" lon="12.1885583"><ele>679.0</ele><time>2026-04-25T09:50:00.388Z</time></trkpt><trkpt lat="43.73359" lon="12.1885983"><ele>683.6</ele><time>2026-04-25T09:50:01.388Z</time></trkpt><trkpt lat="43.7336783" lon="12.188665"><ele>688.2</ele><time>2026-04-25T09:50:02.388Z</time></trkpt><trkpt lat="43.73377" lon="12.1887433"><ele>692.8000000000001</ele><time>2026-04-25T09:50:03.388Z</time></trkpt><trkpt lat="43.7338417" lon="12.1888167"><ele>697.4000000000001</ele><time>2026-04-25T09:50:04.387Z</time></trkpt><trkpt lat="43.7338967" lon="12.1888933"><ele>702.0</ele><time>2026-04-25T09:50:05.388Z</time></trkpt><trkpt lat="43.7339367" lon="12.1889833"><ele>697.8333333333334</ele><time>2026-04-25T09:50:06.387Z</time></trkpt><trkpt lat="43.73396" lon="12.1890783"><ele>693.6666666666666</ele><time>2026-04-25T09:50:07.388Z</time></trkpt><trkpt lat="43.7339617" lon="12.1892067"><ele>689.5</ele><time>2026-04-25T09:50:08.387Z</time></trkpt><trkpt lat="43.7339617" lon="12.189345"><ele>685.3333333333333</ele><time>2026-04-25T09:50:09.387Z</time></trkpt><trkpt lat="43.73398" lon="12.1894683"><ele>681.1666666666666</ele><time>2026-04-25T09:50:10.387Z</time></trkpt><trkpt lat="43.7340133" lon="12.189565"><ele>677.0</ele><time>2026-04-25T09:50:11.388Z</time></trkpt><trkpt lat="43.7340633" lon="12.1896383"><ele>677.0</ele><time>2026-04-25T09:50:12.388Z</time></trkpt><trkpt lat="43.7341333" lon="12.1897017"><ele>677.0</ele><time>2026-04-25T09:50:13.388Z</time></trkpt><trkpt lat="43.73422" lon="12.189755"><ele>677.0</ele><time>2026-04-25T09:50:14.387Z</time></trkpt><trkpt lat="43.7343183" lon="12.18979"><ele>677.0</ele><time>2026-04-25T09:50:15.387Z</time></trkpt><trkpt lat="43.7344167" lon="12.189825"><ele>677.0</ele><time>2026-04-25T09:50:16.388Z</time></trkpt><trkpt lat="43.734515" lon="12.1898733"><ele>677.8</ele><time>2026-04-25T09:50:17.387Z</time></trkpt><trkpt lat="43.7346217" lon="12.189925"><ele>678.6</ele><time>2026-04-25T09:50:18.387Z</time></trkpt><trkpt lat="43.734725" lon="12.1899817"><ele>679.4</ele><time>2026-04-25T09:50:19.388Z</time></trkpt><trkpt lat="43.7348283" lon="12.1900317"><ele>680.1999999999999</ele><time>2026-04-25T09:50:20.388Z</time></trkpt><trkpt lat="43.73493" lon="12.1900867"><ele>681.0</ele><time>2026-04-25T09:50:21.387Z</time></trkpt><trkpt lat="43.7350217" lon="12.1901433"><ele>681.0</ele><time>2026-04-25T09:50:22.387Z</time></trkpt><trkpt lat="43.7351" lon="12.1902183"><ele>681.0</ele><time>2026-04-25T09:50:23.387Z</time></trkpt><trkpt lat="43.73517" lon="12.1903183"><ele>681.0</ele><time>2026-04-25T09:50:24.388Z</time></trkpt><trkpt lat="43.7352183" lon="12.1904367"><ele>681.0</ele><time>2026-04-25T09:50:25.387Z</time></trkpt><trkpt lat="43.7352533" lon="12.1905583"><ele>681.0</ele><time>2026-04-25T09:50:26.388Z</time></trkpt><trkpt lat="43.7352767" lon="12.1906783"><ele>680.1999999999999</ele><time>2026-04-25T09:50:27.388Z</time></trkpt><trkpt lat="43.7352867" lon="12.190805"><ele>679.4</ele><time>2026-04-25T09:50:28.387Z</time></trkpt><trkpt lat="43.7352883" lon="12.19094"><ele>678.6</ele><time>2026-04-25T09:50:29.387Z</time></trkpt><trkpt lat="43.735285" lon="12.19107"><ele>677.8</ele><time>2026-04-25T09:50:30.388Z</time></trkpt><trkpt lat="43.73528" lon="12.191195"><ele>677.0</ele><time>2026-04-25T09:50:31.388Z</time></trkpt><trkpt lat="43.7352817" lon="12.1913067"><ele>677.0</ele><time>2026-04-25T09:50:32.387Z</time></trkpt><trkpt lat="43.735255" lon="12.19145"><ele>677.0</ele><time>2026-04-25T09:50:34.388Z</time></trkpt><trkpt lat="43.7351983" lon="12.191575"><ele>677.0</ele><time>2026-04-25T09:50:36.387Z</time></trkpt><trkpt lat="43.7351917" lon="12.191735"><ele>677.0</ele><time>2026-04-25T09:50:38.387Z</time></trkpt><trkpt lat="43.735265" lon="12.191835"><ele>677.0</ele><time>2026-04-25T09:50:40.388Z</time></trkpt><trkpt lat="43.7353367" lon="12.1918433"><ele>674.8333333333333</ele><time>2026-04-25T09:50:41.388Z</time></trkpt><trkpt lat="43.7354233" lon="12.1918267"><ele>672.6666666666666</ele><time>2026-04-25T09:50:42.387Z</time></trkpt><trkpt lat="43.73551" lon="12.191795"><ele>670.5</ele><time>2026-04-25T09:50:43.387Z</time></trkpt><trkpt lat="43.7356" lon="12.1917683"><ele>668.3333333333334</ele><time>2026-04-25T09:50:44.388Z</time></trkpt><trkpt lat="43.7356733" lon="12.1917383"><ele>666.1666666666667</ele><time>2026-04-25T09:50:45.387Z</time></trkpt><trkpt lat="43.7357433" lon="12.191715"><ele>664.0</ele><time>2026-04-25T09:50:46.388Z</time></trkpt><trkpt lat="43.7358083" lon="12.1916767"><ele>664.0</ele><time>2026-04-25T09:50:47.387Z</time></trkpt><trkpt lat="43.7358633" lon="12.1916283"><ele>664.0</ele><time>2026-04-25T09:50:48.388Z</time></trkpt><trkpt lat="43.735945" lon="12.1915667"><ele>664.0</ele><time>2026-04-25T09:50:50.388Z</time></trkpt><trkpt lat="43.736015" lon="12.1916083"><ele>664.0</ele><time>2026-04-25T09:50:52.388Z</time></trkpt><trkpt lat="43.7360217" lon="12.19172"><ele>664.0</ele><time>2026-04-25T09:50:54.388Z</time></trkpt><trkpt lat="43.7359817" lon="12.19179"><ele>664.0</ele><time>2026-04-25T09:50:55.387Z</time></trkpt><trkpt lat="43.7359117" lon="12.19185"><ele>664.0</ele><time>2026-04-25T09:50:56.388Z</time></trkpt><trkpt lat="43.7358433" lon="12.191895"><ele>664.0</ele><time>2026-04-25T09:50:57.387Z</time></trkpt><trkpt lat="43.7357783" lon="12.1919483"><ele>664.0</ele><time>2026-04-25T09:50:58.387Z</time></trkpt><trkpt lat="43.7357183" lon="12.1920167"><ele>664.0</ele><time>2026-04-25T09:50:59.388Z</time></trkpt><trkpt lat="43.7356733" lon="12.1921033"><ele>664.0</ele><time>2026-04-25T09:51:00.387Z</time></trkpt><trkpt lat="43.735635" lon="12.1922033"><ele>664.0</ele><time>2026-04-25T09:51:01.387Z</time></trkpt><trkpt lat="43.7356067" lon="12.19231"><ele>660.1666666666667</ele><time>2026-04-25T09:51:02.387Z</time></trkpt><trkpt lat="43.7355817" lon="12.192425"><ele>656.3333333333334</ele><time>2026-04-25T09:51:03.388Z</time></trkpt><trkpt lat="43.7355567" lon="12.1925483"><ele>652.5</ele><time>2026-04-25T09:51:04.388Z</time></trkpt><trkpt lat="43.7355333" lon="12.19266"><ele>648.6666666666666</ele><time>2026-04-25T09:51:05.387Z</time></trkpt><trkpt lat="43.7355117" lon="12.1927633"><ele>644.8333333333333</ele><time>2026-04-25T09:51:06.388Z</time></trkpt><trkpt lat="43.7354933" lon="12.1928617"><ele>641.0</ele><time>2026-04-25T09:51:07.387Z</time></trkpt><trkpt lat="43.7354583" lon="12.19294"><ele>641.0</ele><time>2026-04-25T09:51:08.387Z</time></trkpt><trkpt lat="43.7354233" lon="12.1930717"><ele>641.0</ele><time>2026-04-25T09:51:10.387Z</time></trkpt><trkpt lat="43.7354467" lon="12.193195"><ele>641.0</ele><time>2026-04-25T09:51:12.387Z</time></trkpt><trkpt lat="43.7355667" lon="12.1932217"><ele>641.0</ele><time>2026-04-25T09:51:14.388Z</time></trkpt><trkpt lat="43.7356617" lon="12.1931717"><ele>641.0</ele><time>2026-04-25T09:51:15.388Z</time></trkpt><trkpt lat="43.735765" lon="12.1931017"><ele>641.0</ele><time>2026-04-25T09:51:16.387Z</time></trkpt><trkpt lat="43.7358617" lon="12.1930283"><ele>641.0</ele><time>2026-04-25T09:51:17.387Z</time></trkpt><trkpt lat="43.73596" lon="12.192975"><ele>641.0</ele><time>2026-04-25T09:51:18.388Z</time></trkpt><trkpt lat="43.7360483" lon="12.19294"><ele>641.0</ele><time>2026-04-25T09:51:19.388Z</time></trkpt><trkpt lat="43.736135" lon="12.1928983"><ele>641.0</ele><time>2026-04-25T09:51:20.387Z</time></trkpt><trkpt lat="43.7362283" lon="12.1928583"><ele>637.4</ele><time>2026-04-25T09:51:21.388Z</time></trkpt><trkpt lat="43.736325" lon="12.1928167"><ele>633.8</ele><time>2026-04-25T09:51:22.387Z</time></trkpt><trkpt lat="43.7364267" lon="12.1927683"><ele>630.1999999999999</ele><time>2026-04-25T09:51:23.388Z</time></trkpt><trkpt lat="43.736535" lon="12.1927133"><ele>626.5999999999999</ele><time>2026-04-25T09:51:24.388Z</time></trkpt><trkpt lat="43.73665" lon="12.192655"><ele>623.0</ele><time>2026-04-25T09:51:25.387Z</time></trkpt><trkpt lat="43.73676" lon="12.1926117"><ele>623.0</ele><time>2026-04-25T09:51:26.388Z</time></trkpt><trkpt lat="43.73687" lon="12.1925683"><ele>623.0</ele><time>2026-04-25T09:51:27.388Z</time></trkpt><trkpt lat="43.73698" lon="12.1925267"><ele>623.0</ele><time>2026-04-25T09:51:28.387Z</time></trkpt><trkpt lat="43.7370867" lon="12.1924783"><ele>623.0</ele><time>2026-04-25T09:51:29.388Z</time></trkpt><trkpt lat="43.7371867" lon="12.1924383"><ele>623.0</ele><time>2026-04-25T09:51:30.387Z</time></trkpt><trkpt lat="43.7372883" lon="12.192395"><ele>623.0</ele><time>2026-04-25T09:51:31.387Z</time></trkpt><trkpt lat="43.7373867" lon="12.1923517"><ele>623.0</ele><time>2026-04-25T09:51:32.388Z</time></trkpt><trkpt lat="43.7374867" lon="12.1923067"><ele>623.0</ele><time>2026-04-25T09:51:33.387Z</time></trkpt><trkpt lat="43.7375883" lon="12.1922733"><ele>623.0</ele><time>2026-04-25T09:51:34.388Z</time></trkpt><trkpt lat="43.73769" lon="12.1922317"><ele>623.0</ele><time>2026-04-25T09:51:35.388Z</time></trkpt><trkpt lat="43.7377833" lon="12.1922067"><ele>623.0</ele><time>2026-04-25T09:51:36.388Z</time></trkpt><trkpt lat="43.737875" lon="12.1921783"><ele>623.0</ele><time>2026-04-25T09:51:37.387Z</time></trkpt><trkpt lat="43.7379617" lon="12.192155"><ele>623.0</ele><time>2026-04-25T09:51:38.388Z</time></trkpt><trkpt lat="43.7380317" lon="12.1921333"><ele>623.0</ele><time>2026-04-25T09:51:39.387Z</time></trkpt><trkpt lat="43.7381383" lon="12.19211"><ele>623.0</ele><time>2026-04-25T09:51:41.388Z</time></trkpt><trkpt lat="43.738255" lon="12.1920883"><ele>623.0</ele><time>2026-04-25T09:51:43.387Z</time></trkpt><trkpt lat="43.7383283" lon="12.1920617"><ele>623.0</ele><time>2026-04-25T09:51:44.387Z</time></trkpt><trkpt lat="43.7383933" lon="12.1920183"><ele>623.0</ele><time>2026-04-25T09:51:45.388Z</time></trkpt><trkpt lat="43.7384567" lon="12.1919917"><ele>623.0</ele><time>2026-04-25T09:51:46.388Z</time></trkpt><trkpt lat="43.7385717" lon="12.192015"><ele>623.0</ele><time>2026-04-25T09:51:48.388Z</time></trkpt><trkpt lat="43.7386067" lon="12.1921083"><ele>623.0</ele><time>2026-04-25T09:51:49.387Z</time></trkpt><trkpt lat="43.7386417" lon="12.1922233"><ele>623.75</ele><time>2026-04-25T09:51:50.387Z</time></trkpt><trkpt lat="43.738685" lon="12.1923717"><ele>624.5</ele><time>2026-04-25T09:51:51.388Z</time></trkpt><trkpt lat="43.7387383" lon="12.1925217"><ele>625.25</ele><time>2026-04-25T09:51:52.387Z</time></trkpt><trkpt lat="43.7387867" lon="12.1926733"><ele>626.0</ele><time>2026-04-25T09:51:53.387Z</time></trkpt><trkpt lat="43.73883" lon="12.1928283"><ele>626.0</ele><time>2026-04-25T09:51:54.388Z</time></trkpt><trkpt lat="43.7388517" lon="12.192975"><ele>626.0</ele><time>2026-04-25T09:51:55.388Z</time></trkpt><trkpt lat="43.738865" lon="12.1931117"><ele>626.0</ele><time>2026-04-25T09:51:56.388Z</time></trkpt><trkpt lat="43.7388783" lon="12.1932333"><ele>626.0</ele><time>2026-04-25T09:51:57.388Z</time></trkpt><trkpt lat="43.73891" lon="12.1933383"><ele>626.0</ele><time>2026-04-25T09:51:58.388Z</time></trkpt><trkpt lat="43.7389533" lon="12.193425"><ele>624.2</ele><time>2026-04-25T09:51:59.387Z</time></trkpt><trkpt lat="43.739075" lon="12.1934667"><ele>622.4000000000001</ele><time>2026-04-25T09:52:01.388Z</time></trkpt><trkpt lat="43.7391567" lon="12.19342"><ele>620.6</ele><time>2026-04-25T09:52:02.388Z</time></trkpt><trkpt lat="43.7392367" lon="12.193335"><ele>618.8000000000001</ele><time>2026-04-25T09:52:03.387Z</time></trkpt><trkpt lat="43.7393317" lon="12.1932367"><ele>617.0</ele><time>2026-04-25T09:52:04.388Z</time></trkpt><trkpt lat="43.739425" lon="12.1931317"><ele>617.0</ele><time>2026-04-25T09:52:05.388Z</time></trkpt><trkpt lat="43.7395167" lon="12.1930217"><ele>617.0</ele><time>2026-04-25T09:52:06.388Z</time></trkpt><trkpt lat="43.7396133" lon="12.192915"><ele>617.0</ele><time>2026-04-25T09:52:07.387Z</time></trkpt><trkpt lat="43.739705" lon="12.19281"><ele>617.0</ele><time>2026-04-25T09:52:08.388Z</time></trkpt><trkpt lat="43.7397983" lon="12.1927133"><ele>617.0</ele><time>2026-04-25T09:52:09.387Z</time></trkpt><trkpt lat="43.7398983" lon="12.1926283"><ele>617.0</ele><time>2026-04-25T09:52:10.388Z</time></trkpt><trkpt lat="43.7400017" lon="12.19256"><ele>617.0</ele><time>2026-04-25T09:52:11.388Z</time></trkpt><trkpt lat="43.7400983" lon="12.192485"><ele>617.0</ele><time>2026-04-25T09:52:12.388Z</time></trkpt><trkpt lat="43.74018" lon="12.192405"><ele>617.0</ele><time>2026-04-25T09:52:13.387Z</time></trkpt><trkpt lat="43.740255" lon="12.1923283"><ele>621.2</ele><time>2026-04-25T09:52:14.387Z</time></trkpt><trkpt lat="43.740315" lon="12.1922617"><ele>625.4000000000001</ele><time>2026-04-25T09:52:15.386Z</time></trkpt><trkpt lat="43.74037" lon="12.1922117"><ele>629.5999999999999</ele><time>2026-04-25T09:52:16.387Z</time></trkpt><trkpt lat="43.74049" lon="12.1921867"><ele>633.8</ele><time>2026-04-25T09:52:18.386Z</time></trkpt><trkpt lat="43.740565" lon="12.1922533"><ele>638.0</ele><time>2026-04-25T09:52:19.386Z</time></trkpt><trkpt lat="43.7406417" lon="12.1923383"><ele>634.5</ele><time>2026-04-25T09:52:20.386Z</time></trkpt><trkpt lat="43.7407067" lon="12.192425"><ele>631.0</ele><time>2026-04-25T09:52:21.387Z</time></trkpt><trkpt lat="43.74077" lon="12.1925"><ele>627.5</ele><time>2026-04-25T09:52:22.387Z</time></trkpt><trkpt lat="43.7408317" lon="12.19257"><ele>624.0</ele><time>2026-04-25T09:52:23.386Z</time></trkpt><trkpt lat="43.7408833" lon="12.1926567"><ele>620.5</ele><time>2026-04-25T09:52:24.387Z</time></trkpt><trkpt lat="43.7409167" lon="12.192765"><ele>617.0</ele><time>2026-04-25T09:52:25.387Z</time></trkpt><trkpt lat="43.740935" lon="12.1929183"><ele>617.0</ele><time>2026-04-25T09:52:26.387Z</time></trkpt><trkpt lat="43.7409483" lon="12.1930933"><ele>617.0</ele><time>2026-04-25T09:52:27.387Z</time></trkpt><trkpt lat="43.7409567" lon="12.193275"><ele>617.0</ele><time>2026-04-25T09:52:28.387Z</time></trkpt><trkpt lat="43.7409417" lon="12.1934533"><ele>617.0</ele><time>2026-04-25T09:52:29.387Z</time></trkpt><trkpt lat="43.74093" lon="12.193645"><ele>613.5</ele><time>2026-04-25T09:52:30.387Z</time></trkpt><trkpt lat="43.7409233" lon="12.1938317"><ele>610.0</ele><time>2026-04-25T09:52:31.387Z</time></trkpt><trkpt lat="43.7409083" lon="12.1939917"><ele>606.5</ele><time>2026-04-25T09:52:32.387Z</time></trkpt><trkpt lat="43.7409117" lon="12.1941483"><ele>603.0</ele><time>2026-04-25T09:52:33.387Z</time></trkpt><trkpt lat="43.74093" lon="12.1943133"><ele>603.25</ele><time>2026-04-25T09:52:34.386Z</time></trkpt><trkpt lat="43.7409533" lon="12.1944667"><ele>603.5</ele><time>2026-04-25T09:52:35.387Z</time></trkpt><trkpt lat="43.7409933" lon="12.1946367"><ele>603.75</ele><time>2026-04-25T09:52:36.387Z</time></trkpt><trkpt lat="43.7410367" lon="12.1948067"><ele>604.0</ele><time>2026-04-25T09:52:37.386Z</time></trkpt><trkpt lat="43.7410733" lon="12.194955"><ele>604.0</ele><time>2026-04-25T09:52:38.387Z</time></trkpt><trkpt lat="43.7411033" lon="12.1950867"><ele>604.0</ele><time>2026-04-25T09:52:39.386Z</time></trkpt><trkpt lat="43.7411317" lon="12.1952183"><ele>604.0</ele><time>2026-04-25T09:52:40.386Z</time></trkpt><trkpt lat="43.7411783" lon="12.1953133"><ele>604.0</ele><time>2026-04-25T09:52:41.386Z</time></trkpt><trkpt lat="43.7412267" lon="12.19538"><ele>604.0</ele><time>2026-04-25T09:52:42.387Z</time></trkpt><trkpt lat="43.7412867" lon="12.1954133"><ele>604.0</ele><time>2026-04-25T09:52:43.387Z</time></trkpt><trkpt lat="43.7413567" lon="12.1954033"><ele>604.0</ele><time>2026-04-25T09:52:44.386Z</time></trkpt><trkpt lat="43.7414317" lon="12.1953633"><ele>604.0</ele><time>2026-04-25T09:52:45.387Z</time></trkpt><trkpt lat="43.7415117" lon="12.1952967"><ele>604.0</ele><time>2026-04-25T09:52:46.387Z</time></trkpt><trkpt lat="43.7415817" lon="12.1952283"><ele>604.0</ele><time>2026-04-25T09:52:47.386Z</time></trkpt><trkpt lat="43.7416533" lon="12.195165"><ele>604.0</ele><time>2026-04-25T09:52:48.387Z</time></trkpt><trkpt lat="43.7417183" lon="12.19511"><ele>604.0</ele><time>2026-04-25T09:52:49.386Z</time></trkpt><trkpt lat="43.7417833" lon="12.1950633"><ele>604.0</ele><time>2026-04-25T09:52:50.387Z</time></trkpt><trkpt lat="43.7418783" lon="12.1949917"><ele>604.0</ele><time>2026-04-25T09:52:52.386Z</time></trkpt><trkpt lat="43.7419367" lon="12.1949417"><ele>604.0</ele><time>2026-04-25T09:52:54.386Z</time></trkpt><trkpt lat="43.742025" lon="12.1948633"><ele>604.0</ele><time>2026-04-25T09:53:01.387Z</time></trkpt><trkpt lat="43.7421533" lon="12.194815"><ele>604.0</ele><time>2026-04-25T09:53:03.387Z</time></trkpt><trkpt lat="43.742245" lon="12.1947733"><ele>603.0</ele><time>2026-04-25T09:53:04.387Z</time></trkpt><trkpt lat="43.7423433" lon="12.1947217"><ele>602.0</ele><time>2026-04-25T09:53:05.387Z</time></trkpt><trkpt lat="43.742435" lon="12.194675"><ele>601.0</ele><time>2026-04-25T09:53:06.387Z</time></trkpt><trkpt lat="43.7425217" lon="12.19463"><ele>600.0</ele><time>2026-04-25T09:53:07.387Z</time></trkpt><trkpt lat="43.7426117" lon="12.1945867"><ele>599.0</ele><time>2026-04-25T09:53:08.386Z</time></trkpt><trkpt lat="43.7427017" lon="12.1945517"><ele>595.4</ele><time>2026-04-25T09:53:09.386Z</time></trkpt><trkpt lat="43.7427917" lon="12.19452"><ele>591.8</ele><time>2026-04-25T09:53:10.387Z</time></trkpt><trkpt lat="43.7428783" lon="12.1944883"><ele>588.2</ele><time>2026-04-25T09:53:11.387Z</time></trkpt><trkpt lat="43.7429683" lon="12.19445"><ele>584.6</ele><time>2026-04-25T09:53:12.386Z</time></trkpt><trkpt lat="43.74305" lon="12.1944033"><ele>581.0</ele><time>2026-04-25T09:53:13.387Z</time></trkpt><trkpt lat="43.7431317" lon="12.1943317"><ele>581.0</ele><time>2026-04-25T09:53:14.387Z</time></trkpt><trkpt lat="43.7432067" lon="12.19423"><ele>581.0</ele><time>2026-04-25T09:53:15.387Z</time></trkpt><trkpt lat="43.7432767" lon="12.194095"><ele>581.0</ele><time>2026-04-25T09:53:16.387Z</time></trkpt><trkpt lat="43.743335" lon="12.1939517"><ele>581.0</ele><time>2026-04-25T09:53:17.387Z</time></trkpt><trkpt lat="43.7433867" lon="12.19381"><ele>580.0</ele><time>2026-04-25T09:53:18.386Z</time></trkpt><trkpt lat="43.7434467" lon="12.193685"><ele>579.0</ele><time>2026-04-25T09:53:19.386Z</time></trkpt><trkpt lat="43.7435" lon="12.1935817"><ele>578.0</ele><time>2026-04-25T09:53:20.387Z</time></trkpt><trkpt lat="43.74355" lon="12.193475"><ele>577.0</ele><time>2026-04-25T09:53:21.387Z</time></trkpt><trkpt lat="43.743585" lon="12.1933767"><ele>576.0</ele><time>2026-04-25T09:53:22.387Z</time></trkpt><trkpt lat="43.7436233" lon="12.1933"><ele>575.0</ele><time>2026-04-25T09:53:23.387Z</time></trkpt><trkpt lat="43.7436833" lon="12.1932333"><ele>575.0</ele><time>2026-04-25T09:53:24.386Z</time></trkpt><trkpt lat="43.743765" lon="12.19322"><ele>575.0</ele><time>2026-04-25T09:53:25.386Z</time></trkpt><trkpt lat="43.7438633" lon="12.19324"><ele>575.0</ele><time>2026-04-25T09:53:26.386Z</time></trkpt><trkpt lat="43.7439817" lon="12.19328"><ele>575.0</ele><time>2026-04-25T09:53:27.386Z</time></trkpt><trkpt lat="43.744095" lon="12.1933233"><ele>575.0</ele><time>2026-04-25T09:53:28.387Z</time></trkpt><trkpt lat="43.74419" lon="12.19335"><ele>575.0</ele><time>2026-04-25T09:53:29.386Z</time></trkpt><trkpt lat="43.7442733" lon="12.1933733"><ele>575.0</ele><time>2026-04-25T09:53:30.386Z</time></trkpt><trkpt lat="43.7443517" lon="12.1934017"><ele>575.0</ele><time>2026-04-25T09:53:31.387Z</time></trkpt><trkpt lat="43.7444433" lon="12.1934283"><ele>575.0</ele><time>2026-04-25T09:53:32.387Z</time></trkpt><trkpt lat="43.7445367" lon="12.19344"><ele>575.0</ele><time>2026-04-25T09:53:33.387Z</time></trkpt><trkpt lat="43.7446433" lon="12.193445"><ele>574.0</ele><time>2026-04-25T09:53:34.386Z</time></trkpt><trkpt lat="43.7447417" lon="12.1934417"><ele>573.0</ele><time>2026-04-25T09:53:35.387Z</time></trkpt><trkpt lat="43.74484" lon="12.1934483"><ele>572.0</ele><time>2026-04-25T09:53:36.386Z</time></trkpt><trkpt lat="43.7449333" lon="12.1934517"><ele>571.0</ele><time>2026-04-25T09:53:37.387Z</time></trkpt><trkpt lat="43.745035" lon="12.1934633"><ele>570.0</ele><time>2026-04-25T09:53:38.386Z</time></trkpt><trkpt lat="43.7451483" lon="12.193475"><ele>568.75</ele><time>2026-04-25T09:53:39.387Z</time></trkpt><trkpt lat="43.7452567" lon="12.1934767"><ele>567.5</ele><time>2026-04-25T09:53:40.387Z</time></trkpt><trkpt lat="43.7453733" lon="12.19347"><ele>566.25</ele><time>2026-04-25T09:53:41.387Z</time></trkpt><trkpt lat="43.7454867" lon="12.1934917"><ele>565.0</ele><time>2026-04-25T09:53:42.386Z</time></trkpt><trkpt lat="43.7456033" lon="12.1935117"><ele>565.0</ele><time>2026-04-25T09:53:43.386Z</time></trkpt><trkpt lat="43.7457217" lon="12.1935183"><ele>565.0</ele><time>2026-04-25T09:53:44.386Z</time></trkpt><trkpt lat="43.7458317" lon="12.1935283"><ele>565.0</ele><time>2026-04-25T09:53:45.387Z</time></trkpt><trkpt lat="43.745945" lon="12.1935617"><ele>565.0</ele><time>2026-04-25T09:53:46.386Z</time></trkpt><trkpt lat="43.7460517" lon="12.1936017"><ele>567.0</ele><time>2026-04-25T09:53:47.386Z</time></trkpt><trkpt lat="43.746165" lon="12.1936533"><ele>569.0</ele><time>2026-04-25T09:53:48.387Z</time></trkpt><trkpt lat="43.7462817" lon="12.1937283"><ele>571.0</ele><time>2026-04-25T09:53:49.387Z</time></trkpt><trkpt lat="43.746385" lon="12.1938083"><ele>573.0</ele><time>2026-04-25T09:53:50.386Z</time></trkpt><trkpt lat="43.7464783" lon="12.1938967"><ele>573.0</ele><time>2026-04-25T09:53:51.387Z</time></trkpt><trkpt lat="43.7465667" lon="12.1939917"><ele>573.0</ele><time>2026-04-25T09:53:52.387Z</time></trkpt><trkpt lat="43.746655" lon="12.19407"><ele>573.0</ele><time>2026-04-25T09:53:53.386Z</time></trkpt><trkpt lat="43.7467283" lon="12.1941567"><ele>573.0</ele><time>2026-04-25T09:53:54.387Z</time></trkpt><trkpt lat="43.74681" lon="12.1942383"><ele>573.0</ele><time>2026-04-25T09:53:55.387Z</time></trkpt><trkpt lat="43.7468883" lon="12.1943167"><ele>572.5</ele><time>2026-04-25T09:53:56.387Z</time></trkpt><trkpt lat="43.7469733" lon="12.1943933"><ele>572.0</ele><time>2026-04-25T09:53:57.387Z</time></trkpt><trkpt lat="43.7470467" lon="12.194465"><ele>571.5</ele><time>2026-04-25T09:53:58.386Z</time></trkpt><trkpt lat="43.7471183" lon="12.1945167"><ele>571.0</ele><time>2026-04-25T09:53:59.386Z</time></trkpt><trkpt lat="43.7471883" lon="12.1945583"><ele>570.5</ele><time>2026-04-25T09:54:00.387Z</time></trkpt><trkpt lat="43.7472483" lon="12.1945983"><ele>570.0</ele><time>2026-04-25T09:54:01.387Z</time></trkpt><trkpt lat="43.747325" lon="12.1946333"><ele>570.0</ele><time>2026-04-25T09:54:02.387Z</time></trkpt><trkpt lat="43.7474017" lon="12.1946633"><ele>570.0</ele><time>2026-04-25T09:54:03.387Z</time></trkpt><trkpt lat="43.74747" lon="12.1946933"><ele>570.0</ele><time>2026-04-25T09:54:04.386Z</time></trkpt><trkpt lat="43.747545" lon="12.1947217"><ele>570.0</ele><time>2026-04-25T09:54:05.387Z</time></trkpt><trkpt lat="43.7476233" lon="12.1947367"><ele>570.0</ele><time>2026-04-25T09:54:06.387Z</time></trkpt><trkpt lat="43.7476983" lon="12.1947467"><ele>570.0</ele><time>2026-04-25T09:54:07.387Z</time></trkpt><trkpt lat="43.7477687" lon="12.1947539"><ele>570.0</ele><time>2026-04-25T09:54:08.386Z</time></trkpt><trkpt lat="43.7478331" lon="12.1947592"><ele>570.0</ele><time>2026-04-25T09:54:09.386Z</time></trkpt><trkpt lat="43.7478972" lon="12.1947716"><ele>570.0</ele><time>2026-04-25T09:54:10.387Z</time></trkpt><trkpt lat="43.7480136" lon="12.194835"><ele>570.0</ele><time>2026-04-25T09:54:12.387Z</time></trkpt><trkpt lat="43.7480719" lon="12.1948758"><ele>570.0</ele><time>2026-04-25T09:54:13.387Z</time></trkpt><trkpt lat="43.7481311" lon="12.1949071"><ele>570.0</ele><time>2026-04-25T09:54:14.386Z</time></trkpt><trkpt lat="43.7481957" lon="12.1949217"><ele>570.0</ele><time>2026-04-25T09:54:15.386Z</time></trkpt><trkpt lat="43.7482659" lon="12.1949239"><ele>563.6666666666666</ele><time>2026-04-25T09:54:16.387Z</time></trkpt><trkpt lat="43.7483476" lon="12.1949043"><ele>557.3333333333334</ele><time>2026-04-25T09:54:17.387Z</time></trkpt><trkpt lat="43.7484352" lon="12.1948733"><ele>551.0</ele><time>2026-04-25T09:54:18.387Z</time></trkpt><trkpt lat="43.74852" lon="12.1948378"><ele>544.6666666666667</ele><time>2026-04-25T09:54:19.387Z</time></trkpt><trkpt lat="43.7486013" lon="12.1948102"><ele>538.3333333333334</ele><time>2026-04-25T09:54:20.387Z</time></trkpt><trkpt lat="43.7486799" lon="12.1947856"><ele>532.0</ele><time>2026-04-25T09:54:21.387Z</time></trkpt><trkpt lat="43.7487634" lon="12.1947538"><ele>532.0</ele><time>2026-04-25T09:54:22.387Z</time></trkpt><trkpt lat="43.7488449" lon="12.1947213"><ele>532.0</ele><time>2026-04-25T09:54:23.387Z</time></trkpt><trkpt lat="43.7489254" lon="12.194683"><ele>532.0</ele><time>2026-04-25T09:54:24.387Z</time></trkpt><trkpt lat="43.7490042" lon="12.19464"><ele>532.0</ele><time>2026-04-25T09:54:25.387Z</time></trkpt><trkpt lat="43.7490876" lon="12.1945883"><ele>532.0</ele><time>2026-04-25T09:54:26.386Z</time></trkpt><trkpt lat="43.7491662" lon="12.1945222"><ele>532.0</ele><time>2026-04-25T09:54:27.387Z</time></trkpt><trkpt lat="43.7492411" lon="12.1944457"><ele>532.0</ele><time>2026-04-25T09:54:28.387Z</time></trkpt><trkpt lat="43.749324" lon="12.1943526"><ele>532.0</ele><time>2026-04-25T09:54:29.387Z</time></trkpt><trkpt lat="43.7494239" lon="12.1942647"><ele>532.0</ele><time>2026-04-25T09:54:30.387Z</time></trkpt><trkpt lat="43.7495231" lon="12.1941785"><ele>532.0</ele><time>2026-04-25T09:54:31.387Z</time></trkpt><trkpt lat="43.7496204" lon="12.1940992"><ele>528.8000000000001</ele><time>2026-04-25T09:54:32.386Z</time></trkpt><trkpt lat="43.7497066" lon="12.1940287"><ele>525.6</ele><time>2026-04-25T09:54:33.386Z</time></trkpt><trkpt lat="43.7497865" lon="12.1939655"><ele>522.4000000000001</ele><time>2026-04-25T09:54:34.387Z</time></trkpt><trkpt lat="43.7498601" lon="12.1939069"><ele>519.2</ele><time>2026-04-25T09:54:35.386Z</time></trkpt><trkpt lat="43.7499369" lon="12.1938477"><ele>516.0</ele><time>2026-04-25T09:54:36.386Z</time></trkpt><trkpt lat="43.7500187" lon="12.1937898"><ele>516.0</ele><time>2026-04-25T09:54:37.387Z</time></trkpt><trkpt lat="43.7501068" lon="12.1937333"><ele>516.0</ele><time>2026-04-25T09:54:38.387Z</time></trkpt><trkpt lat="43.7501917" lon="12.1936828"><ele>516.0</ele><time>2026-04-25T09:54:39.387Z</time></trkpt><trkpt lat="43.7502908" lon="12.1936507"><ele>516.0</ele><time>2026-04-25T09:54:40.386Z</time></trkpt><trkpt lat="43.7503968" lon="12.1936448"><ele>516.0</ele><time>2026-04-25T09:54:41.387Z</time></trkpt><trkpt lat="43.7504994" lon="12.193654"><ele>510.6</ele><time>2026-04-25T09:54:42.387Z</time></trkpt><trkpt lat="43.750593" lon="12.1936754"><ele>505.20000000000005</ele><time>2026-04-25T09:54:43.387Z</time></trkpt><trkpt lat="43.7506697" lon="12.1936979"><ele>499.79999999999995</ele><time>2026-04-25T09:54:44.387Z</time></trkpt><trkpt lat="43.7507407" lon="12.1937239"><ele>494.4</ele><time>2026-04-25T09:54:45.387Z</time></trkpt><trkpt lat="43.7508585" lon="12.1937076"><ele>489.0</ele><time>2026-04-25T09:54:47.386Z</time></trkpt><trkpt lat="43.7509176" lon="12.1935937"><ele>489.0</ele><time>2026-04-25T09:54:49.387Z</time></trkpt><trkpt lat="43.7509044" lon="12.1935059"><ele>489.0</ele><time>2026-04-25T09:54:50.387Z</time></trkpt><trkpt lat="43.7508668" lon="12.1934171"><ele>489.0</ele><time>2026-04-25T09:54:51.386Z</time></trkpt><trkpt lat="43.7508006" lon="12.193337"><ele>489.0</ele><time>2026-04-25T09:54:52.386Z</time></trkpt><trkpt lat="43.7507392" lon="12.1932702"><ele>489.0</ele><time>2026-04-25T09:54:53.386Z</time></trkpt><trkpt lat="43.7506966" lon="12.193195"><ele>489.0</ele><time>2026-04-25T09:54:54.387Z</time></trkpt><trkpt lat="43.75068" lon="12.1930644"><ele>489.0</ele><time>2026-04-25T09:54:56.387Z</time></trkpt><trkpt lat="43.7507402" lon="12.1930267"><ele>489.0</ele><time>2026-04-25T09:54:58.387Z</time></trkpt><trkpt lat="43.7507899" lon="12.1930812"><ele>489.0</ele><time>2026-04-25T09:54:59.386Z</time></trkpt><trkpt lat="43.7508407" lon="12.1931641"><ele>489.0</ele><time>2026-04-25T09:55:00.387Z</time></trkpt><trkpt lat="43.7509037" lon="12.1932471"><ele>489.0</ele><time>2026-04-25T09:55:01.387Z</time></trkpt><trkpt lat="43.7509805" lon="12.1933095"><ele>489.0</ele><time>2026-04-25T09:55:02.387Z</time></trkpt><trkpt lat="43.7510647" lon="12.1933411"><ele>486.0</ele><time>2026-04-25T09:55:03.387Z</time></trkpt><trkpt lat="43.7511619" lon="12.1933407"><ele>483.0</ele><time>2026-04-25T09:55:04.387Z</time></trkpt><trkpt lat="43.751279" lon="12.1932972"><ele>480.0</ele><time>2026-04-25T09:55:05.386Z</time></trkpt><trkpt lat="43.7514123" lon="12.1932334"><ele>477.0</ele><time>2026-04-25T09:55:06.386Z</time></trkpt><trkpt lat="43.7515461" lon="12.1931763"><ele>479.75</ele><time>2026-04-25T09:55:07.387Z</time></trkpt><trkpt lat="43.7516796" lon="12.1931472"><ele>482.5</ele><time>2026-04-25T09:55:08.387Z</time></trkpt><trkpt lat="43.7518133" lon="12.1931324"><ele>485.25</ele><time>2026-04-25T09:55:09.387Z</time></trkpt><trkpt lat="43.7519486" lon="12.1931254"><ele>488.0</ele><time>2026-04-25T09:55:10.387Z</time></trkpt><trkpt lat="43.7520751" lon="12.1931175"><ele>492.25</ele><time>2026-04-25T09:55:11.386Z</time></trkpt><trkpt lat="43.7521927" lon="12.1931183"><ele>496.5</ele><time>2026-04-25T09:55:12.386Z</time></trkpt><trkpt lat="43.7523158" lon="12.1931079"><ele>500.75</ele><time>2026-04-25T09:55:13.387Z</time></trkpt><trkpt lat="43.7524455" lon="12.1930936"><ele>505.0</ele><time>2026-04-25T09:55:14.387Z</time></trkpt><trkpt lat="43.7525742" lon="12.1930859"><ele>502.5</ele><time>2026-04-25T09:55:15.386Z</time></trkpt><trkpt lat="43.7527072" lon="12.1930839"><ele>500.0</ele><time>2026-04-25T09:55:16.387Z</time></trkpt><trkpt lat="43.7528272" lon="12.1931058"><ele>497.5</ele><time>2026-04-25T09:55:17.387Z</time></trkpt><trkpt lat="43.7529434" lon="12.1931398"><ele>495.0</ele><time>2026-04-25T09:55:18.387Z</time></trkpt><trkpt lat="43.7530551" lon="12.1931809"><ele>495.0</ele><time>2026-04-25T09:55:19.386Z</time></trkpt><trkpt lat="43.7531516" lon="12.193218"><ele>495.0</ele><time>2026-04-25T09:55:20.387Z</time></trkpt><trkpt lat="43.7532391" lon="12.1932388"><ele>495.0</ele><time>2026-04-25T09:55:21.387Z</time></trkpt><trkpt lat="43.7533212" lon="12.1932332"><ele>495.0</ele><time>2026-04-25T09:55:22.387Z</time></trkpt><trkpt lat="43.7534017" lon="12.1932018"><ele>495.0</ele><time>2026-04-25T09:55:23.386Z</time></trkpt><trkpt lat="43.7534866" lon="12.1931363"><ele>499.0</ele><time>2026-04-25T09:55:24.387Z</time></trkpt><trkpt lat="43.7535721" lon="12.1930725"><ele>503.0</ele><time>2026-04-25T09:55:25.386Z</time></trkpt><trkpt lat="43.7536536" lon="12.193029"><ele>507.0</ele><time>2026-04-25T09:55:26.387Z</time></trkpt><trkpt lat="43.7537302" lon="12.1930285"><ele>511.0</ele><time>2026-04-25T09:55:27.387Z</time></trkpt><trkpt lat="43.753816" lon="12.1930443"><ele>515.0</ele><time>2026-04-25T09:55:28.386Z</time></trkpt><trkpt lat="43.7538983" lon="12.1930586"><ele>519.0</ele><time>2026-04-25T09:55:29.386Z</time></trkpt><trkpt lat="43.753979" lon="12.19305"><ele>519.0</ele><time>2026-04-25T09:55:30.387Z</time></trkpt><trkpt lat="43.754057" lon="12.1930091"><ele>519.0</ele><time>2026-04-25T09:55:31.386Z</time></trkpt><trkpt lat="43.7541333" lon="12.192933"><ele>519.0</ele><time>2026-04-25T09:55:32.387Z</time></trkpt><trkpt lat="43.7542009" lon="12.1928215"><ele>519.0</ele><time>2026-04-25T09:55:33.387Z</time></trkpt><trkpt lat="43.754271" lon="12.1926994"><ele>519.0</ele><time>2026-04-25T09:55:34.386Z</time></trkpt><trkpt lat="43.7543501" lon="12.1925859"><ele>515.4</ele><time>2026-04-25T09:55:35.387Z</time></trkpt><trkpt lat="43.7544224" lon="12.1924756"><ele>511.79999999999995</ele><time>2026-04-25T09:55:36.386Z</time></trkpt><trkpt lat="43.7544748" lon="12.1923669"><ele>508.20000000000005</ele><time>2026-04-25T09:55:37.386Z</time></trkpt><trkpt lat="43.7545067" lon="12.1922548"><ele>504.6</ele><time>2026-04-25T09:55:38.387Z</time></trkpt><trkpt lat="43.7545185" lon="12.1921382"><ele>501.0</ele><time>2026-04-25T09:55:39.387Z</time></trkpt><trkpt lat="43.7545174" lon="12.192025"><ele>501.0</ele><time>2026-04-25T09:55:40.387Z</time></trkpt><trkpt lat="43.7545129" lon="12.191916"><ele>501.0</ele><time>2026-04-25T09:55:41.387Z</time></trkpt><trkpt lat="43.754522" lon="12.1918056"><ele>501.0</ele><time>2026-04-25T09:55:42.387Z</time></trkpt><trkpt lat="43.7545596" lon="12.1916997"><ele>501.0</ele><time>2026-04-25T09:55:43.387Z</time></trkpt><trkpt lat="43.7546403" lon="12.1916209"><ele>501.0</ele><time>2026-04-25T09:55:44.386Z</time></trkpt><trkpt lat="43.7547432" lon="12.1915654"><ele>501.0</ele><time>2026-04-25T09:55:45.386Z</time></trkpt><trkpt lat="43.7548408" lon="12.1915163"><ele>501.0</ele><time>2026-04-25T09:55:46.386Z</time></trkpt><trkpt lat="43.7549181" lon="12.1914537"><ele>501.0</ele><time>2026-04-25T09:55:47.387Z</time></trkpt><trkpt lat="43.7549689" lon="12.1913628"><ele>501.0</ele><time>2026-04-25T09:55:48.386Z</time></trkpt><trkpt lat="43.7549938" lon="12.1912428"><ele>501.0</ele><time>2026-04-25T09:55:49.387Z</time></trkpt><trkpt lat="43.755004" lon="12.1911011"><ele>506.0</ele><time>2026-04-25T09:55:50.387Z</time></trkpt><trkpt lat="43.7549939" lon="12.1909388"><ele>511.0</ele><time>2026-04-25T09:55:51.387Z</time></trkpt><trkpt lat="43.754957" lon="12.190775"><ele>516.0</ele><time>2026-04-25T09:55:52.387Z</time></trkpt><trkpt lat="43.7549237" lon="12.1906173"><ele>521.0</ele><time>2026-04-25T09:55:53.386Z</time></trkpt><trkpt lat="43.7549099" lon="12.1904667"><ele>523.6</ele><time>2026-04-25T09:55:54.387Z</time></trkpt><trkpt lat="43.75492" lon="12.1903165"><ele>526.2</ele><time>2026-04-25T09:55:55.386Z</time></trkpt><trkpt lat="43.7549526" lon="12.1901687"><ele>528.8</ele><time>2026-04-25T09:55:56.386Z</time></trkpt><trkpt lat="43.75498" lon="12.1900304"><ele>531.4</ele><time>2026-04-25T09:55:57.387Z</time></trkpt><trkpt lat="43.7550053" lon="12.1898935"><ele>534.0</ele><time>2026-04-25T09:55:58.387Z</time></trkpt><trkpt lat="43.7550312" lon="12.189762"><ele>536.8</ele><time>2026-04-25T09:55:59.386Z</time></trkpt><trkpt lat="43.7550687" lon="12.1896451"><ele>539.5999999999999</ele><time>2026-04-25T09:56:00.386Z</time></trkpt><trkpt lat="43.7551204" lon="12.189533"><ele>542.4</ele><time>2026-04-25T09:56:01.386Z</time></trkpt><trkpt lat="43.7551874" lon="12.1894286"><ele>545.1999999999999</ele><time>2026-04-25T09:56:02.386Z</time></trkpt><trkpt lat="43.7552755" lon="12.1893413"><ele>548.0</ele><time>2026-04-25T09:56:03.387Z</time></trkpt><trkpt lat="43.7553685" lon="12.1892603"><ele>548.0</ele><time>2026-04-25T09:56:04.387Z</time></trkpt><trkpt lat="43.7554477" lon="12.189183"><ele>548.0</ele><time>2026-04-25T09:56:05.386Z</time></trkpt><trkpt lat="43.7555139" lon="12.189113"><ele>548.0</ele><time>2026-04-25T09:56:06.387Z</time></trkpt><trkpt lat="43.7555815" lon="12.1890681"><ele>548.0</ele><time>2026-04-25T09:56:07.386Z</time></trkpt><trkpt lat="43.7556619" lon="12.1890437"><ele>548.0</ele><time>2026-04-25T09:56:08.387Z</time></trkpt><trkpt lat="43.7557468" lon="12.1891"><ele>548.0</ele><time>2026-04-25T09:56:09.387Z</time></trkpt><trkpt lat="43.7558265" lon="12.1891776"><ele>548.0</ele><time>2026-04-25T09:56:10.386Z</time></trkpt><trkpt lat="43.7559057" lon="12.1892763"><ele>548.0</ele><time>2026-04-25T09:56:11.386Z</time></trkpt><trkpt lat="43.7559872" lon="12.1893874"><ele>548.0</ele><time>2026-04-25T09:56:12.387Z</time></trkpt><trkpt lat="43.7560673" lon="12.1895023"><ele>548.0</ele><time>2026-04-25T09:56:13.387Z</time></trkpt><trkpt lat="43.7561337" lon="12.1896247"><ele>548.0</ele><time>2026-04-25T09:56:14.386Z</time></trkpt><trkpt lat="43.7561826" lon="12.1897587"><ele>549.8333333333333</ele><time>2026-04-25T09:56:15.387Z</time></trkpt><trkpt lat="43.7562038" lon="12.1898982"><ele>551.6666666666666</ele><time>2026-04-25T09:56:16.387Z</time></trkpt><trkpt lat="43.7562141" lon="12.1900217"><ele>553.5</ele><time>2026-04-25T09:56:17.386Z</time></trkpt><trkpt lat="43.7562261" lon="12.1901309"><ele>555.3333333333334</ele><time>2026-04-25T09:56:18.386Z</time></trkpt><trkpt lat="43.7562566" lon="12.1902304"><ele>557.1666666666667</ele><time>2026-04-25T09:56:19.386Z</time></trkpt><trkpt lat="43.7563159" lon="12.1903118"><ele>559.0</ele><time>2026-04-25T09:56:20.387Z</time></trkpt><trkpt lat="43.7563972" lon="12.190379"><ele>559.0</ele><time>2026-04-25T09:56:21.387Z</time></trkpt><trkpt lat="43.756501" lon="12.1904339"><ele>559.0</ele><time>2026-04-25T09:56:22.387Z</time></trkpt><trkpt lat="43.7566064" lon="12.1904912"><ele>559.0</ele><time>2026-04-25T09:56:23.386Z</time></trkpt><trkpt lat="43.7567024" lon="12.1905579"><ele>559.0</ele><time>2026-04-25T09:56:24.386Z</time></trkpt><trkpt lat="43.7567773" lon="12.1906407"><ele>559.0</ele><time>2026-04-25T09:56:25.386Z</time></trkpt><trkpt lat="43.7568276" lon="12.1907327"><ele>555.2</ele><time>2026-04-25T09:56:26.386Z</time></trkpt><trkpt lat="43.7568589" lon="12.1908152"><ele>551.4</ele><time>2026-04-25T09:56:27.386Z</time></trkpt><trkpt lat="43.7569286" lon="12.1908972"><ele>547.6</ele><time>2026-04-25T09:56:29.387Z</time></trkpt><trkpt lat="43.7570141" lon="12.1907979"><ele>543.8</ele><time>2026-04-25T09:56:31.387Z</time></trkpt><trkpt lat="43.7570536" lon="12.1906958"><ele>540.0</ele><time>2026-04-25T09:56:32.386Z</time></trkpt><trkpt lat="43.7570853" lon="12.190561"><ele>540.0</ele><time>2026-04-25T09:56:33.386Z</time></trkpt><trkpt lat="43.7571082" lon="12.1903917"><ele>540.0</ele><time>2026-04-25T09:56:34.387Z</time></trkpt><trkpt lat="43.757132" lon="12.1902217"><ele>540.0</ele><time>2026-04-25T09:56:35.387Z</time></trkpt><trkpt lat="43.7571519" lon="12.1900531"><ele>540.0</ele><time>2026-04-25T09:56:36.386Z</time></trkpt><trkpt lat="43.7571749" lon="12.1898842"><ele>543.5</ele><time>2026-04-25T09:56:37.387Z</time></trkpt><trkpt lat="43.7572068" lon="12.1897261"><ele>547.0</ele><time>2026-04-25T09:56:38.387Z</time></trkpt><trkpt lat="43.7572419" lon="12.1895807"><ele>550.5</ele><time>2026-04-25T09:56:39.386Z</time></trkpt><trkpt lat="43.7572947" lon="12.1894451"><ele>554.0</ele><time>2026-04-25T09:56:40.386Z</time></trkpt><trkpt lat="43.7573504" lon="12.1893069"><ele>554.0</ele><time>2026-04-25T09:56:41.387Z</time></trkpt><trkpt lat="43.7573968" lon="12.189178"><ele>554.0</ele><time>2026-04-25T09:56:42.387Z</time></trkpt><trkpt lat="43.7574327" lon="12.1890633"><ele>554.0</ele><time>2026-04-25T09:56:43.387Z</time></trkpt><trkpt lat="43.7574651" lon="12.1889602"><ele>554.0</ele><time>2026-04-25T09:56:44.387Z</time></trkpt><trkpt lat="43.7575046" lon="12.1888578"><ele>554.0</ele><time>2026-04-25T09:56:45.386Z</time></trkpt><trkpt lat="43.7575549" lon="12.1887726"><ele>554.0</ele><time>2026-04-25T09:56:46.387Z</time></trkpt><trkpt lat="43.7576395" lon="12.1887039"><ele>562.25</ele><time>2026-04-25T09:56:47.387Z</time></trkpt><trkpt lat="43.7577459" lon="12.1886661"><ele>570.5</ele><time>2026-04-25T09:56:48.387Z</time></trkpt><trkpt lat="43.7578675" lon="12.1886584"><ele>578.75</ele><time>2026-04-25T09:56:49.386Z</time></trkpt><trkpt lat="43.7579879" lon="12.1886781"><ele>587.0</ele><time>2026-04-25T09:56:50.386Z</time></trkpt><trkpt lat="43.7581099" lon="12.1887393"><ele>587.0</ele><time>2026-04-25T09:56:51.387Z</time></trkpt><trkpt lat="43.7582144" lon="12.1888346"><ele>587.0</ele><time>2026-04-25T09:56:52.387Z</time></trkpt><trkpt lat="43.7583121" lon="12.1889391"><ele>587.0</ele><time>2026-04-25T09:56:53.387Z</time></trkpt><trkpt lat="43.7583937" lon="12.1890427"><ele>587.0</ele><time>2026-04-25T09:56:54.386Z</time></trkpt><trkpt lat="43.7584741" lon="12.1891247"><ele>586.4</ele><time>2026-04-25T09:56:55.387Z</time></trkpt><trkpt lat="43.7585564" lon="12.189174"><ele>585.8000000000001</ele><time>2026-04-25T09:56:56.387Z</time></trkpt><trkpt lat="43.7586533" lon="12.1891978"><ele>585.2</ele><time>2026-04-25T09:56:57.386Z</time></trkpt><trkpt lat="43.758748" lon="12.1892"><ele>584.6</ele><time>2026-04-25T09:56:58.387Z</time></trkpt><trkpt lat="43.7588423" lon="12.1892082"><ele>584.0</ele><time>2026-04-25T09:56:59.386Z</time></trkpt><trkpt lat="43.7589457" lon="12.1892441"><ele>584.0</ele><time>2026-04-25T09:57:00.387Z</time></trkpt><trkpt lat="43.7590376" lon="12.1893194"><ele>584.0</ele><time>2026-04-25T09:57:01.387Z</time></trkpt><trkpt lat="43.7591013" lon="12.1894307"><ele>584.0</ele><time>2026-04-25T09:57:02.386Z</time></trkpt><trkpt lat="43.7591407" lon="12.1895632"><ele>584.0</ele><time>2026-04-25T09:57:03.387Z</time></trkpt><trkpt lat="43.7591685" lon="12.18971"><ele>584.0</ele><time>2026-04-25T09:57:04.386Z</time></trkpt><trkpt lat="43.7592022" lon="12.1898638"><ele>580.8</ele><time>2026-04-25T09:57:05.387Z</time></trkpt><trkpt lat="43.7592347" lon="12.1900225"><ele>577.5999999999999</ele><time>2026-04-25T09:57:06.387Z</time></trkpt><trkpt lat="43.7592643" lon="12.1901704"><ele>574.4</ele><time>2026-04-25T09:57:07.387Z</time></trkpt><trkpt lat="43.7592842" lon="12.1903091"><ele>571.1999999999999</ele><time>2026-04-25T09:57:08.386Z</time></trkpt><trkpt lat="43.7593062" lon="12.1904378"><ele>568.0</ele><time>2026-04-25T09:57:09.387Z</time></trkpt><trkpt lat="43.7593449" lon="12.190555"><ele>571.4</ele><time>2026-04-25T09:57:10.386Z</time></trkpt><trkpt lat="43.7594142" lon="12.1906579"><ele>574.8</ele><time>2026-04-25T09:57:11.387Z</time></trkpt><trkpt lat="43.7595074" lon="12.1907423"><ele>578.2</ele><time>2026-04-25T09:57:12.387Z</time></trkpt><trkpt lat="43.7596091" lon="12.1908127"><ele>581.6</ele><time>2026-04-25T09:57:13.387Z</time></trkpt><trkpt lat="43.7597124" lon="12.1908849"><ele>585.0</ele><time>2026-04-25T09:57:14.387Z</time></trkpt><trkpt lat="43.7598089" lon="12.1909753"><ele>585.0</ele><time>2026-04-25T09:57:15.386Z</time></trkpt><trkpt lat="43.7599077" lon="12.191092"><ele>585.0</ele><time>2026-04-25T09:57:16.387Z</time></trkpt><trkpt lat="43.7599921" lon="12.1912313"><ele>585.0</ele><time>2026-04-25T09:57:17.386Z</time></trkpt><trkpt lat="43.7600617" lon="12.1913771"><ele>585.0</ele><time>2026-04-25T09:57:18.386Z</time></trkpt><trkpt lat="43.7601335" lon="12.1915306"><ele>584.4</ele><time>2026-04-25T09:57:19.387Z</time></trkpt><trkpt lat="43.7601865" lon="12.1916804"><ele>583.8</ele><time>2026-04-25T09:57:20.387Z</time></trkpt><trkpt lat="43.7602278" lon="12.1918049"><ele>583.2</ele><time>2026-04-25T09:57:21.387Z</time></trkpt><trkpt lat="43.7602701" lon="12.1919179"><ele>582.6</ele><time>2026-04-25T09:57:22.387Z</time></trkpt><trkpt lat="43.7603058" lon="12.1920203"><ele>582.0</ele><time>2026-04-25T09:57:23.386Z</time></trkpt><trkpt lat="43.7603472" lon="12.1921181"><ele>582.0</ele><time>2026-04-25T09:57:24.386Z</time></trkpt><trkpt lat="43.7603985" lon="12.1922049"><ele>582.0</ele><time>2026-04-25T09:57:25.387Z</time></trkpt><trkpt lat="43.7604713" lon="12.1922776"><ele>582.0</ele><time>2026-04-25T09:57:26.387Z</time></trkpt><trkpt lat="43.7605641" lon="12.1923469"><ele>582.0</ele><time>2026-04-25T09:57:27.386Z</time></trkpt><trkpt lat="43.7606662" lon="12.1924203"><ele>582.0</ele><time>2026-04-25T09:57:28.387Z</time></trkpt><trkpt lat="43.7607619" lon="12.1925011"><ele>580.0</ele><time>2026-04-25T09:57:29.386Z</time></trkpt><trkpt lat="43.7608522" lon="12.1925795"><ele>578.0</ele><time>2026-04-25T09:57:30.386Z</time></trkpt><trkpt lat="43.760935" lon="12.19265"><ele>576.0</ele><time>2026-04-25T09:57:31.387Z</time></trkpt><trkpt lat="43.761005" lon="12.1927217"><ele>574.0</ele><time>2026-04-25T09:57:32.387Z</time></trkpt><trkpt lat="43.761065" lon="12.19278"><ele>572.0</ele><time>2026-04-25T09:57:33.387Z</time></trkpt><trkpt lat="43.761115" lon="12.192835"><ele>570.0</ele><time>2026-04-25T09:57:34.387Z</time></trkpt><trkpt lat="43.7612067" lon="12.19293"><ele>567.2</ele><time>2026-04-25T09:57:36.386Z</time></trkpt><trkpt lat="43.76129" lon="12.1929983"><ele>564.4</ele><time>2026-04-25T09:57:38.386Z</time></trkpt><trkpt lat="43.7613517" lon="12.193055"><ele>561.6</ele><time>2026-04-25T09:57:40.387Z</time></trkpt><trkpt lat="43.7614533" lon="12.19321"><ele>558.8</ele><time>2026-04-25T09:57:59.387Z</time></trkpt><trkpt lat="43.7615433" lon="12.1931383"><ele>556.0</ele><time>2026-04-25T09:58:11.387Z</time></trkpt><trkpt lat="43.7615917" lon="12.1930667"><ele>556.0</ele><time>2026-04-25T09:58:14.387Z</time></trkpt><trkpt lat="43.7615283" lon="12.19297"><ele>556.0</ele><time>2026-04-25T09:58:17.387Z</time></trkpt><trkpt lat="43.7614883" lon="12.192895"><ele>556.0</ele><time>2026-04-25T09:58:18.386Z</time></trkpt><trkpt lat="43.761465" lon="12.19278"><ele>556.0</ele><time>2026-04-25T09:58:19.386Z</time></trkpt><trkpt lat="43.7614483" lon="12.1926217"><ele>556.0</ele><time>2026-04-25T09:58:20.387Z</time></trkpt><trkpt lat="43.7614467" lon="12.1924283"><ele>557.6666666666667</ele><time>2026-04-25T09:58:21.386Z</time></trkpt><trkpt lat="43.7614483" lon="12.192225"><ele>559.3333333333334</ele><time>2026-04-25T09:58:22.386Z</time></trkpt><trkpt lat="43.76145" lon="12.19201"><ele>561.0</ele><time>2026-04-25T09:58:23.386Z</time></trkpt><trkpt lat="43.76146" lon="12.1918033"><ele>561.0</ele><time>2026-04-25T09:58:24.387Z</time></trkpt><trkpt lat="43.7614883" lon="12.191595"><ele>561.0</ele><time>2026-04-25T09:58:25.386Z</time></trkpt><trkpt lat="43.76152" lon="12.1914133"><ele>561.0</ele><time>2026-04-25T09:58:26.386Z</time></trkpt><trkpt lat="43.7615433" lon="12.1912567"><ele>561.0</ele><time>2026-04-25T09:58:27.386Z</time></trkpt><trkpt lat="43.7615533" lon="12.191105"><ele>561.4</ele><time>2026-04-25T09:58:28.387Z</time></trkpt><trkpt lat="43.7615383" lon="12.1909633"><ele>561.8</ele><time>2026-04-25T09:58:29.387Z</time></trkpt><trkpt lat="43.761495" lon="12.190845"><ele>562.1999999999999</ele><time>2026-04-25T09:58:30.387Z</time></trkpt><trkpt lat="43.7614217" lon="12.1907667"><ele>562.6</ele><time>2026-04-25T09:58:31.387Z</time></trkpt><trkpt lat="43.7613367" lon="12.1907583"><ele>563.0</ele><time>2026-04-25T09:58:32.387Z</time></trkpt><trkpt lat="43.7612533" lon="12.1908017"><ele>563.0</ele><time>2026-04-25T09:58:33.387Z</time></trkpt><trkpt lat="43.76117" lon="12.1908817"><ele>563.0</ele><time>2026-04-25T09:58:34.387Z</time></trkpt><trkpt lat="43.7610767" lon="12.1909983"><ele>563.0</ele><time>2026-04-25T09:58:35.386Z</time></trkpt><trkpt lat="43.7609733" lon="12.19114"><ele>563.0</ele><time>2026-04-25T09:58:36.387Z</time></trkpt><trkpt lat="43.7608817" lon="12.1913017"><ele>566.8</ele><time>2026-04-25T09:58:37.387Z</time></trkpt><trkpt lat="43.7608167" lon="12.1914783"><ele>570.5999999999999</ele><time>2026-04-25T09:58:38.387Z</time></trkpt><trkpt lat="43.76078" lon="12.19164"><ele>574.4000000000001</ele><time>2026-04-25T09:58:39.387Z</time></trkpt><trkpt lat="43.7607467" lon="12.191775"><ele>578.2</ele><time>2026-04-25T09:58:40.386Z</time></trkpt><trkpt lat="43.7607067" lon="12.1918667"><ele>582.0</ele><time>2026-04-25T09:58:41.386Z</time></trkpt><trkpt lat="43.7606433" lon="12.1919267"><ele>582.0</ele><time>2026-04-25T09:58:42.387Z</time></trkpt><trkpt lat="43.7605733" lon="12.1919233"><ele>582.0</ele><time>2026-04-25T09:58:43.387Z</time></trkpt><trkpt lat="43.7605083" lon="12.1918733"><ele>582.0</ele><time>2026-04-25T09:58:44.387Z</time></trkpt><trkpt lat="43.7604567" lon="12.191785"><ele>582.0</ele><time>2026-04-25T09:58:45.386Z</time></trkpt><trkpt lat="43.7604083" lon="12.19165"><ele>582.0</ele><time>2026-04-25T09:58:46.387Z</time></trkpt><trkpt lat="43.7603683" lon="12.1914767"><ele>583.25</ele><time>2026-04-25T09:58:47.386Z</time></trkpt><trkpt lat="43.7603283" lon="12.1912933"><ele>584.5</ele><time>2026-04-25T09:58:48.387Z</time></trkpt><trkpt lat="43.760305" lon="12.1910967"><ele>585.75</ele><time>2026-04-25T09:58:49.387Z</time></trkpt><trkpt lat="43.7602983" lon="12.1908967"><ele>587.0</ele><time>2026-04-25T09:58:50.386Z</time></trkpt><trkpt lat="43.760285" lon="12.190705"><ele>588.75</ele><time>2026-04-25T09:58:51.386Z</time></trkpt><trkpt lat="43.7602633" lon="12.190515"><ele>590.5</ele><time>2026-04-25T09:58:52.387Z</time></trkpt><trkpt lat="43.7602367" lon="12.1903367"><ele>592.25</ele><time>2026-04-25T09:58:53.386Z</time></trkpt><trkpt lat="43.76019" lon="12.1901583"><ele>594.0</ele><time>2026-04-25T09:58:54.386Z</time></trkpt><trkpt lat="43.7601183" lon="12.1899833"><ele>598.0</ele><time>2026-04-25T09:58:55.387Z</time></trkpt><trkpt lat="43.760015" lon="12.1898233"><ele>602.0</ele><time>2026-04-25T09:58:56.387Z</time></trkpt><trkpt lat="43.75991" lon="12.1896667"><ele>606.0</ele><time>2026-04-25T09:58:57.387Z</time></trkpt><trkpt lat="43.7598117" lon="12.1895033"><ele>606.0</ele><time>2026-04-25T09:58:58.386Z</time></trkpt><trkpt lat="43.7597333" lon="12.1893483"><ele>606.0</ele><time>2026-04-25T09:58:59.387Z</time></trkpt><trkpt lat="43.75968" lon="12.1891933"><ele>606.0</ele><time>2026-04-25T09:59:00.386Z</time></trkpt><trkpt lat="43.75965" lon="12.1890433"><ele>606.0</ele><time>2026-04-25T09:59:01.387Z</time></trkpt><trkpt lat="43.7596583" lon="12.1888983"><ele>603.4</ele><time>2026-04-25T09:59:02.386Z</time></trkpt><trkpt lat="43.7596733" lon="12.18877"><ele>600.8</ele><time>2026-04-25T09:59:03.387Z</time></trkpt><trkpt lat="43.7596533" lon="12.1886317"><ele>598.1999999999999</ele><time>2026-04-25T09:59:04.386Z</time></trkpt><trkpt lat="43.7595983" lon="12.18851"><ele>595.6</ele><time>2026-04-25T09:59:05.387Z</time></trkpt><trkpt lat="43.7595183" lon="12.1883817"><ele>593.0</ele><time>2026-04-25T09:59:06.387Z</time></trkpt><trkpt lat="43.7594367" lon="12.18827"><ele>597.1999999999999</ele><time>2026-04-25T09:59:07.387Z</time></trkpt><trkpt lat="43.7593633" lon="12.1881717"><ele>601.4</ele><time>2026-04-25T09:59:08.387Z</time></trkpt><trkpt lat="43.7592883" lon="12.18809"><ele>605.5999999999999</ele><time>2026-04-25T09:59:09.386Z</time></trkpt><trkpt lat="43.7592" lon="12.18803"><ele>609.8</ele><time>2026-04-25T09:59:10.387Z</time></trkpt><trkpt lat="43.75911" lon="12.187995"><ele>614.0</ele><time>2026-04-25T09:59:11.387Z</time></trkpt><trkpt lat="43.759015" lon="12.1879717"><ele>614.0</ele><time>2026-04-25T09:59:12.387Z</time></trkpt><trkpt lat="43.758925" lon="12.1879267"><ele>614.0</ele><time>2026-04-25T09:59:13.387Z</time></trkpt><trkpt lat="43.7588433" lon="12.187865"><ele>614.0</ele><time>2026-04-25T09:59:14.387Z</time></trkpt><trkpt lat="43.75878" lon="12.1877983"><ele>614.0</ele><time>2026-04-25T09:59:15.387Z</time></trkpt><trkpt lat="43.758735" lon="12.1877133"><ele>614.0</ele><time>2026-04-25T09:59:16.387Z</time></trkpt><trkpt lat="43.75871" lon="12.1876317"><ele>614.0</ele><time>2026-04-25T09:59:17.386Z</time></trkpt><trkpt lat="43.758645" lon="12.1874833"><ele>614.0</ele><time>2026-04-25T09:59:19.387Z</time></trkpt><trkpt lat="43.7585717" lon="12.18737"><ele>614.0</ele><time>2026-04-25T09:59:21.387Z</time></trkpt><trkpt lat="43.7584667" lon="12.1872833"><ele>614.0</ele><time>2026-04-25T09:59:23.387Z</time></trkpt><trkpt lat="43.758405" lon="12.1872383"><ele>614.0</ele><time>2026-04-25T09:59:24.386Z</time></trkpt><trkpt lat="43.7583417" lon="12.187175"><ele>614.0</ele><time>2026-04-25T09:59:25.387Z</time></trkpt><trkpt lat="43.7582883" lon="12.1871083"><ele>614.6666666666666</ele><time>2026-04-25T09:59:26.387Z</time></trkpt><trkpt lat="43.7582367" lon="12.1870483"><ele>615.3333333333333</ele><time>2026-04-25T09:59:27.387Z</time></trkpt><trkpt lat="43.7581617" lon="12.1869467"><ele>616.0</ele><time>2026-04-25T09:59:29.387Z</time></trkpt><trkpt lat="43.7581067" lon="12.1868683"><ele>616.6666666666666</ele><time>2026-04-25T09:59:31.386Z</time></trkpt><trkpt lat="43.7580767" lon="12.1867867"><ele>617.3333333333334</ele><time>2026-04-25T09:59:33.387Z</time></trkpt><trkpt lat="43.7580267" lon="12.1866717"><ele>618.0</ele><time>2026-04-25T09:59:35.386Z</time></trkpt><trkpt lat="43.7579817" lon="12.186585"><ele>620.75</ele><time>2026-04-25T09:59:36.387Z</time></trkpt><trkpt lat="43.7579217" lon="12.186465"><ele>623.5</ele><time>2026-04-25T09:59:37.387Z</time></trkpt><trkpt lat="43.757835" lon="12.186325"><ele>626.25</ele><time>2026-04-25T09:59:38.386Z</time></trkpt><trkpt lat="43.75775" lon="12.1861833"><ele>629.0</ele><time>2026-04-25T09:59:39.387Z</time></trkpt><trkpt lat="43.75768" lon="12.1860567"><ele>630.6</ele><time>2026-04-25T09:59:40.387Z</time></trkpt><trkpt lat="43.7576333" lon="12.1859567"><ele>632.2</ele><time>2026-04-25T09:59:41.386Z</time></trkpt><trkpt lat="43.7576033" lon="12.1858667"><ele>633.8000000000001</ele><time>2026-04-25T09:59:42.386Z</time></trkpt><trkpt lat="43.757645" lon="12.1857117"><ele>635.4</ele><time>2026-04-25T09:59:44.386Z</time></trkpt><trkpt lat="43.7577183" lon="12.1856717"><ele>637.0</ele><time>2026-04-25T09:59:45.387Z</time></trkpt><trkpt lat="43.75782" lon="12.1856717"><ele>635.0</ele><time>2026-04-25T09:59:46.386Z</time></trkpt><trkpt lat="43.757935" lon="12.18569"><ele>633.0</ele><time>2026-04-25T09:59:47.387Z</time></trkpt><trkpt lat="43.7580483" lon="12.1857183"><ele>631.0</ele><time>2026-04-25T09:59:48.386Z</time></trkpt><trkpt lat="43.7581633" lon="12.1857117"><ele>629.0</ele><time>2026-04-25T09:59:49.386Z</time></trkpt><trkpt lat="43.7582867" lon="12.1856833"><ele>631.25</ele><time>2026-04-25T09:59:50.386Z</time></trkpt><trkpt lat="43.7583983" lon="12.1856483"><ele>633.5</ele><time>2026-04-25T09:59:51.387Z</time></trkpt><trkpt lat="43.758505" lon="12.1855967"><ele>635.75</ele><time>2026-04-25T09:59:52.387Z</time></trkpt><trkpt lat="43.7586083" lon="12.1855333"><ele>638.0</ele><time>2026-04-25T09:59:53.386Z</time></trkpt><trkpt lat="43.7587033" lon="12.18545"><ele>638.0</ele><time>2026-04-25T09:59:54.387Z</time></trkpt><trkpt lat="43.758785" lon="12.1853717"><ele>638.0</ele><time>2026-04-25T09:59:55.386Z</time></trkpt><trkpt lat="43.7588683" lon="12.1853017"><ele>638.0</ele><time>2026-04-25T09:59:56.387Z</time></trkpt><trkpt lat="43.7589533" lon="12.1852367"><ele>638.0</ele><time>2026-04-25T09:59:57.387Z</time></trkpt><trkpt lat="43.75904" lon="12.1851767"><ele>638.0</ele><time>2026-04-25T09:59:58.387Z</time></trkpt><trkpt lat="43.7591267" lon="12.1851217"><ele>638.0</ele><time>2026-04-25T09:59:59.386Z</time></trkpt><trkpt lat="43.759225" lon="12.1850733"><ele>638.0</ele><time>2026-04-25T10:00:00.386Z</time></trkpt><trkpt lat="43.75934" lon="12.185025"><ele>638.0</ele><time>2026-04-25T10:00:01.387Z</time></trkpt><trkpt lat="43.7594617" lon="12.18498"><ele>638.0</ele><time>2026-04-25T10:00:02.387Z</time></trkpt><trkpt lat="43.7595733" lon="12.1849283"><ele>637.4</ele><time>2026-04-25T10:00:03.386Z</time></trkpt><trkpt lat="43.75968" lon="12.1848733"><ele>636.8</ele><time>2026-04-25T10:00:04.387Z</time></trkpt><trkpt lat="43.7597767" lon="12.1848033"><ele>636.2</ele><time>2026-04-25T10:00:05.386Z</time></trkpt><trkpt lat="43.7598633" lon="12.1847133"><ele>635.6</ele><time>2026-04-25T10:00:06.386Z</time></trkpt><trkpt lat="43.7599317" lon="12.1846033"><ele>635.0</ele><time>2026-04-25T10:00:07.387Z</time></trkpt><trkpt lat="43.7599983" lon="12.1844733"><ele>635.0</ele><time>2026-04-25T10:00:08.386Z</time></trkpt><trkpt lat="43.7600617" lon="12.1843283"><ele>635.0</ele><time>2026-04-25T10:00:09.387Z</time></trkpt><trkpt lat="43.7601017" lon="12.18417"><ele>635.0</ele><time>2026-04-25T10:00:10.387Z</time></trkpt><trkpt lat="43.7601217" lon="12.1840067"><ele>635.0</ele><time>2026-04-25T10:00:11.387Z</time></trkpt><trkpt lat="43.76014" lon="12.18386"><ele>632.8</ele><time>2026-04-25T10:00:12.387Z</time></trkpt><trkpt lat="43.760165" lon="12.1837167"><ele>630.6</ele><time>2026-04-25T10:00:13.386Z</time></trkpt><trkpt lat="43.760205" lon="12.18358"><ele>628.4</ele><time>2026-04-25T10:00:14.386Z</time></trkpt><trkpt lat="43.7602617" lon="12.1834483"><ele>626.2</ele><time>2026-04-25T10:00:15.387Z</time></trkpt><trkpt lat="43.760335" lon="12.1833317"><ele>624.0</ele><time>2026-04-25T10:00:16.386Z</time></trkpt><trkpt lat="43.760415" lon="12.1832067"><ele>628.75</ele><time>2026-04-25T10:00:17.387Z</time></trkpt><trkpt lat="43.7605117" lon="12.18308"><ele>633.5</ele><time>2026-04-25T10:00:18.387Z</time></trkpt><trkpt lat="43.7606183" lon="12.1829533"><ele>638.25</ele><time>2026-04-25T10:00:19.387Z</time></trkpt><trkpt lat="43.7607283" lon="12.182845"><ele>643.0</ele><time>2026-04-25T10:00:20.387Z</time></trkpt><trkpt lat="43.7608517" lon="12.1827517"><ele>643.0</ele><time>2026-04-25T10:00:21.386Z</time></trkpt><trkpt lat="43.7609867" lon="12.182685"><ele>643.0</ele><time>2026-04-25T10:00:22.386Z</time></trkpt><trkpt lat="43.7611283" lon="12.1826167"><ele>643.0</ele><time>2026-04-25T10:00:23.387Z</time></trkpt><trkpt lat="43.7612717" lon="12.182555"><ele>643.0</ele><time>2026-04-25T10:00:24.387Z</time></trkpt><trkpt lat="43.7614083" lon="12.1824983"><ele>641.0</ele><time>2026-04-25T10:00:25.386Z</time></trkpt><trkpt lat="43.7615433" lon="12.182445"><ele>639.0</ele><time>2026-04-25T10:00:26.387Z</time></trkpt><trkpt lat="43.7616717" lon="12.18239"><ele>637.0</ele><time>2026-04-25T10:00:27.386Z</time></trkpt><trkpt lat="43.7618117" lon="12.1823283"><ele>635.0</ele><time>2026-04-25T10:00:28.386Z</time></trkpt><trkpt lat="43.7619533" lon="12.18227"><ele>639.75</ele><time>2026-04-25T10:00:29.387Z</time></trkpt><trkpt lat="43.762095" lon="12.1822233"><ele>644.5</ele><time>2026-04-25T10:00:30.386Z</time></trkpt><trkpt lat="43.7622383" lon="12.1821733"><ele>649.25</ele><time>2026-04-25T10:00:31.387Z</time></trkpt><trkpt lat="43.7623767" lon="12.182125"><ele>654.0</ele><time>2026-04-25T10:00:32.387Z</time></trkpt><trkpt lat="43.7625083" lon="12.1820833"><ele>654.0</ele><time>2026-04-25T10:00:33.387Z</time></trkpt><trkpt lat="43.7626383" lon="12.1820367"><ele>654.0</ele><time>2026-04-25T10:00:34.387Z</time></trkpt><trkpt lat="43.7627617" lon="12.18199"><ele>654.0</ele><time>2026-04-25T10:00:35.387Z</time></trkpt><trkpt lat="43.7628817" lon="12.1819383"><ele>654.0</ele><time>2026-04-25T10:00:36.386Z</time></trkpt><trkpt lat="43.7629883" lon="12.1818983"><ele>653.8333333333334</ele><time>2026-04-25T10:00:37.387Z</time></trkpt><trkpt lat="43.7630817" lon="12.1818633"><ele>653.6666666666666</ele><time>2026-04-25T10:00:38.387Z</time></trkpt><trkpt lat="43.7631633" lon="12.1818367"><ele>653.5</ele><time>2026-04-25T10:00:39.387Z</time></trkpt><trkpt lat="43.763235" lon="12.181815"><ele>653.3333333333333</ele><time>2026-04-25T10:00:40.387Z</time></trkpt><trkpt lat="43.7633117" lon="12.1818383"><ele>653.1666666666666</ele><time>2026-04-25T10:00:41.387Z</time></trkpt><trkpt lat="43.7633833" lon="12.1819"><ele>653.0</ele><time>2026-04-25T10:00:42.386Z</time></trkpt><trkpt lat="43.76344" lon="12.1819817"><ele>653.0</ele><time>2026-04-25T10:00:43.386Z</time></trkpt><trkpt lat="43.7634617" lon="12.18209"><ele>653.0</ele><time>2026-04-25T10:00:44.387Z</time></trkpt><trkpt lat="43.76347" lon="12.1822133"><ele>653.0</ele><time>2026-04-25T10:00:45.387Z</time></trkpt><trkpt lat="43.763425" lon="12.1823533"><ele>653.0</ele><time>2026-04-25T10:00:46.386Z</time></trkpt><trkpt lat="43.7633483" lon="12.1825117"><ele>653.0</ele><time>2026-04-25T10:00:47.387Z</time></trkpt><trkpt lat="43.7632667" lon="12.1826833"><ele>653.5</ele><time>2026-04-25T10:00:48.387Z</time></trkpt><trkpt lat="43.7631867" lon="12.1828617"><ele>654.0</ele><time>2026-04-25T10:00:49.386Z</time></trkpt><trkpt lat="43.763115" lon="12.1830383"><ele>654.5</ele><time>2026-04-25T10:00:50.386Z</time></trkpt><trkpt lat="43.7630467" lon="12.183205"><ele>655.0</ele><time>2026-04-25T10:00:51.387Z</time></trkpt><trkpt lat="43.762975" lon="12.1833733"><ele>657.2</ele><time>2026-04-25T10:00:52.386Z</time></trkpt><trkpt lat="43.76291" lon="12.1835367"><ele>659.4</ele><time>2026-04-25T10:00:53.387Z</time></trkpt><trkpt lat="43.76286" lon="12.1836617"><ele>661.5999999999999</ele><time>2026-04-25T10:00:54.387Z</time></trkpt><trkpt lat="43.76283" lon="12.1837733"><ele>663.8</ele><time>2026-04-25T10:00:55.386Z</time></trkpt><trkpt lat="43.76282" lon="12.1838933"><ele>666.0</ele><time>2026-04-25T10:00:56.386Z</time></trkpt><trkpt lat="43.7628283" lon="12.1840383"><ele>667.1999999999999</ele><time>2026-04-25T10:00:57.387Z</time></trkpt><trkpt lat="43.7628383" lon="12.1841933"><ele>668.4</ele><time>2026-04-25T10:00:58.386Z</time></trkpt><trkpt lat="43.762845" lon="12.1843333"><ele>669.6</ele><time>2026-04-25T10:00:59.386Z</time></trkpt><trkpt lat="43.7628467" lon="12.1844483"><ele>670.8</ele><time>2026-04-25T10:01:00.386Z</time></trkpt><trkpt lat="43.76286" lon="12.1845967"><ele>672.0</ele><time>2026-04-25T10:01:02.387Z</time></trkpt><trkpt lat="43.7629233" lon="12.1846067"><ele>672.0</ele><time>2026-04-25T10:01:04.387Z</time></trkpt><trkpt lat="43.762975" lon="12.184545"><ele>672.0</ele><time>2026-04-25T10:01:05.387Z</time></trkpt><trkpt lat="43.76302" lon="12.1844633"><ele>672.0</ele><time>2026-04-25T10:01:06.387Z</time></trkpt><trkpt lat="43.763075" lon="12.1843683"><ele>672.0</ele><time>2026-04-25T10:01:07.387Z</time></trkpt><trkpt lat="43.763135" lon="12.184265"><ele>672.0</ele><time>2026-04-25T10:01:08.386Z</time></trkpt><trkpt lat="43.7632" lon="12.1841633"><ele>672.0</ele><time>2026-04-25T10:01:09.387Z</time></trkpt><trkpt lat="43.76328" lon="12.1840583"><ele>671.0</ele><time>2026-04-25T10:01:10.387Z</time></trkpt><trkpt lat="43.763365" lon="12.1839717"><ele>670.0</ele><time>2026-04-25T10:01:11.387Z</time></trkpt><trkpt lat="43.7634483" lon="12.1839067"><ele>669.0</ele><time>2026-04-25T10:01:12.387Z</time></trkpt><trkpt lat="43.7635233" lon="12.1838683"><ele>668.0</ele><time>2026-04-25T10:01:13.386Z</time></trkpt><trkpt lat="43.7635917" lon="12.18386"><ele>667.0</ele><time>2026-04-25T10:01:14.386Z</time></trkpt><trkpt lat="43.7636517" lon="12.1838867"><ele>666.0</ele><time>2026-04-25T10:01:15.386Z</time></trkpt><trkpt lat="43.7636883" lon="12.18406"><ele>671.0</ele><time>2026-04-25T10:01:17.387Z</time></trkpt><trkpt lat="43.7636367" lon="12.184185"><ele>676.0</ele><time>2026-04-25T10:01:18.387Z</time></trkpt><trkpt lat="43.7635883" lon="12.1843017"><ele>681.0</ele><time>2026-04-25T10:01:19.387Z</time></trkpt><trkpt lat="43.7635633" lon="12.1844167"><ele>686.0</ele><time>2026-04-25T10:01:20.387Z</time></trkpt><trkpt lat="43.7635683" lon="12.1845067"><ele>691.0</ele><time>2026-04-25T10:01:21.387Z</time></trkpt><trkpt lat="43.763625" lon="12.1846033"><ele>696.0</ele><time>2026-04-25T10:01:23.386Z</time></trkpt><trkpt lat="43.7637833" lon="12.184525"><ele>696.0</ele><time>2026-04-25T10:01:25.387Z</time></trkpt><trkpt lat="43.7638817" lon="12.1844717"><ele>696.0</ele><time>2026-04-25T10:01:26.387Z</time></trkpt><trkpt lat="43.7639867" lon="12.1844317"><ele>696.0</ele><time>2026-04-25T10:01:27.386Z</time></trkpt><trkpt lat="43.764095" lon="12.1844033"><ele>696.0</ele><time>2026-04-25T10:01:28.386Z</time></trkpt><trkpt lat="43.76419" lon="12.184385"><ele>696.0</ele><time>2026-04-25T10:01:29.387Z</time></trkpt><trkpt lat="43.7642717" lon="12.1843633"><ele>696.0</ele><time>2026-04-25T10:01:30.386Z</time></trkpt><trkpt lat="43.7643533" lon="12.1843167"><ele>696.0</ele><time>2026-04-25T10:01:31.387Z</time></trkpt><trkpt lat="43.764445" lon="12.1842433"><ele>696.0</ele><time>2026-04-25T10:01:32.386Z</time></trkpt><trkpt lat="43.764545" lon="12.1841683"><ele>696.0</ele><time>2026-04-25T10:01:33.386Z</time></trkpt><trkpt lat="43.764655" lon="12.1841117"><ele>696.0</ele><time>2026-04-25T10:01:34.387Z</time></trkpt><trkpt lat="43.76477" lon="12.1840683"><ele>696.0</ele><time>2026-04-25T10:01:35.386Z</time></trkpt><trkpt lat="43.7648867" lon="12.1840217"><ele>696.0</ele><time>2026-04-25T10:01:36.387Z</time></trkpt><trkpt lat="43.7650033" lon="12.1839917"><ele>696.0</ele><time>2026-04-25T10:01:37.386Z</time></trkpt><trkpt lat="43.7651133" lon="12.1839933"><ele>696.0</ele><time>2026-04-25T10:01:38.387Z</time></trkpt><trkpt lat="43.765215" lon="12.1840083"><ele>705.5999999999999</ele><time>2026-04-25T10:01:39.387Z</time></trkpt><trkpt lat="43.765305" lon="12.1840083"><ele>715.2</ele><time>2026-04-25T10:01:40.387Z</time></trkpt><trkpt lat="43.76539" lon="12.1839833"><ele>724.8</ele><time>2026-04-25T10:01:41.387Z</time></trkpt><trkpt lat="43.7654817" lon="12.183925"><ele>734.4000000000001</ele><time>2026-04-25T10:01:42.386Z</time></trkpt><trkpt lat="43.7655783" lon="12.18383"><ele>744.0</ele><time>2026-04-25T10:01:43.386Z</time></trkpt><trkpt lat="43.7656783" lon="12.1837467"><ele>744.0</ele><time>2026-04-25T10:01:44.386Z</time></trkpt><trkpt lat="43.7657933" lon="12.18371"><ele>744.0</ele><time>2026-04-25T10:01:45.387Z</time></trkpt><trkpt lat="43.7658967" lon="12.183715"><ele>744.0</ele><time>2026-04-25T10:01:46.387Z</time></trkpt><trkpt lat="43.7659833" lon="12.18371"><ele>744.0</ele><time>2026-04-25T10:01:47.387Z</time></trkpt><trkpt lat="43.7660583" lon="12.1836917"><ele>744.0</ele><time>2026-04-25T10:01:48.387Z</time></trkpt><trkpt lat="43.7661433" lon="12.1836333"><ele>743.2</ele><time>2026-04-25T10:01:49.386Z</time></trkpt><trkpt lat="43.7662233" lon="12.1835533"><ele>742.4000000000001</ele><time>2026-04-25T10:01:50.387Z</time></trkpt><trkpt lat="43.766315" lon="12.18349"><ele>741.6</ele><time>2026-04-25T10:01:51.387Z</time></trkpt><trkpt lat="43.7664167" lon="12.183465"><ele>740.8</ele><time>2026-04-25T10:01:52.386Z</time></trkpt><trkpt lat="43.7665167" lon="12.1834383"><ele>740.0</ele><time>2026-04-25T10:01:53.386Z</time></trkpt><trkpt lat="43.7666183" lon="12.1833667"><ele>740.0</ele><time>2026-04-25T10:01:54.387Z</time></trkpt><trkpt lat="43.7667217" lon="12.1832933"><ele>740.0</ele><time>2026-04-25T10:01:55.386Z</time></trkpt><trkpt lat="43.7668233" lon="12.18323"><ele>740.0</ele><time>2026-04-25T10:01:56.387Z</time></trkpt><trkpt lat="43.7669233" lon="12.1831883"><ele>740.0</ele><time>2026-04-25T10:01:57.386Z</time></trkpt><trkpt lat="43.7670267" lon="12.1831917"><ele>740.0</ele><time>2026-04-25T10:01:58.387Z</time></trkpt><trkpt lat="43.7671367" lon="12.1832283"><ele>745.75</ele><time>2026-04-25T10:01:59.386Z</time></trkpt><trkpt lat="43.7672433" lon="12.183305"><ele>751.5</ele><time>2026-04-25T10:02:00.387Z</time></trkpt><trkpt lat="43.767345" lon="12.183405"><ele>757.25</ele><time>2026-04-25T10:02:01.386Z</time></trkpt><trkpt lat="43.767445" lon="12.1835117"><ele>763.0</ele><time>2026-04-25T10:02:02.386Z</time></trkpt><trkpt lat="43.7675317" lon="12.1836417"><ele>763.0</ele><time>2026-04-25T10:02:03.386Z</time></trkpt><trkpt lat="43.7676167" lon="12.18378"><ele>763.0</ele><time>2026-04-25T10:02:04.387Z</time></trkpt><trkpt lat="43.7677017" lon="12.183905"><ele>763.0</ele><time>2026-04-25T10:02:05.386Z</time></trkpt><trkpt lat="43.7677617" lon="12.184035"><ele>763.0</ele><time>2026-04-25T10:02:06.387Z</time></trkpt><trkpt lat="43.76783" lon="12.184145"><ele>760.3333333333334</ele><time>2026-04-25T10:02:07.386Z</time></trkpt><trkpt lat="43.7679033" lon="12.18425"><ele>757.6666666666667</ele><time>2026-04-25T10:02:08.387Z</time></trkpt><trkpt lat="43.7679817" lon="12.1843167"><ele>755.0</ele><time>2026-04-25T10:02:09.387Z</time></trkpt><trkpt lat="43.76805" lon="12.1843233"><ele>752.3333333333334</ele><time>2026-04-25T10:02:10.387Z</time></trkpt><trkpt lat="43.7681283" lon="12.1842933"><ele>749.6666666666666</ele><time>2026-04-25T10:02:11.387Z</time></trkpt><trkpt lat="43.7682033" lon="12.1842183"><ele>747.0</ele><time>2026-04-25T10:02:12.386Z</time></trkpt><trkpt lat="43.768275" lon="12.1841"><ele>745.5</ele><time>2026-04-25T10:02:13.387Z</time></trkpt><trkpt lat="43.7683483" lon="12.1839483"><ele>744.0</ele><time>2026-04-25T10:02:14.387Z</time></trkpt><trkpt lat="43.7684217" lon="12.1837933"><ele>742.5</ele><time>2026-04-25T10:02:15.386Z</time></trkpt><trkpt lat="43.7684767" lon="12.1836367"><ele>741.0</ele><time>2026-04-25T10:02:16.387Z</time></trkpt><trkpt lat="43.7685383" lon="12.1834967"><ele>741.0</ele><time>2026-04-25T10:02:17.386Z</time></trkpt><trkpt lat="43.768615" lon="12.18338"><ele>741.0</ele><time>2026-04-25T10:02:18.387Z</time></trkpt><trkpt lat="43.7687133" lon="12.1832717"><ele>741.0</ele><time>2026-04-25T10:02:19.387Z</time></trkpt><trkpt lat="43.7688083" lon="12.18316"><ele>741.0</ele><time>2026-04-25T10:02:20.386Z</time></trkpt><trkpt lat="43.7688967" lon="12.1830433"><ele>750.0</ele><time>2026-04-25T10:02:21.387Z</time></trkpt><trkpt lat="43.768995" lon="12.1829483"><ele>759.0</ele><time>2026-04-25T10:02:22.387Z</time></trkpt><trkpt lat="43.7690967" lon="12.182865"><ele>768.0</ele><time>2026-04-25T10:02:23.386Z</time></trkpt><trkpt lat="43.7691883" lon="12.1827667"><ele>777.0</ele><time>2026-04-25T10:02:24.386Z</time></trkpt><trkpt lat="43.7692767" lon="12.1826633"><ele>776.4000000000001</ele><time>2026-04-25T10:02:25.387Z</time></trkpt><trkpt lat="43.7693683" lon="12.1825567"><ele>775.8000000000001</ele><time>2026-04-25T10:02:26.387Z</time></trkpt><trkpt lat="43.7694683" lon="12.182485"><ele>775.2</ele><time>2026-04-25T10:02:27.387Z</time></trkpt><trkpt lat="43.7695583" lon="12.1824333"><ele>774.6</ele><time>2026-04-25T10:02:28.387Z</time></trkpt><trkpt lat="43.7696333" lon="12.1823717"><ele>774.0</ele><time>2026-04-25T10:02:29.387Z</time></trkpt><trkpt lat="43.7696983" lon="12.18228"><ele>774.0</ele><time>2026-04-25T10:02:30.387Z</time></trkpt><trkpt lat="43.769755" lon="12.18215"><ele>774.0</ele><time>2026-04-25T10:02:31.387Z</time></trkpt><trkpt lat="43.7698167" lon="12.1820233"><ele>774.0</ele><time>2026-04-25T10:02:32.387Z</time></trkpt><trkpt lat="43.7698867" lon="12.1818967"><ele>774.0</ele><time>2026-04-25T10:02:33.387Z</time></trkpt><trkpt lat="43.769965" lon="12.18177"><ele>774.0</ele><time>2026-04-25T10:02:34.386Z</time></trkpt><trkpt lat="43.7700283" lon="12.1816383"><ele>774.0</ele><time>2026-04-25T10:02:35.386Z</time></trkpt><trkpt lat="43.7700933" lon="12.1815133"><ele>774.0</ele><time>2026-04-25T10:02:36.386Z</time></trkpt><trkpt lat="43.7701533" lon="12.1813683"><ele>774.0</ele><time>2026-04-25T10:02:37.387Z</time></trkpt><trkpt lat="43.7702117" lon="12.1812283"><ele>773.25</ele><time>2026-04-25T10:02:38.387Z</time></trkpt><trkpt lat="43.770265" lon="12.1810783"><ele>772.5</ele><time>2026-04-25T10:02:39.387Z</time></trkpt><trkpt lat="43.7703133" lon="12.1809233"><ele>771.75</ele><time>2026-04-25T10:02:40.387Z</time></trkpt><trkpt lat="43.7703683" lon="12.1807683"><ele>771.0</ele><time>2026-04-25T10:02:41.386Z</time></trkpt><trkpt lat="43.7704217" lon="12.1806067"><ele>775.4</ele><time>2026-04-25T10:02:42.387Z</time></trkpt><trkpt lat="43.7704517" lon="12.1804417"><ele>779.8</ele><time>2026-04-25T10:02:43.386Z</time></trkpt><trkpt lat="43.77047" lon="12.1802733"><ele>784.1999999999999</ele><time>2026-04-25T10:02:44.386Z</time></trkpt><trkpt lat="43.7704867" lon="12.1801183"><ele>788.5999999999999</ele><time>2026-04-25T10:02:45.387Z</time></trkpt><trkpt lat="43.7704967" lon="12.1799983"><ele>793.0</ele><time>2026-04-25T10:02:46.387Z</time></trkpt><trkpt lat="43.7705267" lon="12.179905"><ele>793.0</ele><time>2026-04-25T10:02:47.387Z</time></trkpt><trkpt lat="43.77059" lon="12.1798583"><ele>793.0</ele><time>2026-04-25T10:02:48.386Z</time></trkpt><trkpt lat="43.7706633" lon="12.17985"><ele>793.0</ele><time>2026-04-25T10:02:49.387Z</time></trkpt><trkpt lat="43.7707383" lon="12.1798817"><ele>793.0</ele><time>2026-04-25T10:02:50.387Z</time></trkpt><trkpt lat="43.7708333" lon="12.1799833"><ele>793.0</ele><time>2026-04-25T10:02:51.387Z</time></trkpt><trkpt lat="43.770925" lon="12.1800817"><ele>793.0</ele><time>2026-04-25T10:02:52.386Z</time></trkpt><trkpt lat="43.77101" lon="12.18014"><ele>793.0</ele><time>2026-04-25T10:02:53.387Z</time></trkpt><trkpt lat="43.7711033" lon="12.1801817"><ele>793.0</ele><time>2026-04-25T10:02:54.387Z</time></trkpt><trkpt lat="43.7712167" lon="12.1802083"><ele>793.0</ele><time>2026-04-25T10:02:55.386Z</time></trkpt><trkpt lat="43.7713383" lon="12.1802367"><ele>793.0</ele><time>2026-04-25T10:02:56.387Z</time></trkpt><trkpt lat="43.771465" lon="12.1802667"><ele>799.75</ele><time>2026-04-25T10:02:57.386Z</time></trkpt><trkpt lat="43.7715933" lon="12.1803117"><ele>806.5</ele><time>2026-04-25T10:02:58.386Z</time></trkpt><trkpt lat="43.7717167" lon="12.1803683"><ele>813.25</ele><time>2026-04-25T10:02:59.386Z</time></trkpt><trkpt lat="43.77183" lon="12.180425"><ele>820.0</ele><time>2026-04-25T10:03:00.387Z</time></trkpt><trkpt lat="43.7719317" lon="12.1804833"><ele>820.8333333333333</ele><time>2026-04-25T10:03:01.387Z</time></trkpt><trkpt lat="43.7720217" lon="12.1805333"><ele>821.6666666666666</ele><time>2026-04-25T10:03:02.387Z</time></trkpt><trkpt lat="43.772085" lon="12.180575"><ele>822.5</ele><time>2026-04-25T10:03:03.387Z</time></trkpt><trkpt lat="43.7721733" lon="12.1806017"><ele>823.3333333333333</ele><time>2026-04-25T10:03:05.387Z</time></trkpt><trkpt lat="43.77218" lon="12.1804733"><ele>824.1666666666666</ele><time>2026-04-25T10:03:07.387Z</time></trkpt><trkpt lat="43.7721333" lon="12.18038"><ele>825.0</ele><time>2026-04-25T10:03:08.386Z</time></trkpt><trkpt lat="43.7720783" lon="12.1802817"><ele>825.0</ele><time>2026-04-25T10:03:09.386Z</time></trkpt><trkpt lat="43.77201" lon="12.1801733"><ele>825.0</ele><time>2026-04-25T10:03:10.387Z</time></trkpt><trkpt lat="43.77194" lon="12.1800617"><ele>825.0</ele><time>2026-04-25T10:03:11.387Z</time></trkpt><trkpt lat="43.771865" lon="12.1799433"><ele>825.0</ele><time>2026-04-25T10:03:12.386Z</time></trkpt><trkpt lat="43.7718033" lon="12.1798417"><ele>825.0</ele><time>2026-04-25T10:03:13.386Z</time></trkpt><trkpt lat="43.7717617" lon="12.1797733"><ele>827.25</ele><time>2026-04-25T10:03:14.387Z</time></trkpt><trkpt lat="43.771715" lon="12.1796483"><ele>829.5</ele><time>2026-04-25T10:03:16.386Z</time></trkpt><trkpt lat="43.7717667" lon="12.1795367"><ele>831.75</ele><time>2026-04-25T10:03:18.387Z</time></trkpt><trkpt lat="43.7718817" lon="12.1794633"><ele>834.0</ele><time>2026-04-25T10:03:20.386Z</time></trkpt><trkpt lat="43.771955" lon="12.1793067"><ele>828.0</ele><time>2026-04-25T10:03:22.387Z</time></trkpt><trkpt lat="43.7719633" lon="12.1791783"><ele>822.0</ele><time>2026-04-25T10:03:23.386Z</time></trkpt><trkpt lat="43.771955" lon="12.1790217"><ele>816.0</ele><time>2026-04-25T10:03:24.387Z</time></trkpt><trkpt lat="43.7719383" lon="12.17883"><ele>810.0</ele><time>2026-04-25T10:03:25.386Z</time></trkpt><trkpt lat="43.7719183" lon="12.1786267"><ele>806.3333333333333</ele><time>2026-04-25T10:03:26.386Z</time></trkpt><trkpt lat="43.77191" lon="12.1784133"><ele>802.6666666666666</ele><time>2026-04-25T10:03:27.387Z</time></trkpt><trkpt lat="43.7719" lon="12.1782017"><ele>799.0</ele><time>2026-04-25T10:03:28.387Z</time></trkpt><trkpt lat="43.7718817" lon="12.177985"><ele>794.6666666666666</ele><time>2026-04-25T10:03:29.386Z</time></trkpt><trkpt lat="43.771875" lon="12.1777633"><ele>790.3333333333333</ele><time>2026-04-25T10:03:30.387Z</time></trkpt><trkpt lat="43.7718767" lon="12.17755"><ele>786.0</ele><time>2026-04-25T10:03:31.387Z</time></trkpt><trkpt lat="43.7718833" lon="12.1773333"><ele>782.6666666666667</ele><time>2026-04-25T10:03:32.386Z</time></trkpt><trkpt lat="43.7718783" lon="12.17712"><ele>779.3333333333334</ele><time>2026-04-25T10:03:33.386Z</time></trkpt><trkpt lat="43.7718717" lon="12.176905"><ele>776.0</ele><time>2026-04-25T10:03:34.386Z</time></trkpt><trkpt lat="43.771865" lon="12.1767083"><ele>774.75</ele><time>2026-04-25T10:03:35.386Z</time></trkpt><trkpt lat="43.77186" lon="12.1765117"><ele>773.5</ele><time>2026-04-25T10:03:36.386Z</time></trkpt><trkpt lat="43.7718683" lon="12.1763183"><ele>772.25</ele><time>2026-04-25T10:03:37.386Z</time></trkpt><trkpt lat="43.7718783" lon="12.176125"><ele>771.0</ele><time>2026-04-25T10:03:38.386Z</time></trkpt><trkpt lat="43.7718867" lon="12.1759333"><ele>771.0</ele><time>2026-04-25T10:03:39.387Z</time></trkpt><trkpt lat="43.7718933" lon="12.175745"><ele>771.0</ele><time>2026-04-25T10:03:40.386Z</time></trkpt><trkpt lat="43.771905" lon="12.1755633"><ele>771.0</ele><time>2026-04-25T10:03:41.387Z</time></trkpt><trkpt lat="43.7719217" lon="12.1753733"><ele>771.0</ele><time>2026-04-25T10:03:42.386Z</time></trkpt><trkpt lat="43.7719483" lon="12.1751933"><ele>771.5999999999999</ele><time>2026-04-25T10:03:43.386Z</time></trkpt><trkpt lat="43.7719833" lon="12.17502"><ele>772.2</ele><time>2026-04-25T10:03:44.387Z</time></trkpt><trkpt lat="43.7720183" lon="12.1748583"><ele>772.8</ele><time>2026-04-25T10:03:45.387Z</time></trkpt><trkpt lat="43.772055" lon="12.1747217"><ele>773.4000000000001</ele><time>2026-04-25T10:03:46.387Z</time></trkpt><trkpt lat="43.77209" lon="12.1746117"><ele>774.0</ele><time>2026-04-25T10:03:47.387Z</time></trkpt><trkpt lat="43.77213" lon="12.1745267"><ele>775.5</ele><time>2026-04-25T10:03:48.387Z</time></trkpt><trkpt lat="43.7721883" lon="12.1744717"><ele>777.0</ele><time>2026-04-25T10:03:49.386Z</time></trkpt><trkpt lat="43.7722567" lon="12.17448"><ele>778.5</ele><time>2026-04-25T10:03:50.386Z</time></trkpt><trkpt lat="43.77233" lon="12.1745267"><ele>780.0</ele><time>2026-04-25T10:03:51.387Z</time></trkpt><trkpt lat="43.7724117" lon="12.1745667"><ele>781.5</ele><time>2026-04-25T10:03:52.387Z</time></trkpt><trkpt lat="43.772485" lon="12.1745767"><ele>783.0</ele><time>2026-04-25T10:03:53.387Z</time></trkpt><trkpt lat="43.7725983" lon="12.174475"><ele>783.0</ele><time>2026-04-25T10:03:55.386Z</time></trkpt><trkpt lat="43.7726533" lon="12.174375"><ele>783.0</ele><time>2026-04-25T10:03:56.386Z</time></trkpt><trkpt lat="43.7726967" lon="12.1742417"><ele>783.0</ele><time>2026-04-25T10:03:57.387Z</time></trkpt><trkpt lat="43.77273" lon="12.1740967"><ele>783.0</ele><time>2026-04-25T10:03:58.387Z</time></trkpt><trkpt lat="43.7727583" lon="12.17394"><ele>783.0</ele><time>2026-04-25T10:03:59.387Z</time></trkpt><trkpt lat="43.7727783" lon="12.173775"><ele>774.0</ele><time>2026-04-25T10:04:00.387Z</time></trkpt><trkpt lat="43.7727883" lon="12.173605"><ele>765.0</ele><time>2026-04-25T10:04:01.387Z</time></trkpt><trkpt lat="43.7727933" lon="12.1734467"><ele>756.0</ele><time>2026-04-25T10:04:02.387Z</time></trkpt><trkpt lat="43.7727717" lon="12.1732867"><ele>747.0</ele><time>2026-04-25T10:04:03.387Z</time></trkpt><trkpt lat="43.772735" lon="12.1731367"><ele>758.25</ele><time>2026-04-25T10:04:04.386Z</time></trkpt><trkpt lat="43.7726867" lon="12.17298"><ele>769.5</ele><time>2026-04-25T10:04:05.387Z</time></trkpt><trkpt lat="43.7726383" lon="12.172815"><ele>780.75</ele><time>2026-04-25T10:04:06.387Z</time></trkpt><trkpt lat="43.7726017" lon="12.1726483"><ele>792.0</ele><time>2026-04-25T10:04:07.387Z</time></trkpt><trkpt lat="43.77257" lon="12.17249"><ele>791.6</ele><time>2026-04-25T10:04:08.386Z</time></trkpt><trkpt lat="43.7725383" lon="12.17235"><ele>791.2</ele><time>2026-04-25T10:04:09.387Z</time></trkpt><trkpt lat="43.7725083" lon="12.1722167"><ele>790.8</ele><time>2026-04-25T10:04:10.386Z</time></trkpt><trkpt lat="43.77248" lon="12.1720983"><ele>790.4</ele><time>2026-04-25T10:04:11.386Z</time></trkpt><trkpt lat="43.772485" lon="12.1719833"><ele>790.0</ele><time>2026-04-25T10:04:12.387Z</time></trkpt><trkpt lat="43.7725217" lon="12.171865"><ele>790.0</ele><time>2026-04-25T10:04:13.387Z</time></trkpt><trkpt lat="43.7725833" lon="12.1717367"><ele>790.0</ele><time>2026-04-25T10:04:14.387Z</time></trkpt><trkpt lat="43.772635" lon="12.17159"><ele>790.0</ele><time>2026-04-25T10:04:15.386Z</time></trkpt><trkpt lat="43.7726617" lon="12.171435"><ele>790.0</ele><time>2026-04-25T10:04:16.387Z</time></trkpt><trkpt lat="43.7726783" lon="12.1712933"><ele>790.0</ele><time>2026-04-25T10:04:17.387Z</time></trkpt><trkpt lat="43.7727" lon="12.1711667"><ele>790.6666666666666</ele><time>2026-04-25T10:04:18.387Z</time></trkpt><trkpt lat="43.772735" lon="12.1710467"><ele>791.3333333333333</ele><time>2026-04-25T10:04:19.387Z</time></trkpt><trkpt lat="43.7727867" lon="12.1709417"><ele>792.0</ele><time>2026-04-25T10:04:20.386Z</time></trkpt><trkpt lat="43.772835" lon="12.1708483"><ele>792.6666666666667</ele><time>2026-04-25T10:04:21.387Z</time></trkpt><trkpt lat="43.7728767" lon="12.1707783"><ele>793.3333333333334</ele><time>2026-04-25T10:04:22.386Z</time></trkpt><trkpt lat="43.7729133" lon="12.1706967"><ele>794.0</ele><time>2026-04-25T10:04:24.387Z</time></trkpt><trkpt lat="43.7729567" lon="12.170625"><ele>794.0</ele><time>2026-04-25T10:05:14.387Z</time></trkpt><trkpt lat="43.7730417" lon="12.17059"><ele>794.0</ele><time>2026-04-25T10:05:16.386Z</time></trkpt><trkpt lat="43.77311" lon="12.17061"><ele>794.0</ele><time>2026-04-25T10:05:17.386Z</time></trkpt><trkpt lat="43.77324" lon="12.1706133"><ele>794.0</ele><time>2026-04-25T10:05:19.387Z</time></trkpt><trkpt lat="43.7733133" lon="12.1705717"><ele>794.0</ele><time>2026-04-25T10:05:20.386Z</time></trkpt><trkpt lat="43.7733817" lon="12.170495"><ele>794.0</ele><time>2026-04-25T10:05:21.387Z</time></trkpt><trkpt lat="43.7734533" lon="12.1703883"><ele>794.0</ele><time>2026-04-25T10:05:22.386Z</time></trkpt><trkpt lat="43.7735067" lon="12.1702817"><ele>794.0</ele><time>2026-04-25T10:05:23.387Z</time></trkpt><trkpt lat="43.77355" lon="12.1701583"><ele>794.0</ele><time>2026-04-25T10:05:24.386Z</time></trkpt><trkpt lat="43.7736017" lon="12.170045"><ele>794.0</ele><time>2026-04-25T10:05:25.386Z</time></trkpt><trkpt lat="43.7735033" lon="12.169745"><ele>796.6666666666667</ele><time>2026-04-25T10:05:27.105Z</time></trkpt><trkpt lat="43.7736517" lon="12.1697917"><ele>799.3333333333333</ele><time>2026-04-25T10:05:28.293Z</time></trkpt><trkpt lat="43.77384" lon="12.1697467"><ele>802.0</ele><time>2026-04-25T10:05:29.392Z</time></trkpt><trkpt lat="43.7739633" lon="12.16974"><ele>801.9999999999999</ele><time>2026-04-25T10:05:30.392Z</time></trkpt><trkpt lat="43.774045" lon="12.1697083"><ele>802.0</ele><time>2026-04-25T10:05:31.392Z</time></trkpt><trkpt lat="43.7741233" lon="12.1696583"><ele>802.0</ele><time>2026-04-25T10:05:32.392Z</time></trkpt><trkpt lat="43.774195" lon="12.1695983"><ele>802.0</ele><time>2026-04-25T10:05:33.392Z</time></trkpt><trkpt lat="43.7742567" lon="12.1695683"><ele>801.9999999999999</ele><time>2026-04-25T10:05:34.391Z</time></trkpt><trkpt lat="43.77437" lon="12.1696383"><ele>802.0</ele><time>2026-04-25T10:05:36.392Z</time></trkpt><trkpt lat="43.7744233" lon="12.1697517"><ele>804.25</ele><time>2026-04-25T10:05:37.392Z</time></trkpt><trkpt lat="43.7744733" lon="12.16989"><ele>806.5</ele><time>2026-04-25T10:05:38.392Z</time></trkpt><trkpt lat="43.7745333" lon="12.170065"><ele>808.75</ele><time>2026-04-25T10:05:39.391Z</time></trkpt><trkpt lat="43.7746" lon="12.1702383"><ele>811.0</ele><time>2026-04-25T10:05:40.391Z</time></trkpt><trkpt lat="43.7746667" lon="12.1704017"><ele>811.0</ele><time>2026-04-25T10:05:41.392Z</time></trkpt><trkpt lat="43.7747117" lon="12.1705517"><ele>811.0</ele><time>2026-04-25T10:05:42.391Z</time></trkpt><trkpt lat="43.7747367" lon="12.1706967"><ele>811.0</ele><time>2026-04-25T10:05:43.392Z</time></trkpt><trkpt lat="43.7747533" lon="12.1708517"><ele>811.0</ele><time>2026-04-25T10:05:44.392Z</time></trkpt><trkpt lat="43.774775" lon="12.1710183"><ele>809.4999999999999</ele><time>2026-04-25T10:05:45.392Z</time></trkpt><trkpt lat="43.7748017" lon="12.1711717"><ele>808.0</ele><time>2026-04-25T10:05:46.392Z</time></trkpt><trkpt lat="43.7748283" lon="12.1712867"><ele>806.5</ele><time>2026-04-25T10:05:47.392Z</time></trkpt><trkpt lat="43.7748683" lon="12.17137"><ele>805.0</ele><time>2026-04-25T10:05:48.392Z</time></trkpt><trkpt lat="43.7749183" lon="12.17144"><ele>803.4999999999999</ele><time>2026-04-25T10:05:49.392Z</time></trkpt><trkpt lat="43.77501" lon="12.171455"><ele>802.0</ele><time>2026-04-25T10:05:50.392Z</time></trkpt><trkpt lat="43.775125" lon="12.1714433"><ele>804.4000000000001</ele><time>2026-04-25T10:05:51.391Z</time></trkpt><trkpt lat="43.7752383" lon="12.1714217"><ele>806.8000000000001</ele><time>2026-04-25T10:05:52.391Z</time></trkpt><trkpt lat="43.7753417" lon="12.1714483"><ele>809.2</ele><time>2026-04-25T10:05:53.391Z</time></trkpt><trkpt lat="43.7754283" lon="12.1715317"><ele>811.6</ele><time>2026-04-25T10:05:54.392Z</time></trkpt><trkpt lat="43.775525" lon="12.17164"><ele>814.0</ele><time>2026-04-25T10:05:55.391Z</time></trkpt><trkpt lat="43.775635" lon="12.1717317"><ele>814.0</ele><time>2026-04-25T10:05:56.392Z</time></trkpt><trkpt lat="43.7757667" lon="12.17179"><ele>814.0</ele><time>2026-04-25T10:05:57.392Z</time></trkpt><trkpt lat="43.7759" lon="12.1718367"><ele>814.0</ele><time>2026-04-25T10:05:58.392Z</time></trkpt><trkpt lat="43.7760167" lon="12.1719267"><ele>814.0</ele><time>2026-04-25T10:05:59.392Z</time></trkpt><trkpt lat="43.7761267" lon="12.172025"><ele>816.25</ele><time>2026-04-25T10:06:00.392Z</time></trkpt><trkpt lat="43.7762433" lon="12.1721283"><ele>818.5</ele><time>2026-04-25T10:06:01.391Z</time></trkpt><trkpt lat="43.776375" lon="12.1722083"><ele>820.75</ele><time>2026-04-25T10:06:02.392Z</time></trkpt><trkpt lat="43.7765067" lon="12.1722733"><ele>823.0</ele><time>2026-04-25T10:06:03.392Z</time></trkpt><trkpt lat="43.7766233" lon="12.1723217"><ele>823.0</ele><time>2026-04-25T10:06:04.391Z</time></trkpt><trkpt lat="43.7767183" lon="12.1723433"><ele>823.0</ele><time>2026-04-25T10:06:05.391Z</time></trkpt><trkpt lat="43.776815" lon="12.1723183"><ele>823.0</ele><time>2026-04-25T10:06:06.391Z</time></trkpt><trkpt lat="43.7768967" lon="12.1722583"><ele>823.0</ele><time>2026-04-25T10:06:07.392Z</time></trkpt><trkpt lat="43.7769533" lon="12.17218"><ele>823.0</ele><time>2026-04-25T10:06:08.392Z</time></trkpt><trkpt lat="43.776985" lon="12.1720733"><ele>823.0</ele><time>2026-04-25T10:06:09.392Z</time></trkpt><trkpt lat="43.7770017" lon="12.1719517"><ele>823.0</ele><time>2026-04-25T10:06:10.391Z</time></trkpt><trkpt lat="43.7770117" lon="12.171825"><ele>823.0</ele><time>2026-04-25T10:06:11.391Z</time></trkpt><trkpt lat="43.7770333" lon="12.1717233"><ele>823.0</ele><time>2026-04-25T10:06:12.392Z</time></trkpt><trkpt lat="43.7771433" lon="12.1717217"><ele>823.0</ele><time>2026-04-25T10:06:14.392Z</time></trkpt><trkpt lat="43.7772217" lon="12.1717783"><ele>823.0</ele><time>2026-04-25T10:06:15.39Z</time></trkpt><trkpt lat="43.77732" lon="12.1718483"><ele>823.0</ele><time>2026-04-25T10:06:16.391Z</time></trkpt><trkpt lat="43.777435" lon="12.171925"><ele>823.0</ele><time>2026-04-25T10:06:17.391Z</time></trkpt><trkpt lat="43.7775433" lon="12.1719867"><ele>823.0</ele><time>2026-04-25T10:06:18.391Z</time></trkpt><trkpt lat="43.7776383" lon="12.1720283"><ele>822.8</ele><time>2026-04-25T10:06:19.39Z</time></trkpt><trkpt lat="43.7777133" lon="12.1720567"><ele>822.5999999999999</ele><time>2026-04-25T10:06:20.39Z</time></trkpt><trkpt lat="43.7777983" lon="12.1720417"><ele>822.4000000000001</ele><time>2026-04-25T10:06:21.391Z</time></trkpt><trkpt lat="43.77788" lon="12.171965"><ele>822.2</ele><time>2026-04-25T10:06:22.39Z</time></trkpt><trkpt lat="43.77797" lon="12.17189"><ele>822.0</ele><time>2026-04-25T10:06:23.391Z</time></trkpt><trkpt lat="43.77808" lon="12.1718533"><ele>822.0</ele><time>2026-04-25T10:06:24.39Z</time></trkpt><trkpt lat="43.7781917" lon="12.17186"><ele>822.0</ele><time>2026-04-25T10:06:25.391Z</time></trkpt><trkpt lat="43.7783067" lon="12.1719017"><ele>822.0</ele><time>2026-04-25T10:06:26.39Z</time></trkpt><trkpt lat="43.7784217" lon="12.1719633"><ele>822.0</ele><time>2026-04-25T10:06:27.39Z</time></trkpt><trkpt lat="43.77853" lon="12.17202"><ele>822.5</ele><time>2026-04-25T10:06:28.391Z</time></trkpt><trkpt lat="43.7786483" lon="12.1720567"><ele>823.0</ele><time>2026-04-25T10:06:29.39Z</time></trkpt><trkpt lat="43.7787683" lon="12.1720983"><ele>823.5</ele><time>2026-04-25T10:06:30.39Z</time></trkpt><trkpt lat="43.7789033" lon="12.172135"><ele>824.0</ele><time>2026-04-25T10:06:31.391Z</time></trkpt><trkpt lat="43.779045" lon="12.1721633"><ele>824.0</ele><time>2026-04-25T10:06:32.39Z</time></trkpt><trkpt lat="43.779195" lon="12.1721883"><ele>824.0</ele><time>2026-04-25T10:06:33.391Z</time></trkpt><trkpt lat="43.7793467" lon="12.17221"><ele>824.0</ele><time>2026-04-25T10:06:34.39Z</time></trkpt><trkpt lat="43.779495" lon="12.1722283"><ele>821.75</ele><time>2026-04-25T10:06:35.39Z</time></trkpt><trkpt lat="43.7796367" lon="12.1722267"><ele>819.5</ele><time>2026-04-25T10:06:36.39Z</time></trkpt><trkpt lat="43.779785" lon="12.1722033"><ele>817.25</ele><time>2026-04-25T10:06:37.391Z</time></trkpt><trkpt lat="43.779925" lon="12.172175"><ele>815.0</ele><time>2026-04-25T10:06:38.391Z</time></trkpt><trkpt lat="43.7800617" lon="12.172145"><ele>810.0</ele><time>2026-04-25T10:06:39.391Z</time></trkpt><trkpt lat="43.780195" lon="12.172125"><ele>805.0</ele><time>2026-04-25T10:06:40.391Z</time></trkpt><trkpt lat="43.7803117" lon="12.1720983"><ele>800.0</ele><time>2026-04-25T10:06:41.39Z</time></trkpt><trkpt lat="43.7804267" lon="12.1720617"><ele>795.0</ele><time>2026-04-25T10:06:42.391Z</time></trkpt><trkpt lat="43.7805383" lon="12.1720133"><ele>795.0</ele><time>2026-04-25T10:06:43.391Z</time></trkpt><trkpt lat="43.78063" lon="12.171945"><ele>795.0</ele><time>2026-04-25T10:06:44.39Z</time></trkpt><trkpt lat="43.7807067" lon="12.1718633"><ele>795.0</ele><time>2026-04-25T10:06:45.391Z</time></trkpt><trkpt lat="43.7807767" lon="12.1718117"><ele>795.0</ele><time>2026-04-25T10:06:46.39Z</time></trkpt><trkpt lat="43.78086" lon="12.1717967"><ele>795.0</ele><time>2026-04-25T10:06:47.391Z</time></trkpt><trkpt lat="43.780965" lon="12.1718267"><ele>792.2</ele><time>2026-04-25T10:06:48.391Z</time></trkpt><trkpt lat="43.7810517" lon="12.1719267"><ele>789.4</ele><time>2026-04-25T10:06:49.39Z</time></trkpt><trkpt lat="43.7811267" lon="12.1720467"><ele>786.5999999999999</ele><time>2026-04-25T10:06:50.391Z</time></trkpt><trkpt lat="43.7811933" lon="12.1721617"><ele>783.8</ele><time>2026-04-25T10:06:51.391Z</time></trkpt><trkpt lat="43.78125" lon="12.1722467"><ele>781.0</ele><time>2026-04-25T10:06:52.391Z</time></trkpt><trkpt lat="43.781325" lon="12.1722967"><ele>781.0</ele><time>2026-04-25T10:06:53.39Z</time></trkpt><trkpt lat="43.7814117" lon="12.1723167"><ele>781.0</ele><time>2026-04-25T10:06:54.39Z</time></trkpt><trkpt lat="43.78152" lon="12.1722933"><ele>781.0</ele><time>2026-04-25T10:06:55.39Z</time></trkpt><trkpt lat="43.7816433" lon="12.1722833"><ele>781.0</ele><time>2026-04-25T10:06:56.391Z</time></trkpt><trkpt lat="43.78176" lon="12.1722883"><ele>781.0</ele><time>2026-04-25T10:06:57.391Z</time></trkpt><trkpt lat="43.781845" lon="12.1723783"><ele>779.5</ele><time>2026-04-25T10:06:58.39Z</time></trkpt><trkpt lat="43.7819267" lon="12.17245"><ele>778.0</ele><time>2026-04-25T10:06:59.391Z</time></trkpt><trkpt lat="43.7820267" lon="12.1724817"><ele>776.5</ele><time>2026-04-25T10:07:00.39Z</time></trkpt><trkpt lat="43.78215" lon="12.1724617"><ele>775.0</ele><time>2026-04-25T10:07:01.391Z</time></trkpt><trkpt lat="43.782285" lon="12.1724283"><ele>775.0</ele><time>2026-04-25T10:07:02.39Z</time></trkpt><trkpt lat="43.7824283" lon="12.172415"><ele>775.0</ele><time>2026-04-25T10:07:03.39Z</time></trkpt><trkpt lat="43.7825667" lon="12.1724217"><ele>775.0</ele><time>2026-04-25T10:07:04.39Z</time></trkpt><trkpt lat="43.7827033" lon="12.172445"><ele>775.0</ele><time>2026-04-25T10:07:05.39Z</time></trkpt><trkpt lat="43.7828417" lon="12.1724783"><ele>771.0</ele><time>2026-04-25T10:07:06.391Z</time></trkpt><trkpt lat="43.7829767" lon="12.172525"><ele>767.0</ele><time>2026-04-25T10:07:07.391Z</time></trkpt><trkpt lat="43.7830917" lon="12.172585"><ele>763.0</ele><time>2026-04-25T10:07:08.391Z</time></trkpt><trkpt lat="43.78319" lon="12.1726617"><ele>759.0</ele><time>2026-04-25T10:07:09.39Z</time></trkpt><trkpt lat="43.7832817" lon="12.172775"><ele>759.0</ele><time>2026-04-25T10:07:10.39Z</time></trkpt><trkpt lat="43.7833467" lon="12.1729317"><ele>759.0</ele><time>2026-04-25T10:07:11.391Z</time></trkpt><trkpt lat="43.7834267" lon="12.1730933"><ele>759.0</ele><time>2026-04-25T10:07:12.39Z</time></trkpt><trkpt lat="43.783525" lon="12.1732317"><ele>759.0</ele><time>2026-04-25T10:07:13.391Z</time></trkpt><trkpt lat="43.7836467" lon="12.1733483"><ele>757.75</ele><time>2026-04-25T10:07:14.391Z</time></trkpt><trkpt lat="43.7837783" lon="12.1734433"><ele>756.5</ele><time>2026-04-25T10:07:15.39Z</time></trkpt><trkpt lat="43.7839083" lon="12.1735233"><ele>755.25</ele><time>2026-04-25T10:07:16.39Z</time></trkpt><trkpt lat="43.78403" lon="12.1736067"><ele>754.0</ele><time>2026-04-25T10:07:17.39Z</time></trkpt><trkpt lat="43.78414" lon="12.1736867"><ele>754.0</ele><time>2026-04-25T10:07:18.391Z</time></trkpt><trkpt lat="43.78424" lon="12.1737467"><ele>754.0</ele><time>2026-04-25T10:07:19.39Z</time></trkpt><trkpt lat="43.7843383" lon="12.1737683"><ele>754.0</ele><time>2026-04-25T10:07:20.391Z</time></trkpt><trkpt lat="43.7844233" lon="12.1737633"><ele>754.0</ele><time>2026-04-25T10:07:21.391Z</time></trkpt><trkpt lat="43.784495" lon="12.173735"><ele>754.0</ele><time>2026-04-25T10:07:22.39Z</time></trkpt><trkpt lat="43.7845867" lon="12.173685"><ele>753.8000000000001</ele><time>2026-04-25T10:07:24.39Z</time></trkpt><trkpt lat="43.7846717" lon="12.173735"><ele>753.6</ele><time>2026-04-25T10:07:26.391Z</time></trkpt><trkpt lat="43.784715" lon="12.1738467"><ele>753.4</ele><time>2026-04-25T10:07:28.391Z</time></trkpt><trkpt lat="43.784605" lon="12.1739383"><ele>753.2</ele><time>2026-04-25T10:07:30.39Z</time></trkpt><trkpt lat="43.7844983" lon="12.1739683"><ele>753.0</ele><time>2026-04-25T10:07:31.391Z</time></trkpt><trkpt lat="43.7844067" lon="12.17402"><ele>751.5</ele><time>2026-04-25T10:07:32.391Z</time></trkpt><trkpt lat="43.78433" lon="12.1740983"><ele>750.0</ele><time>2026-04-25T10:07:33.391Z</time></trkpt><trkpt lat="43.784255" lon="12.1741767"><ele>748.5</ele><time>2026-04-25T10:07:34.391Z</time></trkpt><trkpt lat="43.7841867" lon="12.1742383"><ele>747.0</ele><time>2026-04-25T10:07:35.391Z</time></trkpt><trkpt lat="43.78412" lon="12.174265"><ele>745.5</ele><time>2026-04-25T10:07:36.391Z</time></trkpt><trkpt lat="43.78405" lon="12.1742733"><ele>744.0</ele><time>2026-04-25T10:07:37.39Z</time></trkpt><trkpt lat="43.7839733" lon="12.1742467"><ele>744.0</ele><time>2026-04-25T10:07:38.391Z</time></trkpt><trkpt lat="43.7838933" lon="12.174215"><ele>744.0</ele><time>2026-04-25T10:07:39.39Z</time></trkpt><trkpt lat="43.7838133" lon="12.174175"><ele>744.0</ele><time>2026-04-25T10:07:40.39Z</time></trkpt><trkpt lat="43.78374" lon="12.174125"><ele>744.0</ele><time>2026-04-25T10:07:41.391Z</time></trkpt><trkpt lat="43.783665" lon="12.1740583"><ele>744.0</ele><time>2026-04-25T10:07:42.39Z</time></trkpt><trkpt lat="43.78358" lon="12.1739917"><ele>744.0</ele><time>2026-04-25T10:07:43.39Z</time></trkpt><trkpt lat="43.7834833" lon="12.173945"><ele>746.6666666666666</ele><time>2026-04-25T10:07:44.391Z</time></trkpt><trkpt lat="43.783395" lon="12.1738983"><ele>749.3333333333334</ele><time>2026-04-25T10:07:45.39Z</time></trkpt><trkpt lat="43.783315" lon="12.1738567"><ele>752.0</ele><time>2026-04-25T10:07:46.39Z</time></trkpt><trkpt lat="43.7832417" lon="12.1738217"><ele>754.6666666666667</ele><time>2026-04-25T10:07:47.391Z</time></trkpt><trkpt lat="43.7831683" lon="12.1738"><ele>757.3333333333334</ele><time>2026-04-25T10:07:48.391Z</time></trkpt><trkpt lat="43.7830933" lon="12.1737983"><ele>760.0</ele><time>2026-04-25T10:07:49.39Z</time></trkpt><trkpt lat="43.783015" lon="12.1738167"><ele>760.0</ele><time>2026-04-25T10:07:50.391Z</time></trkpt><trkpt lat="43.78294" lon="12.1738683"><ele>760.0</ele><time>2026-04-25T10:07:51.39Z</time></trkpt><trkpt lat="43.7828767" lon="12.1739383"><ele>760.0</ele><time>2026-04-25T10:07:52.391Z</time></trkpt><trkpt lat="43.7828067" lon="12.1740067"><ele>760.0</ele><time>2026-04-25T10:07:53.391Z</time></trkpt><trkpt lat="43.7827467" lon="12.17406"><ele>760.0</ele><time>2026-04-25T10:07:54.391Z</time></trkpt><trkpt lat="43.782655" lon="12.1741333"><ele>760.0</ele><time>2026-04-25T10:07:56.391Z</time></trkpt><trkpt lat="43.782635" lon="12.1742367"><ele>755.5</ele><time>2026-04-25T10:07:58.39Z</time></trkpt><trkpt lat="43.78269" lon="12.1742933"><ele>751.0</ele><time>2026-04-25T10:08:00.39Z</time></trkpt><trkpt lat="43.7827817" lon="12.1742467"><ele>746.5</ele><time>2026-04-25T10:08:02.39Z</time></trkpt><trkpt lat="43.7828433" lon="12.1741833"><ele>742.0</ele><time>2026-04-25T10:08:03.39Z</time></trkpt><trkpt lat="43.7829083" lon="12.1741267"><ele>737.5</ele><time>2026-04-25T10:08:04.391Z</time></trkpt><trkpt lat="43.782985" lon="12.1740833"><ele>733.0</ele><time>2026-04-25T10:08:05.391Z</time></trkpt><trkpt lat="43.7830617" lon="12.1740733"><ele>733.0</ele><time>2026-04-25T10:08:06.391Z</time></trkpt><trkpt lat="43.78314" lon="12.1740917"><ele>733.0</ele><time>2026-04-25T10:08:07.39Z</time></trkpt><trkpt lat="43.78323" lon="12.1741583"><ele>733.0</ele><time>2026-04-25T10:08:08.39Z</time></trkpt><trkpt lat="43.7833233" lon="12.1742367"><ele>733.0</ele><time>2026-04-25T10:08:09.39Z</time></trkpt><trkpt lat="43.7834167" lon="12.1743083"><ele>733.0</ele><time>2026-04-25T10:08:10.391Z</time></trkpt><trkpt lat="43.7834983" lon="12.1743817"><ele>734.8333333333334</ele><time>2026-04-25T10:08:11.39Z</time></trkpt><trkpt lat="43.7835733" lon="12.1744683"><ele>736.6666666666667</ele><time>2026-04-25T10:08:12.391Z</time></trkpt><trkpt lat="43.78365" lon="12.1745517"><ele>738.5</ele><time>2026-04-25T10:08:13.39Z</time></trkpt><trkpt lat="43.7837217" lon="12.1745917"><ele>740.3333333333334</ele><time>2026-04-25T10:08:14.391Z</time></trkpt><trkpt lat="43.7837817" lon="12.174635"><ele>742.1666666666666</ele><time>2026-04-25T10:08:15.391Z</time></trkpt><trkpt lat="43.7838367" lon="12.1746933"><ele>744.0</ele><time>2026-04-25T10:08:16.391Z</time></trkpt><trkpt lat="43.7838767" lon="12.17478"><ele>739.8333333333334</ele><time>2026-04-25T10:08:17.39Z</time></trkpt><trkpt lat="43.7839" lon="12.174875"><ele>735.6666666666666</ele><time>2026-04-25T10:08:18.39Z</time></trkpt><trkpt lat="43.78392" lon="12.1749767"><ele>731.5</ele><time>2026-04-25T10:08:19.391Z</time></trkpt><trkpt lat="43.7839467" lon="12.1750767"><ele>727.3333333333333</ele><time>2026-04-25T10:08:20.391Z</time></trkpt><trkpt lat="43.783985" lon="12.1751783"><ele>723.1666666666666</ele><time>2026-04-25T10:08:21.391Z</time></trkpt><trkpt lat="43.7840417" lon="12.1752783"><ele>719.0</ele><time>2026-04-25T10:08:22.391Z</time></trkpt><trkpt lat="43.7841133" lon="12.175375"><ele>719.0</ele><time>2026-04-25T10:08:23.39Z</time></trkpt><trkpt lat="43.7841783" lon="12.1754733"><ele>719.0</ele><time>2026-04-25T10:08:24.391Z</time></trkpt><trkpt lat="43.7842317" lon="12.1755717"><ele>719.0</ele><time>2026-04-25T10:08:25.391Z</time></trkpt><trkpt lat="43.7842817" lon="12.1756767"><ele>719.0</ele><time>2026-04-25T10:08:26.391Z</time></trkpt><trkpt lat="43.7843083" lon="12.175785"><ele>719.0</ele><time>2026-04-25T10:08:27.391Z</time></trkpt><trkpt lat="43.7843167" lon="12.1759"><ele>719.0</ele><time>2026-04-25T10:08:28.39Z</time></trkpt><trkpt lat="43.784315" lon="12.1760183"><ele>716.1666666666666</ele><time>2026-04-25T10:08:29.39Z</time></trkpt><trkpt lat="43.7843017" lon="12.1761383"><ele>713.3333333333333</ele><time>2026-04-25T10:08:30.391Z</time></trkpt><trkpt lat="43.784295" lon="12.1762583"><ele>710.5</ele><time>2026-04-25T10:08:31.39Z</time></trkpt><trkpt lat="43.78429" lon="12.1763733"><ele>707.6666666666666</ele><time>2026-04-25T10:08:32.391Z</time></trkpt><trkpt lat="43.7842917" lon="12.1764817"><ele>704.8333333333334</ele><time>2026-04-25T10:08:33.39Z</time></trkpt><trkpt lat="43.7843133" lon="12.1765733"><ele>702.0</ele><time>2026-04-25T10:08:34.391Z</time></trkpt><trkpt lat="43.7843467" lon="12.1766683"><ele>702.0</ele><time>2026-04-25T10:08:35.391Z</time></trkpt><trkpt lat="43.7843933" lon="12.1767667"><ele>702.0</ele><time>2026-04-25T10:08:36.39Z</time></trkpt><trkpt lat="43.7844467" lon="12.1768667"><ele>702.0</ele><time>2026-04-25T10:08:37.391Z</time></trkpt><trkpt lat="43.7845" lon="12.1769617"><ele>702.0</ele><time>2026-04-25T10:08:38.391Z</time></trkpt><trkpt lat="43.7845467" lon="12.1770533"><ele>702.0</ele><time>2026-04-25T10:08:39.391Z</time></trkpt><trkpt lat="43.784585" lon="12.17715"><ele>702.0</ele><time>2026-04-25T10:08:40.39Z</time></trkpt><trkpt lat="43.7846083" lon="12.1772533"><ele>698.0</ele><time>2026-04-25T10:08:41.39Z</time></trkpt><trkpt lat="43.7846083" lon="12.1773567"><ele>694.0</ele><time>2026-04-25T10:08:42.39Z</time></trkpt><trkpt lat="43.7845967" lon="12.177465"><ele>690.0</ele><time>2026-04-25T10:08:43.391Z</time></trkpt><trkpt lat="43.784575" lon="12.1775633"><ele>686.0</ele><time>2026-04-25T10:08:44.39Z</time></trkpt><trkpt lat="43.784585" lon="12.17773"><ele>682.0</ele><time>2026-04-25T10:08:46.391Z</time></trkpt><trkpt lat="43.7846167" lon="12.1778133"><ele>678.0</ele><time>2026-04-25T10:08:47.391Z</time></trkpt><trkpt lat="43.78467" lon="12.1779017"><ele>678.0</ele><time>2026-04-25T10:08:48.391Z</time></trkpt><trkpt lat="43.78474" lon="12.1779917"><ele>678.0</ele><time>2026-04-25T10:08:49.39Z</time></trkpt><trkpt lat="43.78482" lon="12.178065"><ele>678.0</ele><time>2026-04-25T10:08:50.39Z</time></trkpt><trkpt lat="43.7849" lon="12.178125"><ele>678.0</ele><time>2026-04-25T10:08:51.39Z</time></trkpt><trkpt lat="43.7849767" lon="12.1781667"><ele>678.0</ele><time>2026-04-25T10:08:52.391Z</time></trkpt><trkpt lat="43.7850483" lon="12.178195"><ele>678.0</ele><time>2026-04-25T10:08:53.39Z</time></trkpt><trkpt lat="43.785155" lon="12.178255"><ele>679.5</ele><time>2026-04-25T10:08:55.391Z</time></trkpt><trkpt lat="43.7851883" lon="12.1783767"><ele>681.0</ele><time>2026-04-25T10:08:57.391Z</time></trkpt><trkpt lat="43.7851533" lon="12.1784683"><ele>682.5</ele><time>2026-04-25T10:08:58.391Z</time></trkpt><trkpt lat="43.7850967" lon="12.1785533"><ele>684.0</ele><time>2026-04-25T10:08:59.39Z</time></trkpt><trkpt lat="43.78504" lon="12.1786317"><ele>685.5</ele><time>2026-04-25T10:09:00.391Z</time></trkpt><trkpt lat="43.78498" lon="12.1787"><ele>687.0</ele><time>2026-04-25T10:09:01.391Z</time></trkpt><trkpt lat="43.78491" lon="12.17874"><ele>682.2857142857143</ele><time>2026-04-25T10:09:02.39Z</time></trkpt><trkpt lat="43.784825" lon="12.178755"><ele>677.5714285714286</ele><time>2026-04-25T10:09:03.391Z</time></trkpt><trkpt lat="43.7847433" lon="12.1787483"><ele>672.8571428571429</ele><time>2026-04-25T10:09:04.39Z</time></trkpt><trkpt lat="43.7846717" lon="12.178735"><ele>668.1428571428571</ele><time>2026-04-25T10:09:05.391Z</time></trkpt><trkpt lat="43.7846033" lon="12.1787183"><ele>663.4285714285714</ele><time>2026-04-25T10:09:06.39Z</time></trkpt><trkpt lat="43.784545" lon="12.1786833"><ele>658.7142857142857</ele><time>2026-04-25T10:09:07.39Z</time></trkpt><trkpt lat="43.7844917" lon="12.1786217"><ele>654.0</ele><time>2026-04-25T10:09:08.391Z</time></trkpt><trkpt lat="43.7844483" lon="12.17853"><ele>654.0</ele><time>2026-04-25T10:09:09.391Z</time></trkpt><trkpt lat="43.7844133" lon="12.1784283"><ele>654.0</ele><time>2026-04-25T10:09:10.391Z</time></trkpt><trkpt lat="43.784375" lon="12.178335"><ele>654.0</ele><time>2026-04-25T10:09:11.391Z</time></trkpt><trkpt lat="43.7843317" lon="12.17827"><ele>654.0</ele><time>2026-04-25T10:09:12.39Z</time></trkpt><trkpt lat="43.7842367" lon="12.1782117"><ele>654.0</ele><time>2026-04-25T10:09:14.391Z</time></trkpt><trkpt lat="43.784155" lon="12.1782633"><ele>654.0</ele><time>2026-04-25T10:09:16.39Z</time></trkpt><trkpt lat="43.7841533" lon="12.17841"><ele>650.1666666666666</ele><time>2026-04-25T10:09:18.391Z</time></trkpt><trkpt lat="43.7841683" lon="12.178505"><ele>646.3333333333334</ele><time>2026-04-25T10:09:19.39Z</time></trkpt><trkpt lat="43.7841783" lon="12.1786183"><ele>642.5</ele><time>2026-04-25T10:09:20.391Z</time></trkpt><trkpt lat="43.7841767" lon="12.1787383"><ele>638.6666666666667</ele><time>2026-04-25T10:09:21.39Z</time></trkpt><trkpt lat="43.7841583" lon="12.1788583"><ele>634.8333333333334</ele><time>2026-04-25T10:09:22.39Z</time></trkpt><trkpt lat="43.784135" lon="12.1789867"><ele>631.0</ele><time>2026-04-25T10:09:23.391Z</time></trkpt><trkpt lat="43.784105" lon="12.17911"><ele>629.1666666666667</ele><time>2026-04-25T10:09:24.39Z</time></trkpt><trkpt lat="43.7840583" lon="12.1792183"><ele>627.3333333333334</ele><time>2026-04-25T10:09:25.39Z</time></trkpt><trkpt lat="43.784" lon="12.17932"><ele>625.5</ele><time>2026-04-25T10:09:26.391Z</time></trkpt><trkpt lat="43.783945" lon="12.1794083"><ele>623.6666666666666</ele><time>2026-04-25T10:09:27.391Z</time></trkpt><trkpt lat="43.78389" lon="12.1794867"><ele>621.8333333333333</ele><time>2026-04-25T10:09:28.39Z</time></trkpt><trkpt lat="43.78384" lon="12.1795617"><ele>620.0</ele><time>2026-04-25T10:09:29.391Z</time></trkpt><trkpt lat="43.7837517" lon="12.1796767"><ele>620.0</ele><time>2026-04-25T10:09:31.391Z</time></trkpt><trkpt lat="43.7836483" lon="12.1797017"><ele>620.0</ele><time>2026-04-25T10:09:33.39Z</time></trkpt><trkpt lat="43.7835717" lon="12.1796067"><ele>620.0</ele><time>2026-04-25T10:09:35.391Z</time></trkpt><trkpt lat="43.7835517" lon="12.1795033"><ele>620.0</ele><time>2026-04-25T10:09:36.391Z</time></trkpt><trkpt lat="43.78354" lon="12.1793867"><ele>620.0</ele><time>2026-04-25T10:09:37.391Z</time></trkpt><trkpt lat="43.7835183" lon="12.17927"><ele>618.5</ele><time>2026-04-25T10:09:38.391Z</time></trkpt><trkpt lat="43.7834883" lon="12.1791667"><ele>617.0</ele><time>2026-04-25T10:09:39.391Z</time></trkpt><trkpt lat="43.7834467" lon="12.1790833"><ele>615.5</ele><time>2026-04-25T10:09:40.39Z</time></trkpt><trkpt lat="43.7833867" lon="12.1790217"><ele>614.0</ele><time>2026-04-25T10:09:41.391Z</time></trkpt><trkpt lat="43.7833233" lon="12.17899"><ele>612.5</ele><time>2026-04-25T10:09:42.391Z</time></trkpt><trkpt lat="43.7832117" lon="12.1790433"><ele>611.0</ele><time>2026-04-25T10:09:44.39Z</time></trkpt><trkpt lat="43.7831633" lon="12.1791167"><ele>609.0</ele><time>2026-04-25T10:09:45.39Z</time></trkpt><trkpt lat="43.7831267" lon="12.1792033"><ele>607.0</ele><time>2026-04-25T10:09:46.391Z</time></trkpt><trkpt lat="43.7830983" lon="12.1793183"><ele>605.0</ele><time>2026-04-25T10:09:47.391Z</time></trkpt><trkpt lat="43.7830833" lon="12.17946"><ele>603.0</ele><time>2026-04-25T10:09:48.391Z</time></trkpt><trkpt lat="43.7830767" lon="12.1796067"><ele>601.0</ele><time>2026-04-25T10:09:49.391Z</time></trkpt><trkpt lat="43.7830667" lon="12.17973"><ele>598.8</ele><time>2026-04-25T10:09:50.39Z</time></trkpt><trkpt lat="43.7830383" lon="12.1798517"><ele>596.6</ele><time>2026-04-25T10:09:51.391Z</time></trkpt><trkpt lat="43.783" lon="12.1799617"><ele>594.4</ele><time>2026-04-25T10:09:52.39Z</time></trkpt><trkpt lat="43.78293" lon="12.1800567"><ele>592.2</ele><time>2026-04-25T10:09:53.391Z</time></trkpt><trkpt lat="43.7828317" lon="12.1801167"><ele>590.0</ele><time>2026-04-25T10:09:54.39Z</time></trkpt><trkpt lat="43.7827" lon="12.1801467"><ele>587.4</ele><time>2026-04-25T10:09:55.391Z</time></trkpt><trkpt lat="43.7825717" lon="12.1801683"><ele>584.8</ele><time>2026-04-25T10:09:56.391Z</time></trkpt><trkpt lat="43.782465" lon="12.18021"><ele>582.2</ele><time>2026-04-25T10:09:57.391Z</time></trkpt><trkpt lat="43.7823833" lon="12.1802683"><ele>579.6</ele><time>2026-04-25T10:09:58.39Z</time></trkpt><trkpt lat="43.7823517" lon="12.1803567"><ele>577.0</ele><time>2026-04-25T10:09:59.391Z</time></trkpt><trkpt lat="43.7823483" lon="12.18045"><ele>577.0</ele><time>2026-04-25T10:10:00.391Z</time></trkpt><trkpt lat="43.7823917" lon="12.1805533"><ele>577.0</ele><time>2026-04-25T10:10:01.39Z</time></trkpt><trkpt lat="43.78246" lon="12.1806783"><ele>577.0</ele><time>2026-04-25T10:10:02.39Z</time></trkpt><trkpt lat="43.782515" lon="12.1807917"><ele>577.0</ele><time>2026-04-25T10:10:03.391Z</time></trkpt><trkpt lat="43.7825717" lon="12.1808583"><ele>577.0</ele><time>2026-04-25T10:10:04.391Z</time></trkpt><trkpt lat="43.7826367" lon="12.1809067"><ele>577.0</ele><time>2026-04-25T10:10:05.391Z</time></trkpt><trkpt lat="43.7827217" lon="12.1809083"><ele>577.8000000000001</ele><time>2026-04-25T10:10:06.391Z</time></trkpt><trkpt lat="43.78282" lon="12.180895"><ele>578.6</ele><time>2026-04-25T10:10:07.391Z</time></trkpt><trkpt lat="43.7829267" lon="12.1808867"><ele>579.4000000000001</ele><time>2026-04-25T10:10:08.391Z</time></trkpt><trkpt lat="43.783025" lon="12.180905"><ele>580.2</ele><time>2026-04-25T10:10:09.391Z</time></trkpt><trkpt lat="43.7830983" lon="12.1809817"><ele>581.0</ele><time>2026-04-25T10:10:10.391Z</time></trkpt><trkpt lat="43.7831467" lon="12.18109"><ele>581.0</ele><time>2026-04-25T10:10:11.391Z</time></trkpt><trkpt lat="43.7831617" lon="12.181195"><ele>581.0</ele><time>2026-04-25T10:10:12.39Z</time></trkpt><trkpt lat="43.783155" lon="12.1813133"><ele>581.0</ele><time>2026-04-25T10:10:13.391Z</time></trkpt><trkpt lat="43.783145" lon="12.1814233"><ele>581.0</ele><time>2026-04-25T10:10:14.391Z</time></trkpt><trkpt lat="43.783155" lon="12.1815483"><ele>581.0</ele><time>2026-04-25T10:10:15.39Z</time></trkpt><trkpt lat="43.7831967" lon="12.1816883"><ele>581.0</ele><time>2026-04-25T10:10:16.391Z</time></trkpt><trkpt lat="43.7832567" lon="12.181845"><ele>577.0</ele><time>2026-04-25T10:10:17.391Z</time></trkpt><trkpt lat="43.78331" lon="12.1820133"><ele>573.0</ele><time>2026-04-25T10:10:18.39Z</time></trkpt><trkpt lat="43.7833433" lon="12.1821867"><ele>569.0</ele><time>2026-04-25T10:10:19.391Z</time></trkpt><trkpt lat="43.7833517" lon="12.1823383"><ele>565.0</ele><time>2026-04-25T10:10:20.39Z</time></trkpt><trkpt lat="43.7833633" lon="12.1824533"><ele>564.0</ele><time>2026-04-25T10:10:21.39Z</time></trkpt><trkpt lat="43.7833933" lon="12.18254"><ele>563.0</ele><time>2026-04-25T10:10:22.391Z</time></trkpt><trkpt lat="43.78345" lon="12.1826067"><ele>562.0</ele><time>2026-04-25T10:10:23.39Z</time></trkpt><trkpt lat="43.78354" lon="12.1826583"><ele>561.0</ele><time>2026-04-25T10:10:24.39Z</time></trkpt><trkpt lat="43.78364" lon="12.1826967"><ele>560.0</ele><time>2026-04-25T10:10:25.391Z</time></trkpt><trkpt lat="43.78372" lon="12.18273"><ele>559.0</ele><time>2026-04-25T10:10:26.391Z</time></trkpt><trkpt lat="43.7838067" lon="12.18283"><ele>559.0</ele><time>2026-04-25T10:10:28.39Z</time></trkpt><trkpt lat="43.7837583" lon="12.182965"><ele>559.0</ele><time>2026-04-25T10:10:30.391Z</time></trkpt><trkpt lat="43.7836533" lon="12.1829717"><ele>559.0</ele><time>2026-04-25T10:10:31.39Z</time></trkpt><trkpt lat="43.7835533" lon="12.1829883"><ele>559.0</ele><time>2026-04-25T10:10:32.391Z</time></trkpt><trkpt lat="43.7834433" lon="12.1830583"><ele>559.0</ele><time>2026-04-25T10:10:33.391Z</time></trkpt><trkpt lat="43.7833367" lon="12.183145"><ele>552.5</ele><time>2026-04-25T10:10:34.391Z</time></trkpt><trkpt lat="43.7832283" lon="12.183255"><ele>546.0</ele><time>2026-04-25T10:10:35.39Z</time></trkpt><trkpt lat="43.7831283" lon="12.18336"><ele>539.5</ele><time>2026-04-25T10:10:36.39Z</time></trkpt><trkpt lat="43.7830483" lon="12.1834583"><ele>533.0</ele><time>2026-04-25T10:10:37.39Z</time></trkpt><trkpt lat="43.7829833" lon="12.183555"><ele>533.0</ele><time>2026-04-25T10:10:38.39Z</time></trkpt><trkpt lat="43.7829383" lon="12.1836633"><ele>533.0</ele><time>2026-04-25T10:10:39.39Z</time></trkpt><trkpt lat="43.7829117" lon="12.1837817"><ele>533.0</ele><time>2026-04-25T10:10:40.39Z</time></trkpt><trkpt lat="43.7829017" lon="12.1839067"><ele>533.0</ele><time>2026-04-25T10:10:41.391Z</time></trkpt><trkpt lat="43.7829017" lon="12.1840333"><ele>533.0</ele><time>2026-04-25T10:10:42.39Z</time></trkpt><trkpt lat="43.7829117" lon="12.1841767"><ele>531.6</ele><time>2026-04-25T10:10:43.391Z</time></trkpt><trkpt lat="43.782925" lon="12.1843167"><ele>530.1999999999999</ele><time>2026-04-25T10:10:44.39Z</time></trkpt><trkpt lat="43.7829417" lon="12.1844533"><ele>528.8</ele><time>2026-04-25T10:10:45.39Z</time></trkpt><trkpt lat="43.7829633" lon="12.18459"><ele>527.4</ele><time>2026-04-25T10:10:46.391Z</time></trkpt><trkpt lat="43.7829933" lon="12.18473"><ele>526.0</ele><time>2026-04-25T10:10:47.391Z</time></trkpt><trkpt lat="43.7830233" lon="12.18487"><ele>524.6</ele><time>2026-04-25T10:10:48.391Z</time></trkpt><trkpt lat="43.783055" lon="12.184995"><ele>523.2</ele><time>2026-04-25T10:10:49.39Z</time></trkpt><trkpt lat="43.783095" lon="12.1851033"><ele>521.8</ele><time>2026-04-25T10:10:50.391Z</time></trkpt><trkpt lat="43.7831433" lon="12.1852117"><ele>520.4</ele><time>2026-04-25T10:10:51.39Z</time></trkpt><trkpt lat="43.78319" lon="12.1853283"><ele>519.0</ele><time>2026-04-25T10:10:52.391Z</time></trkpt><trkpt lat="43.7832183" lon="12.1854483"><ele>519.0</ele><time>2026-04-25T10:10:53.391Z</time></trkpt><trkpt lat="43.7832383" lon="12.1855767"><ele>519.0</ele><time>2026-04-25T10:10:54.391Z</time></trkpt><trkpt lat="43.7832467" lon="12.1857133"><ele>519.0</ele><time>2026-04-25T10:10:55.391Z</time></trkpt><trkpt lat="43.7832283" lon="12.1858633"><ele>519.0</ele><time>2026-04-25T10:10:56.391Z</time></trkpt><trkpt lat="43.78319" lon="12.1860083"><ele>519.0</ele><time>2026-04-25T10:10:57.391Z</time></trkpt><trkpt lat="43.7831583" lon="12.1861417"><ele>518.4</ele><time>2026-04-25T10:10:58.39Z</time></trkpt><trkpt lat="43.78314" lon="12.18627"><ele>517.8</ele><time>2026-04-25T10:10:59.39Z</time></trkpt><trkpt lat="43.7831533" lon="12.1864033"><ele>517.2</ele><time>2026-04-25T10:11:00.391Z</time></trkpt><trkpt lat="43.7831717" lon="12.1865617"><ele>516.6</ele><time>2026-04-25T10:11:01.391Z</time></trkpt><trkpt lat="43.7831967" lon="12.1867233"><ele>516.0</ele><time>2026-04-25T10:11:02.39Z</time></trkpt><trkpt lat="43.7832333" lon="12.1868867"><ele>514.0</ele><time>2026-04-25T10:11:03.391Z</time></trkpt><trkpt lat="43.7832733" lon="12.1870383"><ele>512.0</ele><time>2026-04-25T10:11:04.391Z</time></trkpt><trkpt lat="43.7833167" lon="12.1871983"><ele>510.0</ele><time>2026-04-25T10:11:05.391Z</time></trkpt><trkpt lat="43.7833733" lon="12.1873567"><ele>508.0</ele><time>2026-04-25T10:11:06.391Z</time></trkpt><trkpt lat="43.783425" lon="12.1875183"><ele>508.0</ele><time>2026-04-25T10:11:07.391Z</time></trkpt><trkpt lat="43.7834683" lon="12.18768"><ele>508.0</ele><time>2026-04-25T10:11:08.391Z</time></trkpt><trkpt lat="43.7835133" lon="12.1878383"><ele>508.0</ele><time>2026-04-25T10:11:09.39Z</time></trkpt><trkpt lat="43.7835517" lon="12.187995"><ele>508.0</ele><time>2026-04-25T10:11:10.39Z</time></trkpt><trkpt lat="43.783585" lon="12.18816"><ele>505.75</ele><time>2026-04-25T10:11:11.39Z</time></trkpt><trkpt lat="43.7836183" lon="12.1883267"><ele>503.5</ele><time>2026-04-25T10:11:12.39Z</time></trkpt><trkpt lat="43.78365" lon="12.18849"><ele>501.25</ele><time>2026-04-25T10:11:13.39Z</time></trkpt><trkpt lat="43.7836933" lon="12.1886417"><ele>499.0</ele><time>2026-04-25T10:11:14.39Z</time></trkpt><trkpt lat="43.7837567" lon="12.18879"><ele>499.0</ele><time>2026-04-25T10:11:15.39Z</time></trkpt><trkpt lat="43.7838383" lon="12.1889217"><ele>499.0</ele><time>2026-04-25T10:11:16.391Z</time></trkpt><trkpt lat="43.7839283" lon="12.1890383"><ele>499.0</ele><time>2026-04-25T10:11:17.391Z</time></trkpt><trkpt lat="43.78402" lon="12.1891383"><ele>499.0</ele><time>2026-04-25T10:11:18.391Z</time></trkpt><trkpt lat="43.7841" lon="12.1892333"><ele>500.6</ele><time>2026-04-25T10:11:19.39Z</time></trkpt><trkpt lat="43.784165" lon="12.1893317"><ele>502.2</ele><time>2026-04-25T10:11:20.391Z</time></trkpt><trkpt lat="43.7842217" lon="12.18944"><ele>503.80000000000007</ele><time>2026-04-25T10:11:21.39Z</time></trkpt><trkpt lat="43.7842667" lon="12.1895667"><ele>505.40000000000003</ele><time>2026-04-25T10:11:22.39Z</time></trkpt><trkpt lat="43.7843167" lon="12.18969"><ele>507.0</ele><time>2026-04-25T10:11:23.39Z</time></trkpt><trkpt lat="43.78437" lon="12.1898017"><ele>503.8</ele><time>2026-04-25T10:11:24.39Z</time></trkpt><trkpt lat="43.7844333" lon="12.18989"><ele>500.6</ele><time>2026-04-25T10:11:25.39Z</time></trkpt><trkpt lat="43.7845033" lon="12.1899667"><ele>497.40000000000003</ele><time>2026-04-25T10:11:26.39Z</time></trkpt><trkpt lat="43.7845867" lon="12.190045"><ele>494.20000000000005</ele><time>2026-04-25T10:11:27.391Z</time></trkpt><trkpt lat="43.7846717" lon="12.190135"><ele>491.0</ele><time>2026-04-25T10:11:28.391Z</time></trkpt><trkpt lat="43.7847567" lon="12.1902333"><ele>491.0</ele><time>2026-04-25T10:11:29.39Z</time></trkpt><trkpt lat="43.7848267" lon="12.1903533"><ele>491.0</ele><time>2026-04-25T10:11:30.39Z</time></trkpt><trkpt lat="43.7848933" lon="12.1904783"><ele>491.0</ele><time>2026-04-25T10:11:31.39Z</time></trkpt><trkpt lat="43.784965" lon="12.1905983"><ele>491.0</ele><time>2026-04-25T10:11:32.39Z</time></trkpt><trkpt lat="43.7850383" lon="12.19072"><ele>490.6</ele><time>2026-04-25T10:11:33.39Z</time></trkpt><trkpt lat="43.785105" lon="12.190835"><ele>490.20000000000005</ele><time>2026-04-25T10:11:34.391Z</time></trkpt><trkpt lat="43.7851683" lon="12.1909333"><ele>489.79999999999995</ele><time>2026-04-25T10:11:35.391Z</time></trkpt><trkpt lat="43.7852117" lon="12.191035"><ele>489.4</ele><time>2026-04-25T10:11:36.391Z</time></trkpt><trkpt lat="43.7852317" lon="12.1911633"><ele>489.0</ele><time>2026-04-25T10:11:37.39Z</time></trkpt><trkpt lat="43.78524" lon="12.1913067"><ele>489.0</ele><time>2026-04-25T10:11:38.39Z</time></trkpt><trkpt lat="43.78524" lon="12.191465"><ele>489.0</ele><time>2026-04-25T10:11:39.391Z</time></trkpt><trkpt lat="43.78526" lon="12.191625"><ele>489.0</ele><time>2026-04-25T10:11:40.391Z</time></trkpt><trkpt lat="43.7852783" lon="12.19178"><ele>489.0</ele><time>2026-04-25T10:11:41.39Z</time></trkpt><trkpt lat="43.7852933" lon="12.1919417"><ele>488.75</ele><time>2026-04-25T10:11:42.391Z</time></trkpt><trkpt lat="43.7853133" lon="12.19211"><ele>488.5</ele><time>2026-04-25T10:11:43.391Z</time></trkpt><trkpt lat="43.7853183" lon="12.1922833"><ele>488.25</ele><time>2026-04-25T10:11:44.391Z</time></trkpt><trkpt lat="43.7853267" lon="12.192455"><ele>488.0</ele><time>2026-04-25T10:11:45.39Z</time></trkpt><trkpt lat="43.7853383" lon="12.19261"><ele>488.0</ele><time>2026-04-25T10:11:46.391Z</time></trkpt><trkpt lat="43.78536" lon="12.1927567"><ele>488.0</ele><time>2026-04-25T10:11:47.391Z</time></trkpt><trkpt lat="43.7853983" lon="12.1929133"><ele>488.0</ele><time>2026-04-25T10:11:48.391Z</time></trkpt><trkpt lat="43.7854167" lon="12.19308"><ele>488.0</ele><time>2026-04-25T10:11:49.391Z</time></trkpt><trkpt lat="43.785415" lon="12.1932567"><ele>488.5</ele><time>2026-04-25T10:11:50.39Z</time></trkpt><trkpt lat="43.785405" lon="12.19343"><ele>489.0</ele><time>2026-04-25T10:11:51.39Z</time></trkpt><trkpt lat="43.78541" lon="12.193585"><ele>489.5</ele><time>2026-04-25T10:11:52.39Z</time></trkpt><trkpt lat="43.7854233" lon="12.1937433"><ele>490.0</ele><time>2026-04-25T10:11:53.391Z</time></trkpt><trkpt lat="43.7854533" lon="12.1938967"><ele>488.0</ele><time>2026-04-25T10:11:54.391Z</time></trkpt><trkpt lat="43.7854867" lon="12.19405"><ele>486.0</ele><time>2026-04-25T10:11:55.391Z</time></trkpt><trkpt lat="43.7855333" lon="12.1942083"><ele>484.0</ele><time>2026-04-25T10:11:56.39Z</time></trkpt><trkpt lat="43.7855917" lon="12.19437"><ele>482.0</ele><time>2026-04-25T10:11:57.391Z</time></trkpt><trkpt lat="43.7856567" lon="12.1945383"><ele>482.0</ele><time>2026-04-25T10:11:58.391Z</time></trkpt><trkpt lat="43.7857167" lon="12.1947083"><ele>482.0</ele><time>2026-04-25T10:11:59.39Z</time></trkpt><trkpt lat="43.7857667" lon="12.1948767"><ele>482.0</ele><time>2026-04-25T10:12:00.391Z</time></trkpt><trkpt lat="43.78582" lon="12.1950233"><ele>482.0</ele><time>2026-04-25T10:12:01.391Z</time></trkpt><trkpt lat="43.7858767" lon="12.19515"><ele>483.16666666666663</ele><time>2026-04-25T10:12:02.391Z</time></trkpt><trkpt lat="43.7859283" lon="12.195265"><ele>484.3333333333333</ele><time>2026-04-25T10:12:03.39Z</time></trkpt><trkpt lat="43.7859717" lon="12.19538"><ele>485.5</ele><time>2026-04-25T10:12:04.391Z</time></trkpt><trkpt lat="43.7860117" lon="12.1954833"><ele>486.66666666666663</ele><time>2026-04-25T10:12:05.391Z</time></trkpt><trkpt lat="43.786055" lon="12.1955733"><ele>487.8333333333333</ele><time>2026-04-25T10:12:06.391Z</time></trkpt><trkpt lat="43.786095" lon="12.195655"><ele>489.0</ele><time>2026-04-25T10:12:07.39Z</time></trkpt><trkpt lat="43.7861333" lon="12.1957333"><ele>489.0</ele><time>2026-04-25T10:12:08.391Z</time></trkpt><trkpt lat="43.7861483" lon="12.1958283"><ele>489.0</ele><time>2026-04-25T10:12:09.391Z</time></trkpt><trkpt lat="43.78613" lon="12.19594"><ele>489.0</ele><time>2026-04-25T10:12:10.391Z</time></trkpt><trkpt lat="43.7860933" lon="12.1960467"><ele>489.0</ele><time>2026-04-25T10:12:11.391Z</time></trkpt><trkpt lat="43.7860367" lon="12.1961383"><ele>489.0</ele><time>2026-04-25T10:12:12.39Z</time></trkpt><trkpt lat="43.7859683" lon="12.1962283"><ele>489.0</ele><time>2026-04-25T10:12:13.39Z</time></trkpt><trkpt lat="43.7859167" lon="12.1963233"><ele>483.2</ele><time>2026-04-25T10:12:14.39Z</time></trkpt><trkpt lat="43.7858817" lon="12.1964283"><ele>477.4</ele><time>2026-04-25T10:12:15.39Z</time></trkpt><trkpt lat="43.7858633" lon="12.1965433"><ele>471.6</ele><time>2026-04-25T10:12:16.391Z</time></trkpt><trkpt lat="43.7858417" lon="12.19666"><ele>465.8</ele><time>2026-04-25T10:12:17.391Z</time></trkpt><trkpt lat="43.785805" lon="12.1967867"><ele>460.0</ele><time>2026-04-25T10:12:18.391Z</time></trkpt><trkpt lat="43.7857467" lon="12.1968933"><ele>460.00000000000006</ele><time>2026-04-25T10:12:19.391Z</time></trkpt><trkpt lat="43.7856733" lon="12.1969683"><ele>460.0</ele><time>2026-04-25T10:12:20.391Z</time></trkpt><trkpt lat="43.7855933" lon="12.19701"><ele>460.0</ele><time>2026-04-25T10:12:21.391Z</time></trkpt><trkpt lat="43.7855133" lon="12.1970467"><ele>460.0</ele><time>2026-04-25T10:12:22.391Z</time></trkpt><trkpt lat="43.7854417" lon="12.1971"><ele>460.00000000000006</ele><time>2026-04-25T10:12:23.391Z</time></trkpt><trkpt lat="43.7853817" lon="12.19716"><ele>460.0</ele><time>2026-04-25T10:12:24.391Z</time></trkpt><trkpt lat="43.7853367" lon="12.197235"><ele>460.0</ele><time>2026-04-25T10:12:25.39Z</time></trkpt><trkpt lat="43.7853083" lon="12.1973217"><ele>460.0</ele><time>2026-04-25T10:12:26.391Z</time></trkpt><trkpt lat="43.7853183" lon="12.1974383"><ele>460.0</ele><time>2026-04-25T10:12:27.391Z</time></trkpt><trkpt lat="43.7853317" lon="12.19757"><ele>460.0</ele><time>2026-04-25T10:12:28.39Z</time></trkpt><trkpt lat="43.785345" lon="12.19772"><ele>460.0</ele><time>2026-04-25T10:12:29.391Z</time></trkpt><trkpt lat="43.785355" lon="12.1978683"><ele>459.8</ele><time>2026-04-25T10:12:30.391Z</time></trkpt><trkpt lat="43.7853617" lon="12.1980033"><ele>459.6</ele><time>2026-04-25T10:12:31.39Z</time></trkpt><trkpt lat="43.78536" lon="12.1981283"><ele>459.4</ele><time>2026-04-25T10:12:32.39Z</time></trkpt><trkpt lat="43.78535" lon="12.19825"><ele>459.2</ele><time>2026-04-25T10:12:33.391Z</time></trkpt><trkpt lat="43.7853333" lon="12.1983767"><ele>459.0</ele><time>2026-04-25T10:12:34.391Z</time></trkpt><trkpt lat="43.7853083" lon="12.1985067"><ele>459.0</ele><time>2026-04-25T10:12:35.391Z</time></trkpt><trkpt lat="43.785275" lon="12.198645"><ele>459.0</ele><time>2026-04-25T10:12:36.39Z</time></trkpt><trkpt lat="43.7852367" lon="12.1988"><ele>459.0</ele><time>2026-04-25T10:12:37.391Z</time></trkpt><trkpt lat="43.7852033" lon="12.1989617"><ele>459.0</ele><time>2026-04-25T10:12:38.39Z</time></trkpt><trkpt lat="43.78517" lon="12.1991117"><ele>455.6</ele><time>2026-04-25T10:12:39.391Z</time></trkpt><trkpt lat="43.785145" lon="12.1992467"><ele>452.2</ele><time>2026-04-25T10:12:40.391Z</time></trkpt><trkpt lat="43.7851267" lon="12.19937"><ele>448.80000000000007</ele><time>2026-04-25T10:12:41.39Z</time></trkpt><trkpt lat="43.7851133" lon="12.1994933"><ele>445.40000000000003</ele><time>2026-04-25T10:12:42.391Z</time></trkpt><trkpt lat="43.7851033" lon="12.1996167"><ele>442.0</ele><time>2026-04-25T10:12:43.391Z</time></trkpt><trkpt lat="43.7850833" lon="12.19974"><ele>442.50000000000006</ele><time>2026-04-25T10:12:44.39Z</time></trkpt><trkpt lat="43.78505" lon="12.1998583"><ele>443.0</ele><time>2026-04-25T10:12:45.391Z</time></trkpt><trkpt lat="43.785005" lon="12.1999733"><ele>443.5</ele><time>2026-04-25T10:12:46.39Z</time></trkpt><trkpt lat="43.7849617" lon="12.2000867"><ele>444.0</ele><time>2026-04-25T10:12:47.39Z</time></trkpt><trkpt lat="43.784925" lon="12.2001983"><ele>444.50000000000006</ele><time>2026-04-25T10:12:48.39Z</time></trkpt><trkpt lat="43.7848967" lon="12.2002933"><ele>445.0</ele><time>2026-04-25T10:12:49.391Z</time></trkpt><trkpt lat="43.784865" lon="12.2004183"><ele>445.0</ele><time>2026-04-25T10:12:51.391Z</time></trkpt><trkpt lat="43.7848933" lon="12.200505"><ele>445.0</ele><time>2026-04-25T10:12:54.391Z</time></trkpt><trkpt lat="43.7849833" lon="12.2005433"><ele>445.0</ele><time>2026-04-25T10:12:56.391Z</time></trkpt><trkpt lat="43.7850467" lon="12.2006033"><ele>445.0</ele><time>2026-04-25T10:12:57.391Z</time></trkpt><trkpt lat="43.7851017" lon="12.2007033"><ele>445.0</ele><time>2026-04-25T10:12:58.39Z</time></trkpt><trkpt lat="43.785155" lon="12.200855"><ele>447.0</ele><time>2026-04-25T10:12:59.39Z</time></trkpt><trkpt lat="43.7852" lon="12.201035"><ele>449.0</ele><time>2026-04-25T10:13:00.391Z</time></trkpt><trkpt lat="43.7852533" lon="12.201235"><ele>451.0</ele><time>2026-04-25T10:13:01.391Z</time></trkpt><trkpt lat="43.7853017" lon="12.2014083"><ele>453.0</ele><time>2026-04-25T10:13:02.391Z</time></trkpt><trkpt lat="43.7853583" lon="12.201545"><ele>453.0</ele><time>2026-04-25T10:13:03.391Z</time></trkpt><trkpt lat="43.7854333" lon="12.20165"><ele>452.99999999999994</ele><time>2026-04-25T10:13:04.391Z</time></trkpt><trkpt lat="43.7855267" lon="12.2017067"><ele>452.99999999999994</ele><time>2026-04-25T10:13:05.389Z</time></trkpt><trkpt lat="43.7856317" lon="12.20172"><ele>453.0</ele><time>2026-04-25T10:13:06.391Z</time></trkpt><trkpt lat="43.7857517" lon="12.20167"><ele>453.0</ele><time>2026-04-25T10:13:07.39Z</time></trkpt><trkpt lat="43.785865" lon="12.201585"><ele>453.0</ele><time>2026-04-25T10:13:08.391Z</time></trkpt><trkpt lat="43.7859767" lon="12.2015033"><ele>452.99999999999994</ele><time>2026-04-25T10:13:09.39Z</time></trkpt><trkpt lat="43.786075" lon="12.201435"><ele>452.99999999999994</ele><time>2026-04-25T10:13:10.391Z</time></trkpt><trkpt lat="43.7861717" lon="12.2013783"><ele>453.0</ele><time>2026-04-25T10:13:11.39Z</time></trkpt><trkpt lat="43.7862717" lon="12.2013233"><ele>453.0</ele><time>2026-04-25T10:13:12.39Z</time></trkpt><trkpt lat="43.7863917" lon="12.20129"><ele>458.0</ele><time>2026-04-25T10:13:13.39Z</time></trkpt><trkpt lat="43.7865183" lon="12.201285"><ele>463.0</ele><time>2026-04-25T10:13:14.391Z</time></trkpt><trkpt lat="43.7866567" lon="12.2013"><ele>468.0</ele><time>2026-04-25T10:13:15.391Z</time></trkpt><trkpt lat="43.7867967" lon="12.201325"><ele>473.0</ele><time>2026-04-25T10:13:16.391Z</time></trkpt><trkpt lat="43.7869383" lon="12.2013533"><ele>474.75</ele><time>2026-04-25T10:13:17.391Z</time></trkpt><trkpt lat="43.7870867" lon="12.20138"><ele>476.5</ele><time>2026-04-25T10:13:18.391Z</time></trkpt><trkpt lat="43.7872267" lon="12.2014067"><ele>478.25</ele><time>2026-04-25T10:13:19.391Z</time></trkpt><trkpt lat="43.7873633" lon="12.20143"><ele>480.0</ele><time>2026-04-25T10:13:20.391Z</time></trkpt><trkpt lat="43.7875017" lon="12.2014467"><ele>480.0</ele><time>2026-04-25T10:13:21.39Z</time></trkpt><trkpt lat="43.78764" lon="12.201475"><ele>480.0</ele><time>2026-04-25T10:13:22.391Z</time></trkpt><trkpt lat="43.7877617" lon="12.2014967"><ele>480.0</ele><time>2026-04-25T10:13:23.391Z</time></trkpt><trkpt lat="43.7878717" lon="12.2015133"><ele>480.0</ele><time>2026-04-25T10:13:24.391Z</time></trkpt><trkpt lat="43.7879683" lon="12.2015217"><ele>482.0</ele><time>2026-04-25T10:13:25.39Z</time></trkpt><trkpt lat="43.7880583" lon="12.2015117"><ele>484.0</ele><time>2026-04-25T10:13:26.391Z</time></trkpt><trkpt lat="43.7881367" lon="12.2014717"><ele>486.0</ele><time>2026-04-25T10:13:27.391Z</time></trkpt><trkpt lat="43.7882017" lon="12.20139"><ele>488.0</ele><time>2026-04-25T10:13:28.391Z</time></trkpt><trkpt lat="43.788225" lon="12.2012567"><ele>490.0</ele><time>2026-04-25T10:13:29.391Z</time></trkpt><trkpt lat="43.788205" lon="12.20112"><ele>490.0</ele><time>2026-04-25T10:13:30.391Z</time></trkpt><trkpt lat="43.7881383" lon="12.200995"><ele>490.0</ele><time>2026-04-25T10:13:31.39Z</time></trkpt><trkpt lat="43.7879867" lon="12.2009117"><ele>490.0</ele><time>2026-04-25T10:13:32.39Z</time></trkpt><trkpt lat="43.7878333" lon="12.20083"><ele>490.0</ele><time>2026-04-25T10:13:33.391Z</time></trkpt><trkpt lat="43.7876817" lon="12.20076"><ele>492.0</ele><time>2026-04-25T10:13:34.391Z</time></trkpt><trkpt lat="43.7875317" lon="12.2006967"><ele>494.0</ele><time>2026-04-25T10:13:35.391Z</time></trkpt><trkpt lat="43.7874017" lon="12.2006367"><ele>496.0</ele><time>2026-04-25T10:13:36.391Z</time></trkpt><trkpt lat="43.7872867" lon="12.200565"><ele>498.0</ele><time>2026-04-25T10:13:37.391Z</time></trkpt><trkpt lat="43.7871817" lon="12.2004733"><ele>498.0</ele><time>2026-04-25T10:13:38.391Z</time></trkpt><trkpt lat="43.787105" lon="12.2003383"><ele>498.0</ele><time>2026-04-25T10:13:39.391Z</time></trkpt><trkpt lat="43.7870483" lon="12.2001633"><ele>498.0</ele><time>2026-04-25T10:13:40.391Z</time></trkpt><trkpt lat="43.7870017" lon="12.1999733"><ele>498.0</ele><time>2026-04-25T10:13:41.39Z</time></trkpt><trkpt lat="43.7869517" lon="12.19978"><ele>500.0</ele><time>2026-04-25T10:13:42.391Z</time></trkpt><trkpt lat="43.78691" lon="12.1995917"><ele>502.0</ele><time>2026-04-25T10:13:43.391Z</time></trkpt><trkpt lat="43.78689" lon="12.199415"><ele>504.0</ele><time>2026-04-25T10:13:44.391Z</time></trkpt><trkpt lat="43.786895" lon="12.199245"><ele>506.0</ele><time>2026-04-25T10:13:45.391Z</time></trkpt><trkpt lat="43.7869333" lon="12.199075"><ele>506.5</ele><time>2026-04-25T10:13:46.391Z</time></trkpt><trkpt lat="43.787005" lon="12.1989083"><ele>507.0</ele><time>2026-04-25T10:13:47.391Z</time></trkpt><trkpt lat="43.7871" lon="12.1987467"><ele>507.5</ele><time>2026-04-25T10:13:48.391Z</time></trkpt><trkpt lat="43.7872033" lon="12.1985933"><ele>508.0</ele><time>2026-04-25T10:13:49.391Z</time></trkpt><trkpt lat="43.78731" lon="12.1984317"><ele>508.0</ele><time>2026-04-25T10:13:50.391Z</time></trkpt><trkpt lat="43.7874083" lon="12.1982733"><ele>508.0</ele><time>2026-04-25T10:13:51.39Z</time></trkpt><trkpt lat="43.787495" lon="12.19813"><ele>508.0</ele><time>2026-04-25T10:13:52.39Z</time></trkpt><trkpt lat="43.7875833" lon="12.1980167"><ele>508.0</ele><time>2026-04-25T10:13:53.39Z</time></trkpt><trkpt lat="43.7876783" lon="12.1979633"><ele>510.5</ele><time>2026-04-25T10:13:54.391Z</time></trkpt><trkpt lat="43.78779" lon="12.1979733"><ele>513.0</ele><time>2026-04-25T10:13:55.391Z</time></trkpt><trkpt lat="43.787905" lon="12.198035"><ele>515.5</ele><time>2026-04-25T10:13:56.39Z</time></trkpt><trkpt lat="43.78801" lon="12.19816"><ele>518.0</ele><time>2026-04-25T10:13:57.391Z</time></trkpt><trkpt lat="43.7881017" lon="12.19833"><ele>518.0</ele><time>2026-04-25T10:13:58.39Z</time></trkpt><trkpt lat="43.7881883" lon="12.1985"><ele>518.0</ele><time>2026-04-25T10:13:59.39Z</time></trkpt><trkpt lat="43.7882833" lon="12.1986683"><ele>518.0</ele><time>2026-04-25T10:14:00.391Z</time></trkpt><trkpt lat="43.7883833" lon="12.1988333"><ele>518.0</ele><time>2026-04-25T10:14:01.39Z</time></trkpt><trkpt lat="43.7884683" lon="12.1989733"><ele>518.0</ele><time>2026-04-25T10:14:02.391Z</time></trkpt><trkpt lat="43.788545" lon="12.199075"><ele>518.0</ele><time>2026-04-25T10:14:03.391Z</time></trkpt><trkpt lat="43.788635" lon="12.1991367"><ele>518.0</ele><time>2026-04-25T10:14:04.391Z</time></trkpt><trkpt lat="43.788735" lon="12.1991367"><ele>518.0</ele><time>2026-04-25T10:14:05.39Z</time></trkpt><trkpt lat="43.788835" lon="12.1990867"><ele>519.5</ele><time>2026-04-25T10:14:06.391Z</time></trkpt><trkpt lat="43.7889133" lon="12.198965"><ele>521.0</ele><time>2026-04-25T10:14:07.39Z</time></trkpt><trkpt lat="43.7889683" lon="12.1987967"><ele>522.5</ele><time>2026-04-25T10:14:08.391Z</time></trkpt><trkpt lat="43.7890183" lon="12.198615"><ele>524.0</ele><time>2026-04-25T10:14:09.391Z</time></trkpt><trkpt lat="43.7890717" lon="12.1984367"><ele>524.0</ele><time>2026-04-25T10:14:10.391Z</time></trkpt><trkpt lat="43.7891267" lon="12.1982567"><ele>524.0</ele><time>2026-04-25T10:14:11.391Z</time></trkpt><trkpt lat="43.78917" lon="12.198075"><ele>524.0</ele><time>2026-04-25T10:14:12.391Z</time></trkpt><trkpt lat="43.7891867" lon="12.197885"><ele>524.0</ele><time>2026-04-25T10:14:13.39Z</time></trkpt><trkpt lat="43.7891717" lon="12.1976983"><ele>527.6666666666666</ele><time>2026-04-25T10:14:14.391Z</time></trkpt><trkpt lat="43.7891333" lon="12.1974917"><ele>531.3333333333334</ele><time>2026-04-25T10:14:15.39Z</time></trkpt><trkpt lat="43.7890833" lon="12.1972917"><ele>535.0</ele><time>2026-04-25T10:14:16.39Z</time></trkpt><trkpt lat="43.7890317" lon="12.1970817"><ele>539.3333333333334</ele><time>2026-04-25T10:14:17.391Z</time></trkpt><trkpt lat="43.7889867" lon="12.1968683"><ele>543.6666666666666</ele><time>2026-04-25T10:14:18.39Z</time></trkpt><trkpt lat="43.7889333" lon="12.19666"><ele>548.0</ele><time>2026-04-25T10:14:19.391Z</time></trkpt><trkpt lat="43.7888667" lon="12.1964633"><ele>550.25</ele><time>2026-04-25T10:14:20.391Z</time></trkpt><trkpt lat="43.788785" lon="12.1962883"><ele>552.5</ele><time>2026-04-25T10:14:21.391Z</time></trkpt><trkpt lat="43.7887" lon="12.19614"><ele>554.75</ele><time>2026-04-25T10:14:22.391Z</time></trkpt><trkpt lat="43.7886233" lon="12.1960183"><ele>557.0</ele><time>2026-04-25T10:14:23.39Z</time></trkpt><trkpt lat="43.78857" lon="12.1958967"><ele>557.0</ele><time>2026-04-25T10:14:24.391Z</time></trkpt><trkpt lat="43.78855" lon="12.19578"><ele>557.0</ele><time>2026-04-25T10:14:25.391Z</time></trkpt><trkpt lat="43.7885633" lon="12.1956633"><ele>557.0</ele><time>2026-04-25T10:14:26.391Z</time></trkpt><trkpt lat="43.7886233" lon="12.195575"><ele>557.0</ele><time>2026-04-25T10:14:27.391Z</time></trkpt><trkpt lat="43.7887067" lon="12.19553"><ele>557.0</ele><time>2026-04-25T10:14:28.391Z</time></trkpt><trkpt lat="43.7888167" lon="12.19555"><ele>557.0</ele><time>2026-04-25T10:14:29.391Z</time></trkpt><trkpt lat="43.7889383" lon="12.1956033"><ele>557.0</ele><time>2026-04-25T10:14:30.39Z</time></trkpt><trkpt lat="43.78907" lon="12.1956783"><ele>557.0</ele><time>2026-04-25T10:14:31.39Z</time></trkpt><trkpt lat="43.789205" lon="12.195755"><ele>557.0</ele><time>2026-04-25T10:14:32.391Z</time></trkpt><trkpt lat="43.7893367" lon="12.19583"><ele>560.0</ele><time>2026-04-25T10:14:33.391Z</time></trkpt><trkpt lat="43.7894567" lon="12.1959383"><ele>563.0</ele><time>2026-04-25T10:14:34.391Z</time></trkpt><trkpt lat="43.7895583" lon="12.1960767"><ele>566.0</ele><time>2026-04-25T10:14:35.391Z</time></trkpt><trkpt lat="43.7896467" lon="12.196225"><ele>569.0</ele><time>2026-04-25T10:14:36.391Z</time></trkpt><trkpt lat="43.7897417" lon="12.196355"><ele>569.0</ele><time>2026-04-25T10:14:37.39Z</time></trkpt><trkpt lat="43.78985" lon="12.1964683"><ele>569.0</ele><time>2026-04-25T10:14:38.391Z</time></trkpt><trkpt lat="43.7899783" lon="12.1965433"><ele>569.0</ele><time>2026-04-25T10:14:39.39Z</time></trkpt><trkpt lat="43.7901267" lon="12.1965933"><ele>569.0</ele><time>2026-04-25T10:14:40.39Z</time></trkpt><trkpt lat="43.790295" lon="12.1966033"><ele>568.0</ele><time>2026-04-25T10:14:41.391Z</time></trkpt><trkpt lat="43.790465" lon="12.196605"><ele>567.0</ele><time>2026-04-25T10:14:42.39Z</time></trkpt><trkpt lat="43.79063" lon="12.1966167"><ele>566.0</ele><time>2026-04-25T10:14:43.391Z</time></trkpt><trkpt lat="43.7907917" lon="12.1966183"><ele>566.0</ele><time>2026-04-25T10:14:44.391Z</time></trkpt><trkpt lat="43.790945" lon="12.1965967"><ele>566.0</ele><time>2026-04-25T10:14:45.391Z</time></trkpt><trkpt lat="43.79108" lon="12.196515"><ele>566.0</ele><time>2026-04-25T10:14:46.391Z</time></trkpt><trkpt lat="43.7912067" lon="12.1963833"><ele>568.6666666666666</ele><time>2026-04-25T10:14:47.391Z</time></trkpt><trkpt lat="43.7913233" lon="12.19623"><ele>571.3333333333334</ele><time>2026-04-25T10:14:48.39Z</time></trkpt><trkpt lat="43.791445" lon="12.1960683"><ele>574.0</ele><time>2026-04-25T10:14:49.391Z</time></trkpt><trkpt lat="43.79158" lon="12.1959117"><ele>574.0</ele><time>2026-04-25T10:14:50.391Z</time></trkpt><trkpt lat="43.7917167" lon="12.1957533"><ele>574.0</ele><time>2026-04-25T10:14:51.391Z</time></trkpt><trkpt lat="43.7918683" lon="12.1956067"><ele>574.0</ele><time>2026-04-25T10:14:52.39Z</time></trkpt><trkpt lat="43.7920217" lon="12.19546"><ele>576.3333333333334</ele><time>2026-04-25T10:14:53.39Z</time></trkpt><trkpt lat="43.7921717" lon="12.1953283"><ele>578.6666666666666</ele><time>2026-04-25T10:14:54.39Z</time></trkpt><trkpt lat="43.7923067" lon="12.1951917"><ele>581.0</ele><time>2026-04-25T10:14:55.39Z</time></trkpt><trkpt lat="43.792435" lon="12.1950583"><ele>581.0</ele><time>2026-04-25T10:14:56.391Z</time></trkpt><trkpt lat="43.79257" lon="12.194915"><ele>581.0</ele><time>2026-04-25T10:14:57.391Z</time></trkpt><trkpt lat="43.7926917" lon="12.1947667"><ele>581.0</ele><time>2026-04-25T10:14:58.391Z</time></trkpt><trkpt lat="43.7928083" lon="12.194635"><ele>585.5</ele><time>2026-04-25T10:14:59.391Z</time></trkpt><trkpt lat="43.7929117" lon="12.1945483"><ele>590.0</ele><time>2026-04-25T10:15:00.391Z</time></trkpt><trkpt lat="43.7930183" lon="12.1945"><ele>594.5</ele><time>2026-04-25T10:15:01.391Z</time></trkpt><trkpt lat="43.7931233" lon="12.1945117"><ele>599.0</ele><time>2026-04-25T10:15:02.39Z</time></trkpt><trkpt lat="43.7932367" lon="12.1945783"><ele>599.0</ele><time>2026-04-25T10:15:03.39Z</time></trkpt><trkpt lat="43.7933567" lon="12.1946733"><ele>599.0</ele><time>2026-04-25T10:15:04.391Z</time></trkpt><trkpt lat="43.7934867" lon="12.19479"><ele>599.0</ele><time>2026-04-25T10:15:05.39Z</time></trkpt><trkpt lat="43.7936317" lon="12.194905"><ele>597.0</ele><time>2026-04-25T10:15:06.391Z</time></trkpt><trkpt lat="43.7937817" lon="12.1950317"><ele>595.0</ele><time>2026-04-25T10:15:07.39Z</time></trkpt><trkpt lat="43.7939383" lon="12.19516"><ele>593.0</ele><time>2026-04-25T10:15:08.39Z</time></trkpt><trkpt lat="43.7940967" lon="12.1952967"><ele>593.0</ele><time>2026-04-25T10:15:09.39Z</time></trkpt><trkpt lat="43.79426" lon="12.1954233"><ele>593.0</ele><time>2026-04-25T10:15:10.391Z</time></trkpt><trkpt lat="43.79442" lon="12.1955483"><ele>593.0</ele><time>2026-04-25T10:15:11.39Z</time></trkpt><trkpt lat="43.79458" lon="12.1956633"><ele>592.6666666666666</ele><time>2026-04-25T10:15:12.391Z</time></trkpt><trkpt lat="43.7947317" lon="12.1957833"><ele>592.3333333333334</ele><time>2026-04-25T10:15:13.391Z</time></trkpt><trkpt lat="43.794875" lon="12.195895"><ele>592.0</ele><time>2026-04-25T10:15:14.391Z</time></trkpt><trkpt lat="43.79501" lon="12.1959967"><ele>592.0</ele><time>2026-04-25T10:15:15.391Z</time></trkpt><trkpt lat="43.7951317" lon="12.1961"><ele>592.0</ele><time>2026-04-25T10:15:16.391Z</time></trkpt><trkpt lat="43.79525" lon="12.1961867"><ele>592.0</ele><time>2026-04-25T10:15:17.391Z</time></trkpt><trkpt lat="43.7953583" lon="12.1962433"><ele>592.0</ele><time>2026-04-25T10:15:18.391Z</time></trkpt><trkpt lat="43.7954533" lon="12.196255"><ele>592.0</ele><time>2026-04-25T10:15:19.391Z</time></trkpt><trkpt lat="43.7955467" lon="12.1962317"><ele>592.0</ele><time>2026-04-25T10:15:20.39Z</time></trkpt><trkpt lat="43.7956483" lon="12.1961833"><ele>592.0</ele><time>2026-04-25T10:15:21.391Z</time></trkpt><trkpt lat="43.7957567" lon="12.1961167"><ele>592.0</ele><time>2026-04-25T10:15:22.391Z</time></trkpt><trkpt lat="43.7958517" lon="12.19604"><ele>592.0</ele><time>2026-04-25T10:15:23.391Z</time></trkpt><trkpt lat="43.79595" lon="12.1959533"><ele>594.0</ele><time>2026-04-25T10:15:24.391Z</time></trkpt><trkpt lat="43.7960533" lon="12.19588"><ele>596.0</ele><time>2026-04-25T10:15:25.39Z</time></trkpt><trkpt lat="43.7961683" lon="12.1958333"><ele>598.0</ele><time>2026-04-25T10:15:26.391Z</time></trkpt><trkpt lat="43.7962917" lon="12.19582"><ele>600.0</ele><time>2026-04-25T10:15:27.39Z</time></trkpt><trkpt lat="43.7964217" lon="12.19585"><ele>600.0</ele><time>2026-04-25T10:15:28.39Z</time></trkpt><trkpt lat="43.7965483" lon="12.1959083"><ele>600.0</ele><time>2026-04-25T10:15:29.39Z</time></trkpt><trkpt lat="43.7966683" lon="12.196005"><ele>600.0</ele><time>2026-04-25T10:15:30.391Z</time></trkpt><trkpt lat="43.796775" lon="12.1961233"><ele>600.0</ele><time>2026-04-25T10:15:31.391Z</time></trkpt><trkpt lat="43.7968667" lon="12.1962467"><ele>596.5</ele><time>2026-04-25T10:15:32.39Z</time></trkpt><trkpt lat="43.79696" lon="12.1963683"><ele>593.0</ele><time>2026-04-25T10:15:33.39Z</time></trkpt><trkpt lat="43.7970717" lon="12.19648"><ele>589.5</ele><time>2026-04-25T10:15:34.391Z</time></trkpt><trkpt lat="43.7971867" lon="12.1965683"><ele>586.0</ele><time>2026-04-25T10:15:35.39Z</time></trkpt><trkpt lat="43.797315" lon="12.19665"><ele>586.0</ele><time>2026-04-25T10:15:36.39Z</time></trkpt><trkpt lat="43.7974367" lon="12.1967233"><ele>586.0</ele><time>2026-04-25T10:15:37.391Z</time></trkpt><trkpt lat="43.7975533" lon="12.1968017"><ele>586.0</ele><time>2026-04-25T10:15:38.391Z</time></trkpt><trkpt lat="43.7976717" lon="12.1968883"><ele>586.0</ele><time>2026-04-25T10:15:39.391Z</time></trkpt><trkpt lat="43.7977867" lon="12.1969567"><ele>584.75</ele><time>2026-04-25T10:15:40.391Z</time></trkpt><trkpt lat="43.7979083" lon="12.1969983"><ele>583.5</ele><time>2026-04-25T10:15:41.39Z</time></trkpt><trkpt lat="43.7980283" lon="12.1970283"><ele>582.25</ele><time>2026-04-25T10:15:42.39Z</time></trkpt><trkpt lat="43.7981367" lon="12.1970517"><ele>581.0</ele><time>2026-04-25T10:15:43.391Z</time></trkpt><trkpt lat="43.798235" lon="12.1970783"><ele>581.0</ele><time>2026-04-25T10:15:44.39Z</time></trkpt><trkpt lat="43.7983383" lon="12.19707"><ele>581.0</ele><time>2026-04-25T10:15:45.391Z</time></trkpt><trkpt lat="43.7984517" lon="12.19702"><ele>581.0</ele><time>2026-04-25T10:15:46.391Z</time></trkpt><trkpt lat="43.798565" lon="12.1969283"><ele>581.0</ele><time>2026-04-25T10:15:47.391Z</time></trkpt><trkpt lat="43.7986733" lon="12.196825"><ele>575.75</ele><time>2026-04-25T10:15:48.39Z</time></trkpt><trkpt lat="43.79878" lon="12.1967217"><ele>570.5</ele><time>2026-04-25T10:15:49.391Z</time></trkpt><trkpt lat="43.7988817" lon="12.19662"><ele>565.25</ele><time>2026-04-25T10:15:50.39Z</time></trkpt><trkpt lat="43.7989717" lon="12.1965283"><ele>560.0</ele><time>2026-04-25T10:15:51.39Z</time></trkpt><trkpt lat="43.7990433" lon="12.19643"><ele>560.0</ele><time>2026-04-25T10:15:52.39Z</time></trkpt><trkpt lat="43.79909" lon="12.1963133"><ele>560.0</ele><time>2026-04-25T10:15:53.39Z</time></trkpt><trkpt lat="43.7991133" lon="12.19619"><ele>560.0</ele><time>2026-04-25T10:15:54.39Z</time></trkpt><trkpt lat="43.79911" lon="12.196045"><ele>560.0</ele><time>2026-04-25T10:15:55.39Z</time></trkpt><trkpt lat="43.7990833" lon="12.1958867"><ele>560.0</ele><time>2026-04-25T10:15:56.39Z</time></trkpt><trkpt lat="43.799025" lon="12.19572"><ele>561.5</ele><time>2026-04-25T10:15:57.391Z</time></trkpt><trkpt lat="43.7989733" lon="12.1955583"><ele>563.0</ele><time>2026-04-25T10:15:58.391Z</time></trkpt><trkpt lat="43.7989467" lon="12.1954017"><ele>564.5</ele><time>2026-04-25T10:15:59.391Z</time></trkpt><trkpt lat="43.7989317" lon="12.1952483"><ele>566.0</ele><time>2026-04-25T10:16:00.391Z</time></trkpt><trkpt lat="43.7989417" lon="12.1950967"><ele>566.0</ele><time>2026-04-25T10:16:01.391Z</time></trkpt><trkpt lat="43.79898" lon="12.1949433"><ele>566.0</ele><time>2026-04-25T10:16:02.391Z</time></trkpt><trkpt lat="43.799045" lon="12.1948183"><ele>566.0</ele><time>2026-04-25T10:16:03.391Z</time></trkpt><trkpt lat="43.7991333" lon="12.1947067"><ele>566.0</ele><time>2026-04-25T10:16:04.39Z</time></trkpt><trkpt lat="43.79923" lon="12.1946483"><ele>570.75</ele><time>2026-04-25T10:16:05.391Z</time></trkpt><trkpt lat="43.7993467" lon="12.194625"><ele>575.5</ele><time>2026-04-25T10:16:06.391Z</time></trkpt><trkpt lat="43.7994717" lon="12.1946467"><ele>580.25</ele><time>2026-04-25T10:16:07.39Z</time></trkpt><trkpt lat="43.7996017" lon="12.19469"><ele>585.0</ele><time>2026-04-25T10:16:08.39Z</time></trkpt><trkpt lat="43.7997283" lon="12.1947383"><ele>585.0</ele><time>2026-04-25T10:16:09.39Z</time></trkpt><trkpt lat="43.799845" lon="12.1947867"><ele>585.0</ele><time>2026-04-25T10:16:10.391Z</time></trkpt><trkpt lat="43.7999517" lon="12.1948083"><ele>585.0</ele><time>2026-04-25T10:16:11.391Z</time></trkpt><trkpt lat="43.8000633" lon="12.1947933"><ele>585.0</ele><time>2026-04-25T10:16:12.391Z</time></trkpt><trkpt lat="43.8001867" lon="12.1947567"><ele>582.25</ele><time>2026-04-25T10:16:13.391Z</time></trkpt><trkpt lat="43.8003217" lon="12.1947"><ele>579.5</ele><time>2026-04-25T10:16:14.391Z</time></trkpt><trkpt lat="43.8004667" lon="12.1946417"><ele>576.75</ele><time>2026-04-25T10:16:15.39Z</time></trkpt><trkpt lat="43.800605" lon="12.194595"><ele>574.0</ele><time>2026-04-25T10:16:16.39Z</time></trkpt><trkpt lat="43.8007417" lon="12.1945717"><ele>574.0</ele><time>2026-04-25T10:16:17.39Z</time></trkpt><trkpt lat="43.8008667" lon="12.1945817"><ele>574.0</ele><time>2026-04-25T10:16:18.39Z</time></trkpt><trkpt lat="43.8009783" lon="12.1946133"><ele>574.0</ele><time>2026-04-25T10:16:19.391Z</time></trkpt><trkpt lat="43.8010817" lon="12.1946317"><ele>574.0</ele><time>2026-04-25T10:16:20.391Z</time></trkpt><trkpt lat="43.8011717" lon="12.19463"><ele>574.0</ele><time>2026-04-25T10:16:21.391Z</time></trkpt><trkpt lat="43.8012617" lon="12.1945733"><ele>569.4</ele><time>2026-04-25T10:16:22.39Z</time></trkpt><trkpt lat="43.8013383" lon="12.1944883"><ele>564.8</ele><time>2026-04-25T10:16:23.391Z</time></trkpt><trkpt lat="43.8013933" lon="12.1943617"><ele>560.2</ele><time>2026-04-25T10:16:24.39Z</time></trkpt><trkpt lat="43.8014267" lon="12.1942083"><ele>555.6</ele><time>2026-04-25T10:16:25.391Z</time></trkpt><trkpt lat="43.8014567" lon="12.1940617"><ele>551.0</ele><time>2026-04-25T10:16:26.39Z</time></trkpt><trkpt lat="43.80151" lon="12.19393"><ele>551.0</ele><time>2026-04-25T10:16:27.391Z</time></trkpt><trkpt lat="43.8015767" lon="12.19383"><ele>551.0</ele><time>2026-04-25T10:16:28.39Z</time></trkpt><trkpt lat="43.80165" lon="12.1937467"><ele>551.0</ele><time>2026-04-25T10:16:29.391Z</time></trkpt><trkpt lat="43.801705" lon="12.1936467"><ele>551.0</ele><time>2026-04-25T10:16:30.391Z</time></trkpt><trkpt lat="43.8017417" lon="12.19354"><ele>551.0</ele><time>2026-04-25T10:16:31.39Z</time></trkpt><trkpt lat="43.8017517" lon="12.193415"><ele>551.0</ele><time>2026-04-25T10:16:32.39Z</time></trkpt><trkpt lat="43.80174" lon="12.1932917"><ele>551.0</ele><time>2026-04-25T10:16:33.391Z</time></trkpt><trkpt lat="43.8017127" lon="12.1931773"><ele>551.0</ele><time>2026-04-25T10:16:34.391Z</time></trkpt><trkpt lat="43.8016391" lon="12.1930822"><ele>551.0</ele><time>2026-04-25T10:16:35.39Z</time></trkpt><trkpt lat="43.801528" lon="12.19301"><ele>551.0</ele><time>2026-04-25T10:16:36.39Z</time></trkpt><trkpt lat="43.8013814" lon="12.1929725"><ele>549.25</ele><time>2026-04-25T10:16:37.39Z</time></trkpt><trkpt lat="43.801235" lon="12.1929605"><ele>547.5</ele><time>2026-04-25T10:16:38.391Z</time></trkpt><trkpt lat="43.8011029" lon="12.1929641"><ele>545.75</ele><time>2026-04-25T10:16:39.391Z</time></trkpt><trkpt lat="43.8009933" lon="12.1929554"><ele>544.0</ele><time>2026-04-25T10:16:40.39Z</time></trkpt><trkpt lat="43.8008934" lon="12.1929271"><ele>544.0</ele><time>2026-04-25T10:16:41.391Z</time></trkpt><trkpt lat="43.8007953" lon="12.1928625"><ele>544.0</ele><time>2026-04-25T10:16:42.39Z</time></trkpt><trkpt lat="43.8007071" lon="12.192764"><ele>544.0</ele><time>2026-04-25T10:16:43.391Z</time></trkpt><trkpt lat="43.8006262" lon="12.1926346"><ele>544.0</ele><time>2026-04-25T10:16:44.39Z</time></trkpt><trkpt lat="43.8005492" lon="12.1924903"><ele>544.0</ele><time>2026-04-25T10:16:45.391Z</time></trkpt><trkpt lat="43.8004733" lon="12.1923598"><ele>544.0</ele><time>2026-04-25T10:16:46.391Z</time></trkpt><trkpt lat="43.8004027" lon="12.1922454"><ele>544.0</ele><time>2026-04-25T10:16:47.391Z</time></trkpt><trkpt lat="43.8003445" lon="12.1921284"><ele>544.0</ele><time>2026-04-25T10:16:48.39Z</time></trkpt><trkpt lat="43.8003026" lon="12.1920047"><ele>544.0</ele><time>2026-04-25T10:16:49.391Z</time></trkpt><trkpt lat="43.8003008" lon="12.1918715"><ele>544.5</ele><time>2026-04-25T10:16:50.391Z</time></trkpt><trkpt lat="43.8003366" lon="12.1917314"><ele>545.0</ele><time>2026-04-25T10:16:51.391Z</time></trkpt><trkpt lat="43.8004043" lon="12.1915893"><ele>545.5</ele><time>2026-04-25T10:16:52.391Z</time></trkpt><trkpt lat="43.8004841" lon="12.1914325"><ele>546.0</ele><time>2026-04-25T10:16:53.39Z</time></trkpt><trkpt lat="43.8005654" lon="12.1912736"><ele>546.0</ele><time>2026-04-25T10:16:54.391Z</time></trkpt><trkpt lat="43.8006406" lon="12.1911197"><ele>546.0</ele><time>2026-04-25T10:16:55.39Z</time></trkpt><trkpt lat="43.8007088" lon="12.1909745"><ele>546.0</ele><time>2026-04-25T10:16:56.391Z</time></trkpt><trkpt lat="43.8007617" lon="12.190823"><ele>546.0</ele><time>2026-04-25T10:16:57.39Z</time></trkpt><trkpt lat="43.8007958" lon="12.1906614"><ele>546.0</ele><time>2026-04-25T10:16:58.391Z</time></trkpt><trkpt lat="43.800811" lon="12.1904879"><ele>546.0</ele><time>2026-04-25T10:16:59.391Z</time></trkpt><trkpt lat="43.8008165" lon="12.1903157"><ele>546.0</ele><time>2026-04-25T10:17:00.39Z</time></trkpt><trkpt lat="43.800832" lon="12.1901564"><ele>546.0</ele><time>2026-04-25T10:17:01.391Z</time></trkpt><trkpt lat="43.8008526" lon="12.1900066"><ele>546.0</ele><time>2026-04-25T10:17:02.39Z</time></trkpt><trkpt lat="43.800858" lon="12.1898767"><ele>546.0</ele><time>2026-04-25T10:17:03.39Z</time></trkpt><trkpt lat="43.8008321" lon="12.1897597"><ele>546.0</ele><time>2026-04-25T10:17:04.389Z</time></trkpt><trkpt lat="43.8007667" lon="12.189662"><ele>546.0</ele><time>2026-04-25T10:17:05.39Z</time></trkpt><trkpt lat="43.8006747" lon="12.1895865"><ele>546.0</ele><time>2026-04-25T10:17:06.39Z</time></trkpt><trkpt lat="43.8005573" lon="12.1895352"><ele>545.0</ele><time>2026-04-25T10:17:07.39Z</time></trkpt><trkpt lat="43.800422" lon="12.1895013"><ele>544.0</ele><time>2026-04-25T10:17:08.39Z</time></trkpt><trkpt lat="43.8002801" lon="12.1894735"><ele>543.0</ele><time>2026-04-25T10:17:09.39Z</time></trkpt><trkpt lat="43.8001402" lon="12.1894566"><ele>542.0</ele><time>2026-04-25T10:17:10.39Z</time></trkpt><trkpt lat="43.8000098" lon="12.1894468"><ele>542.0</ele><time>2026-04-25T10:17:11.389Z</time></trkpt><trkpt lat="43.7998836" lon="12.1894429"><ele>542.0</ele><time>2026-04-25T10:17:12.389Z</time></trkpt><trkpt lat="43.7997635" lon="12.1894308"><ele>542.0</ele><time>2026-04-25T10:17:13.39Z</time></trkpt><trkpt lat="43.7996509" lon="12.1894119"><ele>542.0</ele><time>2026-04-25T10:17:14.39Z</time></trkpt><trkpt lat="43.799548" lon="12.1893694"><ele>542.0</ele><time>2026-04-25T10:17:15.389Z</time></trkpt><trkpt lat="43.7994588" lon="12.189311"><ele>542.0</ele><time>2026-04-25T10:17:16.39Z</time></trkpt><trkpt lat="43.79938" lon="12.1892285"><ele>542.0</ele><time>2026-04-25T10:17:17.39Z</time></trkpt><trkpt lat="43.7993178" lon="12.189112"><ele>542.0</ele><time>2026-04-25T10:17:18.39Z</time></trkpt><trkpt lat="43.7992872" lon="12.1889658"><ele>542.0</ele><time>2026-04-25T10:17:19.39Z</time></trkpt><trkpt lat="43.7992882" lon="12.1887948"><ele>539.0</ele><time>2026-04-25T10:17:20.39Z</time></trkpt><trkpt lat="43.7993182" lon="12.1886182"><ele>536.0</ele><time>2026-04-25T10:17:21.39Z</time></trkpt><trkpt lat="43.7993608" lon="12.1884446"><ele>533.0</ele><time>2026-04-25T10:17:22.39Z</time></trkpt><trkpt lat="43.7993931" lon="12.1882728"><ele>530.0</ele><time>2026-04-25T10:17:23.39Z</time></trkpt><trkpt lat="43.7994093" lon="12.1881105"><ele>528.5</ele><time>2026-04-25T10:17:24.39Z</time></trkpt><trkpt lat="43.7993858" lon="12.1879551"><ele>527.0</ele><time>2026-04-25T10:17:25.389Z</time></trkpt><trkpt lat="43.7993323" lon="12.1878028"><ele>525.5</ele><time>2026-04-25T10:17:26.39Z</time></trkpt><trkpt lat="43.7992561" lon="12.1876506"><ele>524.0</ele><time>2026-04-25T10:17:27.389Z</time></trkpt><trkpt lat="43.7991727" lon="12.1875081"><ele>527.25</ele><time>2026-04-25T10:17:28.39Z</time></trkpt><trkpt lat="43.7990866" lon="12.1873808"><ele>530.5</ele><time>2026-04-25T10:17:29.389Z</time></trkpt><trkpt lat="43.7989903" lon="12.187274"><ele>533.75</ele><time>2026-04-25T10:17:30.39Z</time></trkpt><trkpt lat="43.7988881" lon="12.1871962"><ele>537.0</ele><time>2026-04-25T10:17:31.389Z</time></trkpt><trkpt lat="43.7987888" lon="12.1871393"><ele>537.0</ele><time>2026-04-25T10:17:32.39Z</time></trkpt><trkpt lat="43.7987014" lon="12.1870835"><ele>537.0</ele><time>2026-04-25T10:17:33.389Z</time></trkpt><trkpt lat="43.7986377" lon="12.1869957"><ele>537.0</ele><time>2026-04-25T10:17:34.389Z</time></trkpt><trkpt lat="43.7986036" lon="12.1868688"><ele>537.0</ele><time>2026-04-25T10:17:35.39Z</time></trkpt><trkpt lat="43.798586" lon="12.1867047"><ele>537.0</ele><time>2026-04-25T10:17:36.389Z</time></trkpt><trkpt lat="43.798577" lon="12.1865276"><ele>535.75</ele><time>2026-04-25T10:17:37.39Z</time></trkpt><trkpt lat="43.7985593" lon="12.1863501"><ele>534.5</ele><time>2026-04-25T10:17:38.39Z</time></trkpt><trkpt lat="43.798537" lon="12.1861834"><ele>533.25</ele><time>2026-04-25T10:17:39.389Z</time></trkpt><trkpt lat="43.7985196" lon="12.1860346"><ele>532.0</ele><time>2026-04-25T10:17:40.39Z</time></trkpt><trkpt lat="43.7985014" lon="12.185891"><ele>532.6</ele><time>2026-04-25T10:17:41.39Z</time></trkpt><trkpt lat="43.798487" lon="12.1857668"><ele>533.2</ele><time>2026-04-25T10:17:42.39Z</time></trkpt><trkpt lat="43.7984849" lon="12.185644"><ele>533.8</ele><time>2026-04-25T10:17:43.389Z</time></trkpt><trkpt lat="43.7985027" lon="12.1855059"><ele>534.4</ele><time>2026-04-25T10:17:44.39Z</time></trkpt><trkpt lat="43.7985261" lon="12.1853517"><ele>535.0</ele><time>2026-04-25T10:17:45.389Z</time></trkpt><trkpt lat="43.7985507" lon="12.185209"><ele>535.0</ele><time>2026-04-25T10:17:46.39Z</time></trkpt><trkpt lat="43.7985764" lon="12.1850697"><ele>535.0</ele><time>2026-04-25T10:17:47.39Z</time></trkpt><trkpt lat="43.7985988" lon="12.1849335"><ele>535.0</ele><time>2026-04-25T10:17:48.389Z</time></trkpt><trkpt lat="43.7986096" lon="12.1847991"><ele>535.0</ele><time>2026-04-25T10:17:49.39Z</time></trkpt><trkpt lat="43.7986191" lon="12.1846725"><ele>535.0</ele><time>2026-04-25T10:17:50.39Z</time></trkpt><trkpt lat="43.7986305" lon="12.1845562"><ele>535.1666666666667</ele><time>2026-04-25T10:17:51.39Z</time></trkpt><trkpt lat="43.7986477" lon="12.1844498"><ele>535.3333333333334</ele><time>2026-04-25T10:17:52.39Z</time></trkpt><trkpt lat="43.7986688" lon="12.1843483"><ele>535.5</ele><time>2026-04-25T10:17:53.39Z</time></trkpt><trkpt lat="43.7986897" lon="12.1842449"><ele>535.6666666666666</ele><time>2026-04-25T10:17:54.389Z</time></trkpt><trkpt lat="43.7987125" lon="12.1841312"><ele>535.8333333333333</ele><time>2026-04-25T10:17:55.389Z</time></trkpt><trkpt lat="43.7987358" lon="12.1840061"><ele>536.0</ele><time>2026-04-25T10:17:56.39Z</time></trkpt><trkpt lat="43.7987552" lon="12.183878"><ele>536.0</ele><time>2026-04-25T10:17:57.39Z</time></trkpt><trkpt lat="43.7987724" lon="12.1837456"><ele>536.0</ele><time>2026-04-25T10:17:58.39Z</time></trkpt><trkpt lat="43.7987875" lon="12.1836195"><ele>536.0</ele><time>2026-04-25T10:17:59.389Z</time></trkpt><trkpt lat="43.7988005" lon="12.183506"><ele>536.0</ele><time>2026-04-25T10:18:00.39Z</time></trkpt><trkpt lat="43.7988099" lon="12.183408"><ele>536.0</ele><time>2026-04-25T10:18:01.39Z</time></trkpt><trkpt lat="43.7988187" lon="12.1833181"><ele>536.0</ele><time>2026-04-25T10:18:02.39Z</time></trkpt><trkpt lat="43.7988348" lon="12.1832337"><ele>535.6666666666666</ele><time>2026-04-25T10:18:03.39Z</time></trkpt><trkpt lat="43.7988649" lon="12.183063"><ele>535.3333333333333</ele><time>2026-04-25T10:18:05.39Z</time></trkpt><trkpt lat="43.7988683" lon="12.1829681"><ele>535.0</ele><time>2026-04-25T10:18:06.39Z</time></trkpt><trkpt lat="43.7988659" lon="12.1828803"><ele>534.6666666666666</ele><time>2026-04-25T10:18:07.389Z</time></trkpt><trkpt lat="43.798856" lon="12.1827893"><ele>534.3333333333334</ele><time>2026-04-25T10:18:08.389Z</time></trkpt><trkpt lat="43.7988485" lon="12.1826813"><ele>534.0</ele><time>2026-04-25T10:18:09.389Z</time></trkpt><trkpt lat="43.7988361" lon="12.1825577"><ele>534.0</ele><time>2026-04-25T10:18:10.39Z</time></trkpt><trkpt lat="43.7988191" lon="12.18243"><ele>534.0</ele><time>2026-04-25T10:18:11.39Z</time></trkpt><trkpt lat="43.7987947" lon="12.1823155"><ele>534.0</ele><time>2026-04-25T10:18:12.39Z</time></trkpt><trkpt lat="43.7987686" lon="12.1822099"><ele>534.0</ele><time>2026-04-25T10:18:13.39Z</time></trkpt><trkpt lat="43.7987473" lon="12.1821178"><ele>534.0</ele><time>2026-04-25T10:18:14.39Z</time></trkpt><trkpt lat="43.7987183" lon="12.18203"><ele>534.0</ele><time>2026-04-25T10:18:15.39Z</time></trkpt><trkpt lat="43.7986733" lon="12.1819617"><ele>534.8333333333334</ele><time>2026-04-25T10:18:16.39Z</time></trkpt><trkpt lat="43.7986167" lon="12.1819133"><ele>535.6666666666666</ele><time>2026-04-25T10:18:17.39Z</time></trkpt><trkpt lat="43.7985567" lon="12.1818817"><ele>536.5</ele><time>2026-04-25T10:18:18.39Z</time></trkpt><trkpt lat="43.7984383" lon="12.1818333"><ele>537.3333333333333</ele><time>2026-04-25T10:18:20.39Z</time></trkpt><trkpt lat="43.798375" lon="12.1818"><ele>538.1666666666666</ele><time>2026-04-25T10:18:21.39Z</time></trkpt><trkpt lat="43.798305" lon="12.1817617"><ele>539.0</ele><time>2026-04-25T10:18:22.39Z</time></trkpt><trkpt lat="43.7982317" lon="12.1817367"><ele>539.0</ele><time>2026-04-25T10:18:23.389Z</time></trkpt><trkpt lat="43.7981567" lon="12.1817183"><ele>539.0</ele><time>2026-04-25T10:18:24.39Z</time></trkpt><trkpt lat="43.79808" lon="12.1816983"><ele>539.0</ele><time>2026-04-25T10:18:25.39Z</time></trkpt><trkpt lat="43.7979983" lon="12.1816767"><ele>539.0</ele><time>2026-04-25T10:18:26.389Z</time></trkpt><trkpt lat="43.79792" lon="12.1816417"><ele>539.0</ele><time>2026-04-25T10:18:27.39Z</time></trkpt><trkpt lat="43.7978483" lon="12.1815883"><ele>539.0</ele><time>2026-04-25T10:18:28.389Z</time></trkpt><trkpt lat="43.79778" lon="12.18155"><ele>539.0</ele><time>2026-04-25T10:18:29.39Z</time></trkpt><trkpt lat="43.7977017" lon="12.181525"><ele>539.0</ele><time>2026-04-25T10:18:30.39Z</time></trkpt><trkpt lat="43.797635" lon="12.1814933"><ele>539.0</ele><time>2026-04-25T10:18:31.389Z</time></trkpt><trkpt lat="43.797575" lon="12.1814367"><ele>539.0</ele><time>2026-04-25T10:18:32.39Z</time></trkpt><trkpt lat="43.7975283" lon="12.1813633"><ele>539.0</ele><time>2026-04-25T10:18:33.39Z</time></trkpt><trkpt lat="43.79749" lon="12.1812767"><ele>539.0</ele><time>2026-04-25T10:18:34.389Z</time></trkpt><trkpt lat="43.79747" lon="12.1811767"><ele>539.0</ele><time>2026-04-25T10:18:35.389Z</time></trkpt><trkpt lat="43.7974667" lon="12.1810717"><ele>537.8333333333333</ele><time>2026-04-25T10:18:36.39Z</time></trkpt><trkpt lat="43.7974833" lon="12.1809417"><ele>536.6666666666666</ele><time>2026-04-25T10:18:37.39Z</time></trkpt><trkpt lat="43.7974867" lon="12.1808183"><ele>535.5</ele><time>2026-04-25T10:18:38.39Z</time></trkpt><trkpt lat="43.7974733" lon="12.18071"><ele>534.3333333333334</ele><time>2026-04-25T10:18:39.39Z</time></trkpt><trkpt lat="43.7974433" lon="12.18063"><ele>533.1666666666667</ele><time>2026-04-25T10:18:40.39Z</time></trkpt><trkpt lat="43.79738" lon="12.18052"><ele>532.0</ele><time>2026-04-25T10:18:42.39Z</time></trkpt><trkpt lat="43.7973083" lon="12.1803983"><ele>532.0</ele><time>2026-04-25T10:18:44.389Z</time></trkpt><trkpt lat="43.7972817" lon="12.180315"><ele>532.0</ele><time>2026-04-25T10:18:45.39Z</time></trkpt><trkpt lat="43.7972617" lon="12.180215"><ele>532.0</ele><time>2026-04-25T10:18:46.39Z</time></trkpt><trkpt lat="43.7972517" lon="12.1801"><ele>532.0</ele><time>2026-04-25T10:18:47.39Z</time></trkpt><trkpt lat="43.7972567" lon="12.1799933"><ele>532.0</ele><time>2026-04-25T10:18:48.39Z</time></trkpt><trkpt lat="43.79728" lon="12.1798833"><ele>532.0</ele><time>2026-04-25T10:18:49.39Z</time></trkpt><trkpt lat="43.7973083" lon="12.1797617"><ele>533.8333333333334</ele><time>2026-04-25T10:18:50.39Z</time></trkpt><trkpt lat="43.79733" lon="12.1796433"><ele>535.6666666666667</ele><time>2026-04-25T10:18:51.39Z</time></trkpt><trkpt lat="43.7973517" lon="12.1795317"><ele>537.5</ele><time>2026-04-25T10:18:52.39Z</time></trkpt><trkpt lat="43.797385" lon="12.1794117"><ele>539.3333333333334</ele><time>2026-04-25T10:18:53.39Z</time></trkpt><trkpt lat="43.7974167" lon="12.1793033"><ele>541.1666666666666</ele><time>2026-04-25T10:18:54.39Z</time></trkpt><trkpt lat="43.7974483" lon="12.1792183"><ele>543.0</ele><time>2026-04-25T10:18:55.39Z</time></trkpt><trkpt lat="43.797495" lon="12.1791483"><ele>543.0</ele><time>2026-04-25T10:18:56.389Z</time></trkpt><trkpt lat="43.7975833" lon="12.179055"><ele>543.0</ele><time>2026-04-25T10:18:58.39Z</time></trkpt><trkpt lat="43.797615" lon="12.1789333"><ele>543.0</ele><time>2026-04-25T10:19:00.39Z</time></trkpt><trkpt lat="43.7975867" lon="12.1787417"><ele>543.0</ele><time>2026-04-25T10:19:02.389Z</time></trkpt><trkpt lat="43.797545" lon="12.1786317"><ele>543.0</ele><time>2026-04-25T10:19:03.39Z</time></trkpt><trkpt lat="43.7975017" lon="12.17854"><ele>543.0</ele><time>2026-04-25T10:19:04.39Z</time></trkpt><trkpt lat="43.7974483" lon="12.178455"><ele>543.0</ele><time>2026-04-25T10:19:05.39Z</time></trkpt><trkpt lat="43.797385" lon="12.1783767"><ele>543.0</ele><time>2026-04-25T10:19:06.39Z</time></trkpt><trkpt lat="43.797305" lon="12.1782983"><ele>543.0</ele><time>2026-04-25T10:19:07.39Z</time></trkpt><trkpt lat="43.7972283" lon="12.1782067"><ele>543.0</ele><time>2026-04-25T10:19:08.389Z</time></trkpt><trkpt lat="43.7971583" lon="12.1781067"><ele>541.0</ele><time>2026-04-25T10:19:09.389Z</time></trkpt><trkpt lat="43.7970883" lon="12.1780083"><ele>539.0</ele><time>2026-04-25T10:19:10.39Z</time></trkpt><trkpt lat="43.797025" lon="12.177915"><ele>537.0</ele><time>2026-04-25T10:19:11.39Z</time></trkpt><trkpt lat="43.79696" lon="12.17784"><ele>535.0</ele><time>2026-04-25T10:19:12.39Z</time></trkpt><trkpt lat="43.7968833" lon="12.1777817"><ele>533.0</ele><time>2026-04-25T10:19:13.39Z</time></trkpt><trkpt lat="43.796805" lon="12.1777367"><ele>531.0</ele><time>2026-04-25T10:19:14.39Z</time></trkpt><trkpt lat="43.796725" lon="12.1777017"><ele>535.1666666666666</ele><time>2026-04-25T10:19:15.389Z</time></trkpt><trkpt lat="43.7966467" lon="12.1776667"><ele>539.3333333333334</ele><time>2026-04-25T10:19:16.389Z</time></trkpt><trkpt lat="43.7965767" lon="12.1776067"><ele>543.5</ele><time>2026-04-25T10:19:17.389Z</time></trkpt><trkpt lat="43.7965167" lon="12.1775217"><ele>547.6666666666667</ele><time>2026-04-25T10:19:18.389Z</time></trkpt><trkpt lat="43.79647" lon="12.1774333"><ele>551.8333333333334</ele><time>2026-04-25T10:19:19.39Z</time></trkpt><trkpt lat="43.7964333" lon="12.1773317"><ele>556.0</ele><time>2026-04-25T10:19:20.39Z</time></trkpt><trkpt lat="43.7964" lon="12.1772283"><ele>556.0</ele><time>2026-04-25T10:19:21.389Z</time></trkpt><trkpt lat="43.7963783" lon="12.1771333"><ele>556.0</ele><time>2026-04-25T10:19:22.39Z</time></trkpt><trkpt lat="43.79634" lon="12.17698"><ele>556.0</ele><time>2026-04-25T10:19:24.39Z</time></trkpt><trkpt lat="43.7962483" lon="12.1769267"><ele>556.0</ele><time>2026-04-25T10:19:26.389Z</time></trkpt><trkpt lat="43.796125" lon="12.1769783"><ele>556.0</ele><time>2026-04-25T10:19:28.39Z</time></trkpt><trkpt lat="43.79605" lon="12.1770283"><ele>558.8</ele><time>2026-04-25T10:19:29.39Z</time></trkpt><trkpt lat="43.7959667" lon="12.177075"><ele>561.6</ele><time>2026-04-25T10:19:30.39Z</time></trkpt><trkpt lat="43.795875" lon="12.1770967"><ele>564.4</ele><time>2026-04-25T10:19:31.39Z</time></trkpt><trkpt lat="43.7957733" lon="12.177095"><ele>567.2</ele><time>2026-04-25T10:19:32.39Z</time></trkpt><trkpt lat="43.795675" lon="12.1770767"><ele>570.0</ele><time>2026-04-25T10:19:33.389Z</time></trkpt><trkpt lat="43.7955733" lon="12.1770567"><ele>570.0</ele><time>2026-04-25T10:19:34.39Z</time></trkpt><trkpt lat="43.79547" lon="12.17705"><ele>570.0</ele><time>2026-04-25T10:19:35.389Z</time></trkpt><trkpt lat="43.7953617" lon="12.17706"><ele>570.0</ele><time>2026-04-25T10:19:36.39Z</time></trkpt><trkpt lat="43.7952517" lon="12.17708"><ele>570.0</ele><time>2026-04-25T10:19:37.39Z</time></trkpt><trkpt lat="43.7951417" lon="12.1771033"><ele>570.0</ele><time>2026-04-25T10:19:38.389Z</time></trkpt><trkpt lat="43.7950317" lon="12.1771117"><ele>569.6</ele><time>2026-04-25T10:19:39.39Z</time></trkpt><trkpt lat="43.7949317" lon="12.1771117"><ele>569.2</ele><time>2026-04-25T10:19:40.39Z</time></trkpt><trkpt lat="43.79483" lon="12.1771033"><ele>568.8</ele><time>2026-04-25T10:19:41.39Z</time></trkpt><trkpt lat="43.79473" lon="12.1770683"><ele>568.4</ele><time>2026-04-25T10:19:42.39Z</time></trkpt><trkpt lat="43.7946283" lon="12.17702"><ele>568.0</ele><time>2026-04-25T10:19:43.389Z</time></trkpt><trkpt lat="43.794525" lon="12.176965"><ele>568.0</ele><time>2026-04-25T10:19:44.39Z</time></trkpt><trkpt lat="43.7944217" lon="12.1769133"><ele>568.0</ele><time>2026-04-25T10:19:45.39Z</time></trkpt><trkpt lat="43.79432" lon="12.1768583"><ele>568.0</ele><time>2026-04-25T10:19:46.389Z</time></trkpt><trkpt lat="43.7942283" lon="12.176795"><ele>568.0</ele><time>2026-04-25T10:19:47.389Z</time></trkpt><trkpt lat="43.794145" lon="12.1767417"><ele>568.0</ele><time>2026-04-25T10:19:48.389Z</time></trkpt><trkpt lat="43.794055" lon="12.1766917"><ele>568.8333333333334</ele><time>2026-04-25T10:19:49.39Z</time></trkpt><trkpt lat="43.793965" lon="12.17666"><ele>569.6666666666667</ele><time>2026-04-25T10:19:50.39Z</time></trkpt><trkpt lat="43.793885" lon="12.1766433"><ele>570.5</ele><time>2026-04-25T10:19:51.389Z</time></trkpt><trkpt lat="43.793805" lon="12.1766533"><ele>571.3333333333334</ele><time>2026-04-25T10:19:52.389Z</time></trkpt><trkpt lat="43.79373" lon="12.1766717"><ele>572.1666666666666</ele><time>2026-04-25T10:19:53.39Z</time></trkpt><trkpt lat="43.7936583" lon="12.1767017"><ele>573.0</ele><time>2026-04-25T10:19:54.389Z</time></trkpt><trkpt lat="43.7935767" lon="12.176735"><ele>572.3333333333334</ele><time>2026-04-25T10:19:55.39Z</time></trkpt><trkpt lat="43.793495" lon="12.1767583"><ele>571.6666666666666</ele><time>2026-04-25T10:19:56.39Z</time></trkpt><trkpt lat="43.793416" lon="12.1767824"><ele>571.0</ele><time>2026-04-25T10:19:57.39Z</time></trkpt><trkpt lat="43.7933432" lon="12.1768122"><ele>570.3333333333333</ele><time>2026-04-25T10:19:58.389Z</time></trkpt><trkpt lat="43.7932727" lon="12.1768302"><ele>569.6666666666666</ele><time>2026-04-25T10:19:59.39Z</time></trkpt><trkpt lat="43.7931983" lon="12.1768239"><ele>569.0</ele><time>2026-04-25T10:20:00.39Z</time></trkpt><trkpt lat="43.793117" lon="12.1767936"><ele>569.0</ele><time>2026-04-25T10:20:01.39Z</time></trkpt><trkpt lat="43.7930381" lon="12.1767475"><ele>569.0</ele><time>2026-04-25T10:20:02.39Z</time></trkpt><trkpt lat="43.7929735" lon="12.176695"><ele>569.0</ele><time>2026-04-25T10:20:03.389Z</time></trkpt><trkpt lat="43.7928898" lon="12.1765851"><ele>569.0</ele><time>2026-04-25T10:20:05.39Z</time></trkpt><trkpt lat="43.7928714" lon="12.1765013"><ele>569.0</ele><time>2026-04-25T10:20:06.39Z</time></trkpt><trkpt lat="43.7928583" lon="12.1763985"><ele>569.0</ele><time>2026-04-25T10:20:07.39Z</time></trkpt><trkpt lat="43.7928472" lon="12.1762752"><ele>569.0</ele><time>2026-04-25T10:20:08.39Z</time></trkpt><trkpt lat="43.7928442" lon="12.1761523"><ele>569.0</ele><time>2026-04-25T10:20:09.39Z</time></trkpt><trkpt lat="43.7928585" lon="12.1760376"><ele>569.0</ele><time>2026-04-25T10:20:10.389Z</time></trkpt><trkpt lat="43.7928867" lon="12.1759181"><ele>569.0</ele><time>2026-04-25T10:20:11.39Z</time></trkpt><trkpt lat="43.7929349" lon="12.1757888"><ele>569.0</ele><time>2026-04-25T10:20:12.39Z</time></trkpt><trkpt lat="43.7930016" lon="12.1756533"><ele>569.0</ele><time>2026-04-25T10:20:13.389Z</time></trkpt><trkpt lat="43.793066" lon="12.1755143"><ele>569.0</ele><time>2026-04-25T10:20:14.39Z</time></trkpt><trkpt lat="43.7931314" lon="12.1753762"><ele>569.0</ele><time>2026-04-25T10:20:15.39Z</time></trkpt><trkpt lat="43.7931997" lon="12.1752678"><ele>569.0</ele><time>2026-04-25T10:20:16.389Z</time></trkpt><trkpt lat="43.793274" lon="12.1751794"><ele>569.0</ele><time>2026-04-25T10:20:17.39Z</time></trkpt><trkpt lat="43.79335" lon="12.1750932"><ele>569.0</ele><time>2026-04-25T10:20:18.39Z</time></trkpt><trkpt lat="43.7934162" lon="12.1749955"><ele>569.0</ele><time>2026-04-25T10:20:19.39Z</time></trkpt><trkpt lat="43.7934622" lon="12.1748942"><ele>569.0</ele><time>2026-04-25T10:20:20.389Z</time></trkpt><trkpt lat="43.7934852" lon="12.1747969"><ele>569.0</ele><time>2026-04-25T10:20:21.39Z</time></trkpt><trkpt lat="43.7934871" lon="12.1746892"><ele>569.0</ele><time>2026-04-25T10:20:22.39Z</time></trkpt><trkpt lat="43.7934767" lon="12.1745744"><ele>569.0</ele><time>2026-04-25T10:20:23.39Z</time></trkpt><trkpt lat="43.7934864" lon="12.1744604"><ele>567.4</ele><time>2026-04-25T10:20:24.389Z</time></trkpt><trkpt lat="43.7935162" lon="12.1743395"><ele>565.8</ele><time>2026-04-25T10:20:25.39Z</time></trkpt><trkpt lat="43.7935596" lon="12.1742067"><ele>564.2</ele><time>2026-04-25T10:20:26.389Z</time></trkpt><trkpt lat="43.7935999" lon="12.1740747"><ele>562.6</ele><time>2026-04-25T10:20:27.389Z</time></trkpt><trkpt lat="43.7936366" lon="12.1739472"><ele>561.0</ele><time>2026-04-25T10:20:28.39Z</time></trkpt><trkpt lat="43.7936654" lon="12.1738211"><ele>561.0</ele><time>2026-04-25T10:20:29.39Z</time></trkpt><trkpt lat="43.793685" lon="12.1736929"><ele>561.0</ele><time>2026-04-25T10:20:30.389Z</time></trkpt><trkpt lat="43.7937065" lon="12.1735728"><ele>561.0</ele><time>2026-04-25T10:20:31.389Z</time></trkpt><trkpt lat="43.7937359" lon="12.1734585"><ele>561.0</ele><time>2026-04-25T10:20:32.39Z</time></trkpt><trkpt lat="43.7937723" lon="12.1733659"><ele>561.0</ele><time>2026-04-25T10:20:33.389Z</time></trkpt><trkpt lat="43.7938346" lon="12.1732343"><ele>560.5</ele><time>2026-04-25T10:20:35.39Z</time></trkpt><trkpt lat="43.7938783" lon="12.1731679"><ele>560.0</ele><time>2026-04-25T10:20:36.39Z</time></trkpt><trkpt lat="43.7939325" lon="12.1731064"><ele>559.5</ele><time>2026-04-25T10:20:37.39Z</time></trkpt><trkpt lat="43.7939905" lon="12.173052"><ele>559.0</ele><time>2026-04-25T10:20:38.39Z</time></trkpt><trkpt lat="43.7940468" lon="12.1729969"><ele>558.5</ele><time>2026-04-25T10:20:39.39Z</time></trkpt><trkpt lat="43.7941345" lon="12.1729058"><ele>558.0</ele><time>2026-04-25T10:20:41.389Z</time></trkpt><trkpt lat="43.7941546" lon="12.172791"><ele>558.0</ele><time>2026-04-25T10:20:43.39Z</time></trkpt><trkpt lat="43.7941124" lon="12.1726726"><ele>558.0</ele><time>2026-04-25T10:20:45.39Z</time></trkpt><trkpt lat="43.7940098" lon="12.1725723"><ele>558.0</ele><time>2026-04-25T10:20:47.39Z</time></trkpt><trkpt lat="43.7939414" lon="12.1725313"><ele>558.0</ele><time>2026-04-25T10:20:48.389Z</time></trkpt><trkpt lat="43.793861" lon="12.172505"><ele>558.0</ele><time>2026-04-25T10:20:49.39Z</time></trkpt><trkpt lat="43.793773" lon="12.1724848"><ele>558.0</ele><time>2026-04-25T10:20:50.389Z</time></trkpt><trkpt lat="43.7936757" lon="12.1724811"><ele>558.0</ele><time>2026-04-25T10:20:51.389Z</time></trkpt><trkpt lat="43.7935768" lon="12.1724863"><ele>558.0</ele><time>2026-04-25T10:20:52.39Z</time></trkpt><trkpt lat="43.7934746" lon="12.1724972"><ele>558.0</ele><time>2026-04-25T10:20:53.389Z</time></trkpt><trkpt lat="43.7933796" lon="12.1725083"><ele>558.0</ele><time>2026-04-25T10:20:54.389Z</time></trkpt><trkpt lat="43.7932911" lon="12.1725181"><ele>558.1666666666666</ele><time>2026-04-25T10:20:55.39Z</time></trkpt><trkpt lat="43.7932141" lon="12.17253"><ele>558.3333333333334</ele><time>2026-04-25T10:20:56.39Z</time></trkpt><trkpt lat="43.7931491" lon="12.1725379"><ele>558.5</ele><time>2026-04-25T10:20:57.39Z</time></trkpt><trkpt lat="43.7930549" lon="12.1725571"><ele>558.6666666666667</ele><time>2026-04-25T10:20:59.39Z</time></trkpt><trkpt lat="43.7930156" lon="12.1724478"><ele>558.8333333333334</ele><time>2026-04-25T10:21:02.389Z</time></trkpt><trkpt lat="43.7930974" lon="12.1723327"><ele>559.0</ele><time>2026-04-25T10:21:04.39Z</time></trkpt><trkpt lat="43.7931777" lon="12.1722779"><ele>556.0</ele><time>2026-04-25T10:21:05.39Z</time></trkpt><trkpt lat="43.7932633" lon="12.1722108"><ele>553.0</ele><time>2026-04-25T10:21:06.39Z</time></trkpt><trkpt lat="43.793341" lon="12.1721334"><ele>550.0</ele><time>2026-04-25T10:21:07.389Z</time></trkpt><trkpt lat="43.7934051" lon="12.1720606"><ele>547.0</ele><time>2026-04-25T10:21:08.39Z</time></trkpt><trkpt lat="43.79346" lon="12.17199"><ele>544.0</ele><time>2026-04-25T10:21:09.39Z</time></trkpt><trkpt lat="43.7935183" lon="12.17192"><ele>541.0</ele><time>2026-04-25T10:21:10.39Z</time></trkpt><trkpt lat="43.7935833" lon="12.1718517"><ele>541.0</ele><time>2026-04-25T10:21:11.39Z</time></trkpt><trkpt lat="43.793645" lon="12.17176"><ele>541.0</ele><time>2026-04-25T10:21:12.389Z</time></trkpt><trkpt lat="43.79371" lon="12.1716717"><ele>541.0</ele><time>2026-04-25T10:21:13.389Z</time></trkpt><trkpt lat="43.793775" lon="12.1715733"><ele>541.0</ele><time>2026-04-25T10:21:14.39Z</time></trkpt><trkpt lat="43.793835" lon="12.1714867"><ele>541.0</ele><time>2026-04-25T10:21:15.39Z</time></trkpt><trkpt lat="43.793885" lon="12.171405"><ele>541.0</ele><time>2026-04-25T10:21:16.39Z</time></trkpt><trkpt lat="43.7939267" lon="12.1713383"><ele>537.3333333333334</ele><time>2026-04-25T10:21:17.39Z</time></trkpt><trkpt lat="43.7939467" lon="12.1712283"><ele>533.6666666666667</ele><time>2026-04-25T10:21:19.39Z</time></trkpt><trkpt lat="43.7938883" lon="12.1711033"><ele>530.0</ele><time>2026-04-25T10:21:21.39Z</time></trkpt><trkpt lat="43.79383" lon="12.171065"><ele>526.3333333333334</ele><time>2026-04-25T10:21:22.39Z</time></trkpt><trkpt lat="43.7937567" lon="12.1710533"><ele>522.6666666666666</ele><time>2026-04-25T10:21:23.39Z</time></trkpt><trkpt lat="43.79367" lon="12.1710717"><ele>519.0</ele><time>2026-04-25T10:21:24.39Z</time></trkpt><trkpt lat="43.7935733" lon="12.17111"><ele>519.4</ele><time>2026-04-25T10:21:25.39Z</time></trkpt><trkpt lat="43.793485" lon="12.1711417"><ele>519.8</ele><time>2026-04-25T10:21:26.39Z</time></trkpt><trkpt lat="43.7933967" lon="12.1711733"><ele>520.2</ele><time>2026-04-25T10:21:27.389Z</time></trkpt><trkpt lat="43.793305" lon="12.1712183"><ele>520.6</ele><time>2026-04-25T10:21:28.39Z</time></trkpt><trkpt lat="43.793215" lon="12.17127"><ele>521.0</ele><time>2026-04-25T10:21:29.39Z</time></trkpt><trkpt lat="43.7931183" lon="12.1713333"><ele>521.0</ele><time>2026-04-25T10:21:30.39Z</time></trkpt><trkpt lat="43.79302" lon="12.1713933"><ele>521.0</ele><time>2026-04-25T10:21:31.389Z</time></trkpt><trkpt lat="43.79293" lon="12.1714483"><ele>521.0</ele><time>2026-04-25T10:21:32.39Z</time></trkpt><trkpt lat="43.79284" lon="12.1715017"><ele>521.0</ele><time>2026-04-25T10:21:33.39Z</time></trkpt><trkpt lat="43.7927633" lon="12.171545"><ele>521.0</ele><time>2026-04-25T10:21:34.39Z</time></trkpt><trkpt lat="43.7926917" lon="12.1715917"><ele>521.4285714285714</ele><time>2026-04-25T10:21:35.39Z</time></trkpt><trkpt lat="43.79262" lon="12.1716167"><ele>521.8571428571429</ele><time>2026-04-25T10:21:36.39Z</time></trkpt><trkpt lat="43.7925433" lon="12.1716167"><ele>522.2857142857143</ele><time>2026-04-25T10:21:37.39Z</time></trkpt><trkpt lat="43.7924667" lon="12.1716233"><ele>522.7142857142858</ele><time>2026-04-25T10:21:38.39Z</time></trkpt><trkpt lat="43.7923883" lon="12.1716033"><ele>523.1428571428572</ele><time>2026-04-25T10:21:39.389Z</time></trkpt><trkpt lat="43.792325" lon="12.17157"><ele>523.5714285714286</ele><time>2026-04-25T10:21:40.39Z</time></trkpt><trkpt lat="43.7922733" lon="12.1715167"><ele>524.0</ele><time>2026-04-25T10:21:41.39Z</time></trkpt><trkpt lat="43.792245" lon="12.1713533"><ele>524.0</ele><time>2026-04-25T10:21:43.39Z</time></trkpt><trkpt lat="43.7922683" lon="12.1712533"><ele>524.0</ele><time>2026-04-25T10:21:44.389Z</time></trkpt><trkpt lat="43.7923217" lon="12.1711617"><ele>524.0</ele><time>2026-04-25T10:21:45.389Z</time></trkpt><trkpt lat="43.7924" lon="12.1710717"><ele>524.0</ele><time>2026-04-25T10:21:46.389Z</time></trkpt><trkpt lat="43.7925067" lon="12.17098"><ele>524.0</ele><time>2026-04-25T10:21:47.39Z</time></trkpt><trkpt lat="43.7926367" lon="12.17088"><ele>523.25</ele><time>2026-04-25T10:21:48.39Z</time></trkpt><trkpt lat="43.7927483" lon="12.1707867"><ele>522.5</ele><time>2026-04-25T10:21:49.39Z</time></trkpt><trkpt lat="43.7928517" lon="12.1706767"><ele>521.75</ele><time>2026-04-25T10:21:50.389Z</time></trkpt><trkpt lat="43.7929467" lon="12.170575"><ele>521.0</ele><time>2026-04-25T10:21:51.39Z</time></trkpt><trkpt lat="43.79305" lon="12.170485"><ele>519.0</ele><time>2026-04-25T10:21:52.389Z</time></trkpt><trkpt lat="43.7931533" lon="12.1703933"><ele>517.0</ele><time>2026-04-25T10:21:53.389Z</time></trkpt><trkpt lat="43.7932517" lon="12.170295"><ele>515.0</ele><time>2026-04-25T10:21:54.39Z</time></trkpt><trkpt lat="43.793345" lon="12.170205"><ele>513.0</ele><time>2026-04-25T10:21:55.39Z</time></trkpt><trkpt lat="43.7934417" lon="12.1701167"><ele>512.6</ele><time>2026-04-25T10:21:56.389Z</time></trkpt><trkpt lat="43.7935217" lon="12.1700233"><ele>512.1999999999999</ele><time>2026-04-25T10:21:57.39Z</time></trkpt><trkpt lat="43.7935883" lon="12.1699267"><ele>511.8</ele><time>2026-04-25T10:21:58.389Z</time></trkpt><trkpt lat="43.7936517" lon="12.1698217"><ele>511.4</ele><time>2026-04-25T10:21:59.389Z</time></trkpt><trkpt lat="43.7937233" lon="12.1697167"><ele>511.0</ele><time>2026-04-25T10:22:00.39Z</time></trkpt><trkpt lat="43.7938017" lon="12.16962"><ele>511.00000000000006</ele><time>2026-04-25T10:22:01.39Z</time></trkpt><trkpt lat="43.7938733" lon="12.1695367"><ele>511.0</ele><time>2026-04-25T10:22:02.39Z</time></trkpt><trkpt lat="43.793925" lon="12.1694517"><ele>511.0</ele><time>2026-04-25T10:22:03.39Z</time></trkpt><trkpt lat="43.7939567" lon="12.1693567"><ele>511.0</ele><time>2026-04-25T10:22:04.389Z</time></trkpt><trkpt lat="43.7939633" lon="12.1692483"><ele>511.00000000000006</ele><time>2026-04-25T10:22:05.389Z</time></trkpt><trkpt lat="43.79396" lon="12.1691217"><ele>511.0</ele><time>2026-04-25T10:22:06.39Z</time></trkpt><trkpt lat="43.7939367" lon="12.1689883"><ele>511.4</ele><time>2026-04-25T10:22:07.39Z</time></trkpt><trkpt lat="43.7938917" lon="12.1688583"><ele>511.8</ele><time>2026-04-25T10:22:08.389Z</time></trkpt><trkpt lat="43.7938333" lon="12.168715"><ele>512.1999999999999</ele><time>2026-04-25T10:22:09.39Z</time></trkpt><trkpt lat="43.7937783" lon="12.16858"><ele>512.6</ele><time>2026-04-25T10:22:10.39Z</time></trkpt><trkpt lat="43.7937283" lon="12.168455"><ele>513.0</ele><time>2026-04-25T10:22:11.39Z</time></trkpt><trkpt lat="43.7936817" lon="12.16833"><ele>513.0</ele><time>2026-04-25T10:22:12.39Z</time></trkpt><trkpt lat="43.793645" lon="12.1682083"><ele>513.0</ele><time>2026-04-25T10:22:13.39Z</time></trkpt><trkpt lat="43.7936117" lon="12.16809"><ele>513.0</ele><time>2026-04-25T10:22:14.39Z</time></trkpt><trkpt lat="43.7935717" lon="12.16796"><ele>513.0</ele><time>2026-04-25T10:22:15.39Z</time></trkpt><trkpt lat="43.7935217" lon="12.1678317"><ele>513.0</ele><time>2026-04-25T10:22:16.39Z</time></trkpt><trkpt lat="43.7934583" lon="12.1677"><ele>513.1999999999999</ele><time>2026-04-25T10:22:17.389Z</time></trkpt><trkpt lat="43.7933936" lon="12.1675655"><ele>513.4</ele><time>2026-04-25T10:22:18.389Z</time></trkpt><trkpt lat="43.793334" lon="12.1674309"><ele>513.5999999999999</ele><time>2026-04-25T10:22:19.39Z</time></trkpt><trkpt lat="43.7932794" lon="12.1673052"><ele>513.8</ele><time>2026-04-25T10:22:20.389Z</time></trkpt><trkpt lat="43.7932299" lon="12.1671906"><ele>514.0</ele><time>2026-04-25T10:22:21.39Z</time></trkpt><trkpt lat="43.793196" lon="12.1670817"><ele>514.0</ele><time>2026-04-25T10:22:22.39Z</time></trkpt><trkpt lat="43.7931717" lon="12.1669801"><ele>514.0</ele><time>2026-04-25T10:22:23.389Z</time></trkpt><trkpt lat="43.7931527" lon="12.1668897"><ele>514.0</ele><time>2026-04-25T10:22:24.39Z</time></trkpt><trkpt lat="43.7931193" lon="12.1667324"><ele>514.0</ele><time>2026-04-25T10:22:26.389Z</time></trkpt><trkpt lat="43.793082" lon="12.1665996"><ele>514.0</ele><time>2026-04-25T10:22:28.389Z</time></trkpt><trkpt lat="43.793041" lon="12.1665211"><ele>514.0</ele><time>2026-04-25T10:22:29.389Z</time></trkpt><trkpt lat="43.7929776" lon="12.1664342"><ele>512.5</ele><time>2026-04-25T10:22:30.39Z</time></trkpt><trkpt lat="43.7928823" lon="12.1663515"><ele>511.0</ele><time>2026-04-25T10:22:31.39Z</time></trkpt><trkpt lat="43.7927666" lon="12.1662629"><ele>509.5</ele><time>2026-04-25T10:22:32.39Z</time></trkpt><trkpt lat="43.7926541" lon="12.1661492"><ele>508.0</ele><time>2026-04-25T10:22:33.39Z</time></trkpt><trkpt lat="43.792553" lon="12.1660009"><ele>514.0</ele><time>2026-04-25T10:22:34.39Z</time></trkpt><trkpt lat="43.7924681" lon="12.1658266"><ele>520.0</ele><time>2026-04-25T10:22:35.389Z</time></trkpt><trkpt lat="43.7924012" lon="12.1656227"><ele>526.0</ele><time>2026-04-25T10:22:36.389Z</time></trkpt><trkpt lat="43.7923459" lon="12.1654098"><ele>526.0</ele><time>2026-04-25T10:22:37.39Z</time></trkpt><trkpt lat="43.7922885" lon="12.1651989"><ele>526.0</ele><time>2026-04-25T10:22:38.39Z</time></trkpt><trkpt lat="43.7922339" lon="12.1649842"><ele>526.0</ele><time>2026-04-25T10:22:39.39Z</time></trkpt><trkpt lat="43.792177" lon="12.1647647"><ele>527.6666666666667</ele><time>2026-04-25T10:22:40.39Z</time></trkpt><trkpt lat="43.7921252" lon="12.1645427"><ele>529.3333333333334</ele><time>2026-04-25T10:22:41.389Z</time></trkpt><trkpt lat="43.7920699" lon="12.1643191"><ele>531.0</ele><time>2026-04-25T10:22:42.389Z</time></trkpt><trkpt lat="43.7920105" lon="12.1640951"><ele>531.3333333333334</ele><time>2026-04-25T10:22:43.39Z</time></trkpt><trkpt lat="43.7919583" lon="12.16387"><ele>531.6666666666667</ele><time>2026-04-25T10:22:44.39Z</time></trkpt><trkpt lat="43.79191" lon="12.1636611"><ele>532.0</ele><time>2026-04-25T10:22:45.389Z</time></trkpt><trkpt lat="43.79186" lon="12.1634749"><ele>534.5</ele><time>2026-04-25T10:22:46.389Z</time></trkpt><trkpt lat="43.7918024" lon="12.1633112"><ele>537.0</ele><time>2026-04-25T10:22:47.39Z</time></trkpt><trkpt lat="43.7917138" lon="12.1631691"><ele>539.5</ele><time>2026-04-25T10:22:48.39Z</time></trkpt><trkpt lat="43.7915963" lon="12.1630486"><ele>542.0</ele><time>2026-04-25T10:22:49.39Z</time></trkpt><trkpt lat="43.7914558" lon="12.1629409"><ele>542.3333333333333</ele><time>2026-04-25T10:22:50.389Z</time></trkpt><trkpt lat="43.791305" lon="12.1628317"><ele>542.6666666666666</ele><time>2026-04-25T10:22:51.39Z</time></trkpt><trkpt lat="43.791165" lon="12.1627133"><ele>543.0</ele><time>2026-04-25T10:22:52.39Z</time></trkpt><trkpt lat="43.791035" lon="12.1625933"><ele>546.3333333333334</ele><time>2026-04-25T10:22:53.39Z</time></trkpt><trkpt lat="43.7909217" lon="12.1624683"><ele>549.6666666666667</ele><time>2026-04-25T10:22:54.39Z</time></trkpt><trkpt lat="43.7908183" lon="12.1623083"><ele>553.0</ele><time>2026-04-25T10:22:55.39Z</time></trkpt><trkpt lat="43.7907333" lon="12.1621217"><ele>553.25</ele><time>2026-04-25T10:22:56.39Z</time></trkpt><trkpt lat="43.79067" lon="12.161935"><ele>553.5</ele><time>2026-04-25T10:22:57.39Z</time></trkpt><trkpt lat="43.79061" lon="12.1617417"><ele>553.75</ele><time>2026-04-25T10:22:58.389Z</time></trkpt><trkpt lat="43.79055" lon="12.161555"><ele>554.0</ele><time>2026-04-25T10:22:59.389Z</time></trkpt><trkpt lat="43.79049" lon="12.1613733"><ele>554.2</ele><time>2026-04-25T10:23:00.39Z</time></trkpt><trkpt lat="43.7904333" lon="12.1612183"><ele>554.4</ele><time>2026-04-25T10:23:01.39Z</time></trkpt><trkpt lat="43.7903867" lon="12.1610767"><ele>554.6</ele><time>2026-04-25T10:23:02.39Z</time></trkpt><trkpt lat="43.79035" lon="12.1609483"><ele>554.8</ele><time>2026-04-25T10:23:03.39Z</time></trkpt><trkpt lat="43.7903233" lon="12.1608433"><ele>555.0</ele><time>2026-04-25T10:23:04.389Z</time></trkpt><trkpt lat="43.7902967" lon="12.1607067"><ele>555.0</ele><time>2026-04-25T10:23:06.389Z</time></trkpt><trkpt lat="43.7901967" lon="12.1607867"><ele>555.0</ele><time>2026-04-25T10:23:44.592Z</time></trkpt><trkpt lat="43.7902667" lon="12.1607017"><ele>555.0</ele><time>2026-04-25T10:24:12.389Z</time></trkpt><trkpt lat="43.7902683" lon="12.1606017"><ele>555.0</ele><time>2026-04-25T10:25:29.39Z</time></trkpt><trkpt lat="43.7902367" lon="12.1605167"><ele>555.0</ele><time>2026-04-25T10:27:25.389Z</time></trkpt><trkpt lat="43.7902183" lon="12.1606333"><ele>555.0</ele><time>2026-04-25T10:27:32.39Z</time></trkpt><trkpt lat="43.79025" lon="12.1607417"><ele>555.0</ele><time>2026-04-25T10:27:33.389Z</time></trkpt><trkpt lat="43.7902933" lon="12.16085"><ele>555.0</ele><time>2026-04-25T10:27:34.39Z</time></trkpt><trkpt lat="43.7903383" lon="12.160975"><ele>555.0</ele><time>2026-04-25T10:27:35.39Z</time></trkpt><trkpt lat="43.7903933" lon="12.161145"><ele>555.0</ele><time>2026-04-25T10:27:36.39Z</time></trkpt><trkpt lat="43.7904583" lon="12.1613517"><ele>554.6666666666666</ele><time>2026-04-25T10:27:37.389Z</time></trkpt><trkpt lat="43.7905233" lon="12.1615567"><ele>554.3333333333333</ele><time>2026-04-25T10:27:38.389Z</time></trkpt><trkpt lat="43.790585" lon="12.1617567"><ele>554.0</ele><time>2026-04-25T10:27:39.389Z</time></trkpt><trkpt lat="43.7906467" lon="12.161945"><ele>554.0</ele><time>2026-04-25T10:27:40.39Z</time></trkpt><trkpt lat="43.79071" lon="12.1621317"><ele>554.0</ele><time>2026-04-25T10:27:41.39Z</time></trkpt><trkpt lat="43.790785" lon="12.16231"><ele>554.0</ele><time>2026-04-25T10:27:42.39Z</time></trkpt><trkpt lat="43.7908883" lon="12.162475"><ele>550.3333333333333</ele><time>2026-04-25T10:27:43.39Z</time></trkpt><trkpt lat="43.7910167" lon="12.1626183"><ele>546.6666666666666</ele><time>2026-04-25T10:27:44.39Z</time></trkpt><trkpt lat="43.7911617" lon="12.1627467"><ele>543.0</ele><time>2026-04-25T10:27:45.39Z</time></trkpt><trkpt lat="43.791305" lon="12.1628617"><ele>543.0</ele><time>2026-04-25T10:27:46.389Z</time></trkpt><trkpt lat="43.79145" lon="12.1629767"><ele>543.0</ele><time>2026-04-25T10:27:47.389Z</time></trkpt><trkpt lat="43.7915767" lon="12.163095"><ele>543.0</ele><time>2026-04-25T10:27:48.389Z</time></trkpt><trkpt lat="43.7916883" lon="12.163215"><ele>542.75</ele><time>2026-04-25T10:27:49.389Z</time></trkpt><trkpt lat="43.7917767" lon="12.1633483"><ele>542.5</ele><time>2026-04-25T10:27:50.39Z</time></trkpt><trkpt lat="43.7918467" lon="12.1635183"><ele>542.25</ele><time>2026-04-25T10:27:51.39Z</time></trkpt><trkpt lat="43.7919067" lon="12.16372"><ele>542.0</ele><time>2026-04-25T10:27:52.39Z</time></trkpt><trkpt lat="43.7919617" lon="12.1639467"><ele>538.3333333333333</ele><time>2026-04-25T10:27:53.39Z</time></trkpt><trkpt lat="43.792015" lon="12.164185"><ele>534.6666666666666</ele><time>2026-04-25T10:27:54.39Z</time></trkpt><trkpt lat="43.7920767" lon="12.164425"><ele>531.0</ele><time>2026-04-25T10:27:55.389Z</time></trkpt><trkpt lat="43.7921383" lon="12.164675"><ele>529.3333333333334</ele><time>2026-04-25T10:27:56.389Z</time></trkpt><trkpt lat="43.7921983" lon="12.1649233"><ele>527.6666666666667</ele><time>2026-04-25T10:27:57.39Z</time></trkpt><trkpt lat="43.7922617" lon="12.165155"><ele>526.0</ele><time>2026-04-25T10:27:58.389Z</time></trkpt><trkpt lat="43.792315" lon="12.1653867"><ele>526.0</ele><time>2026-04-25T10:27:59.39Z</time></trkpt><trkpt lat="43.79237" lon="12.165605"><ele>526.0</ele><time>2026-04-25T10:28:00.39Z</time></trkpt><trkpt lat="43.7924367" lon="12.1658133"><ele>526.0</ele><time>2026-04-25T10:28:01.389Z</time></trkpt><trkpt lat="43.7925233" lon="12.1660067"><ele>526.0</ele><time>2026-04-25T10:28:02.389Z</time></trkpt><trkpt lat="43.7926333" lon="12.16619"><ele>526.0</ele><time>2026-04-25T10:28:03.39Z</time></trkpt><trkpt lat="43.7927683" lon="12.1663433"><ele>526.0</ele><time>2026-04-25T10:28:04.39Z</time></trkpt><trkpt lat="43.7929233" lon="12.16647"><ele>522.0</ele><time>2026-04-25T10:28:05.39Z</time></trkpt><trkpt lat="43.79308" lon="12.1665883"><ele>518.0</ele><time>2026-04-25T10:28:06.39Z</time></trkpt><trkpt lat="43.7932417" lon="12.1666967"><ele>514.0</ele><time>2026-04-25T10:28:07.39Z</time></trkpt><trkpt lat="43.7934083" lon="12.1667783"><ele>510.33333333333337</ele><time>2026-04-25T10:28:08.389Z</time></trkpt><trkpt lat="43.793575" lon="12.1668233"><ele>506.66666666666663</ele><time>2026-04-25T10:28:09.39Z</time></trkpt><trkpt lat="43.7937383" lon="12.1668483"><ele>503.0</ele><time>2026-04-25T10:28:10.39Z</time></trkpt><trkpt lat="43.793885" lon="12.166885"><ele>503.0</ele><time>2026-04-25T10:28:11.39Z</time></trkpt><trkpt lat="43.794005" lon="12.1669333"><ele>503.0</ele><time>2026-04-25T10:28:12.39Z</time></trkpt><trkpt lat="43.7941117" lon="12.1670283"><ele>503.0</ele><time>2026-04-25T10:28:13.39Z</time></trkpt><trkpt lat="43.7942033" lon="12.1671783"><ele>503.0</ele><time>2026-04-25T10:28:14.39Z</time></trkpt><trkpt lat="43.7942767" lon="12.1673717"><ele>499.66666666666663</ele><time>2026-04-25T10:28:15.389Z</time></trkpt><trkpt lat="43.794355" lon="12.1675617"><ele>496.33333333333337</ele><time>2026-04-25T10:28:16.39Z</time></trkpt><trkpt lat="43.7944483" lon="12.1677367"><ele>493.0</ele><time>2026-04-25T10:28:17.39Z</time></trkpt><trkpt lat="43.794555" lon="12.16788"><ele>493.0</ele><time>2026-04-25T10:28:18.39Z</time></trkpt><trkpt lat="43.7946717" lon="12.1679917"><ele>493.0</ele><time>2026-04-25T10:28:19.39Z</time></trkpt><trkpt lat="43.794775" lon="12.16809"><ele>493.0</ele><time>2026-04-25T10:28:20.39Z</time></trkpt><trkpt lat="43.7948567" lon="12.1681933"><ele>493.0</ele><time>2026-04-25T10:28:21.39Z</time></trkpt><trkpt lat="43.7949117" lon="12.1683133"><ele>494.25</ele><time>2026-04-25T10:28:22.389Z</time></trkpt><trkpt lat="43.7949283" lon="12.1684633"><ele>495.5</ele><time>2026-04-25T10:28:23.39Z</time></trkpt><trkpt lat="43.7949017" lon="12.168625"><ele>496.75</ele><time>2026-04-25T10:28:24.39Z</time></trkpt><trkpt lat="43.79484" lon="12.168785"><ele>498.0</ele><time>2026-04-25T10:28:25.39Z</time></trkpt><trkpt lat="43.7947783" lon="12.16895"><ele>497.25</ele><time>2026-04-25T10:28:26.39Z</time></trkpt><trkpt lat="43.7947417" lon="12.16911"><ele>496.5</ele><time>2026-04-25T10:28:27.389Z</time></trkpt><trkpt lat="43.7947517" lon="12.1692667"><ele>495.75</ele><time>2026-04-25T10:28:28.39Z</time></trkpt><trkpt lat="43.7947983" lon="12.169405"><ele>495.0</ele><time>2026-04-25T10:28:29.39Z</time></trkpt><trkpt lat="43.7948783" lon="12.1695117"><ele>495.0</ele><time>2026-04-25T10:28:30.389Z</time></trkpt><trkpt lat="43.794985" lon="12.169565"><ele>495.0</ele><time>2026-04-25T10:28:31.388Z</time></trkpt><trkpt lat="43.7951233" lon="12.16955"><ele>495.0</ele><time>2026-04-25T10:28:32.389Z</time></trkpt><trkpt lat="43.7952817" lon="12.1695083"><ele>495.0</ele><time>2026-04-25T10:28:33.389Z</time></trkpt><trkpt lat="43.79547" lon="12.1694583"><ele>493.33333333333337</ele><time>2026-04-25T10:28:34.388Z</time></trkpt><trkpt lat="43.7956567" lon="12.1694267"><ele>491.6666666666667</ele><time>2026-04-25T10:28:35.388Z</time></trkpt><trkpt lat="43.795845" lon="12.1694083"><ele>490.0</ele><time>2026-04-25T10:28:36.388Z</time></trkpt><trkpt lat="43.7960233" lon="12.1693817"><ele>490.0</ele><time>2026-04-25T10:28:37.389Z</time></trkpt><trkpt lat="43.79619" lon="12.1693583"><ele>490.0</ele><time>2026-04-25T10:28:38.389Z</time></trkpt><trkpt lat="43.796345" lon="12.1693333"><ele>490.0</ele><time>2026-04-25T10:28:39.389Z</time></trkpt><trkpt lat="43.796485" lon="12.1693133"><ele>490.0</ele><time>2026-04-25T10:28:40.389Z</time></trkpt><trkpt lat="43.7966067" lon="12.1692933"><ele>490.0</ele><time>2026-04-25T10:28:41.388Z</time></trkpt><trkpt lat="43.7967083" lon="12.1692833"><ele>490.0</ele><time>2026-04-25T10:28:42.389Z</time></trkpt><trkpt lat="43.7968017" lon="12.1693"><ele>490.0</ele><time>2026-04-25T10:28:43.389Z</time></trkpt><trkpt lat="43.79689" lon="12.1693583"><ele>490.0</ele><time>2026-04-25T10:28:44.389Z</time></trkpt><trkpt lat="43.7969617" lon="12.169475"><ele>498.6666666666667</ele><time>2026-04-25T10:28:45.389Z</time></trkpt><trkpt lat="43.7970233" lon="12.1696483"><ele>507.33333333333337</ele><time>2026-04-25T10:28:46.389Z</time></trkpt><trkpt lat="43.7970867" lon="12.169845"><ele>516.0</ele><time>2026-04-25T10:28:47.389Z</time></trkpt><trkpt lat="43.7971517" lon="12.1700583"><ele>516.0</ele><time>2026-04-25T10:28:48.388Z</time></trkpt><trkpt lat="43.7972333" lon="12.1702717"><ele>516.0</ele><time>2026-04-25T10:28:49.388Z</time></trkpt><trkpt lat="43.7973317" lon="12.1704833"><ele>516.0</ele><time>2026-04-25T10:28:50.389Z</time></trkpt><trkpt lat="43.79745" lon="12.1706983"><ele>515.6666666666666</ele><time>2026-04-25T10:28:51.388Z</time></trkpt><trkpt lat="43.797575" lon="12.17092"><ele>515.3333333333333</ele><time>2026-04-25T10:28:52.389Z</time></trkpt><trkpt lat="43.7976983" lon="12.1711483"><ele>515.0</ele><time>2026-04-25T10:28:53.388Z</time></trkpt><trkpt lat="43.7978217" lon="12.1713767"><ele>505.3333333333333</ele><time>2026-04-25T10:28:54.389Z</time></trkpt><trkpt lat="43.797955" lon="12.17161"><ele>495.66666666666663</ele><time>2026-04-25T10:28:55.388Z</time></trkpt><trkpt lat="43.7980867" lon="12.1718517"><ele>486.0</ele><time>2026-04-25T10:28:56.389Z</time></trkpt><trkpt lat="43.7982183" lon="12.1720917"><ele>486.0</ele><time>2026-04-25T10:28:57.389Z</time></trkpt><trkpt lat="43.798355" lon="12.1723283"><ele>486.0</ele><time>2026-04-25T10:28:58.389Z</time></trkpt><trkpt lat="43.798485" lon="12.17256"><ele>486.0</ele><time>2026-04-25T10:28:59.388Z</time></trkpt><trkpt lat="43.798615" lon="12.1727933"><ele>485.0</ele><time>2026-04-25T10:29:00.388Z</time></trkpt><trkpt lat="43.798745" lon="12.173025"><ele>484.0</ele><time>2026-04-25T10:29:01.389Z</time></trkpt><trkpt lat="43.7988733" lon="12.1732517"><ele>483.0</ele><time>2026-04-25T10:29:02.388Z</time></trkpt><trkpt lat="43.7989967" lon="12.17347"><ele>483.0</ele><time>2026-04-25T10:29:03.389Z</time></trkpt><trkpt lat="43.7991183" lon="12.1736917"><ele>483.0</ele><time>2026-04-25T10:29:04.389Z</time></trkpt><trkpt lat="43.7992367" lon="12.1739317"><ele>483.0</ele><time>2026-04-25T10:29:05.389Z</time></trkpt><trkpt lat="43.7993333" lon="12.17419"><ele>487.33333333333337</ele><time>2026-04-25T10:29:06.388Z</time></trkpt><trkpt lat="43.799425" lon="12.1744567"><ele>491.6666666666667</ele><time>2026-04-25T10:29:07.389Z</time></trkpt><trkpt lat="43.79951" lon="12.1747167"><ele>496.0</ele><time>2026-04-25T10:29:08.389Z</time></trkpt><trkpt lat="43.7995983" lon="12.174975"><ele>496.0</ele><time>2026-04-25T10:29:09.389Z</time></trkpt><trkpt lat="43.79969" lon="12.1752267"><ele>496.0</ele><time>2026-04-25T10:29:10.389Z</time></trkpt><trkpt lat="43.79978" lon="12.1754783"><ele>496.0</ele><time>2026-04-25T10:29:11.388Z</time></trkpt><trkpt lat="43.79987" lon="12.1757333"><ele>491.33333333333337</ele><time>2026-04-25T10:29:12.388Z</time></trkpt><trkpt lat="43.7999617" lon="12.1759917"><ele>486.66666666666663</ele><time>2026-04-25T10:29:13.388Z</time></trkpt><trkpt lat="43.8000483" lon="12.17625"><ele>482.0</ele><time>2026-04-25T10:29:14.389Z</time></trkpt><trkpt lat="43.8001317" lon="12.1765017"><ele>480.3333333333333</ele><time>2026-04-25T10:29:15.388Z</time></trkpt><trkpt lat="43.8002117" lon="12.1767433"><ele>478.66666666666663</ele><time>2026-04-25T10:29:16.388Z</time></trkpt><trkpt lat="43.8002833" lon="12.176975"><ele>477.0</ele><time>2026-04-25T10:29:17.389Z</time></trkpt><trkpt lat="43.8003483" lon="12.1772017"><ele>474.33333333333337</ele><time>2026-04-25T10:29:18.388Z</time></trkpt><trkpt lat="43.8003933" lon="12.1774433"><ele>471.6666666666667</ele><time>2026-04-25T10:29:19.388Z</time></trkpt><trkpt lat="43.80042" lon="12.1776883"><ele>469.0</ele><time>2026-04-25T10:29:20.388Z</time></trkpt><trkpt lat="43.8004417" lon="12.1779133"><ele>469.0</ele><time>2026-04-25T10:29:21.389Z</time></trkpt><trkpt lat="43.8004917" lon="12.1781183"><ele>469.0</ele><time>2026-04-25T10:29:22.388Z</time></trkpt><trkpt lat="43.800565" lon="12.1783017"><ele>469.0</ele><time>2026-04-25T10:29:23.389Z</time></trkpt><trkpt lat="43.8006833" lon="12.178485"><ele>466.33333333333337</ele><time>2026-04-25T10:29:24.389Z</time></trkpt><trkpt lat="43.800825" lon="12.1786617"><ele>463.66666666666663</ele><time>2026-04-25T10:29:25.388Z</time></trkpt><trkpt lat="43.8009683" lon="12.1788467"><ele>461.0</ele><time>2026-04-25T10:29:26.389Z</time></trkpt><trkpt lat="43.80113" lon="12.17904"><ele>460.3333333333333</ele><time>2026-04-25T10:29:27.388Z</time></trkpt><trkpt lat="43.8012917" lon="12.17923"><ele>459.66666666666663</ele><time>2026-04-25T10:29:28.389Z</time></trkpt><trkpt lat="43.801445" lon="12.17943"><ele>459.0</ele><time>2026-04-25T10:29:29.389Z</time></trkpt><trkpt lat="43.8016067" lon="12.17963"><ele>459.0</ele><time>2026-04-25T10:29:30.388Z</time></trkpt><trkpt lat="43.8017683" lon="12.1798333"><ele>459.0</ele><time>2026-04-25T10:29:31.389Z</time></trkpt><trkpt lat="43.8019267" lon="12.1800283"><ele>459.0</ele><time>2026-04-25T10:29:32.389Z</time></trkpt><trkpt lat="43.8020883" lon="12.1802217"><ele>460.0</ele><time>2026-04-25T10:29:33.388Z</time></trkpt><trkpt lat="43.802245" lon="12.1804183"><ele>461.0</ele><time>2026-04-25T10:29:34.388Z</time></trkpt><trkpt lat="43.8024" lon="12.180615"><ele>462.0</ele><time>2026-04-25T10:29:35.389Z</time></trkpt><trkpt lat="43.8025533" lon="12.1808117"><ele>460.66666666666663</ele><time>2026-04-25T10:29:36.389Z</time></trkpt><trkpt lat="43.8027017" lon="12.1809967"><ele>459.3333333333333</ele><time>2026-04-25T10:29:37.389Z</time></trkpt><trkpt lat="43.8028367" lon="12.1811667"><ele>458.0</ele><time>2026-04-25T10:29:38.389Z</time></trkpt><trkpt lat="43.8029667" lon="12.181345"><ele>456.0</ele><time>2026-04-25T10:29:39.388Z</time></trkpt><trkpt lat="43.80308" lon="12.18154"><ele>454.0</ele><time>2026-04-25T10:29:40.389Z</time></trkpt><trkpt lat="43.8031717" lon="12.1817517"><ele>452.0</ele><time>2026-04-25T10:29:41.389Z</time></trkpt><trkpt lat="43.8032467" lon="12.1819867"><ele>452.0</ele><time>2026-04-25T10:29:42.389Z</time></trkpt><trkpt lat="43.8033183" lon="12.1822267"><ele>452.0</ele><time>2026-04-25T10:29:43.388Z</time></trkpt><trkpt lat="43.8033833" lon="12.18247"><ele>452.0</ele><time>2026-04-25T10:29:44.389Z</time></trkpt><trkpt lat="43.803455" lon="12.1827133"><ele>453.0</ele><time>2026-04-25T10:29:45.389Z</time></trkpt><trkpt lat="43.80352" lon="12.1829583"><ele>454.0</ele><time>2026-04-25T10:29:46.389Z</time></trkpt><trkpt lat="43.803585" lon="12.1831983"><ele>455.0</ele><time>2026-04-25T10:29:47.388Z</time></trkpt><trkpt lat="43.8036567" lon="12.1834483"><ele>455.0</ele><time>2026-04-25T10:29:48.389Z</time></trkpt><trkpt lat="43.80373" lon="12.1837067"><ele>455.0</ele><time>2026-04-25T10:29:49.388Z</time></trkpt><trkpt lat="43.803805" lon="12.183975"><ele>455.0</ele><time>2026-04-25T10:29:50.389Z</time></trkpt><trkpt lat="43.8038783" lon="12.1842483"><ele>454.66666666666663</ele><time>2026-04-25T10:29:51.389Z</time></trkpt><trkpt lat="43.80396" lon="12.1845317"><ele>454.33333333333337</ele><time>2026-04-25T10:29:52.389Z</time></trkpt><trkpt lat="43.80404" lon="12.184805"><ele>454.0</ele><time>2026-04-25T10:29:53.389Z</time></trkpt><trkpt lat="43.80412" lon="12.1850767"><ele>452.6666666666667</ele><time>2026-04-25T10:29:54.389Z</time></trkpt><trkpt lat="43.8041983" lon="12.18535"><ele>451.33333333333337</ele><time>2026-04-25T10:29:55.389Z</time></trkpt><trkpt lat="43.8042767" lon="12.1856233"><ele>450.0</ele><time>2026-04-25T10:29:56.389Z</time></trkpt><trkpt lat="43.80435" lon="12.185895"><ele>454.33333333333337</ele><time>2026-04-25T10:29:57.389Z</time></trkpt><trkpt lat="43.8044267" lon="12.1861733"><ele>458.6666666666667</ele><time>2026-04-25T10:29:58.388Z</time></trkpt><trkpt lat="43.8045083" lon="12.186445"><ele>463.0</ele><time>2026-04-25T10:29:59.388Z</time></trkpt><trkpt lat="43.80459" lon="12.18672"><ele>463.0</ele><time>2026-04-25T10:30:00.389Z</time></trkpt><trkpt lat="43.8046717" lon="12.1869983"><ele>463.0</ele><time>2026-04-25T10:30:01.388Z</time></trkpt><trkpt lat="43.80475" lon="12.1872817"><ele>463.0</ele><time>2026-04-25T10:30:02.389Z</time></trkpt><trkpt lat="43.8048283" lon="12.1875633"><ele>457.6666666666667</ele><time>2026-04-25T10:30:03.388Z</time></trkpt><trkpt lat="43.8049133" lon="12.1878483"><ele>452.33333333333337</ele><time>2026-04-25T10:30:04.388Z</time></trkpt><trkpt lat="43.8049933" lon="12.188135"><ele>447.0</ele><time>2026-04-25T10:30:05.388Z</time></trkpt><trkpt lat="43.80507" lon="12.1884233"><ele>447.66666666666663</ele><time>2026-04-25T10:30:06.389Z</time></trkpt><trkpt lat="43.8051567" lon="12.1887133"><ele>448.3333333333333</ele><time>2026-04-25T10:30:07.389Z</time></trkpt><trkpt lat="43.8052367" lon="12.1889983"><ele>449.0</ele><time>2026-04-25T10:30:08.388Z</time></trkpt><trkpt lat="43.8053183" lon="12.1892883"><ele>449.0</ele><time>2026-04-25T10:30:09.388Z</time></trkpt><trkpt lat="43.8054033" lon="12.1895783"><ele>449.0</ele><time>2026-04-25T10:30:10.388Z</time></trkpt><trkpt lat="43.8054817" lon="12.189875"><ele>442.0</ele><time>2026-04-25T10:30:11.389Z</time></trkpt><trkpt lat="43.805565" lon="12.1901733"><ele>435.0</ele><time>2026-04-25T10:30:12.388Z</time></trkpt><trkpt lat="43.8056517" lon="12.1904717"><ele>433.5</ele><time>2026-04-25T10:30:13.389Z</time></trkpt><trkpt lat="43.8057317" lon="12.190765"><ele>432.0</ele><time>2026-04-25T10:30:14.389Z</time></trkpt><trkpt lat="43.805815" lon="12.1910633"><ele>432.0</ele><time>2026-04-25T10:30:15.389Z</time></trkpt><trkpt lat="43.8059033" lon="12.1913617"><ele>432.0</ele><time>2026-04-25T10:30:16.388Z</time></trkpt><trkpt lat="43.8059833" lon="12.1916433"><ele>432.66666666666663</ele><time>2026-04-25T10:30:17.389Z</time></trkpt><trkpt lat="43.8060617" lon="12.191905"><ele>433.3333333333333</ele><time>2026-04-25T10:30:18.388Z</time></trkpt><trkpt lat="43.8061333" lon="12.19216"><ele>434.0</ele><time>2026-04-25T10:30:19.389Z</time></trkpt><trkpt lat="43.8061983" lon="12.192395"><ele>434.0</ele><time>2026-04-25T10:30:20.389Z</time></trkpt><trkpt lat="43.8062567" lon="12.1926233"><ele>434.0</ele><time>2026-04-25T10:30:21.389Z</time></trkpt><trkpt lat="43.8062817" lon="12.19285"><ele>434.0</ele><time>2026-04-25T10:30:22.388Z</time></trkpt><trkpt lat="43.8062717" lon="12.193095"><ele>436.66666666666663</ele><time>2026-04-25T10:30:23.389Z</time></trkpt><trkpt lat="43.806245" lon="12.1933267"><ele>439.33333333333337</ele><time>2026-04-25T10:30:24.389Z</time></trkpt><trkpt lat="43.8062333" lon="12.1935617"><ele>442.0</ele><time>2026-04-25T10:30:25.389Z</time></trkpt><trkpt lat="43.8062533" lon="12.193805"><ele>443.0</ele><time>2026-04-25T10:30:26.389Z</time></trkpt><trkpt lat="43.8062917" lon="12.194045"><ele>444.0</ele><time>2026-04-25T10:30:27.389Z</time></trkpt><trkpt lat="43.80635" lon="12.194295"><ele>445.0</ele><time>2026-04-25T10:30:28.389Z</time></trkpt><trkpt lat="43.80641" lon="12.1945567"><ele>445.0</ele><time>2026-04-25T10:30:29.389Z</time></trkpt><trkpt lat="43.80647" lon="12.19483"><ele>445.0</ele><time>2026-04-25T10:30:30.389Z</time></trkpt><trkpt lat="43.8065367" lon="12.195115"><ele>445.0</ele><time>2026-04-25T10:30:31.388Z</time></trkpt><trkpt lat="43.8066033" lon="12.19541"><ele>438.33333333333337</ele><time>2026-04-25T10:30:32.389Z</time></trkpt><trkpt lat="43.8066633" lon="12.1957033"><ele>431.66666666666663</ele><time>2026-04-25T10:30:33.389Z</time></trkpt><trkpt lat="43.80673" lon="12.1959917"><ele>425.0</ele><time>2026-04-25T10:30:34.388Z</time></trkpt><trkpt lat="43.8068" lon="12.1962817"><ele>426.3333333333333</ele><time>2026-04-25T10:30:35.388Z</time></trkpt><trkpt lat="43.80686" lon="12.1965683"><ele>427.66666666666663</ele><time>2026-04-25T10:30:36.389Z</time></trkpt><trkpt lat="43.8069217" lon="12.1968333"><ele>429.0</ele><time>2026-04-25T10:30:37.389Z</time></trkpt><trkpt lat="43.80697" lon="12.1970867"><ele>424.33333333333337</ele><time>2026-04-25T10:30:38.388Z</time></trkpt><trkpt lat="43.807005" lon="12.197355"><ele>419.6666666666667</ele><time>2026-04-25T10:30:39.389Z</time></trkpt><trkpt lat="43.8070167" lon="12.197625"><ele>415.0</ele><time>2026-04-25T10:30:40.389Z</time></trkpt><trkpt lat="43.8070133" lon="12.197905"><ele>415.33333333333337</ele><time>2026-04-25T10:30:41.388Z</time></trkpt><trkpt lat="43.807" lon="12.1981867"><ele>415.66666666666663</ele><time>2026-04-25T10:30:42.388Z</time></trkpt><trkpt lat="43.8069833" lon="12.1984717"><ele>416.0</ele><time>2026-04-25T10:30:43.389Z</time></trkpt><trkpt lat="43.80697" lon="12.198755"><ele>417.66666666666663</ele><time>2026-04-25T10:30:44.389Z</time></trkpt><trkpt lat="43.8069533" lon="12.1990367"><ele>419.33333333333337</ele><time>2026-04-25T10:30:45.389Z</time></trkpt><trkpt lat="43.806925" lon="12.199315"><ele>421.0</ele><time>2026-04-25T10:30:46.389Z</time></trkpt><trkpt lat="43.8068983" lon="12.1995933"><ele>426.6666666666667</ele><time>2026-04-25T10:30:47.389Z</time></trkpt><trkpt lat="43.8068667" lon="12.1998667"><ele>432.33333333333337</ele><time>2026-04-25T10:30:48.388Z</time></trkpt><trkpt lat="43.8068483" lon="12.2001383"><ele>438.0</ele><time>2026-04-25T10:30:49.388Z</time></trkpt><trkpt lat="43.8068467" lon="12.2004067"><ele>444.0</ele><time>2026-04-25T10:30:50.389Z</time></trkpt><trkpt lat="43.8068467" lon="12.20068"><ele>450.0</ele><time>2026-04-25T10:30:51.388Z</time></trkpt><trkpt lat="43.8068383" lon="12.200955"><ele>456.0</ele><time>2026-04-25T10:30:52.389Z</time></trkpt><trkpt lat="43.8068133" lon="12.201235"><ele>444.0</ele><time>2026-04-25T10:30:53.389Z</time></trkpt><trkpt lat="43.8067817" lon="12.2015083"><ele>432.0</ele><time>2026-04-25T10:30:54.389Z</time></trkpt><trkpt lat="43.806745" lon="12.201765"><ele>420.0</ele><time>2026-04-25T10:30:55.388Z</time></trkpt><trkpt lat="43.8067117" lon="12.2020133"><ele>420.0</ele><time>2026-04-25T10:30:56.389Z</time></trkpt><trkpt lat="43.806675" lon="12.2022517"><ele>420.0</ele><time>2026-04-25T10:30:57.389Z</time></trkpt><trkpt lat="43.806645" lon="12.202485"><ele>420.0</ele><time>2026-04-25T10:30:58.389Z</time></trkpt><trkpt lat="43.8066383" lon="12.2027367"><ele>420.66666666666663</ele><time>2026-04-25T10:30:59.389Z</time></trkpt><trkpt lat="43.806645" lon="12.203"><ele>421.3333333333333</ele><time>2026-04-25T10:31:00.388Z</time></trkpt><trkpt lat="43.8066717" lon="12.2032617"><ele>422.0</ele><time>2026-04-25T10:31:01.389Z</time></trkpt><trkpt lat="43.806695" lon="12.203525"><ele>418.0</ele><time>2026-04-25T10:31:02.389Z</time></trkpt><trkpt lat="43.80672" lon="12.2037617"><ele>414.0</ele><time>2026-04-25T10:31:03.389Z</time></trkpt><trkpt lat="43.8067167" lon="12.2039967"><ele>410.0</ele><time>2026-04-25T10:31:04.389Z</time></trkpt><trkpt lat="43.806685" lon="12.2042383"><ele>409.3333333333333</ele><time>2026-04-25T10:31:05.389Z</time></trkpt><trkpt lat="43.806635" lon="12.20448"><ele>408.66666666666663</ele><time>2026-04-25T10:31:06.389Z</time></trkpt><trkpt lat="43.80658" lon="12.2047217"><ele>408.0</ele><time>2026-04-25T10:31:07.389Z</time></trkpt><trkpt lat="43.8065183" lon="12.204975"><ele>407.33333333333337</ele><time>2026-04-25T10:31:08.388Z</time></trkpt><trkpt lat="43.80646" lon="12.2052367"><ele>406.6666666666667</ele><time>2026-04-25T10:31:09.389Z</time></trkpt><trkpt lat="43.8063967" lon="12.2054933"><ele>406.0</ele><time>2026-04-25T10:31:10.389Z</time></trkpt><trkpt lat="43.8063267" lon="12.205755"><ele>407.6666666666667</ele><time>2026-04-25T10:31:11.389Z</time></trkpt><trkpt lat="43.80627" lon="12.2060183"><ele>409.33333333333337</ele><time>2026-04-25T10:31:12.389Z</time></trkpt><trkpt lat="43.8062117" lon="12.20627"><ele>411.0</ele><time>2026-04-25T10:31:13.388Z</time></trkpt><trkpt lat="43.80616" lon="12.2065383"><ele>411.66666666666663</ele><time>2026-04-25T10:31:14.389Z</time></trkpt><trkpt lat="43.80613" lon="12.2068183"><ele>412.3333333333333</ele><time>2026-04-25T10:31:15.389Z</time></trkpt><trkpt lat="43.80613" lon="12.2071117"><ele>413.0</ele><time>2026-04-25T10:31:16.389Z</time></trkpt><trkpt lat="43.8061433" lon="12.2074033"><ele>413.0</ele><time>2026-04-25T10:31:17.389Z</time></trkpt><trkpt lat="43.806165" lon="12.2077"><ele>413.0</ele><time>2026-04-25T10:31:18.388Z</time></trkpt><trkpt lat="43.8061783" lon="12.2079917"><ele>413.0</ele><time>2026-04-25T10:31:19.388Z</time></trkpt><trkpt lat="43.80618" lon="12.2082883"><ele>413.0</ele><time>2026-04-25T10:31:20.388Z</time></trkpt><trkpt lat="43.8061533" lon="12.2085767"><ele>413.0</ele><time>2026-04-25T10:31:21.388Z</time></trkpt><trkpt lat="43.806105" lon="12.2088617"><ele>413.0</ele><time>2026-04-25T10:31:22.389Z</time></trkpt><trkpt lat="43.8060517" lon="12.2091317"><ele>408.66666666666663</ele><time>2026-04-25T10:31:23.389Z</time></trkpt><trkpt lat="43.8059883" lon="12.209395"><ele>404.33333333333337</ele><time>2026-04-25T10:31:24.389Z</time></trkpt><trkpt lat="43.8059233" lon="12.2096583"><ele>400.0</ele><time>2026-04-25T10:31:25.389Z</time></trkpt><trkpt lat="43.8058417" lon="12.2099117"><ele>400.0</ele><time>2026-04-25T10:31:26.388Z</time></trkpt><trkpt lat="43.805745" lon="12.2101683"><ele>400.0</ele><time>2026-04-25T10:31:27.389Z</time></trkpt><trkpt lat="43.8056344" lon="12.2104146"><ele>400.0</ele><time>2026-04-25T10:31:28.388Z</time></trkpt><trkpt lat="43.805511" lon="12.2106563"><ele>401.6666666666667</ele><time>2026-04-25T10:31:29.388Z</time></trkpt><trkpt lat="43.8053875" lon="12.210898"><ele>403.33333333333337</ele><time>2026-04-25T10:31:30.389Z</time></trkpt><trkpt lat="43.8052655" lon="12.2111418"><ele>405.0</ele><time>2026-04-25T10:31:31.389Z</time></trkpt><trkpt lat="43.8051459" lon="12.2113902"><ele>401.33333333333337</ele><time>2026-04-25T10:31:32.389Z</time></trkpt><trkpt lat="43.8050221" lon="12.2116437"><ele>397.6666666666667</ele><time>2026-04-25T10:31:33.389Z</time></trkpt><trkpt lat="43.8048979" lon="12.2118938"><ele>394.0</ele><time>2026-04-25T10:31:34.388Z</time></trkpt><trkpt lat="43.804775" lon="12.2121451"><ele>396.0</ele><time>2026-04-25T10:31:35.388Z</time></trkpt><trkpt lat="43.8046483" lon="12.2123991"><ele>398.0</ele><time>2026-04-25T10:31:36.389Z</time></trkpt><trkpt lat="43.8045197" lon="12.212646"><ele>400.0</ele><time>2026-04-25T10:31:37.389Z</time></trkpt><trkpt lat="43.8043996" lon="12.2128817"><ele>395.33333333333337</ele><time>2026-04-25T10:31:38.389Z</time></trkpt><trkpt lat="43.8042874" lon="12.2131016"><ele>390.66666666666663</ele><time>2026-04-25T10:31:39.389Z</time></trkpt><trkpt lat="43.804188" lon="12.2133107"><ele>386.0</ele><time>2026-04-25T10:31:40.389Z</time></trkpt><trkpt lat="43.8041115" lon="12.2135314"><ele>386.0</ele><time>2026-04-25T10:31:41.389Z</time></trkpt><trkpt lat="43.8040653" lon="12.2137818"><ele>386.0</ele><time>2026-04-25T10:31:42.389Z</time></trkpt><trkpt lat="43.8040516" lon="12.2140592"><ele>386.0</ele><time>2026-04-25T10:31:43.388Z</time></trkpt><trkpt lat="43.804054" lon="12.2143429"><ele>387.0</ele><time>2026-04-25T10:31:44.389Z</time></trkpt><trkpt lat="43.8040605" lon="12.2146264"><ele>388.0</ele><time>2026-04-25T10:31:45.388Z</time></trkpt><trkpt lat="43.8040622" lon="12.2149076"><ele>389.0</ele><time>2026-04-25T10:31:46.389Z</time></trkpt><trkpt lat="43.8040508" lon="12.2152005"><ele>389.0</ele><time>2026-04-25T10:31:47.389Z</time></trkpt><trkpt lat="43.8040243" lon="12.2154978"><ele>389.0</ele><time>2026-04-25T10:31:48.389Z</time></trkpt><trkpt lat="43.8039907" lon="12.2157866"><ele>389.0</ele><time>2026-04-25T10:31:49.388Z</time></trkpt><trkpt lat="43.8039492" lon="12.2160713"><ele>389.0</ele><time>2026-04-25T10:31:50.389Z</time></trkpt><trkpt lat="43.8039088" lon="12.2163532"><ele>389.0</ele><time>2026-04-25T10:31:51.389Z</time></trkpt><trkpt lat="43.8038713" lon="12.2166158"><ele>389.0</ele><time>2026-04-25T10:31:52.389Z</time></trkpt><trkpt lat="43.8038374" lon="12.2168582"><ele>389.3333333333333</ele><time>2026-04-25T10:31:53.389Z</time></trkpt><trkpt lat="43.803804" lon="12.2170805"><ele>389.66666666666663</ele><time>2026-04-25T10:31:54.389Z</time></trkpt><trkpt lat="43.8037765" lon="12.2172933"><ele>390.0</ele><time>2026-04-25T10:31:55.388Z</time></trkpt><trkpt lat="43.8037713" lon="12.2175144"><ele>389.0</ele><time>2026-04-25T10:31:56.388Z</time></trkpt><trkpt lat="43.803794" lon="12.2177376"><ele>388.0</ele><time>2026-04-25T10:31:57.389Z</time></trkpt><trkpt lat="43.8038483" lon="12.2179511"><ele>387.0</ele><time>2026-04-25T10:31:58.389Z</time></trkpt><trkpt lat="43.8039413" lon="12.2181493"><ele>383.6666666666667</ele><time>2026-04-25T10:31:59.389Z</time></trkpt><trkpt lat="43.804068" lon="12.2183323"><ele>380.33333333333337</ele><time>2026-04-25T10:32:00.389Z</time></trkpt><trkpt lat="43.80424" lon="12.21846"><ele>377.0</ele><time>2026-04-25T10:32:01.389Z</time></trkpt><trkpt lat="43.8044283" lon="12.21857"><ele>384.0</ele><time>2026-04-25T10:32:02.388Z</time></trkpt><trkpt lat="43.8046333" lon="12.2186783"><ele>391.0</ele><time>2026-04-25T10:32:03.389Z</time></trkpt><trkpt lat="43.8048383" lon="12.2187917"><ele>398.0</ele><time>2026-04-25T10:32:04.389Z</time></trkpt><trkpt lat="43.8050433" lon="12.2189067"><ele>388.5</ele><time>2026-04-25T10:32:05.389Z</time></trkpt><trkpt lat="43.8052517" lon="12.2190267"><ele>379.0</ele><time>2026-04-25T10:32:06.388Z</time></trkpt><trkpt lat="43.8054683" lon="12.219145"><ele>379.0</ele><time>2026-04-25T10:32:07.388Z</time></trkpt><trkpt lat="43.8056883" lon="12.21926"><ele>379.0</ele><time>2026-04-25T10:32:08.389Z</time></trkpt><trkpt lat="43.805905" lon="12.2193767"><ele>379.0</ele><time>2026-04-25T10:32:09.389Z</time></trkpt><trkpt lat="43.806125" lon="12.2194883"><ele>379.0</ele><time>2026-04-25T10:32:10.389Z</time></trkpt><trkpt lat="43.806345" lon="12.2196033"><ele>379.0</ele><time>2026-04-25T10:32:11.388Z</time></trkpt><trkpt lat="43.8065583" lon="12.2197217"><ele>379.0</ele><time>2026-04-25T10:32:12.388Z</time></trkpt><trkpt lat="43.80677" lon="12.2198433"><ele>374.5</ele><time>2026-04-25T10:32:13.388Z</time></trkpt><trkpt lat="43.8069833" lon="12.2199533"><ele>370.0</ele><time>2026-04-25T10:32:14.389Z</time></trkpt><trkpt lat="43.8071917" lon="12.22007"><ele>370.0</ele><time>2026-04-25T10:32:15.389Z</time></trkpt><trkpt lat="43.8074033" lon="12.2201833"><ele>370.0</ele><time>2026-04-25T10:32:16.389Z</time></trkpt><trkpt lat="43.8076183" lon="12.2202933"><ele>385.5</ele><time>2026-04-25T10:32:17.389Z</time></trkpt><trkpt lat="43.8078283" lon="12.2204067"><ele>401.0</ele><time>2026-04-25T10:32:18.388Z</time></trkpt><trkpt lat="43.808035" lon="12.2205283"><ele>388.0</ele><time>2026-04-25T10:32:19.388Z</time></trkpt><trkpt lat="43.80823" lon="12.2206783"><ele>375.0</ele><time>2026-04-25T10:32:20.388Z</time></trkpt><trkpt lat="43.808425" lon="12.2208483"><ele>381.5</ele><time>2026-04-25T10:32:21.388Z</time></trkpt><trkpt lat="43.8086183" lon="12.2210333"><ele>388.0</ele><time>2026-04-25T10:32:22.389Z</time></trkpt><trkpt lat="43.8088067" lon="12.221225"><ele>388.0</ele><time>2026-04-25T10:32:23.388Z</time></trkpt><trkpt lat="43.8089967" lon="12.221415"><ele>388.0</ele><time>2026-04-25T10:32:24.389Z</time></trkpt><trkpt lat="43.80919" lon="12.2216033"><ele>390.0</ele><time>2026-04-25T10:32:25.388Z</time></trkpt><trkpt lat="43.80938" lon="12.2217933"><ele>392.0</ele><time>2026-04-25T10:32:26.388Z</time></trkpt><trkpt lat="43.8095683" lon="12.2219767"><ele>392.0</ele><time>2026-04-25T10:32:27.388Z</time></trkpt><trkpt lat="43.80976" lon="12.2221667"><ele>392.0</ele><time>2026-04-25T10:32:28.388Z</time></trkpt><trkpt lat="43.80995" lon="12.222355"><ele>391.0</ele><time>2026-04-25T10:32:29.388Z</time></trkpt><trkpt lat="43.81014" lon="12.2225433"><ele>390.0</ele><time>2026-04-25T10:32:30.388Z</time></trkpt><trkpt lat="43.8103267" lon="12.22273"><ele>390.0</ele><time>2026-04-25T10:32:31.388Z</time></trkpt><trkpt lat="43.8105183" lon="12.2229183"><ele>390.0</ele><time>2026-04-25T10:32:32.388Z</time></trkpt><trkpt lat="43.810705" lon="12.2231017"><ele>389.0</ele><time>2026-04-25T10:32:33.389Z</time></trkpt><trkpt lat="43.8108983" lon="12.2232883"><ele>388.0</ele><time>2026-04-25T10:32:34.388Z</time></trkpt><trkpt lat="43.81109" lon="12.2234733"><ele>388.0</ele><time>2026-04-25T10:32:35.389Z</time></trkpt><trkpt lat="43.81128" lon="12.2236583"><ele>388.0</ele><time>2026-04-25T10:32:36.389Z</time></trkpt><trkpt lat="43.8114717" lon="12.2238367"><ele>381.0</ele><time>2026-04-25T10:32:37.388Z</time></trkpt><trkpt lat="43.8116733" lon="12.2239933"><ele>374.0</ele><time>2026-04-25T10:32:38.388Z</time></trkpt><trkpt lat="43.81188" lon="12.2241417"><ele>374.0</ele><time>2026-04-25T10:32:39.389Z</time></trkpt><trkpt lat="43.8120883" lon="12.2242833"><ele>374.0</ele><time>2026-04-25T10:32:40.389Z</time></trkpt><trkpt lat="43.8122933" lon="12.2244267"><ele>374.0</ele><time>2026-04-25T10:32:41.389Z</time></trkpt><trkpt lat="43.8125017" lon="12.2245733"><ele>374.0</ele><time>2026-04-25T10:32:42.389Z</time></trkpt><trkpt lat="43.8127083" lon="12.2247267"><ele>368.5</ele><time>2026-04-25T10:32:43.389Z</time></trkpt><trkpt lat="43.8129183" lon="12.2248717"><ele>363.0</ele><time>2026-04-25T10:32:44.389Z</time></trkpt><trkpt lat="43.8131267" lon="12.2250217"><ele>363.0</ele><time>2026-04-25T10:32:45.389Z</time></trkpt><trkpt lat="43.813335" lon="12.2251667"><ele>363.0</ele><time>2026-04-25T10:32:46.389Z</time></trkpt><trkpt lat="43.8135417" lon="12.2253133"><ele>363.0</ele><time>2026-04-25T10:32:47.388Z</time></trkpt><trkpt lat="43.8137417" lon="12.22546"><ele>363.0</ele><time>2026-04-25T10:32:48.389Z</time></trkpt><trkpt lat="43.813945" lon="12.2256017"><ele>362.6666666666667</ele><time>2026-04-25T10:32:49.388Z</time></trkpt><trkpt lat="43.8141433" lon="12.2257417"><ele>362.33333333333337</ele><time>2026-04-25T10:32:50.388Z</time></trkpt><trkpt lat="43.8143417" lon="12.2258833"><ele>362.0</ele><time>2026-04-25T10:32:51.389Z</time></trkpt><trkpt lat="43.8145467" lon="12.2260217"><ele>362.0</ele><time>2026-04-25T10:32:52.389Z</time></trkpt><trkpt lat="43.8147417" lon="12.2261667"><ele>362.0</ele><time>2026-04-25T10:32:53.389Z</time></trkpt><trkpt lat="43.8149417" lon="12.2263067"><ele>362.0</ele><time>2026-04-25T10:32:54.388Z</time></trkpt><trkpt lat="43.815145" lon="12.2264533"><ele>360.5</ele><time>2026-04-25T10:32:55.389Z</time></trkpt><trkpt lat="43.8153533" lon="12.2266033"><ele>359.0</ele><time>2026-04-25T10:32:56.388Z</time></trkpt><trkpt lat="43.8155617" lon="12.2267533"><ele>359.0</ele><time>2026-04-25T10:32:57.388Z</time></trkpt><trkpt lat="43.8157717" lon="12.2269033"><ele>359.0</ele><time>2026-04-25T10:32:58.389Z</time></trkpt><trkpt lat="43.8159817" lon="12.2270533"><ele>357.5</ele><time>2026-04-25T10:32:59.388Z</time></trkpt><trkpt lat="43.81619" lon="12.227205"><ele>356.0</ele><time>2026-04-25T10:33:00.388Z</time></trkpt><trkpt lat="43.8163983" lon="12.2273483"><ele>356.0</ele><time>2026-04-25T10:33:01.389Z</time></trkpt><trkpt lat="43.8166067" lon="12.227495"><ele>356.0</ele><time>2026-04-25T10:33:02.389Z</time></trkpt><trkpt lat="43.816815" lon="12.2276417"><ele>360.5</ele><time>2026-04-25T10:33:03.388Z</time></trkpt><trkpt lat="43.8170183" lon="12.227785"><ele>365.0</ele><time>2026-04-25T10:33:04.389Z</time></trkpt><trkpt lat="43.8172233" lon="12.2279317"><ele>365.0</ele><time>2026-04-25T10:33:05.389Z</time></trkpt><trkpt lat="43.81742" lon="12.2280783"><ele>365.0</ele><time>2026-04-25T10:33:06.389Z</time></trkpt><trkpt lat="43.81761" lon="12.2282117"><ele>365.0</ele><time>2026-04-25T10:33:07.388Z</time></trkpt><trkpt lat="43.8178017" lon="12.2283483"><ele>362.33333333333337</ele><time>2026-04-25T10:33:08.389Z</time></trkpt><trkpt lat="43.8179933" lon="12.2284883"><ele>359.6666666666667</ele><time>2026-04-25T10:33:09.389Z</time></trkpt><trkpt lat="43.818185" lon="12.2286317"><ele>357.0</ele><time>2026-04-25T10:33:10.388Z</time></trkpt><trkpt lat="43.8183717" lon="12.22877"><ele>356.3333333333333</ele><time>2026-04-25T10:33:11.389Z</time></trkpt><trkpt lat="43.818555" lon="12.2289033"><ele>355.66666666666663</ele><time>2026-04-25T10:33:12.389Z</time></trkpt><trkpt lat="43.8187367" lon="12.2290283"><ele>355.0</ele><time>2026-04-25T10:33:13.389Z</time></trkpt><trkpt lat="43.81891" lon="12.2291517"><ele>355.0</ele><time>2026-04-25T10:33:14.389Z</time></trkpt><trkpt lat="43.8190767" lon="12.22928"><ele>355.0</ele><time>2026-04-25T10:33:15.389Z</time></trkpt><trkpt lat="43.8192367" lon="12.2294317"><ele>355.0</ele><time>2026-04-25T10:33:16.389Z</time></trkpt><trkpt lat="43.8193833" lon="12.2296083"><ele>355.0</ele><time>2026-04-25T10:33:17.389Z</time></trkpt><trkpt lat="43.8195217" lon="12.2297967"><ele>355.0</ele><time>2026-04-25T10:33:18.388Z</time></trkpt><trkpt lat="43.8196517" lon="12.22999"><ele>355.0</ele><time>2026-04-25T10:33:19.389Z</time></trkpt><trkpt lat="43.819785" lon="12.23018"><ele>355.0</ele><time>2026-04-25T10:33:20.389Z</time></trkpt><trkpt lat="43.819915" lon="12.2303667"><ele>355.0</ele><time>2026-04-25T10:33:21.388Z</time></trkpt><trkpt lat="43.820045" lon="12.230555"><ele>355.0</ele><time>2026-04-25T10:33:22.389Z</time></trkpt><trkpt lat="43.8201683" lon="12.2307417"><ele>356.0</ele><time>2026-04-25T10:33:23.388Z</time></trkpt><trkpt lat="43.8202883" lon="12.2309167"><ele>357.0</ele><time>2026-04-25T10:33:24.389Z</time></trkpt><trkpt lat="43.820405" lon="12.231085"><ele>358.0</ele><time>2026-04-25T10:33:25.388Z</time></trkpt><trkpt lat="43.8205183" lon="12.2312433"><ele>358.0</ele><time>2026-04-25T10:33:26.389Z</time></trkpt><trkpt lat="43.82063" lon="12.2314033"><ele>358.0</ele><time>2026-04-25T10:33:27.388Z</time></trkpt><trkpt lat="43.8207383" lon="12.2315617"><ele>358.0</ele><time>2026-04-25T10:33:28.389Z</time></trkpt><trkpt lat="43.820845" lon="12.2317083"><ele>356.75</ele><time>2026-04-25T10:33:29.388Z</time></trkpt><trkpt lat="43.82094" lon="12.231845"><ele>355.5</ele><time>2026-04-25T10:33:30.389Z</time></trkpt><trkpt lat="43.821035" lon="12.2319733"><ele>354.25</ele><time>2026-04-25T10:33:31.389Z</time></trkpt><trkpt lat="43.82112" lon="12.2321067"><ele>353.0</ele><time>2026-04-25T10:33:32.389Z</time></trkpt><trkpt lat="43.821195" lon="12.2322483"><ele>354.25</ele><time>2026-04-25T10:33:33.389Z</time></trkpt><trkpt lat="43.8212533" lon="12.232405"><ele>355.5</ele><time>2026-04-25T10:33:34.388Z</time></trkpt><trkpt lat="43.821285" lon="12.2325767"><ele>356.75</ele><time>2026-04-25T10:33:35.388Z</time></trkpt><trkpt lat="43.8212883" lon="12.2327483"><ele>358.0</ele><time>2026-04-25T10:33:36.389Z</time></trkpt><trkpt lat="43.8212717" lon="12.2329117"><ele>358.0</ele><time>2026-04-25T10:33:37.388Z</time></trkpt><trkpt lat="43.8212317" lon="12.2330617"><ele>358.0</ele><time>2026-04-25T10:33:38.389Z</time></trkpt><trkpt lat="43.821185" lon="12.2332067"><ele>358.0</ele><time>2026-04-25T10:33:39.388Z</time></trkpt><trkpt lat="43.8211183" lon="12.233355"><ele>358.0</ele><time>2026-04-25T10:33:40.388Z</time></trkpt><trkpt lat="43.8210433" lon="12.2335067"><ele>354.66666666666663</ele><time>2026-04-25T10:33:41.389Z</time></trkpt><trkpt lat="43.82096" lon="12.2336783"><ele>351.3333333333333</ele><time>2026-04-25T10:33:42.389Z</time></trkpt><trkpt lat="43.82088" lon="12.2338567"><ele>348.0</ele><time>2026-04-25T10:33:43.389Z</time></trkpt><trkpt lat="43.8208017" lon="12.2340433"><ele>347.0</ele><time>2026-04-25T10:33:44.388Z</time></trkpt><trkpt lat="43.8207183" lon="12.2342367"><ele>346.0</ele><time>2026-04-25T10:33:45.388Z</time></trkpt><trkpt lat="43.8206317" lon="12.2344317"><ele>345.0</ele><time>2026-04-25T10:33:46.389Z</time></trkpt><trkpt lat="43.8205467" lon="12.2346267"><ele>344.6666666666667</ele><time>2026-04-25T10:33:47.389Z</time></trkpt><trkpt lat="43.82046" lon="12.2348117"><ele>344.33333333333337</ele><time>2026-04-25T10:33:48.388Z</time></trkpt><trkpt lat="43.8203717" lon="12.235005"><ele>344.0</ele><time>2026-04-25T10:33:49.389Z</time></trkpt><trkpt lat="43.8202833" lon="12.2351983"><ele>344.0</ele><time>2026-04-25T10:33:50.388Z</time></trkpt><trkpt lat="43.820195" lon="12.23539"><ele>344.0</ele><time>2026-04-25T10:33:51.388Z</time></trkpt><trkpt lat="43.820105" lon="12.2355867"><ele>344.0</ele><time>2026-04-25T10:33:52.388Z</time></trkpt><trkpt lat="43.8200167" lon="12.23579"><ele>345.0</ele><time>2026-04-25T10:33:53.389Z</time></trkpt><trkpt lat="43.8199267" lon="12.235995"><ele>346.0</ele><time>2026-04-25T10:33:54.388Z</time></trkpt><trkpt lat="43.8198333" lon="12.2362017"><ele>347.0</ele><time>2026-04-25T10:33:55.389Z</time></trkpt><trkpt lat="43.8197383" lon="12.2364133"><ele>347.6666666666667</ele><time>2026-04-25T10:33:56.389Z</time></trkpt><trkpt lat="43.8196433" lon="12.2366167"><ele>348.3333333333333</ele><time>2026-04-25T10:33:57.388Z</time></trkpt><trkpt lat="43.8195483" lon="12.2368117"><ele>349.0</ele><time>2026-04-25T10:33:58.389Z</time></trkpt><trkpt lat="43.8194683" lon="12.237015"><ele>349.0</ele><time>2026-04-25T10:33:59.388Z</time></trkpt><trkpt lat="43.8193967" lon="12.2372267"><ele>349.0</ele><time>2026-04-25T10:34:00.389Z</time></trkpt><trkpt lat="43.8193567" lon="12.2374483"><ele>349.0</ele><time>2026-04-25T10:34:01.389Z</time></trkpt><trkpt lat="43.819325" lon="12.2376917"><ele>349.3333333333333</ele><time>2026-04-25T10:34:02.388Z</time></trkpt><trkpt lat="43.8192967" lon="12.2379417"><ele>349.6666666666667</ele><time>2026-04-25T10:34:03.389Z</time></trkpt><trkpt lat="43.8192717" lon="12.2381967"><ele>350.0</ele><time>2026-04-25T10:34:04.389Z</time></trkpt><trkpt lat="43.8192433" lon="12.2384633"><ele>350.0</ele><time>2026-04-25T10:34:05.388Z</time></trkpt><trkpt lat="43.8192117" lon="12.23873"><ele>350.0</ele><time>2026-04-25T10:34:06.389Z</time></trkpt><trkpt lat="43.819185" lon="12.2389983"><ele>350.0</ele><time>2026-04-25T10:34:07.389Z</time></trkpt><trkpt lat="43.8191567" lon="12.2392683"><ele>349.6666666666667</ele><time>2026-04-25T10:34:08.389Z</time></trkpt><trkpt lat="43.8191283" lon="12.2395367"><ele>349.3333333333333</ele><time>2026-04-25T10:34:09.388Z</time></trkpt><trkpt lat="43.8191" lon="12.2398033"><ele>349.0</ele><time>2026-04-25T10:34:10.389Z</time></trkpt><trkpt lat="43.81907" lon="12.2400617"><ele>349.0</ele><time>2026-04-25T10:34:11.388Z</time></trkpt><trkpt lat="43.8190467" lon="12.2403067"><ele>349.0</ele><time>2026-04-25T10:34:12.389Z</time></trkpt><trkpt lat="43.819025" lon="12.2405433"><ele>349.0</ele><time>2026-04-25T10:34:13.389Z</time></trkpt><trkpt lat="43.8189983" lon="12.2407733"><ele>349.25</ele><time>2026-04-25T10:34:14.389Z</time></trkpt><trkpt lat="43.8189867" lon="12.2409833"><ele>349.5</ele><time>2026-04-25T10:34:15.389Z</time></trkpt><trkpt lat="43.8189783" lon="12.24118"><ele>349.75</ele><time>2026-04-25T10:34:16.389Z</time></trkpt><trkpt lat="43.8189967" lon="12.2413783"><ele>350.0</ele><time>2026-04-25T10:34:17.389Z</time></trkpt><trkpt lat="43.8190517" lon="12.2415667"><ele>350.25</ele><time>2026-04-25T10:34:18.389Z</time></trkpt><trkpt lat="43.8191283" lon="12.2417383"><ele>350.5</ele><time>2026-04-25T10:34:19.389Z</time></trkpt><trkpt lat="43.8192083" lon="12.2419067"><ele>350.75</ele><time>2026-04-25T10:34:20.388Z</time></trkpt><trkpt lat="43.8192933" lon="12.24207"><ele>351.0</ele><time>2026-04-25T10:34:21.388Z</time></trkpt><trkpt lat="43.8193667" lon="12.2422367"><ele>351.75</ele><time>2026-04-25T10:34:22.388Z</time></trkpt><trkpt lat="43.8194117" lon="12.2424233"><ele>352.5</ele><time>2026-04-25T10:34:23.388Z</time></trkpt><trkpt lat="43.8194233" lon="12.2426267"><ele>353.25</ele><time>2026-04-25T10:34:24.389Z</time></trkpt><trkpt lat="43.8194033" lon="12.2428267"><ele>354.0</ele><time>2026-04-25T10:34:25.388Z</time></trkpt><trkpt lat="43.81937" lon="12.243025"><ele>354.25</ele><time>2026-04-25T10:34:26.388Z</time></trkpt><trkpt lat="43.8193267" lon="12.2432233"><ele>354.5</ele><time>2026-04-25T10:34:27.389Z</time></trkpt><trkpt lat="43.8192983" lon="12.243415"><ele>354.75</ele><time>2026-04-25T10:34:28.389Z</time></trkpt><trkpt lat="43.8192583" lon="12.2436117"><ele>355.0</ele><time>2026-04-25T10:34:29.389Z</time></trkpt><trkpt lat="43.8192167" lon="12.2438117"><ele>356.25</ele><time>2026-04-25T10:34:30.389Z</time></trkpt><trkpt lat="43.8191783" lon="12.2440033"><ele>357.5</ele><time>2026-04-25T10:34:31.389Z</time></trkpt><trkpt lat="43.819145" lon="12.2441967"><ele>358.75</ele><time>2026-04-25T10:34:32.388Z</time></trkpt><trkpt lat="43.8191" lon="12.244385"><ele>360.0</ele><time>2026-04-25T10:34:33.388Z</time></trkpt><trkpt lat="43.8190617" lon="12.2445683"><ele>360.0</ele><time>2026-04-25T10:34:34.389Z</time></trkpt><trkpt lat="43.8190233" lon="12.2447417"><ele>360.0</ele><time>2026-04-25T10:34:35.388Z</time></trkpt><trkpt lat="43.819" lon="12.2449033"><ele>360.0</ele><time>2026-04-25T10:34:36.388Z</time></trkpt><trkpt lat="43.81897" lon="12.24505"><ele>360.0</ele><time>2026-04-25T10:34:37.388Z</time></trkpt><trkpt lat="43.81894" lon="12.24518"><ele>360.6666666666667</ele><time>2026-04-25T10:34:38.388Z</time></trkpt><trkpt lat="43.8189017" lon="12.2452583"><ele>361.3333333333333</ele><time>2026-04-25T10:34:39.389Z</time></trkpt><trkpt lat="43.8188317" lon="12.24533"><ele>362.0</ele><time>2026-04-25T10:34:41.388Z</time></trkpt><trkpt lat="43.8187883" lon="12.2454133"><ele>362.66666666666663</ele><time>2026-04-25T10:34:46.388Z</time></trkpt><trkpt lat="43.81878" lon="12.2455383"><ele>363.3333333333333</ele><time>2026-04-25T10:34:48.388Z</time></trkpt><trkpt lat="43.8188067" lon="12.2456383"><ele>364.0</ele><time>2026-04-25T10:34:49.389Z</time></trkpt><trkpt lat="43.818855" lon="12.2457567"><ele>365.0</ele><time>2026-04-25T10:34:50.389Z</time></trkpt><trkpt lat="43.8189233" lon="12.24589"><ele>366.0</ele><time>2026-04-25T10:34:51.389Z</time></trkpt><trkpt lat="43.8190067" lon="12.246035"><ele>367.0</ele><time>2026-04-25T10:34:52.388Z</time></trkpt><trkpt lat="43.8190883" lon="12.24618"><ele>368.0</ele><time>2026-04-25T10:34:53.389Z</time></trkpt><trkpt lat="43.8191683" lon="12.246335"><ele>367.5</ele><time>2026-04-25T10:34:54.389Z</time></trkpt><trkpt lat="43.8192467" lon="12.2465017"><ele>367.0</ele><time>2026-04-25T10:34:55.389Z</time></trkpt><trkpt lat="43.81933" lon="12.2466733"><ele>366.5</ele><time>2026-04-25T10:34:56.389Z</time></trkpt><trkpt lat="43.819425" lon="12.246845"><ele>366.0</ele><time>2026-04-25T10:34:57.388Z</time></trkpt><trkpt lat="43.8195167" lon="12.2470233"><ele>365.75</ele><time>2026-04-25T10:34:58.389Z</time></trkpt><trkpt lat="43.81961" lon="12.2471917"><ele>365.5</ele><time>2026-04-25T10:34:59.388Z</time></trkpt><trkpt lat="43.8196933" lon="12.24735"><ele>365.25</ele><time>2026-04-25T10:35:00.389Z</time></trkpt><trkpt lat="43.8197683" lon="12.2474983"><ele>365.0</ele><time>2026-04-25T10:35:01.389Z</time></trkpt><trkpt lat="43.8198383" lon="12.24764"><ele>365.0</ele><time>2026-04-25T10:35:02.388Z</time></trkpt><trkpt lat="43.8199017" lon="12.247775"><ele>365.0</ele><time>2026-04-25T10:35:03.389Z</time></trkpt><trkpt lat="43.819965" lon="12.2478967"><ele>365.0</ele><time>2026-04-25T10:35:04.389Z</time></trkpt><trkpt lat="43.8200317" lon="12.2479983"><ele>365.0</ele><time>2026-04-25T10:35:05.388Z</time></trkpt><trkpt lat="43.820105" lon="12.2480633"><ele>365.0</ele><time>2026-04-25T10:35:06.388Z</time></trkpt><trkpt lat="43.8201867" lon="12.248095"><ele>364.75</ele><time>2026-04-25T10:35:07.389Z</time></trkpt><trkpt lat="43.8202833" lon="12.2480833"><ele>364.5</ele><time>2026-04-25T10:35:08.389Z</time></trkpt><trkpt lat="43.8203967" lon="12.2480417"><ele>364.25</ele><time>2026-04-25T10:35:09.389Z</time></trkpt><trkpt lat="43.820515" lon="12.2479783"><ele>364.0</ele><time>2026-04-25T10:35:10.389Z</time></trkpt><trkpt lat="43.820625" lon="12.2479217"><ele>364.0</ele><time>2026-04-25T10:35:11.388Z</time></trkpt><trkpt lat="43.8207233" lon="12.24787"><ele>364.0</ele><time>2026-04-25T10:35:12.388Z</time></trkpt><trkpt lat="43.8208133" lon="12.2478183"><ele>364.0</ele><time>2026-04-25T10:35:13.389Z</time></trkpt><trkpt lat="43.8209133" lon="12.2477617"><ele>364.0</ele><time>2026-04-25T10:35:14.388Z</time></trkpt><trkpt lat="43.8210267" lon="12.247695"><ele>364.0</ele><time>2026-04-25T10:35:15.388Z</time></trkpt><trkpt lat="43.8211533" lon="12.2476233"><ele>364.75</ele><time>2026-04-25T10:35:16.388Z</time></trkpt><trkpt lat="43.821285" lon="12.24755"><ele>365.5</ele><time>2026-04-25T10:35:17.389Z</time></trkpt><trkpt lat="43.8214233" lon="12.247485"><ele>366.25</ele><time>2026-04-25T10:35:18.389Z</time></trkpt><trkpt lat="43.82156" lon="12.2474433"><ele>367.0</ele><time>2026-04-25T10:35:19.389Z</time></trkpt><trkpt lat="43.8217083" lon="12.2474083"><ele>365.3333333333333</ele><time>2026-04-25T10:35:20.388Z</time></trkpt><trkpt lat="43.8218583" lon="12.2473967"><ele>363.6666666666667</ele><time>2026-04-25T10:35:21.389Z</time></trkpt><trkpt lat="43.822015" lon="12.2474033"><ele>362.0</ele><time>2026-04-25T10:35:22.388Z</time></trkpt><trkpt lat="43.8221683" lon="12.247425"><ele>362.0</ele><time>2026-04-25T10:35:23.389Z</time></trkpt><trkpt lat="43.8223167" lon="12.2474517"><ele>362.0</ele><time>2026-04-25T10:35:24.389Z</time></trkpt><trkpt lat="43.822465" lon="12.2474817"><ele>362.0</ele><time>2026-04-25T10:35:25.388Z</time></trkpt><trkpt lat="43.8226233" lon="12.2475183"><ele>359.6666666666667</ele><time>2026-04-25T10:35:26.388Z</time></trkpt><trkpt lat="43.8227817" lon="12.2475517"><ele>357.3333333333333</ele><time>2026-04-25T10:35:27.389Z</time></trkpt><trkpt lat="43.8229367" lon="12.24759"><ele>355.0</ele><time>2026-04-25T10:35:28.389Z</time></trkpt><trkpt lat="43.8230817" lon="12.2476167"><ele>355.0</ele><time>2026-04-25T10:35:29.389Z</time></trkpt><trkpt lat="43.82323" lon="12.247645"><ele>355.0</ele><time>2026-04-25T10:35:30.389Z</time></trkpt><trkpt lat="43.82338" lon="12.2476783"><ele>355.0</ele><time>2026-04-25T10:35:31.389Z</time></trkpt><trkpt lat="43.8235333" lon="12.247725"><ele>353.66666666666663</ele><time>2026-04-25T10:35:32.389Z</time></trkpt><trkpt lat="43.823685" lon="12.2477867"><ele>352.3333333333333</ele><time>2026-04-25T10:35:33.389Z</time></trkpt><trkpt lat="43.82383" lon="12.2478817"><ele>351.0</ele><time>2026-04-25T10:35:34.388Z</time></trkpt><trkpt lat="43.823955" lon="12.2479983"><ele>351.0</ele><time>2026-04-25T10:35:35.388Z</time></trkpt><trkpt lat="43.8240717" lon="12.2481067"><ele>351.0</ele><time>2026-04-25T10:35:36.388Z</time></trkpt><trkpt lat="43.8241817" lon="12.248225"><ele>351.0</ele><time>2026-04-25T10:35:37.388Z</time></trkpt><trkpt lat="43.8242767" lon="12.24836"><ele>351.0</ele><time>2026-04-25T10:35:38.388Z</time></trkpt><trkpt lat="43.8243667" lon="12.2484983"><ele>348.0</ele><time>2026-04-25T10:35:39.389Z</time></trkpt><trkpt lat="43.8244683" lon="12.2486533"><ele>345.0</ele><time>2026-04-25T10:35:40.388Z</time></trkpt><trkpt lat="43.8245683" lon="12.24883"><ele>342.0</ele><time>2026-04-25T10:35:41.388Z</time></trkpt><trkpt lat="43.82468" lon="12.2490267"><ele>342.0</ele><time>2026-04-25T10:35:42.388Z</time></trkpt><trkpt lat="43.8247967" lon="12.2492367"><ele>342.0</ele><time>2026-04-25T10:35:43.388Z</time></trkpt><trkpt lat="43.8249117" lon="12.24945"><ele>342.0</ele><time>2026-04-25T10:35:44.388Z</time></trkpt><trkpt lat="43.8250367" lon="12.2496633"><ele>339.0</ele><time>2026-04-25T10:35:45.388Z</time></trkpt><trkpt lat="43.8251567" lon="12.2498833"><ele>336.0</ele><time>2026-04-25T10:35:46.388Z</time></trkpt><trkpt lat="43.82527" lon="12.2501117"><ele>333.0</ele><time>2026-04-25T10:35:47.388Z</time></trkpt><trkpt lat="43.8253833" lon="12.2503367"><ele>333.0</ele><time>2026-04-25T10:35:48.388Z</time></trkpt><trkpt lat="43.8254983" lon="12.2505683"><ele>333.0</ele><time>2026-04-25T10:35:49.388Z</time></trkpt><trkpt lat="43.8256183" lon="12.2507967"><ele>333.0</ele><time>2026-04-25T10:35:50.388Z</time></trkpt><trkpt lat="43.82574" lon="12.2510233"><ele>333.3333333333333</ele><time>2026-04-25T10:35:51.388Z</time></trkpt><trkpt lat="43.8258567" lon="12.2512433"><ele>333.66666666666663</ele><time>2026-04-25T10:35:52.388Z</time></trkpt><trkpt lat="43.8259767" lon="12.2514733"><ele>334.0</ele><time>2026-04-25T10:35:53.387Z</time></trkpt><trkpt lat="43.82609" lon="12.2517133"><ele>333.3333333333333</ele><time>2026-04-25T10:35:54.387Z</time></trkpt><trkpt lat="43.82621" lon="12.251935"><ele>332.6666666666667</ele><time>2026-04-25T10:35:55.387Z</time></trkpt><trkpt lat="43.8263217" lon="12.2521633"><ele>332.0</ele><time>2026-04-25T10:35:56.388Z</time></trkpt><trkpt lat="43.8264367" lon="12.2523783"><ele>332.0</ele><time>2026-04-25T10:35:57.388Z</time></trkpt><trkpt lat="43.8265567" lon="12.2526"><ele>332.0</ele><time>2026-04-25T10:35:58.388Z</time></trkpt><trkpt lat="43.8266733" lon="12.2528217"><ele>332.0</ele><time>2026-04-25T10:35:59.388Z</time></trkpt><trkpt lat="43.8267883" lon="12.25305"><ele>330.33333333333337</ele><time>2026-04-25T10:36:00.387Z</time></trkpt><trkpt lat="43.826905" lon="12.2532867"><ele>328.6666666666667</ele><time>2026-04-25T10:36:01.388Z</time></trkpt><trkpt lat="43.8270233" lon="12.2535183"><ele>327.0</ele><time>2026-04-25T10:36:02.387Z</time></trkpt><trkpt lat="43.827155" lon="12.25376"><ele>328.0</ele><time>2026-04-25T10:36:03.387Z</time></trkpt><trkpt lat="43.8272783" lon="12.2539967"><ele>329.0</ele><time>2026-04-25T10:36:04.388Z</time></trkpt><trkpt lat="43.82741" lon="12.25423"><ele>330.0</ele><time>2026-04-25T10:36:05.388Z</time></trkpt><trkpt lat="43.8275367" lon="12.2544733"><ele>329.6666666666667</ele><time>2026-04-25T10:36:06.387Z</time></trkpt><trkpt lat="43.8276567" lon="12.2547133"><ele>329.33333333333337</ele><time>2026-04-25T10:36:07.387Z</time></trkpt><trkpt lat="43.8277783" lon="12.254945"><ele>329.0</ele><time>2026-04-25T10:36:08.388Z</time></trkpt><trkpt lat="43.8278933" lon="12.2551833"><ele>329.0</ele><time>2026-04-25T10:36:09.387Z</time></trkpt><trkpt lat="43.8280017" lon="12.2554083"><ele>329.0</ele><time>2026-04-25T10:36:10.387Z</time></trkpt><trkpt lat="43.8281167" lon="12.2556283"><ele>329.0</ele><time>2026-04-25T10:36:11.388Z</time></trkpt><trkpt lat="43.8282283" lon="12.2558417"><ele>331.0</ele><time>2026-04-25T10:36:12.388Z</time></trkpt><trkpt lat="43.8283417" lon="12.256065"><ele>333.0</ele><time>2026-04-25T10:36:13.387Z</time></trkpt><trkpt lat="43.8284533" lon="12.2562883"><ele>335.0</ele><time>2026-04-25T10:36:14.388Z</time></trkpt><trkpt lat="43.82857" lon="12.25651"><ele>335.0</ele><time>2026-04-25T10:36:15.388Z</time></trkpt><trkpt lat="43.8286817" lon="12.25673"><ele>335.0</ele><time>2026-04-25T10:36:16.387Z</time></trkpt><trkpt lat="43.8288" lon="12.256945"><ele>335.0</ele><time>2026-04-25T10:36:17.388Z</time></trkpt><trkpt lat="43.82892" lon="12.25716"><ele>337.33333333333337</ele><time>2026-04-25T10:36:18.387Z</time></trkpt><trkpt lat="43.8290317" lon="12.2573767"><ele>339.6666666666667</ele><time>2026-04-25T10:36:19.388Z</time></trkpt><trkpt lat="43.829145" lon="12.2575967"><ele>342.0</ele><time>2026-04-25T10:36:20.387Z</time></trkpt><trkpt lat="43.8292583" lon="12.25782"><ele>340.3333333333333</ele><time>2026-04-25T10:36:21.387Z</time></trkpt><trkpt lat="43.8293683" lon="12.2580533"><ele>338.66666666666663</ele><time>2026-04-25T10:36:22.388Z</time></trkpt><trkpt lat="43.8294667" lon="12.258295"><ele>337.0</ele><time>2026-04-25T10:36:23.388Z</time></trkpt><trkpt lat="43.8295533" lon="12.2585467"><ele>337.0</ele><time>2026-04-25T10:36:24.388Z</time></trkpt><trkpt lat="43.8296367" lon="12.2587983"><ele>337.0</ele><time>2026-04-25T10:36:25.388Z</time></trkpt><trkpt lat="43.8297083" lon="12.2590567"><ele>337.0</ele><time>2026-04-25T10:36:26.387Z</time></trkpt><trkpt lat="43.82977" lon="12.2593233"><ele>337.0</ele><time>2026-04-25T10:36:27.388Z</time></trkpt><trkpt lat="43.829825" lon="12.25959"><ele>337.0</ele><time>2026-04-25T10:36:28.387Z</time></trkpt><trkpt lat="43.8298783" lon="12.2598583"><ele>337.0</ele><time>2026-04-25T10:36:29.388Z</time></trkpt><trkpt lat="43.8299183" lon="12.2601333"><ele>338.0</ele><time>2026-04-25T10:36:30.388Z</time></trkpt><trkpt lat="43.8299517" lon="12.2604117"><ele>339.0</ele><time>2026-04-25T10:36:31.388Z</time></trkpt><trkpt lat="43.8299783" lon="12.2606767"><ele>340.0</ele><time>2026-04-25T10:36:32.388Z</time></trkpt><trkpt lat="43.829995" lon="12.26092"><ele>341.25</ele><time>2026-04-25T10:36:33.388Z</time></trkpt><trkpt lat="43.83001" lon="12.261145"><ele>342.5</ele><time>2026-04-25T10:36:34.388Z</time></trkpt><trkpt lat="43.8300283" lon="12.2613483"><ele>343.75</ele><time>2026-04-25T10:36:35.388Z</time></trkpt><trkpt lat="43.8300517" lon="12.2615333"><ele>345.0</ele><time>2026-04-25T10:36:36.388Z</time></trkpt><trkpt lat="43.8300833" lon="12.2617017"><ele>344.6666666666667</ele><time>2026-04-25T10:36:37.387Z</time></trkpt><trkpt lat="43.8301333" lon="12.2618483"><ele>344.3333333333333</ele><time>2026-04-25T10:36:38.388Z</time></trkpt><trkpt lat="43.8301933" lon="12.26196"><ele>344.0</ele><time>2026-04-25T10:36:39.388Z</time></trkpt><trkpt lat="43.8302317" lon="12.2620383"><ele>343.66666666666663</ele><time>2026-04-25T10:36:40.387Z</time></trkpt><trkpt lat="43.83027" lon="12.2621233"><ele>343.3333333333333</ele><time>2026-04-25T10:36:42.388Z</time></trkpt><trkpt lat="43.8303533" lon="12.2621683"><ele>343.0</ele><time>2026-04-25T10:37:28.388Z</time></trkpt><trkpt lat="43.8304367" lon="12.2622167"><ele>343.0</ele><time>2026-04-25T10:37:29.387Z</time></trkpt><trkpt lat="43.8305417" lon="12.2622717"><ele>343.0</ele><time>2026-04-25T10:37:30.388Z</time></trkpt><trkpt lat="43.8306567" lon="12.2622933"><ele>343.0</ele><time>2026-04-25T10:37:31.388Z</time></trkpt><trkpt lat="43.830765" lon="12.262305"><ele>343.0</ele><time>2026-04-25T10:37:32.388Z</time></trkpt><trkpt lat="43.8308917" lon="12.2622883"><ele>344.4</ele><time>2026-04-25T10:37:33.388Z</time></trkpt><trkpt lat="43.8310017" lon="12.2622583"><ele>345.79999999999995</ele><time>2026-04-25T10:37:34.387Z</time></trkpt><trkpt lat="43.8311083" lon="12.262215"><ele>347.2</ele><time>2026-04-25T10:37:35.388Z</time></trkpt><trkpt lat="43.8312183" lon="12.2621683"><ele>348.6</ele><time>2026-04-25T10:37:36.387Z</time></trkpt><trkpt lat="43.8313133" lon="12.26213"><ele>350.0</ele><time>2026-04-25T10:37:37.387Z</time></trkpt><trkpt lat="43.8314083" lon="12.2620917"><ele>350.0</ele><time>2026-04-25T10:37:38.387Z</time></trkpt><trkpt lat="43.8314983" lon="12.2620683"><ele>350.0</ele><time>2026-04-25T10:37:39.388Z</time></trkpt><trkpt lat="43.831585" lon="12.26205"><ele>350.0</ele><time>2026-04-25T10:37:40.388Z</time></trkpt><trkpt lat="43.8316667" lon="12.262035"><ele>350.0</ele><time>2026-04-25T10:37:41.387Z</time></trkpt><trkpt lat="43.8317483" lon="12.2620233"><ele>350.0</ele><time>2026-04-25T10:37:42.388Z</time></trkpt><trkpt lat="43.8318233" lon="12.2620083"><ele>350.0</ele><time>2026-04-25T10:37:43.388Z</time></trkpt><trkpt lat="43.8318883" lon="12.261995"><ele>350.33333333333337</ele><time>2026-04-25T10:37:44.388Z</time></trkpt><trkpt lat="43.83197" lon="12.26203"><ele>350.6666666666667</ele><time>2026-04-25T10:37:46.388Z</time></trkpt><trkpt lat="43.8320033" lon="12.2621633"><ele>351.0</ele><time>2026-04-25T10:37:48.388Z</time></trkpt><trkpt lat="43.8320383" lon="12.2623183"><ele>351.3333333333333</ele><time>2026-04-25T10:37:50.387Z</time></trkpt><trkpt lat="43.832065" lon="12.2624033"><ele>351.66666666666663</ele><time>2026-04-25T10:37:51.388Z</time></trkpt><trkpt lat="43.8321017" lon="12.2624867"><ele>352.0</ele><time>2026-04-25T10:37:52.388Z</time></trkpt><trkpt lat="43.8321367" lon="12.2625683"><ele>353.5</ele><time>2026-04-25T10:37:53.387Z</time></trkpt><trkpt lat="43.8321833" lon="12.2626417"><ele>355.0</ele><time>2026-04-25T10:37:54.387Z</time></trkpt><trkpt lat="43.8322367" lon="12.2627167"><ele>356.5</ele><time>2026-04-25T10:37:55.387Z</time></trkpt><trkpt lat="43.8322883" lon="12.2627883"><ele>358.0</ele><time>2026-04-25T10:37:56.387Z</time></trkpt><trkpt lat="43.8323383" lon="12.2628633"><ele>359.5</ele><time>2026-04-25T10:37:57.387Z</time></trkpt><trkpt lat="43.8323883" lon="12.2629483"><ele>361.0</ele><time>2026-04-25T10:37:58.388Z</time></trkpt><trkpt lat="43.8324267" lon="12.2630417"><ele>361.5714285714286</ele><time>2026-04-25T10:37:59.388Z</time></trkpt><trkpt lat="43.83246" lon="12.2631383"><ele>362.1428571428571</ele><time>2026-04-25T10:38:00.388Z</time></trkpt><trkpt lat="43.8324833" lon="12.26324"><ele>362.7142857142857</ele><time>2026-04-25T10:38:01.388Z</time></trkpt><trkpt lat="43.832495" lon="12.26334"><ele>363.28571428571433</ele><time>2026-04-25T10:38:02.387Z</time></trkpt><trkpt lat="43.8325067" lon="12.2634383"><ele>363.8571428571429</ele><time>2026-04-25T10:38:03.388Z</time></trkpt><trkpt lat="43.8325233" lon="12.2635383"><ele>364.42857142857144</ele><time>2026-04-25T10:38:04.387Z</time></trkpt><trkpt lat="43.8325433" lon="12.26364"><ele>365.0</ele><time>2026-04-25T10:38:05.388Z</time></trkpt><trkpt lat="43.8325717" lon="12.263735"><ele>365.0</ele><time>2026-04-25T10:38:06.388Z</time></trkpt><trkpt lat="43.832605" lon="12.2638267"><ele>365.0</ele><time>2026-04-25T10:38:07.388Z</time></trkpt><trkpt lat="43.8326483" lon="12.263925"><ele>365.0</ele><time>2026-04-25T10:38:08.388Z</time></trkpt><trkpt lat="43.8327" lon="12.26403"><ele>365.0</ele><time>2026-04-25T10:38:09.388Z</time></trkpt><trkpt lat="43.832745" lon="12.2641167"><ele>365.0</ele><time>2026-04-25T10:38:10.388Z</time></trkpt><trkpt lat="43.832805" lon="12.2642267"><ele>365.0</ele><time>2026-04-25T10:38:12.388Z</time></trkpt><trkpt lat="43.8328683" lon="12.2641933"><ele>366.42857142857144</ele><time>2026-04-25T10:38:17.388Z</time></trkpt><trkpt lat="43.8329467" lon="12.26415"><ele>367.8571428571429</ele><time>2026-04-25T10:38:19.387Z</time></trkpt><trkpt lat="43.83301" lon="12.2641317"><ele>369.28571428571433</ele><time>2026-04-25T10:38:20.387Z</time></trkpt><trkpt lat="43.8330733" lon="12.2641233"><ele>370.7142857142857</ele><time>2026-04-25T10:38:21.388Z</time></trkpt><trkpt lat="43.833145" lon="12.264115"><ele>372.1428571428571</ele><time>2026-04-25T10:38:22.388Z</time></trkpt><trkpt lat="43.8332233" lon="12.2641217"><ele>373.5714285714286</ele><time>2026-04-25T10:38:23.387Z</time></trkpt><trkpt lat="43.833295" lon="12.2641333"><ele>375.0</ele><time>2026-04-25T10:38:24.388Z</time></trkpt><trkpt lat="43.8333683" lon="12.2641467"><ele>375.0</ele><time>2026-04-25T10:38:25.388Z</time></trkpt><trkpt lat="43.8334467" lon="12.2641583"><ele>375.0</ele><time>2026-04-25T10:38:26.387Z</time></trkpt><trkpt lat="43.833515" lon="12.264175"><ele>375.0</ele><time>2026-04-25T10:38:27.388Z</time></trkpt><trkpt lat="43.83364" lon="12.2641967"><ele>375.0</ele><time>2026-04-25T10:38:29.388Z</time></trkpt><trkpt lat="43.8337067" lon="12.264205"><ele>375.0</ele><time>2026-04-25T10:38:30.388Z</time></trkpt><trkpt lat="43.8338283" lon="12.2642067"><ele>375.0</ele><time>2026-04-25T10:38:32.388Z</time></trkpt><trkpt lat="43.8339" lon="12.2642"><ele>375.0</ele><time>2026-04-25T10:38:33.387Z</time></trkpt><trkpt lat="43.83397" lon="12.2641917"><ele>375.0</ele><time>2026-04-25T10:38:34.388Z</time></trkpt><trkpt lat="43.83404" lon="12.2641817"><ele>375.0</ele><time>2026-04-25T10:38:35.387Z</time></trkpt><trkpt lat="43.8341183" lon="12.2641783"><ele>375.0</ele><time>2026-04-25T10:38:36.387Z</time></trkpt><trkpt lat="43.8341917" lon="12.26418"><ele>375.0</ele><time>2026-04-25T10:38:37.388Z</time></trkpt><trkpt lat="43.83426" lon="12.26418"><ele>375.0</ele><time>2026-04-25T10:38:38.388Z</time></trkpt><trkpt lat="43.8343333" lon="12.2641783"><ele>375.0</ele><time>2026-04-25T10:38:39.388Z</time></trkpt><trkpt lat="43.8344083" lon="12.264175"><ele>375.0</ele><time>2026-04-25T10:38:40.388Z</time></trkpt><trkpt lat="43.8344817" lon="12.2641733"><ele>375.0</ele><time>2026-04-25T10:38:41.387Z</time></trkpt><trkpt lat="43.834565" lon="12.2641767"><ele>375.0</ele><time>2026-04-25T10:38:42.387Z</time></trkpt><trkpt lat="43.8346433" lon="12.2641933"><ele>375.0</ele><time>2026-04-25T10:38:43.388Z</time></trkpt><trkpt lat="43.8347283" lon="12.264205"><ele>375.0</ele><time>2026-04-25T10:38:44.387Z</time></trkpt><trkpt lat="43.8348217" lon="12.2642133"><ele>375.0</ele><time>2026-04-25T10:38:45.388Z</time></trkpt><trkpt lat="43.8349" lon="12.2642183"><ele>375.0</ele><time>2026-04-25T10:38:46.388Z</time></trkpt><trkpt lat="43.8349817" lon="12.2642283"><ele>375.0</ele><time>2026-04-25T10:38:47.388Z</time></trkpt><trkpt lat="43.83507" lon="12.264235"><ele>375.0</ele><time>2026-04-25T10:38:48.388Z</time></trkpt><trkpt lat="43.83516" lon="12.264245"><ele>375.0</ele><time>2026-04-25T10:38:49.388Z</time></trkpt><trkpt lat="43.8352517" lon="12.26425"><ele>375.0</ele><time>2026-04-25T10:38:50.388Z</time></trkpt><trkpt lat="43.8353433" lon="12.26426"><ele>374.8333333333333</ele><time>2026-04-25T10:38:51.387Z</time></trkpt><trkpt lat="43.8354317" lon="12.264275"><ele>374.6666666666667</ele><time>2026-04-25T10:38:52.388Z</time></trkpt><trkpt lat="43.8355133" lon="12.2642833"><ele>374.5</ele><time>2026-04-25T10:38:53.387Z</time></trkpt><trkpt lat="43.835595" lon="12.2642833"><ele>374.33333333333337</ele><time>2026-04-25T10:38:54.387Z</time></trkpt><trkpt lat="43.83566" lon="12.264295"><ele>374.1666666666667</ele><time>2026-04-25T10:38:55.387Z</time></trkpt><trkpt lat="43.8357267" lon="12.2643117"><ele>374.0</ele><time>2026-04-25T10:38:56.387Z</time></trkpt><trkpt lat="43.8358033" lon="12.264345"><ele>374.0</ele><time>2026-04-25T10:38:57.388Z</time></trkpt><trkpt lat="43.835885" lon="12.2643783"><ele>374.0</ele><time>2026-04-25T10:38:58.387Z</time></trkpt><trkpt lat="43.835965" lon="12.2644183"><ele>374.0</ele><time>2026-04-25T10:38:59.387Z</time></trkpt><trkpt lat="43.83604" lon="12.2644517"><ele>374.0</ele><time>2026-04-25T10:39:00.387Z</time></trkpt><trkpt lat="43.8361133" lon="12.26448"><ele>374.0</ele><time>2026-04-25T10:39:01.387Z</time></trkpt><trkpt lat="43.8361883" lon="12.264505"><ele>374.0</ele><time>2026-04-25T10:39:02.388Z</time></trkpt><trkpt lat="43.8362683" lon="12.2645333"><ele>372.6</ele><time>2026-04-25T10:39:03.388Z</time></trkpt><trkpt lat="43.836345" lon="12.2645667"><ele>371.2</ele><time>2026-04-25T10:39:04.388Z</time></trkpt><trkpt lat="43.8364183" lon="12.2645983"><ele>369.8</ele><time>2026-04-25T10:39:05.388Z</time></trkpt><trkpt lat="43.836485" lon="12.2646383"><ele>368.40000000000003</ele><time>2026-04-25T10:39:06.388Z</time></trkpt><trkpt lat="43.836595" lon="12.2646767"><ele>367.0</ele><time>2026-04-25T10:39:08.388Z</time></trkpt><trkpt lat="43.8367117" lon="12.2647617"><ele>367.20000000000005</ele><time>2026-04-25T10:39:28.387Z</time></trkpt><trkpt lat="43.8367767" lon="12.2648217"><ele>367.4</ele><time>2026-04-25T10:39:30.387Z</time></trkpt><trkpt lat="43.8368817" lon="12.2648983"><ele>367.6</ele><time>2026-04-25T10:39:32.388Z</time></trkpt><trkpt lat="43.8369883" lon="12.26497"><ele>367.79999999999995</ele><time>2026-04-25T10:39:34.388Z</time></trkpt><trkpt lat="43.8370917" lon="12.2650367"><ele>368.0</ele><time>2026-04-25T10:39:36.388Z</time></trkpt><trkpt lat="43.83722" lon="12.2650917"><ele>368.0</ele><time>2026-04-25T10:39:38.387Z</time></trkpt><trkpt lat="43.8372833" lon="12.2651217"><ele>368.0</ele><time>2026-04-25T10:39:39.387Z</time></trkpt><trkpt lat="43.8373433" lon="12.26516"><ele>368.0</ele><time>2026-04-25T10:39:40.388Z</time></trkpt><trkpt lat="43.8374583" lon="12.2652233"><ele>368.0</ele><time>2026-04-25T10:39:42.388Z</time></trkpt><trkpt lat="43.8375483" lon="12.26528"><ele>368.0</ele><time>2026-04-25T10:39:44.387Z</time></trkpt><trkpt lat="43.8376217" lon="12.2653117"><ele>368.0</ele><time>2026-04-25T10:39:46.387Z</time></trkpt><trkpt lat="43.8377083" lon="12.26534"><ele>367.6666666666667</ele><time>2026-04-25T10:39:49.387Z</time></trkpt><trkpt lat="43.8377717" lon="12.2654067"><ele>367.33333333333337</ele><time>2026-04-25T10:39:51.388Z</time></trkpt><trkpt lat="43.837855" lon="12.2655333"><ele>367.0</ele><time>2026-04-25T10:39:53.388Z</time></trkpt><trkpt lat="43.8378967" lon="12.2656067"><ele>366.6666666666667</ele><time>2026-04-25T10:39:54.388Z</time></trkpt><trkpt lat="43.837935" lon="12.265695"><ele>366.3333333333333</ele><time>2026-04-25T10:39:55.387Z</time></trkpt><trkpt lat="43.8379767" lon="12.2657833"><ele>366.0</ele><time>2026-04-25T10:39:56.388Z</time></trkpt><trkpt lat="43.8380217" lon="12.2658783"><ele>366.0</ele><time>2026-04-25T10:39:57.387Z</time></trkpt><trkpt lat="43.8380717" lon="12.26597"><ele>366.0</ele><time>2026-04-25T10:39:58.387Z</time></trkpt><trkpt lat="43.838115" lon="12.26607"><ele>366.0</ele><time>2026-04-25T10:39:59.388Z</time></trkpt><trkpt lat="43.8381583" lon="12.2661667"><ele>366.0</ele><time>2026-04-25T10:40:00.387Z</time></trkpt><trkpt lat="43.8381983" lon="12.2662717"><ele>366.0</ele><time>2026-04-25T10:40:01.387Z</time></trkpt><trkpt lat="43.8382367" lon="12.2663683"><ele>366.0</ele><time>2026-04-25T10:40:02.387Z</time></trkpt><trkpt lat="43.8382733" lon="12.26646"><ele>367.20000000000005</ele><time>2026-04-25T10:40:03.388Z</time></trkpt><trkpt lat="43.8383133" lon="12.2665817"><ele>368.40000000000003</ele><time>2026-04-25T10:40:04.388Z</time></trkpt><trkpt lat="43.8383517" lon="12.266695"><ele>369.6</ele><time>2026-04-25T10:40:05.388Z</time></trkpt><trkpt lat="43.83838" lon="12.2668217"><ele>370.8</ele><time>2026-04-25T10:40:06.387Z</time></trkpt><trkpt lat="43.838415" lon="12.26694"><ele>372.0</ele><time>2026-04-25T10:40:07.387Z</time></trkpt><trkpt lat="43.838445" lon="12.267055"><ele>371.3333333333333</ele><time>2026-04-25T10:40:08.388Z</time></trkpt><trkpt lat="43.8384767" lon="12.2671817"><ele>370.6666666666667</ele><time>2026-04-25T10:40:09.388Z</time></trkpt><trkpt lat="43.8385117" lon="12.2673067"><ele>370.0</ele><time>2026-04-25T10:40:10.388Z</time></trkpt><trkpt lat="43.83854" lon="12.2674217"><ele>369.33333333333337</ele><time>2026-04-25T10:40:11.388Z</time></trkpt><trkpt lat="43.83857" lon="12.2675233"><ele>368.6666666666667</ele><time>2026-04-25T10:40:12.388Z</time></trkpt><trkpt lat="43.838595" lon="12.267615"><ele>368.0</ele><time>2026-04-25T10:40:13.388Z</time></trkpt><trkpt lat="43.8386233" lon="12.2677517"><ele>368.0</ele><time>2026-04-25T10:40:15.388Z</time></trkpt><trkpt lat="43.8386567" lon="12.2678467"><ele>368.0</ele><time>2026-04-25T10:40:17.388Z</time></trkpt><trkpt lat="43.8387183" lon="12.2679217"><ele>368.0</ele><time>2026-04-25T10:40:19.387Z</time></trkpt><trkpt lat="43.8388067" lon="12.26801"><ele>368.0</ele><time>2026-04-25T10:40:21.388Z</time></trkpt><trkpt lat="43.838885" lon="12.26811"><ele>368.0</ele><time>2026-04-25T10:40:23.387Z</time></trkpt><trkpt lat="43.8389483" lon="12.26823"><ele>369.0</ele><time>2026-04-25T10:40:25.388Z</time></trkpt><trkpt lat="43.83902" lon="12.26835"><ele>370.0</ele><time>2026-04-25T10:40:27.387Z</time></trkpt><trkpt lat="43.83907" lon="12.2684233"><ele>371.0</ele><time>2026-04-25T10:40:28.387Z</time></trkpt><trkpt lat="43.8391267" lon="12.2684967"><ele>372.0</ele><time>2026-04-25T10:40:29.388Z</time></trkpt><trkpt lat="43.8391717" lon="12.268565"><ele>373.0</ele><time>2026-04-25T10:40:30.387Z</time></trkpt><trkpt lat="43.8392267" lon="12.2686333"><ele>374.0</ele><time>2026-04-25T10:40:31.388Z</time></trkpt><trkpt lat="43.8392767" lon="12.2687033"><ele>373.1666666666667</ele><time>2026-04-25T10:40:32.388Z</time></trkpt><trkpt lat="43.8393233" lon="12.2687833"><ele>372.33333333333337</ele><time>2026-04-25T10:40:33.387Z</time></trkpt><trkpt lat="43.8393667" lon="12.2688583"><ele>371.5</ele><time>2026-04-25T10:40:34.387Z</time></trkpt><trkpt lat="43.839415" lon="12.2689217"><ele>370.6666666666667</ele><time>2026-04-25T10:40:35.387Z</time></trkpt><trkpt lat="43.8394617" lon="12.268985"><ele>369.8333333333333</ele><time>2026-04-25T10:40:36.387Z</time></trkpt><trkpt lat="43.83951" lon="12.269055"><ele>369.0</ele><time>2026-04-25T10:40:37.387Z</time></trkpt><trkpt lat="43.839585" lon="12.2691833"><ele>369.0</ele><time>2026-04-25T10:40:39.387Z</time></trkpt><trkpt lat="43.8396517" lon="12.2693267"><ele>369.0</ele><time>2026-04-25T10:40:41.388Z</time></trkpt><trkpt lat="43.8397033" lon="12.2694667"><ele>369.0</ele><time>2026-04-25T10:40:43.388Z</time></trkpt><trkpt lat="43.8397667" lon="12.2695567"><ele>369.0</ele><time>2026-04-25T10:40:45.387Z</time></trkpt><trkpt lat="43.8398367" lon="12.2696517"><ele>369.0</ele><time>2026-04-25T10:40:47.388Z</time></trkpt><trkpt lat="43.8399033" lon="12.2697833"><ele>369.6</ele><time>2026-04-25T10:40:49.387Z</time></trkpt><trkpt lat="43.83996" lon="12.2699233"><ele>370.2</ele><time>2026-04-25T10:40:51.387Z</time></trkpt><trkpt lat="43.8400317" lon="12.270075"><ele>370.8</ele><time>2026-04-25T10:40:53.388Z</time></trkpt><trkpt lat="43.840095" lon="12.2702167"><ele>371.40000000000003</ele><time>2026-04-25T10:40:55.388Z</time></trkpt><trkpt lat="43.840135" lon="12.270285"><ele>372.0</ele><time>2026-04-25T10:40:56.387Z</time></trkpt><trkpt lat="43.840225" lon="12.2704083"><ele>371.1666666666667</ele><time>2026-04-25T10:40:58.387Z</time></trkpt><trkpt lat="43.8403167" lon="12.27053"><ele>370.3333333333333</ele><time>2026-04-25T10:41:00.388Z</time></trkpt><trkpt lat="43.8403583" lon="12.2705983"><ele>369.5</ele><time>2026-04-25T10:41:01.387Z</time></trkpt><trkpt lat="43.8403967" lon="12.2706683"><ele>368.66666666666663</ele><time>2026-04-25T10:41:02.387Z</time></trkpt><trkpt lat="43.8404333" lon="12.2707617"><ele>367.8333333333333</ele><time>2026-04-25T10:41:03.388Z</time></trkpt><trkpt lat="43.8404733" lon="12.2708533"><ele>367.0</ele><time>2026-04-25T10:41:04.388Z</time></trkpt><trkpt lat="43.8405133" lon="12.27094"><ele>367.0</ele><time>2026-04-25T10:41:05.388Z</time></trkpt><trkpt lat="43.8405633" lon="12.27103"><ele>367.0</ele><time>2026-04-25T10:41:06.387Z</time></trkpt><trkpt lat="43.84061" lon="12.27111"><ele>367.0</ele><time>2026-04-25T10:41:07.387Z</time></trkpt><trkpt lat="43.8406517" lon="12.2711867"><ele>367.0</ele><time>2026-04-25T10:41:08.387Z</time></trkpt><trkpt lat="43.8406917" lon="12.2712717"><ele>367.0</ele><time>2026-04-25T10:41:09.387Z</time></trkpt><trkpt lat="43.84073" lon="12.2713633"><ele>367.0</ele><time>2026-04-25T10:41:10.387Z</time></trkpt><trkpt lat="43.8407833" lon="12.2714517"><ele>366.66666666666663</ele><time>2026-04-25T10:41:11.388Z</time></trkpt><trkpt lat="43.8408333" lon="12.271535"><ele>366.3333333333333</ele><time>2026-04-25T10:41:12.388Z</time></trkpt><trkpt lat="43.8408817" lon="12.27163"><ele>366.0</ele><time>2026-04-25T10:41:13.388Z</time></trkpt><trkpt lat="43.840925" lon="12.2717217"><ele>365.6666666666667</ele><time>2026-04-25T10:41:14.388Z</time></trkpt><trkpt lat="43.84097" lon="12.2718033"><ele>365.33333333333337</ele><time>2026-04-25T10:41:15.388Z</time></trkpt><trkpt lat="43.8410117" lon="12.2718817"><ele>365.0</ele><time>2026-04-25T10:41:16.387Z</time></trkpt><trkpt lat="43.8410583" lon="12.2719567"><ele>365.0</ele><time>2026-04-25T10:41:17.387Z</time></trkpt><trkpt lat="43.841105" lon="12.2720383"><ele>365.0</ele><time>2026-04-25T10:41:18.388Z</time></trkpt><trkpt lat="43.841145" lon="12.272115"><ele>365.0</ele><time>2026-04-25T10:41:19.388Z</time></trkpt><trkpt lat="43.8411833" lon="12.272185"><ele>365.0</ele><time>2026-04-25T10:41:20.388Z</time></trkpt><trkpt lat="43.8412217" lon="12.272255"><ele>365.0</ele><time>2026-04-25T10:41:21.388Z</time></trkpt><trkpt lat="43.84127" lon="12.272405"><ele>365.0</ele><time>2026-04-25T10:41:23.388Z</time></trkpt><trkpt lat="43.8412617" lon="12.2725417"><ele>364.6666666666667</ele><time>2026-04-25T10:41:25.388Z</time></trkpt><trkpt lat="43.8412467" lon="12.2726483"><ele>364.33333333333337</ele><time>2026-04-25T10:41:27.387Z</time></trkpt><trkpt lat="43.8412417" lon="12.27277"><ele>364.0</ele><time>2026-04-25T10:41:29.387Z</time></trkpt><trkpt lat="43.8412567" lon="12.2729367"><ele>363.6666666666667</ele><time>2026-04-25T10:41:31.387Z</time></trkpt><trkpt lat="43.8412717" lon="12.27303"><ele>363.3333333333333</ele><time>2026-04-25T10:41:32.388Z</time></trkpt><trkpt lat="43.8412917" lon="12.273135"><ele>363.0</ele><time>2026-04-25T10:41:33.387Z</time></trkpt><trkpt lat="43.8413117" lon="12.273235"><ele>361.79999999999995</ele><time>2026-04-25T10:41:34.388Z</time></trkpt><trkpt lat="43.8413283" lon="12.2733317"><ele>360.6</ele><time>2026-04-25T10:41:35.388Z</time></trkpt><trkpt lat="43.8413483" lon="12.273415"><ele>359.4</ele><time>2026-04-25T10:41:36.387Z</time></trkpt><trkpt lat="43.8414" lon="12.273545"><ele>358.20000000000005</ele><time>2026-04-25T10:41:38.388Z</time></trkpt><trkpt lat="43.84149" lon="12.2735917"><ele>357.0</ele><time>2026-04-25T10:41:41.388Z</time></trkpt><trkpt lat="43.8416067" lon="12.2735617"><ele>357.0</ele><time>2026-04-25T10:41:43.388Z</time></trkpt><trkpt lat="43.841685" lon="12.2735317"><ele>357.0</ele><time>2026-04-25T10:41:44.387Z</time></trkpt><trkpt lat="43.841765" lon="12.2735067"><ele>357.0</ele><time>2026-04-25T10:41:45.388Z</time></trkpt><trkpt lat="43.8418283" lon="12.273495"><ele>357.0</ele><time>2026-04-25T10:41:46.387Z</time></trkpt><trkpt lat="43.8419183" lon="12.2734783"><ele>357.0</ele><time>2026-04-25T10:41:48.388Z</time></trkpt><trkpt lat="43.8419917" lon="12.273535"><ele>357.0</ele><time>2026-04-25T10:41:51.388Z</time></trkpt><trkpt lat="43.8420417" lon="12.2737167"><ele>355.5</ele><time>2026-04-25T10:41:53.388Z</time></trkpt><trkpt lat="43.8420783" lon="12.2738533"><ele>354.0</ele><time>2026-04-25T10:41:54.388Z</time></trkpt><trkpt lat="43.8421333" lon="12.2740267"><ele>352.5</ele><time>2026-04-25T10:41:55.388Z</time></trkpt><trkpt lat="43.8422067" lon="12.2741967"><ele>351.0</ele><time>2026-04-25T10:41:56.388Z</time></trkpt><trkpt lat="43.8423" lon="12.27436"><ele>351.0</ele><time>2026-04-25T10:41:57.387Z</time></trkpt><trkpt lat="43.8423933" lon="12.2745"><ele>351.0</ele><time>2026-04-25T10:41:58.387Z</time></trkpt><trkpt lat="43.842475" lon="12.2746283"><ele>351.0</ele><time>2026-04-25T10:41:59.388Z</time></trkpt><trkpt lat="43.8425567" lon="12.2747517"><ele>351.0</ele><time>2026-04-25T10:42:00.387Z</time></trkpt><trkpt lat="43.8426417" lon="12.2748617"><ele>351.3333333333333</ele><time>2026-04-25T10:42:01.387Z</time></trkpt><trkpt lat="43.8427217" lon="12.2749617"><ele>351.6666666666667</ele><time>2026-04-25T10:42:02.388Z</time></trkpt><trkpt lat="43.8427917" lon="12.2750533"><ele>352.0</ele><time>2026-04-25T10:42:03.388Z</time></trkpt><trkpt lat="43.8428567" lon="12.27514"><ele>352.33333333333337</ele><time>2026-04-25T10:42:04.387Z</time></trkpt><trkpt lat="43.8429033" lon="12.275215"><ele>352.6666666666667</ele><time>2026-04-25T10:42:05.387Z</time></trkpt><trkpt lat="43.8429567" lon="12.275285"><ele>353.0</ele><time>2026-04-25T10:42:06.387Z</time></trkpt><trkpt lat="43.8430083" lon="12.2753583"><ele>353.0</ele><time>2026-04-25T10:42:07.388Z</time></trkpt><trkpt lat="43.8430517" lon="12.2754217"><ele>353.0</ele><time>2026-04-25T10:42:08.387Z</time></trkpt><trkpt lat="43.843055" lon="12.2755283"><ele>353.0</ele><time>2026-04-25T10:42:10.388Z</time></trkpt><trkpt lat="43.8429933" lon="12.2756583"><ele>353.0</ele><time>2026-04-25T10:42:12.387Z</time></trkpt><trkpt lat="43.8429533" lon="12.2757467"><ele>353.0</ele><time>2026-04-25T10:42:13.388Z</time></trkpt><trkpt lat="43.8429267" lon="12.2758567"><ele>353.0</ele><time>2026-04-25T10:42:14.387Z</time></trkpt><trkpt lat="43.8429" lon="12.2759683"><ele>352.79999999999995</ele><time>2026-04-25T10:42:15.388Z</time></trkpt><trkpt lat="43.84287" lon="12.276095"><ele>352.6</ele><time>2026-04-25T10:42:16.387Z</time></trkpt><trkpt lat="43.8428233" lon="12.2762117"><ele>352.4</ele><time>2026-04-25T10:42:17.388Z</time></trkpt><trkpt lat="43.8427667" lon="12.2763017"><ele>352.20000000000005</ele><time>2026-04-25T10:42:18.388Z</time></trkpt><trkpt lat="43.84268" lon="12.2763867"><ele>352.0</ele><time>2026-04-25T10:42:20.388Z</time></trkpt><trkpt lat="43.8426883" lon="12.2764967"><ele>353.20000000000005</ele><time>2026-04-25T10:42:23.387Z</time></trkpt><trkpt lat="43.8427483" lon="12.27658"><ele>354.4</ele><time>2026-04-25T10:42:25.388Z</time></trkpt><trkpt lat="43.8428333" lon="12.2766533"><ele>355.6</ele><time>2026-04-25T10:42:27.387Z</time></trkpt><trkpt lat="43.842935" lon="12.27672"><ele>356.79999999999995</ele><time>2026-04-25T10:42:29.388Z</time></trkpt><trkpt lat="43.8430417" lon="12.276785"><ele>358.0</ele><time>2026-04-25T10:42:31.388Z</time></trkpt><trkpt lat="43.8431383" lon="12.2768167"><ele>358.0</ele><time>2026-04-25T10:42:33.387Z</time></trkpt><trkpt lat="43.8432617" lon="12.27682"><ele>358.0</ele><time>2026-04-25T10:42:35.388Z</time></trkpt><trkpt lat="43.843365" lon="12.2768033"><ele>358.0</ele><time>2026-04-25T10:42:37.388Z</time></trkpt><trkpt lat="43.8434583" lon="12.2768033"><ele>358.0</ele><time>2026-04-25T10:42:39.388Z</time></trkpt><trkpt lat="43.8435717" lon="12.2768433"><ele>358.0</ele><time>2026-04-25T10:42:41.388Z</time></trkpt><trkpt lat="43.843635" lon="12.27688"><ele>357.0</ele><time>2026-04-25T10:42:42.387Z</time></trkpt><trkpt lat="43.8437467" lon="12.2769683"><ele>356.0</ele><time>2026-04-25T10:42:44.388Z</time></trkpt><trkpt lat="43.8438067" lon="12.2770033"><ele>355.0</ele><time>2026-04-25T10:42:45.388Z</time></trkpt><trkpt lat="43.8438717" lon="12.27704"><ele>354.0</ele><time>2026-04-25T10:42:46.387Z</time></trkpt><trkpt lat="43.8439667" lon="12.2771017"><ele>353.0</ele><time>2026-04-25T10:42:48.388Z</time></trkpt><trkpt lat="43.84403" lon="12.277155"><ele>352.0</ele><time>2026-04-25T10:42:50.388Z</time></trkpt><trkpt lat="43.84407" lon="12.277235"><ele>352.0</ele><time>2026-04-25T10:42:52.388Z</time></trkpt><trkpt lat="43.844155" lon="12.2773117"><ele>352.0</ele><time>2026-04-25T10:42:55.388Z</time></trkpt><trkpt lat="43.84428" lon="12.277345"><ele>352.0</ele><time>2026-04-25T10:42:57.388Z</time></trkpt><trkpt lat="43.8443933" lon="12.2774217"><ele>352.0</ele><time>2026-04-25T10:42:59.388Z</time></trkpt><trkpt lat="43.8444533" lon="12.277475"><ele>352.0</ele><time>2026-04-25T10:43:00.388Z</time></trkpt><trkpt lat="43.8445217" lon="12.2775317"><ele>352.0</ele><time>2026-04-25T10:43:01.388Z</time></trkpt><trkpt lat="43.844585" lon="12.2775967"><ele>352.0</ele><time>2026-04-25T10:43:02.388Z</time></trkpt><trkpt lat="43.844645" lon="12.2776583"><ele>352.0</ele><time>2026-04-25T10:43:03.387Z</time></trkpt><trkpt lat="43.844695" lon="12.277715"><ele>352.0</ele><time>2026-04-25T10:43:04.388Z</time></trkpt><trkpt lat="43.8447833" lon="12.2778183"><ele>352.0</ele><time>2026-04-25T10:43:06.388Z</time></trkpt><trkpt lat="43.8448483" lon="12.27789"><ele>352.0</ele><time>2026-04-25T10:43:08.388Z</time></trkpt><trkpt lat="43.8449183" lon="12.2779317"><ele>352.0</ele><time>2026-04-25T10:43:11.388Z</time></trkpt><trkpt lat="43.8449967" lon="12.277985"><ele>352.0</ele><time>2026-04-25T10:43:15.388Z</time></trkpt><trkpt lat="43.8450567" lon="12.27803"><ele>352.0</ele><time>2026-04-25T10:43:17.388Z</time></trkpt><trkpt lat="43.84512" lon="12.27808"><ele>352.0</ele><time>2026-04-25T10:43:19.388Z</time></trkpt><trkpt lat="43.8452117" lon="12.27818"><ele>352.0</ele><time>2026-04-25T10:43:21.388Z</time></trkpt><trkpt lat="43.8452633" lon="12.278245"><ele>352.0</ele><time>2026-04-25T10:43:22.388Z</time></trkpt><trkpt lat="43.845315" lon="12.278315"><ele>350.20000000000005</ele><time>2026-04-25T10:43:23.388Z</time></trkpt><trkpt lat="43.8453883" lon="12.2784033"><ele>348.4</ele><time>2026-04-25T10:43:25.388Z</time></trkpt><trkpt lat="43.8454583" lon="12.2784433"><ele>346.6</ele><time>2026-04-25T10:43:27.388Z</time></trkpt><trkpt lat="43.8455567" lon="12.2784533"><ele>344.79999999999995</ele><time>2026-04-25T10:43:29.387Z</time></trkpt><trkpt lat="43.8456567" lon="12.2784233"><ele>343.0</ele><time>2026-04-25T10:43:31.387Z</time></trkpt><trkpt lat="43.8457417" lon="12.2783967"><ele>343.0</ele><time>2026-04-25T10:43:33.387Z</time></trkpt><trkpt lat="43.8458117" lon="12.2783783"><ele>343.0</ele><time>2026-04-25T10:43:36.388Z</time></trkpt><trkpt lat="43.8458717" lon="12.2783417"><ele>343.0</ele><time>2026-04-25T10:43:40.388Z</time></trkpt><trkpt lat="43.8459533" lon="12.278305"><ele>343.0</ele><time>2026-04-25T10:43:42.388Z</time></trkpt><trkpt lat="43.846025" lon="12.2782867"><ele>343.0</ele><time>2026-04-25T10:43:43.388Z</time></trkpt><trkpt lat="43.8461233" lon="12.27828"><ele>343.0</ele><time>2026-04-25T10:43:44.387Z</time></trkpt><trkpt lat="43.8462417" lon="12.2782767"><ele>343.25</ele><time>2026-04-25T10:43:45.387Z</time></trkpt><trkpt lat="43.8463683" lon="12.278275"><ele>343.5</ele><time>2026-04-25T10:43:46.387Z</time></trkpt><trkpt lat="43.8465117" lon="12.2782717"><ele>343.75</ele><time>2026-04-25T10:43:47.386Z</time></trkpt><trkpt lat="43.8466583" lon="12.2782783"><ele>344.0</ele><time>2026-04-25T10:43:48.386Z</time></trkpt><trkpt lat="43.8468117" lon="12.2782717"><ele>344.75</ele><time>2026-04-25T10:43:49.387Z</time></trkpt><trkpt lat="43.846965" lon="12.2782517"><ele>345.5</ele><time>2026-04-25T10:43:50.387Z</time></trkpt><trkpt lat="43.8471017" lon="12.27823"><ele>346.25</ele><time>2026-04-25T10:43:51.387Z</time></trkpt><trkpt lat="43.84722" lon="12.2782017"><ele>347.0</ele><time>2026-04-25T10:43:52.387Z</time></trkpt><trkpt lat="43.847315" lon="12.27816"><ele>347.0</ele><time>2026-04-25T10:43:53.386Z</time></trkpt><trkpt lat="43.8474" lon="12.2781167"><ele>347.0</ele><time>2026-04-25T10:43:54.387Z</time></trkpt><trkpt lat="43.8474883" lon="12.2780583"><ele>347.0</ele><time>2026-04-25T10:43:55.387Z</time></trkpt><trkpt lat="43.8475783" lon="12.277975"><ele>347.0</ele><time>2026-04-25T10:43:56.387Z</time></trkpt><trkpt lat="43.84767" lon="12.2778633"><ele>347.0</ele><time>2026-04-25T10:43:57.386Z</time></trkpt><trkpt lat="43.84777" lon="12.2777417"><ele>346.25</ele><time>2026-04-25T10:43:58.386Z</time></trkpt><trkpt lat="43.84787" lon="12.2776083"><ele>345.5</ele><time>2026-04-25T10:43:59.386Z</time></trkpt><trkpt lat="43.847975" lon="12.2774783"><ele>344.75</ele><time>2026-04-25T10:44:00.386Z</time></trkpt><trkpt lat="43.8480883" lon="12.2773483"><ele>344.0</ele><time>2026-04-25T10:44:01.386Z</time></trkpt><trkpt lat="43.8482167" lon="12.2772317"><ele>339.6666666666667</ele><time>2026-04-25T10:44:02.386Z</time></trkpt><trkpt lat="43.8483567" lon="12.2771417"><ele>335.3333333333333</ele><time>2026-04-25T10:44:03.387Z</time></trkpt><trkpt lat="43.848505" lon="12.27707"><ele>331.0</ele><time>2026-04-25T10:44:04.387Z</time></trkpt><trkpt lat="43.848655" lon="12.277025"><ele>330.3333333333333</ele><time>2026-04-25T10:44:05.386Z</time></trkpt><trkpt lat="43.8488133" lon="12.27701"><ele>329.6666666666667</ele><time>2026-04-25T10:44:06.387Z</time></trkpt><trkpt lat="43.8489783" lon="12.2769983"><ele>329.0</ele><time>2026-04-25T10:44:07.387Z</time></trkpt><trkpt lat="43.8491467" lon="12.2769983"><ele>331.33333333333337</ele><time>2026-04-25T10:44:08.386Z</time></trkpt><trkpt lat="43.84932" lon="12.2769967"><ele>333.6666666666667</ele><time>2026-04-25T10:44:09.387Z</time></trkpt><trkpt lat="43.8494983" lon="12.277"><ele>336.0</ele><time>2026-04-25T10:44:10.387Z</time></trkpt><trkpt lat="43.8496833" lon="12.2770083"><ele>336.0</ele><time>2026-04-25T10:44:11.387Z</time></trkpt><trkpt lat="43.84986" lon="12.27701"><ele>336.0</ele><time>2026-04-25T10:44:12.386Z</time></trkpt><trkpt lat="43.850035" lon="12.276975"><ele>336.0</ele><time>2026-04-25T10:44:13.387Z</time></trkpt><trkpt lat="43.8502017" lon="12.27689"><ele>338.0</ele><time>2026-04-25T10:44:14.387Z</time></trkpt><trkpt lat="43.8503617" lon="12.2768"><ele>340.0</ele><time>2026-04-25T10:44:15.387Z</time></trkpt><trkpt lat="43.8505233" lon="12.27668"><ele>342.0</ele><time>2026-04-25T10:44:16.387Z</time></trkpt><trkpt lat="43.85069" lon="12.27654"><ele>340.0</ele><time>2026-04-25T10:44:17.386Z</time></trkpt><trkpt lat="43.8508383" lon="12.2764033"><ele>338.0</ele><time>2026-04-25T10:44:18.386Z</time></trkpt><trkpt lat="43.85099" lon="12.2762883"><ele>336.0</ele><time>2026-04-25T10:44:19.386Z</time></trkpt><trkpt lat="43.8511433" lon="12.27617"><ele>336.0</ele><time>2026-04-25T10:44:20.386Z</time></trkpt><trkpt lat="43.85129" lon="12.276055"><ele>336.0</ele><time>2026-04-25T10:44:21.387Z</time></trkpt><trkpt lat="43.8514367" lon="12.2759533"><ele>336.0</ele><time>2026-04-25T10:44:22.387Z</time></trkpt><trkpt lat="43.8515783" lon="12.275875"><ele>336.0</ele><time>2026-04-25T10:44:23.386Z</time></trkpt><trkpt lat="43.8517283" lon="12.2758483"><ele>336.0</ele><time>2026-04-25T10:44:24.386Z</time></trkpt><trkpt lat="43.851895" lon="12.2758767"><ele>336.0</ele><time>2026-04-25T10:44:25.386Z</time></trkpt><trkpt lat="43.85205" lon="12.2759667"><ele>333.0</ele><time>2026-04-25T10:44:26.387Z</time></trkpt><trkpt lat="43.8521933" lon="12.2760833"><ele>330.0</ele><time>2026-04-25T10:44:27.386Z</time></trkpt><trkpt lat="43.8523283" lon="12.2762183"><ele>327.0</ele><time>2026-04-25T10:44:28.386Z</time></trkpt><trkpt lat="43.8524767" lon="12.27635"><ele>327.3333333333333</ele><time>2026-04-25T10:44:29.387Z</time></trkpt><trkpt lat="43.8526283" lon="12.2764917"><ele>327.66666666666663</ele><time>2026-04-25T10:44:30.387Z</time></trkpt><trkpt lat="43.8527817" lon="12.27663"><ele>328.0</ele><time>2026-04-25T10:44:31.387Z</time></trkpt><trkpt lat="43.8529483" lon="12.2767783"><ele>328.0</ele><time>2026-04-25T10:44:32.387Z</time></trkpt><trkpt lat="43.8531133" lon="12.2769283"><ele>328.0</ele><time>2026-04-25T10:44:33.387Z</time></trkpt><trkpt lat="43.8532783" lon="12.2770733"><ele>328.0</ele><time>2026-04-25T10:44:34.386Z</time></trkpt><trkpt lat="43.8534483" lon="12.2772167"><ele>327.3333333333333</ele><time>2026-04-25T10:44:35.387Z</time></trkpt><trkpt lat="43.853625" lon="12.2773583"><ele>326.6666666666667</ele><time>2026-04-25T10:44:36.386Z</time></trkpt><trkpt lat="43.8537817" lon="12.2774983"><ele>326.0</ele><time>2026-04-25T10:44:37.387Z</time></trkpt><trkpt lat="43.8539283" lon="12.2776333"><ele>326.0</ele><time>2026-04-25T10:44:38.386Z</time></trkpt><trkpt lat="43.85407" lon="12.2777683"><ele>326.0</ele><time>2026-04-25T10:44:39.386Z</time></trkpt><trkpt lat="43.8542183" lon="12.2778917"><ele>326.0</ele><time>2026-04-25T10:44:40.387Z</time></trkpt><trkpt lat="43.8543433" lon="12.278025"><ele>325.25</ele><time>2026-04-25T10:44:41.387Z</time></trkpt><trkpt lat="43.8544483" lon="12.2781733"><ele>324.5</ele><time>2026-04-25T10:44:42.386Z</time></trkpt><trkpt lat="43.8545183" lon="12.278345"><ele>323.75</ele><time>2026-04-25T10:44:43.387Z</time></trkpt><trkpt lat="43.85456" lon="12.278535"><ele>323.0</ele><time>2026-04-25T10:44:44.387Z</time></trkpt><trkpt lat="43.8545917" lon="12.2787183"><ele>323.0</ele><time>2026-04-25T10:44:45.386Z</time></trkpt><trkpt lat="43.854625" lon="12.27889"><ele>323.0</ele><time>2026-04-25T10:44:46.387Z</time></trkpt><trkpt lat="43.8546483" lon="12.2790533"><ele>323.0</ele><time>2026-04-25T10:44:47.387Z</time></trkpt><trkpt lat="43.8546567" lon="12.2791933"><ele>323.0</ele><time>2026-04-25T10:44:48.387Z</time></trkpt><trkpt lat="43.854655" lon="12.2793017"><ele>323.0</ele><time>2026-04-25T10:44:49.387Z</time></trkpt><trkpt lat="43.8546367" lon="12.279455"><ele>323.0</ele><time>2026-04-25T10:44:51.386Z</time></trkpt><trkpt lat="43.8545683" lon="12.2796333"><ele>323.0</ele><time>2026-04-25T10:44:53.387Z</time></trkpt><trkpt lat="43.8544817" lon="12.2797467"><ele>323.0</ele><time>2026-04-25T10:44:54.387Z</time></trkpt><trkpt lat="43.8543783" lon="12.2798767"><ele>323.0</ele><time>2026-04-25T10:44:55.386Z</time></trkpt><trkpt lat="43.8542617" lon="12.2800067"><ele>323.79999999999995</ele><time>2026-04-25T10:44:56.387Z</time></trkpt><trkpt lat="43.8541683" lon="12.280105"><ele>324.6</ele><time>2026-04-25T10:44:57.387Z</time></trkpt><trkpt lat="43.8540933" lon="12.2801783"><ele>325.4</ele><time>2026-04-25T10:44:58.386Z</time></trkpt><trkpt lat="43.8540167" lon="12.28027"><ele>326.20000000000005</ele><time>2026-04-25T10:45:00.387Z</time></trkpt><trkpt lat="43.85399" lon="12.2803933"><ele>327.0</ele><time>2026-04-25T10:45:53.387Z</time></trkpt><trkpt lat="43.8539883" lon="12.2804917"><ele>325.5</ele><time>2026-04-25T10:45:54.386Z</time></trkpt><trkpt lat="43.8539783" lon="12.2806167"><ele>324.0</ele><time>2026-04-25T10:45:55.386Z</time></trkpt><trkpt lat="43.85395" lon="12.28077"><ele>322.5</ele><time>2026-04-25T10:45:56.387Z</time></trkpt><trkpt lat="43.8539183" lon="12.28095"><ele>321.0</ele><time>2026-04-25T10:45:57.387Z</time></trkpt><trkpt lat="43.8538967" lon="12.2811367"><ele>321.0</ele><time>2026-04-25T10:45:58.386Z</time></trkpt><trkpt lat="43.8538683" lon="12.28132"><ele>321.0</ele><time>2026-04-25T10:45:59.387Z</time></trkpt><trkpt lat="43.8538517" lon="12.28149"><ele>321.0</ele><time>2026-04-25T10:46:00.386Z</time></trkpt><trkpt lat="43.8538433" lon="12.2816583"><ele>321.0</ele><time>2026-04-25T10:46:01.386Z</time></trkpt><trkpt lat="43.8538733" lon="12.2818233"><ele>321.25</ele><time>2026-04-25T10:46:02.387Z</time></trkpt><trkpt lat="43.8539467" lon="12.2819767"><ele>321.5</ele><time>2026-04-25T10:46:03.387Z</time></trkpt><trkpt lat="43.8540367" lon="12.2821233"><ele>321.75</ele><time>2026-04-25T10:46:04.387Z</time></trkpt><trkpt lat="43.8541317" lon="12.2822483"><ele>322.0</ele><time>2026-04-25T10:46:05.386Z</time></trkpt><trkpt lat="43.8542483" lon="12.28234"><ele>321.5</ele><time>2026-04-25T10:46:06.386Z</time></trkpt><trkpt lat="43.8543733" lon="12.2823833"><ele>321.0</ele><time>2026-04-25T10:46:07.387Z</time></trkpt><trkpt lat="43.854505" lon="12.282355"><ele>320.5</ele><time>2026-04-25T10:46:08.387Z</time></trkpt><trkpt lat="43.8546417" lon="12.282285"><ele>320.0</ele><time>2026-04-25T10:46:09.387Z</time></trkpt><trkpt lat="43.8547917" lon="12.2822017"><ele>320.0</ele><time>2026-04-25T10:46:10.387Z</time></trkpt><trkpt lat="43.8549433" lon="12.28213"><ele>320.0</ele><time>2026-04-25T10:46:11.387Z</time></trkpt><trkpt lat="43.8551" lon="12.2820817"><ele>320.0</ele><time>2026-04-25T10:46:12.387Z</time></trkpt><trkpt lat="43.8552617" lon="12.282065"><ele>322.75</ele><time>2026-04-25T10:46:13.387Z</time></trkpt><trkpt lat="43.8554117" lon="12.2820383"><ele>325.5</ele><time>2026-04-25T10:46:14.387Z</time></trkpt><trkpt lat="43.8555483" lon="12.2820067"><ele>328.25</ele><time>2026-04-25T10:46:15.386Z</time></trkpt><trkpt lat="43.85568" lon="12.2819467"><ele>331.0</ele><time>2026-04-25T10:46:16.387Z</time></trkpt><trkpt lat="43.8558" lon="12.28187"><ele>331.0</ele><time>2026-04-25T10:46:17.387Z</time></trkpt><trkpt lat="43.8559033" lon="12.2817633"><ele>331.0</ele><time>2026-04-25T10:46:18.386Z</time></trkpt><trkpt lat="43.8559817" lon="12.2816233"><ele>331.0</ele><time>2026-04-25T10:46:19.387Z</time></trkpt><trkpt lat="43.8560367" lon="12.28145"><ele>331.0</ele><time>2026-04-25T10:46:20.387Z</time></trkpt><trkpt lat="43.8560767" lon="12.2812517"><ele>331.0</ele><time>2026-04-25T10:46:21.386Z</time></trkpt><trkpt lat="43.8561167" lon="12.2810733"><ele>331.0</ele><time>2026-04-25T10:46:22.386Z</time></trkpt><trkpt lat="43.8561767" lon="12.2809233"><ele>331.0</ele><time>2026-04-25T10:46:23.386Z</time></trkpt><trkpt lat="43.8562617" lon="12.2807983"><ele>331.0</ele><time>2026-04-25T10:46:24.386Z</time></trkpt><trkpt lat="43.85637" lon="12.2807017"><ele>331.0</ele><time>2026-04-25T10:46:25.387Z</time></trkpt><trkpt lat="43.8565033" lon="12.2806383"><ele>331.0</ele><time>2026-04-25T10:46:26.386Z</time></trkpt><trkpt lat="43.8566483" lon="12.2805833"><ele>331.0</ele><time>2026-04-25T10:46:27.386Z</time></trkpt><trkpt lat="43.8568033" lon="12.2805267"><ele>326.66666666666663</ele><time>2026-04-25T10:46:28.387Z</time></trkpt><trkpt lat="43.8569517" lon="12.2804617"><ele>322.3333333333333</ele><time>2026-04-25T10:46:29.387Z</time></trkpt><trkpt lat="43.857115" lon="12.2803867"><ele>318.0</ele><time>2026-04-25T10:46:30.386Z</time></trkpt><trkpt lat="43.85727" lon="12.2803167"><ele>318.0</ele><time>2026-04-25T10:46:31.386Z</time></trkpt><trkpt lat="43.85742" lon="12.2802433"><ele>318.0</ele><time>2026-04-25T10:46:32.387Z</time></trkpt><trkpt lat="43.85757" lon="12.2801733"><ele>318.0</ele><time>2026-04-25T10:46:33.387Z</time></trkpt><trkpt lat="43.8577167" lon="12.28009"><ele>319.0</ele><time>2026-04-25T10:46:34.387Z</time></trkpt><trkpt lat="43.8578733" lon="12.2800117"><ele>320.0</ele><time>2026-04-25T10:46:35.387Z</time></trkpt><trkpt lat="43.858035" lon="12.279945"><ele>321.0</ele><time>2026-04-25T10:46:36.387Z</time></trkpt><trkpt lat="43.8581883" lon="12.279915"><ele>321.0</ele><time>2026-04-25T10:46:37.387Z</time></trkpt><trkpt lat="43.858345" lon="12.2799317"><ele>321.0</ele><time>2026-04-25T10:46:38.387Z</time></trkpt><trkpt lat="43.858505" lon="12.27999"><ele>321.0</ele><time>2026-04-25T10:46:39.387Z</time></trkpt><trkpt lat="43.85865" lon="12.2800833"><ele>318.3333333333333</ele><time>2026-04-25T10:46:40.386Z</time></trkpt><trkpt lat="43.8587783" lon="12.2802233"><ele>315.66666666666663</ele><time>2026-04-25T10:46:41.386Z</time></trkpt><trkpt lat="43.8589" lon="12.280395"><ele>313.0</ele><time>2026-04-25T10:46:42.387Z</time></trkpt><trkpt lat="43.8590067" lon="12.280595"><ele>316.0</ele><time>2026-04-25T10:46:43.386Z</time></trkpt><trkpt lat="43.8591" lon="12.2808117"><ele>319.0</ele><time>2026-04-25T10:46:44.386Z</time></trkpt><trkpt lat="43.859195" lon="12.2810233"><ele>322.0</ele><time>2026-04-25T10:46:45.387Z</time></trkpt><trkpt lat="43.8592917" lon="12.2812367"><ele>319.0</ele><time>2026-04-25T10:46:46.387Z</time></trkpt><trkpt lat="43.8594" lon="12.28145"><ele>316.0</ele><time>2026-04-25T10:46:47.386Z</time></trkpt><trkpt lat="43.859525" lon="12.2816517"><ele>313.0</ele><time>2026-04-25T10:46:48.387Z</time></trkpt><trkpt lat="43.8596517" lon="12.2818467"><ele>313.0</ele><time>2026-04-25T10:46:49.387Z</time></trkpt><trkpt lat="43.8598" lon="12.282025"><ele>313.0</ele><time>2026-04-25T10:46:50.387Z</time></trkpt><trkpt lat="43.859955" lon="12.2821867"><ele>313.0</ele><time>2026-04-25T10:46:51.387Z</time></trkpt><trkpt lat="43.8601167" lon="12.2823367"><ele>312.0</ele><time>2026-04-25T10:46:52.387Z</time></trkpt><trkpt lat="43.860295" lon="12.2824667"><ele>311.0</ele><time>2026-04-25T10:46:53.387Z</time></trkpt><trkpt lat="43.8604733" lon="12.2826"><ele>310.0</ele><time>2026-04-25T10:46:54.387Z</time></trkpt><trkpt lat="43.860645" lon="12.2827417"><ele>310.0</ele><time>2026-04-25T10:46:55.386Z</time></trkpt><trkpt lat="43.8608167" lon="12.2828917"><ele>310.0</ele><time>2026-04-25T10:46:56.386Z</time></trkpt><trkpt lat="43.86098" lon="12.2830417"><ele>310.0</ele><time>2026-04-25T10:46:57.386Z</time></trkpt><trkpt lat="43.8611267" lon="12.2832"><ele>311.0</ele><time>2026-04-25T10:46:58.387Z</time></trkpt><trkpt lat="43.861265" lon="12.2833567"><ele>312.0</ele><time>2026-04-25T10:46:59.387Z</time></trkpt><trkpt lat="43.8614067" lon="12.2834883"><ele>313.0</ele><time>2026-04-25T10:47:00.387Z</time></trkpt><trkpt lat="43.8615533" lon="12.2836083"><ele>313.0</ele><time>2026-04-25T10:47:01.387Z</time></trkpt><trkpt lat="43.8617117" lon="12.2836817"><ele>313.0</ele><time>2026-04-25T10:47:02.387Z</time></trkpt><trkpt lat="43.861865" lon="12.283685"><ele>313.0</ele><time>2026-04-25T10:47:03.387Z</time></trkpt><trkpt lat="43.862025" lon="12.2836367"><ele>314.0</ele><time>2026-04-25T10:47:04.387Z</time></trkpt><trkpt lat="43.8621733" lon="12.283555"><ele>315.0</ele><time>2026-04-25T10:47:05.386Z</time></trkpt><trkpt lat="43.862315" lon="12.2834433"><ele>316.0</ele><time>2026-04-25T10:47:06.386Z</time></trkpt><trkpt lat="43.8624383" lon="12.28333"><ele>316.0</ele><time>2026-04-25T10:47:07.386Z</time></trkpt><trkpt lat="43.862565" lon="12.2832383"><ele>316.0</ele><time>2026-04-25T10:47:08.386Z</time></trkpt><trkpt lat="43.8627067" lon="12.2831833"><ele>316.0</ele><time>2026-04-25T10:47:09.387Z</time></trkpt><trkpt lat="43.8628567" lon="12.2831583"><ele>316.0</ele><time>2026-04-25T10:47:10.387Z</time></trkpt><trkpt lat="43.8630017" lon="12.2831517"><ele>315.75</ele><time>2026-04-25T10:47:11.387Z</time></trkpt><trkpt lat="43.86314" lon="12.2831833"><ele>315.5</ele><time>2026-04-25T10:47:12.387Z</time></trkpt><trkpt lat="43.8632683" lon="12.2832583"><ele>315.25</ele><time>2026-04-25T10:47:13.386Z</time></trkpt><trkpt lat="43.8633917" lon="12.2833733"><ele>315.0</ele><time>2026-04-25T10:47:14.387Z</time></trkpt><trkpt lat="43.8634933" lon="12.2835183"><ele>313.5</ele><time>2026-04-25T10:47:15.387Z</time></trkpt><trkpt lat="43.8635933" lon="12.283645"><ele>312.0</ele><time>2026-04-25T10:47:16.386Z</time></trkpt><trkpt lat="43.8636983" lon="12.2837433"><ele>310.5</ele><time>2026-04-25T10:47:17.387Z</time></trkpt><trkpt lat="43.8638083" lon="12.2838033"><ele>309.0</ele><time>2026-04-25T10:47:18.386Z</time></trkpt><trkpt lat="43.8639333" lon="12.2838017"><ele>309.0</ele><time>2026-04-25T10:47:19.386Z</time></trkpt><trkpt lat="43.86405" lon="12.2837467"><ele>309.0</ele><time>2026-04-25T10:47:20.387Z</time></trkpt><trkpt lat="43.8641517" lon="12.283635"><ele>309.0</ele><time>2026-04-25T10:47:21.386Z</time></trkpt><trkpt lat="43.8642433" lon="12.28353"><ele>309.0</ele><time>2026-04-25T10:47:22.386Z</time></trkpt><trkpt lat="43.8643533" lon="12.2834567"><ele>306.5</ele><time>2026-04-25T10:47:23.387Z</time></trkpt><trkpt lat="43.8644783" lon="12.2834133"><ele>304.0</ele><time>2026-04-25T10:47:24.387Z</time></trkpt><trkpt lat="43.864615" lon="12.28341"><ele>301.5</ele><time>2026-04-25T10:47:25.387Z</time></trkpt><trkpt lat="43.8647517" lon="12.2834817"><ele>299.0</ele><time>2026-04-25T10:47:26.387Z</time></trkpt><trkpt lat="43.8648717" lon="12.283585"><ele>299.0</ele><time>2026-04-25T10:47:27.387Z</time></trkpt><trkpt lat="43.8649833" lon="12.283685"><ele>299.0</ele><time>2026-04-25T10:47:28.387Z</time></trkpt><trkpt lat="43.8651033" lon="12.28375"><ele>299.0</ele><time>2026-04-25T10:47:29.387Z</time></trkpt><trkpt lat="43.865225" lon="12.2837833"><ele>299.0</ele><time>2026-04-25T10:47:30.386Z</time></trkpt><trkpt lat="43.8653583" lon="12.2837633"><ele>296.0</ele><time>2026-04-25T10:47:31.386Z</time></trkpt><trkpt lat="43.8654983" lon="12.2836883"><ele>293.0</ele><time>2026-04-25T10:47:32.386Z</time></trkpt><trkpt lat="43.8656517" lon="12.283615"><ele>290.0</ele><time>2026-04-25T10:47:33.386Z</time></trkpt><trkpt lat="43.8658017" lon="12.2835583"><ele>290.0</ele><time>2026-04-25T10:47:34.387Z</time></trkpt><trkpt lat="43.8659433" lon="12.2835583"><ele>290.0</ele><time>2026-04-25T10:47:35.387Z</time></trkpt><trkpt lat="43.86608" lon="12.2835933"><ele>290.0</ele><time>2026-04-25T10:47:36.386Z</time></trkpt><trkpt lat="43.8662083" lon="12.28369"><ele>290.0</ele><time>2026-04-25T10:47:37.387Z</time></trkpt><trkpt lat="43.8663267" lon="12.283825"><ele>289.0</ele><time>2026-04-25T10:47:38.387Z</time></trkpt><trkpt lat="43.866435" lon="12.28398"><ele>288.0</ele><time>2026-04-25T10:47:39.387Z</time></trkpt><trkpt lat="43.866535" lon="12.2841567"><ele>287.0</ele><time>2026-04-25T10:47:40.386Z</time></trkpt><trkpt lat="43.866645" lon="12.2843433"><ele>287.0</ele><time>2026-04-25T10:47:41.387Z</time></trkpt><trkpt lat="43.8667567" lon="12.2845183"><ele>287.0</ele><time>2026-04-25T10:47:42.387Z</time></trkpt><trkpt lat="43.8668633" lon="12.2846917"><ele>287.0</ele><time>2026-04-25T10:47:43.387Z</time></trkpt><trkpt lat="43.8669733" lon="12.28486"><ele>286.5</ele><time>2026-04-25T10:47:44.386Z</time></trkpt><trkpt lat="43.867085" lon="12.2850167"><ele>286.0</ele><time>2026-04-25T10:47:45.387Z</time></trkpt><trkpt lat="43.8672017" lon="12.28514"><ele>285.5</ele><time>2026-04-25T10:47:46.386Z</time></trkpt><trkpt lat="43.867325" lon="12.2852167"><ele>285.0</ele><time>2026-04-25T10:47:47.387Z</time></trkpt><trkpt lat="43.8674417" lon="12.2852283"><ele>285.0</ele><time>2026-04-25T10:47:48.387Z</time></trkpt><trkpt lat="43.8675767" lon="12.28518"><ele>285.0</ele><time>2026-04-25T10:47:49.387Z</time></trkpt><trkpt lat="43.8676967" lon="12.285085"><ele>285.0</ele><time>2026-04-25T10:47:50.387Z</time></trkpt><trkpt lat="43.8678433" lon="12.2849767"><ele>285.0</ele><time>2026-04-25T10:47:51.387Z</time></trkpt><trkpt lat="43.867985" lon="12.284865"><ele>283.0</ele><time>2026-04-25T10:47:52.387Z</time></trkpt><trkpt lat="43.8681317" lon="12.284765"><ele>281.0</ele><time>2026-04-25T10:47:53.387Z</time></trkpt><trkpt lat="43.8682767" lon="12.2846617"><ele>279.0</ele><time>2026-04-25T10:47:54.386Z</time></trkpt><trkpt lat="43.8684267" lon="12.284555"><ele>281.3333333333333</ele><time>2026-04-25T10:47:55.386Z</time></trkpt><trkpt lat="43.8685783" lon="12.2844467"><ele>283.66666666666663</ele><time>2026-04-25T10:47:56.386Z</time></trkpt><trkpt lat="43.86873" lon="12.2843383"><ele>286.0</ele><time>2026-04-25T10:47:57.387Z</time></trkpt><trkpt lat="43.8688883" lon="12.2842417"><ele>286.0</ele><time>2026-04-25T10:47:58.385Z</time></trkpt><trkpt lat="43.8690517" lon="12.2841633"><ele>286.0</ele><time>2026-04-25T10:47:59.387Z</time></trkpt><trkpt lat="43.8692167" lon="12.2841167"><ele>286.0</ele><time>2026-04-25T10:48:00.387Z</time></trkpt><trkpt lat="43.8693917" lon="12.2840983"><ele>286.3333333333333</ele><time>2026-04-25T10:48:01.387Z</time></trkpt><trkpt lat="43.8695633" lon="12.2840883"><ele>286.6666666666667</ele><time>2026-04-25T10:48:02.386Z</time></trkpt><trkpt lat="43.8697333" lon="12.2840867"><ele>287.0</ele><time>2026-04-25T10:48:03.386Z</time></trkpt><trkpt lat="43.86991" lon="12.2840867"><ele>287.0</ele><time>2026-04-25T10:48:04.386Z</time></trkpt><trkpt lat="43.870085" lon="12.2840867"><ele>287.0</ele><time>2026-04-25T10:48:05.386Z</time></trkpt><trkpt lat="43.8702633" lon="12.284085"><ele>287.0</ele><time>2026-04-25T10:48:06.387Z</time></trkpt><trkpt lat="43.8704367" lon="12.2840833"><ele>286.0</ele><time>2026-04-25T10:48:07.386Z</time></trkpt><trkpt lat="43.87062" lon="12.284045"><ele>285.0</ele><time>2026-04-25T10:48:08.387Z</time></trkpt><trkpt lat="43.87079" lon="12.2840017"><ele>284.0</ele><time>2026-04-25T10:48:09.387Z</time></trkpt><trkpt lat="43.8709667" lon="12.283945"><ele>287.33333333333337</ele><time>2026-04-25T10:48:10.386Z</time></trkpt><trkpt lat="43.8711467" lon="12.2838933"><ele>290.6666666666667</ele><time>2026-04-25T10:48:11.386Z</time></trkpt><trkpt lat="43.8713317" lon="12.28385"><ele>294.0</ele><time>2026-04-25T10:48:12.386Z</time></trkpt><trkpt lat="43.871515" lon="12.283805"><ele>294.0</ele><time>2026-04-25T10:48:13.387Z</time></trkpt><trkpt lat="43.871695" lon="12.28374"><ele>294.0</ele><time>2026-04-25T10:48:14.386Z</time></trkpt><trkpt lat="43.8718667" lon="12.283675"><ele>294.0</ele><time>2026-04-25T10:48:15.387Z</time></trkpt><trkpt lat="43.8720467" lon="12.2836133"><ele>292.6666666666667</ele><time>2026-04-25T10:48:16.387Z</time></trkpt><trkpt lat="43.8722233" lon="12.2835467"><ele>291.33333333333337</ele><time>2026-04-25T10:48:17.386Z</time></trkpt><trkpt lat="43.872405" lon="12.28347"><ele>290.0</ele><time>2026-04-25T10:48:18.387Z</time></trkpt><trkpt lat="43.872585" lon="12.2834033"><ele>290.0</ele><time>2026-04-25T10:48:19.387Z</time></trkpt><trkpt lat="43.8727617" lon="12.283315"><ele>290.0</ele><time>2026-04-25T10:48:20.387Z</time></trkpt><trkpt lat="43.8729367" lon="12.2832317"><ele>290.0</ele><time>2026-04-25T10:48:21.387Z</time></trkpt><trkpt lat="43.87311" lon="12.2831233"><ele>293.6666666666667</ele><time>2026-04-25T10:48:22.386Z</time></trkpt><trkpt lat="43.87328" lon="12.2830067"><ele>297.3333333333333</ele><time>2026-04-25T10:48:23.387Z</time></trkpt><trkpt lat="43.8734417" lon="12.2828883"><ele>301.0</ele><time>2026-04-25T10:48:24.387Z</time></trkpt><trkpt lat="43.8736067" lon="12.2827783"><ele>301.0</ele><time>2026-04-25T10:48:25.386Z</time></trkpt><trkpt lat="43.8737683" lon="12.28269"><ele>301.0</ele><time>2026-04-25T10:48:26.386Z</time></trkpt><trkpt lat="43.8739367" lon="12.2826317"><ele>301.0</ele><time>2026-04-25T10:48:27.387Z</time></trkpt><trkpt lat="43.874105" lon="12.2825967"><ele>303.0</ele><time>2026-04-25T10:48:28.387Z</time></trkpt><trkpt lat="43.874275" lon="12.2825767"><ele>305.0</ele><time>2026-04-25T10:48:29.386Z</time></trkpt><trkpt lat="43.8744483" lon="12.2825617"><ele>307.0</ele><time>2026-04-25T10:48:30.386Z</time></trkpt><trkpt lat="43.8746217" lon="12.2825567"><ele>307.0</ele><time>2026-04-25T10:48:31.387Z</time></trkpt><trkpt lat="43.8747967" lon="12.2825383"><ele>307.0</ele><time>2026-04-25T10:48:32.386Z</time></trkpt><trkpt lat="43.8749583" lon="12.2825583"><ele>307.0</ele><time>2026-04-25T10:48:33.386Z</time></trkpt><trkpt lat="43.8751133" lon="12.2826183"><ele>306.66666666666663</ele><time>2026-04-25T10:48:34.387Z</time></trkpt><trkpt lat="43.8752567" lon="12.282735"><ele>306.3333333333333</ele><time>2026-04-25T10:48:35.387Z</time></trkpt><trkpt lat="43.875385" lon="12.282875"><ele>306.0</ele><time>2026-04-25T10:48:36.387Z</time></trkpt><trkpt lat="43.8754967" lon="12.283"><ele>306.0</ele><time>2026-04-25T10:48:37.387Z</time></trkpt><trkpt lat="43.8756" lon="12.28309"><ele>306.0</ele><time>2026-04-25T10:48:38.387Z</time></trkpt><trkpt lat="43.8756933" lon="12.28313"><ele>306.0</ele><time>2026-04-25T10:48:39.386Z</time></trkpt><trkpt lat="43.875795" lon="12.28311"><ele>306.0</ele><time>2026-04-25T10:48:40.386Z</time></trkpt><trkpt lat="43.8758867" lon="12.2830283"><ele>306.0</ele><time>2026-04-25T10:48:41.386Z</time></trkpt><trkpt lat="43.8759717" lon="12.2828967"><ele>305.25</ele><time>2026-04-25T10:48:42.387Z</time></trkpt><trkpt lat="43.8760367" lon="12.2827233"><ele>304.5</ele><time>2026-04-25T10:48:43.387Z</time></trkpt><trkpt lat="43.8760917" lon="12.2825333"><ele>303.75</ele><time>2026-04-25T10:48:44.386Z</time></trkpt><trkpt lat="43.8761667" lon="12.28235"><ele>303.0</ele><time>2026-04-25T10:48:45.387Z</time></trkpt><trkpt lat="43.87626" lon="12.2821733"><ele>303.0</ele><time>2026-04-25T10:48:46.387Z</time></trkpt><trkpt lat="43.8763733" lon="12.2820167"><ele>303.0</ele><time>2026-04-25T10:48:47.387Z</time></trkpt><trkpt lat="43.8764967" lon="12.28187"><ele>303.0</ele><time>2026-04-25T10:48:48.387Z</time></trkpt><trkpt lat="43.87662" lon="12.2817333"><ele>303.0</ele><time>2026-04-25T10:48:49.387Z</time></trkpt><trkpt lat="43.876735" lon="12.28161"><ele>303.0</ele><time>2026-04-25T10:48:50.387Z</time></trkpt><trkpt lat="43.876835" lon="12.28149"><ele>303.0</ele><time>2026-04-25T10:48:51.386Z</time></trkpt><trkpt lat="43.8769117" lon="12.2813533"><ele>303.0</ele><time>2026-04-25T10:48:52.386Z</time></trkpt><trkpt lat="43.8769617" lon="12.281185"><ele>303.75</ele><time>2026-04-25T10:48:53.386Z</time></trkpt><trkpt lat="43.876975" lon="12.2809983"><ele>304.5</ele><time>2026-04-25T10:48:54.387Z</time></trkpt><trkpt lat="43.876995" lon="12.2808183"><ele>305.25</ele><time>2026-04-25T10:48:55.387Z</time></trkpt><trkpt lat="43.8770367" lon="12.28066"><ele>306.0</ele><time>2026-04-25T10:48:56.387Z</time></trkpt><trkpt lat="43.8771233" lon="12.28053"><ele>309.0</ele><time>2026-04-25T10:48:57.386Z</time></trkpt><trkpt lat="43.8772483" lon="12.2804433"><ele>312.0</ele><time>2026-04-25T10:48:58.387Z</time></trkpt><trkpt lat="43.8773883" lon="12.2804117"><ele>315.0</ele><time>2026-04-25T10:48:59.386Z</time></trkpt><trkpt lat="43.8775433" lon="12.2804233"><ele>318.0</ele><time>2026-04-25T10:49:00.387Z</time></trkpt><trkpt lat="43.877705" lon="12.2804717"><ele>317.3333333333333</ele><time>2026-04-25T10:49:01.386Z</time></trkpt><trkpt lat="43.8778667" lon="12.2805467"><ele>316.66666666666663</ele><time>2026-04-25T10:49:02.387Z</time></trkpt><trkpt lat="43.8780233" lon="12.28065"><ele>316.0</ele><time>2026-04-25T10:49:03.387Z</time></trkpt><trkpt lat="43.8781817" lon="12.2807533"><ele>316.0</ele><time>2026-04-25T10:49:04.387Z</time></trkpt><trkpt lat="43.8783317" lon="12.28088"><ele>316.0</ele><time>2026-04-25T10:49:05.387Z</time></trkpt><trkpt lat="43.878495" lon="12.2809983"><ele>316.0</ele><time>2026-04-25T10:49:06.387Z</time></trkpt><trkpt lat="43.8786567" lon="12.2810983"><ele>321.66666666666663</ele><time>2026-04-25T10:49:07.387Z</time></trkpt><trkpt lat="43.8788217" lon="12.2811917"><ele>327.3333333333333</ele><time>2026-04-25T10:49:08.386Z</time></trkpt><trkpt lat="43.87899" lon="12.2812733"><ele>333.0</ele><time>2026-04-25T10:49:09.387Z</time></trkpt><trkpt lat="43.879165" lon="12.2813433"><ele>336.3333333333333</ele><time>2026-04-25T10:49:10.387Z</time></trkpt><trkpt lat="43.8793433" lon="12.2814183"><ele>339.66666666666663</ele><time>2026-04-25T10:49:11.387Z</time></trkpt><trkpt lat="43.879515" lon="12.2815067"><ele>343.0</ele><time>2026-04-25T10:49:12.387Z</time></trkpt><trkpt lat="43.8797" lon="12.2815817"><ele>341.66666666666663</ele><time>2026-04-25T10:49:13.387Z</time></trkpt><trkpt lat="43.8798833" lon="12.28165"><ele>340.3333333333333</ele><time>2026-04-25T10:49:14.387Z</time></trkpt><trkpt lat="43.880055" lon="12.28171"><ele>339.0</ele><time>2026-04-25T10:49:15.386Z</time></trkpt><trkpt lat="43.8802183" lon="12.2817783"><ele>339.0</ele><time>2026-04-25T10:49:16.387Z</time></trkpt><trkpt lat="43.8803767" lon="12.2818667"><ele>339.0</ele><time>2026-04-25T10:49:17.387Z</time></trkpt><trkpt lat="43.88052" lon="12.28198"><ele>339.0</ele><time>2026-04-25T10:49:18.386Z</time></trkpt><trkpt lat="43.8806467" lon="12.28214"><ele>338.3333333333333</ele><time>2026-04-25T10:49:19.387Z</time></trkpt><trkpt lat="43.8807633" lon="12.2823217"><ele>337.66666666666663</ele><time>2026-04-25T10:49:20.386Z</time></trkpt><trkpt lat="43.8808683" lon="12.2825017"><ele>337.0</ele><time>2026-04-25T10:49:21.386Z</time></trkpt><trkpt lat="43.8809733" lon="12.2826767"><ele>337.0</ele><time>2026-04-25T10:49:22.386Z</time></trkpt><trkpt lat="43.88108" lon="12.2828433"><ele>337.0</ele><time>2026-04-25T10:49:23.386Z</time></trkpt><trkpt lat="43.8811817" lon="12.283005"><ele>337.0</ele><time>2026-04-25T10:49:24.386Z</time></trkpt><trkpt lat="43.8812867" lon="12.2831533"><ele>334.5</ele><time>2026-04-25T10:49:25.387Z</time></trkpt><trkpt lat="43.88138" lon="12.283305"><ele>332.0</ele><time>2026-04-25T10:49:26.386Z</time></trkpt><trkpt lat="43.8814667" lon="12.2834467"><ele>329.5</ele><time>2026-04-25T10:49:27.387Z</time></trkpt><trkpt lat="43.8815567" lon="12.2835667"><ele>327.0</ele><time>2026-04-25T10:49:28.387Z</time></trkpt><trkpt lat="43.8816533" lon="12.28367"><ele>327.0</ele><time>2026-04-25T10:49:29.386Z</time></trkpt><trkpt lat="43.8817467" lon="12.2837517"><ele>327.0</ele><time>2026-04-25T10:49:30.387Z</time></trkpt><trkpt lat="43.8818467" lon="12.283805"><ele>327.0</ele><time>2026-04-25T10:49:31.387Z</time></trkpt><trkpt lat="43.8819467" lon="12.283845"><ele>327.0</ele><time>2026-04-25T10:49:32.386Z</time></trkpt><trkpt lat="43.88206" lon="12.2838683"><ele>327.0</ele><time>2026-04-25T10:49:33.387Z</time></trkpt><trkpt lat="43.8821733" lon="12.2838867"><ele>327.75</ele><time>2026-04-25T10:49:34.386Z</time></trkpt><trkpt lat="43.8822967" lon="12.28389"><ele>328.5</ele><time>2026-04-25T10:49:35.387Z</time></trkpt><trkpt lat="43.88242" lon="12.28389"><ele>329.25</ele><time>2026-04-25T10:49:36.387Z</time></trkpt><trkpt lat="43.88254" lon="12.283865"><ele>330.0</ele><time>2026-04-25T10:49:37.387Z</time></trkpt><trkpt lat="43.8826783" lon="12.2838033"><ele>326.3333333333333</ele><time>2026-04-25T10:49:38.386Z</time></trkpt><trkpt lat="43.88283" lon="12.2837167"><ele>322.66666666666663</ele><time>2026-04-25T10:49:39.386Z</time></trkpt><trkpt lat="43.882985" lon="12.2836"><ele>319.0</ele><time>2026-04-25T10:49:40.387Z</time></trkpt><trkpt lat="43.8831383" lon="12.2834817"><ele>319.0</ele><time>2026-04-25T10:49:41.386Z</time></trkpt><trkpt lat="43.8832867" lon="12.2833717"><ele>319.0</ele><time>2026-04-25T10:49:42.387Z</time></trkpt><trkpt lat="43.8834233" lon="12.2832633"><ele>319.0</ele><time>2026-04-25T10:49:43.387Z</time></trkpt><trkpt lat="43.883545" lon="12.28318"><ele>320.75</ele><time>2026-04-25T10:49:44.386Z</time></trkpt><trkpt lat="43.8836617" lon="12.283105"><ele>322.5</ele><time>2026-04-25T10:49:45.387Z</time></trkpt><trkpt lat="43.88378" lon="12.283065"><ele>324.25</ele><time>2026-04-25T10:49:46.387Z</time></trkpt><trkpt lat="43.883895" lon="12.28307"><ele>326.0</ele><time>2026-04-25T10:49:47.387Z</time></trkpt><trkpt lat="43.8840083" lon="12.2831"><ele>322.5</ele><time>2026-04-25T10:49:48.387Z</time></trkpt><trkpt lat="43.8841217" lon="12.2831533"><ele>319.0</ele><time>2026-04-25T10:49:49.386Z</time></trkpt><trkpt lat="43.8842283" lon="12.2832017"><ele>315.5</ele><time>2026-04-25T10:49:50.387Z</time></trkpt><trkpt lat="43.8843317" lon="12.28324"><ele>312.0</ele><time>2026-04-25T10:49:51.386Z</time></trkpt><trkpt lat="43.8844367" lon="12.2832917"><ele>312.0</ele><time>2026-04-25T10:49:52.387Z</time></trkpt><trkpt lat="43.8845433" lon="12.2833483"><ele>312.0</ele><time>2026-04-25T10:49:53.387Z</time></trkpt><trkpt lat="43.8846517" lon="12.2834233"><ele>312.0</ele><time>2026-04-25T10:49:54.387Z</time></trkpt><trkpt lat="43.884755" lon="12.2835133"><ele>312.0</ele><time>2026-04-25T10:49:55.387Z</time></trkpt><trkpt lat="43.8848533" lon="12.2836217"><ele>312.0</ele><time>2026-04-25T10:49:56.387Z</time></trkpt><trkpt lat="43.8849333" lon="12.2837517"><ele>312.0</ele><time>2026-04-25T10:49:57.387Z</time></trkpt><trkpt lat="43.8849983" lon="12.2838867"><ele>312.0</ele><time>2026-04-25T10:49:58.387Z</time></trkpt><trkpt lat="43.8850483" lon="12.2840267"><ele>312.0</ele><time>2026-04-25T10:49:59.386Z</time></trkpt><trkpt lat="43.8850883" lon="12.2841567"><ele>310.1666666666667</ele><time>2026-04-25T10:50:00.387Z</time></trkpt><trkpt lat="43.8851233" lon="12.2842817"><ele>308.3333333333333</ele><time>2026-04-25T10:50:01.386Z</time></trkpt><trkpt lat="43.88517" lon="12.2843833"><ele>306.5</ele><time>2026-04-25T10:50:02.386Z</time></trkpt><trkpt lat="43.885235" lon="12.28446"><ele>304.66666666666663</ele><time>2026-04-25T10:50:03.386Z</time></trkpt><trkpt lat="43.88531" lon="12.2845183"><ele>302.8333333333333</ele><time>2026-04-25T10:50:04.387Z</time></trkpt><trkpt lat="43.8853983" lon="12.284555"><ele>301.0</ele><time>2026-04-25T10:50:05.386Z</time></trkpt><trkpt lat="43.8855" lon="12.2845733"><ele>301.0</ele><time>2026-04-25T10:50:06.386Z</time></trkpt><trkpt lat="43.8856167" lon="12.2845867"><ele>301.0</ele><time>2026-04-25T10:50:07.387Z</time></trkpt><trkpt lat="43.885725" lon="12.2846067"><ele>301.0</ele><time>2026-04-25T10:50:08.387Z</time></trkpt><trkpt lat="43.88583" lon="12.2846367"><ele>301.0</ele><time>2026-04-25T10:50:09.387Z</time></trkpt><trkpt lat="43.88594" lon="12.2846933"><ele>299.0</ele><time>2026-04-25T10:50:10.387Z</time></trkpt><trkpt lat="43.8860483" lon="12.2847717"><ele>297.0</ele><time>2026-04-25T10:50:11.387Z</time></trkpt><trkpt lat="43.8861417" lon="12.2848717"><ele>295.0</ele><time>2026-04-25T10:50:12.387Z</time></trkpt><trkpt lat="43.8862317" lon="12.2849867"><ele>293.0</ele><time>2026-04-25T10:50:13.386Z</time></trkpt><trkpt lat="43.88632" lon="12.2851117"><ele>293.0</ele><time>2026-04-25T10:50:14.386Z</time></trkpt><trkpt lat="43.886415" lon="12.2852267"><ele>293.0</ele><time>2026-04-25T10:50:15.387Z</time></trkpt><trkpt lat="43.886515" lon="12.28532"><ele>293.0</ele><time>2026-04-25T10:50:16.387Z</time></trkpt><trkpt lat="43.886615" lon="12.2854067"><ele>293.0</ele><time>2026-04-25T10:50:17.387Z</time></trkpt><trkpt lat="43.886725" lon="12.285465"><ele>292.75</ele><time>2026-04-25T10:50:18.387Z</time></trkpt><trkpt lat="43.886835" lon="12.2854933"><ele>292.5</ele><time>2026-04-25T10:50:19.386Z</time></trkpt><trkpt lat="43.886955" lon="12.2854983"><ele>292.25</ele><time>2026-04-25T10:50:20.386Z</time></trkpt><trkpt lat="43.887065" lon="12.2854783"><ele>292.0</ele><time>2026-04-25T10:50:21.387Z</time></trkpt><trkpt lat="43.8871783" lon="12.2854583"><ele>292.0</ele><time>2026-04-25T10:50:22.387Z</time></trkpt><trkpt lat="43.8872883" lon="12.2854433"><ele>292.0</ele><time>2026-04-25T10:50:23.387Z</time></trkpt><trkpt lat="43.8873917" lon="12.2854467"><ele>292.0</ele><time>2026-04-25T10:50:24.386Z</time></trkpt><trkpt lat="43.8875017" lon="12.2854817"><ele>292.0</ele><time>2026-04-25T10:50:25.386Z</time></trkpt><trkpt lat="43.8876" lon="12.2855633"><ele>292.0</ele><time>2026-04-25T10:50:26.387Z</time></trkpt><trkpt lat="43.88769" lon="12.28566"><ele>291.0</ele><time>2026-04-25T10:50:27.387Z</time></trkpt><trkpt lat="43.8877667" lon="12.2857683"><ele>290.0</ele><time>2026-04-25T10:50:28.387Z</time></trkpt><trkpt lat="43.8878467" lon="12.2858667"><ele>289.0</ele><time>2026-04-25T10:50:29.386Z</time></trkpt><trkpt lat="43.8879217" lon="12.2859617"><ele>288.0</ele><time>2026-04-25T10:50:30.387Z</time></trkpt><trkpt lat="43.887995" lon="12.2860517"><ele>287.0</ele><time>2026-04-25T10:50:31.386Z</time></trkpt><trkpt lat="43.8880667" lon="12.2861417"><ele>287.0</ele><time>2026-04-25T10:50:32.387Z</time></trkpt><trkpt lat="43.8881283" lon="12.2862417"><ele>287.0</ele><time>2026-04-25T10:50:33.387Z</time></trkpt><trkpt lat="43.8881917" lon="12.2863417"><ele>287.0</ele><time>2026-04-25T10:50:34.387Z</time></trkpt><trkpt lat="43.8882467" lon="12.28644"><ele>287.0</ele><time>2026-04-25T10:50:35.386Z</time></trkpt><trkpt lat="43.8882917" lon="12.2865367"><ele>287.0</ele><time>2026-04-25T10:50:36.386Z</time></trkpt><trkpt lat="43.88832" lon="12.2866283"><ele>287.0</ele><time>2026-04-25T10:50:37.386Z</time></trkpt><trkpt lat="43.8883267" lon="12.28673"><ele>286.83333333333337</ele><time>2026-04-25T10:50:38.386Z</time></trkpt><trkpt lat="43.8883317" lon="12.28684"><ele>286.6666666666667</ele><time>2026-04-25T10:50:39.387Z</time></trkpt><trkpt lat="43.8883483" lon="12.2869567"><ele>286.5</ele><time>2026-04-25T10:50:40.387Z</time></trkpt><trkpt lat="43.8883733" lon="12.28708"><ele>286.3333333333333</ele><time>2026-04-25T10:50:41.387Z</time></trkpt><trkpt lat="43.8884017" lon="12.2872017"><ele>286.16666666666663</ele><time>2026-04-25T10:50:42.386Z</time></trkpt><trkpt lat="43.8884317" lon="12.2873283"><ele>286.0</ele><time>2026-04-25T10:50:43.387Z</time></trkpt><trkpt lat="43.888465" lon="12.28745"><ele>287.0</ele><time>2026-04-25T10:50:44.386Z</time></trkpt><trkpt lat="43.888505" lon="12.287575"><ele>288.0</ele><time>2026-04-25T10:50:45.387Z</time></trkpt><trkpt lat="43.888565" lon="12.2876917"><ele>289.0</ele><time>2026-04-25T10:50:46.386Z</time></trkpt><trkpt lat="43.888635" lon="12.287795"><ele>290.0</ele><time>2026-04-25T10:50:47.387Z</time></trkpt><trkpt lat="43.8887117" lon="12.2878867"><ele>291.0</ele><time>2026-04-25T10:50:48.387Z</time></trkpt><trkpt lat="43.888795" lon="12.28797"><ele>291.0</ele><time>2026-04-25T10:50:49.386Z</time></trkpt><trkpt lat="43.8888917" lon="12.28803"><ele>291.0</ele><time>2026-04-25T10:50:50.386Z</time></trkpt><trkpt lat="43.8889917" lon="12.2880733"><ele>291.0</ele><time>2026-04-25T10:50:51.387Z</time></trkpt><trkpt lat="43.8891" lon="12.2881167"><ele>291.0</ele><time>2026-04-25T10:50:52.386Z</time></trkpt><trkpt lat="43.8892" lon="12.2881517"><ele>291.0</ele><time>2026-04-25T10:50:53.387Z</time></trkpt><trkpt lat="43.8892983" lon="12.2881867"><ele>290.8</ele><time>2026-04-25T10:50:54.387Z</time></trkpt><trkpt lat="43.8893917" lon="12.28821"><ele>290.6</ele><time>2026-04-25T10:50:55.386Z</time></trkpt><trkpt lat="43.8894817" lon="12.2882467"><ele>290.4</ele><time>2026-04-25T10:50:56.386Z</time></trkpt><trkpt lat="43.8895733" lon="12.2882833"><ele>290.2</ele><time>2026-04-25T10:50:57.387Z</time></trkpt><trkpt lat="43.8896617" lon="12.2883117"><ele>290.0</ele><time>2026-04-25T10:50:58.387Z</time></trkpt><trkpt lat="43.88974" lon="12.28834"><ele>290.0</ele><time>2026-04-25T10:50:59.387Z</time></trkpt><trkpt lat="43.88982" lon="12.2883667"><ele>290.0</ele><time>2026-04-25T10:51:00.387Z</time></trkpt><trkpt lat="43.8899067" lon="12.2883983"><ele>290.0</ele><time>2026-04-25T10:51:01.387Z</time></trkpt><trkpt lat="43.8899983" lon="12.28843"><ele>290.0</ele><time>2026-04-25T10:51:02.387Z</time></trkpt><trkpt lat="43.8900883" lon="12.2884617"><ele>290.0</ele><time>2026-04-25T10:51:03.386Z</time></trkpt><trkpt lat="43.8901783" lon="12.2884933"><ele>290.83333333333337</ele><time>2026-04-25T10:51:04.387Z</time></trkpt><trkpt lat="43.8902667" lon="12.2885233"><ele>291.6666666666667</ele><time>2026-04-25T10:51:05.387Z</time></trkpt><trkpt lat="43.890345" lon="12.2885483"><ele>292.5</ele><time>2026-04-25T10:51:06.387Z</time></trkpt><trkpt lat="43.890425" lon="12.2885883"><ele>293.3333333333333</ele><time>2026-04-25T10:51:07.387Z</time></trkpt><trkpt lat="43.8905017" lon="12.2886167"><ele>294.16666666666663</ele><time>2026-04-25T10:51:08.386Z</time></trkpt><trkpt lat="43.8905717" lon="12.2886517"><ele>295.0</ele><time>2026-04-25T10:51:09.387Z</time></trkpt><trkpt lat="43.8906533" lon="12.28868"><ele>295.0</ele><time>2026-04-25T10:51:10.386Z</time></trkpt><trkpt lat="43.8907433" lon="12.288715"><ele>295.0</ele><time>2026-04-25T10:51:11.387Z</time></trkpt><trkpt lat="43.89084" lon="12.28875"><ele>295.0</ele><time>2026-04-25T10:51:12.387Z</time></trkpt><trkpt lat="43.8909467" lon="12.2887767"><ele>295.0</ele><time>2026-04-25T10:51:13.386Z</time></trkpt><trkpt lat="43.8910467" lon="12.2888067"><ele>295.0</ele><time>2026-04-25T10:51:14.386Z</time></trkpt><trkpt lat="43.89115" lon="12.2888333"><ele>294.66666666666663</ele><time>2026-04-25T10:51:15.386Z</time></trkpt><trkpt lat="43.8912467" lon="12.2888767"><ele>294.3333333333333</ele><time>2026-04-25T10:51:16.387Z</time></trkpt><trkpt lat="43.891335" lon="12.2889133"><ele>294.0</ele><time>2026-04-25T10:51:17.387Z</time></trkpt><trkpt lat="43.8914167" lon="12.28894"><ele>293.6666666666667</ele><time>2026-04-25T10:51:18.387Z</time></trkpt><trkpt lat="43.8914983" lon="12.28896"><ele>293.33333333333337</ele><time>2026-04-25T10:51:19.387Z</time></trkpt><trkpt lat="43.8915833" lon="12.2889717"><ele>293.0</ele><time>2026-04-25T10:51:20.386Z</time></trkpt><trkpt lat="43.891655" lon="12.2889967"><ele>293.0</ele><time>2026-04-25T10:51:21.387Z</time></trkpt><trkpt lat="43.8917217" lon="12.2890283"><ele>293.0</ele><time>2026-04-25T10:51:22.387Z</time></trkpt><trkpt lat="43.891785" lon="12.2890483"><ele>293.0</ele><time>2026-04-25T10:51:23.387Z</time></trkpt><trkpt lat="43.89189" lon="12.2890883"><ele>293.0</ele><time>2026-04-25T10:51:25.387Z</time></trkpt><trkpt lat="43.89196" lon="12.2891133"><ele>293.0</ele><time>2026-04-25T10:51:26.387Z</time></trkpt><trkpt lat="43.892045" lon="12.289155"><ele>293.0</ele><time>2026-04-25T10:51:27.387Z</time></trkpt><trkpt lat="43.8921367" lon="12.2891933"><ele>293.0</ele><time>2026-04-25T10:51:28.387Z</time></trkpt><trkpt lat="43.89222" lon="12.289225"><ele>293.0</ele><time>2026-04-25T10:51:29.387Z</time></trkpt><trkpt lat="43.8922983" lon="12.2892533"><ele>293.0</ele><time>2026-04-25T10:51:30.386Z</time></trkpt><trkpt lat="43.8923733" lon="12.2892767"><ele>293.0</ele><time>2026-04-25T10:51:31.386Z</time></trkpt><trkpt lat="43.8924367" lon="12.2892967"><ele>293.0</ele><time>2026-04-25T10:51:32.387Z</time></trkpt><trkpt lat="43.8925233" lon="12.2893267"><ele>293.0</ele><time>2026-04-25T10:51:34.387Z</time></trkpt><trkpt lat="43.8926067" lon="12.2893483"><ele>293.0</ele><time>2026-04-25T10:51:56.386Z</time></trkpt><trkpt lat="43.8927467" lon="12.2894283"><ele>293.0</ele><time>2026-04-25T10:51:58.386Z</time></trkpt><trkpt lat="43.8928517" lon="12.28947"><ele>293.0</ele><time>2026-04-25T10:51:59.386Z</time></trkpt><trkpt lat="43.8929767" lon="12.2895017"><ele>293.0</ele><time>2026-04-25T10:52:00.385Z</time></trkpt><trkpt lat="43.8931" lon="12.28953"><ele>293.0</ele><time>2026-04-25T10:52:01.386Z</time></trkpt><trkpt lat="43.8932233" lon="12.289535"><ele>293.0</ele><time>2026-04-25T10:52:02.386Z</time></trkpt><trkpt lat="43.8933667" lon="12.2895067"><ele>293.0</ele><time>2026-04-25T10:52:03.386Z</time></trkpt><trkpt lat="43.8934983" lon="12.2894717"><ele>293.0</ele><time>2026-04-25T10:52:04.386Z</time></trkpt><trkpt lat="43.8936317" lon="12.28943"><ele>292.25</ele><time>2026-04-25T10:52:05.386Z</time></trkpt><trkpt lat="43.8937817" lon="12.28937"><ele>291.5</ele><time>2026-04-25T10:52:06.386Z</time></trkpt><trkpt lat="43.893905" lon="12.2893467"><ele>290.75</ele><time>2026-04-25T10:52:07.386Z</time></trkpt><trkpt lat="43.894035" lon="12.2893217"><ele>290.0</ele><time>2026-04-25T10:52:08.386Z</time></trkpt><trkpt lat="43.894165" lon="12.2893033"><ele>289.25</ele><time>2026-04-25T10:52:09.385Z</time></trkpt><trkpt lat="43.8942933" lon="12.28927"><ele>288.5</ele><time>2026-04-25T10:52:10.386Z</time></trkpt><trkpt lat="43.8944183" lon="12.2892217"><ele>287.75</ele><time>2026-04-25T10:52:11.386Z</time></trkpt><trkpt lat="43.894545" lon="12.2891817"><ele>287.0</ele><time>2026-04-25T10:52:12.385Z</time></trkpt><trkpt lat="43.89465" lon="12.289125"><ele>287.0</ele><time>2026-04-25T10:52:13.385Z</time></trkpt><trkpt lat="43.8947483" lon="12.2890417"><ele>287.0</ele><time>2026-04-25T10:52:14.386Z</time></trkpt><trkpt lat="43.8948467" lon="12.2889283"><ele>287.0</ele><time>2026-04-25T10:52:15.386Z</time></trkpt><trkpt lat="43.8949383" lon="12.28879"><ele>287.0</ele><time>2026-04-25T10:52:16.386Z</time></trkpt><trkpt lat="43.8950083" lon="12.2886283"><ele>287.25</ele><time>2026-04-25T10:52:17.386Z</time></trkpt><trkpt lat="43.8950767" lon="12.28848"><ele>287.5</ele><time>2026-04-25T10:52:18.385Z</time></trkpt><trkpt lat="43.8951417" lon="12.2883117"><ele>287.75</ele><time>2026-04-25T10:52:19.385Z</time></trkpt><trkpt lat="43.8952083" lon="12.28815"><ele>288.0</ele><time>2026-04-25T10:52:20.386Z</time></trkpt><trkpt lat="43.8953017" lon="12.288005"><ele>286.5</ele><time>2026-04-25T10:52:21.386Z</time></trkpt><trkpt lat="43.8953967" lon="12.2878733"><ele>285.0</ele><time>2026-04-25T10:52:22.385Z</time></trkpt><trkpt lat="43.8954983" lon="12.2877567"><ele>283.5</ele><time>2026-04-25T10:52:23.386Z</time></trkpt><trkpt lat="43.895605" lon="12.2876633"><ele>282.0</ele><time>2026-04-25T10:52:24.386Z</time></trkpt><trkpt lat="43.89571" lon="12.28759"><ele>282.0</ele><time>2026-04-25T10:52:25.385Z</time></trkpt><trkpt lat="43.8958283" lon="12.2875633"><ele>282.0</ele><time>2026-04-25T10:52:26.386Z</time></trkpt><trkpt lat="43.8959517" lon="12.2875717"><ele>282.0</ele><time>2026-04-25T10:52:27.386Z</time></trkpt><trkpt lat="43.89606" lon="12.2876533"><ele>282.0</ele><time>2026-04-25T10:52:28.385Z</time></trkpt><trkpt lat="43.8961667" lon="12.2877717"><ele>281.6666666666667</ele><time>2026-04-25T10:52:29.385Z</time></trkpt><trkpt lat="43.896285" lon="12.2878817"><ele>281.33333333333337</ele><time>2026-04-25T10:52:30.386Z</time></trkpt><trkpt lat="43.8964117" lon="12.28801"><ele>281.0</ele><time>2026-04-25T10:52:31.386Z</time></trkpt><trkpt lat="43.8965383" lon="12.2881233"><ele>280.25</ele><time>2026-04-25T10:52:32.386Z</time></trkpt><trkpt lat="43.8966567" lon="12.2882433"><ele>279.5</ele><time>2026-04-25T10:52:33.386Z</time></trkpt><trkpt lat="43.8967733" lon="12.2883533"><ele>278.75</ele><time>2026-04-25T10:52:34.385Z</time></trkpt><trkpt lat="43.89689" lon="12.2884567"><ele>278.0</ele><time>2026-04-25T10:52:35.386Z</time></trkpt><trkpt lat="43.8970033" lon="12.2885633"><ele>278.0</ele><time>2026-04-25T10:52:36.386Z</time></trkpt><trkpt lat="43.8971183" lon="12.288665"><ele>278.0</ele><time>2026-04-25T10:52:37.385Z</time></trkpt><trkpt lat="43.8972267" lon="12.2887617"><ele>278.0</ele><time>2026-04-25T10:52:38.386Z</time></trkpt><trkpt lat="43.8973317" lon="12.2888533"><ele>278.0</ele><time>2026-04-25T10:52:39.386Z</time></trkpt><trkpt lat="43.89744" lon="12.2889267"><ele>275.8</ele><time>2026-04-25T10:52:40.386Z</time></trkpt><trkpt lat="43.8975267" lon="12.289"><ele>273.6</ele><time>2026-04-25T10:52:41.385Z</time></trkpt><trkpt lat="43.8975983" lon="12.2890617"><ele>271.4</ele><time>2026-04-25T10:52:42.385Z</time></trkpt><trkpt lat="43.897675" lon="12.28908"><ele>269.2</ele><time>2026-04-25T10:52:43.385Z</time></trkpt><trkpt lat="43.8977667" lon="12.2890533"><ele>267.0</ele><time>2026-04-25T10:52:44.385Z</time></trkpt><trkpt lat="43.8978667" lon="12.2889917"><ele>266.25</ele><time>2026-04-25T10:52:45.386Z</time></trkpt><trkpt lat="43.8979733" lon="12.2889433"><ele>265.5</ele><time>2026-04-25T10:52:46.385Z</time></trkpt><trkpt lat="43.898095" lon="12.28892"><ele>264.75</ele><time>2026-04-25T10:52:47.385Z</time></trkpt><trkpt lat="43.8982233" lon="12.2889167"><ele>264.0</ele><time>2026-04-25T10:52:48.386Z</time></trkpt><trkpt lat="43.898355" lon="12.2889317"><ele>263.75</ele><time>2026-04-25T10:52:49.385Z</time></trkpt><trkpt lat="43.898495" lon="12.2889483"><ele>263.5</ele><time>2026-04-25T10:52:50.386Z</time></trkpt><trkpt lat="43.8986383" lon="12.2890017"><ele>263.25</ele><time>2026-04-25T10:52:51.385Z</time></trkpt><trkpt lat="43.8987733" lon="12.289085"><ele>263.0</ele><time>2026-04-25T10:52:52.385Z</time></trkpt><trkpt lat="43.898905" lon="12.2891917"><ele>263.0</ele><time>2026-04-25T10:52:53.386Z</time></trkpt><trkpt lat="43.8990233" lon="12.289315"><ele>263.0</ele><time>2026-04-25T10:52:54.386Z</time></trkpt><trkpt lat="43.8991317" lon="12.289455"><ele>263.0</ele><time>2026-04-25T10:52:55.386Z</time></trkpt><trkpt lat="43.8992333" lon="12.2896067"><ele>263.0</ele><time>2026-04-25T10:52:56.386Z</time></trkpt><trkpt lat="43.89933" lon="12.2897667"><ele>263.33333333333337</ele><time>2026-04-25T10:52:57.385Z</time></trkpt><trkpt lat="43.8994267" lon="12.2899333"><ele>263.6666666666667</ele><time>2026-04-25T10:52:58.385Z</time></trkpt><trkpt lat="43.899525" lon="12.290105"><ele>264.0</ele><time>2026-04-25T10:52:59.386Z</time></trkpt><trkpt lat="43.8996133" lon="12.290275"><ele>264.0</ele><time>2026-04-25T10:53:00.386Z</time></trkpt><trkpt lat="43.8997083" lon="12.29044"><ele>264.0</ele><time>2026-04-25T10:53:01.385Z</time></trkpt><trkpt lat="43.8998067" lon="12.2905983"><ele>264.0</ele><time>2026-04-25T10:53:02.386Z</time></trkpt><trkpt lat="43.8999017" lon="12.2907617"><ele>264.75</ele><time>2026-04-25T10:53:03.385Z</time></trkpt><trkpt lat="43.8999883" lon="12.290925"><ele>265.5</ele><time>2026-04-25T10:53:04.386Z</time></trkpt><trkpt lat="43.9000733" lon="12.2910883"><ele>266.25</ele><time>2026-04-25T10:53:05.385Z</time></trkpt><trkpt lat="43.9001367" lon="12.29126"><ele>267.0</ele><time>2026-04-25T10:53:06.386Z</time></trkpt><trkpt lat="43.9001767" lon="12.2914617"><ele>265.25</ele><time>2026-04-25T10:53:07.386Z</time></trkpt><trkpt lat="43.9002033" lon="12.291665"><ele>263.5</ele><time>2026-04-25T10:53:08.385Z</time></trkpt><trkpt lat="43.9002133" lon="12.2918783"><ele>261.75</ele><time>2026-04-25T10:53:09.386Z</time></trkpt><trkpt lat="43.9002267" lon="12.29208"><ele>260.0</ele><time>2026-04-25T10:53:10.386Z</time></trkpt><trkpt lat="43.9002417" lon="12.2922567"><ele>259.0</ele><time>2026-04-25T10:53:11.385Z</time></trkpt><trkpt lat="43.9002533" lon="12.2924167"><ele>258.0</ele><time>2026-04-25T10:53:12.386Z</time></trkpt><trkpt lat="43.9002617" lon="12.2925817"><ele>257.0</ele><time>2026-04-25T10:53:13.386Z</time></trkpt><trkpt lat="43.90026" lon="12.2927567"><ele>256.0</ele><time>2026-04-25T10:53:14.386Z</time></trkpt><trkpt lat="43.9002683" lon="12.2929417"><ele>255.0</ele><time>2026-04-25T10:53:15.386Z</time></trkpt><trkpt lat="43.90029" lon="12.2931267"><ele>254.0</ele><time>2026-04-25T10:53:16.385Z</time></trkpt><trkpt lat="43.9003333" lon="12.2933067"><ele>253.0</ele><time>2026-04-25T10:53:17.386Z</time></trkpt><trkpt lat="43.9004017" lon="12.29347"><ele>252.0</ele><time>2026-04-25T10:53:18.385Z</time></trkpt><trkpt lat="43.900495" lon="12.293625"><ele>252.0</ele><time>2026-04-25T10:53:19.386Z</time></trkpt><trkpt lat="43.9006133" lon="12.2937617"><ele>252.0</ele><time>2026-04-25T10:53:20.386Z</time></trkpt><trkpt lat="43.900745" lon="12.2939033"><ele>252.0</ele><time>2026-04-25T10:53:21.385Z</time></trkpt><trkpt lat="43.90088" lon="12.2940467"><ele>250.33333333333331</ele><time>2026-04-25T10:53:22.385Z</time></trkpt><trkpt lat="43.9010067" lon="12.294195"><ele>248.66666666666666</ele><time>2026-04-25T10:53:23.385Z</time></trkpt><trkpt lat="43.9011367" lon="12.29434"><ele>247.0</ele><time>2026-04-25T10:53:24.385Z</time></trkpt><trkpt lat="43.9012633" lon="12.2944883"><ele>247.0</ele><time>2026-04-25T10:53:25.385Z</time></trkpt><trkpt lat="43.9013883" lon="12.2946317"><ele>247.0</ele><time>2026-04-25T10:53:26.386Z</time></trkpt><trkpt lat="43.9015233" lon="12.2947517"><ele>247.0</ele><time>2026-04-25T10:53:27.386Z</time></trkpt><trkpt lat="43.90168" lon="12.2948433"><ele>244.66666666666666</ele><time>2026-04-25T10:53:28.386Z</time></trkpt><trkpt lat="43.9018433" lon="12.2949133"><ele>242.33333333333331</ele><time>2026-04-25T10:53:29.386Z</time></trkpt><trkpt lat="43.9020117" lon="12.29496"><ele>240.0</ele><time>2026-04-25T10:53:30.386Z</time></trkpt><trkpt lat="43.9021817" lon="12.295"><ele>240.0</ele><time>2026-04-25T10:53:31.385Z</time></trkpt><trkpt lat="43.9023533" lon="12.2950483"><ele>240.0</ele><time>2026-04-25T10:53:32.385Z</time></trkpt><trkpt lat="43.902515" lon="12.29509"><ele>240.0</ele><time>2026-04-25T10:53:33.386Z</time></trkpt><trkpt lat="43.902675" lon="12.2951233"><ele>239.33333333333331</ele><time>2026-04-25T10:53:34.386Z</time></trkpt><trkpt lat="43.902835" lon="12.29512"><ele>238.66666666666666</ele><time>2026-04-25T10:53:35.386Z</time></trkpt><trkpt lat="43.9029817" lon="12.2950783"><ele>238.0</ele><time>2026-04-25T10:53:36.386Z</time></trkpt><trkpt lat="43.9031167" lon="12.295005"><ele>238.0</ele><time>2026-04-25T10:53:37.386Z</time></trkpt><trkpt lat="43.90324" lon="12.2948783"><ele>238.0</ele><time>2026-04-25T10:53:38.386Z</time></trkpt><trkpt lat="43.9033467" lon="12.2947167"><ele>238.0</ele><time>2026-04-25T10:53:39.386Z</time></trkpt><trkpt lat="43.9034383" lon="12.2945383"><ele>237.66666666666666</ele><time>2026-04-25T10:53:40.386Z</time></trkpt><trkpt lat="43.903535" lon="12.294355"><ele>237.33333333333331</ele><time>2026-04-25T10:53:41.386Z</time></trkpt><trkpt lat="43.9036417" lon="12.294175"><ele>237.0</ele><time>2026-04-25T10:53:42.386Z</time></trkpt><trkpt lat="43.903765" lon="12.294"><ele>241.0</ele><time>2026-04-25T10:53:43.386Z</time></trkpt><trkpt lat="43.903885" lon="12.2938467"><ele>245.0</ele><time>2026-04-25T10:53:44.386Z</time></trkpt><trkpt lat="43.90401" lon="12.2937"><ele>249.0</ele><time>2026-04-25T10:53:45.386Z</time></trkpt><trkpt lat="43.9041333" lon="12.2935583"><ele>246.0</ele><time>2026-04-25T10:53:46.385Z</time></trkpt><trkpt lat="43.9042633" lon="12.2934483"><ele>243.0</ele><time>2026-04-25T10:53:47.385Z</time></trkpt><trkpt lat="43.9043967" lon="12.2933617"><ele>240.0</ele><time>2026-04-25T10:53:48.385Z</time></trkpt><trkpt lat="43.90455" lon="12.2933133"><ele>240.0</ele><time>2026-04-25T10:53:49.385Z</time></trkpt><trkpt lat="43.9047117" lon="12.29332"><ele>240.0</ele><time>2026-04-25T10:53:50.386Z</time></trkpt><trkpt lat="43.9048717" lon="12.2933583"><ele>240.0</ele><time>2026-04-25T10:53:51.386Z</time></trkpt><trkpt lat="43.9050333" lon="12.293425"><ele>240.66666666666669</ele><time>2026-04-25T10:53:52.386Z</time></trkpt><trkpt lat="43.905195" lon="12.2934867"><ele>241.33333333333334</ele><time>2026-04-25T10:53:53.386Z</time></trkpt><trkpt lat="43.9053633" lon="12.2935383"><ele>242.0</ele><time>2026-04-25T10:53:54.386Z</time></trkpt><trkpt lat="43.905535" lon="12.29358"><ele>242.0</ele><time>2026-04-25T10:53:55.385Z</time></trkpt><trkpt lat="43.9057117" lon="12.2936183"><ele>242.0</ele><time>2026-04-25T10:53:56.385Z</time></trkpt><trkpt lat="43.905885" lon="12.29365"><ele>242.0</ele><time>2026-04-25T10:53:57.385Z</time></trkpt><trkpt lat="43.9060667" lon="12.293685"><ele>241.66666666666669</ele><time>2026-04-25T10:53:58.385Z</time></trkpt><trkpt lat="43.90624" lon="12.2937083"><ele>241.33333333333331</ele><time>2026-04-25T10:53:59.385Z</time></trkpt><trkpt lat="43.906415" lon="12.2937383"><ele>241.0</ele><time>2026-04-25T10:54:00.386Z</time></trkpt><trkpt lat="43.9065933" lon="12.293775"><ele>240.0</ele><time>2026-04-25T10:54:01.385Z</time></trkpt><trkpt lat="43.90677" lon="12.2938267"><ele>239.0</ele><time>2026-04-25T10:54:02.386Z</time></trkpt><trkpt lat="43.9069483" lon="12.2938617"><ele>238.0</ele><time>2026-04-25T10:54:03.385Z</time></trkpt><trkpt lat="43.9071283" lon="12.29389"><ele>238.33333333333331</ele><time>2026-04-25T10:54:04.386Z</time></trkpt><trkpt lat="43.9073017" lon="12.2939233"><ele>238.66666666666669</ele><time>2026-04-25T10:54:05.386Z</time></trkpt><trkpt lat="43.90747" lon="12.2939683"><ele>239.0</ele><time>2026-04-25T10:54:06.386Z</time></trkpt><trkpt lat="43.9076467" lon="12.2940083"><ele>239.0</ele><time>2026-04-25T10:54:07.386Z</time></trkpt><trkpt lat="43.907805" lon="12.29405"><ele>239.0</ele><time>2026-04-25T10:54:08.385Z</time></trkpt><trkpt lat="43.90795" lon="12.2940883"><ele>239.0</ele><time>2026-04-25T10:54:09.386Z</time></trkpt><trkpt lat="43.9080867" lon="12.29414"><ele>239.0</ele><time>2026-04-25T10:54:10.385Z</time></trkpt><trkpt lat="43.9082067" lon="12.2942217"><ele>239.0</ele><time>2026-04-25T10:54:11.386Z</time></trkpt><trkpt lat="43.90831" lon="12.2943583"><ele>239.0</ele><time>2026-04-25T10:54:12.386Z</time></trkpt><trkpt lat="43.9083967" lon="12.29453"><ele>239.0</ele><time>2026-04-25T10:54:13.386Z</time></trkpt><trkpt lat="43.9084717" lon="12.2947283"><ele>240.66666666666669</ele><time>2026-04-25T10:54:14.386Z</time></trkpt><trkpt lat="43.9085383" lon="12.29494"><ele>242.33333333333331</ele><time>2026-04-25T10:54:15.385Z</time></trkpt><trkpt lat="43.9086083" lon="12.29516"><ele>244.0</ele><time>2026-04-25T10:54:16.386Z</time></trkpt><trkpt lat="43.9086833" lon="12.2953817"><ele>243.33333333333331</ele><time>2026-04-25T10:54:17.386Z</time></trkpt><trkpt lat="43.9087567" lon="12.2956067"><ele>242.66666666666669</ele><time>2026-04-25T10:54:18.386Z</time></trkpt><trkpt lat="43.908835" lon="12.2958317"><ele>242.0</ele><time>2026-04-25T10:54:19.386Z</time></trkpt><trkpt lat="43.9089083" lon="12.2960567"><ele>242.0</ele><time>2026-04-25T10:54:20.385Z</time></trkpt><trkpt lat="43.90897" lon="12.296295"><ele>242.0</ele><time>2026-04-25T10:54:21.385Z</time></trkpt><trkpt lat="43.9090267" lon="12.296525"><ele>242.0</ele><time>2026-04-25T10:54:22.386Z</time></trkpt><trkpt lat="43.9090767" lon="12.29675"><ele>241.66666666666669</ele><time>2026-04-25T10:54:23.386Z</time></trkpt><trkpt lat="43.9091433" lon="12.296965"><ele>241.33333333333331</ele><time>2026-04-25T10:54:24.385Z</time></trkpt><trkpt lat="43.90923" lon="12.29718"><ele>241.0</ele><time>2026-04-25T10:54:25.386Z</time></trkpt><trkpt lat="43.9093367" lon="12.297375"><ele>242.66666666666666</ele><time>2026-04-25T10:54:26.386Z</time></trkpt><trkpt lat="43.9094417" lon="12.2975567"><ele>244.33333333333331</ele><time>2026-04-25T10:54:27.385Z</time></trkpt><trkpt lat="43.9095433" lon="12.2977417"><ele>246.0</ele><time>2026-04-25T10:54:28.386Z</time></trkpt><trkpt lat="43.90967" lon="12.297905"><ele>246.0</ele><time>2026-04-25T10:54:29.385Z</time></trkpt><trkpt lat="43.9098083" lon="12.2980583"><ele>246.0</ele><time>2026-04-25T10:54:30.386Z</time></trkpt><trkpt lat="43.9099583" lon="12.2981867"><ele>246.0</ele><time>2026-04-25T10:54:31.385Z</time></trkpt><trkpt lat="43.9101133" lon="12.2983"><ele>246.66666666666669</ele><time>2026-04-25T10:54:32.385Z</time></trkpt><trkpt lat="43.9102583" lon="12.2984083"><ele>247.33333333333334</ele><time>2026-04-25T10:54:33.386Z</time></trkpt><trkpt lat="43.9103783" lon="12.2985417"><ele>248.0</ele><time>2026-04-25T10:54:34.385Z</time></trkpt><trkpt lat="43.9104733" lon="12.2987017"><ele>248.0</ele><time>2026-04-25T10:54:35.386Z</time></trkpt><trkpt lat="43.9105283" lon="12.2988833"><ele>248.0</ele><time>2026-04-25T10:54:36.386Z</time></trkpt><trkpt lat="43.9105617" lon="12.2990933"><ele>248.0</ele><time>2026-04-25T10:54:37.385Z</time></trkpt><trkpt lat="43.9105717" lon="12.2993217"><ele>247.33333333333334</ele><time>2026-04-25T10:54:38.386Z</time></trkpt><trkpt lat="43.91057" lon="12.29955"><ele>246.66666666666669</ele><time>2026-04-25T10:54:39.385Z</time></trkpt><trkpt lat="43.910565" lon="12.29979"><ele>246.0</ele><time>2026-04-25T10:54:40.385Z</time></trkpt><trkpt lat="43.910545" lon="12.30003"><ele>246.0</ele><time>2026-04-25T10:54:41.385Z</time></trkpt><trkpt lat="43.9105217" lon="12.30027"><ele>246.0</ele><time>2026-04-25T10:54:42.386Z</time></trkpt><trkpt lat="43.9104917" lon="12.3005117"><ele>246.0</ele><time>2026-04-25T10:54:43.386Z</time></trkpt><trkpt lat="43.9104617" lon="12.3007617"><ele>247.0</ele><time>2026-04-25T10:54:44.385Z</time></trkpt><trkpt lat="43.910425" lon="12.301015"><ele>248.0</ele><time>2026-04-25T10:54:45.385Z</time></trkpt><trkpt lat="43.91038" lon="12.3012583"><ele>249.0</ele><time>2026-04-25T10:54:46.386Z</time></trkpt><trkpt lat="43.9103317" lon="12.3015"><ele>249.33333333333331</ele><time>2026-04-25T10:54:47.386Z</time></trkpt><trkpt lat="43.9102983" lon="12.3017283"><ele>249.66666666666666</ele><time>2026-04-25T10:54:48.386Z</time></trkpt><trkpt lat="43.9102717" lon="12.3019367"><ele>250.0</ele><time>2026-04-25T10:54:49.385Z</time></trkpt><trkpt lat="43.91025" lon="12.3021233"><ele>248.75</ele><time>2026-04-25T10:54:50.385Z</time></trkpt><trkpt lat="43.91021" lon="12.3023"><ele>247.5</ele><time>2026-04-25T10:54:51.386Z</time></trkpt><trkpt lat="43.910145" lon="12.302445"><ele>246.25</ele><time>2026-04-25T10:54:52.386Z</time></trkpt><trkpt lat="43.91009" lon="12.3025733"><ele>245.0</ele><time>2026-04-25T10:54:53.386Z</time></trkpt><trkpt lat="43.9100433" lon="12.302715"><ele>244.0</ele><time>2026-04-25T10:54:54.385Z</time></trkpt><trkpt lat="43.9100233" lon="12.3028817"><ele>243.0</ele><time>2026-04-25T10:54:55.386Z</time></trkpt><trkpt lat="43.9100533" lon="12.3030283"><ele>242.0</ele><time>2026-04-25T10:54:56.385Z</time></trkpt><trkpt lat="43.9101233" lon="12.3031767"><ele>241.0</ele><time>2026-04-25T10:54:57.385Z</time></trkpt><trkpt lat="43.91023" lon="12.3033133"><ele>241.0</ele><time>2026-04-25T10:54:58.386Z</time></trkpt><trkpt lat="43.9103483" lon="12.30346"><ele>241.0</ele><time>2026-04-25T10:54:59.386Z</time></trkpt><trkpt lat="43.9104767" lon="12.3036083"><ele>241.0</ele><time>2026-04-25T10:55:00.385Z</time></trkpt><trkpt lat="43.9106033" lon="12.3037583"><ele>241.0</ele><time>2026-04-25T10:55:01.385Z</time></trkpt><trkpt lat="43.9107433" lon="12.3038917"><ele>241.0</ele><time>2026-04-25T10:55:02.386Z</time></trkpt><trkpt lat="43.9108933" lon="12.304"><ele>241.0</ele><time>2026-04-25T10:55:03.386Z</time></trkpt><trkpt lat="43.9110583" lon="12.30407"><ele>237.66666666666666</ele><time>2026-04-25T10:55:04.385Z</time></trkpt><trkpt lat="43.911235" lon="12.304125"><ele>234.33333333333331</ele><time>2026-04-25T10:55:05.385Z</time></trkpt><trkpt lat="43.9114183" lon="12.30416"><ele>231.0</ele><time>2026-04-25T10:55:06.385Z</time></trkpt><trkpt lat="43.9116133" lon="12.3041867"><ele>231.0</ele><time>2026-04-25T10:55:07.386Z</time></trkpt><trkpt lat="43.9118083" lon="12.3042017"><ele>231.0</ele><time>2026-04-25T10:55:08.386Z</time></trkpt><trkpt lat="43.912" lon="12.304215"><ele>231.0</ele><time>2026-04-25T10:55:09.386Z</time></trkpt><trkpt lat="43.9121867" lon="12.3042433"><ele>231.0</ele><time>2026-04-25T10:55:10.386Z</time></trkpt><trkpt lat="43.91237" lon="12.3042817"><ele>231.0</ele><time>2026-04-25T10:55:11.386Z</time></trkpt><trkpt lat="43.9125533" lon="12.3043317"><ele>231.0</ele><time>2026-04-25T10:55:12.385Z</time></trkpt><trkpt lat="43.9127367" lon="12.3044083"><ele>230.0</ele><time>2026-04-25T10:55:13.385Z</time></trkpt><trkpt lat="43.9129167" lon="12.3045"><ele>229.0</ele><time>2026-04-25T10:55:14.386Z</time></trkpt><trkpt lat="43.913095" lon="12.3046"><ele>228.0</ele><time>2026-04-25T10:55:15.386Z</time></trkpt><trkpt lat="43.9132717" lon="12.3046983"><ele>229.0</ele><time>2026-04-25T10:55:16.385Z</time></trkpt><trkpt lat="43.9134517" lon="12.30479"><ele>230.0</ele><time>2026-04-25T10:55:17.386Z</time></trkpt><trkpt lat="43.91363" lon="12.3048817"><ele>231.0</ele><time>2026-04-25T10:55:18.385Z</time></trkpt><trkpt lat="43.9138067" lon="12.3049767"><ele>231.0</ele><time>2026-04-25T10:55:19.386Z</time></trkpt><trkpt lat="43.9139767" lon="12.3050667"><ele>231.0</ele><time>2026-04-25T10:55:20.386Z</time></trkpt><trkpt lat="43.9141517" lon="12.3051617"><ele>231.0</ele><time>2026-04-25T10:55:21.386Z</time></trkpt><trkpt lat="43.914325" lon="12.30525"><ele>231.33333333333331</ele><time>2026-04-25T10:55:22.386Z</time></trkpt><trkpt lat="43.9144983" lon="12.30534"><ele>231.66666666666666</ele><time>2026-04-25T10:55:23.385Z</time></trkpt><trkpt lat="43.91467" lon="12.3054267"><ele>232.0</ele><time>2026-04-25T10:55:24.386Z</time></trkpt><trkpt lat="43.91484" lon="12.3055167"><ele>232.0</ele><time>2026-04-25T10:55:25.386Z</time></trkpt><trkpt lat="43.9150083" lon="12.3055967"><ele>232.0</ele><time>2026-04-25T10:55:26.386Z</time></trkpt><trkpt lat="43.9151833" lon="12.305685"><ele>232.0</ele><time>2026-04-25T10:55:27.385Z</time></trkpt><trkpt lat="43.9153583" lon="12.3057767"><ele>232.0</ele><time>2026-04-25T10:55:28.385Z</time></trkpt><trkpt lat="43.9155317" lon="12.30586"><ele>232.0</ele><time>2026-04-25T10:55:29.386Z</time></trkpt><trkpt lat="43.9157083" lon="12.3059333"><ele>232.0</ele><time>2026-04-25T10:55:30.385Z</time></trkpt><trkpt lat="43.9158917" lon="12.3059983"><ele>232.66666666666666</ele><time>2026-04-25T10:55:31.386Z</time></trkpt><trkpt lat="43.9160767" lon="12.3060667"><ele>233.33333333333331</ele><time>2026-04-25T10:55:32.385Z</time></trkpt><trkpt lat="43.916255" lon="12.3061317"><ele>234.0</ele><time>2026-04-25T10:55:33.386Z</time></trkpt><trkpt lat="43.9164333" lon="12.30621"><ele>234.0</ele><time>2026-04-25T10:55:34.385Z</time></trkpt><trkpt lat="43.9166017" lon="12.3063183"><ele>234.0</ele><time>2026-04-25T10:55:35.385Z</time></trkpt><trkpt lat="43.9167417" lon="12.3064567"><ele>234.0</ele><time>2026-04-25T10:55:36.385Z</time></trkpt><trkpt lat="43.9168733" lon="12.3066233"><ele>232.66666666666669</ele><time>2026-04-25T10:55:37.386Z</time></trkpt><trkpt lat="43.917005" lon="12.306805"><ele>231.33333333333334</ele><time>2026-04-25T10:55:38.386Z</time></trkpt><trkpt lat="43.91713" lon="12.3069917"><ele>230.0</ele><time>2026-04-25T10:55:39.386Z</time></trkpt><trkpt lat="43.9172617" lon="12.307175"><ele>229.66666666666669</ele><time>2026-04-25T10:55:40.385Z</time></trkpt><trkpt lat="43.9173883" lon="12.3073583"><ele>229.33333333333331</ele><time>2026-04-25T10:55:41.386Z</time></trkpt><trkpt lat="43.9175233" lon="12.3075383"><ele>229.0</ele><time>2026-04-25T10:55:42.386Z</time></trkpt><trkpt lat="43.917655" lon="12.3077233"><ele>229.0</ele><time>2026-04-25T10:55:43.385Z</time></trkpt><trkpt lat="43.917785" lon="12.3079"><ele>229.0</ele><time>2026-04-25T10:55:44.385Z</time></trkpt><trkpt lat="43.9179217" lon="12.3080783"><ele>229.0</ele><time>2026-04-25T10:55:45.386Z</time></trkpt><trkpt lat="43.91805" lon="12.3082633"><ele>228.33333333333331</ele><time>2026-04-25T10:55:46.386Z</time></trkpt><trkpt lat="43.9181767" lon="12.30845"><ele>227.66666666666669</ele><time>2026-04-25T10:55:47.386Z</time></trkpt><trkpt lat="43.9183017" lon="12.308635"><ele>227.0</ele><time>2026-04-25T10:55:48.386Z</time></trkpt><trkpt lat="43.9184367" lon="12.3088133"><ele>226.0</ele><time>2026-04-25T10:55:49.385Z</time></trkpt><trkpt lat="43.9185683" lon="12.3089967"><ele>225.0</ele><time>2026-04-25T10:55:50.385Z</time></trkpt><trkpt lat="43.9186983" lon="12.3091833"><ele>224.0</ele><time>2026-04-25T10:55:51.386Z</time></trkpt><trkpt lat="43.91883" lon="12.309365"><ele>224.0</ele><time>2026-04-25T10:55:52.385Z</time></trkpt><trkpt lat="43.9189617" lon="12.3095467"><ele>224.0</ele><time>2026-04-25T10:55:53.385Z</time></trkpt><trkpt lat="43.9190867" lon="12.3097333"><ele>224.0</ele><time>2026-04-25T10:55:54.386Z</time></trkpt><trkpt lat="43.919215" lon="12.30991"><ele>224.0</ele><time>2026-04-25T10:55:55.386Z</time></trkpt><trkpt lat="43.9193383" lon="12.3100883"><ele>224.0</ele><time>2026-04-25T10:55:56.385Z</time></trkpt><trkpt lat="43.9194617" lon="12.310265"><ele>224.0</ele><time>2026-04-25T10:55:57.386Z</time></trkpt><trkpt lat="43.9195767" lon="12.3104583"><ele>222.0</ele><time>2026-04-25T10:55:58.386Z</time></trkpt><trkpt lat="43.9196783" lon="12.3106533"><ele>220.0</ele><time>2026-04-25T10:55:59.385Z</time></trkpt><trkpt lat="43.91977" lon="12.3108483"><ele>218.0</ele><time>2026-04-25T10:56:00.386Z</time></trkpt><trkpt lat="43.919845" lon="12.311045"><ele>218.0</ele><time>2026-04-25T10:56:01.385Z</time></trkpt><trkpt lat="43.919915" lon="12.3112317"><ele>218.0</ele><time>2026-04-25T10:56:02.385Z</time></trkpt><trkpt lat="43.9199983" lon="12.3113967"><ele>218.0</ele><time>2026-04-25T10:56:03.386Z</time></trkpt><trkpt lat="43.9200767" lon="12.31155"><ele>218.0</ele><time>2026-04-25T10:56:04.386Z</time></trkpt><trkpt lat="43.9201767" lon="12.3116883"><ele>217.66666666666669</ele><time>2026-04-25T10:56:05.386Z</time></trkpt><trkpt lat="43.9202967" lon="12.311815"><ele>217.33333333333331</ele><time>2026-04-25T10:56:06.385Z</time></trkpt><trkpt lat="43.920425" lon="12.311945"><ele>217.0</ele><time>2026-04-25T10:56:07.385Z</time></trkpt><trkpt lat="43.920555" lon="12.312075"><ele>217.0</ele><time>2026-04-25T10:56:08.385Z</time></trkpt><trkpt lat="43.9206833" lon="12.3122033"><ele>217.0</ele><time>2026-04-25T10:56:09.385Z</time></trkpt><trkpt lat="43.9208167" lon="12.31233"><ele>217.0</ele><time>2026-04-25T10:56:10.386Z</time></trkpt><trkpt lat="43.9209583" lon="12.3124467"><ele>214.0</ele><time>2026-04-25T10:56:11.386Z</time></trkpt><trkpt lat="43.9210933" lon="12.3125833"><ele>211.0</ele><time>2026-04-25T10:56:12.385Z</time></trkpt><trkpt lat="43.9212217" lon="12.3127083"><ele>208.0</ele><time>2026-04-25T10:56:13.385Z</time></trkpt><trkpt lat="43.9213517" lon="12.31283"><ele>208.0</ele><time>2026-04-25T10:56:14.385Z</time></trkpt><trkpt lat="43.9214817" lon="12.3129333"><ele>208.0</ele><time>2026-04-25T10:56:15.386Z</time></trkpt><trkpt lat="43.9216017" lon="12.3130567"><ele>208.0</ele><time>2026-04-25T10:56:16.386Z</time></trkpt><trkpt lat="43.9217233" lon="12.3131867"><ele>209.66666666666666</ele><time>2026-04-25T10:56:17.386Z</time></trkpt><trkpt lat="43.92184" lon="12.3133333"><ele>211.33333333333331</ele><time>2026-04-25T10:56:18.386Z</time></trkpt><trkpt lat="43.9219483" lon="12.3134917"><ele>213.0</ele><time>2026-04-25T10:56:19.386Z</time></trkpt><trkpt lat="43.9220567" lon="12.3136617"><ele>213.0</ele><time>2026-04-25T10:56:20.386Z</time></trkpt><trkpt lat="43.9221617" lon="12.3138283"><ele>213.0</ele><time>2026-04-25T10:56:21.385Z</time></trkpt><trkpt lat="43.9222733" lon="12.3139983"><ele>213.0</ele><time>2026-04-25T10:56:22.385Z</time></trkpt><trkpt lat="43.92238" lon="12.3141683"><ele>212.66666666666669</ele><time>2026-04-25T10:56:23.386Z</time></trkpt><trkpt lat="43.92248" lon="12.3143417"><ele>212.33333333333334</ele><time>2026-04-25T10:56:24.386Z</time></trkpt><trkpt lat="43.9225767" lon="12.3144983"><ele>212.0</ele><time>2026-04-25T10:56:25.385Z</time></trkpt><trkpt lat="43.9226667" lon="12.31466"><ele>213.25</ele><time>2026-04-25T10:56:26.385Z</time></trkpt><trkpt lat="43.9227567" lon="12.3148117"><ele>214.5</ele><time>2026-04-25T10:56:27.385Z</time></trkpt><trkpt lat="43.922845" lon="12.3149683"><ele>215.75</ele><time>2026-04-25T10:56:28.386Z</time></trkpt><trkpt lat="43.922925" lon="12.3151417"><ele>217.0</ele><time>2026-04-25T10:56:29.385Z</time></trkpt><trkpt lat="43.92299" lon="12.315325"><ele>217.0</ele><time>2026-04-25T10:56:30.386Z</time></trkpt><trkpt lat="43.923045" lon="12.3155117"><ele>217.0</ele><time>2026-04-25T10:56:31.385Z</time></trkpt><trkpt lat="43.9230933" lon="12.3156933"><ele>217.0</ele><time>2026-04-25T10:56:32.386Z</time></trkpt><trkpt lat="43.9231417" lon="12.3158783"><ele>217.0</ele><time>2026-04-25T10:56:33.385Z</time></trkpt><trkpt lat="43.923195" lon="12.3160517"><ele>217.0</ele><time>2026-04-25T10:56:34.386Z</time></trkpt><trkpt lat="43.9232833" lon="12.3162067"><ele>217.0</ele><time>2026-04-25T10:56:35.385Z</time></trkpt><trkpt lat="43.9233767" lon="12.3163683"><ele>217.0</ele><time>2026-04-25T10:56:36.386Z</time></trkpt><trkpt lat="43.92348" lon="12.3165167"><ele>217.0</ele><time>2026-04-25T10:56:37.386Z</time></trkpt><trkpt lat="43.923585" lon="12.316675"><ele>215.66666666666666</ele><time>2026-04-25T10:56:38.385Z</time></trkpt><trkpt lat="43.9236983" lon="12.3168283"><ele>214.33333333333331</ele><time>2026-04-25T10:56:39.386Z</time></trkpt><trkpt lat="43.9238117" lon="12.31698"><ele>213.0</ele><time>2026-04-25T10:56:40.386Z</time></trkpt><trkpt lat="43.923925" lon="12.3171283"><ele>213.0</ele><time>2026-04-25T10:56:41.385Z</time></trkpt><trkpt lat="43.9240367" lon="12.3172667"><ele>213.0</ele><time>2026-04-25T10:56:42.385Z</time></trkpt><trkpt lat="43.9241433" lon="12.31741"><ele>213.0</ele><time>2026-04-25T10:56:43.386Z</time></trkpt><trkpt lat="43.9242533" lon="12.3175417"><ele>213.0</ele><time>2026-04-25T10:56:44.386Z</time></trkpt><trkpt lat="43.9243667" lon="12.3176733"><ele>213.66666666666669</ele><time>2026-04-25T10:56:45.386Z</time></trkpt><trkpt lat="43.9244867" lon="12.31778"><ele>214.33333333333334</ele><time>2026-04-25T10:56:46.386Z</time></trkpt><trkpt lat="43.9246267" lon="12.3178683"><ele>215.0</ele><time>2026-04-25T10:56:47.386Z</time></trkpt><trkpt lat="43.92477" lon="12.31795"><ele>215.0</ele><time>2026-04-25T10:56:48.386Z</time></trkpt><trkpt lat="43.9249133" lon="12.3180183"><ele>215.0</ele><time>2026-04-25T10:56:49.385Z</time></trkpt><trkpt lat="43.925055" lon="12.3180833"><ele>215.0</ele><time>2026-04-25T10:56:50.385Z</time></trkpt><trkpt lat="43.925195" lon="12.31814"><ele>215.0</ele><time>2026-04-25T10:56:51.386Z</time></trkpt><trkpt lat="43.925325" lon="12.31821"><ele>214.25</ele><time>2026-04-25T10:56:52.386Z</time></trkpt><trkpt lat="43.9254417" lon="12.3183167"><ele>213.5</ele><time>2026-04-25T10:56:53.386Z</time></trkpt><trkpt lat="43.925555" lon="12.3184483"><ele>212.75</ele><time>2026-04-25T10:56:54.386Z</time></trkpt><trkpt lat="43.925655" lon="12.3186117"><ele>212.0</ele><time>2026-04-25T10:56:55.385Z</time></trkpt><trkpt lat="43.92575" lon="12.3187833"><ele>211.66666666666669</ele><time>2026-04-25T10:56:56.386Z</time></trkpt><trkpt lat="43.925845" lon="12.3189517"><ele>211.33333333333331</ele><time>2026-04-25T10:56:57.386Z</time></trkpt><trkpt lat="43.925945" lon="12.3191217"><ele>211.0</ele><time>2026-04-25T10:56:58.385Z</time></trkpt><trkpt lat="43.9260433" lon="12.3192917"><ele>211.0</ele><time>2026-04-25T10:56:59.385Z</time></trkpt><trkpt lat="43.9261383" lon="12.3194667"><ele>211.0</ele><time>2026-04-25T10:57:00.385Z</time></trkpt><trkpt lat="43.92624" lon="12.31964"><ele>211.0</ele><time>2026-04-25T10:57:01.386Z</time></trkpt><trkpt lat="43.92634" lon="12.31981"><ele>211.0</ele><time>2026-04-25T10:57:02.386Z</time></trkpt><trkpt lat="43.9264383" lon="12.3199833"><ele>211.0</ele><time>2026-04-25T10:57:03.385Z</time></trkpt><trkpt lat="43.9265333" lon="12.32015"><ele>211.0</ele><time>2026-04-25T10:57:04.385Z</time></trkpt><trkpt lat="43.9266267" lon="12.32031"><ele>211.0</ele><time>2026-04-25T10:57:05.386Z</time></trkpt><trkpt lat="43.9267117" lon="12.3204667"><ele>211.0</ele><time>2026-04-25T10:57:06.385Z</time></trkpt><trkpt lat="43.926795" lon="12.3206217"><ele>211.0</ele><time>2026-04-25T10:57:07.386Z</time></trkpt><trkpt lat="43.9268833" lon="12.3207733"><ele>211.0</ele><time>2026-04-25T10:57:08.386Z</time></trkpt><trkpt lat="43.926975" lon="12.3209317"><ele>210.25</ele><time>2026-04-25T10:57:09.386Z</time></trkpt><trkpt lat="43.927065" lon="12.3210933"><ele>209.5</ele><time>2026-04-25T10:57:10.385Z</time></trkpt><trkpt lat="43.9271583" lon="12.321255"><ele>208.75</ele><time>2026-04-25T10:57:11.385Z</time></trkpt><trkpt lat="43.9272517" lon="12.3214217"><ele>208.0</ele><time>2026-04-25T10:57:12.386Z</time></trkpt><trkpt lat="43.9273433" lon="12.3215883"><ele>207.33333333333331</ele><time>2026-04-25T10:57:13.386Z</time></trkpt><trkpt lat="43.92745" lon="12.32175"><ele>206.66666666666669</ele><time>2026-04-25T10:57:14.386Z</time></trkpt><trkpt lat="43.9275667" lon="12.3219133"><ele>206.0</ele><time>2026-04-25T10:57:15.386Z</time></trkpt><trkpt lat="43.9276817" lon="12.32208"><ele>205.33333333333334</ele><time>2026-04-25T10:57:16.386Z</time></trkpt><trkpt lat="43.9278017" lon="12.3222283"><ele>204.66666666666669</ele><time>2026-04-25T10:57:17.385Z</time></trkpt><trkpt lat="43.92792" lon="12.3223783"><ele>204.0</ele><time>2026-04-25T10:57:18.386Z</time></trkpt><trkpt lat="43.92803" lon="12.32252"><ele>204.25</ele><time>2026-04-25T10:57:19.386Z</time></trkpt><trkpt lat="43.9281367" lon="12.322655"><ele>204.5</ele><time>2026-04-25T10:57:20.385Z</time></trkpt><trkpt lat="43.928245" lon="12.32277"><ele>204.75</ele><time>2026-04-25T10:57:21.386Z</time></trkpt><trkpt lat="43.9283417" lon="12.3228917"><ele>205.0</ele><time>2026-04-25T10:57:22.386Z</time></trkpt><trkpt lat="43.928415" lon="12.323015"><ele>204.6</ele><time>2026-04-25T10:57:23.386Z</time></trkpt><trkpt lat="43.9284717" lon="12.323135"><ele>204.2</ele><time>2026-04-25T10:57:24.386Z</time></trkpt><trkpt lat="43.928525" lon="12.3232367"><ele>203.8</ele><time>2026-04-25T10:57:25.385Z</time></trkpt><trkpt lat="43.9286" lon="12.3233217"><ele>203.4</ele><time>2026-04-25T10:57:26.386Z</time></trkpt><trkpt lat="43.9286967" lon="12.3234017"><ele>203.0</ele><time>2026-04-25T10:57:27.386Z</time></trkpt><trkpt lat="43.9288167" lon="12.3234933"><ele>203.0</ele><time>2026-04-25T10:57:28.385Z</time></trkpt><trkpt lat="43.9289383" lon="12.323615"><ele>203.0</ele><time>2026-04-25T10:57:29.386Z</time></trkpt><trkpt lat="43.9290583" lon="12.323755"><ele>203.0</ele><time>2026-04-25T10:57:30.386Z</time></trkpt><trkpt lat="43.9291783" lon="12.323905"><ele>202.33333333333334</ele><time>2026-04-25T10:57:31.386Z</time></trkpt><trkpt lat="43.9293067" lon="12.324055"><ele>201.66666666666669</ele><time>2026-04-25T10:57:32.386Z</time></trkpt><trkpt lat="43.92944" lon="12.3242017"><ele>201.0</ele><time>2026-04-25T10:57:33.386Z</time></trkpt><trkpt lat="43.929575" lon="12.3243567"><ele>201.0</ele><time>2026-04-25T10:57:34.386Z</time></trkpt><trkpt lat="43.9296967" lon="12.3245217"><ele>201.0</ele><time>2026-04-25T10:57:35.386Z</time></trkpt><trkpt lat="43.929825" lon="12.3246833"><ele>201.0</ele><time>2026-04-25T10:57:36.385Z</time></trkpt><trkpt lat="43.92995" lon="12.3248567"><ele>201.0</ele><time>2026-04-25T10:57:37.386Z</time></trkpt><trkpt lat="43.9300767" lon="12.3250367"><ele>201.0</ele><time>2026-04-25T10:57:38.386Z</time></trkpt><trkpt lat="43.930195" lon="12.32523"><ele>201.0</ele><time>2026-04-25T10:57:39.386Z</time></trkpt><trkpt lat="43.9303" lon="12.32544"><ele>200.33333333333331</ele><time>2026-04-25T10:57:40.385Z</time></trkpt><trkpt lat="43.9304017" lon="12.3256467"><ele>199.66666666666666</ele><time>2026-04-25T10:57:41.385Z</time></trkpt><trkpt lat="43.930505" lon="12.3258533"><ele>199.0</ele><time>2026-04-25T10:57:42.386Z</time></trkpt><trkpt lat="43.9306117" lon="12.3260533"><ele>199.0</ele><time>2026-04-25T10:57:43.386Z</time></trkpt><trkpt lat="43.9307217" lon="12.3262567"><ele>199.0</ele><time>2026-04-25T10:57:44.386Z</time></trkpt><trkpt lat="43.9308233" lon="12.326465"><ele>199.0</ele><time>2026-04-25T10:57:45.385Z</time></trkpt><trkpt lat="43.93091" lon="12.326685"><ele>198.33333333333331</ele><time>2026-04-25T10:57:46.386Z</time></trkpt><trkpt lat="43.9309717" lon="12.3269217"><ele>197.66666666666669</ele><time>2026-04-25T10:57:47.386Z</time></trkpt><trkpt lat="43.9310167" lon="12.3271667"><ele>197.0</ele><time>2026-04-25T10:57:48.386Z</time></trkpt><trkpt lat="43.9310517" lon="12.3274217"><ele>197.0</ele><time>2026-04-25T10:57:49.385Z</time></trkpt><trkpt lat="43.931095" lon="12.3276733"><ele>197.0</ele><time>2026-04-25T10:57:50.386Z</time></trkpt><trkpt lat="43.93114" lon="12.327925"><ele>197.0</ele><time>2026-04-25T10:57:51.386Z</time></trkpt><trkpt lat="43.931175" lon="12.32818"><ele>196.33333333333334</ele><time>2026-04-25T10:57:52.385Z</time></trkpt><trkpt lat="43.931215" lon="12.3284367"><ele>195.66666666666669</ele><time>2026-04-25T10:57:53.385Z</time></trkpt><trkpt lat="43.931265" lon="12.3286867"><ele>195.0</ele><time>2026-04-25T10:57:54.386Z</time></trkpt><trkpt lat="43.9313117" lon="12.3289317"><ele>194.0</ele><time>2026-04-25T10:57:55.386Z</time></trkpt></trkseg></trk></gpx>